<?xml version="1.0" encoding="UTF-8" standalone="no" ?>
<gpx xmlns="http://www.topografix.com/GPX/1/1" xmlns:xsi="http://www.w3.org/2001/XMLSchema-instance" xsi:schemaLocation="http://www.topografix.com/GPX/1/1 http://www.topografix.com/GPX/1/1/gpx.xsd" version="1.1" creator="VisuGPX - https://www.visugpx.com">
  <metadata>
    <name>Bon Repos sur Blavet à Gouarec</name>
    <desc><![CDATA[Marche le long du canal de Nantes à Brest depuis Bon repos jusqu'à Gouarec et retour par le GR37 au travers des lande de Coat Liscuit et les gorges du Daoulas]]></desc>
  </metadata>
  <trk>
    <name><![CDATA[Bon Repos sur Blavet marche]]></name>
    <trkseg>
      <trkpt lat="48.21485" lon="-3.12944">
        <ele>132</ele>
        <time>2020-10-19T10:00:26.000Z</time>
      </trkpt>
      <trkpt lat="48.21485" lon="-3.12946">
        <ele>132</ele>
        <time>2020-10-19T10:00:27.000Z</time>
      </trkpt>
      <trkpt lat="48.21485" lon="-3.1295">
        <ele>132</ele>
        <time>2020-10-19T10:00:28.000Z</time>
      </trkpt>
      <trkpt lat="48.21485" lon="-3.1295">
        <ele>132</ele>
        <time>2020-10-19T10:00:29.000Z</time>
      </trkpt>
      <trkpt lat="48.21485" lon="-3.12952">
        <ele>132</ele>
        <time>2020-10-19T10:00:30.000Z</time>
      </trkpt>
      <trkpt lat="48.21484" lon="-3.12954">
        <ele>132</ele>
        <time>2020-10-19T10:00:31.000Z</time>
      </trkpt>
      <trkpt lat="48.21484" lon="-3.12956">
        <ele>132</ele>
        <time>2020-10-19T10:00:32.000Z</time>
      </trkpt>
      <trkpt lat="48.21484" lon="-3.12959">
        <ele>132</ele>
        <time>2020-10-19T10:00:33.000Z</time>
      </trkpt>
      <trkpt lat="48.21483" lon="-3.12961">
        <ele>132.19999694824</ele>
        <time>2020-10-19T10:00:34.000Z</time>
      </trkpt>
      <trkpt lat="48.21483" lon="-3.12963">
        <ele>132.19999694824</ele>
        <time>2020-10-19T10:00:35.000Z</time>
      </trkpt>
      <trkpt lat="48.21482" lon="-3.12965">
        <ele>132.19999694824</ele>
        <time>2020-10-19T10:00:36.000Z</time>
      </trkpt>
      <trkpt lat="48.21481" lon="-3.12966">
        <ele>132</ele>
        <time>2020-10-19T10:00:37.000Z</time>
      </trkpt>
      <trkpt lat="48.2148" lon="-3.12967">
        <ele>132</ele>
        <time>2020-10-19T10:00:38.000Z</time>
      </trkpt>
      <trkpt lat="48.21479" lon="-3.12967">
        <ele>131.80000305176</ele>
        <time>2020-10-19T10:00:39.000Z</time>
      </trkpt>
      <trkpt lat="48.21478" lon="-3.12968">
        <ele>131.80000305176</ele>
        <time>2020-10-19T10:00:40.000Z</time>
      </trkpt>
      <trkpt lat="48.21478" lon="-3.12968">
        <ele>131.80000305176</ele>
        <time>2020-10-19T10:00:41.000Z</time>
      </trkpt>
      <trkpt lat="48.21478" lon="-3.12968">
        <ele>131.80000305176</ele>
        <time>2020-10-19T10:00:42.000Z</time>
      </trkpt>
      <trkpt lat="48.21477" lon="-3.12968">
        <ele>131.80000305176</ele>
        <time>2020-10-19T10:00:43.000Z</time>
      </trkpt>
      <trkpt lat="48.21477" lon="-3.12968">
        <ele>131.80000305176</ele>
        <time>2020-10-19T10:00:44.000Z</time>
      </trkpt>
      <trkpt lat="48.21477" lon="-3.12968">
        <ele>131.60000610352</ele>
        <time>2020-10-19T10:00:45.000Z</time>
      </trkpt>
      <trkpt lat="48.21477" lon="-3.12969">
        <ele>131.60000610352</ele>
        <time>2020-10-19T10:00:46.000Z</time>
      </trkpt>
      <trkpt lat="48.21477" lon="-3.12969">
        <ele>131.80000305176</ele>
        <time>2020-10-19T10:00:47.000Z</time>
      </trkpt>
      <trkpt lat="48.21477" lon="-3.12969">
        <ele>131.60000610352</ele>
        <time>2020-10-19T10:00:48.000Z</time>
      </trkpt>
      <trkpt lat="48.21477" lon="-3.12969">
        <ele>131.80000305176</ele>
        <time>2020-10-19T10:00:49.000Z</time>
      </trkpt>
      <trkpt lat="48.21477" lon="-3.12969">
        <ele>131.80000305176</ele>
        <time>2020-10-19T10:00:50.000Z</time>
      </trkpt>
      <trkpt lat="48.21478" lon="-3.12969">
        <ele>131.80000305176</ele>
        <time>2020-10-19T10:00:51.000Z</time>
      </trkpt>
      <trkpt lat="48.21478" lon="-3.12969">
        <ele>131.80000305176</ele>
        <time>2020-10-19T10:00:52.000Z</time>
      </trkpt>
      <trkpt lat="48.21478" lon="-3.1297">
        <ele>131.80000305176</ele>
        <time>2020-10-19T10:00:53.000Z</time>
      </trkpt>
      <trkpt lat="48.21478" lon="-3.1297">
        <ele>131.80000305176</ele>
        <time>2020-10-19T10:00:54.000Z</time>
      </trkpt>
      <trkpt lat="48.21478" lon="-3.1297">
        <ele>131.80000305176</ele>
        <time>2020-10-19T10:00:55.000Z</time>
      </trkpt>
      <trkpt lat="48.21478" lon="-3.1297">
        <ele>131.80000305176</ele>
        <time>2020-10-19T10:00:56.000Z</time>
      </trkpt>
      <trkpt lat="48.21478" lon="-3.12969">
        <ele>131.80000305176</ele>
        <time>2020-10-19T10:00:57.000Z</time>
      </trkpt>
      <trkpt lat="48.21477" lon="-3.1297">
        <ele>131.80000305176</ele>
        <time>2020-10-19T10:00:58.000Z</time>
      </trkpt>
      <trkpt lat="48.21478" lon="-3.1297">
        <ele>131.80000305176</ele>
        <time>2020-10-19T10:00:59.000Z</time>
      </trkpt>
      <trkpt lat="48.21478" lon="-3.1297">
        <ele>131.80000305176</ele>
        <time>2020-10-19T10:01:00.000Z</time>
      </trkpt>
      <trkpt lat="48.21478" lon="-3.12969">
        <ele>131.80000305176</ele>
        <time>2020-10-19T10:01:01.000Z</time>
      </trkpt>
      <trkpt lat="48.21478" lon="-3.1297">
        <ele>131.80000305176</ele>
        <time>2020-10-19T10:01:02.000Z</time>
      </trkpt>
      <trkpt lat="48.21478" lon="-3.1297">
        <ele>131.80000305176</ele>
        <time>2020-10-19T10:01:03.000Z</time>
      </trkpt>
      <trkpt lat="48.21478" lon="-3.1297">
        <ele>131.80000305176</ele>
        <time>2020-10-19T10:01:04.000Z</time>
      </trkpt>
      <trkpt lat="48.21478" lon="-3.12969">
        <ele>131.80000305176</ele>
        <time>2020-10-19T10:01:05.000Z</time>
      </trkpt>
      <trkpt lat="48.21478" lon="-3.12969">
        <ele>131.80000305176</ele>
        <time>2020-10-19T10:01:06.000Z</time>
      </trkpt>
      <trkpt lat="48.21479" lon="-3.12969">
        <ele>132</ele>
        <time>2020-10-19T10:01:07.000Z</time>
      </trkpt>
      <trkpt lat="48.21479" lon="-3.12968">
        <ele>132</ele>
        <time>2020-10-19T10:01:08.000Z</time>
      </trkpt>
      <trkpt lat="48.21479" lon="-3.12968">
        <ele>132</ele>
        <time>2020-10-19T10:01:09.000Z</time>
      </trkpt>
      <trkpt lat="48.21479" lon="-3.12968">
        <ele>132</ele>
        <time>2020-10-19T10:01:10.000Z</time>
      </trkpt>
      <trkpt lat="48.21479" lon="-3.12968">
        <ele>132</ele>
        <time>2020-10-19T10:01:11.000Z</time>
      </trkpt>
      <trkpt lat="48.21479" lon="-3.12968">
        <ele>132</ele>
        <time>2020-10-19T10:01:12.000Z</time>
      </trkpt>
      <trkpt lat="48.21479" lon="-3.12968">
        <ele>132</ele>
        <time>2020-10-19T10:01:13.000Z</time>
      </trkpt>
      <trkpt lat="48.21479" lon="-3.12968">
        <ele>132</ele>
        <time>2020-10-19T10:01:14.000Z</time>
      </trkpt>
      <trkpt lat="48.2148" lon="-3.12968">
        <ele>132</ele>
        <time>2020-10-19T10:01:15.000Z</time>
      </trkpt>
      <trkpt lat="48.21481" lon="-3.12969">
        <ele>132.19999694824</ele>
        <time>2020-10-19T10:01:16.000Z</time>
      </trkpt>
      <trkpt lat="48.21482" lon="-3.12969">
        <ele>132.19999694824</ele>
        <time>2020-10-19T10:01:17.000Z</time>
      </trkpt>
      <trkpt lat="48.21483" lon="-3.12967">
        <ele>132.39999389648</ele>
        <time>2020-10-19T10:01:18.000Z</time>
      </trkpt>
      <trkpt lat="48.21484" lon="-3.12965">
        <ele>132.39999389648</ele>
        <time>2020-10-19T10:01:19.000Z</time>
      </trkpt>
      <trkpt lat="48.21484" lon="-3.12964">
        <ele>132.39999389648</ele>
        <time>2020-10-19T10:01:20.000Z</time>
      </trkpt>
      <trkpt lat="48.21484" lon="-3.12962">
        <ele>132.19999694824</ele>
        <time>2020-10-19T10:01:21.000Z</time>
      </trkpt>
      <trkpt lat="48.21484" lon="-3.1296">
        <ele>132.19999694824</ele>
        <time>2020-10-19T10:01:22.000Z</time>
      </trkpt>
      <trkpt lat="48.21484" lon="-3.12958">
        <ele>132.19999694824</ele>
        <time>2020-10-19T10:01:23.000Z</time>
      </trkpt>
      <trkpt lat="48.21485" lon="-3.12956">
        <ele>132.19999694824</ele>
        <time>2020-10-19T10:01:24.000Z</time>
      </trkpt>
      <trkpt lat="48.21485" lon="-3.12954">
        <ele>132</ele>
        <time>2020-10-19T10:01:25.000Z</time>
      </trkpt>
      <trkpt lat="48.21485" lon="-3.12952">
        <ele>132</ele>
        <time>2020-10-19T10:01:26.000Z</time>
      </trkpt>
      <trkpt lat="48.21484" lon="-3.1295">
        <ele>132</ele>
        <time>2020-10-19T10:01:27.000Z</time>
      </trkpt>
      <trkpt lat="48.21483" lon="-3.12948">
        <ele>132</ele>
        <time>2020-10-19T10:01:28.000Z</time>
      </trkpt>
      <trkpt lat="48.21483" lon="-3.12946">
        <ele>132</ele>
        <time>2020-10-19T10:01:29.000Z</time>
      </trkpt>
      <trkpt lat="48.21483" lon="-3.12944">
        <ele>132</ele>
        <time>2020-10-19T10:01:30.000Z</time>
      </trkpt>
      <trkpt lat="48.21484" lon="-3.12941">
        <ele>132</ele>
        <time>2020-10-19T10:01:31.000Z</time>
      </trkpt>
      <trkpt lat="48.21484" lon="-3.12939">
        <ele>132</ele>
        <time>2020-10-19T10:01:32.000Z</time>
      </trkpt>
      <trkpt lat="48.21484" lon="-3.12937">
        <ele>132</ele>
        <time>2020-10-19T10:01:33.000Z</time>
      </trkpt>
      <trkpt lat="48.21484" lon="-3.12935">
        <ele>132</ele>
        <time>2020-10-19T10:01:34.000Z</time>
      </trkpt>
      <trkpt lat="48.21484" lon="-3.12933">
        <ele>132</ele>
        <time>2020-10-19T10:01:35.000Z</time>
      </trkpt>
      <trkpt lat="48.21483" lon="-3.1293">
        <ele>132</ele>
        <time>2020-10-19T10:01:36.000Z</time>
      </trkpt>
      <trkpt lat="48.21483" lon="-3.1293">
        <ele>132</ele>
        <time>2020-10-19T10:01:37.000Z</time>
      </trkpt>
      <trkpt lat="48.21483" lon="-3.12928">
        <ele>131.80000305176</ele>
        <time>2020-10-19T10:01:38.000Z</time>
      </trkpt>
      <trkpt lat="48.21482" lon="-3.12926">
        <ele>131.80000305176</ele>
        <time>2020-10-19T10:01:39.000Z</time>
      </trkpt>
      <trkpt lat="48.21482" lon="-3.12925">
        <ele>131.80000305176</ele>
        <time>2020-10-19T10:01:40.000Z</time>
      </trkpt>
      <trkpt lat="48.21482" lon="-3.1292">
        <ele>131.60000610352</ele>
        <time>2020-10-19T10:01:41.000Z</time>
      </trkpt>
      <trkpt lat="48.21482" lon="-3.1292">
        <ele>131.60000610352</ele>
        <time>2020-10-19T10:01:42.000Z</time>
      </trkpt>
      <trkpt lat="48.21482" lon="-3.12918">
        <ele>131.39999389648</ele>
        <time>2020-10-19T10:01:43.000Z</time>
      </trkpt>
      <trkpt lat="48.21481" lon="-3.12916">
        <ele>131.39999389648</ele>
        <time>2020-10-19T10:01:44.000Z</time>
      </trkpt>
      <trkpt lat="48.21481" lon="-3.12914">
        <ele>131.39999389648</ele>
        <time>2020-10-19T10:01:45.000Z</time>
      </trkpt>
      <trkpt lat="48.21481" lon="-3.12912">
        <ele>131.19999694824</ele>
        <time>2020-10-19T10:01:46.000Z</time>
      </trkpt>
      <trkpt lat="48.21481" lon="-3.1291">
        <ele>131.19999694824</ele>
        <time>2020-10-19T10:01:47.000Z</time>
      </trkpt>
      <trkpt lat="48.21481" lon="-3.12908">
        <ele>131</ele>
        <time>2020-10-19T10:01:48.000Z</time>
      </trkpt>
      <trkpt lat="48.2148" lon="-3.12906">
        <ele>131</ele>
        <time>2020-10-19T10:01:49.000Z</time>
      </trkpt>
      <trkpt lat="48.2148" lon="-3.12904">
        <ele>130.80000305176</ele>
        <time>2020-10-19T10:01:50.000Z</time>
      </trkpt>
      <trkpt lat="48.2148" lon="-3.12902">
        <ele>130.80000305176</ele>
        <time>2020-10-19T10:01:51.000Z</time>
      </trkpt>
      <trkpt lat="48.21479" lon="-3.129">
        <ele>130.60000610352</ele>
        <time>2020-10-19T10:01:52.000Z</time>
      </trkpt>
      <trkpt lat="48.21479" lon="-3.12898">
        <ele>130.60000610352</ele>
        <time>2020-10-19T10:01:53.000Z</time>
      </trkpt>
      <trkpt lat="48.21479" lon="-3.12896">
        <ele>130.60000610352</ele>
        <time>2020-10-19T10:01:54.000Z</time>
      </trkpt>
      <trkpt lat="48.21479" lon="-3.12894">
        <ele>130.39999389648</ele>
        <time>2020-10-19T10:01:55.000Z</time>
      </trkpt>
      <trkpt lat="48.21479" lon="-3.12889">
        <ele>130.19999694824</ele>
        <time>2020-10-19T10:01:56.000Z</time>
      </trkpt>
      <trkpt lat="48.21479" lon="-3.12889">
        <ele>130.19999694824</ele>
        <time>2020-10-19T10:01:57.000Z</time>
      </trkpt>
      <trkpt lat="48.21479" lon="-3.12887">
        <ele>130.19999694824</ele>
        <time>2020-10-19T10:01:58.000Z</time>
      </trkpt>
      <trkpt lat="48.21479" lon="-3.12885">
        <ele>130</ele>
        <time>2020-10-19T10:01:59.000Z</time>
      </trkpt>
      <trkpt lat="48.21479" lon="-3.12883">
        <ele>130</ele>
        <time>2020-10-19T10:02:00.000Z</time>
      </trkpt>
      <trkpt lat="48.21478" lon="-3.1288">
        <ele>130</ele>
        <time>2020-10-19T10:02:01.000Z</time>
      </trkpt>
      <trkpt lat="48.21478" lon="-3.12878">
        <ele>129.80000305176</ele>
        <time>2020-10-19T10:02:02.000Z</time>
      </trkpt>
      <trkpt lat="48.21478" lon="-3.12873">
        <ele>129.80000305176</ele>
        <time>2020-10-19T10:02:03.000Z</time>
      </trkpt>
      <trkpt lat="48.21478" lon="-3.12873">
        <ele>129.80000305176</ele>
        <time>2020-10-19T10:02:04.000Z</time>
      </trkpt>
      <trkpt lat="48.21477" lon="-3.12871">
        <ele>130</ele>
        <time>2020-10-19T10:02:05.000Z</time>
      </trkpt>
      <trkpt lat="48.21477" lon="-3.12868">
        <ele>130</ele>
        <time>2020-10-19T10:02:06.000Z</time>
      </trkpt>
      <trkpt lat="48.21477" lon="-3.12866">
        <ele>130</ele>
        <time>2020-10-19T10:02:07.000Z</time>
      </trkpt>
      <trkpt lat="48.21477" lon="-3.12864">
        <ele>130.19999694824</ele>
        <time>2020-10-19T10:02:08.000Z</time>
      </trkpt>
      <trkpt lat="48.21476" lon="-3.12861">
        <ele>130.19999694824</ele>
        <time>2020-10-19T10:02:09.000Z</time>
      </trkpt>
      <trkpt lat="48.21476" lon="-3.12859">
        <ele>130.19999694824</ele>
        <time>2020-10-19T10:02:10.000Z</time>
      </trkpt>
      <trkpt lat="48.21476" lon="-3.12857">
        <ele>130.19999694824</ele>
        <time>2020-10-19T10:02:11.000Z</time>
      </trkpt>
      <trkpt lat="48.21476" lon="-3.12854">
        <ele>130.39999389648</ele>
        <time>2020-10-19T10:02:12.000Z</time>
      </trkpt>
      <trkpt lat="48.21475" lon="-3.12852">
        <ele>130.39999389648</ele>
        <time>2020-10-19T10:02:13.000Z</time>
      </trkpt>
      <trkpt lat="48.21475" lon="-3.12849">
        <ele>130.39999389648</ele>
        <time>2020-10-19T10:02:14.000Z</time>
      </trkpt>
      <trkpt lat="48.21474" lon="-3.12845">
        <ele>130.60000610352</ele>
        <time>2020-10-19T10:02:15.000Z</time>
      </trkpt>
      <trkpt lat="48.21474" lon="-3.12845">
        <ele>130.60000610352</ele>
        <time>2020-10-19T10:02:16.000Z</time>
      </trkpt>
      <trkpt lat="48.21473" lon="-3.12843">
        <ele>130.60000610352</ele>
        <time>2020-10-19T10:02:17.000Z</time>
      </trkpt>
      <trkpt lat="48.21472" lon="-3.12842">
        <ele>130.60000610352</ele>
        <time>2020-10-19T10:02:18.000Z</time>
      </trkpt>
      <trkpt lat="48.2147" lon="-3.1284">
        <ele>130.60000610352</ele>
        <time>2020-10-19T10:02:19.000Z</time>
      </trkpt>
      <trkpt lat="48.21469" lon="-3.12839">
        <ele>130.39999389648</ele>
        <time>2020-10-19T10:02:20.000Z</time>
      </trkpt>
      <trkpt lat="48.21467" lon="-3.12838">
        <ele>130.39999389648</ele>
        <time>2020-10-19T10:02:21.000Z</time>
      </trkpt>
      <trkpt lat="48.21466" lon="-3.12837">
        <ele>130.39999389648</ele>
        <time>2020-10-19T10:02:22.000Z</time>
      </trkpt>
      <trkpt lat="48.21465" lon="-3.12836">
        <ele>130.39999389648</ele>
        <time>2020-10-19T10:02:23.000Z</time>
      </trkpt>
      <trkpt lat="48.21463" lon="-3.12835">
        <ele>130.39999389648</ele>
        <time>2020-10-19T10:02:24.000Z</time>
      </trkpt>
      <trkpt lat="48.21462" lon="-3.12834">
        <ele>130.39999389648</ele>
        <time>2020-10-19T10:02:25.000Z</time>
      </trkpt>
      <trkpt lat="48.21461" lon="-3.12833">
        <ele>130.39999389648</ele>
        <time>2020-10-19T10:02:26.000Z</time>
      </trkpt>
      <trkpt lat="48.2146" lon="-3.12833">
        <ele>130.39999389648</ele>
        <time>2020-10-19T10:02:27.000Z</time>
      </trkpt>
      <trkpt lat="48.21459" lon="-3.12832">
        <ele>130.39999389648</ele>
        <time>2020-10-19T10:02:28.000Z</time>
      </trkpt>
      <trkpt lat="48.21458" lon="-3.12831">
        <ele>130.39999389648</ele>
        <time>2020-10-19T10:02:29.000Z</time>
      </trkpt>
      <trkpt lat="48.21456" lon="-3.1283">
        <ele>130.39999389648</ele>
        <time>2020-10-19T10:02:30.000Z</time>
      </trkpt>
      <trkpt lat="48.21455" lon="-3.12829">
        <ele>130.39999389648</ele>
        <time>2020-10-19T10:02:31.000Z</time>
      </trkpt>
      <trkpt lat="48.21454" lon="-3.12828">
        <ele>130.39999389648</ele>
        <time>2020-10-19T10:02:32.000Z</time>
      </trkpt>
      <trkpt lat="48.21453" lon="-3.12827">
        <ele>130.19999694824</ele>
        <time>2020-10-19T10:02:33.000Z</time>
      </trkpt>
      <trkpt lat="48.21452" lon="-3.12827">
        <ele>130.19999694824</ele>
        <time>2020-10-19T10:02:34.000Z</time>
      </trkpt>
      <trkpt lat="48.2145" lon="-3.12827">
        <ele>130.19999694824</ele>
        <time>2020-10-19T10:02:35.000Z</time>
      </trkpt>
      <trkpt lat="48.21449" lon="-3.12826">
        <ele>130.19999694824</ele>
        <time>2020-10-19T10:02:36.000Z</time>
      </trkpt>
      <trkpt lat="48.21448" lon="-3.12825">
        <ele>130.19999694824</ele>
        <time>2020-10-19T10:02:37.000Z</time>
      </trkpt>
      <trkpt lat="48.21447" lon="-3.12824">
        <ele>130.19999694824</ele>
        <time>2020-10-19T10:02:38.000Z</time>
      </trkpt>
      <trkpt lat="48.21446" lon="-3.12823">
        <ele>130.19999694824</ele>
        <time>2020-10-19T10:02:39.000Z</time>
      </trkpt>
      <trkpt lat="48.21444" lon="-3.12822">
        <ele>130.19999694824</ele>
        <time>2020-10-19T10:02:40.000Z</time>
      </trkpt>
      <trkpt lat="48.21443" lon="-3.1282">
        <ele>130.19999694824</ele>
        <time>2020-10-19T10:02:41.000Z</time>
      </trkpt>
      <trkpt lat="48.21442" lon="-3.12819">
        <ele>130.19999694824</ele>
        <time>2020-10-19T10:02:42.000Z</time>
      </trkpt>
      <trkpt lat="48.21441" lon="-3.12817">
        <ele>130.19999694824</ele>
        <time>2020-10-19T10:02:43.000Z</time>
      </trkpt>
      <trkpt lat="48.2144" lon="-3.12816">
        <ele>130.19999694824</ele>
        <time>2020-10-19T10:02:44.000Z</time>
      </trkpt>
      <trkpt lat="48.21438" lon="-3.12814">
        <ele>130.19999694824</ele>
        <time>2020-10-19T10:02:45.000Z</time>
      </trkpt>
      <trkpt lat="48.21437" lon="-3.12813">
        <ele>130.19999694824</ele>
        <time>2020-10-19T10:02:46.000Z</time>
      </trkpt>
      <trkpt lat="48.21436" lon="-3.12811">
        <ele>130</ele>
        <time>2020-10-19T10:02:47.000Z</time>
      </trkpt>
      <trkpt lat="48.21435" lon="-3.12809">
        <ele>130</ele>
        <time>2020-10-19T10:02:48.000Z</time>
      </trkpt>
      <trkpt lat="48.21434" lon="-3.12808">
        <ele>130</ele>
        <time>2020-10-19T10:02:49.000Z</time>
      </trkpt>
      <trkpt lat="48.21431" lon="-3.12806">
        <ele>130</ele>
        <time>2020-10-19T10:02:50.000Z</time>
      </trkpt>
      <trkpt lat="48.21431" lon="-3.12806">
        <ele>130</ele>
        <time>2020-10-19T10:02:51.000Z</time>
      </trkpt>
      <trkpt lat="48.2143" lon="-3.12806">
        <ele>130</ele>
        <time>2020-10-19T10:02:52.000Z</time>
      </trkpt>
      <trkpt lat="48.21429" lon="-3.12805">
        <ele>130</ele>
        <time>2020-10-19T10:02:53.000Z</time>
      </trkpt>
      <trkpt lat="48.21427" lon="-3.12805">
        <ele>130</ele>
        <time>2020-10-19T10:02:54.000Z</time>
      </trkpt>
      <trkpt lat="48.21426" lon="-3.12805">
        <ele>130</ele>
        <time>2020-10-19T10:02:55.000Z</time>
      </trkpt>
      <trkpt lat="48.21425" lon="-3.12805">
        <ele>130</ele>
        <time>2020-10-19T10:02:56.000Z</time>
      </trkpt>
      <trkpt lat="48.21423" lon="-3.12805">
        <ele>129.80000305176</ele>
        <time>2020-10-19T10:02:57.000Z</time>
      </trkpt>
      <trkpt lat="48.21422" lon="-3.12805">
        <ele>129.80000305176</ele>
        <time>2020-10-19T10:02:58.000Z</time>
      </trkpt>
      <trkpt lat="48.2142" lon="-3.12805">
        <ele>129.80000305176</ele>
        <time>2020-10-19T10:02:59.000Z</time>
      </trkpt>
      <trkpt lat="48.21419" lon="-3.12805">
        <ele>129.80000305176</ele>
        <time>2020-10-19T10:03:00.000Z</time>
      </trkpt>
      <trkpt lat="48.21418" lon="-3.12805">
        <ele>129.80000305176</ele>
        <time>2020-10-19T10:03:01.000Z</time>
      </trkpt>
      <trkpt lat="48.21416" lon="-3.12805">
        <ele>129.60000610352</ele>
        <time>2020-10-19T10:03:02.000Z</time>
      </trkpt>
      <trkpt lat="48.21415" lon="-3.12805">
        <ele>129.60000610352</ele>
        <time>2020-10-19T10:03:03.000Z</time>
      </trkpt>
      <trkpt lat="48.21413" lon="-3.12806">
        <ele>129.60000610352</ele>
        <time>2020-10-19T10:03:04.000Z</time>
      </trkpt>
      <trkpt lat="48.21412" lon="-3.12806">
        <ele>129.60000610352</ele>
        <time>2020-10-19T10:03:05.000Z</time>
      </trkpt>
      <trkpt lat="48.2141" lon="-3.12806">
        <ele>129.60000610352</ele>
        <time>2020-10-19T10:03:06.000Z</time>
      </trkpt>
      <trkpt lat="48.21409" lon="-3.12806">
        <ele>129.60000610352</ele>
        <time>2020-10-19T10:03:07.000Z</time>
      </trkpt>
      <trkpt lat="48.21408" lon="-3.12806">
        <ele>129.60000610352</ele>
        <time>2020-10-19T10:03:08.000Z</time>
      </trkpt>
      <trkpt lat="48.21407" lon="-3.12806">
        <ele>129.39999389648</ele>
        <time>2020-10-19T10:03:09.000Z</time>
      </trkpt>
      <trkpt lat="48.21405" lon="-3.12806">
        <ele>129.39999389648</ele>
        <time>2020-10-19T10:03:10.000Z</time>
      </trkpt>
      <trkpt lat="48.21404" lon="-3.12806">
        <ele>129.39999389648</ele>
        <time>2020-10-19T10:03:11.000Z</time>
      </trkpt>
      <trkpt lat="48.21402" lon="-3.12806">
        <ele>129.39999389648</ele>
        <time>2020-10-19T10:03:12.000Z</time>
      </trkpt>
      <trkpt lat="48.21401" lon="-3.12806">
        <ele>129.39999389648</ele>
        <time>2020-10-19T10:03:13.000Z</time>
      </trkpt>
      <trkpt lat="48.214" lon="-3.12807">
        <ele>129.39999389648</ele>
        <time>2020-10-19T10:03:14.000Z</time>
      </trkpt>
      <trkpt lat="48.21398" lon="-3.12807">
        <ele>129.19999694824</ele>
        <time>2020-10-19T10:03:15.000Z</time>
      </trkpt>
      <trkpt lat="48.21397" lon="-3.12807">
        <ele>129.19999694824</ele>
        <time>2020-10-19T10:03:16.000Z</time>
      </trkpt>
      <trkpt lat="48.21395" lon="-3.12808">
        <ele>129.19999694824</ele>
        <time>2020-10-19T10:03:17.000Z</time>
      </trkpt>
      <trkpt lat="48.21394" lon="-3.12808">
        <ele>129.19999694824</ele>
        <time>2020-10-19T10:03:18.000Z</time>
      </trkpt>
      <trkpt lat="48.21392" lon="-3.12808">
        <ele>129.19999694824</ele>
        <time>2020-10-19T10:03:19.000Z</time>
      </trkpt>
      <trkpt lat="48.2139" lon="-3.12809">
        <ele>129</ele>
        <time>2020-10-19T10:03:20.000Z</time>
      </trkpt>
      <trkpt lat="48.21389" lon="-3.12809">
        <ele>129</ele>
        <time>2020-10-19T10:03:21.000Z</time>
      </trkpt>
      <trkpt lat="48.21387" lon="-3.1281">
        <ele>129</ele>
        <time>2020-10-19T10:03:22.000Z</time>
      </trkpt>
      <trkpt lat="48.21386" lon="-3.1281">
        <ele>129</ele>
        <time>2020-10-19T10:03:23.000Z</time>
      </trkpt>
      <trkpt lat="48.21385" lon="-3.12811">
        <ele>129</ele>
        <time>2020-10-19T10:03:24.000Z</time>
      </trkpt>
      <trkpt lat="48.21382" lon="-3.12812">
        <ele>128.80000305176</ele>
        <time>2020-10-19T10:03:25.000Z</time>
      </trkpt>
      <trkpt lat="48.21382" lon="-3.12812">
        <ele>128.80000305176</ele>
        <time>2020-10-19T10:03:26.000Z</time>
      </trkpt>
      <trkpt lat="48.21381" lon="-3.12813">
        <ele>128.80000305176</ele>
        <time>2020-10-19T10:03:27.000Z</time>
      </trkpt>
      <trkpt lat="48.2138" lon="-3.12813">
        <ele>128.80000305176</ele>
        <time>2020-10-19T10:03:28.000Z</time>
      </trkpt>
      <trkpt lat="48.21379" lon="-3.12814">
        <ele>128.80000305176</ele>
        <time>2020-10-19T10:03:29.000Z</time>
      </trkpt>
      <trkpt lat="48.21377" lon="-3.12814">
        <ele>128.80000305176</ele>
        <time>2020-10-19T10:03:30.000Z</time>
      </trkpt>
      <trkpt lat="48.21376" lon="-3.12815">
        <ele>128.80000305176</ele>
        <time>2020-10-19T10:03:31.000Z</time>
      </trkpt>
      <trkpt lat="48.21375" lon="-3.12815">
        <ele>128.80000305176</ele>
        <time>2020-10-19T10:03:32.000Z</time>
      </trkpt>
      <trkpt lat="48.21374" lon="-3.12816">
        <ele>128.60000610352</ele>
        <time>2020-10-19T10:03:33.000Z</time>
      </trkpt>
      <trkpt lat="48.21372" lon="-3.12817">
        <ele>128.60000610352</ele>
        <time>2020-10-19T10:03:34.000Z</time>
      </trkpt>
      <trkpt lat="48.21371" lon="-3.12817">
        <ele>128.60000610352</ele>
        <time>2020-10-19T10:03:35.000Z</time>
      </trkpt>
      <trkpt lat="48.2137" lon="-3.12818">
        <ele>128.60000610352</ele>
        <time>2020-10-19T10:03:36.000Z</time>
      </trkpt>
      <trkpt lat="48.21368" lon="-3.12819">
        <ele>128.60000610352</ele>
        <time>2020-10-19T10:03:37.000Z</time>
      </trkpt>
      <trkpt lat="48.21367" lon="-3.1282">
        <ele>128.60000610352</ele>
        <time>2020-10-19T10:03:38.000Z</time>
      </trkpt>
      <trkpt lat="48.21365" lon="-3.12821">
        <ele>128.60000610352</ele>
        <time>2020-10-19T10:03:39.000Z</time>
      </trkpt>
      <trkpt lat="48.21364" lon="-3.12822">
        <ele>128.60000610352</ele>
        <time>2020-10-19T10:03:40.000Z</time>
      </trkpt>
      <trkpt lat="48.21361" lon="-3.12825">
        <ele>128.39999389648</ele>
        <time>2020-10-19T10:03:41.000Z</time>
      </trkpt>
      <trkpt lat="48.21361" lon="-3.12825">
        <ele>128.39999389648</ele>
        <time>2020-10-19T10:03:42.000Z</time>
      </trkpt>
      <trkpt lat="48.21359" lon="-3.12826">
        <ele>128.39999389648</ele>
        <time>2020-10-19T10:03:43.000Z</time>
      </trkpt>
      <trkpt lat="48.21358" lon="-3.12827">
        <ele>128.39999389648</ele>
        <time>2020-10-19T10:03:44.000Z</time>
      </trkpt>
      <trkpt lat="48.21356" lon="-3.12828">
        <ele>128.39999389648</ele>
        <time>2020-10-19T10:03:45.000Z</time>
      </trkpt>
      <trkpt lat="48.21355" lon="-3.12829">
        <ele>128.39999389648</ele>
        <time>2020-10-19T10:03:46.000Z</time>
      </trkpt>
      <trkpt lat="48.21354" lon="-3.1283">
        <ele>128.39999389648</ele>
        <time>2020-10-19T10:03:47.000Z</time>
      </trkpt>
      <trkpt lat="48.21353" lon="-3.12831">
        <ele>128.19999694824</ele>
        <time>2020-10-19T10:03:48.000Z</time>
      </trkpt>
      <trkpt lat="48.21352" lon="-3.12833">
        <ele>128.19999694824</ele>
        <time>2020-10-19T10:03:49.000Z</time>
      </trkpt>
      <trkpt lat="48.21351" lon="-3.12834">
        <ele>128.19999694824</ele>
        <time>2020-10-19T10:03:50.000Z</time>
      </trkpt>
      <trkpt lat="48.2135" lon="-3.12836">
        <ele>128.19999694824</ele>
        <time>2020-10-19T10:03:51.000Z</time>
      </trkpt>
      <trkpt lat="48.21348" lon="-3.12837">
        <ele>128.19999694824</ele>
        <time>2020-10-19T10:03:52.000Z</time>
      </trkpt>
      <trkpt lat="48.21346" lon="-3.1284">
        <ele>128</ele>
        <time>2020-10-19T10:03:53.000Z</time>
      </trkpt>
      <trkpt lat="48.21346" lon="-3.1284">
        <ele>128</ele>
        <time>2020-10-19T10:03:54.000Z</time>
      </trkpt>
      <trkpt lat="48.21344" lon="-3.12841">
        <ele>128.19999694824</ele>
        <time>2020-10-19T10:03:55.000Z</time>
      </trkpt>
      <trkpt lat="48.21343" lon="-3.12842">
        <ele>128.19999694824</ele>
        <time>2020-10-19T10:03:56.000Z</time>
      </trkpt>
      <trkpt lat="48.21342" lon="-3.12843">
        <ele>128.19999694824</ele>
        <time>2020-10-19T10:03:57.000Z</time>
      </trkpt>
      <trkpt lat="48.2134" lon="-3.12844">
        <ele>128.19999694824</ele>
        <time>2020-10-19T10:03:58.000Z</time>
      </trkpt>
      <trkpt lat="48.21339" lon="-3.12845">
        <ele>128.19999694824</ele>
        <time>2020-10-19T10:03:59.000Z</time>
      </trkpt>
      <trkpt lat="48.21338" lon="-3.12847">
        <ele>128.19999694824</ele>
        <time>2020-10-19T10:04:00.000Z</time>
      </trkpt>
      <trkpt lat="48.21337" lon="-3.12848">
        <ele>128.19999694824</ele>
        <time>2020-10-19T10:04:01.000Z</time>
      </trkpt>
      <trkpt lat="48.21336" lon="-3.12849">
        <ele>128</ele>
        <time>2020-10-19T10:04:02.000Z</time>
      </trkpt>
      <trkpt lat="48.21335" lon="-3.1285">
        <ele>128</ele>
        <time>2020-10-19T10:04:03.000Z</time>
      </trkpt>
      <trkpt lat="48.21334" lon="-3.1285">
        <ele>128</ele>
        <time>2020-10-19T10:04:04.000Z</time>
      </trkpt>
      <trkpt lat="48.21333" lon="-3.12851">
        <ele>128</ele>
        <time>2020-10-19T10:04:05.000Z</time>
      </trkpt>
      <trkpt lat="48.21332" lon="-3.12851">
        <ele>128.19999694824</ele>
        <time>2020-10-19T10:04:06.000Z</time>
      </trkpt>
      <trkpt lat="48.21331" lon="-3.12852">
        <ele>128.19999694824</ele>
        <time>2020-10-19T10:04:07.000Z</time>
      </trkpt>
      <trkpt lat="48.2133" lon="-3.12852">
        <ele>128.19999694824</ele>
        <time>2020-10-19T10:04:08.000Z</time>
      </trkpt>
      <trkpt lat="48.21329" lon="-3.12852">
        <ele>128.19999694824</ele>
        <time>2020-10-19T10:04:09.000Z</time>
      </trkpt>
      <trkpt lat="48.21328" lon="-3.12852">
        <ele>128.19999694824</ele>
        <time>2020-10-19T10:04:10.000Z</time>
      </trkpt>
      <trkpt lat="48.21327" lon="-3.12851">
        <ele>128.39999389648</ele>
        <time>2020-10-19T10:04:11.000Z</time>
      </trkpt>
      <trkpt lat="48.21326" lon="-3.12849">
        <ele>128.60000610352</ele>
        <time>2020-10-19T10:04:12.000Z</time>
      </trkpt>
      <trkpt lat="48.21326" lon="-3.12849">
        <ele>128.60000610352</ele>
        <time>2020-10-19T10:04:13.000Z</time>
      </trkpt>
      <trkpt lat="48.21325" lon="-3.12848">
        <ele>128.60000610352</ele>
        <time>2020-10-19T10:04:14.000Z</time>
      </trkpt>
      <trkpt lat="48.21324" lon="-3.12847">
        <ele>128.80000305176</ele>
        <time>2020-10-19T10:04:15.000Z</time>
      </trkpt>
      <trkpt lat="48.21323" lon="-3.12846">
        <ele>128.80000305176</ele>
        <time>2020-10-19T10:04:16.000Z</time>
      </trkpt>
      <trkpt lat="48.21322" lon="-3.12846">
        <ele>129</ele>
        <time>2020-10-19T10:04:17.000Z</time>
      </trkpt>
      <trkpt lat="48.2132" lon="-3.12846">
        <ele>129</ele>
        <time>2020-10-19T10:04:18.000Z</time>
      </trkpt>
      <trkpt lat="48.21319" lon="-3.12846">
        <ele>129</ele>
        <time>2020-10-19T10:04:19.000Z</time>
      </trkpt>
      <trkpt lat="48.21317" lon="-3.12847">
        <ele>129.19999694824</ele>
        <time>2020-10-19T10:04:20.000Z</time>
      </trkpt>
      <trkpt lat="48.21316" lon="-3.12847">
        <ele>129.19999694824</ele>
        <time>2020-10-19T10:04:21.000Z</time>
      </trkpt>
      <trkpt lat="48.21314" lon="-3.12847">
        <ele>129.19999694824</ele>
        <time>2020-10-19T10:04:22.000Z</time>
      </trkpt>
      <trkpt lat="48.21313" lon="-3.12848">
        <ele>129.19999694824</ele>
        <time>2020-10-19T10:04:23.000Z</time>
      </trkpt>
      <trkpt lat="48.21311" lon="-3.12849">
        <ele>129.19999694824</ele>
        <time>2020-10-19T10:04:24.000Z</time>
      </trkpt>
      <trkpt lat="48.2131" lon="-3.1285">
        <ele>129.19999694824</ele>
        <time>2020-10-19T10:04:25.000Z</time>
      </trkpt>
      <trkpt lat="48.21308" lon="-3.12851">
        <ele>129.19999694824</ele>
        <time>2020-10-19T10:04:26.000Z</time>
      </trkpt>
      <trkpt lat="48.21307" lon="-3.12853">
        <ele>129.19999694824</ele>
        <time>2020-10-19T10:04:27.000Z</time>
      </trkpt>
      <trkpt lat="48.21306" lon="-3.12854">
        <ele>129.19999694824</ele>
        <time>2020-10-19T10:04:28.000Z</time>
      </trkpt>
      <trkpt lat="48.21304" lon="-3.12855">
        <ele>129.19999694824</ele>
        <time>2020-10-19T10:04:29.000Z</time>
      </trkpt>
      <trkpt lat="48.21303" lon="-3.12855">
        <ele>129.19999694824</ele>
        <time>2020-10-19T10:04:30.000Z</time>
      </trkpt>
      <trkpt lat="48.21302" lon="-3.12856">
        <ele>129.19999694824</ele>
        <time>2020-10-19T10:04:31.000Z</time>
      </trkpt>
      <trkpt lat="48.21301" lon="-3.12857">
        <ele>129.19999694824</ele>
        <time>2020-10-19T10:04:32.000Z</time>
      </trkpt>
      <trkpt lat="48.213" lon="-3.12858">
        <ele>129.19999694824</ele>
        <time>2020-10-19T10:04:33.000Z</time>
      </trkpt>
      <trkpt lat="48.21299" lon="-3.12859">
        <ele>129.19999694824</ele>
        <time>2020-10-19T10:04:34.000Z</time>
      </trkpt>
      <trkpt lat="48.21297" lon="-3.1286">
        <ele>129.19999694824</ele>
        <time>2020-10-19T10:04:35.000Z</time>
      </trkpt>
      <trkpt lat="48.21296" lon="-3.12861">
        <ele>129.19999694824</ele>
        <time>2020-10-19T10:04:36.000Z</time>
      </trkpt>
      <trkpt lat="48.21295" lon="-3.12862">
        <ele>129.19999694824</ele>
        <time>2020-10-19T10:04:37.000Z</time>
      </trkpt>
      <trkpt lat="48.21294" lon="-3.12863">
        <ele>129</ele>
        <time>2020-10-19T10:04:38.000Z</time>
      </trkpt>
      <trkpt lat="48.21293" lon="-3.12864">
        <ele>129</ele>
        <time>2020-10-19T10:04:39.000Z</time>
      </trkpt>
      <trkpt lat="48.21292" lon="-3.12865">
        <ele>129</ele>
        <time>2020-10-19T10:04:40.000Z</time>
      </trkpt>
      <trkpt lat="48.21291" lon="-3.12866">
        <ele>129</ele>
        <time>2020-10-19T10:04:41.000Z</time>
      </trkpt>
      <trkpt lat="48.2129" lon="-3.12867">
        <ele>129</ele>
        <time>2020-10-19T10:04:42.000Z</time>
      </trkpt>
      <trkpt lat="48.21289" lon="-3.12869">
        <ele>129</ele>
        <time>2020-10-19T10:04:43.000Z</time>
      </trkpt>
      <trkpt lat="48.21288" lon="-3.1287">
        <ele>128.80000305176</ele>
        <time>2020-10-19T10:04:44.000Z</time>
      </trkpt>
      <trkpt lat="48.21286" lon="-3.12871">
        <ele>128.80000305176</ele>
        <time>2020-10-19T10:04:45.000Z</time>
      </trkpt>
      <trkpt lat="48.21285" lon="-3.12873">
        <ele>128.80000305176</ele>
        <time>2020-10-19T10:04:46.000Z</time>
      </trkpt>
      <trkpt lat="48.21284" lon="-3.12874">
        <ele>128.80000305176</ele>
        <time>2020-10-19T10:04:47.000Z</time>
      </trkpt>
      <trkpt lat="48.21283" lon="-3.12875">
        <ele>128.80000305176</ele>
        <time>2020-10-19T10:04:48.000Z</time>
      </trkpt>
      <trkpt lat="48.21282" lon="-3.12876">
        <ele>128.60000610352</ele>
        <time>2020-10-19T10:04:49.000Z</time>
      </trkpt>
      <trkpt lat="48.21281" lon="-3.12877">
        <ele>128.60000610352</ele>
        <time>2020-10-19T10:04:50.000Z</time>
      </trkpt>
      <trkpt lat="48.21279" lon="-3.1288">
        <ele>128.60000610352</ele>
        <time>2020-10-19T10:04:51.000Z</time>
      </trkpt>
      <trkpt lat="48.21279" lon="-3.1288">
        <ele>128.60000610352</ele>
        <time>2020-10-19T10:04:52.000Z</time>
      </trkpt>
      <trkpt lat="48.21278" lon="-3.12881">
        <ele>128.60000610352</ele>
        <time>2020-10-19T10:04:53.000Z</time>
      </trkpt>
      <trkpt lat="48.21277" lon="-3.12883">
        <ele>128.39999389648</ele>
        <time>2020-10-19T10:04:54.000Z</time>
      </trkpt>
      <trkpt lat="48.21276" lon="-3.12885">
        <ele>128.39999389648</ele>
        <time>2020-10-19T10:04:55.000Z</time>
      </trkpt>
      <trkpt lat="48.21275" lon="-3.12886">
        <ele>128.39999389648</ele>
        <time>2020-10-19T10:04:56.000Z</time>
      </trkpt>
      <trkpt lat="48.21274" lon="-3.12888">
        <ele>128.19999694824</ele>
        <time>2020-10-19T10:04:57.000Z</time>
      </trkpt>
      <trkpt lat="48.21273" lon="-3.12889">
        <ele>128.19999694824</ele>
        <time>2020-10-19T10:04:58.000Z</time>
      </trkpt>
      <trkpt lat="48.21272" lon="-3.12891">
        <ele>128.19999694824</ele>
        <time>2020-10-19T10:04:59.000Z</time>
      </trkpt>
      <trkpt lat="48.21271" lon="-3.12892">
        <ele>128</ele>
        <time>2020-10-19T10:05:00.000Z</time>
      </trkpt>
      <trkpt lat="48.21271" lon="-3.12894">
        <ele>128</ele>
        <time>2020-10-19T10:05:01.000Z</time>
      </trkpt>
      <trkpt lat="48.2127" lon="-3.12895">
        <ele>128</ele>
        <time>2020-10-19T10:05:02.000Z</time>
      </trkpt>
      <trkpt lat="48.21269" lon="-3.12897">
        <ele>127.80000305176</ele>
        <time>2020-10-19T10:05:03.000Z</time>
      </trkpt>
      <trkpt lat="48.21267" lon="-3.129">
        <ele>127.59999847412</ele>
        <time>2020-10-19T10:05:04.000Z</time>
      </trkpt>
      <trkpt lat="48.21267" lon="-3.129">
        <ele>127.59999847412</ele>
        <time>2020-10-19T10:05:05.000Z</time>
      </trkpt>
      <trkpt lat="48.21267" lon="-3.12901">
        <ele>127.59999847412</ele>
        <time>2020-10-19T10:05:06.000Z</time>
      </trkpt>
      <trkpt lat="48.21266" lon="-3.12903">
        <ele>127.59999847412</ele>
        <time>2020-10-19T10:05:07.000Z</time>
      </trkpt>
      <trkpt lat="48.21265" lon="-3.12904">
        <ele>127.40000152588</ele>
        <time>2020-10-19T10:05:08.000Z</time>
      </trkpt>
      <trkpt lat="48.21265" lon="-3.12905">
        <ele>127.40000152588</ele>
        <time>2020-10-19T10:05:09.000Z</time>
      </trkpt>
      <trkpt lat="48.21264" lon="-3.12906">
        <ele>127.40000152588</ele>
        <time>2020-10-19T10:05:10.000Z</time>
      </trkpt>
      <trkpt lat="48.21263" lon="-3.12909">
        <ele>127.19999694824</ele>
        <time>2020-10-19T10:05:11.000Z</time>
      </trkpt>
      <trkpt lat="48.21263" lon="-3.12909">
        <ele>127.19999694824</ele>
        <time>2020-10-19T10:05:12.000Z</time>
      </trkpt>
      <trkpt lat="48.21262" lon="-3.1291">
        <ele>127.19999694824</ele>
        <time>2020-10-19T10:05:13.000Z</time>
      </trkpt>
      <trkpt lat="48.21261" lon="-3.12911">
        <ele>127.19999694824</ele>
        <time>2020-10-19T10:05:14.000Z</time>
      </trkpt>
      <trkpt lat="48.21261" lon="-3.12913">
        <ele>127</ele>
        <time>2020-10-19T10:05:15.000Z</time>
      </trkpt>
      <trkpt lat="48.2126" lon="-3.12914">
        <ele>127</ele>
        <time>2020-10-19T10:05:16.000Z</time>
      </trkpt>
      <trkpt lat="48.21259" lon="-3.12916">
        <ele>126.80000305176</ele>
        <time>2020-10-19T10:05:17.000Z</time>
      </trkpt>
      <trkpt lat="48.21258" lon="-3.12917">
        <ele>126.80000305176</ele>
        <time>2020-10-19T10:05:18.000Z</time>
      </trkpt>
      <trkpt lat="48.21257" lon="-3.12919">
        <ele>126.59999847412</ele>
        <time>2020-10-19T10:05:19.000Z</time>
      </trkpt>
      <trkpt lat="48.21257" lon="-3.1292">
        <ele>126.59999847412</ele>
        <time>2020-10-19T10:05:20.000Z</time>
      </trkpt>
      <trkpt lat="48.21256" lon="-3.12921">
        <ele>126.40000152588</ele>
        <time>2020-10-19T10:05:21.000Z</time>
      </trkpt>
      <trkpt lat="48.21256" lon="-3.12923">
        <ele>126.40000152588</ele>
        <time>2020-10-19T10:05:22.000Z</time>
      </trkpt>
      <trkpt lat="48.21255" lon="-3.12924">
        <ele>126.19999694824</ele>
        <time>2020-10-19T10:05:23.000Z</time>
      </trkpt>
      <trkpt lat="48.21254" lon="-3.12926">
        <ele>126.19999694824</ele>
        <time>2020-10-19T10:05:24.000Z</time>
      </trkpt>
      <trkpt lat="48.21254" lon="-3.12927">
        <ele>126.19999694824</ele>
        <time>2020-10-19T10:05:25.000Z</time>
      </trkpt>
      <trkpt lat="48.21253" lon="-3.12929">
        <ele>126.19999694824</ele>
        <time>2020-10-19T10:05:26.000Z</time>
      </trkpt>
      <trkpt lat="48.21253" lon="-3.1293">
        <ele>126.40000152588</ele>
        <time>2020-10-19T10:05:27.000Z</time>
      </trkpt>
      <trkpt lat="48.21252" lon="-3.12932">
        <ele>126.40000152588</ele>
        <time>2020-10-19T10:05:28.000Z</time>
      </trkpt>
      <trkpt lat="48.21251" lon="-3.12933">
        <ele>126.59999847412</ele>
        <time>2020-10-19T10:05:29.000Z</time>
      </trkpt>
      <trkpt lat="48.21251" lon="-3.12934">
        <ele>126.59999847412</ele>
        <time>2020-10-19T10:05:30.000Z</time>
      </trkpt>
      <trkpt lat="48.2125" lon="-3.12935">
        <ele>126.59999847412</ele>
        <time>2020-10-19T10:05:31.000Z</time>
      </trkpt>
      <trkpt lat="48.21249" lon="-3.12935">
        <ele>126.80000305176</ele>
        <time>2020-10-19T10:05:32.000Z</time>
      </trkpt>
      <trkpt lat="48.21248" lon="-3.12937">
        <ele>126.80000305176</ele>
        <time>2020-10-19T10:05:33.000Z</time>
      </trkpt>
      <trkpt lat="48.21247" lon="-3.12938">
        <ele>127</ele>
        <time>2020-10-19T10:05:34.000Z</time>
      </trkpt>
      <trkpt lat="48.21246" lon="-3.12939">
        <ele>127</ele>
        <time>2020-10-19T10:05:35.000Z</time>
      </trkpt>
      <trkpt lat="48.21245" lon="-3.12941">
        <ele>127.19999694824</ele>
        <time>2020-10-19T10:05:36.000Z</time>
      </trkpt>
      <trkpt lat="48.21244" lon="-3.12942">
        <ele>127.19999694824</ele>
        <time>2020-10-19T10:05:37.000Z</time>
      </trkpt>
      <trkpt lat="48.21244" lon="-3.12943">
        <ele>127.40000152588</ele>
        <time>2020-10-19T10:05:38.000Z</time>
      </trkpt>
      <trkpt lat="48.21243" lon="-3.12944">
        <ele>127.40000152588</ele>
        <time>2020-10-19T10:05:39.000Z</time>
      </trkpt>
      <trkpt lat="48.21241" lon="-3.12945">
        <ele>127.59999847412</ele>
        <time>2020-10-19T10:05:40.000Z</time>
      </trkpt>
      <trkpt lat="48.2124" lon="-3.12946">
        <ele>127.59999847412</ele>
        <time>2020-10-19T10:05:41.000Z</time>
      </trkpt>
      <trkpt lat="48.21239" lon="-3.12948">
        <ele>127.80000305176</ele>
        <time>2020-10-19T10:05:42.000Z</time>
      </trkpt>
      <trkpt lat="48.21238" lon="-3.12948">
        <ele>127.80000305176</ele>
        <time>2020-10-19T10:05:43.000Z</time>
      </trkpt>
      <trkpt lat="48.21237" lon="-3.12949">
        <ele>127.80000305176</ele>
        <time>2020-10-19T10:05:44.000Z</time>
      </trkpt>
      <trkpt lat="48.21236" lon="-3.1295">
        <ele>128</ele>
        <time>2020-10-19T10:05:45.000Z</time>
      </trkpt>
      <trkpt lat="48.21236" lon="-3.12951">
        <ele>128</ele>
        <time>2020-10-19T10:05:46.000Z</time>
      </trkpt>
      <trkpt lat="48.21235" lon="-3.12953">
        <ele>128.19999694824</ele>
        <time>2020-10-19T10:05:47.000Z</time>
      </trkpt>
      <trkpt lat="48.21234" lon="-3.12954">
        <ele>128.19999694824</ele>
        <time>2020-10-19T10:05:48.000Z</time>
      </trkpt>
      <trkpt lat="48.21233" lon="-3.12956">
        <ele>128.39999389648</ele>
        <time>2020-10-19T10:05:49.000Z</time>
      </trkpt>
      <trkpt lat="48.21233" lon="-3.12956">
        <ele>128.39999389648</ele>
        <time>2020-10-19T10:05:50.000Z</time>
      </trkpt>
      <trkpt lat="48.21232" lon="-3.12958">
        <ele>128.60000610352</ele>
        <time>2020-10-19T10:05:51.000Z</time>
      </trkpt>
      <trkpt lat="48.21231" lon="-3.12959">
        <ele>128.60000610352</ele>
        <time>2020-10-19T10:05:52.000Z</time>
      </trkpt>
      <trkpt lat="48.2123" lon="-3.12961">
        <ele>128.60000610352</ele>
        <time>2020-10-19T10:05:53.000Z</time>
      </trkpt>
      <trkpt lat="48.21229" lon="-3.12962">
        <ele>128.80000305176</ele>
        <time>2020-10-19T10:05:54.000Z</time>
      </trkpt>
      <trkpt lat="48.21228" lon="-3.12963">
        <ele>128.80000305176</ele>
        <time>2020-10-19T10:05:55.000Z</time>
      </trkpt>
      <trkpt lat="48.21227" lon="-3.12965">
        <ele>128.80000305176</ele>
        <time>2020-10-19T10:05:56.000Z</time>
      </trkpt>
      <trkpt lat="48.21226" lon="-3.12966">
        <ele>128.80000305176</ele>
        <time>2020-10-19T10:05:57.000Z</time>
      </trkpt>
      <trkpt lat="48.21226" lon="-3.12967">
        <ele>129</ele>
        <time>2020-10-19T10:05:58.000Z</time>
      </trkpt>
      <trkpt lat="48.21224" lon="-3.12969">
        <ele>129</ele>
        <time>2020-10-19T10:05:59.000Z</time>
      </trkpt>
      <trkpt lat="48.21224" lon="-3.12971">
        <ele>129</ele>
        <time>2020-10-19T10:06:00.000Z</time>
      </trkpt>
      <trkpt lat="48.21222" lon="-3.12973">
        <ele>129.19999694824</ele>
        <time>2020-10-19T10:06:01.000Z</time>
      </trkpt>
      <trkpt lat="48.21222" lon="-3.12974">
        <ele>129.19999694824</ele>
        <time>2020-10-19T10:06:02.000Z</time>
      </trkpt>
      <trkpt lat="48.21221" lon="-3.12975">
        <ele>129.19999694824</ele>
        <time>2020-10-19T10:06:03.000Z</time>
      </trkpt>
      <trkpt lat="48.21221" lon="-3.12976">
        <ele>129.19999694824</ele>
        <time>2020-10-19T10:06:04.000Z</time>
      </trkpt>
      <trkpt lat="48.21221" lon="-3.12977">
        <ele>129.19999694824</ele>
        <time>2020-10-19T10:06:05.000Z</time>
      </trkpt>
      <trkpt lat="48.21221" lon="-3.12978">
        <ele>129.19999694824</ele>
        <time>2020-10-19T10:06:06.000Z</time>
      </trkpt>
      <trkpt lat="48.21221" lon="-3.12979">
        <ele>129.19999694824</ele>
        <time>2020-10-19T10:06:07.000Z</time>
      </trkpt>
      <trkpt lat="48.21221" lon="-3.12981">
        <ele>129.19999694824</ele>
        <time>2020-10-19T10:06:08.000Z</time>
      </trkpt>
      <trkpt lat="48.2122" lon="-3.12982">
        <ele>129.19999694824</ele>
        <time>2020-10-19T10:06:09.000Z</time>
      </trkpt>
      <trkpt lat="48.2122" lon="-3.12983">
        <ele>129.19999694824</ele>
        <time>2020-10-19T10:06:10.000Z</time>
      </trkpt>
      <trkpt lat="48.2122" lon="-3.12984">
        <ele>129.19999694824</ele>
        <time>2020-10-19T10:06:11.000Z</time>
      </trkpt>
      <trkpt lat="48.2122" lon="-3.12985">
        <ele>129.19999694824</ele>
        <time>2020-10-19T10:06:12.000Z</time>
      </trkpt>
      <trkpt lat="48.21219" lon="-3.12986">
        <ele>129.19999694824</ele>
        <time>2020-10-19T10:06:13.000Z</time>
      </trkpt>
      <trkpt lat="48.21219" lon="-3.12988">
        <ele>129.19999694824</ele>
        <time>2020-10-19T10:06:14.000Z</time>
      </trkpt>
      <trkpt lat="48.21218" lon="-3.12989">
        <ele>129.19999694824</ele>
        <time>2020-10-19T10:06:15.000Z</time>
      </trkpt>
      <trkpt lat="48.21217" lon="-3.1299">
        <ele>129.19999694824</ele>
        <time>2020-10-19T10:06:16.000Z</time>
      </trkpt>
      <trkpt lat="48.21217" lon="-3.12992">
        <ele>129.39999389648</ele>
        <time>2020-10-19T10:06:17.000Z</time>
      </trkpt>
      <trkpt lat="48.21216" lon="-3.12993">
        <ele>129.39999389648</ele>
        <time>2020-10-19T10:06:18.000Z</time>
      </trkpt>
      <trkpt lat="48.21215" lon="-3.12995">
        <ele>129.39999389648</ele>
        <time>2020-10-19T10:06:19.000Z</time>
      </trkpt>
      <trkpt lat="48.21215" lon="-3.12997">
        <ele>129.39999389648</ele>
        <time>2020-10-19T10:06:20.000Z</time>
      </trkpt>
      <trkpt lat="48.21215" lon="-3.12999">
        <ele>129.39999389648</ele>
        <time>2020-10-19T10:06:21.000Z</time>
      </trkpt>
      <trkpt lat="48.21215" lon="-3.13">
        <ele>129.39999389648</ele>
        <time>2020-10-19T10:06:22.000Z</time>
      </trkpt>
      <trkpt lat="48.21215" lon="-3.13001">
        <ele>129.39999389648</ele>
        <time>2020-10-19T10:06:23.000Z</time>
      </trkpt>
      <trkpt lat="48.21215" lon="-3.13003">
        <ele>129.19999694824</ele>
        <time>2020-10-19T10:06:24.000Z</time>
      </trkpt>
      <trkpt lat="48.21216" lon="-3.13004">
        <ele>129.19999694824</ele>
        <time>2020-10-19T10:06:25.000Z</time>
      </trkpt>
      <trkpt lat="48.21217" lon="-3.13007">
        <ele>129</ele>
        <time>2020-10-19T10:06:26.000Z</time>
      </trkpt>
      <trkpt lat="48.21217" lon="-3.13007">
        <ele>129</ele>
        <time>2020-10-19T10:06:27.000Z</time>
      </trkpt>
      <trkpt lat="48.21217" lon="-3.13008">
        <ele>128.80000305176</ele>
        <time>2020-10-19T10:06:28.000Z</time>
      </trkpt>
      <trkpt lat="48.21218" lon="-3.13009">
        <ele>128.80000305176</ele>
        <time>2020-10-19T10:06:29.000Z</time>
      </trkpt>
      <trkpt lat="48.21218" lon="-3.13011">
        <ele>128.80000305176</ele>
        <time>2020-10-19T10:06:30.000Z</time>
      </trkpt>
      <trkpt lat="48.21219" lon="-3.13012">
        <ele>128.80000305176</ele>
        <time>2020-10-19T10:06:31.000Z</time>
      </trkpt>
      <trkpt lat="48.2122" lon="-3.13013">
        <ele>129</ele>
        <time>2020-10-19T10:06:32.000Z</time>
      </trkpt>
      <trkpt lat="48.2122" lon="-3.13014">
        <ele>129.19999694824</ele>
        <time>2020-10-19T10:06:33.000Z</time>
      </trkpt>
      <trkpt lat="48.21221" lon="-3.13016">
        <ele>129.39999389648</ele>
        <time>2020-10-19T10:06:34.000Z</time>
      </trkpt>
      <trkpt lat="48.21221" lon="-3.13017">
        <ele>129.60000610352</ele>
        <time>2020-10-19T10:06:35.000Z</time>
      </trkpt>
      <trkpt lat="48.21222" lon="-3.13017">
        <ele>129.60000610352</ele>
        <time>2020-10-19T10:06:36.000Z</time>
      </trkpt>
      <trkpt lat="48.21223" lon="-3.13018">
        <ele>129.80000305176</ele>
        <time>2020-10-19T10:06:37.000Z</time>
      </trkpt>
      <trkpt lat="48.21224" lon="-3.13019">
        <ele>129.80000305176</ele>
        <time>2020-10-19T10:06:38.000Z</time>
      </trkpt>
      <trkpt lat="48.21224" lon="-3.1302">
        <ele>130</ele>
        <time>2020-10-19T10:06:39.000Z</time>
      </trkpt>
      <trkpt lat="48.21225" lon="-3.13022">
        <ele>130.19999694824</ele>
        <time>2020-10-19T10:06:40.000Z</time>
      </trkpt>
      <trkpt lat="48.21226" lon="-3.13023">
        <ele>130.19999694824</ele>
        <time>2020-10-19T10:06:41.000Z</time>
      </trkpt>
      <trkpt lat="48.21226" lon="-3.13024">
        <ele>130.39999389648</ele>
        <time>2020-10-19T10:06:42.000Z</time>
      </trkpt>
      <trkpt lat="48.21227" lon="-3.13025">
        <ele>130.60000610352</ele>
        <time>2020-10-19T10:06:43.000Z</time>
      </trkpt>
      <trkpt lat="48.21228" lon="-3.13026">
        <ele>130.60000610352</ele>
        <time>2020-10-19T10:06:44.000Z</time>
      </trkpt>
      <trkpt lat="48.21229" lon="-3.13027">
        <ele>130.80000305176</ele>
        <time>2020-10-19T10:06:45.000Z</time>
      </trkpt>
      <trkpt lat="48.2123" lon="-3.13028">
        <ele>130.80000305176</ele>
        <time>2020-10-19T10:06:46.000Z</time>
      </trkpt>
      <trkpt lat="48.21231" lon="-3.13029">
        <ele>131</ele>
        <time>2020-10-19T10:06:47.000Z</time>
      </trkpt>
      <trkpt lat="48.21232" lon="-3.1303">
        <ele>131</ele>
        <time>2020-10-19T10:06:48.000Z</time>
      </trkpt>
      <trkpt lat="48.21233" lon="-3.13032">
        <ele>131.19999694824</ele>
        <time>2020-10-19T10:06:49.000Z</time>
      </trkpt>
      <trkpt lat="48.21234" lon="-3.13033">
        <ele>131.39999389648</ele>
        <time>2020-10-19T10:06:50.000Z</time>
      </trkpt>
      <trkpt lat="48.21234" lon="-3.13035">
        <ele>131.60000610352</ele>
        <time>2020-10-19T10:06:51.000Z</time>
      </trkpt>
      <trkpt lat="48.21235" lon="-3.13036">
        <ele>131.80000305176</ele>
        <time>2020-10-19T10:06:52.000Z</time>
      </trkpt>
      <trkpt lat="48.21236" lon="-3.13038">
        <ele>132</ele>
        <time>2020-10-19T10:06:53.000Z</time>
      </trkpt>
      <trkpt lat="48.21237" lon="-3.13039">
        <ele>132</ele>
        <time>2020-10-19T10:06:54.000Z</time>
      </trkpt>
      <trkpt lat="48.21238" lon="-3.1304">
        <ele>131.80000305176</ele>
        <time>2020-10-19T10:06:55.000Z</time>
      </trkpt>
      <trkpt lat="48.2124" lon="-3.1304">
        <ele>131.60000610352</ele>
        <time>2020-10-19T10:06:56.000Z</time>
      </trkpt>
      <trkpt lat="48.21241" lon="-3.13042">
        <ele>131.60000610352</ele>
        <time>2020-10-19T10:06:57.000Z</time>
      </trkpt>
      <trkpt lat="48.21241" lon="-3.13043">
        <ele>131.60000610352</ele>
        <time>2020-10-19T10:06:58.000Z</time>
      </trkpt>
      <trkpt lat="48.21242" lon="-3.13044">
        <ele>131.39999389648</ele>
        <time>2020-10-19T10:06:59.000Z</time>
      </trkpt>
      <trkpt lat="48.21243" lon="-3.13045">
        <ele>131.39999389648</ele>
        <time>2020-10-19T10:07:00.000Z</time>
      </trkpt>
      <trkpt lat="48.21244" lon="-3.13046">
        <ele>131.39999389648</ele>
        <time>2020-10-19T10:07:01.000Z</time>
      </trkpt>
      <trkpt lat="48.21245" lon="-3.13047">
        <ele>131.39999389648</ele>
        <time>2020-10-19T10:07:02.000Z</time>
      </trkpt>
      <trkpt lat="48.21245" lon="-3.13048">
        <ele>131.60000610352</ele>
        <time>2020-10-19T10:07:03.000Z</time>
      </trkpt>
      <trkpt lat="48.21246" lon="-3.1305">
        <ele>131.60000610352</ele>
        <time>2020-10-19T10:07:04.000Z</time>
      </trkpt>
      <trkpt lat="48.21246" lon="-3.13051">
        <ele>131.60000610352</ele>
        <time>2020-10-19T10:07:05.000Z</time>
      </trkpt>
      <trkpt lat="48.21247" lon="-3.13052">
        <ele>131.80000305176</ele>
        <time>2020-10-19T10:07:06.000Z</time>
      </trkpt>
      <trkpt lat="48.21247" lon="-3.13053">
        <ele>131.80000305176</ele>
        <time>2020-10-19T10:07:07.000Z</time>
      </trkpt>
      <trkpt lat="48.21248" lon="-3.13055">
        <ele>131.80000305176</ele>
        <time>2020-10-19T10:07:08.000Z</time>
      </trkpt>
      <trkpt lat="48.21249" lon="-3.13056">
        <ele>131.80000305176</ele>
        <time>2020-10-19T10:07:09.000Z</time>
      </trkpt>
      <trkpt lat="48.21249" lon="-3.13057">
        <ele>131.80000305176</ele>
        <time>2020-10-19T10:07:10.000Z</time>
      </trkpt>
      <trkpt lat="48.21251" lon="-3.13058">
        <ele>131.80000305176</ele>
        <time>2020-10-19T10:07:11.000Z</time>
      </trkpt>
      <trkpt lat="48.21252" lon="-3.13059">
        <ele>131.60000610352</ele>
        <time>2020-10-19T10:07:12.000Z</time>
      </trkpt>
      <trkpt lat="48.21253" lon="-3.1306">
        <ele>131.60000610352</ele>
        <time>2020-10-19T10:07:13.000Z</time>
      </trkpt>
      <trkpt lat="48.21254" lon="-3.13062">
        <ele>131.60000610352</ele>
        <time>2020-10-19T10:07:14.000Z</time>
      </trkpt>
      <trkpt lat="48.21255" lon="-3.13063">
        <ele>131.60000610352</ele>
        <time>2020-10-19T10:07:15.000Z</time>
      </trkpt>
      <trkpt lat="48.21255" lon="-3.13064">
        <ele>131.60000610352</ele>
        <time>2020-10-19T10:07:16.000Z</time>
      </trkpt>
      <trkpt lat="48.21256" lon="-3.13065">
        <ele>131.60000610352</ele>
        <time>2020-10-19T10:07:17.000Z</time>
      </trkpt>
      <trkpt lat="48.21257" lon="-3.13067">
        <ele>131.80000305176</ele>
        <time>2020-10-19T10:07:18.000Z</time>
      </trkpt>
      <trkpt lat="48.21257" lon="-3.13068">
        <ele>131.80000305176</ele>
        <time>2020-10-19T10:07:19.000Z</time>
      </trkpt>
      <trkpt lat="48.21258" lon="-3.1307">
        <ele>132</ele>
        <time>2020-10-19T10:07:20.000Z</time>
      </trkpt>
      <trkpt lat="48.21258" lon="-3.13071">
        <ele>132</ele>
        <time>2020-10-19T10:07:21.000Z</time>
      </trkpt>
      <trkpt lat="48.21259" lon="-3.13072">
        <ele>132</ele>
        <time>2020-10-19T10:07:22.000Z</time>
      </trkpt>
      <trkpt lat="48.21259" lon="-3.13072">
        <ele>131.80000305176</ele>
        <time>2020-10-19T10:07:23.000Z</time>
      </trkpt>
      <trkpt lat="48.2126" lon="-3.13073">
        <ele>131.80000305176</ele>
        <time>2020-10-19T10:07:24.000Z</time>
      </trkpt>
      <trkpt lat="48.21262" lon="-3.13073">
        <ele>131.60000610352</ele>
        <time>2020-10-19T10:07:25.000Z</time>
      </trkpt>
      <trkpt lat="48.21263" lon="-3.13074">
        <ele>131.60000610352</ele>
        <time>2020-10-19T10:07:26.000Z</time>
      </trkpt>
      <trkpt lat="48.21264" lon="-3.13075">
        <ele>131.80000305176</ele>
        <time>2020-10-19T10:07:27.000Z</time>
      </trkpt>
      <trkpt lat="48.21265" lon="-3.13076">
        <ele>131.80000305176</ele>
        <time>2020-10-19T10:07:28.000Z</time>
      </trkpt>
      <trkpt lat="48.21266" lon="-3.13077">
        <ele>132</ele>
        <time>2020-10-19T10:07:29.000Z</time>
      </trkpt>
      <trkpt lat="48.21266" lon="-3.13078">
        <ele>132</ele>
        <time>2020-10-19T10:07:30.000Z</time>
      </trkpt>
      <trkpt lat="48.21268" lon="-3.13078">
        <ele>132.19999694824</ele>
        <time>2020-10-19T10:07:31.000Z</time>
      </trkpt>
      <trkpt lat="48.21268" lon="-3.13079">
        <ele>132.19999694824</ele>
        <time>2020-10-19T10:07:32.000Z</time>
      </trkpt>
      <trkpt lat="48.21269" lon="-3.1308">
        <ele>132.39999389648</ele>
        <time>2020-10-19T10:07:33.000Z</time>
      </trkpt>
      <trkpt lat="48.2127" lon="-3.1308">
        <ele>132.39999389648</ele>
        <time>2020-10-19T10:07:34.000Z</time>
      </trkpt>
      <trkpt lat="48.21271" lon="-3.13081">
        <ele>132.39999389648</ele>
        <time>2020-10-19T10:07:35.000Z</time>
      </trkpt>
      <trkpt lat="48.21272" lon="-3.13081">
        <ele>132.60000610352</ele>
        <time>2020-10-19T10:07:36.000Z</time>
      </trkpt>
      <trkpt lat="48.21273" lon="-3.13082">
        <ele>132.60000610352</ele>
        <time>2020-10-19T10:07:37.000Z</time>
      </trkpt>
      <trkpt lat="48.21275" lon="-3.13083">
        <ele>132.60000610352</ele>
        <time>2020-10-19T10:07:38.000Z</time>
      </trkpt>
      <trkpt lat="48.21276" lon="-3.13083">
        <ele>132.60000610352</ele>
        <time>2020-10-19T10:07:39.000Z</time>
      </trkpt>
      <trkpt lat="48.21278" lon="-3.13085">
        <ele>132.60000610352</ele>
        <time>2020-10-19T10:07:40.000Z</time>
      </trkpt>
      <trkpt lat="48.21279" lon="-3.13086">
        <ele>132.39999389648</ele>
        <time>2020-10-19T10:07:41.000Z</time>
      </trkpt>
      <trkpt lat="48.2128" lon="-3.13087">
        <ele>132.39999389648</ele>
        <time>2020-10-19T10:07:42.000Z</time>
      </trkpt>
      <trkpt lat="48.21281" lon="-3.13088">
        <ele>132.39999389648</ele>
        <time>2020-10-19T10:07:43.000Z</time>
      </trkpt>
      <trkpt lat="48.21282" lon="-3.13089">
        <ele>132.60000610352</ele>
        <time>2020-10-19T10:07:44.000Z</time>
      </trkpt>
      <trkpt lat="48.21283" lon="-3.1309">
        <ele>132.60000610352</ele>
        <time>2020-10-19T10:07:45.000Z</time>
      </trkpt>
      <trkpt lat="48.21284" lon="-3.13091">
        <ele>132.60000610352</ele>
        <time>2020-10-19T10:07:46.000Z</time>
      </trkpt>
      <trkpt lat="48.21285" lon="-3.13092">
        <ele>132.60000610352</ele>
        <time>2020-10-19T10:07:47.000Z</time>
      </trkpt>
      <trkpt lat="48.21286" lon="-3.13093">
        <ele>132.60000610352</ele>
        <time>2020-10-19T10:07:48.000Z</time>
      </trkpt>
      <trkpt lat="48.21287" lon="-3.13094">
        <ele>132.60000610352</ele>
        <time>2020-10-19T10:07:49.000Z</time>
      </trkpt>
      <trkpt lat="48.21288" lon="-3.13095">
        <ele>132.60000610352</ele>
        <time>2020-10-19T10:07:50.000Z</time>
      </trkpt>
      <trkpt lat="48.21289" lon="-3.13095">
        <ele>132.80000305176</ele>
        <time>2020-10-19T10:07:51.000Z</time>
      </trkpt>
      <trkpt lat="48.2129" lon="-3.13096">
        <ele>132.80000305176</ele>
        <time>2020-10-19T10:07:52.000Z</time>
      </trkpt>
      <trkpt lat="48.21291" lon="-3.13097">
        <ele>133</ele>
        <time>2020-10-19T10:07:53.000Z</time>
      </trkpt>
      <trkpt lat="48.21292" lon="-3.13099">
        <ele>133.19999694824</ele>
        <time>2020-10-19T10:07:54.000Z</time>
      </trkpt>
      <trkpt lat="48.21293" lon="-3.131">
        <ele>133.39999389648</ele>
        <time>2020-10-19T10:07:55.000Z</time>
      </trkpt>
      <trkpt lat="48.21294" lon="-3.13101">
        <ele>133.60000610352</ele>
        <time>2020-10-19T10:07:56.000Z</time>
      </trkpt>
      <trkpt lat="48.21295" lon="-3.13102">
        <ele>133.80000305176</ele>
        <time>2020-10-19T10:07:57.000Z</time>
      </trkpt>
      <trkpt lat="48.21297" lon="-3.13104">
        <ele>134</ele>
        <time>2020-10-19T10:07:58.000Z</time>
      </trkpt>
      <trkpt lat="48.21298" lon="-3.13105">
        <ele>134.19999694824</ele>
        <time>2020-10-19T10:07:59.000Z</time>
      </trkpt>
      <trkpt lat="48.21299" lon="-3.13106">
        <ele>134.60000610352</ele>
        <time>2020-10-19T10:08:00.000Z</time>
      </trkpt>
      <trkpt lat="48.21299" lon="-3.13108">
        <ele>134.80000305176</ele>
        <time>2020-10-19T10:08:01.000Z</time>
      </trkpt>
      <trkpt lat="48.213" lon="-3.1311">
        <ele>135.19999694824</ele>
        <time>2020-10-19T10:08:02.000Z</time>
      </trkpt>
      <trkpt lat="48.21301" lon="-3.13111">
        <ele>135.39999389648</ele>
        <time>2020-10-19T10:08:03.000Z</time>
      </trkpt>
      <trkpt lat="48.21302" lon="-3.13112">
        <ele>135.60000610352</ele>
        <time>2020-10-19T10:08:04.000Z</time>
      </trkpt>
      <trkpt lat="48.21304" lon="-3.13115">
        <ele>136</ele>
        <time>2020-10-19T10:08:05.000Z</time>
      </trkpt>
      <trkpt lat="48.21304" lon="-3.13115">
        <ele>136</ele>
        <time>2020-10-19T10:08:06.000Z</time>
      </trkpt>
      <trkpt lat="48.21305" lon="-3.13116">
        <ele>136.19999694824</ele>
        <time>2020-10-19T10:08:07.000Z</time>
      </trkpt>
      <trkpt lat="48.21306" lon="-3.13118">
        <ele>136.39999389648</ele>
        <time>2020-10-19T10:08:08.000Z</time>
      </trkpt>
      <trkpt lat="48.21306" lon="-3.13119">
        <ele>136.80000305176</ele>
        <time>2020-10-19T10:08:09.000Z</time>
      </trkpt>
      <trkpt lat="48.21307" lon="-3.13121">
        <ele>137</ele>
        <time>2020-10-19T10:08:10.000Z</time>
      </trkpt>
      <trkpt lat="48.21307" lon="-3.13121">
        <ele>137.19999694824</ele>
        <time>2020-10-19T10:08:11.000Z</time>
      </trkpt>
      <trkpt lat="48.21309" lon="-3.13121">
        <ele>137.19999694824</ele>
        <time>2020-10-19T10:08:12.000Z</time>
      </trkpt>
      <trkpt lat="48.2131" lon="-3.13122">
        <ele>137.19999694824</ele>
        <time>2020-10-19T10:08:13.000Z</time>
      </trkpt>
      <trkpt lat="48.21311" lon="-3.13124">
        <ele>137.60000610352</ele>
        <time>2020-10-19T10:08:14.000Z</time>
      </trkpt>
      <trkpt lat="48.21311" lon="-3.13125">
        <ele>137.80000305176</ele>
        <time>2020-10-19T10:08:15.000Z</time>
      </trkpt>
      <trkpt lat="48.21312" lon="-3.13127">
        <ele>138</ele>
        <time>2020-10-19T10:08:16.000Z</time>
      </trkpt>
      <trkpt lat="48.21314" lon="-3.13128">
        <ele>138</ele>
        <time>2020-10-19T10:08:17.000Z</time>
      </trkpt>
      <trkpt lat="48.21315" lon="-3.13129">
        <ele>138</ele>
        <time>2020-10-19T10:08:18.000Z</time>
      </trkpt>
      <trkpt lat="48.21316" lon="-3.1313">
        <ele>138</ele>
        <time>2020-10-19T10:08:19.000Z</time>
      </trkpt>
      <trkpt lat="48.21317" lon="-3.13132">
        <ele>138</ele>
        <time>2020-10-19T10:08:20.000Z</time>
      </trkpt>
      <trkpt lat="48.21318" lon="-3.13133">
        <ele>138</ele>
        <time>2020-10-19T10:08:21.000Z</time>
      </trkpt>
      <trkpt lat="48.21319" lon="-3.13135">
        <ele>138</ele>
        <time>2020-10-19T10:08:22.000Z</time>
      </trkpt>
      <trkpt lat="48.2132" lon="-3.13136">
        <ele>138</ele>
        <time>2020-10-19T10:08:23.000Z</time>
      </trkpt>
      <trkpt lat="48.21321" lon="-3.13138">
        <ele>138.19999694824</ele>
        <time>2020-10-19T10:08:24.000Z</time>
      </trkpt>
      <trkpt lat="48.21321" lon="-3.1314">
        <ele>138.19999694824</ele>
        <time>2020-10-19T10:08:25.000Z</time>
      </trkpt>
      <trkpt lat="48.21322" lon="-3.13141">
        <ele>138.19999694824</ele>
        <time>2020-10-19T10:08:26.000Z</time>
      </trkpt>
      <trkpt lat="48.21322" lon="-3.13142">
        <ele>138.39999389648</ele>
        <time>2020-10-19T10:08:27.000Z</time>
      </trkpt>
      <trkpt lat="48.21323" lon="-3.13144">
        <ele>138.39999389648</ele>
        <time>2020-10-19T10:08:28.000Z</time>
      </trkpt>
      <trkpt lat="48.21324" lon="-3.13145">
        <ele>138.60000610352</ele>
        <time>2020-10-19T10:08:29.000Z</time>
      </trkpt>
      <trkpt lat="48.21324" lon="-3.13147">
        <ele>138.60000610352</ele>
        <time>2020-10-19T10:08:30.000Z</time>
      </trkpt>
      <trkpt lat="48.21324" lon="-3.13148">
        <ele>138.80000305176</ele>
        <time>2020-10-19T10:08:31.000Z</time>
      </trkpt>
      <trkpt lat="48.21325" lon="-3.1315">
        <ele>139</ele>
        <time>2020-10-19T10:08:32.000Z</time>
      </trkpt>
      <trkpt lat="48.21325" lon="-3.13151">
        <ele>139</ele>
        <time>2020-10-19T10:08:33.000Z</time>
      </trkpt>
      <trkpt lat="48.21326" lon="-3.13152">
        <ele>139</ele>
        <time>2020-10-19T10:08:34.000Z</time>
      </trkpt>
      <trkpt lat="48.21327" lon="-3.13154">
        <ele>139</ele>
        <time>2020-10-19T10:08:35.000Z</time>
      </trkpt>
      <trkpt lat="48.21329" lon="-3.13154">
        <ele>138.80000305176</ele>
        <time>2020-10-19T10:08:36.000Z</time>
      </trkpt>
      <trkpt lat="48.2133" lon="-3.13156">
        <ele>138.80000305176</ele>
        <time>2020-10-19T10:08:37.000Z</time>
      </trkpt>
      <trkpt lat="48.21331" lon="-3.13157">
        <ele>138.80000305176</ele>
        <time>2020-10-19T10:08:38.000Z</time>
      </trkpt>
      <trkpt lat="48.21332" lon="-3.13159">
        <ele>138.80000305176</ele>
        <time>2020-10-19T10:08:39.000Z</time>
      </trkpt>
      <trkpt lat="48.21333" lon="-3.1316">
        <ele>138.80000305176</ele>
        <time>2020-10-19T10:08:40.000Z</time>
      </trkpt>
      <trkpt lat="48.21335" lon="-3.13161">
        <ele>138.60000610352</ele>
        <time>2020-10-19T10:08:41.000Z</time>
      </trkpt>
      <trkpt lat="48.21336" lon="-3.13162">
        <ele>138.60000610352</ele>
        <time>2020-10-19T10:08:42.000Z</time>
      </trkpt>
      <trkpt lat="48.21337" lon="-3.13163">
        <ele>138.60000610352</ele>
        <time>2020-10-19T10:08:43.000Z</time>
      </trkpt>
      <trkpt lat="48.21339" lon="-3.13164">
        <ele>138.39999389648</ele>
        <time>2020-10-19T10:08:44.000Z</time>
      </trkpt>
      <trkpt lat="48.2134" lon="-3.13165">
        <ele>138.39999389648</ele>
        <time>2020-10-19T10:08:45.000Z</time>
      </trkpt>
      <trkpt lat="48.21341" lon="-3.13166">
        <ele>138.39999389648</ele>
        <time>2020-10-19T10:08:46.000Z</time>
      </trkpt>
      <trkpt lat="48.21342" lon="-3.13168">
        <ele>138.39999389648</ele>
        <time>2020-10-19T10:08:47.000Z</time>
      </trkpt>
      <trkpt lat="48.21344" lon="-3.1317">
        <ele>138.39999389648</ele>
        <time>2020-10-19T10:08:48.000Z</time>
      </trkpt>
      <trkpt lat="48.21344" lon="-3.1317">
        <ele>138.39999389648</ele>
        <time>2020-10-19T10:08:49.000Z</time>
      </trkpt>
      <trkpt lat="48.21345" lon="-3.13171">
        <ele>138.39999389648</ele>
        <time>2020-10-19T10:08:50.000Z</time>
      </trkpt>
      <trkpt lat="48.21346" lon="-3.13172">
        <ele>138.39999389648</ele>
        <time>2020-10-19T10:08:51.000Z</time>
      </trkpt>
      <trkpt lat="48.21347" lon="-3.13173">
        <ele>138.60000610352</ele>
        <time>2020-10-19T10:08:52.000Z</time>
      </trkpt>
      <trkpt lat="48.21348" lon="-3.13174">
        <ele>138.60000610352</ele>
        <time>2020-10-19T10:08:53.000Z</time>
      </trkpt>
      <trkpt lat="48.21349" lon="-3.13176">
        <ele>138.60000610352</ele>
        <time>2020-10-19T10:08:54.000Z</time>
      </trkpt>
      <trkpt lat="48.2135" lon="-3.13177">
        <ele>138.39999389648</ele>
        <time>2020-10-19T10:08:55.000Z</time>
      </trkpt>
      <trkpt lat="48.21351" lon="-3.13178">
        <ele>138.39999389648</ele>
        <time>2020-10-19T10:08:56.000Z</time>
      </trkpt>
      <trkpt lat="48.21352" lon="-3.1318">
        <ele>138.39999389648</ele>
        <time>2020-10-19T10:08:57.000Z</time>
      </trkpt>
      <trkpt lat="48.21353" lon="-3.13181">
        <ele>138.19999694824</ele>
        <time>2020-10-19T10:08:58.000Z</time>
      </trkpt>
      <trkpt lat="48.21354" lon="-3.13182">
        <ele>138.19999694824</ele>
        <time>2020-10-19T10:08:59.000Z</time>
      </trkpt>
      <trkpt lat="48.21354" lon="-3.13183">
        <ele>138.19999694824</ele>
        <time>2020-10-19T10:09:00.000Z</time>
      </trkpt>
      <trkpt lat="48.21355" lon="-3.13185">
        <ele>138.39999389648</ele>
        <time>2020-10-19T10:09:01.000Z</time>
      </trkpt>
      <trkpt lat="48.21355" lon="-3.13187">
        <ele>138.39999389648</ele>
        <time>2020-10-19T10:09:02.000Z</time>
      </trkpt>
      <trkpt lat="48.21356" lon="-3.13188">
        <ele>138.39999389648</ele>
        <time>2020-10-19T10:09:03.000Z</time>
      </trkpt>
      <trkpt lat="48.21357" lon="-3.1319">
        <ele>138.39999389648</ele>
        <time>2020-10-19T10:09:04.000Z</time>
      </trkpt>
      <trkpt lat="48.21358" lon="-3.13192">
        <ele>138.39999389648</ele>
        <time>2020-10-19T10:09:05.000Z</time>
      </trkpt>
      <trkpt lat="48.21359" lon="-3.13194">
        <ele>138.39999389648</ele>
        <time>2020-10-19T10:09:06.000Z</time>
      </trkpt>
      <trkpt lat="48.2136" lon="-3.13197">
        <ele>138.39999389648</ele>
        <time>2020-10-19T10:09:07.000Z</time>
      </trkpt>
      <trkpt lat="48.2136" lon="-3.13197">
        <ele>138.39999389648</ele>
        <time>2020-10-19T10:09:08.000Z</time>
      </trkpt>
      <trkpt lat="48.21361" lon="-3.13198">
        <ele>138.39999389648</ele>
        <time>2020-10-19T10:09:09.000Z</time>
      </trkpt>
      <trkpt lat="48.21362" lon="-3.132">
        <ele>138.39999389648</ele>
        <time>2020-10-19T10:09:10.000Z</time>
      </trkpt>
      <trkpt lat="48.21363" lon="-3.13201">
        <ele>138.39999389648</ele>
        <time>2020-10-19T10:09:11.000Z</time>
      </trkpt>
      <trkpt lat="48.21363" lon="-3.13203">
        <ele>138.39999389648</ele>
        <time>2020-10-19T10:09:12.000Z</time>
      </trkpt>
      <trkpt lat="48.21364" lon="-3.13205">
        <ele>138.39999389648</ele>
        <time>2020-10-19T10:09:13.000Z</time>
      </trkpt>
      <trkpt lat="48.21364" lon="-3.13207">
        <ele>138.60000610352</ele>
        <time>2020-10-19T10:09:14.000Z</time>
      </trkpt>
      <trkpt lat="48.21364" lon="-3.13209">
        <ele>138.60000610352</ele>
        <time>2020-10-19T10:09:15.000Z</time>
      </trkpt>
      <trkpt lat="48.21364" lon="-3.13211">
        <ele>138.80000305176</ele>
        <time>2020-10-19T10:09:16.000Z</time>
      </trkpt>
      <trkpt lat="48.21365" lon="-3.13213">
        <ele>138.80000305176</ele>
        <time>2020-10-19T10:09:17.000Z</time>
      </trkpt>
      <trkpt lat="48.21365" lon="-3.13215">
        <ele>138.80000305176</ele>
        <time>2020-10-19T10:09:18.000Z</time>
      </trkpt>
      <trkpt lat="48.21366" lon="-3.13217">
        <ele>138.80000305176</ele>
        <time>2020-10-19T10:09:19.000Z</time>
      </trkpt>
      <trkpt lat="48.21366" lon="-3.13219">
        <ele>139</ele>
        <time>2020-10-19T10:09:20.000Z</time>
      </trkpt>
      <trkpt lat="48.21367" lon="-3.1322">
        <ele>139</ele>
        <time>2020-10-19T10:09:21.000Z</time>
      </trkpt>
      <trkpt lat="48.21368" lon="-3.13222">
        <ele>139</ele>
        <time>2020-10-19T10:09:22.000Z</time>
      </trkpt>
      <trkpt lat="48.21368" lon="-3.13223">
        <ele>139</ele>
        <time>2020-10-19T10:09:23.000Z</time>
      </trkpt>
      <trkpt lat="48.21369" lon="-3.13225">
        <ele>139</ele>
        <time>2020-10-19T10:09:24.000Z</time>
      </trkpt>
      <trkpt lat="48.21369" lon="-3.13226">
        <ele>139</ele>
        <time>2020-10-19T10:09:25.000Z</time>
      </trkpt>
      <trkpt lat="48.2137" lon="-3.13228">
        <ele>139.19999694824</ele>
        <time>2020-10-19T10:09:26.000Z</time>
      </trkpt>
      <trkpt lat="48.21371" lon="-3.13232">
        <ele>139.19999694824</ele>
        <time>2020-10-19T10:09:27.000Z</time>
      </trkpt>
      <trkpt lat="48.21371" lon="-3.13232">
        <ele>139.19999694824</ele>
        <time>2020-10-19T10:09:28.000Z</time>
      </trkpt>
      <trkpt lat="48.21371" lon="-3.13234">
        <ele>139.39999389648</ele>
        <time>2020-10-19T10:09:29.000Z</time>
      </trkpt>
      <trkpt lat="48.21371" lon="-3.13236">
        <ele>139.39999389648</ele>
        <time>2020-10-19T10:09:30.000Z</time>
      </trkpt>
      <trkpt lat="48.21371" lon="-3.13238">
        <ele>139.19999694824</ele>
        <time>2020-10-19T10:09:31.000Z</time>
      </trkpt>
      <trkpt lat="48.21372" lon="-3.1324">
        <ele>139.19999694824</ele>
        <time>2020-10-19T10:09:32.000Z</time>
      </trkpt>
      <trkpt lat="48.21372" lon="-3.13242">
        <ele>139</ele>
        <time>2020-10-19T10:09:33.000Z</time>
      </trkpt>
      <trkpt lat="48.21372" lon="-3.13244">
        <ele>139</ele>
        <time>2020-10-19T10:09:34.000Z</time>
      </trkpt>
      <trkpt lat="48.21372" lon="-3.13246">
        <ele>139</ele>
        <time>2020-10-19T10:09:35.000Z</time>
      </trkpt>
      <trkpt lat="48.21372" lon="-3.13248">
        <ele>139</ele>
        <time>2020-10-19T10:09:36.000Z</time>
      </trkpt>
      <trkpt lat="48.21372" lon="-3.1325">
        <ele>139</ele>
        <time>2020-10-19T10:09:37.000Z</time>
      </trkpt>
      <trkpt lat="48.21372" lon="-3.13252">
        <ele>139</ele>
        <time>2020-10-19T10:09:38.000Z</time>
      </trkpt>
      <trkpt lat="48.21373" lon="-3.13254">
        <ele>138.80000305176</ele>
        <time>2020-10-19T10:09:39.000Z</time>
      </trkpt>
      <trkpt lat="48.21373" lon="-3.13256">
        <ele>138.80000305176</ele>
        <time>2020-10-19T10:09:40.000Z</time>
      </trkpt>
      <trkpt lat="48.21373" lon="-3.13258">
        <ele>138.60000610352</ele>
        <time>2020-10-19T10:09:41.000Z</time>
      </trkpt>
      <trkpt lat="48.21373" lon="-3.1326">
        <ele>138.60000610352</ele>
        <time>2020-10-19T10:09:42.000Z</time>
      </trkpt>
      <trkpt lat="48.21373" lon="-3.13261">
        <ele>138.80000305176</ele>
        <time>2020-10-19T10:09:43.000Z</time>
      </trkpt>
      <trkpt lat="48.21373" lon="-3.13263">
        <ele>138.80000305176</ele>
        <time>2020-10-19T10:09:44.000Z</time>
      </trkpt>
      <trkpt lat="48.21373" lon="-3.13265">
        <ele>138.80000305176</ele>
        <time>2020-10-19T10:09:45.000Z</time>
      </trkpt>
      <trkpt lat="48.21373" lon="-3.13266">
        <ele>138.80000305176</ele>
        <time>2020-10-19T10:09:46.000Z</time>
      </trkpt>
      <trkpt lat="48.21373" lon="-3.13268">
        <ele>139</ele>
        <time>2020-10-19T10:09:47.000Z</time>
      </trkpt>
      <trkpt lat="48.21373" lon="-3.1327">
        <ele>139</ele>
        <time>2020-10-19T10:09:48.000Z</time>
      </trkpt>
      <trkpt lat="48.21373" lon="-3.13272">
        <ele>139</ele>
        <time>2020-10-19T10:09:49.000Z</time>
      </trkpt>
      <trkpt lat="48.21373" lon="-3.13274">
        <ele>139.19999694824</ele>
        <time>2020-10-19T10:09:50.000Z</time>
      </trkpt>
      <trkpt lat="48.21373" lon="-3.13276">
        <ele>139.19999694824</ele>
        <time>2020-10-19T10:09:51.000Z</time>
      </trkpt>
      <trkpt lat="48.21373" lon="-3.1328">
        <ele>139.39999389648</ele>
        <time>2020-10-19T10:09:52.000Z</time>
      </trkpt>
      <trkpt lat="48.21373" lon="-3.1328">
        <ele>139.39999389648</ele>
        <time>2020-10-19T10:09:53.000Z</time>
      </trkpt>
      <trkpt lat="48.21373" lon="-3.13282">
        <ele>139.39999389648</ele>
        <time>2020-10-19T10:09:54.000Z</time>
      </trkpt>
      <trkpt lat="48.21374" lon="-3.13284">
        <ele>139.39999389648</ele>
        <time>2020-10-19T10:09:55.000Z</time>
      </trkpt>
      <trkpt lat="48.21373" lon="-3.13286">
        <ele>139.60000610352</ele>
        <time>2020-10-19T10:09:56.000Z</time>
      </trkpt>
      <trkpt lat="48.21373" lon="-3.13288">
        <ele>139.60000610352</ele>
        <time>2020-10-19T10:09:57.000Z</time>
      </trkpt>
      <trkpt lat="48.21373" lon="-3.1329">
        <ele>139.80000305176</ele>
        <time>2020-10-19T10:09:58.000Z</time>
      </trkpt>
      <trkpt lat="48.21373" lon="-3.13291">
        <ele>139.80000305176</ele>
        <time>2020-10-19T10:09:59.000Z</time>
      </trkpt>
      <trkpt lat="48.21373" lon="-3.13295">
        <ele>140</ele>
        <time>2020-10-19T10:10:00.000Z</time>
      </trkpt>
      <trkpt lat="48.21373" lon="-3.13295">
        <ele>140</ele>
        <time>2020-10-19T10:10:01.000Z</time>
      </trkpt>
      <trkpt lat="48.21373" lon="-3.13297">
        <ele>140</ele>
        <time>2020-10-19T10:10:02.000Z</time>
      </trkpt>
      <trkpt lat="48.21374" lon="-3.13298">
        <ele>140</ele>
        <time>2020-10-19T10:10:03.000Z</time>
      </trkpt>
      <trkpt lat="48.21373" lon="-3.133">
        <ele>140</ele>
        <time>2020-10-19T10:10:04.000Z</time>
      </trkpt>
      <trkpt lat="48.21373" lon="-3.13302">
        <ele>140.19999694824</ele>
        <time>2020-10-19T10:10:05.000Z</time>
      </trkpt>
      <trkpt lat="48.21373" lon="-3.13304">
        <ele>140.19999694824</ele>
        <time>2020-10-19T10:10:06.000Z</time>
      </trkpt>
      <trkpt lat="48.21373" lon="-3.13305">
        <ele>140.39999389648</ele>
        <time>2020-10-19T10:10:07.000Z</time>
      </trkpt>
      <trkpt lat="48.21373" lon="-3.13307">
        <ele>140.39999389648</ele>
        <time>2020-10-19T10:10:08.000Z</time>
      </trkpt>
      <trkpt lat="48.21372" lon="-3.13309">
        <ele>140.60000610352</ele>
        <time>2020-10-19T10:10:09.000Z</time>
      </trkpt>
      <trkpt lat="48.21372" lon="-3.1331">
        <ele>140.60000610352</ele>
        <time>2020-10-19T10:10:10.000Z</time>
      </trkpt>
      <trkpt lat="48.21372" lon="-3.13312">
        <ele>140.60000610352</ele>
        <time>2020-10-19T10:10:11.000Z</time>
      </trkpt>
      <trkpt lat="48.21372" lon="-3.13314">
        <ele>140.80000305176</ele>
        <time>2020-10-19T10:10:12.000Z</time>
      </trkpt>
      <trkpt lat="48.21372" lon="-3.13316">
        <ele>140.80000305176</ele>
        <time>2020-10-19T10:10:13.000Z</time>
      </trkpt>
      <trkpt lat="48.21372" lon="-3.13319">
        <ele>140.80000305176</ele>
        <time>2020-10-19T10:10:14.000Z</time>
      </trkpt>
      <trkpt lat="48.21372" lon="-3.13319">
        <ele>140.80000305176</ele>
        <time>2020-10-19T10:10:15.000Z</time>
      </trkpt>
      <trkpt lat="48.21372" lon="-3.13321">
        <ele>141</ele>
        <time>2020-10-19T10:10:16.000Z</time>
      </trkpt>
      <trkpt lat="48.21372" lon="-3.13322">
        <ele>140.80000305176</ele>
        <time>2020-10-19T10:10:17.000Z</time>
      </trkpt>
      <trkpt lat="48.21372" lon="-3.13324">
        <ele>140.80000305176</ele>
        <time>2020-10-19T10:10:18.000Z</time>
      </trkpt>
      <trkpt lat="48.21372" lon="-3.13326">
        <ele>141</ele>
        <time>2020-10-19T10:10:19.000Z</time>
      </trkpt>
      <trkpt lat="48.21372" lon="-3.13328">
        <ele>141</ele>
        <time>2020-10-19T10:10:20.000Z</time>
      </trkpt>
      <trkpt lat="48.21372" lon="-3.1333">
        <ele>141</ele>
        <time>2020-10-19T10:10:21.000Z</time>
      </trkpt>
      <trkpt lat="48.21372" lon="-3.13332">
        <ele>141</ele>
        <time>2020-10-19T10:10:22.000Z</time>
      </trkpt>
      <trkpt lat="48.21372" lon="-3.13333">
        <ele>141</ele>
        <time>2020-10-19T10:10:23.000Z</time>
      </trkpt>
      <trkpt lat="48.21372" lon="-3.13335">
        <ele>140.80000305176</ele>
        <time>2020-10-19T10:10:24.000Z</time>
      </trkpt>
      <trkpt lat="48.21372" lon="-3.13337">
        <ele>140.80000305176</ele>
        <time>2020-10-19T10:10:25.000Z</time>
      </trkpt>
      <trkpt lat="48.21372" lon="-3.13338">
        <ele>141</ele>
        <time>2020-10-19T10:10:26.000Z</time>
      </trkpt>
      <trkpt lat="48.21372" lon="-3.1334">
        <ele>140.80000305176</ele>
        <time>2020-10-19T10:10:27.000Z</time>
      </trkpt>
      <trkpt lat="48.21372" lon="-3.13341">
        <ele>140.80000305176</ele>
        <time>2020-10-19T10:10:28.000Z</time>
      </trkpt>
      <trkpt lat="48.21373" lon="-3.13343">
        <ele>140.80000305176</ele>
        <time>2020-10-19T10:10:29.000Z</time>
      </trkpt>
      <trkpt lat="48.21373" lon="-3.13344">
        <ele>140.80000305176</ele>
        <time>2020-10-19T10:10:30.000Z</time>
      </trkpt>
      <trkpt lat="48.21373" lon="-3.13346">
        <ele>140.60000610352</ele>
        <time>2020-10-19T10:10:31.000Z</time>
      </trkpt>
      <trkpt lat="48.21373" lon="-3.13348">
        <ele>140.60000610352</ele>
        <time>2020-10-19T10:10:32.000Z</time>
      </trkpt>
      <trkpt lat="48.21373" lon="-3.1335">
        <ele>140.60000610352</ele>
        <time>2020-10-19T10:10:33.000Z</time>
      </trkpt>
      <trkpt lat="48.21374" lon="-3.13352">
        <ele>140.60000610352</ele>
        <time>2020-10-19T10:10:34.000Z</time>
      </trkpt>
      <trkpt lat="48.21374" lon="-3.13354">
        <ele>140.39999389648</ele>
        <time>2020-10-19T10:10:35.000Z</time>
      </trkpt>
      <trkpt lat="48.21374" lon="-3.13355">
        <ele>140.39999389648</ele>
        <time>2020-10-19T10:10:36.000Z</time>
      </trkpt>
      <trkpt lat="48.21375" lon="-3.13357">
        <ele>140.19999694824</ele>
        <time>2020-10-19T10:10:37.000Z</time>
      </trkpt>
      <trkpt lat="48.21375" lon="-3.13359">
        <ele>140.19999694824</ele>
        <time>2020-10-19T10:10:38.000Z</time>
      </trkpt>
      <trkpt lat="48.21375" lon="-3.13361">
        <ele>140.19999694824</ele>
        <time>2020-10-19T10:10:39.000Z</time>
      </trkpt>
      <trkpt lat="48.21375" lon="-3.13363">
        <ele>140.19999694824</ele>
        <time>2020-10-19T10:10:40.000Z</time>
      </trkpt>
      <trkpt lat="48.21375" lon="-3.13366">
        <ele>140.19999694824</ele>
        <time>2020-10-19T10:10:41.000Z</time>
      </trkpt>
      <trkpt lat="48.21375" lon="-3.13368">
        <ele>140.19999694824</ele>
        <time>2020-10-19T10:10:42.000Z</time>
      </trkpt>
      <trkpt lat="48.21375" lon="-3.1337">
        <ele>140.39999389648</ele>
        <time>2020-10-19T10:10:43.000Z</time>
      </trkpt>
      <trkpt lat="48.21374" lon="-3.13372">
        <ele>140.39999389648</ele>
        <time>2020-10-19T10:10:44.000Z</time>
      </trkpt>
      <trkpt lat="48.21374" lon="-3.13374">
        <ele>140.60000610352</ele>
        <time>2020-10-19T10:10:45.000Z</time>
      </trkpt>
      <trkpt lat="48.21373" lon="-3.13376">
        <ele>140.60000610352</ele>
        <time>2020-10-19T10:10:46.000Z</time>
      </trkpt>
      <trkpt lat="48.21373" lon="-3.13378">
        <ele>140.60000610352</ele>
        <time>2020-10-19T10:10:47.000Z</time>
      </trkpt>
      <trkpt lat="48.21373" lon="-3.13379">
        <ele>140.60000610352</ele>
        <time>2020-10-19T10:10:48.000Z</time>
      </trkpt>
      <trkpt lat="48.21373" lon="-3.13381">
        <ele>140.60000610352</ele>
        <time>2020-10-19T10:10:49.000Z</time>
      </trkpt>
      <trkpt lat="48.21373" lon="-3.13383">
        <ele>140.60000610352</ele>
        <time>2020-10-19T10:10:50.000Z</time>
      </trkpt>
      <trkpt lat="48.21374" lon="-3.13385">
        <ele>140.39999389648</ele>
        <time>2020-10-19T10:10:51.000Z</time>
      </trkpt>
      <trkpt lat="48.21374" lon="-3.13387">
        <ele>140.39999389648</ele>
        <time>2020-10-19T10:10:52.000Z</time>
      </trkpt>
      <trkpt lat="48.21374" lon="-3.13389">
        <ele>140.39999389648</ele>
        <time>2020-10-19T10:10:53.000Z</time>
      </trkpt>
      <trkpt lat="48.21374" lon="-3.1339">
        <ele>140.39999389648</ele>
        <time>2020-10-19T10:10:54.000Z</time>
      </trkpt>
      <trkpt lat="48.21373" lon="-3.13392">
        <ele>140.60000610352</ele>
        <time>2020-10-19T10:10:55.000Z</time>
      </trkpt>
      <trkpt lat="48.21374" lon="-3.13394">
        <ele>140.60000610352</ele>
        <time>2020-10-19T10:10:56.000Z</time>
      </trkpt>
      <trkpt lat="48.21374" lon="-3.13398">
        <ele>140.60000610352</ele>
        <time>2020-10-19T10:10:57.000Z</time>
      </trkpt>
      <trkpt lat="48.21374" lon="-3.13398">
        <ele>140.60000610352</ele>
        <time>2020-10-19T10:10:58.000Z</time>
      </trkpt>
      <trkpt lat="48.21374" lon="-3.13399">
        <ele>140.39999389648</ele>
        <time>2020-10-19T10:10:59.000Z</time>
      </trkpt>
      <trkpt lat="48.21374" lon="-3.13401">
        <ele>140.39999389648</ele>
        <time>2020-10-19T10:11:00.000Z</time>
      </trkpt>
      <trkpt lat="48.21374" lon="-3.13404">
        <ele>140.39999389648</ele>
        <time>2020-10-19T10:11:01.000Z</time>
      </trkpt>
      <trkpt lat="48.21375" lon="-3.13406">
        <ele>140.19999694824</ele>
        <time>2020-10-19T10:11:02.000Z</time>
      </trkpt>
      <trkpt lat="48.21375" lon="-3.13408">
        <ele>140.39999389648</ele>
        <time>2020-10-19T10:11:03.000Z</time>
      </trkpt>
      <trkpt lat="48.21375" lon="-3.1341">
        <ele>140.39999389648</ele>
        <time>2020-10-19T10:11:04.000Z</time>
      </trkpt>
      <trkpt lat="48.21375" lon="-3.13411">
        <ele>140.19999694824</ele>
        <time>2020-10-19T10:11:05.000Z</time>
      </trkpt>
      <trkpt lat="48.21375" lon="-3.13413">
        <ele>140.19999694824</ele>
        <time>2020-10-19T10:11:06.000Z</time>
      </trkpt>
      <trkpt lat="48.21376" lon="-3.13414">
        <ele>140</ele>
        <time>2020-10-19T10:11:07.000Z</time>
      </trkpt>
      <trkpt lat="48.21376" lon="-3.13416">
        <ele>140</ele>
        <time>2020-10-19T10:11:08.000Z</time>
      </trkpt>
      <trkpt lat="48.21376" lon="-3.13417">
        <ele>140</ele>
        <time>2020-10-19T10:11:09.000Z</time>
      </trkpt>
      <trkpt lat="48.21377" lon="-3.13419">
        <ele>139.80000305176</ele>
        <time>2020-10-19T10:11:10.000Z</time>
      </trkpt>
      <trkpt lat="48.21377" lon="-3.13421">
        <ele>139.80000305176</ele>
        <time>2020-10-19T10:11:11.000Z</time>
      </trkpt>
      <trkpt lat="48.21377" lon="-3.13422">
        <ele>139.60000610352</ele>
        <time>2020-10-19T10:11:12.000Z</time>
      </trkpt>
      <trkpt lat="48.21377" lon="-3.13424">
        <ele>139.60000610352</ele>
        <time>2020-10-19T10:11:13.000Z</time>
      </trkpt>
      <trkpt lat="48.21378" lon="-3.13426">
        <ele>139.60000610352</ele>
        <time>2020-10-19T10:11:14.000Z</time>
      </trkpt>
      <trkpt lat="48.21378" lon="-3.13428">
        <ele>139.39999389648</ele>
        <time>2020-10-19T10:11:15.000Z</time>
      </trkpt>
      <trkpt lat="48.21379" lon="-3.1343">
        <ele>139.39999389648</ele>
        <time>2020-10-19T10:11:16.000Z</time>
      </trkpt>
      <trkpt lat="48.21379" lon="-3.13432">
        <ele>139.19999694824</ele>
        <time>2020-10-19T10:11:17.000Z</time>
      </trkpt>
      <trkpt lat="48.2138" lon="-3.13433">
        <ele>139.19999694824</ele>
        <time>2020-10-19T10:11:18.000Z</time>
      </trkpt>
      <trkpt lat="48.2138" lon="-3.13435">
        <ele>139.19999694824</ele>
        <time>2020-10-19T10:11:19.000Z</time>
      </trkpt>
      <trkpt lat="48.21381" lon="-3.13436">
        <ele>139</ele>
        <time>2020-10-19T10:11:20.000Z</time>
      </trkpt>
      <trkpt lat="48.21382" lon="-3.13437">
        <ele>138.80000305176</ele>
        <time>2020-10-19T10:11:21.000Z</time>
      </trkpt>
      <trkpt lat="48.21382" lon="-3.13439">
        <ele>138.60000610352</ele>
        <time>2020-10-19T10:11:22.000Z</time>
      </trkpt>
      <trkpt lat="48.21383" lon="-3.13441">
        <ele>138.60000610352</ele>
        <time>2020-10-19T10:11:23.000Z</time>
      </trkpt>
      <trkpt lat="48.21383" lon="-3.13443">
        <ele>138.39999389648</ele>
        <time>2020-10-19T10:11:24.000Z</time>
      </trkpt>
      <trkpt lat="48.21384" lon="-3.13445">
        <ele>138.39999389648</ele>
        <time>2020-10-19T10:11:25.000Z</time>
      </trkpt>
      <trkpt lat="48.21385" lon="-3.13446">
        <ele>138.19999694824</ele>
        <time>2020-10-19T10:11:26.000Z</time>
      </trkpt>
      <trkpt lat="48.21385" lon="-3.13448">
        <ele>138.19999694824</ele>
        <time>2020-10-19T10:11:27.000Z</time>
      </trkpt>
      <trkpt lat="48.21385" lon="-3.1345">
        <ele>138.19999694824</ele>
        <time>2020-10-19T10:11:28.000Z</time>
      </trkpt>
      <trkpt lat="48.21385" lon="-3.13451">
        <ele>138.19999694824</ele>
        <time>2020-10-19T10:11:29.000Z</time>
      </trkpt>
      <trkpt lat="48.21385" lon="-3.13453">
        <ele>138.19999694824</ele>
        <time>2020-10-19T10:11:30.000Z</time>
      </trkpt>
      <trkpt lat="48.21386" lon="-3.13455">
        <ele>138.19999694824</ele>
        <time>2020-10-19T10:11:31.000Z</time>
      </trkpt>
      <trkpt lat="48.21386" lon="-3.13457">
        <ele>138.19999694824</ele>
        <time>2020-10-19T10:11:32.000Z</time>
      </trkpt>
      <trkpt lat="48.21386" lon="-3.13459">
        <ele>138</ele>
        <time>2020-10-19T10:11:33.000Z</time>
      </trkpt>
      <trkpt lat="48.21387" lon="-3.13461">
        <ele>138</ele>
        <time>2020-10-19T10:11:34.000Z</time>
      </trkpt>
      <trkpt lat="48.21387" lon="-3.13463">
        <ele>138</ele>
        <time>2020-10-19T10:11:35.000Z</time>
      </trkpt>
      <trkpt lat="48.21387" lon="-3.13465">
        <ele>138</ele>
        <time>2020-10-19T10:11:36.000Z</time>
      </trkpt>
      <trkpt lat="48.21387" lon="-3.13467">
        <ele>138</ele>
        <time>2020-10-19T10:11:37.000Z</time>
      </trkpt>
      <trkpt lat="48.21386" lon="-3.13469">
        <ele>138.19999694824</ele>
        <time>2020-10-19T10:11:38.000Z</time>
      </trkpt>
      <trkpt lat="48.21386" lon="-3.13471">
        <ele>138.19999694824</ele>
        <time>2020-10-19T10:11:39.000Z</time>
      </trkpt>
      <trkpt lat="48.21386" lon="-3.13473">
        <ele>138.39999389648</ele>
        <time>2020-10-19T10:11:40.000Z</time>
      </trkpt>
      <trkpt lat="48.21386" lon="-3.13475">
        <ele>138.39999389648</ele>
        <time>2020-10-19T10:11:41.000Z</time>
      </trkpt>
      <trkpt lat="48.21386" lon="-3.13476">
        <ele>138.60000610352</ele>
        <time>2020-10-19T10:11:42.000Z</time>
      </trkpt>
      <trkpt lat="48.21387" lon="-3.13478">
        <ele>138.60000610352</ele>
        <time>2020-10-19T10:11:43.000Z</time>
      </trkpt>
      <trkpt lat="48.21387" lon="-3.1348">
        <ele>138.60000610352</ele>
        <time>2020-10-19T10:11:44.000Z</time>
      </trkpt>
      <trkpt lat="48.21387" lon="-3.13482">
        <ele>138.80000305176</ele>
        <time>2020-10-19T10:11:45.000Z</time>
      </trkpt>
      <trkpt lat="48.21387" lon="-3.13484">
        <ele>138.80000305176</ele>
        <time>2020-10-19T10:11:46.000Z</time>
      </trkpt>
      <trkpt lat="48.21388" lon="-3.13486">
        <ele>138.80000305176</ele>
        <time>2020-10-19T10:11:47.000Z</time>
      </trkpt>
      <trkpt lat="48.21388" lon="-3.13487">
        <ele>139</ele>
        <time>2020-10-19T10:11:48.000Z</time>
      </trkpt>
      <trkpt lat="48.21388" lon="-3.13489">
        <ele>139</ele>
        <time>2020-10-19T10:11:49.000Z</time>
      </trkpt>
      <trkpt lat="48.21388" lon="-3.13491">
        <ele>139.19999694824</ele>
        <time>2020-10-19T10:11:50.000Z</time>
      </trkpt>
      <trkpt lat="48.21388" lon="-3.13493">
        <ele>139.19999694824</ele>
        <time>2020-10-19T10:11:51.000Z</time>
      </trkpt>
      <trkpt lat="48.21388" lon="-3.13494">
        <ele>139.19999694824</ele>
        <time>2020-10-19T10:11:52.000Z</time>
      </trkpt>
      <trkpt lat="48.21389" lon="-3.13496">
        <ele>139.19999694824</ele>
        <time>2020-10-19T10:11:53.000Z</time>
      </trkpt>
      <trkpt lat="48.21389" lon="-3.13497">
        <ele>139.39999389648</ele>
        <time>2020-10-19T10:11:54.000Z</time>
      </trkpt>
      <trkpt lat="48.21389" lon="-3.13498">
        <ele>139.39999389648</ele>
        <time>2020-10-19T10:11:55.000Z</time>
      </trkpt>
      <trkpt lat="48.21389" lon="-3.135">
        <ele>139.39999389648</ele>
        <time>2020-10-19T10:11:56.000Z</time>
      </trkpt>
      <trkpt lat="48.21389" lon="-3.13503">
        <ele>139.60000610352</ele>
        <time>2020-10-19T10:11:57.000Z</time>
      </trkpt>
      <trkpt lat="48.21389" lon="-3.13503">
        <ele>139.60000610352</ele>
        <time>2020-10-19T10:11:58.000Z</time>
      </trkpt>
      <trkpt lat="48.2139" lon="-3.13505">
        <ele>139.60000610352</ele>
        <time>2020-10-19T10:11:59.000Z</time>
      </trkpt>
      <trkpt lat="48.2139" lon="-3.13506">
        <ele>139.80000305176</ele>
        <time>2020-10-19T10:12:00.000Z</time>
      </trkpt>
      <trkpt lat="48.2139" lon="-3.13508">
        <ele>139.80000305176</ele>
        <time>2020-10-19T10:12:01.000Z</time>
      </trkpt>
      <trkpt lat="48.2139" lon="-3.13509">
        <ele>139.80000305176</ele>
        <time>2020-10-19T10:12:02.000Z</time>
      </trkpt>
      <trkpt lat="48.21391" lon="-3.13511">
        <ele>139.80000305176</ele>
        <time>2020-10-19T10:12:03.000Z</time>
      </trkpt>
      <trkpt lat="48.21391" lon="-3.13512">
        <ele>139.80000305176</ele>
        <time>2020-10-19T10:12:04.000Z</time>
      </trkpt>
      <trkpt lat="48.21391" lon="-3.13513">
        <ele>139.80000305176</ele>
        <time>2020-10-19T10:12:05.000Z</time>
      </trkpt>
      <trkpt lat="48.21391" lon="-3.13515">
        <ele>139.80000305176</ele>
        <time>2020-10-19T10:12:06.000Z</time>
      </trkpt>
      <trkpt lat="48.21392" lon="-3.13517">
        <ele>139.80000305176</ele>
        <time>2020-10-19T10:12:07.000Z</time>
      </trkpt>
      <trkpt lat="48.21392" lon="-3.13519">
        <ele>139.80000305176</ele>
        <time>2020-10-19T10:12:08.000Z</time>
      </trkpt>
      <trkpt lat="48.21392" lon="-3.1352">
        <ele>139.80000305176</ele>
        <time>2020-10-19T10:12:09.000Z</time>
      </trkpt>
      <trkpt lat="48.21392" lon="-3.13522">
        <ele>139.80000305176</ele>
        <time>2020-10-19T10:12:10.000Z</time>
      </trkpt>
      <trkpt lat="48.21392" lon="-3.13524">
        <ele>139.80000305176</ele>
        <time>2020-10-19T10:12:11.000Z</time>
      </trkpt>
      <trkpt lat="48.21391" lon="-3.13526">
        <ele>139.80000305176</ele>
        <time>2020-10-19T10:12:12.000Z</time>
      </trkpt>
      <trkpt lat="48.21391" lon="-3.13528">
        <ele>140</ele>
        <time>2020-10-19T10:12:13.000Z</time>
      </trkpt>
      <trkpt lat="48.21391" lon="-3.1353">
        <ele>140</ele>
        <time>2020-10-19T10:12:14.000Z</time>
      </trkpt>
      <trkpt lat="48.21391" lon="-3.13532">
        <ele>140</ele>
        <time>2020-10-19T10:12:15.000Z</time>
      </trkpt>
      <trkpt lat="48.21391" lon="-3.13534">
        <ele>140</ele>
        <time>2020-10-19T10:12:16.000Z</time>
      </trkpt>
      <trkpt lat="48.21391" lon="-3.13536">
        <ele>140</ele>
        <time>2020-10-19T10:12:17.000Z</time>
      </trkpt>
      <trkpt lat="48.21392" lon="-3.13539">
        <ele>140</ele>
        <time>2020-10-19T10:12:18.000Z</time>
      </trkpt>
      <trkpt lat="48.21392" lon="-3.13541">
        <ele>140</ele>
        <time>2020-10-19T10:12:19.000Z</time>
      </trkpt>
      <trkpt lat="48.21392" lon="-3.13543">
        <ele>140</ele>
        <time>2020-10-19T10:12:20.000Z</time>
      </trkpt>
      <trkpt lat="48.21392" lon="-3.13545">
        <ele>140</ele>
        <time>2020-10-19T10:12:21.000Z</time>
      </trkpt>
      <trkpt lat="48.21392" lon="-3.13547">
        <ele>140</ele>
        <time>2020-10-19T10:12:22.000Z</time>
      </trkpt>
      <trkpt lat="48.21392" lon="-3.13549">
        <ele>139.80000305176</ele>
        <time>2020-10-19T10:12:23.000Z</time>
      </trkpt>
      <trkpt lat="48.21393" lon="-3.13551">
        <ele>139.60000610352</ele>
        <time>2020-10-19T10:12:24.000Z</time>
      </trkpt>
      <trkpt lat="48.21394" lon="-3.13553">
        <ele>139.39999389648</ele>
        <time>2020-10-19T10:12:25.000Z</time>
      </trkpt>
      <trkpt lat="48.21394" lon="-3.13554">
        <ele>139.39999389648</ele>
        <time>2020-10-19T10:12:26.000Z</time>
      </trkpt>
      <trkpt lat="48.21395" lon="-3.13555">
        <ele>139.19999694824</ele>
        <time>2020-10-19T10:12:27.000Z</time>
      </trkpt>
      <trkpt lat="48.21396" lon="-3.13557">
        <ele>139</ele>
        <time>2020-10-19T10:12:28.000Z</time>
      </trkpt>
      <trkpt lat="48.21396" lon="-3.13559">
        <ele>139</ele>
        <time>2020-10-19T10:12:29.000Z</time>
      </trkpt>
      <trkpt lat="48.21396" lon="-3.13561">
        <ele>139</ele>
        <time>2020-10-19T10:12:30.000Z</time>
      </trkpt>
      <trkpt lat="48.21396" lon="-3.13563">
        <ele>138.80000305176</ele>
        <time>2020-10-19T10:12:31.000Z</time>
      </trkpt>
      <trkpt lat="48.21396" lon="-3.13564">
        <ele>138.60000610352</ele>
        <time>2020-10-19T10:12:32.000Z</time>
      </trkpt>
      <trkpt lat="48.21397" lon="-3.13566">
        <ele>138.60000610352</ele>
        <time>2020-10-19T10:12:33.000Z</time>
      </trkpt>
      <trkpt lat="48.21397" lon="-3.13568">
        <ele>138.39999389648</ele>
        <time>2020-10-19T10:12:34.000Z</time>
      </trkpt>
      <trkpt lat="48.21397" lon="-3.1357">
        <ele>138.39999389648</ele>
        <time>2020-10-19T10:12:35.000Z</time>
      </trkpt>
      <trkpt lat="48.21397" lon="-3.13572">
        <ele>138.19999694824</ele>
        <time>2020-10-19T10:12:36.000Z</time>
      </trkpt>
      <trkpt lat="48.21397" lon="-3.13574">
        <ele>138.19999694824</ele>
        <time>2020-10-19T10:12:37.000Z</time>
      </trkpt>
      <trkpt lat="48.21398" lon="-3.13576">
        <ele>138</ele>
        <time>2020-10-19T10:12:38.000Z</time>
      </trkpt>
      <trkpt lat="48.21399" lon="-3.13578">
        <ele>137.80000305176</ele>
        <time>2020-10-19T10:12:39.000Z</time>
      </trkpt>
      <trkpt lat="48.21399" lon="-3.1358">
        <ele>137.80000305176</ele>
        <time>2020-10-19T10:12:40.000Z</time>
      </trkpt>
      <trkpt lat="48.21399" lon="-3.13581">
        <ele>137.80000305176</ele>
        <time>2020-10-19T10:12:41.000Z</time>
      </trkpt>
      <trkpt lat="48.214" lon="-3.13583">
        <ele>137.60000610352</ele>
        <time>2020-10-19T10:12:42.000Z</time>
      </trkpt>
      <trkpt lat="48.214" lon="-3.13584">
        <ele>137.39999389648</ele>
        <time>2020-10-19T10:12:43.000Z</time>
      </trkpt>
      <trkpt lat="48.21399" lon="-3.1359">
        <ele>137.39999389648</ele>
        <time>2020-10-19T10:12:44.000Z</time>
      </trkpt>
      <trkpt lat="48.21399" lon="-3.1359">
        <ele>137.39999389648</ele>
        <time>2020-10-19T10:12:45.000Z</time>
      </trkpt>
      <trkpt lat="48.21399" lon="-3.13592">
        <ele>137.39999389648</ele>
        <time>2020-10-19T10:12:46.000Z</time>
      </trkpt>
      <trkpt lat="48.21399" lon="-3.13594">
        <ele>137.39999389648</ele>
        <time>2020-10-19T10:12:47.000Z</time>
      </trkpt>
      <trkpt lat="48.21399" lon="-3.13595">
        <ele>137.39999389648</ele>
        <time>2020-10-19T10:12:48.000Z</time>
      </trkpt>
      <trkpt lat="48.21399" lon="-3.13595">
        <ele>137.39999389648</ele>
        <time>2020-10-19T10:12:49.000Z</time>
      </trkpt>
      <trkpt lat="48.21399" lon="-3.13595">
        <ele>137.39999389648</ele>
        <time>2020-10-19T10:12:50.000Z</time>
      </trkpt>
      <trkpt lat="48.21399" lon="-3.13595">
        <ele>137.39999389648</ele>
        <time>2020-10-19T10:12:51.000Z</time>
      </trkpt>
      <trkpt lat="48.21399" lon="-3.13595">
        <ele>137.39999389648</ele>
        <time>2020-10-19T10:12:52.000Z</time>
      </trkpt>
      <trkpt lat="48.21398" lon="-3.13596">
        <ele>137.60000610352</ele>
        <time>2020-10-19T10:12:53.000Z</time>
      </trkpt>
      <trkpt lat="48.21398" lon="-3.13596">
        <ele>137.60000610352</ele>
        <time>2020-10-19T10:12:54.000Z</time>
      </trkpt>
      <trkpt lat="48.21398" lon="-3.13596">
        <ele>137.60000610352</ele>
        <time>2020-10-19T10:12:55.000Z</time>
      </trkpt>
      <trkpt lat="48.21398" lon="-3.13597">
        <ele>137.60000610352</ele>
        <time>2020-10-19T10:12:56.000Z</time>
      </trkpt>
      <trkpt lat="48.21397" lon="-3.13597">
        <ele>137.60000610352</ele>
        <time>2020-10-19T10:12:57.000Z</time>
      </trkpt>
      <trkpt lat="48.21397" lon="-3.13598">
        <ele>137.60000610352</ele>
        <time>2020-10-19T10:12:58.000Z</time>
      </trkpt>
      <trkpt lat="48.21397" lon="-3.13598">
        <ele>137.80000305176</ele>
        <time>2020-10-19T10:12:59.000Z</time>
      </trkpt>
      <trkpt lat="48.21397" lon="-3.13599">
        <ele>137.80000305176</ele>
        <time>2020-10-19T10:13:00.000Z</time>
      </trkpt>
      <trkpt lat="48.21397" lon="-3.13599">
        <ele>137.80000305176</ele>
        <time>2020-10-19T10:13:01.000Z</time>
      </trkpt>
      <trkpt lat="48.21396" lon="-3.136">
        <ele>138</ele>
        <time>2020-10-19T10:13:02.000Z</time>
      </trkpt>
      <trkpt lat="48.21396" lon="-3.13601">
        <ele>138</ele>
        <time>2020-10-19T10:13:03.000Z</time>
      </trkpt>
      <trkpt lat="48.21397" lon="-3.13601">
        <ele>137.60000610352</ele>
        <time>2020-10-19T10:13:04.000Z</time>
      </trkpt>
      <trkpt lat="48.21397" lon="-3.13601">
        <ele>137.60000610352</ele>
        <time>2020-10-19T10:13:05.000Z</time>
      </trkpt>
      <trkpt lat="48.21399" lon="-3.13601">
        <ele>137.39999389648</ele>
        <time>2020-10-19T10:13:06.000Z</time>
      </trkpt>
      <trkpt lat="48.214" lon="-3.13601">
        <ele>137.19999694824</ele>
        <time>2020-10-19T10:13:07.000Z</time>
      </trkpt>
      <trkpt lat="48.21401" lon="-3.13601">
        <ele>136.80000305176</ele>
        <time>2020-10-19T10:13:08.000Z</time>
      </trkpt>
      <trkpt lat="48.21402" lon="-3.13601">
        <ele>136.60000610352</ele>
        <time>2020-10-19T10:13:09.000Z</time>
      </trkpt>
      <trkpt lat="48.21403" lon="-3.13601">
        <ele>136.39999389648</ele>
        <time>2020-10-19T10:13:10.000Z</time>
      </trkpt>
      <trkpt lat="48.21404" lon="-3.13601">
        <ele>136.39999389648</ele>
        <time>2020-10-19T10:13:11.000Z</time>
      </trkpt>
      <trkpt lat="48.21404" lon="-3.13601">
        <ele>136.19999694824</ele>
        <time>2020-10-19T10:13:12.000Z</time>
      </trkpt>
      <trkpt lat="48.21405" lon="-3.13601">
        <ele>136</ele>
        <time>2020-10-19T10:13:13.000Z</time>
      </trkpt>
      <trkpt lat="48.21405" lon="-3.13601">
        <ele>136.19999694824</ele>
        <time>2020-10-19T10:13:14.000Z</time>
      </trkpt>
      <trkpt lat="48.21405" lon="-3.13601">
        <ele>136</ele>
        <time>2020-10-19T10:13:15.000Z</time>
      </trkpt>
      <trkpt lat="48.21406" lon="-3.13601">
        <ele>135.80000305176</ele>
        <time>2020-10-19T10:13:16.000Z</time>
      </trkpt>
      <trkpt lat="48.21405" lon="-3.13601">
        <ele>136</ele>
        <time>2020-10-19T10:13:17.000Z</time>
      </trkpt>
      <trkpt lat="48.21405" lon="-3.13601">
        <ele>136</ele>
        <time>2020-10-19T10:13:18.000Z</time>
      </trkpt>
      <trkpt lat="48.21405" lon="-3.13601">
        <ele>136</ele>
        <time>2020-10-19T10:13:19.000Z</time>
      </trkpt>
      <trkpt lat="48.21405" lon="-3.13601">
        <ele>136</ele>
        <time>2020-10-19T10:13:20.000Z</time>
      </trkpt>
      <trkpt lat="48.21405" lon="-3.13601">
        <ele>136</ele>
        <time>2020-10-19T10:13:21.000Z</time>
      </trkpt>
      <trkpt lat="48.21404" lon="-3.13602">
        <ele>136.19999694824</ele>
        <time>2020-10-19T10:13:22.000Z</time>
      </trkpt>
      <trkpt lat="48.21404" lon="-3.13602">
        <ele>136.19999694824</ele>
        <time>2020-10-19T10:13:23.000Z</time>
      </trkpt>
      <trkpt lat="48.21404" lon="-3.13602">
        <ele>136.19999694824</ele>
        <time>2020-10-19T10:13:24.000Z</time>
      </trkpt>
      <trkpt lat="48.21404" lon="-3.13603">
        <ele>136.19999694824</ele>
        <time>2020-10-19T10:13:25.000Z</time>
      </trkpt>
      <trkpt lat="48.21404" lon="-3.13603">
        <ele>136.19999694824</ele>
        <time>2020-10-19T10:13:26.000Z</time>
      </trkpt>
      <trkpt lat="48.21405" lon="-3.13603">
        <ele>136</ele>
        <time>2020-10-19T10:13:27.000Z</time>
      </trkpt>
      <trkpt lat="48.21406" lon="-3.13603">
        <ele>135.80000305176</ele>
        <time>2020-10-19T10:13:28.000Z</time>
      </trkpt>
      <trkpt lat="48.21406" lon="-3.13603">
        <ele>135.80000305176</ele>
        <time>2020-10-19T10:13:29.000Z</time>
      </trkpt>
      <trkpt lat="48.21406" lon="-3.13603">
        <ele>135.80000305176</ele>
        <time>2020-10-19T10:13:30.000Z</time>
      </trkpt>
      <trkpt lat="48.21406" lon="-3.13603">
        <ele>135.80000305176</ele>
        <time>2020-10-19T10:13:31.000Z</time>
      </trkpt>
      <trkpt lat="48.21405" lon="-3.13603">
        <ele>136</ele>
        <time>2020-10-19T10:13:32.000Z</time>
      </trkpt>
      <trkpt lat="48.21405" lon="-3.13604">
        <ele>136</ele>
        <time>2020-10-19T10:13:33.000Z</time>
      </trkpt>
      <trkpt lat="48.21406" lon="-3.13604">
        <ele>135.80000305176</ele>
        <time>2020-10-19T10:13:34.000Z</time>
      </trkpt>
      <trkpt lat="48.21406" lon="-3.13604">
        <ele>135.80000305176</ele>
        <time>2020-10-19T10:13:35.000Z</time>
      </trkpt>
      <trkpt lat="48.21406" lon="-3.13604">
        <ele>135.60000610352</ele>
        <time>2020-10-19T10:13:36.000Z</time>
      </trkpt>
      <trkpt lat="48.21407" lon="-3.13603">
        <ele>135.60000610352</ele>
        <time>2020-10-19T10:13:37.000Z</time>
      </trkpt>
      <trkpt lat="48.21407" lon="-3.13603">
        <ele>135.60000610352</ele>
        <time>2020-10-19T10:13:38.000Z</time>
      </trkpt>
      <trkpt lat="48.21407" lon="-3.13603">
        <ele>135.60000610352</ele>
        <time>2020-10-19T10:13:39.000Z</time>
      </trkpt>
      <trkpt lat="48.21406" lon="-3.13603">
        <ele>135.80000305176</ele>
        <time>2020-10-19T10:13:40.000Z</time>
      </trkpt>
      <trkpt lat="48.21405" lon="-3.13603">
        <ele>135.80000305176</ele>
        <time>2020-10-19T10:13:41.000Z</time>
      </trkpt>
      <trkpt lat="48.21406" lon="-3.13604">
        <ele>135.80000305176</ele>
        <time>2020-10-19T10:13:42.000Z</time>
      </trkpt>
      <trkpt lat="48.21405" lon="-3.13605">
        <ele>136</ele>
        <time>2020-10-19T10:13:43.000Z</time>
      </trkpt>
      <trkpt lat="48.21405" lon="-3.13607">
        <ele>135.80000305176</ele>
        <time>2020-10-19T10:13:44.000Z</time>
      </trkpt>
      <trkpt lat="48.21405" lon="-3.13609">
        <ele>136</ele>
        <time>2020-10-19T10:13:45.000Z</time>
      </trkpt>
      <trkpt lat="48.21405" lon="-3.13611">
        <ele>136</ele>
        <time>2020-10-19T10:13:46.000Z</time>
      </trkpt>
      <trkpt lat="48.21405" lon="-3.13613">
        <ele>136</ele>
        <time>2020-10-19T10:13:47.000Z</time>
      </trkpt>
      <trkpt lat="48.21405" lon="-3.13615">
        <ele>136</ele>
        <time>2020-10-19T10:13:48.000Z</time>
      </trkpt>
      <trkpt lat="48.21405" lon="-3.13617">
        <ele>136</ele>
        <time>2020-10-19T10:13:49.000Z</time>
      </trkpt>
      <trkpt lat="48.21404" lon="-3.13618">
        <ele>136</ele>
        <time>2020-10-19T10:13:50.000Z</time>
      </trkpt>
      <trkpt lat="48.21404" lon="-3.13622">
        <ele>136</ele>
        <time>2020-10-19T10:13:51.000Z</time>
      </trkpt>
      <trkpt lat="48.21404" lon="-3.13622">
        <ele>136</ele>
        <time>2020-10-19T10:13:52.000Z</time>
      </trkpt>
      <trkpt lat="48.21404" lon="-3.13623">
        <ele>136</ele>
        <time>2020-10-19T10:13:53.000Z</time>
      </trkpt>
      <trkpt lat="48.21403" lon="-3.13625">
        <ele>136</ele>
        <time>2020-10-19T10:13:54.000Z</time>
      </trkpt>
      <trkpt lat="48.21403" lon="-3.13627">
        <ele>136.19999694824</ele>
        <time>2020-10-19T10:13:55.000Z</time>
      </trkpt>
      <trkpt lat="48.21403" lon="-3.13628">
        <ele>136.19999694824</ele>
        <time>2020-10-19T10:13:56.000Z</time>
      </trkpt>
      <trkpt lat="48.21402" lon="-3.1363">
        <ele>136.19999694824</ele>
        <time>2020-10-19T10:13:57.000Z</time>
      </trkpt>
      <trkpt lat="48.21402" lon="-3.13632">
        <ele>136.19999694824</ele>
        <time>2020-10-19T10:13:58.000Z</time>
      </trkpt>
      <trkpt lat="48.21402" lon="-3.13633">
        <ele>136.19999694824</ele>
        <time>2020-10-19T10:13:59.000Z</time>
      </trkpt>
      <trkpt lat="48.21402" lon="-3.13635">
        <ele>136.19999694824</ele>
        <time>2020-10-19T10:14:00.000Z</time>
      </trkpt>
      <trkpt lat="48.21402" lon="-3.13637">
        <ele>136.19999694824</ele>
        <time>2020-10-19T10:14:01.000Z</time>
      </trkpt>
      <trkpt lat="48.21402" lon="-3.1364">
        <ele>136.19999694824</ele>
        <time>2020-10-19T10:14:02.000Z</time>
      </trkpt>
      <trkpt lat="48.21402" lon="-3.1364">
        <ele>136.19999694824</ele>
        <time>2020-10-19T10:14:03.000Z</time>
      </trkpt>
      <trkpt lat="48.21402" lon="-3.13642">
        <ele>136.19999694824</ele>
        <time>2020-10-19T10:14:04.000Z</time>
      </trkpt>
      <trkpt lat="48.21401" lon="-3.13644">
        <ele>136.19999694824</ele>
        <time>2020-10-19T10:14:05.000Z</time>
      </trkpt>
      <trkpt lat="48.21401" lon="-3.13645">
        <ele>136.39999389648</ele>
        <time>2020-10-19T10:14:06.000Z</time>
      </trkpt>
      <trkpt lat="48.21401" lon="-3.13647">
        <ele>136.39999389648</ele>
        <time>2020-10-19T10:14:07.000Z</time>
      </trkpt>
      <trkpt lat="48.21401" lon="-3.13649">
        <ele>136.19999694824</ele>
        <time>2020-10-19T10:14:08.000Z</time>
      </trkpt>
      <trkpt lat="48.21401" lon="-3.13651">
        <ele>136.19999694824</ele>
        <time>2020-10-19T10:14:09.000Z</time>
      </trkpt>
      <trkpt lat="48.21401" lon="-3.13652">
        <ele>136.19999694824</ele>
        <time>2020-10-19T10:14:10.000Z</time>
      </trkpt>
      <trkpt lat="48.21401" lon="-3.13654">
        <ele>136.19999694824</ele>
        <time>2020-10-19T10:14:11.000Z</time>
      </trkpt>
      <trkpt lat="48.21402" lon="-3.13656">
        <ele>136</ele>
        <time>2020-10-19T10:14:12.000Z</time>
      </trkpt>
      <trkpt lat="48.21402" lon="-3.13657">
        <ele>136</ele>
        <time>2020-10-19T10:14:13.000Z</time>
      </trkpt>
      <trkpt lat="48.21402" lon="-3.13659">
        <ele>136</ele>
        <time>2020-10-19T10:14:14.000Z</time>
      </trkpt>
      <trkpt lat="48.21402" lon="-3.1366">
        <ele>136</ele>
        <time>2020-10-19T10:14:15.000Z</time>
      </trkpt>
      <trkpt lat="48.21402" lon="-3.13662">
        <ele>135.80000305176</ele>
        <time>2020-10-19T10:14:16.000Z</time>
      </trkpt>
      <trkpt lat="48.21403" lon="-3.13664">
        <ele>135.80000305176</ele>
        <time>2020-10-19T10:14:17.000Z</time>
      </trkpt>
      <trkpt lat="48.21403" lon="-3.13665">
        <ele>135.60000610352</ele>
        <time>2020-10-19T10:14:18.000Z</time>
      </trkpt>
      <trkpt lat="48.21403" lon="-3.13667">
        <ele>135.60000610352</ele>
        <time>2020-10-19T10:14:19.000Z</time>
      </trkpt>
      <trkpt lat="48.21404" lon="-3.13668">
        <ele>135.39999389648</ele>
        <time>2020-10-19T10:14:20.000Z</time>
      </trkpt>
      <trkpt lat="48.21404" lon="-3.1367">
        <ele>135.39999389648</ele>
        <time>2020-10-19T10:14:21.000Z</time>
      </trkpt>
      <trkpt lat="48.21405" lon="-3.13673">
        <ele>135.19999694824</ele>
        <time>2020-10-19T10:14:22.000Z</time>
      </trkpt>
      <trkpt lat="48.21405" lon="-3.13673">
        <ele>135.19999694824</ele>
        <time>2020-10-19T10:14:23.000Z</time>
      </trkpt>
      <trkpt lat="48.21405" lon="-3.13675">
        <ele>135.19999694824</ele>
        <time>2020-10-19T10:14:24.000Z</time>
      </trkpt>
      <trkpt lat="48.21405" lon="-3.13677">
        <ele>135</ele>
        <time>2020-10-19T10:14:25.000Z</time>
      </trkpt>
      <trkpt lat="48.21406" lon="-3.13679">
        <ele>134.80000305176</ele>
        <time>2020-10-19T10:14:26.000Z</time>
      </trkpt>
      <trkpt lat="48.21406" lon="-3.13681">
        <ele>134.80000305176</ele>
        <time>2020-10-19T10:14:27.000Z</time>
      </trkpt>
      <trkpt lat="48.21407" lon="-3.13683">
        <ele>134.60000610352</ele>
        <time>2020-10-19T10:14:28.000Z</time>
      </trkpt>
      <trkpt lat="48.21407" lon="-3.13684">
        <ele>134.39999389648</ele>
        <time>2020-10-19T10:14:29.000Z</time>
      </trkpt>
      <trkpt lat="48.21407" lon="-3.13686">
        <ele>134.19999694824</ele>
        <time>2020-10-19T10:14:30.000Z</time>
      </trkpt>
      <trkpt lat="48.21408" lon="-3.13687">
        <ele>134.19999694824</ele>
        <time>2020-10-19T10:14:31.000Z</time>
      </trkpt>
      <trkpt lat="48.21408" lon="-3.13689">
        <ele>134</ele>
        <time>2020-10-19T10:14:32.000Z</time>
      </trkpt>
      <trkpt lat="48.21409" lon="-3.13691">
        <ele>133.80000305176</ele>
        <time>2020-10-19T10:14:33.000Z</time>
      </trkpt>
      <trkpt lat="48.21409" lon="-3.13693">
        <ele>133.80000305176</ele>
        <time>2020-10-19T10:14:34.000Z</time>
      </trkpt>
      <trkpt lat="48.21409" lon="-3.13695">
        <ele>133.60000610352</ele>
        <time>2020-10-19T10:14:35.000Z</time>
      </trkpt>
      <trkpt lat="48.21409" lon="-3.13696">
        <ele>133.39999389648</ele>
        <time>2020-10-19T10:14:36.000Z</time>
      </trkpt>
      <trkpt lat="48.2141" lon="-3.13698">
        <ele>133.39999389648</ele>
        <time>2020-10-19T10:14:37.000Z</time>
      </trkpt>
      <trkpt lat="48.2141" lon="-3.13699">
        <ele>133.39999389648</ele>
        <time>2020-10-19T10:14:38.000Z</time>
      </trkpt>
      <trkpt lat="48.21411" lon="-3.137">
        <ele>133.19999694824</ele>
        <time>2020-10-19T10:14:39.000Z</time>
      </trkpt>
      <trkpt lat="48.21411" lon="-3.13702">
        <ele>133.19999694824</ele>
        <time>2020-10-19T10:14:40.000Z</time>
      </trkpt>
      <trkpt lat="48.21412" lon="-3.13704">
        <ele>133</ele>
        <time>2020-10-19T10:14:41.000Z</time>
      </trkpt>
      <trkpt lat="48.21412" lon="-3.13705">
        <ele>133</ele>
        <time>2020-10-19T10:14:42.000Z</time>
      </trkpt>
      <trkpt lat="48.21413" lon="-3.13707">
        <ele>132.80000305176</ele>
        <time>2020-10-19T10:14:43.000Z</time>
      </trkpt>
      <trkpt lat="48.21413" lon="-3.13708">
        <ele>132.80000305176</ele>
        <time>2020-10-19T10:14:44.000Z</time>
      </trkpt>
      <trkpt lat="48.21413" lon="-3.1371">
        <ele>132.80000305176</ele>
        <time>2020-10-19T10:14:45.000Z</time>
      </trkpt>
      <trkpt lat="48.21414" lon="-3.13711">
        <ele>132.60000610352</ele>
        <time>2020-10-19T10:14:46.000Z</time>
      </trkpt>
      <trkpt lat="48.21414" lon="-3.13713">
        <ele>132.60000610352</ele>
        <time>2020-10-19T10:14:47.000Z</time>
      </trkpt>
      <trkpt lat="48.21415" lon="-3.13714">
        <ele>132.60000610352</ele>
        <time>2020-10-19T10:14:48.000Z</time>
      </trkpt>
      <trkpt lat="48.21415" lon="-3.13716">
        <ele>132.39999389648</ele>
        <time>2020-10-19T10:14:49.000Z</time>
      </trkpt>
      <trkpt lat="48.21416" lon="-3.13717">
        <ele>132.39999389648</ele>
        <time>2020-10-19T10:14:50.000Z</time>
      </trkpt>
      <trkpt lat="48.21416" lon="-3.13719">
        <ele>132.19999694824</ele>
        <time>2020-10-19T10:14:51.000Z</time>
      </trkpt>
      <trkpt lat="48.21416" lon="-3.13721">
        <ele>132.19999694824</ele>
        <time>2020-10-19T10:14:52.000Z</time>
      </trkpt>
      <trkpt lat="48.21417" lon="-3.13722">
        <ele>132</ele>
        <time>2020-10-19T10:14:53.000Z</time>
      </trkpt>
      <trkpt lat="48.21418" lon="-3.13724">
        <ele>132</ele>
        <time>2020-10-19T10:14:54.000Z</time>
      </trkpt>
      <trkpt lat="48.21418" lon="-3.13725">
        <ele>131.80000305176</ele>
        <time>2020-10-19T10:14:55.000Z</time>
      </trkpt>
      <trkpt lat="48.21419" lon="-3.13727">
        <ele>131.80000305176</ele>
        <time>2020-10-19T10:14:56.000Z</time>
      </trkpt>
      <trkpt lat="48.21419" lon="-3.13728">
        <ele>131.80000305176</ele>
        <time>2020-10-19T10:14:57.000Z</time>
      </trkpt>
      <trkpt lat="48.21419" lon="-3.1373">
        <ele>131.60000610352</ele>
        <time>2020-10-19T10:14:58.000Z</time>
      </trkpt>
      <trkpt lat="48.2142" lon="-3.13732">
        <ele>131.60000610352</ele>
        <time>2020-10-19T10:14:59.000Z</time>
      </trkpt>
      <trkpt lat="48.2142" lon="-3.13734">
        <ele>131.39999389648</ele>
        <time>2020-10-19T10:15:00.000Z</time>
      </trkpt>
      <trkpt lat="48.21421" lon="-3.13736">
        <ele>131.39999389648</ele>
        <time>2020-10-19T10:15:01.000Z</time>
      </trkpt>
      <trkpt lat="48.21421" lon="-3.13737">
        <ele>131.19999694824</ele>
        <time>2020-10-19T10:15:02.000Z</time>
      </trkpt>
      <trkpt lat="48.21422" lon="-3.13739">
        <ele>131.19999694824</ele>
        <time>2020-10-19T10:15:03.000Z</time>
      </trkpt>
      <trkpt lat="48.21422" lon="-3.13741">
        <ele>131.19999694824</ele>
        <time>2020-10-19T10:15:04.000Z</time>
      </trkpt>
      <trkpt lat="48.21423" lon="-3.13742">
        <ele>131</ele>
        <time>2020-10-19T10:15:05.000Z</time>
      </trkpt>
      <trkpt lat="48.21424" lon="-3.13744">
        <ele>131</ele>
        <time>2020-10-19T10:15:06.000Z</time>
      </trkpt>
      <trkpt lat="48.21424" lon="-3.13746">
        <ele>130.80000305176</ele>
        <time>2020-10-19T10:15:07.000Z</time>
      </trkpt>
      <trkpt lat="48.21424" lon="-3.13748">
        <ele>130.80000305176</ele>
        <time>2020-10-19T10:15:08.000Z</time>
      </trkpt>
      <trkpt lat="48.21425" lon="-3.1375">
        <ele>130.80000305176</ele>
        <time>2020-10-19T10:15:09.000Z</time>
      </trkpt>
      <trkpt lat="48.21425" lon="-3.13751">
        <ele>130.60000610352</ele>
        <time>2020-10-19T10:15:10.000Z</time>
      </trkpt>
      <trkpt lat="48.21425" lon="-3.13753">
        <ele>130.60000610352</ele>
        <time>2020-10-19T10:15:11.000Z</time>
      </trkpt>
      <trkpt lat="48.21426" lon="-3.13755">
        <ele>130.60000610352</ele>
        <time>2020-10-19T10:15:12.000Z</time>
      </trkpt>
      <trkpt lat="48.21426" lon="-3.13757">
        <ele>130.39999389648</ele>
        <time>2020-10-19T10:15:13.000Z</time>
      </trkpt>
      <trkpt lat="48.21426" lon="-3.13758">
        <ele>130.39999389648</ele>
        <time>2020-10-19T10:15:14.000Z</time>
      </trkpt>
      <trkpt lat="48.21427" lon="-3.1376">
        <ele>130.39999389648</ele>
        <time>2020-10-19T10:15:15.000Z</time>
      </trkpt>
      <trkpt lat="48.21427" lon="-3.13762">
        <ele>130.19999694824</ele>
        <time>2020-10-19T10:15:16.000Z</time>
      </trkpt>
      <trkpt lat="48.21427" lon="-3.13764">
        <ele>130.19999694824</ele>
        <time>2020-10-19T10:15:17.000Z</time>
      </trkpt>
      <trkpt lat="48.21428" lon="-3.13766">
        <ele>130.19999694824</ele>
        <time>2020-10-19T10:15:18.000Z</time>
      </trkpt>
      <trkpt lat="48.21428" lon="-3.13768">
        <ele>130.19999694824</ele>
        <time>2020-10-19T10:15:19.000Z</time>
      </trkpt>
      <trkpt lat="48.21428" lon="-3.13769">
        <ele>130.19999694824</ele>
        <time>2020-10-19T10:15:20.000Z</time>
      </trkpt>
      <trkpt lat="48.21429" lon="-3.13771">
        <ele>130.19999694824</ele>
        <time>2020-10-19T10:15:21.000Z</time>
      </trkpt>
      <trkpt lat="48.21429" lon="-3.13773">
        <ele>130.19999694824</ele>
        <time>2020-10-19T10:15:22.000Z</time>
      </trkpt>
      <trkpt lat="48.21429" lon="-3.13775">
        <ele>130.19999694824</ele>
        <time>2020-10-19T10:15:23.000Z</time>
      </trkpt>
      <trkpt lat="48.21429" lon="-3.13777">
        <ele>130.19999694824</ele>
        <time>2020-10-19T10:15:24.000Z</time>
      </trkpt>
      <trkpt lat="48.2143" lon="-3.13779">
        <ele>130.39999389648</ele>
        <time>2020-10-19T10:15:25.000Z</time>
      </trkpt>
      <trkpt lat="48.2143" lon="-3.1378">
        <ele>130.39999389648</ele>
        <time>2020-10-19T10:15:26.000Z</time>
      </trkpt>
      <trkpt lat="48.2143" lon="-3.13782">
        <ele>130.39999389648</ele>
        <time>2020-10-19T10:15:27.000Z</time>
      </trkpt>
      <trkpt lat="48.21431" lon="-3.13784">
        <ele>130.39999389648</ele>
        <time>2020-10-19T10:15:28.000Z</time>
      </trkpt>
      <trkpt lat="48.21431" lon="-3.13787">
        <ele>130.39999389648</ele>
        <time>2020-10-19T10:15:29.000Z</time>
      </trkpt>
      <trkpt lat="48.21431" lon="-3.13789">
        <ele>130.60000610352</ele>
        <time>2020-10-19T10:15:30.000Z</time>
      </trkpt>
      <trkpt lat="48.21431" lon="-3.13791">
        <ele>130.60000610352</ele>
        <time>2020-10-19T10:15:31.000Z</time>
      </trkpt>
      <trkpt lat="48.21431" lon="-3.13793">
        <ele>130.60000610352</ele>
        <time>2020-10-19T10:15:32.000Z</time>
      </trkpt>
      <trkpt lat="48.21432" lon="-3.13794">
        <ele>130.60000610352</ele>
        <time>2020-10-19T10:15:33.000Z</time>
      </trkpt>
      <trkpt lat="48.21432" lon="-3.13796">
        <ele>130.80000305176</ele>
        <time>2020-10-19T10:15:34.000Z</time>
      </trkpt>
      <trkpt lat="48.21433" lon="-3.13798">
        <ele>130.80000305176</ele>
        <time>2020-10-19T10:15:35.000Z</time>
      </trkpt>
      <trkpt lat="48.21433" lon="-3.13799">
        <ele>130.80000305176</ele>
        <time>2020-10-19T10:15:36.000Z</time>
      </trkpt>
      <trkpt lat="48.21433" lon="-3.13801">
        <ele>130.80000305176</ele>
        <time>2020-10-19T10:15:37.000Z</time>
      </trkpt>
      <trkpt lat="48.21433" lon="-3.13803">
        <ele>131</ele>
        <time>2020-10-19T10:15:38.000Z</time>
      </trkpt>
      <trkpt lat="48.21433" lon="-3.13805">
        <ele>131</ele>
        <time>2020-10-19T10:15:39.000Z</time>
      </trkpt>
      <trkpt lat="48.21434" lon="-3.13807">
        <ele>131</ele>
        <time>2020-10-19T10:15:40.000Z</time>
      </trkpt>
      <trkpt lat="48.21434" lon="-3.13808">
        <ele>131</ele>
        <time>2020-10-19T10:15:41.000Z</time>
      </trkpt>
      <trkpt lat="48.21434" lon="-3.1381">
        <ele>131</ele>
        <time>2020-10-19T10:15:42.000Z</time>
      </trkpt>
      <trkpt lat="48.21434" lon="-3.13811">
        <ele>131</ele>
        <time>2020-10-19T10:15:43.000Z</time>
      </trkpt>
      <trkpt lat="48.21434" lon="-3.13813">
        <ele>131.19999694824</ele>
        <time>2020-10-19T10:15:44.000Z</time>
      </trkpt>
      <trkpt lat="48.21435" lon="-3.13815">
        <ele>131.19999694824</ele>
        <time>2020-10-19T10:15:45.000Z</time>
      </trkpt>
      <trkpt lat="48.21435" lon="-3.13817">
        <ele>131.19999694824</ele>
        <time>2020-10-19T10:15:46.000Z</time>
      </trkpt>
      <trkpt lat="48.21435" lon="-3.13818">
        <ele>131.19999694824</ele>
        <time>2020-10-19T10:15:47.000Z</time>
      </trkpt>
      <trkpt lat="48.21435" lon="-3.1382">
        <ele>131.19999694824</ele>
        <time>2020-10-19T10:15:48.000Z</time>
      </trkpt>
      <trkpt lat="48.21435" lon="-3.13822">
        <ele>131.19999694824</ele>
        <time>2020-10-19T10:15:49.000Z</time>
      </trkpt>
      <trkpt lat="48.21435" lon="-3.13824">
        <ele>131.39999389648</ele>
        <time>2020-10-19T10:15:50.000Z</time>
      </trkpt>
      <trkpt lat="48.21435" lon="-3.13827">
        <ele>131.39999389648</ele>
        <time>2020-10-19T10:15:51.000Z</time>
      </trkpt>
      <trkpt lat="48.21435" lon="-3.13827">
        <ele>131.39999389648</ele>
        <time>2020-10-19T10:15:52.000Z</time>
      </trkpt>
      <trkpt lat="48.21435" lon="-3.13829">
        <ele>131.39999389648</ele>
        <time>2020-10-19T10:15:53.000Z</time>
      </trkpt>
      <trkpt lat="48.21435" lon="-3.13831">
        <ele>131.39999389648</ele>
        <time>2020-10-19T10:15:54.000Z</time>
      </trkpt>
      <trkpt lat="48.21435" lon="-3.13832">
        <ele>131.39999389648</ele>
        <time>2020-10-19T10:15:55.000Z</time>
      </trkpt>
      <trkpt lat="48.21435" lon="-3.13834">
        <ele>131.39999389648</ele>
        <time>2020-10-19T10:15:56.000Z</time>
      </trkpt>
      <trkpt lat="48.21436" lon="-3.13835">
        <ele>131.39999389648</ele>
        <time>2020-10-19T10:15:57.000Z</time>
      </trkpt>
      <trkpt lat="48.21436" lon="-3.13837">
        <ele>131.60000610352</ele>
        <time>2020-10-19T10:15:58.000Z</time>
      </trkpt>
      <trkpt lat="48.21436" lon="-3.13838">
        <ele>131.60000610352</ele>
        <time>2020-10-19T10:15:59.000Z</time>
      </trkpt>
      <trkpt lat="48.21436" lon="-3.1384">
        <ele>131.60000610352</ele>
        <time>2020-10-19T10:16:00.000Z</time>
      </trkpt>
      <trkpt lat="48.21436" lon="-3.13842">
        <ele>131.39999389648</ele>
        <time>2020-10-19T10:16:01.000Z</time>
      </trkpt>
      <trkpt lat="48.21437" lon="-3.13843">
        <ele>131.39999389648</ele>
        <time>2020-10-19T10:16:02.000Z</time>
      </trkpt>
      <trkpt lat="48.21436" lon="-3.13845">
        <ele>131.39999389648</ele>
        <time>2020-10-19T10:16:03.000Z</time>
      </trkpt>
      <trkpt lat="48.21436" lon="-3.13847">
        <ele>131.39999389648</ele>
        <time>2020-10-19T10:16:04.000Z</time>
      </trkpt>
      <trkpt lat="48.21436" lon="-3.13848">
        <ele>131.39999389648</ele>
        <time>2020-10-19T10:16:05.000Z</time>
      </trkpt>
      <trkpt lat="48.21437" lon="-3.1385">
        <ele>131.39999389648</ele>
        <time>2020-10-19T10:16:06.000Z</time>
      </trkpt>
      <trkpt lat="48.21437" lon="-3.13852">
        <ele>131.19999694824</ele>
        <time>2020-10-19T10:16:07.000Z</time>
      </trkpt>
      <trkpt lat="48.21437" lon="-3.13853">
        <ele>131.19999694824</ele>
        <time>2020-10-19T10:16:08.000Z</time>
      </trkpt>
      <trkpt lat="48.21437" lon="-3.13855">
        <ele>131.19999694824</ele>
        <time>2020-10-19T10:16:09.000Z</time>
      </trkpt>
      <trkpt lat="48.21437" lon="-3.13857">
        <ele>131.19999694824</ele>
        <time>2020-10-19T10:16:10.000Z</time>
      </trkpt>
      <trkpt lat="48.21437" lon="-3.13859">
        <ele>131.19999694824</ele>
        <time>2020-10-19T10:16:11.000Z</time>
      </trkpt>
      <trkpt lat="48.21437" lon="-3.13861">
        <ele>131.19999694824</ele>
        <time>2020-10-19T10:16:12.000Z</time>
      </trkpt>
      <trkpt lat="48.21437" lon="-3.13863">
        <ele>131</ele>
        <time>2020-10-19T10:16:13.000Z</time>
      </trkpt>
      <trkpt lat="48.21438" lon="-3.13865">
        <ele>131</ele>
        <time>2020-10-19T10:16:14.000Z</time>
      </trkpt>
      <trkpt lat="48.21438" lon="-3.13867">
        <ele>131</ele>
        <time>2020-10-19T10:16:15.000Z</time>
      </trkpt>
      <trkpt lat="48.21438" lon="-3.13869">
        <ele>131</ele>
        <time>2020-10-19T10:16:16.000Z</time>
      </trkpt>
      <trkpt lat="48.21438" lon="-3.13871">
        <ele>131</ele>
        <time>2020-10-19T10:16:17.000Z</time>
      </trkpt>
      <trkpt lat="48.21438" lon="-3.13873">
        <ele>130.80000305176</ele>
        <time>2020-10-19T10:16:18.000Z</time>
      </trkpt>
      <trkpt lat="48.21438" lon="-3.13875">
        <ele>130.80000305176</ele>
        <time>2020-10-19T10:16:19.000Z</time>
      </trkpt>
      <trkpt lat="48.21438" lon="-3.13877">
        <ele>130.80000305176</ele>
        <time>2020-10-19T10:16:20.000Z</time>
      </trkpt>
      <trkpt lat="48.21438" lon="-3.13878">
        <ele>130.80000305176</ele>
        <time>2020-10-19T10:16:21.000Z</time>
      </trkpt>
      <trkpt lat="48.21438" lon="-3.1388">
        <ele>130.60000610352</ele>
        <time>2020-10-19T10:16:22.000Z</time>
      </trkpt>
      <trkpt lat="48.21438" lon="-3.13882">
        <ele>130.60000610352</ele>
        <time>2020-10-19T10:16:23.000Z</time>
      </trkpt>
      <trkpt lat="48.21438" lon="-3.13884">
        <ele>130.60000610352</ele>
        <time>2020-10-19T10:16:24.000Z</time>
      </trkpt>
      <trkpt lat="48.21437" lon="-3.13886">
        <ele>130.60000610352</ele>
        <time>2020-10-19T10:16:25.000Z</time>
      </trkpt>
      <trkpt lat="48.21437" lon="-3.13888">
        <ele>130.39999389648</ele>
        <time>2020-10-19T10:16:26.000Z</time>
      </trkpt>
      <trkpt lat="48.21437" lon="-3.13889">
        <ele>130.39999389648</ele>
        <time>2020-10-19T10:16:27.000Z</time>
      </trkpt>
      <trkpt lat="48.21437" lon="-3.13891">
        <ele>130.39999389648</ele>
        <time>2020-10-19T10:16:28.000Z</time>
      </trkpt>
      <trkpt lat="48.21437" lon="-3.13892">
        <ele>130.39999389648</ele>
        <time>2020-10-19T10:16:29.000Z</time>
      </trkpt>
      <trkpt lat="48.21437" lon="-3.13894">
        <ele>130.39999389648</ele>
        <time>2020-10-19T10:16:30.000Z</time>
      </trkpt>
      <trkpt lat="48.21437" lon="-3.13896">
        <ele>130.19999694824</ele>
        <time>2020-10-19T10:16:31.000Z</time>
      </trkpt>
      <trkpt lat="48.21437" lon="-3.13898">
        <ele>130.19999694824</ele>
        <time>2020-10-19T10:16:32.000Z</time>
      </trkpt>
      <trkpt lat="48.21437" lon="-3.13899">
        <ele>130.19999694824</ele>
        <time>2020-10-19T10:16:33.000Z</time>
      </trkpt>
      <trkpt lat="48.21437" lon="-3.13901">
        <ele>130.19999694824</ele>
        <time>2020-10-19T10:16:34.000Z</time>
      </trkpt>
      <trkpt lat="48.21437" lon="-3.13903">
        <ele>130</ele>
        <time>2020-10-19T10:16:35.000Z</time>
      </trkpt>
      <trkpt lat="48.21437" lon="-3.13905">
        <ele>130</ele>
        <time>2020-10-19T10:16:36.000Z</time>
      </trkpt>
      <trkpt lat="48.21437" lon="-3.13906">
        <ele>130</ele>
        <time>2020-10-19T10:16:37.000Z</time>
      </trkpt>
      <trkpt lat="48.21437" lon="-3.13908">
        <ele>130</ele>
        <time>2020-10-19T10:16:38.000Z</time>
      </trkpt>
      <trkpt lat="48.21437" lon="-3.1391">
        <ele>130</ele>
        <time>2020-10-19T10:16:39.000Z</time>
      </trkpt>
      <trkpt lat="48.21437" lon="-3.13912">
        <ele>129.80000305176</ele>
        <time>2020-10-19T10:16:40.000Z</time>
      </trkpt>
      <trkpt lat="48.21437" lon="-3.13913">
        <ele>129.80000305176</ele>
        <time>2020-10-19T10:16:41.000Z</time>
      </trkpt>
      <trkpt lat="48.21437" lon="-3.13915">
        <ele>129.80000305176</ele>
        <time>2020-10-19T10:16:42.000Z</time>
      </trkpt>
      <trkpt lat="48.21437" lon="-3.13917">
        <ele>129.80000305176</ele>
        <time>2020-10-19T10:16:43.000Z</time>
      </trkpt>
      <trkpt lat="48.21437" lon="-3.13919">
        <ele>129.80000305176</ele>
        <time>2020-10-19T10:16:44.000Z</time>
      </trkpt>
      <trkpt lat="48.21437" lon="-3.1392">
        <ele>129.80000305176</ele>
        <time>2020-10-19T10:16:45.000Z</time>
      </trkpt>
      <trkpt lat="48.21437" lon="-3.13922">
        <ele>129.80000305176</ele>
        <time>2020-10-19T10:16:46.000Z</time>
      </trkpt>
      <trkpt lat="48.21437" lon="-3.13923">
        <ele>129.80000305176</ele>
        <time>2020-10-19T10:16:47.000Z</time>
      </trkpt>
      <trkpt lat="48.21437" lon="-3.13925">
        <ele>129.80000305176</ele>
        <time>2020-10-19T10:16:48.000Z</time>
      </trkpt>
      <trkpt lat="48.21438" lon="-3.13927">
        <ele>130</ele>
        <time>2020-10-19T10:16:49.000Z</time>
      </trkpt>
      <trkpt lat="48.21438" lon="-3.13928">
        <ele>130</ele>
        <time>2020-10-19T10:16:50.000Z</time>
      </trkpt>
      <trkpt lat="48.21438" lon="-3.1393">
        <ele>130</ele>
        <time>2020-10-19T10:16:51.000Z</time>
      </trkpt>
      <trkpt lat="48.21438" lon="-3.13931">
        <ele>130</ele>
        <time>2020-10-19T10:16:52.000Z</time>
      </trkpt>
      <trkpt lat="48.21438" lon="-3.13935">
        <ele>130</ele>
        <time>2020-10-19T10:16:53.000Z</time>
      </trkpt>
      <trkpt lat="48.21438" lon="-3.13935">
        <ele>130</ele>
        <time>2020-10-19T10:16:54.000Z</time>
      </trkpt>
      <trkpt lat="48.21438" lon="-3.13937">
        <ele>130</ele>
        <time>2020-10-19T10:16:55.000Z</time>
      </trkpt>
      <trkpt lat="48.21439" lon="-3.13938">
        <ele>130</ele>
        <time>2020-10-19T10:16:56.000Z</time>
      </trkpt>
      <trkpt lat="48.21438" lon="-3.1394">
        <ele>130</ele>
        <time>2020-10-19T10:16:57.000Z</time>
      </trkpt>
      <trkpt lat="48.21438" lon="-3.13942">
        <ele>130</ele>
        <time>2020-10-19T10:16:58.000Z</time>
      </trkpt>
      <trkpt lat="48.21438" lon="-3.13944">
        <ele>130</ele>
        <time>2020-10-19T10:16:59.000Z</time>
      </trkpt>
      <trkpt lat="48.21438" lon="-3.13946">
        <ele>130</ele>
        <time>2020-10-19T10:17:00.000Z</time>
      </trkpt>
      <trkpt lat="48.21438" lon="-3.13948">
        <ele>130</ele>
        <time>2020-10-19T10:17:01.000Z</time>
      </trkpt>
      <trkpt lat="48.21438" lon="-3.1395">
        <ele>130</ele>
        <time>2020-10-19T10:17:02.000Z</time>
      </trkpt>
      <trkpt lat="48.21438" lon="-3.13951">
        <ele>130</ele>
        <time>2020-10-19T10:17:03.000Z</time>
      </trkpt>
      <trkpt lat="48.21438" lon="-3.13953">
        <ele>130</ele>
        <time>2020-10-19T10:17:04.000Z</time>
      </trkpt>
      <trkpt lat="48.21438" lon="-3.13955">
        <ele>130</ele>
        <time>2020-10-19T10:17:05.000Z</time>
      </trkpt>
      <trkpt lat="48.21438" lon="-3.13957">
        <ele>130</ele>
        <time>2020-10-19T10:17:06.000Z</time>
      </trkpt>
      <trkpt lat="48.21438" lon="-3.13958">
        <ele>130</ele>
        <time>2020-10-19T10:17:07.000Z</time>
      </trkpt>
      <trkpt lat="48.21438" lon="-3.1396">
        <ele>130</ele>
        <time>2020-10-19T10:17:08.000Z</time>
      </trkpt>
      <trkpt lat="48.21438" lon="-3.13962">
        <ele>130</ele>
        <time>2020-10-19T10:17:09.000Z</time>
      </trkpt>
      <trkpt lat="48.21438" lon="-3.13964">
        <ele>130</ele>
        <time>2020-10-19T10:17:10.000Z</time>
      </trkpt>
      <trkpt lat="48.21438" lon="-3.13966">
        <ele>130</ele>
        <time>2020-10-19T10:17:11.000Z</time>
      </trkpt>
      <trkpt lat="48.21438" lon="-3.13968">
        <ele>130</ele>
        <time>2020-10-19T10:17:12.000Z</time>
      </trkpt>
      <trkpt lat="48.21439" lon="-3.13971">
        <ele>130</ele>
        <time>2020-10-19T10:17:13.000Z</time>
      </trkpt>
      <trkpt lat="48.21439" lon="-3.13971">
        <ele>130</ele>
        <time>2020-10-19T10:17:14.000Z</time>
      </trkpt>
      <trkpt lat="48.21439" lon="-3.13973">
        <ele>130</ele>
        <time>2020-10-19T10:17:15.000Z</time>
      </trkpt>
      <trkpt lat="48.21439" lon="-3.13975">
        <ele>130</ele>
        <time>2020-10-19T10:17:16.000Z</time>
      </trkpt>
      <trkpt lat="48.21438" lon="-3.13976">
        <ele>130</ele>
        <time>2020-10-19T10:17:17.000Z</time>
      </trkpt>
      <trkpt lat="48.21438" lon="-3.13978">
        <ele>130</ele>
        <time>2020-10-19T10:17:18.000Z</time>
      </trkpt>
      <trkpt lat="48.21438" lon="-3.1398">
        <ele>130</ele>
        <time>2020-10-19T10:17:19.000Z</time>
      </trkpt>
      <trkpt lat="48.21438" lon="-3.13982">
        <ele>130</ele>
        <time>2020-10-19T10:17:20.000Z</time>
      </trkpt>
      <trkpt lat="48.21438" lon="-3.13984">
        <ele>130</ele>
        <time>2020-10-19T10:17:21.000Z</time>
      </trkpt>
      <trkpt lat="48.21438" lon="-3.13985">
        <ele>130</ele>
        <time>2020-10-19T10:17:22.000Z</time>
      </trkpt>
      <trkpt lat="48.21438" lon="-3.13987">
        <ele>130</ele>
        <time>2020-10-19T10:17:23.000Z</time>
      </trkpt>
      <trkpt lat="48.21439" lon="-3.13989">
        <ele>130</ele>
        <time>2020-10-19T10:17:24.000Z</time>
      </trkpt>
      <trkpt lat="48.21439" lon="-3.13991">
        <ele>130</ele>
        <time>2020-10-19T10:17:25.000Z</time>
      </trkpt>
      <trkpt lat="48.21439" lon="-3.13993">
        <ele>130.19999694824</ele>
        <time>2020-10-19T10:17:26.000Z</time>
      </trkpt>
      <trkpt lat="48.21439" lon="-3.13994">
        <ele>130.19999694824</ele>
        <time>2020-10-19T10:17:27.000Z</time>
      </trkpt>
      <trkpt lat="48.2144" lon="-3.13996">
        <ele>130.19999694824</ele>
        <time>2020-10-19T10:17:28.000Z</time>
      </trkpt>
      <trkpt lat="48.2144" lon="-3.13997">
        <ele>130.19999694824</ele>
        <time>2020-10-19T10:17:29.000Z</time>
      </trkpt>
      <trkpt lat="48.2144" lon="-3.13999">
        <ele>130.19999694824</ele>
        <time>2020-10-19T10:17:30.000Z</time>
      </trkpt>
      <trkpt lat="48.21441" lon="-3.14001">
        <ele>130.19999694824</ele>
        <time>2020-10-19T10:17:31.000Z</time>
      </trkpt>
      <trkpt lat="48.21441" lon="-3.14005">
        <ele>130.19999694824</ele>
        <time>2020-10-19T10:17:32.000Z</time>
      </trkpt>
      <trkpt lat="48.21441" lon="-3.14005">
        <ele>130.19999694824</ele>
        <time>2020-10-19T10:17:33.000Z</time>
      </trkpt>
      <trkpt lat="48.21441" lon="-3.14007">
        <ele>130.19999694824</ele>
        <time>2020-10-19T10:17:34.000Z</time>
      </trkpt>
      <trkpt lat="48.21441" lon="-3.14009">
        <ele>130.19999694824</ele>
        <time>2020-10-19T10:17:35.000Z</time>
      </trkpt>
      <trkpt lat="48.21441" lon="-3.1401">
        <ele>130.19999694824</ele>
        <time>2020-10-19T10:17:36.000Z</time>
      </trkpt>
      <trkpt lat="48.21441" lon="-3.14012">
        <ele>130.19999694824</ele>
        <time>2020-10-19T10:17:37.000Z</time>
      </trkpt>
      <trkpt lat="48.21441" lon="-3.14014">
        <ele>130.19999694824</ele>
        <time>2020-10-19T10:17:38.000Z</time>
      </trkpt>
      <trkpt lat="48.21442" lon="-3.14016">
        <ele>130.19999694824</ele>
        <time>2020-10-19T10:17:39.000Z</time>
      </trkpt>
      <trkpt lat="48.21442" lon="-3.14017">
        <ele>130.19999694824</ele>
        <time>2020-10-19T10:17:40.000Z</time>
      </trkpt>
      <trkpt lat="48.21442" lon="-3.14019">
        <ele>130.39999389648</ele>
        <time>2020-10-19T10:17:41.000Z</time>
      </trkpt>
      <trkpt lat="48.21443" lon="-3.1402">
        <ele>130.39999389648</ele>
        <time>2020-10-19T10:17:42.000Z</time>
      </trkpt>
      <trkpt lat="48.21443" lon="-3.14022">
        <ele>130.39999389648</ele>
        <time>2020-10-19T10:17:43.000Z</time>
      </trkpt>
      <trkpt lat="48.21443" lon="-3.14023">
        <ele>130.39999389648</ele>
        <time>2020-10-19T10:17:44.000Z</time>
      </trkpt>
      <trkpt lat="48.21444" lon="-3.14025">
        <ele>130.39999389648</ele>
        <time>2020-10-19T10:17:45.000Z</time>
      </trkpt>
      <trkpt lat="48.21444" lon="-3.14026">
        <ele>130.39999389648</ele>
        <time>2020-10-19T10:17:46.000Z</time>
      </trkpt>
      <trkpt lat="48.21444" lon="-3.14028">
        <ele>130.60000610352</ele>
        <time>2020-10-19T10:17:47.000Z</time>
      </trkpt>
      <trkpt lat="48.21444" lon="-3.14029">
        <ele>130.60000610352</ele>
        <time>2020-10-19T10:17:48.000Z</time>
      </trkpt>
      <trkpt lat="48.21445" lon="-3.14031">
        <ele>130.60000610352</ele>
        <time>2020-10-19T10:17:49.000Z</time>
      </trkpt>
      <trkpt lat="48.21445" lon="-3.14033">
        <ele>130.60000610352</ele>
        <time>2020-10-19T10:17:50.000Z</time>
      </trkpt>
      <trkpt lat="48.21445" lon="-3.14034">
        <ele>130.60000610352</ele>
        <time>2020-10-19T10:17:51.000Z</time>
      </trkpt>
      <trkpt lat="48.21445" lon="-3.14036">
        <ele>130.60000610352</ele>
        <time>2020-10-19T10:17:52.000Z</time>
      </trkpt>
      <trkpt lat="48.21445" lon="-3.1404">
        <ele>130.60000610352</ele>
        <time>2020-10-19T10:17:53.000Z</time>
      </trkpt>
      <trkpt lat="48.21445" lon="-3.1404">
        <ele>130.60000610352</ele>
        <time>2020-10-19T10:17:54.000Z</time>
      </trkpt>
      <trkpt lat="48.21445" lon="-3.14041">
        <ele>130.60000610352</ele>
        <time>2020-10-19T10:17:55.000Z</time>
      </trkpt>
      <trkpt lat="48.21445" lon="-3.14043">
        <ele>130.60000610352</ele>
        <time>2020-10-19T10:17:56.000Z</time>
      </trkpt>
      <trkpt lat="48.21445" lon="-3.14045">
        <ele>130.60000610352</ele>
        <time>2020-10-19T10:17:57.000Z</time>
      </trkpt>
      <trkpt lat="48.21445" lon="-3.14047">
        <ele>130.60000610352</ele>
        <time>2020-10-19T10:17:58.000Z</time>
      </trkpt>
      <trkpt lat="48.21445" lon="-3.14049">
        <ele>130.60000610352</ele>
        <time>2020-10-19T10:17:59.000Z</time>
      </trkpt>
      <trkpt lat="48.21445" lon="-3.14051">
        <ele>130.60000610352</ele>
        <time>2020-10-19T10:18:00.000Z</time>
      </trkpt>
      <trkpt lat="48.21446" lon="-3.14052">
        <ele>130.60000610352</ele>
        <time>2020-10-19T10:18:01.000Z</time>
      </trkpt>
      <trkpt lat="48.21446" lon="-3.14054">
        <ele>130.60000610352</ele>
        <time>2020-10-19T10:18:02.000Z</time>
      </trkpt>
      <trkpt lat="48.21446" lon="-3.14056">
        <ele>130.60000610352</ele>
        <time>2020-10-19T10:18:03.000Z</time>
      </trkpt>
      <trkpt lat="48.21446" lon="-3.14058">
        <ele>130.60000610352</ele>
        <time>2020-10-19T10:18:04.000Z</time>
      </trkpt>
      <trkpt lat="48.21446" lon="-3.14061">
        <ele>130.60000610352</ele>
        <time>2020-10-19T10:18:05.000Z</time>
      </trkpt>
      <trkpt lat="48.21446" lon="-3.14062">
        <ele>130.60000610352</ele>
        <time>2020-10-19T10:18:06.000Z</time>
      </trkpt>
      <trkpt lat="48.21446" lon="-3.14064">
        <ele>130.80000305176</ele>
        <time>2020-10-19T10:18:07.000Z</time>
      </trkpt>
      <trkpt lat="48.21447" lon="-3.14065">
        <ele>130.80000305176</ele>
        <time>2020-10-19T10:18:08.000Z</time>
      </trkpt>
      <trkpt lat="48.21447" lon="-3.14067">
        <ele>130.80000305176</ele>
        <time>2020-10-19T10:18:09.000Z</time>
      </trkpt>
      <trkpt lat="48.21447" lon="-3.14067">
        <ele>130.80000305176</ele>
        <time>2020-10-19T10:18:10.000Z</time>
      </trkpt>
      <trkpt lat="48.21447" lon="-3.14068">
        <ele>130.80000305176</ele>
        <time>2020-10-19T10:18:11.000Z</time>
      </trkpt>
      <trkpt lat="48.21447" lon="-3.14068">
        <ele>130.80000305176</ele>
        <time>2020-10-19T10:18:12.000Z</time>
      </trkpt>
      <trkpt lat="48.21447" lon="-3.14068">
        <ele>130.80000305176</ele>
        <time>2020-10-19T10:18:13.000Z</time>
      </trkpt>
      <trkpt lat="48.21448" lon="-3.14068">
        <ele>130.80000305176</ele>
        <time>2020-10-19T10:18:14.000Z</time>
      </trkpt>
      <trkpt lat="48.21448" lon="-3.14069">
        <ele>130.80000305176</ele>
        <time>2020-10-19T10:18:15.000Z</time>
      </trkpt>
      <trkpt lat="48.21448" lon="-3.1407">
        <ele>130.80000305176</ele>
        <time>2020-10-19T10:18:16.000Z</time>
      </trkpt>
      <trkpt lat="48.21448" lon="-3.14071">
        <ele>130.80000305176</ele>
        <time>2020-10-19T10:18:17.000Z</time>
      </trkpt>
      <trkpt lat="48.21448" lon="-3.14073">
        <ele>130.80000305176</ele>
        <time>2020-10-19T10:18:18.000Z</time>
      </trkpt>
      <trkpt lat="48.21448" lon="-3.14074">
        <ele>130.80000305176</ele>
        <time>2020-10-19T10:18:19.000Z</time>
      </trkpt>
      <trkpt lat="48.21448" lon="-3.14076">
        <ele>130.80000305176</ele>
        <time>2020-10-19T10:18:20.000Z</time>
      </trkpt>
      <trkpt lat="48.21448" lon="-3.14078">
        <ele>130.80000305176</ele>
        <time>2020-10-19T10:18:21.000Z</time>
      </trkpt>
      <trkpt lat="48.21448" lon="-3.14079">
        <ele>131</ele>
        <time>2020-10-19T10:18:22.000Z</time>
      </trkpt>
      <trkpt lat="48.21448" lon="-3.14081">
        <ele>131</ele>
        <time>2020-10-19T10:18:23.000Z</time>
      </trkpt>
      <trkpt lat="48.21448" lon="-3.14083">
        <ele>131</ele>
        <time>2020-10-19T10:18:24.000Z</time>
      </trkpt>
      <trkpt lat="48.21448" lon="-3.14085">
        <ele>130.80000305176</ele>
        <time>2020-10-19T10:18:25.000Z</time>
      </trkpt>
      <trkpt lat="48.21449" lon="-3.14088">
        <ele>131</ele>
        <time>2020-10-19T10:18:26.000Z</time>
      </trkpt>
      <trkpt lat="48.21449" lon="-3.14088">
        <ele>131</ele>
        <time>2020-10-19T10:18:27.000Z</time>
      </trkpt>
      <trkpt lat="48.21449" lon="-3.1409">
        <ele>131</ele>
        <time>2020-10-19T10:18:28.000Z</time>
      </trkpt>
      <trkpt lat="48.21449" lon="-3.14092">
        <ele>131</ele>
        <time>2020-10-19T10:18:29.000Z</time>
      </trkpt>
      <trkpt lat="48.21449" lon="-3.14093">
        <ele>131</ele>
        <time>2020-10-19T10:18:30.000Z</time>
      </trkpt>
      <trkpt lat="48.21449" lon="-3.14095">
        <ele>131</ele>
        <time>2020-10-19T10:18:31.000Z</time>
      </trkpt>
      <trkpt lat="48.21449" lon="-3.14097">
        <ele>131</ele>
        <time>2020-10-19T10:18:32.000Z</time>
      </trkpt>
      <trkpt lat="48.21449" lon="-3.14098">
        <ele>131.19999694824</ele>
        <time>2020-10-19T10:18:33.000Z</time>
      </trkpt>
      <trkpt lat="48.2145" lon="-3.141">
        <ele>131.19999694824</ele>
        <time>2020-10-19T10:18:34.000Z</time>
      </trkpt>
      <trkpt lat="48.2145" lon="-3.14102">
        <ele>131.39999389648</ele>
        <time>2020-10-19T10:18:35.000Z</time>
      </trkpt>
      <trkpt lat="48.2145" lon="-3.14104">
        <ele>131.39999389648</ele>
        <time>2020-10-19T10:18:36.000Z</time>
      </trkpt>
      <trkpt lat="48.2145" lon="-3.14106">
        <ele>131.39999389648</ele>
        <time>2020-10-19T10:18:37.000Z</time>
      </trkpt>
      <trkpt lat="48.2145" lon="-3.14107">
        <ele>131.60000610352</ele>
        <time>2020-10-19T10:18:38.000Z</time>
      </trkpt>
      <trkpt lat="48.2145" lon="-3.14109">
        <ele>131.60000610352</ele>
        <time>2020-10-19T10:18:39.000Z</time>
      </trkpt>
      <trkpt lat="48.2145" lon="-3.14111">
        <ele>131.60000610352</ele>
        <time>2020-10-19T10:18:40.000Z</time>
      </trkpt>
      <trkpt lat="48.2145" lon="-3.14113">
        <ele>131.60000610352</ele>
        <time>2020-10-19T10:18:41.000Z</time>
      </trkpt>
      <trkpt lat="48.2145" lon="-3.14114">
        <ele>131.80000305176</ele>
        <time>2020-10-19T10:18:42.000Z</time>
      </trkpt>
      <trkpt lat="48.2145" lon="-3.14116">
        <ele>131.80000305176</ele>
        <time>2020-10-19T10:18:43.000Z</time>
      </trkpt>
      <trkpt lat="48.2145" lon="-3.14117">
        <ele>131.80000305176</ele>
        <time>2020-10-19T10:18:44.000Z</time>
      </trkpt>
      <trkpt lat="48.2145" lon="-3.14119">
        <ele>132</ele>
        <time>2020-10-19T10:18:45.000Z</time>
      </trkpt>
      <trkpt lat="48.2145" lon="-3.14121">
        <ele>132</ele>
        <time>2020-10-19T10:18:46.000Z</time>
      </trkpt>
      <trkpt lat="48.2145" lon="-3.14122">
        <ele>132</ele>
        <time>2020-10-19T10:18:47.000Z</time>
      </trkpt>
      <trkpt lat="48.21449" lon="-3.14124">
        <ele>132</ele>
        <time>2020-10-19T10:18:48.000Z</time>
      </trkpt>
      <trkpt lat="48.21449" lon="-3.14126">
        <ele>132</ele>
        <time>2020-10-19T10:18:49.000Z</time>
      </trkpt>
      <trkpt lat="48.21449" lon="-3.14128">
        <ele>132.19999694824</ele>
        <time>2020-10-19T10:18:50.000Z</time>
      </trkpt>
      <trkpt lat="48.21448" lon="-3.1413">
        <ele>132.19999694824</ele>
        <time>2020-10-19T10:18:51.000Z</time>
      </trkpt>
      <trkpt lat="48.21448" lon="-3.14132">
        <ele>132.19999694824</ele>
        <time>2020-10-19T10:18:52.000Z</time>
      </trkpt>
      <trkpt lat="48.21448" lon="-3.14133">
        <ele>132.19999694824</ele>
        <time>2020-10-19T10:18:53.000Z</time>
      </trkpt>
      <trkpt lat="48.21447" lon="-3.14135">
        <ele>132.19999694824</ele>
        <time>2020-10-19T10:18:54.000Z</time>
      </trkpt>
      <trkpt lat="48.21447" lon="-3.14137">
        <ele>132.19999694824</ele>
        <time>2020-10-19T10:18:55.000Z</time>
      </trkpt>
      <trkpt lat="48.21446" lon="-3.14139">
        <ele>132.39999389648</ele>
        <time>2020-10-19T10:18:56.000Z</time>
      </trkpt>
      <trkpt lat="48.21446" lon="-3.14142">
        <ele>132.39999389648</ele>
        <time>2020-10-19T10:18:57.000Z</time>
      </trkpt>
      <trkpt lat="48.21446" lon="-3.14142">
        <ele>132.39999389648</ele>
        <time>2020-10-19T10:18:58.000Z</time>
      </trkpt>
      <trkpt lat="48.21445" lon="-3.14144">
        <ele>132.39999389648</ele>
        <time>2020-10-19T10:18:59.000Z</time>
      </trkpt>
      <trkpt lat="48.21445" lon="-3.14146">
        <ele>132.39999389648</ele>
        <time>2020-10-19T10:19:00.000Z</time>
      </trkpt>
      <trkpt lat="48.21444" lon="-3.14148">
        <ele>132.39999389648</ele>
        <time>2020-10-19T10:19:01.000Z</time>
      </trkpt>
      <trkpt lat="48.21444" lon="-3.1415">
        <ele>132.39999389648</ele>
        <time>2020-10-19T10:19:02.000Z</time>
      </trkpt>
      <trkpt lat="48.21444" lon="-3.14151">
        <ele>132.60000610352</ele>
        <time>2020-10-19T10:19:03.000Z</time>
      </trkpt>
      <trkpt lat="48.21443" lon="-3.14153">
        <ele>132.60000610352</ele>
        <time>2020-10-19T10:19:04.000Z</time>
      </trkpt>
      <trkpt lat="48.21443" lon="-3.14155">
        <ele>132.60000610352</ele>
        <time>2020-10-19T10:19:05.000Z</time>
      </trkpt>
      <trkpt lat="48.21443" lon="-3.14157">
        <ele>132.60000610352</ele>
        <time>2020-10-19T10:19:06.000Z</time>
      </trkpt>
      <trkpt lat="48.21443" lon="-3.14159">
        <ele>132.60000610352</ele>
        <time>2020-10-19T10:19:07.000Z</time>
      </trkpt>
      <trkpt lat="48.21442" lon="-3.14161">
        <ele>132.80000305176</ele>
        <time>2020-10-19T10:19:08.000Z</time>
      </trkpt>
      <trkpt lat="48.21442" lon="-3.14163">
        <ele>132.80000305176</ele>
        <time>2020-10-19T10:19:09.000Z</time>
      </trkpt>
      <trkpt lat="48.21442" lon="-3.14165">
        <ele>132.80000305176</ele>
        <time>2020-10-19T10:19:10.000Z</time>
      </trkpt>
      <trkpt lat="48.21441" lon="-3.14167">
        <ele>132.80000305176</ele>
        <time>2020-10-19T10:19:11.000Z</time>
      </trkpt>
      <trkpt lat="48.21441" lon="-3.14169">
        <ele>132.80000305176</ele>
        <time>2020-10-19T10:19:12.000Z</time>
      </trkpt>
      <trkpt lat="48.2144" lon="-3.14171">
        <ele>132.80000305176</ele>
        <time>2020-10-19T10:19:13.000Z</time>
      </trkpt>
      <trkpt lat="48.2144" lon="-3.14173">
        <ele>132.80000305176</ele>
        <time>2020-10-19T10:19:14.000Z</time>
      </trkpt>
      <trkpt lat="48.2144" lon="-3.14174">
        <ele>132.80000305176</ele>
        <time>2020-10-19T10:19:15.000Z</time>
      </trkpt>
      <trkpt lat="48.21439" lon="-3.14176">
        <ele>132.80000305176</ele>
        <time>2020-10-19T10:19:16.000Z</time>
      </trkpt>
      <trkpt lat="48.21439" lon="-3.14178">
        <ele>132.80000305176</ele>
        <time>2020-10-19T10:19:17.000Z</time>
      </trkpt>
      <trkpt lat="48.21439" lon="-3.1418">
        <ele>132.80000305176</ele>
        <time>2020-10-19T10:19:18.000Z</time>
      </trkpt>
      <trkpt lat="48.21439" lon="-3.14182">
        <ele>132.80000305176</ele>
        <time>2020-10-19T10:19:19.000Z</time>
      </trkpt>
      <trkpt lat="48.21439" lon="-3.14184">
        <ele>132.80000305176</ele>
        <time>2020-10-19T10:19:20.000Z</time>
      </trkpt>
      <trkpt lat="48.21438" lon="-3.14186">
        <ele>132.80000305176</ele>
        <time>2020-10-19T10:19:21.000Z</time>
      </trkpt>
      <trkpt lat="48.21438" lon="-3.14187">
        <ele>132.80000305176</ele>
        <time>2020-10-19T10:19:22.000Z</time>
      </trkpt>
      <trkpt lat="48.21439" lon="-3.14189">
        <ele>132.80000305176</ele>
        <time>2020-10-19T10:19:23.000Z</time>
      </trkpt>
      <trkpt lat="48.21439" lon="-3.14191">
        <ele>132.80000305176</ele>
        <time>2020-10-19T10:19:24.000Z</time>
      </trkpt>
      <trkpt lat="48.21439" lon="-3.14193">
        <ele>132.80000305176</ele>
        <time>2020-10-19T10:19:25.000Z</time>
      </trkpt>
      <trkpt lat="48.21439" lon="-3.14195">
        <ele>132.80000305176</ele>
        <time>2020-10-19T10:19:26.000Z</time>
      </trkpt>
      <trkpt lat="48.21439" lon="-3.14196">
        <ele>132.80000305176</ele>
        <time>2020-10-19T10:19:27.000Z</time>
      </trkpt>
      <trkpt lat="48.21439" lon="-3.14198">
        <ele>132.80000305176</ele>
        <time>2020-10-19T10:19:28.000Z</time>
      </trkpt>
      <trkpt lat="48.21439" lon="-3.142">
        <ele>132.80000305176</ele>
        <time>2020-10-19T10:19:29.000Z</time>
      </trkpt>
      <trkpt lat="48.21439" lon="-3.14201">
        <ele>132.80000305176</ele>
        <time>2020-10-19T10:19:30.000Z</time>
      </trkpt>
      <trkpt lat="48.21439" lon="-3.14203">
        <ele>132.80000305176</ele>
        <time>2020-10-19T10:19:31.000Z</time>
      </trkpt>
      <trkpt lat="48.21439" lon="-3.14204">
        <ele>132.80000305176</ele>
        <time>2020-10-19T10:19:32.000Z</time>
      </trkpt>
      <trkpt lat="48.21439" lon="-3.14206">
        <ele>132.80000305176</ele>
        <time>2020-10-19T10:19:33.000Z</time>
      </trkpt>
      <trkpt lat="48.2144" lon="-3.14208">
        <ele>133</ele>
        <time>2020-10-19T10:19:34.000Z</time>
      </trkpt>
      <trkpt lat="48.2144" lon="-3.14209">
        <ele>133</ele>
        <time>2020-10-19T10:19:35.000Z</time>
      </trkpt>
      <trkpt lat="48.2144" lon="-3.1421">
        <ele>133</ele>
        <time>2020-10-19T10:19:36.000Z</time>
      </trkpt>
      <trkpt lat="48.21441" lon="-3.14214">
        <ele>133</ele>
        <time>2020-10-19T10:19:37.000Z</time>
      </trkpt>
      <trkpt lat="48.21441" lon="-3.14214">
        <ele>133</ele>
        <time>2020-10-19T10:19:38.000Z</time>
      </trkpt>
      <trkpt lat="48.21441" lon="-3.14215">
        <ele>133</ele>
        <time>2020-10-19T10:19:39.000Z</time>
      </trkpt>
      <trkpt lat="48.21441" lon="-3.14217">
        <ele>133</ele>
        <time>2020-10-19T10:19:40.000Z</time>
      </trkpt>
      <trkpt lat="48.21442" lon="-3.14218">
        <ele>133</ele>
        <time>2020-10-19T10:19:41.000Z</time>
      </trkpt>
      <trkpt lat="48.21442" lon="-3.1422">
        <ele>133.19999694824</ele>
        <time>2020-10-19T10:19:42.000Z</time>
      </trkpt>
      <trkpt lat="48.21442" lon="-3.14222">
        <ele>133.19999694824</ele>
        <time>2020-10-19T10:19:43.000Z</time>
      </trkpt>
      <trkpt lat="48.21442" lon="-3.14223">
        <ele>133.19999694824</ele>
        <time>2020-10-19T10:19:44.000Z</time>
      </trkpt>
      <trkpt lat="48.21443" lon="-3.14225">
        <ele>133.19999694824</ele>
        <time>2020-10-19T10:19:45.000Z</time>
      </trkpt>
      <trkpt lat="48.21443" lon="-3.14227">
        <ele>133.19999694824</ele>
        <time>2020-10-19T10:19:46.000Z</time>
      </trkpt>
      <trkpt lat="48.21443" lon="-3.1423">
        <ele>133.19999694824</ele>
        <time>2020-10-19T10:19:47.000Z</time>
      </trkpt>
      <trkpt lat="48.21444" lon="-3.14232">
        <ele>133.19999694824</ele>
        <time>2020-10-19T10:19:48.000Z</time>
      </trkpt>
      <trkpt lat="48.21444" lon="-3.14234">
        <ele>133.19999694824</ele>
        <time>2020-10-19T10:19:49.000Z</time>
      </trkpt>
      <trkpt lat="48.21444" lon="-3.14236">
        <ele>133.39999389648</ele>
        <time>2020-10-19T10:19:50.000Z</time>
      </trkpt>
      <trkpt lat="48.21444" lon="-3.14237">
        <ele>133.39999389648</ele>
        <time>2020-10-19T10:19:51.000Z</time>
      </trkpt>
      <trkpt lat="48.21445" lon="-3.14239">
        <ele>133.39999389648</ele>
        <time>2020-10-19T10:19:52.000Z</time>
      </trkpt>
      <trkpt lat="48.21445" lon="-3.14241">
        <ele>133.39999389648</ele>
        <time>2020-10-19T10:19:53.000Z</time>
      </trkpt>
      <trkpt lat="48.21446" lon="-3.14245">
        <ele>133.39999389648</ele>
        <time>2020-10-19T10:19:54.000Z</time>
      </trkpt>
      <trkpt lat="48.21446" lon="-3.14245">
        <ele>133.39999389648</ele>
        <time>2020-10-19T10:19:55.000Z</time>
      </trkpt>
      <trkpt lat="48.21446" lon="-3.14246">
        <ele>133.60000610352</ele>
        <time>2020-10-19T10:19:56.000Z</time>
      </trkpt>
      <trkpt lat="48.21446" lon="-3.14248">
        <ele>133.60000610352</ele>
        <time>2020-10-19T10:19:57.000Z</time>
      </trkpt>
      <trkpt lat="48.21447" lon="-3.1425">
        <ele>133.60000610352</ele>
        <time>2020-10-19T10:19:58.000Z</time>
      </trkpt>
      <trkpt lat="48.21447" lon="-3.14252">
        <ele>133.60000610352</ele>
        <time>2020-10-19T10:19:59.000Z</time>
      </trkpt>
      <trkpt lat="48.21447" lon="-3.14253">
        <ele>133.80000305176</ele>
        <time>2020-10-19T10:20:00.000Z</time>
      </trkpt>
      <trkpt lat="48.21448" lon="-3.14255">
        <ele>133.80000305176</ele>
        <time>2020-10-19T10:20:01.000Z</time>
      </trkpt>
      <trkpt lat="48.21448" lon="-3.14258">
        <ele>133.80000305176</ele>
        <time>2020-10-19T10:20:02.000Z</time>
      </trkpt>
      <trkpt lat="48.21448" lon="-3.14258">
        <ele>133.80000305176</ele>
        <time>2020-10-19T10:20:03.000Z</time>
      </trkpt>
      <trkpt lat="48.21449" lon="-3.1426">
        <ele>134</ele>
        <time>2020-10-19T10:20:04.000Z</time>
      </trkpt>
      <trkpt lat="48.21449" lon="-3.14261">
        <ele>134</ele>
        <time>2020-10-19T10:20:05.000Z</time>
      </trkpt>
      <trkpt lat="48.2145" lon="-3.14263">
        <ele>134</ele>
        <time>2020-10-19T10:20:06.000Z</time>
      </trkpt>
      <trkpt lat="48.2145" lon="-3.14264">
        <ele>134</ele>
        <time>2020-10-19T10:20:07.000Z</time>
      </trkpt>
      <trkpt lat="48.21451" lon="-3.14265">
        <ele>134</ele>
        <time>2020-10-19T10:20:08.000Z</time>
      </trkpt>
      <trkpt lat="48.21451" lon="-3.14267">
        <ele>134</ele>
        <time>2020-10-19T10:20:09.000Z</time>
      </trkpt>
      <trkpt lat="48.21451" lon="-3.14269">
        <ele>134</ele>
        <time>2020-10-19T10:20:10.000Z</time>
      </trkpt>
      <trkpt lat="48.21452" lon="-3.1427">
        <ele>134</ele>
        <time>2020-10-19T10:20:11.000Z</time>
      </trkpt>
      <trkpt lat="48.21452" lon="-3.14272">
        <ele>134.19999694824</ele>
        <time>2020-10-19T10:20:12.000Z</time>
      </trkpt>
      <trkpt lat="48.21452" lon="-3.14274">
        <ele>134.19999694824</ele>
        <time>2020-10-19T10:20:13.000Z</time>
      </trkpt>
      <trkpt lat="48.21452" lon="-3.14275">
        <ele>134.19999694824</ele>
        <time>2020-10-19T10:20:14.000Z</time>
      </trkpt>
      <trkpt lat="48.21453" lon="-3.14277">
        <ele>134.19999694824</ele>
        <time>2020-10-19T10:20:15.000Z</time>
      </trkpt>
      <trkpt lat="48.21453" lon="-3.1428">
        <ele>134.19999694824</ele>
        <time>2020-10-19T10:20:16.000Z</time>
      </trkpt>
      <trkpt lat="48.21453" lon="-3.1428">
        <ele>134.19999694824</ele>
        <time>2020-10-19T10:20:17.000Z</time>
      </trkpt>
      <trkpt lat="48.21453" lon="-3.14282">
        <ele>134.19999694824</ele>
        <time>2020-10-19T10:20:18.000Z</time>
      </trkpt>
      <trkpt lat="48.21453" lon="-3.14283">
        <ele>134.19999694824</ele>
        <time>2020-10-19T10:20:19.000Z</time>
      </trkpt>
      <trkpt lat="48.21454" lon="-3.14285">
        <ele>134.19999694824</ele>
        <time>2020-10-19T10:20:20.000Z</time>
      </trkpt>
      <trkpt lat="48.21454" lon="-3.14287">
        <ele>134</ele>
        <time>2020-10-19T10:20:21.000Z</time>
      </trkpt>
      <trkpt lat="48.21454" lon="-3.14289">
        <ele>134</ele>
        <time>2020-10-19T10:20:22.000Z</time>
      </trkpt>
      <trkpt lat="48.21454" lon="-3.14291">
        <ele>134</ele>
        <time>2020-10-19T10:20:23.000Z</time>
      </trkpt>
      <trkpt lat="48.21454" lon="-3.14293">
        <ele>134</ele>
        <time>2020-10-19T10:20:24.000Z</time>
      </trkpt>
      <trkpt lat="48.21454" lon="-3.14295">
        <ele>134</ele>
        <time>2020-10-19T10:20:25.000Z</time>
      </trkpt>
      <trkpt lat="48.21454" lon="-3.14297">
        <ele>134</ele>
        <time>2020-10-19T10:20:26.000Z</time>
      </trkpt>
      <trkpt lat="48.21455" lon="-3.14298">
        <ele>134</ele>
        <time>2020-10-19T10:20:27.000Z</time>
      </trkpt>
      <trkpt lat="48.21455" lon="-3.143">
        <ele>134</ele>
        <time>2020-10-19T10:20:28.000Z</time>
      </trkpt>
      <trkpt lat="48.21455" lon="-3.14301">
        <ele>134</ele>
        <time>2020-10-19T10:20:29.000Z</time>
      </trkpt>
      <trkpt lat="48.21455" lon="-3.14303">
        <ele>134</ele>
        <time>2020-10-19T10:20:30.000Z</time>
      </trkpt>
      <trkpt lat="48.21455" lon="-3.14305">
        <ele>134</ele>
        <time>2020-10-19T10:20:31.000Z</time>
      </trkpt>
      <trkpt lat="48.21456" lon="-3.14307">
        <ele>134</ele>
        <time>2020-10-19T10:20:32.000Z</time>
      </trkpt>
      <trkpt lat="48.21456" lon="-3.14309">
        <ele>134</ele>
        <time>2020-10-19T10:20:33.000Z</time>
      </trkpt>
      <trkpt lat="48.21456" lon="-3.14311">
        <ele>134</ele>
        <time>2020-10-19T10:20:34.000Z</time>
      </trkpt>
      <trkpt lat="48.21456" lon="-3.14313">
        <ele>134</ele>
        <time>2020-10-19T10:20:35.000Z</time>
      </trkpt>
      <trkpt lat="48.21456" lon="-3.14314">
        <ele>134</ele>
        <time>2020-10-19T10:20:36.000Z</time>
      </trkpt>
      <trkpt lat="48.21456" lon="-3.14316">
        <ele>134</ele>
        <time>2020-10-19T10:20:37.000Z</time>
      </trkpt>
      <trkpt lat="48.21456" lon="-3.14318">
        <ele>134</ele>
        <time>2020-10-19T10:20:38.000Z</time>
      </trkpt>
      <trkpt lat="48.21456" lon="-3.14319">
        <ele>134</ele>
        <time>2020-10-19T10:20:39.000Z</time>
      </trkpt>
      <trkpt lat="48.21456" lon="-3.14321">
        <ele>134</ele>
        <time>2020-10-19T10:20:40.000Z</time>
      </trkpt>
      <trkpt lat="48.21456" lon="-3.14323">
        <ele>134</ele>
        <time>2020-10-19T10:20:41.000Z</time>
      </trkpt>
      <trkpt lat="48.21456" lon="-3.14325">
        <ele>134</ele>
        <time>2020-10-19T10:20:42.000Z</time>
      </trkpt>
      <trkpt lat="48.21456" lon="-3.14326">
        <ele>134</ele>
        <time>2020-10-19T10:20:43.000Z</time>
      </trkpt>
      <trkpt lat="48.21456" lon="-3.14328">
        <ele>134</ele>
        <time>2020-10-19T10:20:44.000Z</time>
      </trkpt>
      <trkpt lat="48.21456" lon="-3.1433">
        <ele>134</ele>
        <time>2020-10-19T10:20:45.000Z</time>
      </trkpt>
      <trkpt lat="48.21455" lon="-3.14331">
        <ele>134</ele>
        <time>2020-10-19T10:20:46.000Z</time>
      </trkpt>
      <trkpt lat="48.21455" lon="-3.14333">
        <ele>133.80000305176</ele>
        <time>2020-10-19T10:20:47.000Z</time>
      </trkpt>
      <trkpt lat="48.21455" lon="-3.14334">
        <ele>133.80000305176</ele>
        <time>2020-10-19T10:20:48.000Z</time>
      </trkpt>
      <trkpt lat="48.21455" lon="-3.14336">
        <ele>133.80000305176</ele>
        <time>2020-10-19T10:20:49.000Z</time>
      </trkpt>
      <trkpt lat="48.21454" lon="-3.14338">
        <ele>133.80000305176</ele>
        <time>2020-10-19T10:20:50.000Z</time>
      </trkpt>
      <trkpt lat="48.21454" lon="-3.14339">
        <ele>133.80000305176</ele>
        <time>2020-10-19T10:20:51.000Z</time>
      </trkpt>
      <trkpt lat="48.21454" lon="-3.14341">
        <ele>133.80000305176</ele>
        <time>2020-10-19T10:20:52.000Z</time>
      </trkpt>
      <trkpt lat="48.21453" lon="-3.14343">
        <ele>133.60000610352</ele>
        <time>2020-10-19T10:20:53.000Z</time>
      </trkpt>
      <trkpt lat="48.21453" lon="-3.14345">
        <ele>133.60000610352</ele>
        <time>2020-10-19T10:20:54.000Z</time>
      </trkpt>
      <trkpt lat="48.21453" lon="-3.14346">
        <ele>133.60000610352</ele>
        <time>2020-10-19T10:20:55.000Z</time>
      </trkpt>
      <trkpt lat="48.21453" lon="-3.14348">
        <ele>133.60000610352</ele>
        <time>2020-10-19T10:20:56.000Z</time>
      </trkpt>
      <trkpt lat="48.21452" lon="-3.1435">
        <ele>133.39999389648</ele>
        <time>2020-10-19T10:20:57.000Z</time>
      </trkpt>
      <trkpt lat="48.21452" lon="-3.14351">
        <ele>133.39999389648</ele>
        <time>2020-10-19T10:20:58.000Z</time>
      </trkpt>
      <trkpt lat="48.21452" lon="-3.14353">
        <ele>133.39999389648</ele>
        <time>2020-10-19T10:20:59.000Z</time>
      </trkpt>
      <trkpt lat="48.21452" lon="-3.14354">
        <ele>133.39999389648</ele>
        <time>2020-10-19T10:21:00.000Z</time>
      </trkpt>
      <trkpt lat="48.21451" lon="-3.14356">
        <ele>133.19999694824</ele>
        <time>2020-10-19T10:21:01.000Z</time>
      </trkpt>
      <trkpt lat="48.21451" lon="-3.14358">
        <ele>133.19999694824</ele>
        <time>2020-10-19T10:21:02.000Z</time>
      </trkpt>
      <trkpt lat="48.21451" lon="-3.14359">
        <ele>133.19999694824</ele>
        <time>2020-10-19T10:21:03.000Z</time>
      </trkpt>
      <trkpt lat="48.21451" lon="-3.14361">
        <ele>133.19999694824</ele>
        <time>2020-10-19T10:21:04.000Z</time>
      </trkpt>
      <trkpt lat="48.2145" lon="-3.14363">
        <ele>133.19999694824</ele>
        <time>2020-10-19T10:21:05.000Z</time>
      </trkpt>
      <trkpt lat="48.2145" lon="-3.14364">
        <ele>133</ele>
        <time>2020-10-19T10:21:06.000Z</time>
      </trkpt>
      <trkpt lat="48.21449" lon="-3.14366">
        <ele>133</ele>
        <time>2020-10-19T10:21:07.000Z</time>
      </trkpt>
      <trkpt lat="48.21449" lon="-3.14367">
        <ele>133</ele>
        <time>2020-10-19T10:21:08.000Z</time>
      </trkpt>
      <trkpt lat="48.21449" lon="-3.14369">
        <ele>132.80000305176</ele>
        <time>2020-10-19T10:21:09.000Z</time>
      </trkpt>
      <trkpt lat="48.21448" lon="-3.14371">
        <ele>132.80000305176</ele>
        <time>2020-10-19T10:21:10.000Z</time>
      </trkpt>
      <trkpt lat="48.21448" lon="-3.14372">
        <ele>132.80000305176</ele>
        <time>2020-10-19T10:21:11.000Z</time>
      </trkpt>
      <trkpt lat="48.21447" lon="-3.14374">
        <ele>132.60000610352</ele>
        <time>2020-10-19T10:21:12.000Z</time>
      </trkpt>
      <trkpt lat="48.21447" lon="-3.14376">
        <ele>132.60000610352</ele>
        <time>2020-10-19T10:21:13.000Z</time>
      </trkpt>
      <trkpt lat="48.21447" lon="-3.14377">
        <ele>132.60000610352</ele>
        <time>2020-10-19T10:21:14.000Z</time>
      </trkpt>
      <trkpt lat="48.21446" lon="-3.14379">
        <ele>132.39999389648</ele>
        <time>2020-10-19T10:21:15.000Z</time>
      </trkpt>
      <trkpt lat="48.21446" lon="-3.14381">
        <ele>132.39999389648</ele>
        <time>2020-10-19T10:21:16.000Z</time>
      </trkpt>
      <trkpt lat="48.21446" lon="-3.14382">
        <ele>132.39999389648</ele>
        <time>2020-10-19T10:21:17.000Z</time>
      </trkpt>
      <trkpt lat="48.21446" lon="-3.14384">
        <ele>132.39999389648</ele>
        <time>2020-10-19T10:21:18.000Z</time>
      </trkpt>
      <trkpt lat="48.21445" lon="-3.14386">
        <ele>132.39999389648</ele>
        <time>2020-10-19T10:21:19.000Z</time>
      </trkpt>
      <trkpt lat="48.21445" lon="-3.14388">
        <ele>132.19999694824</ele>
        <time>2020-10-19T10:21:20.000Z</time>
      </trkpt>
      <trkpt lat="48.21445" lon="-3.14389">
        <ele>132.19999694824</ele>
        <time>2020-10-19T10:21:21.000Z</time>
      </trkpt>
      <trkpt lat="48.21444" lon="-3.14391">
        <ele>132.19999694824</ele>
        <time>2020-10-19T10:21:22.000Z</time>
      </trkpt>
      <trkpt lat="48.21444" lon="-3.14393">
        <ele>132.19999694824</ele>
        <time>2020-10-19T10:21:23.000Z</time>
      </trkpt>
      <trkpt lat="48.21444" lon="-3.14395">
        <ele>132</ele>
        <time>2020-10-19T10:21:24.000Z</time>
      </trkpt>
      <trkpt lat="48.21444" lon="-3.14396">
        <ele>132</ele>
        <time>2020-10-19T10:21:25.000Z</time>
      </trkpt>
      <trkpt lat="48.21443" lon="-3.14398">
        <ele>132</ele>
        <time>2020-10-19T10:21:26.000Z</time>
      </trkpt>
      <trkpt lat="48.21443" lon="-3.144">
        <ele>132</ele>
        <time>2020-10-19T10:21:27.000Z</time>
      </trkpt>
      <trkpt lat="48.21443" lon="-3.14402">
        <ele>131.80000305176</ele>
        <time>2020-10-19T10:21:28.000Z</time>
      </trkpt>
      <trkpt lat="48.21443" lon="-3.14404">
        <ele>131.80000305176</ele>
        <time>2020-10-19T10:21:29.000Z</time>
      </trkpt>
      <trkpt lat="48.21443" lon="-3.14406">
        <ele>131.80000305176</ele>
        <time>2020-10-19T10:21:30.000Z</time>
      </trkpt>
      <trkpt lat="48.21443" lon="-3.14407">
        <ele>131.80000305176</ele>
        <time>2020-10-19T10:21:31.000Z</time>
      </trkpt>
      <trkpt lat="48.21443" lon="-3.14408">
        <ele>131.80000305176</ele>
        <time>2020-10-19T10:21:32.000Z</time>
      </trkpt>
      <trkpt lat="48.21443" lon="-3.14409">
        <ele>131.80000305176</ele>
        <time>2020-10-19T10:21:33.000Z</time>
      </trkpt>
      <trkpt lat="48.21442" lon="-3.14411">
        <ele>131.60000610352</ele>
        <time>2020-10-19T10:21:34.000Z</time>
      </trkpt>
      <trkpt lat="48.21442" lon="-3.14412">
        <ele>131.60000610352</ele>
        <time>2020-10-19T10:21:35.000Z</time>
      </trkpt>
      <trkpt lat="48.21442" lon="-3.14414">
        <ele>131.60000610352</ele>
        <time>2020-10-19T10:21:36.000Z</time>
      </trkpt>
      <trkpt lat="48.21441" lon="-3.14415">
        <ele>131.60000610352</ele>
        <time>2020-10-19T10:21:37.000Z</time>
      </trkpt>
      <trkpt lat="48.21441" lon="-3.14417">
        <ele>131.60000610352</ele>
        <time>2020-10-19T10:21:38.000Z</time>
      </trkpt>
      <trkpt lat="48.21441" lon="-3.14419">
        <ele>131.39999389648</ele>
        <time>2020-10-19T10:21:39.000Z</time>
      </trkpt>
      <trkpt lat="48.21441" lon="-3.1442">
        <ele>131.39999389648</ele>
        <time>2020-10-19T10:21:40.000Z</time>
      </trkpt>
      <trkpt lat="48.21441" lon="-3.14422">
        <ele>131.39999389648</ele>
        <time>2020-10-19T10:21:41.000Z</time>
      </trkpt>
      <trkpt lat="48.2144" lon="-3.14424">
        <ele>131.39999389648</ele>
        <time>2020-10-19T10:21:42.000Z</time>
      </trkpt>
      <trkpt lat="48.2144" lon="-3.14426">
        <ele>131.39999389648</ele>
        <time>2020-10-19T10:21:43.000Z</time>
      </trkpt>
      <trkpt lat="48.2144" lon="-3.14427">
        <ele>131.39999389648</ele>
        <time>2020-10-19T10:21:44.000Z</time>
      </trkpt>
      <trkpt lat="48.2144" lon="-3.14428">
        <ele>131.39999389648</ele>
        <time>2020-10-19T10:21:45.000Z</time>
      </trkpt>
      <trkpt lat="48.2144" lon="-3.1443">
        <ele>131.39999389648</ele>
        <time>2020-10-19T10:21:46.000Z</time>
      </trkpt>
      <trkpt lat="48.21439" lon="-3.14432">
        <ele>131.39999389648</ele>
        <time>2020-10-19T10:21:47.000Z</time>
      </trkpt>
      <trkpt lat="48.21439" lon="-3.14433">
        <ele>131.39999389648</ele>
        <time>2020-10-19T10:21:48.000Z</time>
      </trkpt>
      <trkpt lat="48.21439" lon="-3.14435">
        <ele>131.39999389648</ele>
        <time>2020-10-19T10:21:49.000Z</time>
      </trkpt>
      <trkpt lat="48.21439" lon="-3.14437">
        <ele>131.39999389648</ele>
        <time>2020-10-19T10:21:50.000Z</time>
      </trkpt>
      <trkpt lat="48.21439" lon="-3.14439">
        <ele>131.39999389648</ele>
        <time>2020-10-19T10:21:51.000Z</time>
      </trkpt>
      <trkpt lat="48.21438" lon="-3.14441">
        <ele>131.39999389648</ele>
        <time>2020-10-19T10:21:52.000Z</time>
      </trkpt>
      <trkpt lat="48.21438" lon="-3.14443">
        <ele>131.60000610352</ele>
        <time>2020-10-19T10:21:53.000Z</time>
      </trkpt>
      <trkpt lat="48.21438" lon="-3.14445">
        <ele>131.60000610352</ele>
        <time>2020-10-19T10:21:54.000Z</time>
      </trkpt>
      <trkpt lat="48.21437" lon="-3.14446">
        <ele>131.60000610352</ele>
        <time>2020-10-19T10:21:55.000Z</time>
      </trkpt>
      <trkpt lat="48.21437" lon="-3.14448">
        <ele>131.60000610352</ele>
        <time>2020-10-19T10:21:56.000Z</time>
      </trkpt>
      <trkpt lat="48.21437" lon="-3.1445">
        <ele>131.60000610352</ele>
        <time>2020-10-19T10:21:57.000Z</time>
      </trkpt>
      <trkpt lat="48.21437" lon="-3.14451">
        <ele>131.60000610352</ele>
        <time>2020-10-19T10:21:58.000Z</time>
      </trkpt>
      <trkpt lat="48.21437" lon="-3.14453">
        <ele>131.60000610352</ele>
        <time>2020-10-19T10:21:59.000Z</time>
      </trkpt>
      <trkpt lat="48.21436" lon="-3.14454">
        <ele>131.60000610352</ele>
        <time>2020-10-19T10:22:00.000Z</time>
      </trkpt>
      <trkpt lat="48.21436" lon="-3.14456">
        <ele>131.60000610352</ele>
        <time>2020-10-19T10:22:01.000Z</time>
      </trkpt>
      <trkpt lat="48.21435" lon="-3.14458">
        <ele>131.60000610352</ele>
        <time>2020-10-19T10:22:02.000Z</time>
      </trkpt>
      <trkpt lat="48.21435" lon="-3.14459">
        <ele>131.60000610352</ele>
        <time>2020-10-19T10:22:03.000Z</time>
      </trkpt>
      <trkpt lat="48.21435" lon="-3.14461">
        <ele>131.60000610352</ele>
        <time>2020-10-19T10:22:04.000Z</time>
      </trkpt>
      <trkpt lat="48.21435" lon="-3.14463">
        <ele>131.60000610352</ele>
        <time>2020-10-19T10:22:05.000Z</time>
      </trkpt>
      <trkpt lat="48.21434" lon="-3.14464">
        <ele>131.60000610352</ele>
        <time>2020-10-19T10:22:06.000Z</time>
      </trkpt>
      <trkpt lat="48.21434" lon="-3.14466">
        <ele>131.60000610352</ele>
        <time>2020-10-19T10:22:07.000Z</time>
      </trkpt>
      <trkpt lat="48.21433" lon="-3.14468">
        <ele>131.60000610352</ele>
        <time>2020-10-19T10:22:08.000Z</time>
      </trkpt>
      <trkpt lat="48.21433" lon="-3.1447">
        <ele>131.60000610352</ele>
        <time>2020-10-19T10:22:09.000Z</time>
      </trkpt>
      <trkpt lat="48.21432" lon="-3.14471">
        <ele>131.60000610352</ele>
        <time>2020-10-19T10:22:10.000Z</time>
      </trkpt>
      <trkpt lat="48.21432" lon="-3.14473">
        <ele>131.60000610352</ele>
        <time>2020-10-19T10:22:11.000Z</time>
      </trkpt>
      <trkpt lat="48.21432" lon="-3.14475">
        <ele>131.39999389648</ele>
        <time>2020-10-19T10:22:12.000Z</time>
      </trkpt>
      <trkpt lat="48.21431" lon="-3.14476">
        <ele>131.60000610352</ele>
        <time>2020-10-19T10:22:13.000Z</time>
      </trkpt>
      <trkpt lat="48.21431" lon="-3.14479">
        <ele>131.60000610352</ele>
        <time>2020-10-19T10:22:14.000Z</time>
      </trkpt>
      <trkpt lat="48.2143" lon="-3.14481">
        <ele>131.60000610352</ele>
        <time>2020-10-19T10:22:15.000Z</time>
      </trkpt>
      <trkpt lat="48.2143" lon="-3.14481">
        <ele>131.60000610352</ele>
        <time>2020-10-19T10:22:16.000Z</time>
      </trkpt>
      <trkpt lat="48.2143" lon="-3.14483">
        <ele>131.39999389648</ele>
        <time>2020-10-19T10:22:17.000Z</time>
      </trkpt>
      <trkpt lat="48.2143" lon="-3.14484">
        <ele>131.39999389648</ele>
        <time>2020-10-19T10:22:18.000Z</time>
      </trkpt>
      <trkpt lat="48.21429" lon="-3.14486">
        <ele>131.39999389648</ele>
        <time>2020-10-19T10:22:19.000Z</time>
      </trkpt>
      <trkpt lat="48.21429" lon="-3.14487">
        <ele>131.39999389648</ele>
        <time>2020-10-19T10:22:20.000Z</time>
      </trkpt>
      <trkpt lat="48.21429" lon="-3.14489">
        <ele>131.39999389648</ele>
        <time>2020-10-19T10:22:21.000Z</time>
      </trkpt>
      <trkpt lat="48.21428" lon="-3.1449">
        <ele>131.60000610352</ele>
        <time>2020-10-19T10:22:22.000Z</time>
      </trkpt>
      <trkpt lat="48.21428" lon="-3.14492">
        <ele>131.60000610352</ele>
        <time>2020-10-19T10:22:23.000Z</time>
      </trkpt>
      <trkpt lat="48.21428" lon="-3.14494">
        <ele>131.80000305176</ele>
        <time>2020-10-19T10:22:24.000Z</time>
      </trkpt>
      <trkpt lat="48.21427" lon="-3.14496">
        <ele>131.80000305176</ele>
        <time>2020-10-19T10:22:25.000Z</time>
      </trkpt>
      <trkpt lat="48.21427" lon="-3.14498">
        <ele>132</ele>
        <time>2020-10-19T10:22:26.000Z</time>
      </trkpt>
      <trkpt lat="48.21427" lon="-3.145">
        <ele>132</ele>
        <time>2020-10-19T10:22:27.000Z</time>
      </trkpt>
      <trkpt lat="48.21426" lon="-3.14501">
        <ele>132.19999694824</ele>
        <time>2020-10-19T10:22:28.000Z</time>
      </trkpt>
      <trkpt lat="48.21426" lon="-3.14503">
        <ele>132.19999694824</ele>
        <time>2020-10-19T10:22:29.000Z</time>
      </trkpt>
      <trkpt lat="48.21425" lon="-3.14505">
        <ele>132.39999389648</ele>
        <time>2020-10-19T10:22:30.000Z</time>
      </trkpt>
      <trkpt lat="48.21425" lon="-3.14507">
        <ele>132.39999389648</ele>
        <time>2020-10-19T10:22:31.000Z</time>
      </trkpt>
      <trkpt lat="48.21424" lon="-3.14508">
        <ele>132.60000610352</ele>
        <time>2020-10-19T10:22:32.000Z</time>
      </trkpt>
      <trkpt lat="48.21424" lon="-3.1451">
        <ele>132.80000305176</ele>
        <time>2020-10-19T10:22:33.000Z</time>
      </trkpt>
      <trkpt lat="48.21423" lon="-3.14513">
        <ele>133</ele>
        <time>2020-10-19T10:22:34.000Z</time>
      </trkpt>
      <trkpt lat="48.21423" lon="-3.14513">
        <ele>133</ele>
        <time>2020-10-19T10:22:35.000Z</time>
      </trkpt>
      <trkpt lat="48.21422" lon="-3.14515">
        <ele>133</ele>
        <time>2020-10-19T10:22:36.000Z</time>
      </trkpt>
      <trkpt lat="48.21422" lon="-3.14517">
        <ele>133.19999694824</ele>
        <time>2020-10-19T10:22:37.000Z</time>
      </trkpt>
      <trkpt lat="48.21421" lon="-3.14518">
        <ele>133.39999389648</ele>
        <time>2020-10-19T10:22:38.000Z</time>
      </trkpt>
      <trkpt lat="48.21421" lon="-3.1452">
        <ele>133.39999389648</ele>
        <time>2020-10-19T10:22:39.000Z</time>
      </trkpt>
      <trkpt lat="48.2142" lon="-3.14522">
        <ele>133.39999389648</ele>
        <time>2020-10-19T10:22:40.000Z</time>
      </trkpt>
      <trkpt lat="48.2142" lon="-3.14523">
        <ele>133.60000610352</ele>
        <time>2020-10-19T10:22:41.000Z</time>
      </trkpt>
      <trkpt lat="48.2142" lon="-3.14525">
        <ele>133.60000610352</ele>
        <time>2020-10-19T10:22:42.000Z</time>
      </trkpt>
      <trkpt lat="48.21419" lon="-3.14527">
        <ele>133.80000305176</ele>
        <time>2020-10-19T10:22:43.000Z</time>
      </trkpt>
      <trkpt lat="48.21419" lon="-3.14529">
        <ele>133.80000305176</ele>
        <time>2020-10-19T10:22:44.000Z</time>
      </trkpt>
      <trkpt lat="48.21419" lon="-3.1453">
        <ele>133.80000305176</ele>
        <time>2020-10-19T10:22:45.000Z</time>
      </trkpt>
      <trkpt lat="48.21418" lon="-3.14532">
        <ele>133.80000305176</ele>
        <time>2020-10-19T10:22:46.000Z</time>
      </trkpt>
      <trkpt lat="48.21418" lon="-3.14534">
        <ele>133.80000305176</ele>
        <time>2020-10-19T10:22:47.000Z</time>
      </trkpt>
      <trkpt lat="48.21418" lon="-3.14535">
        <ele>134</ele>
        <time>2020-10-19T10:22:48.000Z</time>
      </trkpt>
      <trkpt lat="48.21417" lon="-3.14537">
        <ele>134</ele>
        <time>2020-10-19T10:22:49.000Z</time>
      </trkpt>
      <trkpt lat="48.21417" lon="-3.14539">
        <ele>134</ele>
        <time>2020-10-19T10:22:50.000Z</time>
      </trkpt>
      <trkpt lat="48.21416" lon="-3.1454">
        <ele>134.19999694824</ele>
        <time>2020-10-19T10:22:51.000Z</time>
      </trkpt>
      <trkpt lat="48.21416" lon="-3.14542">
        <ele>134.19999694824</ele>
        <time>2020-10-19T10:22:52.000Z</time>
      </trkpt>
      <trkpt lat="48.21416" lon="-3.14543">
        <ele>134.19999694824</ele>
        <time>2020-10-19T10:22:53.000Z</time>
      </trkpt>
      <trkpt lat="48.21416" lon="-3.14545">
        <ele>134.19999694824</ele>
        <time>2020-10-19T10:22:54.000Z</time>
      </trkpt>
      <trkpt lat="48.21415" lon="-3.14546">
        <ele>134.39999389648</ele>
        <time>2020-10-19T10:22:55.000Z</time>
      </trkpt>
      <trkpt lat="48.21415" lon="-3.14548">
        <ele>134.39999389648</ele>
        <time>2020-10-19T10:22:56.000Z</time>
      </trkpt>
      <trkpt lat="48.21415" lon="-3.1455">
        <ele>134.39999389648</ele>
        <time>2020-10-19T10:22:57.000Z</time>
      </trkpt>
      <trkpt lat="48.21415" lon="-3.14551">
        <ele>134.60000610352</ele>
        <time>2020-10-19T10:22:58.000Z</time>
      </trkpt>
      <trkpt lat="48.21414" lon="-3.14553">
        <ele>134.60000610352</ele>
        <time>2020-10-19T10:22:59.000Z</time>
      </trkpt>
      <trkpt lat="48.21414" lon="-3.14555">
        <ele>134.60000610352</ele>
        <time>2020-10-19T10:23:00.000Z</time>
      </trkpt>
      <trkpt lat="48.21413" lon="-3.14558">
        <ele>134.80000305176</ele>
        <time>2020-10-19T10:23:01.000Z</time>
      </trkpt>
      <trkpt lat="48.21413" lon="-3.14558">
        <ele>134.80000305176</ele>
        <time>2020-10-19T10:23:02.000Z</time>
      </trkpt>
      <trkpt lat="48.21412" lon="-3.1456">
        <ele>135</ele>
        <time>2020-10-19T10:23:03.000Z</time>
      </trkpt>
      <trkpt lat="48.21412" lon="-3.14562">
        <ele>135</ele>
        <time>2020-10-19T10:23:04.000Z</time>
      </trkpt>
      <trkpt lat="48.21412" lon="-3.14563">
        <ele>135</ele>
        <time>2020-10-19T10:23:05.000Z</time>
      </trkpt>
      <trkpt lat="48.21411" lon="-3.14565">
        <ele>135</ele>
        <time>2020-10-19T10:23:06.000Z</time>
      </trkpt>
      <trkpt lat="48.21411" lon="-3.14567">
        <ele>135.19999694824</ele>
        <time>2020-10-19T10:23:07.000Z</time>
      </trkpt>
      <trkpt lat="48.21411" lon="-3.14569">
        <ele>135.19999694824</ele>
        <time>2020-10-19T10:23:08.000Z</time>
      </trkpt>
      <trkpt lat="48.2141" lon="-3.1457">
        <ele>135.19999694824</ele>
        <time>2020-10-19T10:23:09.000Z</time>
      </trkpt>
      <trkpt lat="48.2141" lon="-3.14572">
        <ele>135.39999389648</ele>
        <time>2020-10-19T10:23:10.000Z</time>
      </trkpt>
      <trkpt lat="48.2141" lon="-3.14574">
        <ele>135.39999389648</ele>
        <time>2020-10-19T10:23:11.000Z</time>
      </trkpt>
      <trkpt lat="48.21409" lon="-3.14576">
        <ele>135.39999389648</ele>
        <time>2020-10-19T10:23:12.000Z</time>
      </trkpt>
      <trkpt lat="48.21409" lon="-3.14577">
        <ele>135.60000610352</ele>
        <time>2020-10-19T10:23:13.000Z</time>
      </trkpt>
      <trkpt lat="48.21408" lon="-3.14579">
        <ele>135.60000610352</ele>
        <time>2020-10-19T10:23:14.000Z</time>
      </trkpt>
      <trkpt lat="48.21408" lon="-3.14581">
        <ele>135.60000610352</ele>
        <time>2020-10-19T10:23:15.000Z</time>
      </trkpt>
      <trkpt lat="48.21408" lon="-3.14583">
        <ele>135.80000305176</ele>
        <time>2020-10-19T10:23:16.000Z</time>
      </trkpt>
      <trkpt lat="48.21408" lon="-3.14585">
        <ele>135.80000305176</ele>
        <time>2020-10-19T10:23:17.000Z</time>
      </trkpt>
      <trkpt lat="48.21408" lon="-3.14588">
        <ele>135.80000305176</ele>
        <time>2020-10-19T10:23:18.000Z</time>
      </trkpt>
      <trkpt lat="48.21408" lon="-3.14588">
        <ele>135.80000305176</ele>
        <time>2020-10-19T10:23:19.000Z</time>
      </trkpt>
      <trkpt lat="48.21408" lon="-3.1459">
        <ele>135.80000305176</ele>
        <time>2020-10-19T10:23:20.000Z</time>
      </trkpt>
      <trkpt lat="48.21407" lon="-3.14592">
        <ele>135.80000305176</ele>
        <time>2020-10-19T10:23:21.000Z</time>
      </trkpt>
      <trkpt lat="48.21407" lon="-3.14594">
        <ele>135.80000305176</ele>
        <time>2020-10-19T10:23:22.000Z</time>
      </trkpt>
      <trkpt lat="48.21408" lon="-3.14595">
        <ele>135.80000305176</ele>
        <time>2020-10-19T10:23:23.000Z</time>
      </trkpt>
      <trkpt lat="48.21407" lon="-3.14597">
        <ele>135.80000305176</ele>
        <time>2020-10-19T10:23:24.000Z</time>
      </trkpt>
      <trkpt lat="48.21407" lon="-3.14599">
        <ele>135.80000305176</ele>
        <time>2020-10-19T10:23:25.000Z</time>
      </trkpt>
      <trkpt lat="48.21407" lon="-3.146">
        <ele>135.80000305176</ele>
        <time>2020-10-19T10:23:26.000Z</time>
      </trkpt>
      <trkpt lat="48.21407" lon="-3.14602">
        <ele>135.80000305176</ele>
        <time>2020-10-19T10:23:27.000Z</time>
      </trkpt>
      <trkpt lat="48.21407" lon="-3.14603">
        <ele>135.80000305176</ele>
        <time>2020-10-19T10:23:28.000Z</time>
      </trkpt>
      <trkpt lat="48.21407" lon="-3.14605">
        <ele>135.60000610352</ele>
        <time>2020-10-19T10:23:29.000Z</time>
      </trkpt>
      <trkpt lat="48.21407" lon="-3.14607">
        <ele>135.60000610352</ele>
        <time>2020-10-19T10:23:30.000Z</time>
      </trkpt>
      <trkpt lat="48.21407" lon="-3.14608">
        <ele>135.60000610352</ele>
        <time>2020-10-19T10:23:31.000Z</time>
      </trkpt>
      <trkpt lat="48.21406" lon="-3.1461">
        <ele>135.60000610352</ele>
        <time>2020-10-19T10:23:32.000Z</time>
      </trkpt>
      <trkpt lat="48.21406" lon="-3.14612">
        <ele>135.60000610352</ele>
        <time>2020-10-19T10:23:33.000Z</time>
      </trkpt>
      <trkpt lat="48.21406" lon="-3.14614">
        <ele>135.60000610352</ele>
        <time>2020-10-19T10:23:34.000Z</time>
      </trkpt>
      <trkpt lat="48.21406" lon="-3.14616">
        <ele>135.60000610352</ele>
        <time>2020-10-19T10:23:35.000Z</time>
      </trkpt>
      <trkpt lat="48.21406" lon="-3.14618">
        <ele>135.39999389648</ele>
        <time>2020-10-19T10:23:36.000Z</time>
      </trkpt>
      <trkpt lat="48.21406" lon="-3.14619">
        <ele>135.39999389648</ele>
        <time>2020-10-19T10:23:37.000Z</time>
      </trkpt>
      <trkpt lat="48.21406" lon="-3.14621">
        <ele>135.39999389648</ele>
        <time>2020-10-19T10:23:38.000Z</time>
      </trkpt>
      <trkpt lat="48.21406" lon="-3.14622">
        <ele>135.39999389648</ele>
        <time>2020-10-19T10:23:39.000Z</time>
      </trkpt>
      <trkpt lat="48.21406" lon="-3.14624">
        <ele>135.39999389648</ele>
        <time>2020-10-19T10:23:40.000Z</time>
      </trkpt>
      <trkpt lat="48.21406" lon="-3.14626">
        <ele>135.39999389648</ele>
        <time>2020-10-19T10:23:41.000Z</time>
      </trkpt>
      <trkpt lat="48.21406" lon="-3.14627">
        <ele>135.39999389648</ele>
        <time>2020-10-19T10:23:42.000Z</time>
      </trkpt>
      <trkpt lat="48.21406" lon="-3.14629">
        <ele>135.39999389648</ele>
        <time>2020-10-19T10:23:43.000Z</time>
      </trkpt>
      <trkpt lat="48.21405" lon="-3.14631">
        <ele>135.39999389648</ele>
        <time>2020-10-19T10:23:44.000Z</time>
      </trkpt>
      <trkpt lat="48.21405" lon="-3.14633">
        <ele>135.39999389648</ele>
        <time>2020-10-19T10:23:45.000Z</time>
      </trkpt>
      <trkpt lat="48.21405" lon="-3.14635">
        <ele>135.39999389648</ele>
        <time>2020-10-19T10:23:46.000Z</time>
      </trkpt>
      <trkpt lat="48.21405" lon="-3.14636">
        <ele>135.60000610352</ele>
        <time>2020-10-19T10:23:47.000Z</time>
      </trkpt>
      <trkpt lat="48.21404" lon="-3.14638">
        <ele>135.60000610352</ele>
        <time>2020-10-19T10:23:48.000Z</time>
      </trkpt>
      <trkpt lat="48.21404" lon="-3.1464">
        <ele>135.60000610352</ele>
        <time>2020-10-19T10:23:49.000Z</time>
      </trkpt>
      <trkpt lat="48.21404" lon="-3.14641">
        <ele>135.60000610352</ele>
        <time>2020-10-19T10:23:50.000Z</time>
      </trkpt>
      <trkpt lat="48.21403" lon="-3.14643">
        <ele>135.60000610352</ele>
        <time>2020-10-19T10:23:51.000Z</time>
      </trkpt>
      <trkpt lat="48.21403" lon="-3.14644">
        <ele>135.60000610352</ele>
        <time>2020-10-19T10:23:52.000Z</time>
      </trkpt>
      <trkpt lat="48.21403" lon="-3.14646">
        <ele>135.60000610352</ele>
        <time>2020-10-19T10:23:53.000Z</time>
      </trkpt>
      <trkpt lat="48.21403" lon="-3.14648">
        <ele>135.80000305176</ele>
        <time>2020-10-19T10:23:54.000Z</time>
      </trkpt>
      <trkpt lat="48.21403" lon="-3.1465">
        <ele>135.60000610352</ele>
        <time>2020-10-19T10:23:55.000Z</time>
      </trkpt>
      <trkpt lat="48.21402" lon="-3.14651">
        <ele>135.80000305176</ele>
        <time>2020-10-19T10:23:56.000Z</time>
      </trkpt>
      <trkpt lat="48.21402" lon="-3.14653">
        <ele>135.80000305176</ele>
        <time>2020-10-19T10:23:57.000Z</time>
      </trkpt>
      <trkpt lat="48.21402" lon="-3.14655">
        <ele>135.60000610352</ele>
        <time>2020-10-19T10:23:58.000Z</time>
      </trkpt>
      <trkpt lat="48.21402" lon="-3.14657">
        <ele>135.60000610352</ele>
        <time>2020-10-19T10:23:59.000Z</time>
      </trkpt>
      <trkpt lat="48.21402" lon="-3.14659">
        <ele>135.60000610352</ele>
        <time>2020-10-19T10:24:00.000Z</time>
      </trkpt>
      <trkpt lat="48.21402" lon="-3.14661">
        <ele>135.60000610352</ele>
        <time>2020-10-19T10:24:01.000Z</time>
      </trkpt>
      <trkpt lat="48.21402" lon="-3.14663">
        <ele>135.60000610352</ele>
        <time>2020-10-19T10:24:02.000Z</time>
      </trkpt>
      <trkpt lat="48.21401" lon="-3.14665">
        <ele>135.80000305176</ele>
        <time>2020-10-19T10:24:03.000Z</time>
      </trkpt>
      <trkpt lat="48.21401" lon="-3.14666">
        <ele>135.80000305176</ele>
        <time>2020-10-19T10:24:04.000Z</time>
      </trkpt>
      <trkpt lat="48.21401" lon="-3.14668">
        <ele>135.80000305176</ele>
        <time>2020-10-19T10:24:05.000Z</time>
      </trkpt>
      <trkpt lat="48.214" lon="-3.1467">
        <ele>135.80000305176</ele>
        <time>2020-10-19T10:24:06.000Z</time>
      </trkpt>
      <trkpt lat="48.214" lon="-3.14672">
        <ele>135.80000305176</ele>
        <time>2020-10-19T10:24:07.000Z</time>
      </trkpt>
      <trkpt lat="48.21399" lon="-3.14674">
        <ele>136</ele>
        <time>2020-10-19T10:24:08.000Z</time>
      </trkpt>
      <trkpt lat="48.21399" lon="-3.14675">
        <ele>136</ele>
        <time>2020-10-19T10:24:09.000Z</time>
      </trkpt>
      <trkpt lat="48.21399" lon="-3.14677">
        <ele>136</ele>
        <time>2020-10-19T10:24:10.000Z</time>
      </trkpt>
      <trkpt lat="48.21399" lon="-3.14678">
        <ele>136</ele>
        <time>2020-10-19T10:24:11.000Z</time>
      </trkpt>
      <trkpt lat="48.21399" lon="-3.1468">
        <ele>135.80000305176</ele>
        <time>2020-10-19T10:24:12.000Z</time>
      </trkpt>
      <trkpt lat="48.21399" lon="-3.14682">
        <ele>135.80000305176</ele>
        <time>2020-10-19T10:24:13.000Z</time>
      </trkpt>
      <trkpt lat="48.21399" lon="-3.14683">
        <ele>135.80000305176</ele>
        <time>2020-10-19T10:24:14.000Z</time>
      </trkpt>
      <trkpt lat="48.21398" lon="-3.14685">
        <ele>135.80000305176</ele>
        <time>2020-10-19T10:24:15.000Z</time>
      </trkpt>
      <trkpt lat="48.21398" lon="-3.14686">
        <ele>135.80000305176</ele>
        <time>2020-10-19T10:24:16.000Z</time>
      </trkpt>
      <trkpt lat="48.21398" lon="-3.14688">
        <ele>135.80000305176</ele>
        <time>2020-10-19T10:24:17.000Z</time>
      </trkpt>
      <trkpt lat="48.21397" lon="-3.14689">
        <ele>135.60000610352</ele>
        <time>2020-10-19T10:24:18.000Z</time>
      </trkpt>
      <trkpt lat="48.21397" lon="-3.14691">
        <ele>135.60000610352</ele>
        <time>2020-10-19T10:24:19.000Z</time>
      </trkpt>
      <trkpt lat="48.21396" lon="-3.14693">
        <ele>135.60000610352</ele>
        <time>2020-10-19T10:24:20.000Z</time>
      </trkpt>
      <trkpt lat="48.21396" lon="-3.14694">
        <ele>135.60000610352</ele>
        <time>2020-10-19T10:24:21.000Z</time>
      </trkpt>
      <trkpt lat="48.21396" lon="-3.14696">
        <ele>135.60000610352</ele>
        <time>2020-10-19T10:24:22.000Z</time>
      </trkpt>
      <trkpt lat="48.21396" lon="-3.14698">
        <ele>135.60000610352</ele>
        <time>2020-10-19T10:24:23.000Z</time>
      </trkpt>
      <trkpt lat="48.21395" lon="-3.147">
        <ele>135.60000610352</ele>
        <time>2020-10-19T10:24:24.000Z</time>
      </trkpt>
      <trkpt lat="48.21395" lon="-3.14701">
        <ele>135.60000610352</ele>
        <time>2020-10-19T10:24:25.000Z</time>
      </trkpt>
      <trkpt lat="48.21394" lon="-3.14703">
        <ele>135.60000610352</ele>
        <time>2020-10-19T10:24:26.000Z</time>
      </trkpt>
      <trkpt lat="48.21394" lon="-3.14704">
        <ele>135.60000610352</ele>
        <time>2020-10-19T10:24:27.000Z</time>
      </trkpt>
      <trkpt lat="48.21394" lon="-3.14706">
        <ele>135.39999389648</ele>
        <time>2020-10-19T10:24:28.000Z</time>
      </trkpt>
      <trkpt lat="48.21393" lon="-3.14708">
        <ele>135.39999389648</ele>
        <time>2020-10-19T10:24:29.000Z</time>
      </trkpt>
      <trkpt lat="48.21393" lon="-3.14709">
        <ele>135.39999389648</ele>
        <time>2020-10-19T10:24:30.000Z</time>
      </trkpt>
      <trkpt lat="48.21393" lon="-3.14711">
        <ele>135.39999389648</ele>
        <time>2020-10-19T10:24:31.000Z</time>
      </trkpt>
      <trkpt lat="48.21392" lon="-3.14713">
        <ele>135.39999389648</ele>
        <time>2020-10-19T10:24:32.000Z</time>
      </trkpt>
      <trkpt lat="48.21392" lon="-3.14715">
        <ele>135.39999389648</ele>
        <time>2020-10-19T10:24:33.000Z</time>
      </trkpt>
      <trkpt lat="48.21392" lon="-3.14717">
        <ele>135.39999389648</ele>
        <time>2020-10-19T10:24:34.000Z</time>
      </trkpt>
      <trkpt lat="48.21391" lon="-3.14719">
        <ele>135.39999389648</ele>
        <time>2020-10-19T10:24:35.000Z</time>
      </trkpt>
      <trkpt lat="48.21391" lon="-3.1472">
        <ele>135.39999389648</ele>
        <time>2020-10-19T10:24:36.000Z</time>
      </trkpt>
      <trkpt lat="48.21391" lon="-3.14722">
        <ele>135.39999389648</ele>
        <time>2020-10-19T10:24:37.000Z</time>
      </trkpt>
      <trkpt lat="48.21391" lon="-3.14724">
        <ele>135.39999389648</ele>
        <time>2020-10-19T10:24:38.000Z</time>
      </trkpt>
      <trkpt lat="48.2139" lon="-3.14725">
        <ele>135.60000610352</ele>
        <time>2020-10-19T10:24:39.000Z</time>
      </trkpt>
      <trkpt lat="48.2139" lon="-3.14727">
        <ele>135.60000610352</ele>
        <time>2020-10-19T10:24:40.000Z</time>
      </trkpt>
      <trkpt lat="48.2139" lon="-3.14728">
        <ele>135.60000610352</ele>
        <time>2020-10-19T10:24:41.000Z</time>
      </trkpt>
      <trkpt lat="48.21389" lon="-3.1473">
        <ele>135.60000610352</ele>
        <time>2020-10-19T10:24:42.000Z</time>
      </trkpt>
      <trkpt lat="48.21389" lon="-3.14732">
        <ele>135.60000610352</ele>
        <time>2020-10-19T10:24:43.000Z</time>
      </trkpt>
      <trkpt lat="48.21388" lon="-3.14734">
        <ele>135.60000610352</ele>
        <time>2020-10-19T10:24:44.000Z</time>
      </trkpt>
      <trkpt lat="48.21388" lon="-3.14735">
        <ele>135.80000305176</ele>
        <time>2020-10-19T10:24:45.000Z</time>
      </trkpt>
      <trkpt lat="48.21387" lon="-3.14737">
        <ele>135.80000305176</ele>
        <time>2020-10-19T10:24:46.000Z</time>
      </trkpt>
      <trkpt lat="48.21387" lon="-3.14739">
        <ele>135.80000305176</ele>
        <time>2020-10-19T10:24:47.000Z</time>
      </trkpt>
      <trkpt lat="48.21386" lon="-3.14741">
        <ele>135.80000305176</ele>
        <time>2020-10-19T10:24:48.000Z</time>
      </trkpt>
      <trkpt lat="48.21386" lon="-3.14742">
        <ele>135.80000305176</ele>
        <time>2020-10-19T10:24:49.000Z</time>
      </trkpt>
      <trkpt lat="48.21386" lon="-3.14744">
        <ele>135.80000305176</ele>
        <time>2020-10-19T10:24:50.000Z</time>
      </trkpt>
      <trkpt lat="48.21385" lon="-3.14745">
        <ele>136</ele>
        <time>2020-10-19T10:24:51.000Z</time>
      </trkpt>
      <trkpt lat="48.21385" lon="-3.14747">
        <ele>136</ele>
        <time>2020-10-19T10:24:52.000Z</time>
      </trkpt>
      <trkpt lat="48.21385" lon="-3.14748">
        <ele>136</ele>
        <time>2020-10-19T10:24:53.000Z</time>
      </trkpt>
      <trkpt lat="48.21385" lon="-3.1475">
        <ele>136</ele>
        <time>2020-10-19T10:24:54.000Z</time>
      </trkpt>
      <trkpt lat="48.21385" lon="-3.14751">
        <ele>136</ele>
        <time>2020-10-19T10:24:55.000Z</time>
      </trkpt>
      <trkpt lat="48.21384" lon="-3.14753">
        <ele>136</ele>
        <time>2020-10-19T10:24:56.000Z</time>
      </trkpt>
      <trkpt lat="48.21384" lon="-3.14755">
        <ele>136</ele>
        <time>2020-10-19T10:24:57.000Z</time>
      </trkpt>
      <trkpt lat="48.21383" lon="-3.14756">
        <ele>136</ele>
        <time>2020-10-19T10:24:58.000Z</time>
      </trkpt>
      <trkpt lat="48.21383" lon="-3.14758">
        <ele>136</ele>
        <time>2020-10-19T10:24:59.000Z</time>
      </trkpt>
      <trkpt lat="48.21382" lon="-3.14759">
        <ele>136.19999694824</ele>
        <time>2020-10-19T10:25:00.000Z</time>
      </trkpt>
      <trkpt lat="48.21381" lon="-3.14763">
        <ele>136.19999694824</ele>
        <time>2020-10-19T10:25:01.000Z</time>
      </trkpt>
      <trkpt lat="48.21381" lon="-3.14763">
        <ele>136.19999694824</ele>
        <time>2020-10-19T10:25:02.000Z</time>
      </trkpt>
      <trkpt lat="48.2138" lon="-3.14764">
        <ele>136.19999694824</ele>
        <time>2020-10-19T10:25:03.000Z</time>
      </trkpt>
      <trkpt lat="48.2138" lon="-3.14766">
        <ele>136</ele>
        <time>2020-10-19T10:25:04.000Z</time>
      </trkpt>
      <trkpt lat="48.21379" lon="-3.14768">
        <ele>136</ele>
        <time>2020-10-19T10:25:05.000Z</time>
      </trkpt>
      <trkpt lat="48.21379" lon="-3.14769">
        <ele>136</ele>
        <time>2020-10-19T10:25:06.000Z</time>
      </trkpt>
      <trkpt lat="48.21378" lon="-3.14771">
        <ele>136</ele>
        <time>2020-10-19T10:25:07.000Z</time>
      </trkpt>
      <trkpt lat="48.21378" lon="-3.14772">
        <ele>135.80000305176</ele>
        <time>2020-10-19T10:25:08.000Z</time>
      </trkpt>
      <trkpt lat="48.21377" lon="-3.14774">
        <ele>135.80000305176</ele>
        <time>2020-10-19T10:25:09.000Z</time>
      </trkpt>
      <trkpt lat="48.21377" lon="-3.14775">
        <ele>135.80000305176</ele>
        <time>2020-10-19T10:25:10.000Z</time>
      </trkpt>
      <trkpt lat="48.21377" lon="-3.14777">
        <ele>135.60000610352</ele>
        <time>2020-10-19T10:25:11.000Z</time>
      </trkpt>
      <trkpt lat="48.21376" lon="-3.14779">
        <ele>135.60000610352</ele>
        <time>2020-10-19T10:25:12.000Z</time>
      </trkpt>
      <trkpt lat="48.21376" lon="-3.14781">
        <ele>135.39999389648</ele>
        <time>2020-10-19T10:25:13.000Z</time>
      </trkpt>
      <trkpt lat="48.21376" lon="-3.14783">
        <ele>135.39999389648</ele>
        <time>2020-10-19T10:25:14.000Z</time>
      </trkpt>
      <trkpt lat="48.21375" lon="-3.14784">
        <ele>135.39999389648</ele>
        <time>2020-10-19T10:25:15.000Z</time>
      </trkpt>
      <trkpt lat="48.21375" lon="-3.14786">
        <ele>135.19999694824</ele>
        <time>2020-10-19T10:25:16.000Z</time>
      </trkpt>
      <trkpt lat="48.21374" lon="-3.1479">
        <ele>135.19999694824</ele>
        <time>2020-10-19T10:25:17.000Z</time>
      </trkpt>
      <trkpt lat="48.21374" lon="-3.1479">
        <ele>135.19999694824</ele>
        <time>2020-10-19T10:25:18.000Z</time>
      </trkpt>
      <trkpt lat="48.21373" lon="-3.14791">
        <ele>135.19999694824</ele>
        <time>2020-10-19T10:25:19.000Z</time>
      </trkpt>
      <trkpt lat="48.21373" lon="-3.14793">
        <ele>135</ele>
        <time>2020-10-19T10:25:20.000Z</time>
      </trkpt>
      <trkpt lat="48.21372" lon="-3.14794">
        <ele>135</ele>
        <time>2020-10-19T10:25:21.000Z</time>
      </trkpt>
      <trkpt lat="48.21372" lon="-3.14796">
        <ele>135</ele>
        <time>2020-10-19T10:25:22.000Z</time>
      </trkpt>
      <trkpt lat="48.21371" lon="-3.14797">
        <ele>135</ele>
        <time>2020-10-19T10:25:23.000Z</time>
      </trkpt>
      <trkpt lat="48.2137" lon="-3.14799">
        <ele>135</ele>
        <time>2020-10-19T10:25:24.000Z</time>
      </trkpt>
      <trkpt lat="48.2137" lon="-3.148">
        <ele>135</ele>
        <time>2020-10-19T10:25:25.000Z</time>
      </trkpt>
      <trkpt lat="48.21369" lon="-3.14802">
        <ele>134.80000305176</ele>
        <time>2020-10-19T10:25:26.000Z</time>
      </trkpt>
      <trkpt lat="48.21369" lon="-3.14803">
        <ele>134.80000305176</ele>
        <time>2020-10-19T10:25:27.000Z</time>
      </trkpt>
      <trkpt lat="48.21368" lon="-3.14805">
        <ele>134.80000305176</ele>
        <time>2020-10-19T10:25:28.000Z</time>
      </trkpt>
      <trkpt lat="48.21368" lon="-3.14807">
        <ele>134.80000305176</ele>
        <time>2020-10-19T10:25:29.000Z</time>
      </trkpt>
      <trkpt lat="48.21367" lon="-3.14808">
        <ele>134.80000305176</ele>
        <time>2020-10-19T10:25:30.000Z</time>
      </trkpt>
      <trkpt lat="48.21366" lon="-3.1481">
        <ele>134.60000610352</ele>
        <time>2020-10-19T10:25:31.000Z</time>
      </trkpt>
      <trkpt lat="48.21366" lon="-3.14812">
        <ele>134.60000610352</ele>
        <time>2020-10-19T10:25:32.000Z</time>
      </trkpt>
      <trkpt lat="48.21365" lon="-3.14813">
        <ele>134.60000610352</ele>
        <time>2020-10-19T10:25:33.000Z</time>
      </trkpt>
      <trkpt lat="48.21365" lon="-3.14815">
        <ele>134.60000610352</ele>
        <time>2020-10-19T10:25:34.000Z</time>
      </trkpt>
      <trkpt lat="48.21364" lon="-3.14816">
        <ele>134.39999389648</ele>
        <time>2020-10-19T10:25:35.000Z</time>
      </trkpt>
      <trkpt lat="48.21364" lon="-3.14818">
        <ele>134.39999389648</ele>
        <time>2020-10-19T10:25:36.000Z</time>
      </trkpt>
      <trkpt lat="48.21363" lon="-3.1482">
        <ele>134.39999389648</ele>
        <time>2020-10-19T10:25:37.000Z</time>
      </trkpt>
      <trkpt lat="48.21363" lon="-3.14822">
        <ele>134.19999694824</ele>
        <time>2020-10-19T10:25:38.000Z</time>
      </trkpt>
      <trkpt lat="48.21362" lon="-3.14823">
        <ele>134.19999694824</ele>
        <time>2020-10-19T10:25:39.000Z</time>
      </trkpt>
      <trkpt lat="48.21362" lon="-3.14825">
        <ele>134.19999694824</ele>
        <time>2020-10-19T10:25:40.000Z</time>
      </trkpt>
      <trkpt lat="48.21361" lon="-3.14827">
        <ele>134.19999694824</ele>
        <time>2020-10-19T10:25:41.000Z</time>
      </trkpt>
      <trkpt lat="48.21361" lon="-3.14828">
        <ele>134</ele>
        <time>2020-10-19T10:25:42.000Z</time>
      </trkpt>
      <trkpt lat="48.2136" lon="-3.1483">
        <ele>134</ele>
        <time>2020-10-19T10:25:43.000Z</time>
      </trkpt>
      <trkpt lat="48.2136" lon="-3.14832">
        <ele>134.19999694824</ele>
        <time>2020-10-19T10:25:44.000Z</time>
      </trkpt>
      <trkpt lat="48.21359" lon="-3.14833">
        <ele>134.19999694824</ele>
        <time>2020-10-19T10:25:45.000Z</time>
      </trkpt>
      <trkpt lat="48.21359" lon="-3.14835">
        <ele>134.19999694824</ele>
        <time>2020-10-19T10:25:46.000Z</time>
      </trkpt>
      <trkpt lat="48.21359" lon="-3.14836">
        <ele>134.19999694824</ele>
        <time>2020-10-19T10:25:47.000Z</time>
      </trkpt>
      <trkpt lat="48.21358" lon="-3.14838">
        <ele>134.19999694824</ele>
        <time>2020-10-19T10:25:48.000Z</time>
      </trkpt>
      <trkpt lat="48.21358" lon="-3.14839">
        <ele>134.19999694824</ele>
        <time>2020-10-19T10:25:49.000Z</time>
      </trkpt>
      <trkpt lat="48.21357" lon="-3.14842">
        <ele>134.39999389648</ele>
        <time>2020-10-19T10:25:50.000Z</time>
      </trkpt>
      <trkpt lat="48.21357" lon="-3.14842">
        <ele>134.39999389648</ele>
        <time>2020-10-19T10:25:51.000Z</time>
      </trkpt>
      <trkpt lat="48.21356" lon="-3.14843">
        <ele>134.39999389648</ele>
        <time>2020-10-19T10:25:52.000Z</time>
      </trkpt>
      <trkpt lat="48.21356" lon="-3.14845">
        <ele>134.39999389648</ele>
        <time>2020-10-19T10:25:53.000Z</time>
      </trkpt>
      <trkpt lat="48.21356" lon="-3.14846">
        <ele>134.19999694824</ele>
        <time>2020-10-19T10:25:54.000Z</time>
      </trkpt>
      <trkpt lat="48.21354" lon="-3.1485">
        <ele>134.19999694824</ele>
        <time>2020-10-19T10:25:55.000Z</time>
      </trkpt>
      <trkpt lat="48.21354" lon="-3.1485">
        <ele>134.19999694824</ele>
        <time>2020-10-19T10:25:56.000Z</time>
      </trkpt>
      <trkpt lat="48.21354" lon="-3.14851">
        <ele>134.19999694824</ele>
        <time>2020-10-19T10:25:57.000Z</time>
      </trkpt>
      <trkpt lat="48.21353" lon="-3.14853">
        <ele>134.19999694824</ele>
        <time>2020-10-19T10:25:58.000Z</time>
      </trkpt>
      <trkpt lat="48.21353" lon="-3.14854">
        <ele>134</ele>
        <time>2020-10-19T10:25:59.000Z</time>
      </trkpt>
      <trkpt lat="48.21352" lon="-3.14856">
        <ele>134</ele>
        <time>2020-10-19T10:26:00.000Z</time>
      </trkpt>
      <trkpt lat="48.21352" lon="-3.14859">
        <ele>133.80000305176</ele>
        <time>2020-10-19T10:26:01.000Z</time>
      </trkpt>
      <trkpt lat="48.21352" lon="-3.14859">
        <ele>133.80000305176</ele>
        <time>2020-10-19T10:26:02.000Z</time>
      </trkpt>
      <trkpt lat="48.21352" lon="-3.1486">
        <ele>133.80000305176</ele>
        <time>2020-10-19T10:26:03.000Z</time>
      </trkpt>
      <trkpt lat="48.21351" lon="-3.14862">
        <ele>133.80000305176</ele>
        <time>2020-10-19T10:26:04.000Z</time>
      </trkpt>
      <trkpt lat="48.21351" lon="-3.14864">
        <ele>133.80000305176</ele>
        <time>2020-10-19T10:26:05.000Z</time>
      </trkpt>
      <trkpt lat="48.21351" lon="-3.14865">
        <ele>133.60000610352</ele>
        <time>2020-10-19T10:26:06.000Z</time>
      </trkpt>
      <trkpt lat="48.21351" lon="-3.14866">
        <ele>133.60000610352</ele>
        <time>2020-10-19T10:26:07.000Z</time>
      </trkpt>
      <trkpt lat="48.2135" lon="-3.14868">
        <ele>133.60000610352</ele>
        <time>2020-10-19T10:26:08.000Z</time>
      </trkpt>
      <trkpt lat="48.2135" lon="-3.14869">
        <ele>133.60000610352</ele>
        <time>2020-10-19T10:26:09.000Z</time>
      </trkpt>
      <trkpt lat="48.21349" lon="-3.14871">
        <ele>133.39999389648</ele>
        <time>2020-10-19T10:26:10.000Z</time>
      </trkpt>
      <trkpt lat="48.21349" lon="-3.14872">
        <ele>133.39999389648</ele>
        <time>2020-10-19T10:26:11.000Z</time>
      </trkpt>
      <trkpt lat="48.21348" lon="-3.14874">
        <ele>133.39999389648</ele>
        <time>2020-10-19T10:26:12.000Z</time>
      </trkpt>
      <trkpt lat="48.21348" lon="-3.14875">
        <ele>133.39999389648</ele>
        <time>2020-10-19T10:26:13.000Z</time>
      </trkpt>
      <trkpt lat="48.21347" lon="-3.14877">
        <ele>133.39999389648</ele>
        <time>2020-10-19T10:26:14.000Z</time>
      </trkpt>
      <trkpt lat="48.21346" lon="-3.14879">
        <ele>133.19999694824</ele>
        <time>2020-10-19T10:26:15.000Z</time>
      </trkpt>
      <trkpt lat="48.21346" lon="-3.14881">
        <ele>133.19999694824</ele>
        <time>2020-10-19T10:26:16.000Z</time>
      </trkpt>
      <trkpt lat="48.21346" lon="-3.14883">
        <ele>133.19999694824</ele>
        <time>2020-10-19T10:26:17.000Z</time>
      </trkpt>
      <trkpt lat="48.21345" lon="-3.14885">
        <ele>133</ele>
        <time>2020-10-19T10:26:18.000Z</time>
      </trkpt>
      <trkpt lat="48.21344" lon="-3.14886">
        <ele>133.19999694824</ele>
        <time>2020-10-19T10:26:19.000Z</time>
      </trkpt>
      <trkpt lat="48.21344" lon="-3.14888">
        <ele>133.19999694824</ele>
        <time>2020-10-19T10:26:20.000Z</time>
      </trkpt>
      <trkpt lat="48.21343" lon="-3.1489">
        <ele>133.19999694824</ele>
        <time>2020-10-19T10:26:21.000Z</time>
      </trkpt>
      <trkpt lat="48.21342" lon="-3.14891">
        <ele>133.19999694824</ele>
        <time>2020-10-19T10:26:22.000Z</time>
      </trkpt>
      <trkpt lat="48.21342" lon="-3.14893">
        <ele>133.19999694824</ele>
        <time>2020-10-19T10:26:23.000Z</time>
      </trkpt>
      <trkpt lat="48.21341" lon="-3.14895">
        <ele>133.19999694824</ele>
        <time>2020-10-19T10:26:24.000Z</time>
      </trkpt>
      <trkpt lat="48.2134" lon="-3.14898">
        <ele>133.19999694824</ele>
        <time>2020-10-19T10:26:25.000Z</time>
      </trkpt>
      <trkpt lat="48.2134" lon="-3.14898">
        <ele>133.19999694824</ele>
        <time>2020-10-19T10:26:26.000Z</time>
      </trkpt>
      <trkpt lat="48.2134" lon="-3.149">
        <ele>133.19999694824</ele>
        <time>2020-10-19T10:26:27.000Z</time>
      </trkpt>
      <trkpt lat="48.21339" lon="-3.14901">
        <ele>133.19999694824</ele>
        <time>2020-10-19T10:26:28.000Z</time>
      </trkpt>
      <trkpt lat="48.21339" lon="-3.14903">
        <ele>133.39999389648</ele>
        <time>2020-10-19T10:26:29.000Z</time>
      </trkpt>
      <trkpt lat="48.21338" lon="-3.14904">
        <ele>133.39999389648</ele>
        <time>2020-10-19T10:26:30.000Z</time>
      </trkpt>
      <trkpt lat="48.21337" lon="-3.14906">
        <ele>133.39999389648</ele>
        <time>2020-10-19T10:26:31.000Z</time>
      </trkpt>
      <trkpt lat="48.21337" lon="-3.14908">
        <ele>133.39999389648</ele>
        <time>2020-10-19T10:26:32.000Z</time>
      </trkpt>
      <trkpt lat="48.21337" lon="-3.14909">
        <ele>133.19999694824</ele>
        <time>2020-10-19T10:26:33.000Z</time>
      </trkpt>
      <trkpt lat="48.21337" lon="-3.14911">
        <ele>133.19999694824</ele>
        <time>2020-10-19T10:26:34.000Z</time>
      </trkpt>
      <trkpt lat="48.21336" lon="-3.14913">
        <ele>133.19999694824</ele>
        <time>2020-10-19T10:26:35.000Z</time>
      </trkpt>
      <trkpt lat="48.21335" lon="-3.14914">
        <ele>133.19999694824</ele>
        <time>2020-10-19T10:26:36.000Z</time>
      </trkpt>
      <trkpt lat="48.21335" lon="-3.14916">
        <ele>133.39999389648</ele>
        <time>2020-10-19T10:26:37.000Z</time>
      </trkpt>
      <trkpt lat="48.21334" lon="-3.14917">
        <ele>133.39999389648</ele>
        <time>2020-10-19T10:26:38.000Z</time>
      </trkpt>
      <trkpt lat="48.21334" lon="-3.14919">
        <ele>133.39999389648</ele>
        <time>2020-10-19T10:26:39.000Z</time>
      </trkpt>
      <trkpt lat="48.21333" lon="-3.1492">
        <ele>133.39999389648</ele>
        <time>2020-10-19T10:26:40.000Z</time>
      </trkpt>
      <trkpt lat="48.21333" lon="-3.14922">
        <ele>133.39999389648</ele>
        <time>2020-10-19T10:26:41.000Z</time>
      </trkpt>
      <trkpt lat="48.21332" lon="-3.14924">
        <ele>133.39999389648</ele>
        <time>2020-10-19T10:26:42.000Z</time>
      </trkpt>
      <trkpt lat="48.21332" lon="-3.14925">
        <ele>133.39999389648</ele>
        <time>2020-10-19T10:26:43.000Z</time>
      </trkpt>
      <trkpt lat="48.21331" lon="-3.14927">
        <ele>133.39999389648</ele>
        <time>2020-10-19T10:26:44.000Z</time>
      </trkpt>
      <trkpt lat="48.21331" lon="-3.14929">
        <ele>133.39999389648</ele>
        <time>2020-10-19T10:26:45.000Z</time>
      </trkpt>
      <trkpt lat="48.2133" lon="-3.14931">
        <ele>133.19999694824</ele>
        <time>2020-10-19T10:26:46.000Z</time>
      </trkpt>
      <trkpt lat="48.2133" lon="-3.14933">
        <ele>133.19999694824</ele>
        <time>2020-10-19T10:26:47.000Z</time>
      </trkpt>
      <trkpt lat="48.21329" lon="-3.14935">
        <ele>133</ele>
        <time>2020-10-19T10:26:48.000Z</time>
      </trkpt>
      <trkpt lat="48.21329" lon="-3.14937">
        <ele>132.80000305176</ele>
        <time>2020-10-19T10:26:49.000Z</time>
      </trkpt>
      <trkpt lat="48.21329" lon="-3.14939">
        <ele>132.80000305176</ele>
        <time>2020-10-19T10:26:50.000Z</time>
      </trkpt>
      <trkpt lat="48.21328" lon="-3.14941">
        <ele>132.60000610352</ele>
        <time>2020-10-19T10:26:51.000Z</time>
      </trkpt>
      <trkpt lat="48.21328" lon="-3.14942">
        <ele>132.39999389648</ele>
        <time>2020-10-19T10:26:52.000Z</time>
      </trkpt>
      <trkpt lat="48.21328" lon="-3.14944">
        <ele>132.39999389648</ele>
        <time>2020-10-19T10:26:53.000Z</time>
      </trkpt>
      <trkpt lat="48.21328" lon="-3.14946">
        <ele>132.19999694824</ele>
        <time>2020-10-19T10:26:54.000Z</time>
      </trkpt>
      <trkpt lat="48.21327" lon="-3.14947">
        <ele>132.19999694824</ele>
        <time>2020-10-19T10:26:55.000Z</time>
      </trkpt>
      <trkpt lat="48.21327" lon="-3.14949">
        <ele>132.19999694824</ele>
        <time>2020-10-19T10:26:56.000Z</time>
      </trkpt>
      <trkpt lat="48.21327" lon="-3.14951">
        <ele>132.19999694824</ele>
        <time>2020-10-19T10:26:57.000Z</time>
      </trkpt>
      <trkpt lat="48.21327" lon="-3.14952">
        <ele>132.19999694824</ele>
        <time>2020-10-19T10:26:58.000Z</time>
      </trkpt>
      <trkpt lat="48.21326" lon="-3.14954">
        <ele>132.19999694824</ele>
        <time>2020-10-19T10:26:59.000Z</time>
      </trkpt>
      <trkpt lat="48.21326" lon="-3.14955">
        <ele>132.19999694824</ele>
        <time>2020-10-19T10:27:00.000Z</time>
      </trkpt>
      <trkpt lat="48.21325" lon="-3.14959">
        <ele>132.19999694824</ele>
        <time>2020-10-19T10:27:01.000Z</time>
      </trkpt>
      <trkpt lat="48.21325" lon="-3.14959">
        <ele>132.19999694824</ele>
        <time>2020-10-19T10:27:02.000Z</time>
      </trkpt>
      <trkpt lat="48.21325" lon="-3.1496">
        <ele>132.19999694824</ele>
        <time>2020-10-19T10:27:03.000Z</time>
      </trkpt>
      <trkpt lat="48.21325" lon="-3.14962">
        <ele>132.19999694824</ele>
        <time>2020-10-19T10:27:04.000Z</time>
      </trkpt>
      <trkpt lat="48.21325" lon="-3.14964">
        <ele>132.19999694824</ele>
        <time>2020-10-19T10:27:05.000Z</time>
      </trkpt>
      <trkpt lat="48.21325" lon="-3.14965">
        <ele>132.19999694824</ele>
        <time>2020-10-19T10:27:06.000Z</time>
      </trkpt>
      <trkpt lat="48.21325" lon="-3.14967">
        <ele>132.19999694824</ele>
        <time>2020-10-19T10:27:07.000Z</time>
      </trkpt>
      <trkpt lat="48.21325" lon="-3.14969">
        <ele>132.19999694824</ele>
        <time>2020-10-19T10:27:08.000Z</time>
      </trkpt>
      <trkpt lat="48.21325" lon="-3.1497">
        <ele>132.19999694824</ele>
        <time>2020-10-19T10:27:09.000Z</time>
      </trkpt>
      <trkpt lat="48.21325" lon="-3.14972">
        <ele>132.19999694824</ele>
        <time>2020-10-19T10:27:10.000Z</time>
      </trkpt>
      <trkpt lat="48.21325" lon="-3.14974">
        <ele>132.19999694824</ele>
        <time>2020-10-19T10:27:11.000Z</time>
      </trkpt>
      <trkpt lat="48.21324" lon="-3.14976">
        <ele>132.19999694824</ele>
        <time>2020-10-19T10:27:12.000Z</time>
      </trkpt>
      <trkpt lat="48.21324" lon="-3.14977">
        <ele>132.19999694824</ele>
        <time>2020-10-19T10:27:13.000Z</time>
      </trkpt>
      <trkpt lat="48.21324" lon="-3.14979">
        <ele>132.19999694824</ele>
        <time>2020-10-19T10:27:14.000Z</time>
      </trkpt>
      <trkpt lat="48.21324" lon="-3.14981">
        <ele>132.19999694824</ele>
        <time>2020-10-19T10:27:15.000Z</time>
      </trkpt>
      <trkpt lat="48.21324" lon="-3.14983">
        <ele>132.19999694824</ele>
        <time>2020-10-19T10:27:16.000Z</time>
      </trkpt>
      <trkpt lat="48.21323" lon="-3.14985">
        <ele>132.19999694824</ele>
        <time>2020-10-19T10:27:17.000Z</time>
      </trkpt>
      <trkpt lat="48.21323" lon="-3.14986">
        <ele>132.19999694824</ele>
        <time>2020-10-19T10:27:18.000Z</time>
      </trkpt>
      <trkpt lat="48.21323" lon="-3.14988">
        <ele>132.19999694824</ele>
        <time>2020-10-19T10:27:19.000Z</time>
      </trkpt>
      <trkpt lat="48.21323" lon="-3.14992">
        <ele>132.19999694824</ele>
        <time>2020-10-19T10:27:20.000Z</time>
      </trkpt>
      <trkpt lat="48.21323" lon="-3.14992">
        <ele>132.19999694824</ele>
        <time>2020-10-19T10:27:21.000Z</time>
      </trkpt>
      <trkpt lat="48.21323" lon="-3.14994">
        <ele>132</ele>
        <time>2020-10-19T10:27:22.000Z</time>
      </trkpt>
      <trkpt lat="48.21323" lon="-3.14995">
        <ele>132</ele>
        <time>2020-10-19T10:27:23.000Z</time>
      </trkpt>
      <trkpt lat="48.21323" lon="-3.14997">
        <ele>132</ele>
        <time>2020-10-19T10:27:24.000Z</time>
      </trkpt>
      <trkpt lat="48.21323" lon="-3.14998">
        <ele>132</ele>
        <time>2020-10-19T10:27:25.000Z</time>
      </trkpt>
      <trkpt lat="48.21323" lon="-3.15">
        <ele>132</ele>
        <time>2020-10-19T10:27:26.000Z</time>
      </trkpt>
      <trkpt lat="48.21323" lon="-3.15001">
        <ele>132</ele>
        <time>2020-10-19T10:27:27.000Z</time>
      </trkpt>
      <trkpt lat="48.21322" lon="-3.15004">
        <ele>132</ele>
        <time>2020-10-19T10:27:28.000Z</time>
      </trkpt>
      <trkpt lat="48.21322" lon="-3.15006">
        <ele>132</ele>
        <time>2020-10-19T10:27:29.000Z</time>
      </trkpt>
      <trkpt lat="48.21322" lon="-3.15007">
        <ele>132</ele>
        <time>2020-10-19T10:27:30.000Z</time>
      </trkpt>
      <trkpt lat="48.21322" lon="-3.15009">
        <ele>132</ele>
        <time>2020-10-19T10:27:31.000Z</time>
      </trkpt>
      <trkpt lat="48.21322" lon="-3.15012">
        <ele>132</ele>
        <time>2020-10-19T10:27:32.000Z</time>
      </trkpt>
      <trkpt lat="48.21322" lon="-3.15012">
        <ele>132</ele>
        <time>2020-10-19T10:27:33.000Z</time>
      </trkpt>
      <trkpt lat="48.21322" lon="-3.15014">
        <ele>131.80000305176</ele>
        <time>2020-10-19T10:27:34.000Z</time>
      </trkpt>
      <trkpt lat="48.21322" lon="-3.15016">
        <ele>131.80000305176</ele>
        <time>2020-10-19T10:27:35.000Z</time>
      </trkpt>
      <trkpt lat="48.21321" lon="-3.15017">
        <ele>131.80000305176</ele>
        <time>2020-10-19T10:27:36.000Z</time>
      </trkpt>
      <trkpt lat="48.21321" lon="-3.15019">
        <ele>131.80000305176</ele>
        <time>2020-10-19T10:27:37.000Z</time>
      </trkpt>
      <trkpt lat="48.21321" lon="-3.15021">
        <ele>131.60000610352</ele>
        <time>2020-10-19T10:27:38.000Z</time>
      </trkpt>
      <trkpt lat="48.21321" lon="-3.15022">
        <ele>131.60000610352</ele>
        <time>2020-10-19T10:27:39.000Z</time>
      </trkpt>
      <trkpt lat="48.21321" lon="-3.15024">
        <ele>131.60000610352</ele>
        <time>2020-10-19T10:27:40.000Z</time>
      </trkpt>
      <trkpt lat="48.21321" lon="-3.15026">
        <ele>131.60000610352</ele>
        <time>2020-10-19T10:27:41.000Z</time>
      </trkpt>
      <trkpt lat="48.21321" lon="-3.15028">
        <ele>131.39999389648</ele>
        <time>2020-10-19T10:27:42.000Z</time>
      </trkpt>
      <trkpt lat="48.2132" lon="-3.15029">
        <ele>131.39999389648</ele>
        <time>2020-10-19T10:27:43.000Z</time>
      </trkpt>
      <trkpt lat="48.2132" lon="-3.15031">
        <ele>131.39999389648</ele>
        <time>2020-10-19T10:27:44.000Z</time>
      </trkpt>
      <trkpt lat="48.2132" lon="-3.15033">
        <ele>131.39999389648</ele>
        <time>2020-10-19T10:27:45.000Z</time>
      </trkpt>
      <trkpt lat="48.2132" lon="-3.15034">
        <ele>131.39999389648</ele>
        <time>2020-10-19T10:27:46.000Z</time>
      </trkpt>
      <trkpt lat="48.21319" lon="-3.15036">
        <ele>131.19999694824</ele>
        <time>2020-10-19T10:27:47.000Z</time>
      </trkpt>
      <trkpt lat="48.21319" lon="-3.15038">
        <ele>131.19999694824</ele>
        <time>2020-10-19T10:27:48.000Z</time>
      </trkpt>
      <trkpt lat="48.21319" lon="-3.1504">
        <ele>131.19999694824</ele>
        <time>2020-10-19T10:27:49.000Z</time>
      </trkpt>
      <trkpt lat="48.21319" lon="-3.15041">
        <ele>131.19999694824</ele>
        <time>2020-10-19T10:27:50.000Z</time>
      </trkpt>
      <trkpt lat="48.21318" lon="-3.15043">
        <ele>131.19999694824</ele>
        <time>2020-10-19T10:27:51.000Z</time>
      </trkpt>
      <trkpt lat="48.21318" lon="-3.15044">
        <ele>131.39999389648</ele>
        <time>2020-10-19T10:27:52.000Z</time>
      </trkpt>
      <trkpt lat="48.21318" lon="-3.15046">
        <ele>131.39999389648</ele>
        <time>2020-10-19T10:27:53.000Z</time>
      </trkpt>
      <trkpt lat="48.21318" lon="-3.15048">
        <ele>131.39999389648</ele>
        <time>2020-10-19T10:27:54.000Z</time>
      </trkpt>
      <trkpt lat="48.21318" lon="-3.15049">
        <ele>131.39999389648</ele>
        <time>2020-10-19T10:27:55.000Z</time>
      </trkpt>
      <trkpt lat="48.21317" lon="-3.15051">
        <ele>131.39999389648</ele>
        <time>2020-10-19T10:27:56.000Z</time>
      </trkpt>
      <trkpt lat="48.21317" lon="-3.15053">
        <ele>131.39999389648</ele>
        <time>2020-10-19T10:27:57.000Z</time>
      </trkpt>
      <trkpt lat="48.21317" lon="-3.15055">
        <ele>131.39999389648</ele>
        <time>2020-10-19T10:27:58.000Z</time>
      </trkpt>
      <trkpt lat="48.21317" lon="-3.15057">
        <ele>131.39999389648</ele>
        <time>2020-10-19T10:27:59.000Z</time>
      </trkpt>
      <trkpt lat="48.21316" lon="-3.15059">
        <ele>131.39999389648</ele>
        <time>2020-10-19T10:28:00.000Z</time>
      </trkpt>
      <trkpt lat="48.21316" lon="-3.1506">
        <ele>131.39999389648</ele>
        <time>2020-10-19T10:28:01.000Z</time>
      </trkpt>
      <trkpt lat="48.21315" lon="-3.15062">
        <ele>131.39999389648</ele>
        <time>2020-10-19T10:28:02.000Z</time>
      </trkpt>
      <trkpt lat="48.21315" lon="-3.15064">
        <ele>131.39999389648</ele>
        <time>2020-10-19T10:28:03.000Z</time>
      </trkpt>
      <trkpt lat="48.21314" lon="-3.15066">
        <ele>131.39999389648</ele>
        <time>2020-10-19T10:28:04.000Z</time>
      </trkpt>
      <trkpt lat="48.21314" lon="-3.15067">
        <ele>131.39999389648</ele>
        <time>2020-10-19T10:28:05.000Z</time>
      </trkpt>
      <trkpt lat="48.21314" lon="-3.15069">
        <ele>131.60000610352</ele>
        <time>2020-10-19T10:28:06.000Z</time>
      </trkpt>
      <trkpt lat="48.21313" lon="-3.1507">
        <ele>131.60000610352</ele>
        <time>2020-10-19T10:28:07.000Z</time>
      </trkpt>
      <trkpt lat="48.21313" lon="-3.15074">
        <ele>131.60000610352</ele>
        <time>2020-10-19T10:28:08.000Z</time>
      </trkpt>
      <trkpt lat="48.21313" lon="-3.15074">
        <ele>131.60000610352</ele>
        <time>2020-10-19T10:28:09.000Z</time>
      </trkpt>
      <trkpt lat="48.21312" lon="-3.15076">
        <ele>131.60000610352</ele>
        <time>2020-10-19T10:28:10.000Z</time>
      </trkpt>
      <trkpt lat="48.21312" lon="-3.15077">
        <ele>131.60000610352</ele>
        <time>2020-10-19T10:28:11.000Z</time>
      </trkpt>
      <trkpt lat="48.21312" lon="-3.15079">
        <ele>131.60000610352</ele>
        <time>2020-10-19T10:28:12.000Z</time>
      </trkpt>
      <trkpt lat="48.21311" lon="-3.15079">
        <ele>131.60000610352</ele>
        <time>2020-10-19T10:28:13.000Z</time>
      </trkpt>
      <trkpt lat="48.21311" lon="-3.1508">
        <ele>131.60000610352</ele>
        <time>2020-10-19T10:28:14.000Z</time>
      </trkpt>
      <trkpt lat="48.21311" lon="-3.15081">
        <ele>131.60000610352</ele>
        <time>2020-10-19T10:28:15.000Z</time>
      </trkpt>
      <trkpt lat="48.21311" lon="-3.15081">
        <ele>131.60000610352</ele>
        <time>2020-10-19T10:28:16.000Z</time>
      </trkpt>
      <trkpt lat="48.2131" lon="-3.15082">
        <ele>131.60000610352</ele>
        <time>2020-10-19T10:28:17.000Z</time>
      </trkpt>
      <trkpt lat="48.2131" lon="-3.15082">
        <ele>131.60000610352</ele>
        <time>2020-10-19T10:28:18.000Z</time>
      </trkpt>
      <trkpt lat="48.2131" lon="-3.15082">
        <ele>131.60000610352</ele>
        <time>2020-10-19T10:28:19.000Z</time>
      </trkpt>
      <trkpt lat="48.2131" lon="-3.15083">
        <ele>131.60000610352</ele>
        <time>2020-10-19T10:28:20.000Z</time>
      </trkpt>
      <trkpt lat="48.21311" lon="-3.15083">
        <ele>131.60000610352</ele>
        <time>2020-10-19T10:28:21.000Z</time>
      </trkpt>
      <trkpt lat="48.21311" lon="-3.15083">
        <ele>131.60000610352</ele>
        <time>2020-10-19T10:28:22.000Z</time>
      </trkpt>
      <trkpt lat="48.2131" lon="-3.15083">
        <ele>131.60000610352</ele>
        <time>2020-10-19T10:28:23.000Z</time>
      </trkpt>
      <trkpt lat="48.2131" lon="-3.15084">
        <ele>131.60000610352</ele>
        <time>2020-10-19T10:28:24.000Z</time>
      </trkpt>
      <trkpt lat="48.2131" lon="-3.15084">
        <ele>131.80000305176</ele>
        <time>2020-10-19T10:28:25.000Z</time>
      </trkpt>
      <trkpt lat="48.21309" lon="-3.15085">
        <ele>131.80000305176</ele>
        <time>2020-10-19T10:28:26.000Z</time>
      </trkpt>
      <trkpt lat="48.21309" lon="-3.15086">
        <ele>131.80000305176</ele>
        <time>2020-10-19T10:28:27.000Z</time>
      </trkpt>
      <trkpt lat="48.21309" lon="-3.15087">
        <ele>131.80000305176</ele>
        <time>2020-10-19T10:28:28.000Z</time>
      </trkpt>
      <trkpt lat="48.21308" lon="-3.15089">
        <ele>131.80000305176</ele>
        <time>2020-10-19T10:28:29.000Z</time>
      </trkpt>
      <trkpt lat="48.21308" lon="-3.15091">
        <ele>131.80000305176</ele>
        <time>2020-10-19T10:28:30.000Z</time>
      </trkpt>
      <trkpt lat="48.21308" lon="-3.15092">
        <ele>131.80000305176</ele>
        <time>2020-10-19T10:28:31.000Z</time>
      </trkpt>
      <trkpt lat="48.21308" lon="-3.15093">
        <ele>131.80000305176</ele>
        <time>2020-10-19T10:28:32.000Z</time>
      </trkpt>
      <trkpt lat="48.21308" lon="-3.15093">
        <ele>131.80000305176</ele>
        <time>2020-10-19T10:28:33.000Z</time>
      </trkpt>
      <trkpt lat="48.21307" lon="-3.15094">
        <ele>131.80000305176</ele>
        <time>2020-10-19T10:28:34.000Z</time>
      </trkpt>
      <trkpt lat="48.21307" lon="-3.15094">
        <ele>131.80000305176</ele>
        <time>2020-10-19T10:28:35.000Z</time>
      </trkpt>
      <trkpt lat="48.21307" lon="-3.15095">
        <ele>131.80000305176</ele>
        <time>2020-10-19T10:28:36.000Z</time>
      </trkpt>
      <trkpt lat="48.21307" lon="-3.15095">
        <ele>131.80000305176</ele>
        <time>2020-10-19T10:28:37.000Z</time>
      </trkpt>
      <trkpt lat="48.21307" lon="-3.15095">
        <ele>131.80000305176</ele>
        <time>2020-10-19T10:28:38.000Z</time>
      </trkpt>
      <trkpt lat="48.21307" lon="-3.15096">
        <ele>131.80000305176</ele>
        <time>2020-10-19T10:28:39.000Z</time>
      </trkpt>
      <trkpt lat="48.21307" lon="-3.15097">
        <ele>131.80000305176</ele>
        <time>2020-10-19T10:28:40.000Z</time>
      </trkpt>
      <trkpt lat="48.21307" lon="-3.15097">
        <ele>131.80000305176</ele>
        <time>2020-10-19T10:28:41.000Z</time>
      </trkpt>
      <trkpt lat="48.21307" lon="-3.15097">
        <ele>131.60000610352</ele>
        <time>2020-10-19T10:28:42.000Z</time>
      </trkpt>
      <trkpt lat="48.21307" lon="-3.15098">
        <ele>131.60000610352</ele>
        <time>2020-10-19T10:28:43.000Z</time>
      </trkpt>
      <trkpt lat="48.21306" lon="-3.15098">
        <ele>131.60000610352</ele>
        <time>2020-10-19T10:28:44.000Z</time>
      </trkpt>
      <trkpt lat="48.21306" lon="-3.15099">
        <ele>131.60000610352</ele>
        <time>2020-10-19T10:28:45.000Z</time>
      </trkpt>
      <trkpt lat="48.21306" lon="-3.15101">
        <ele>131.60000610352</ele>
        <time>2020-10-19T10:28:46.000Z</time>
      </trkpt>
      <trkpt lat="48.21304" lon="-3.15103">
        <ele>131.60000610352</ele>
        <time>2020-10-19T10:28:47.000Z</time>
      </trkpt>
      <trkpt lat="48.21304" lon="-3.15104">
        <ele>131.60000610352</ele>
        <time>2020-10-19T10:28:48.000Z</time>
      </trkpt>
      <trkpt lat="48.21303" lon="-3.15106">
        <ele>131.39999389648</ele>
        <time>2020-10-19T10:28:49.000Z</time>
      </trkpt>
      <trkpt lat="48.21302" lon="-3.15108">
        <ele>131.39999389648</ele>
        <time>2020-10-19T10:28:50.000Z</time>
      </trkpt>
      <trkpt lat="48.21302" lon="-3.15109">
        <ele>131.39999389648</ele>
        <time>2020-10-19T10:28:51.000Z</time>
      </trkpt>
      <trkpt lat="48.21301" lon="-3.15111">
        <ele>131.39999389648</ele>
        <time>2020-10-19T10:28:52.000Z</time>
      </trkpt>
      <trkpt lat="48.213" lon="-3.15112">
        <ele>131.19999694824</ele>
        <time>2020-10-19T10:28:53.000Z</time>
      </trkpt>
      <trkpt lat="48.213" lon="-3.15113">
        <ele>131.19999694824</ele>
        <time>2020-10-19T10:28:54.000Z</time>
      </trkpt>
      <trkpt lat="48.21299" lon="-3.15115">
        <ele>131.19999694824</ele>
        <time>2020-10-19T10:28:55.000Z</time>
      </trkpt>
      <trkpt lat="48.21299" lon="-3.15116">
        <ele>131.19999694824</ele>
        <time>2020-10-19T10:28:56.000Z</time>
      </trkpt>
      <trkpt lat="48.21298" lon="-3.15118">
        <ele>131.19999694824</ele>
        <time>2020-10-19T10:28:57.000Z</time>
      </trkpt>
      <trkpt lat="48.21298" lon="-3.15119">
        <ele>131</ele>
        <time>2020-10-19T10:28:58.000Z</time>
      </trkpt>
      <trkpt lat="48.21297" lon="-3.15121">
        <ele>131</ele>
        <time>2020-10-19T10:28:59.000Z</time>
      </trkpt>
      <trkpt lat="48.21297" lon="-3.15122">
        <ele>131</ele>
        <time>2020-10-19T10:29:00.000Z</time>
      </trkpt>
      <trkpt lat="48.21295" lon="-3.15125">
        <ele>131</ele>
        <time>2020-10-19T10:29:01.000Z</time>
      </trkpt>
      <trkpt lat="48.21295" lon="-3.15125">
        <ele>131</ele>
        <time>2020-10-19T10:29:02.000Z</time>
      </trkpt>
      <trkpt lat="48.21295" lon="-3.15127">
        <ele>130.80000305176</ele>
        <time>2020-10-19T10:29:03.000Z</time>
      </trkpt>
      <trkpt lat="48.21294" lon="-3.15128">
        <ele>130.80000305176</ele>
        <time>2020-10-19T10:29:04.000Z</time>
      </trkpt>
      <trkpt lat="48.21293" lon="-3.1513">
        <ele>130.80000305176</ele>
        <time>2020-10-19T10:29:05.000Z</time>
      </trkpt>
      <trkpt lat="48.21292" lon="-3.15131">
        <ele>130.80000305176</ele>
        <time>2020-10-19T10:29:06.000Z</time>
      </trkpt>
      <trkpt lat="48.21291" lon="-3.15132">
        <ele>130.80000305176</ele>
        <time>2020-10-19T10:29:07.000Z</time>
      </trkpt>
      <trkpt lat="48.21291" lon="-3.15133">
        <ele>130.80000305176</ele>
        <time>2020-10-19T10:29:08.000Z</time>
      </trkpt>
      <trkpt lat="48.2129" lon="-3.15134">
        <ele>130.80000305176</ele>
        <time>2020-10-19T10:29:09.000Z</time>
      </trkpt>
      <trkpt lat="48.2129" lon="-3.15134">
        <ele>130.80000305176</ele>
        <time>2020-10-19T10:29:10.000Z</time>
      </trkpt>
      <trkpt lat="48.2129" lon="-3.15134">
        <ele>130.80000305176</ele>
        <time>2020-10-19T10:29:11.000Z</time>
      </trkpt>
      <trkpt lat="48.21289" lon="-3.15134">
        <ele>130.80000305176</ele>
        <time>2020-10-19T10:29:12.000Z</time>
      </trkpt>
      <trkpt lat="48.21289" lon="-3.15134">
        <ele>130.80000305176</ele>
        <time>2020-10-19T10:29:13.000Z</time>
      </trkpt>
      <trkpt lat="48.21289" lon="-3.15134">
        <ele>130.80000305176</ele>
        <time>2020-10-19T10:29:14.000Z</time>
      </trkpt>
      <trkpt lat="48.21289" lon="-3.15134">
        <ele>130.80000305176</ele>
        <time>2020-10-19T10:29:15.000Z</time>
      </trkpt>
      <trkpt lat="48.21289" lon="-3.15134">
        <ele>130.80000305176</ele>
        <time>2020-10-19T10:29:16.000Z</time>
      </trkpt>
      <trkpt lat="48.21289" lon="-3.15135">
        <ele>130.80000305176</ele>
        <time>2020-10-19T10:29:17.000Z</time>
      </trkpt>
      <trkpt lat="48.21288" lon="-3.15136">
        <ele>130.80000305176</ele>
        <time>2020-10-19T10:29:18.000Z</time>
      </trkpt>
      <trkpt lat="48.21288" lon="-3.15137">
        <ele>130.60000610352</ele>
        <time>2020-10-19T10:29:19.000Z</time>
      </trkpt>
      <trkpt lat="48.21288" lon="-3.15138">
        <ele>130.60000610352</ele>
        <time>2020-10-19T10:29:20.000Z</time>
      </trkpt>
      <trkpt lat="48.21287" lon="-3.15139">
        <ele>130.60000610352</ele>
        <time>2020-10-19T10:29:21.000Z</time>
      </trkpt>
      <trkpt lat="48.21286" lon="-3.15141">
        <ele>130.60000610352</ele>
        <time>2020-10-19T10:29:22.000Z</time>
      </trkpt>
      <trkpt lat="48.21285" lon="-3.15142">
        <ele>130.60000610352</ele>
        <time>2020-10-19T10:29:23.000Z</time>
      </trkpt>
      <trkpt lat="48.21285" lon="-3.15143">
        <ele>130.60000610352</ele>
        <time>2020-10-19T10:29:24.000Z</time>
      </trkpt>
      <trkpt lat="48.21284" lon="-3.15144">
        <ele>130.60000610352</ele>
        <time>2020-10-19T10:29:25.000Z</time>
      </trkpt>
      <trkpt lat="48.21283" lon="-3.15145">
        <ele>130.60000610352</ele>
        <time>2020-10-19T10:29:26.000Z</time>
      </trkpt>
      <trkpt lat="48.21282" lon="-3.15148">
        <ele>130.39999389648</ele>
        <time>2020-10-19T10:29:27.000Z</time>
      </trkpt>
      <trkpt lat="48.21282" lon="-3.15148">
        <ele>130.39999389648</ele>
        <time>2020-10-19T10:29:28.000Z</time>
      </trkpt>
      <trkpt lat="48.21281" lon="-3.1515">
        <ele>130.39999389648</ele>
        <time>2020-10-19T10:29:29.000Z</time>
      </trkpt>
      <trkpt lat="48.21281" lon="-3.15152">
        <ele>130.39999389648</ele>
        <time>2020-10-19T10:29:30.000Z</time>
      </trkpt>
      <trkpt lat="48.2128" lon="-3.15153">
        <ele>130.39999389648</ele>
        <time>2020-10-19T10:29:31.000Z</time>
      </trkpt>
      <trkpt lat="48.21279" lon="-3.15154">
        <ele>130.19999694824</ele>
        <time>2020-10-19T10:29:32.000Z</time>
      </trkpt>
      <trkpt lat="48.21279" lon="-3.15156">
        <ele>130.19999694824</ele>
        <time>2020-10-19T10:29:33.000Z</time>
      </trkpt>
      <trkpt lat="48.21278" lon="-3.15157">
        <ele>130.19999694824</ele>
        <time>2020-10-19T10:29:34.000Z</time>
      </trkpt>
      <trkpt lat="48.21277" lon="-3.15158">
        <ele>130.19999694824</ele>
        <time>2020-10-19T10:29:35.000Z</time>
      </trkpt>
      <trkpt lat="48.21277" lon="-3.1516">
        <ele>130.19999694824</ele>
        <time>2020-10-19T10:29:36.000Z</time>
      </trkpt>
      <trkpt lat="48.21276" lon="-3.15161">
        <ele>130.19999694824</ele>
        <time>2020-10-19T10:29:37.000Z</time>
      </trkpt>
      <trkpt lat="48.21276" lon="-3.15163">
        <ele>130</ele>
        <time>2020-10-19T10:29:38.000Z</time>
      </trkpt>
      <trkpt lat="48.21275" lon="-3.15164">
        <ele>130</ele>
        <time>2020-10-19T10:29:39.000Z</time>
      </trkpt>
      <trkpt lat="48.21275" lon="-3.15165">
        <ele>130</ele>
        <time>2020-10-19T10:29:40.000Z</time>
      </trkpt>
      <trkpt lat="48.21274" lon="-3.15166">
        <ele>130</ele>
        <time>2020-10-19T10:29:41.000Z</time>
      </trkpt>
      <trkpt lat="48.21274" lon="-3.15168">
        <ele>130</ele>
        <time>2020-10-19T10:29:42.000Z</time>
      </trkpt>
      <trkpt lat="48.21273" lon="-3.15169">
        <ele>130</ele>
        <time>2020-10-19T10:29:43.000Z</time>
      </trkpt>
      <trkpt lat="48.21272" lon="-3.1517">
        <ele>130</ele>
        <time>2020-10-19T10:29:44.000Z</time>
      </trkpt>
      <trkpt lat="48.21272" lon="-3.15171">
        <ele>130</ele>
        <time>2020-10-19T10:29:45.000Z</time>
      </trkpt>
      <trkpt lat="48.21271" lon="-3.15173">
        <ele>129.80000305176</ele>
        <time>2020-10-19T10:29:46.000Z</time>
      </trkpt>
      <trkpt lat="48.21271" lon="-3.15174">
        <ele>129.80000305176</ele>
        <time>2020-10-19T10:29:47.000Z</time>
      </trkpt>
      <trkpt lat="48.2127" lon="-3.15176">
        <ele>129.80000305176</ele>
        <time>2020-10-19T10:29:48.000Z</time>
      </trkpt>
      <trkpt lat="48.21269" lon="-3.15177">
        <ele>129.80000305176</ele>
        <time>2020-10-19T10:29:49.000Z</time>
      </trkpt>
      <trkpt lat="48.21269" lon="-3.15178">
        <ele>129.80000305176</ele>
        <time>2020-10-19T10:29:50.000Z</time>
      </trkpt>
      <trkpt lat="48.21268" lon="-3.1518">
        <ele>129.80000305176</ele>
        <time>2020-10-19T10:29:51.000Z</time>
      </trkpt>
      <trkpt lat="48.21267" lon="-3.15181">
        <ele>129.80000305176</ele>
        <time>2020-10-19T10:29:52.000Z</time>
      </trkpt>
      <trkpt lat="48.21266" lon="-3.15183">
        <ele>129.80000305176</ele>
        <time>2020-10-19T10:29:53.000Z</time>
      </trkpt>
      <trkpt lat="48.21266" lon="-3.15183">
        <ele>129.80000305176</ele>
        <time>2020-10-19T10:29:54.000Z</time>
      </trkpt>
      <trkpt lat="48.21265" lon="-3.15185">
        <ele>129.80000305176</ele>
        <time>2020-10-19T10:29:55.000Z</time>
      </trkpt>
      <trkpt lat="48.21264" lon="-3.15186">
        <ele>129.80000305176</ele>
        <time>2020-10-19T10:29:56.000Z</time>
      </trkpt>
      <trkpt lat="48.21263" lon="-3.15187">
        <ele>129.80000305176</ele>
        <time>2020-10-19T10:29:57.000Z</time>
      </trkpt>
      <trkpt lat="48.21262" lon="-3.15189">
        <ele>129.80000305176</ele>
        <time>2020-10-19T10:29:58.000Z</time>
      </trkpt>
      <trkpt lat="48.21262" lon="-3.1519">
        <ele>129.80000305176</ele>
        <time>2020-10-19T10:29:59.000Z</time>
      </trkpt>
      <trkpt lat="48.21261" lon="-3.15191">
        <ele>129.80000305176</ele>
        <time>2020-10-19T10:30:00.000Z</time>
      </trkpt>
      <trkpt lat="48.21261" lon="-3.15192">
        <ele>129.80000305176</ele>
        <time>2020-10-19T10:30:01.000Z</time>
      </trkpt>
      <trkpt lat="48.2126" lon="-3.15193">
        <ele>129.80000305176</ele>
        <time>2020-10-19T10:30:02.000Z</time>
      </trkpt>
      <trkpt lat="48.2126" lon="-3.15194">
        <ele>130</ele>
        <time>2020-10-19T10:30:03.000Z</time>
      </trkpt>
      <trkpt lat="48.21259" lon="-3.15195">
        <ele>130</ele>
        <time>2020-10-19T10:30:04.000Z</time>
      </trkpt>
      <trkpt lat="48.21258" lon="-3.15197">
        <ele>130</ele>
        <time>2020-10-19T10:30:05.000Z</time>
      </trkpt>
      <trkpt lat="48.21257" lon="-3.15199">
        <ele>130.19999694824</ele>
        <time>2020-10-19T10:30:06.000Z</time>
      </trkpt>
      <trkpt lat="48.21257" lon="-3.15199">
        <ele>130.19999694824</ele>
        <time>2020-10-19T10:30:07.000Z</time>
      </trkpt>
      <trkpt lat="48.21257" lon="-3.15201">
        <ele>130.19999694824</ele>
        <time>2020-10-19T10:30:08.000Z</time>
      </trkpt>
      <trkpt lat="48.21257" lon="-3.15202">
        <ele>130.19999694824</ele>
        <time>2020-10-19T10:30:09.000Z</time>
      </trkpt>
      <trkpt lat="48.21256" lon="-3.15204">
        <ele>130.39999389648</ele>
        <time>2020-10-19T10:30:10.000Z</time>
      </trkpt>
      <trkpt lat="48.21255" lon="-3.15205">
        <ele>130.39999389648</ele>
        <time>2020-10-19T10:30:11.000Z</time>
      </trkpt>
      <trkpt lat="48.21254" lon="-3.15207">
        <ele>130.39999389648</ele>
        <time>2020-10-19T10:30:12.000Z</time>
      </trkpt>
      <trkpt lat="48.21254" lon="-3.15209">
        <ele>130.60000610352</ele>
        <time>2020-10-19T10:30:13.000Z</time>
      </trkpt>
      <trkpt lat="48.21253" lon="-3.1521">
        <ele>130.60000610352</ele>
        <time>2020-10-19T10:30:14.000Z</time>
      </trkpt>
      <trkpt lat="48.21252" lon="-3.15212">
        <ele>130.60000610352</ele>
        <time>2020-10-19T10:30:15.000Z</time>
      </trkpt>
      <trkpt lat="48.21252" lon="-3.15213">
        <ele>130.80000305176</ele>
        <time>2020-10-19T10:30:16.000Z</time>
      </trkpt>
      <trkpt lat="48.21251" lon="-3.15215">
        <ele>130.80000305176</ele>
        <time>2020-10-19T10:30:17.000Z</time>
      </trkpt>
      <trkpt lat="48.2125" lon="-3.15216">
        <ele>130.80000305176</ele>
        <time>2020-10-19T10:30:18.000Z</time>
      </trkpt>
      <trkpt lat="48.2125" lon="-3.15218">
        <ele>131</ele>
        <time>2020-10-19T10:30:19.000Z</time>
      </trkpt>
      <trkpt lat="48.21249" lon="-3.15219">
        <ele>131</ele>
        <time>2020-10-19T10:30:20.000Z</time>
      </trkpt>
      <trkpt lat="48.21248" lon="-3.1522">
        <ele>131</ele>
        <time>2020-10-19T10:30:21.000Z</time>
      </trkpt>
      <trkpt lat="48.21248" lon="-3.15221">
        <ele>131.19999694824</ele>
        <time>2020-10-19T10:30:22.000Z</time>
      </trkpt>
      <trkpt lat="48.21247" lon="-3.15222">
        <ele>131.19999694824</ele>
        <time>2020-10-19T10:30:23.000Z</time>
      </trkpt>
      <trkpt lat="48.21247" lon="-3.15223">
        <ele>131.19999694824</ele>
        <time>2020-10-19T10:30:24.000Z</time>
      </trkpt>
      <trkpt lat="48.21246" lon="-3.15224">
        <ele>131.39999389648</ele>
        <time>2020-10-19T10:30:25.000Z</time>
      </trkpt>
      <trkpt lat="48.21245" lon="-3.15226">
        <ele>131.39999389648</ele>
        <time>2020-10-19T10:30:26.000Z</time>
      </trkpt>
      <trkpt lat="48.21244" lon="-3.15227">
        <ele>131.60000610352</ele>
        <time>2020-10-19T10:30:27.000Z</time>
      </trkpt>
      <trkpt lat="48.21244" lon="-3.15228">
        <ele>131.60000610352</ele>
        <time>2020-10-19T10:30:28.000Z</time>
      </trkpt>
      <trkpt lat="48.21243" lon="-3.15229">
        <ele>131.60000610352</ele>
        <time>2020-10-19T10:30:29.000Z</time>
      </trkpt>
      <trkpt lat="48.21242" lon="-3.1523">
        <ele>131.80000305176</ele>
        <time>2020-10-19T10:30:30.000Z</time>
      </trkpt>
      <trkpt lat="48.21242" lon="-3.15231">
        <ele>131.80000305176</ele>
        <time>2020-10-19T10:30:31.000Z</time>
      </trkpt>
      <trkpt lat="48.21241" lon="-3.15232">
        <ele>132</ele>
        <time>2020-10-19T10:30:32.000Z</time>
      </trkpt>
      <trkpt lat="48.21241" lon="-3.15234">
        <ele>132</ele>
        <time>2020-10-19T10:30:33.000Z</time>
      </trkpt>
      <trkpt lat="48.2124" lon="-3.15235">
        <ele>132</ele>
        <time>2020-10-19T10:30:34.000Z</time>
      </trkpt>
      <trkpt lat="48.21239" lon="-3.15236">
        <ele>132.19999694824</ele>
        <time>2020-10-19T10:30:35.000Z</time>
      </trkpt>
      <trkpt lat="48.21239" lon="-3.15237">
        <ele>132.19999694824</ele>
        <time>2020-10-19T10:30:36.000Z</time>
      </trkpt>
      <trkpt lat="48.21238" lon="-3.15238">
        <ele>132.19999694824</ele>
        <time>2020-10-19T10:30:37.000Z</time>
      </trkpt>
      <trkpt lat="48.21237" lon="-3.1524">
        <ele>132.39999389648</ele>
        <time>2020-10-19T10:30:38.000Z</time>
      </trkpt>
      <trkpt lat="48.21237" lon="-3.15241">
        <ele>132.39999389648</ele>
        <time>2020-10-19T10:30:39.000Z</time>
      </trkpt>
      <trkpt lat="48.21236" lon="-3.15242">
        <ele>132.39999389648</ele>
        <time>2020-10-19T10:30:40.000Z</time>
      </trkpt>
      <trkpt lat="48.21236" lon="-3.15243">
        <ele>132.60000610352</ele>
        <time>2020-10-19T10:30:41.000Z</time>
      </trkpt>
      <trkpt lat="48.21235" lon="-3.15245">
        <ele>132.60000610352</ele>
        <time>2020-10-19T10:30:42.000Z</time>
      </trkpt>
      <trkpt lat="48.21234" lon="-3.15246">
        <ele>132.60000610352</ele>
        <time>2020-10-19T10:30:43.000Z</time>
      </trkpt>
      <trkpt lat="48.21234" lon="-3.15247">
        <ele>132.80000305176</ele>
        <time>2020-10-19T10:30:44.000Z</time>
      </trkpt>
      <trkpt lat="48.21232" lon="-3.1525">
        <ele>133</ele>
        <time>2020-10-19T10:30:45.000Z</time>
      </trkpt>
      <trkpt lat="48.21232" lon="-3.1525">
        <ele>133</ele>
        <time>2020-10-19T10:30:46.000Z</time>
      </trkpt>
      <trkpt lat="48.21231" lon="-3.15251">
        <ele>133</ele>
        <time>2020-10-19T10:30:47.000Z</time>
      </trkpt>
      <trkpt lat="48.21231" lon="-3.15252">
        <ele>133</ele>
        <time>2020-10-19T10:30:48.000Z</time>
      </trkpt>
      <trkpt lat="48.2123" lon="-3.15253">
        <ele>133.19999694824</ele>
        <time>2020-10-19T10:30:49.000Z</time>
      </trkpt>
      <trkpt lat="48.21229" lon="-3.15255">
        <ele>133.19999694824</ele>
        <time>2020-10-19T10:30:50.000Z</time>
      </trkpt>
      <trkpt lat="48.21229" lon="-3.15256">
        <ele>133.39999389648</ele>
        <time>2020-10-19T10:30:51.000Z</time>
      </trkpt>
      <trkpt lat="48.21228" lon="-3.15258">
        <ele>133.39999389648</ele>
        <time>2020-10-19T10:30:52.000Z</time>
      </trkpt>
      <trkpt lat="48.21227" lon="-3.15259">
        <ele>133.39999389648</ele>
        <time>2020-10-19T10:30:53.000Z</time>
      </trkpt>
      <trkpt lat="48.21227" lon="-3.1526">
        <ele>133.60000610352</ele>
        <time>2020-10-19T10:30:54.000Z</time>
      </trkpt>
      <trkpt lat="48.21226" lon="-3.15261">
        <ele>133.60000610352</ele>
        <time>2020-10-19T10:30:55.000Z</time>
      </trkpt>
      <trkpt lat="48.21225" lon="-3.15263">
        <ele>133.80000305176</ele>
        <time>2020-10-19T10:30:56.000Z</time>
      </trkpt>
      <trkpt lat="48.21224" lon="-3.15264">
        <ele>134</ele>
        <time>2020-10-19T10:30:57.000Z</time>
      </trkpt>
      <trkpt lat="48.21224" lon="-3.15265">
        <ele>134</ele>
        <time>2020-10-19T10:30:58.000Z</time>
      </trkpt>
      <trkpt lat="48.21223" lon="-3.15266">
        <ele>134.19999694824</ele>
        <time>2020-10-19T10:30:59.000Z</time>
      </trkpt>
      <trkpt lat="48.21222" lon="-3.15267">
        <ele>134.39999389648</ele>
        <time>2020-10-19T10:31:00.000Z</time>
      </trkpt>
      <trkpt lat="48.21222" lon="-3.15269">
        <ele>134.39999389648</ele>
        <time>2020-10-19T10:31:01.000Z</time>
      </trkpt>
      <trkpt lat="48.2122" lon="-3.15271">
        <ele>134.80000305176</ele>
        <time>2020-10-19T10:31:02.000Z</time>
      </trkpt>
      <trkpt lat="48.2122" lon="-3.15271">
        <ele>134.80000305176</ele>
        <time>2020-10-19T10:31:03.000Z</time>
      </trkpt>
      <trkpt lat="48.21219" lon="-3.15272">
        <ele>135</ele>
        <time>2020-10-19T10:31:04.000Z</time>
      </trkpt>
      <trkpt lat="48.21219" lon="-3.15274">
        <ele>135</ele>
        <time>2020-10-19T10:31:05.000Z</time>
      </trkpt>
      <trkpt lat="48.21218" lon="-3.15275">
        <ele>135.19999694824</ele>
        <time>2020-10-19T10:31:06.000Z</time>
      </trkpt>
      <trkpt lat="48.21217" lon="-3.15276">
        <ele>135.39999389648</ele>
        <time>2020-10-19T10:31:07.000Z</time>
      </trkpt>
      <trkpt lat="48.21216" lon="-3.15278">
        <ele>135.60000610352</ele>
        <time>2020-10-19T10:31:08.000Z</time>
      </trkpt>
      <trkpt lat="48.21215" lon="-3.15279">
        <ele>135.80000305176</ele>
        <time>2020-10-19T10:31:09.000Z</time>
      </trkpt>
      <trkpt lat="48.21214" lon="-3.1528">
        <ele>136</ele>
        <time>2020-10-19T10:31:10.000Z</time>
      </trkpt>
      <trkpt lat="48.21213" lon="-3.15281">
        <ele>136</ele>
        <time>2020-10-19T10:31:11.000Z</time>
      </trkpt>
      <trkpt lat="48.21213" lon="-3.15282">
        <ele>136.19999694824</ele>
        <time>2020-10-19T10:31:12.000Z</time>
      </trkpt>
      <trkpt lat="48.21212" lon="-3.15283">
        <ele>136.39999389648</ele>
        <time>2020-10-19T10:31:13.000Z</time>
      </trkpt>
      <trkpt lat="48.21211" lon="-3.15285">
        <ele>136.39999389648</ele>
        <time>2020-10-19T10:31:14.000Z</time>
      </trkpt>
      <trkpt lat="48.21211" lon="-3.15286">
        <ele>136.60000610352</ele>
        <time>2020-10-19T10:31:15.000Z</time>
      </trkpt>
      <trkpt lat="48.2121" lon="-3.15287">
        <ele>136.60000610352</ele>
        <time>2020-10-19T10:31:16.000Z</time>
      </trkpt>
      <trkpt lat="48.2121" lon="-3.15288">
        <ele>136.80000305176</ele>
        <time>2020-10-19T10:31:17.000Z</time>
      </trkpt>
      <trkpt lat="48.2121" lon="-3.15289">
        <ele>136.80000305176</ele>
        <time>2020-10-19T10:31:18.000Z</time>
      </trkpt>
      <trkpt lat="48.21209" lon="-3.1529">
        <ele>137</ele>
        <time>2020-10-19T10:31:19.000Z</time>
      </trkpt>
      <trkpt lat="48.21208" lon="-3.15292">
        <ele>137.19999694824</ele>
        <time>2020-10-19T10:31:20.000Z</time>
      </trkpt>
      <trkpt lat="48.21207" lon="-3.15293">
        <ele>137.19999694824</ele>
        <time>2020-10-19T10:31:21.000Z</time>
      </trkpt>
      <trkpt lat="48.21207" lon="-3.15295">
        <ele>137.39999389648</ele>
        <time>2020-10-19T10:31:22.000Z</time>
      </trkpt>
      <trkpt lat="48.21206" lon="-3.15296">
        <ele>137.60000610352</ele>
        <time>2020-10-19T10:31:23.000Z</time>
      </trkpt>
      <trkpt lat="48.21206" lon="-3.15298">
        <ele>137.60000610352</ele>
        <time>2020-10-19T10:31:24.000Z</time>
      </trkpt>
      <trkpt lat="48.21205" lon="-3.15299">
        <ele>137.80000305176</ele>
        <time>2020-10-19T10:31:25.000Z</time>
      </trkpt>
      <trkpt lat="48.21205" lon="-3.153">
        <ele>137.80000305176</ele>
        <time>2020-10-19T10:31:26.000Z</time>
      </trkpt>
      <trkpt lat="48.21204" lon="-3.15301">
        <ele>138</ele>
        <time>2020-10-19T10:31:27.000Z</time>
      </trkpt>
      <trkpt lat="48.21204" lon="-3.15302">
        <ele>138</ele>
        <time>2020-10-19T10:31:28.000Z</time>
      </trkpt>
      <trkpt lat="48.21203" lon="-3.15303">
        <ele>138.19999694824</ele>
        <time>2020-10-19T10:31:29.000Z</time>
      </trkpt>
      <trkpt lat="48.21203" lon="-3.15304">
        <ele>138.19999694824</ele>
        <time>2020-10-19T10:31:30.000Z</time>
      </trkpt>
      <trkpt lat="48.21203" lon="-3.15305">
        <ele>138.19999694824</ele>
        <time>2020-10-19T10:31:31.000Z</time>
      </trkpt>
      <trkpt lat="48.21202" lon="-3.15306">
        <ele>138.39999389648</ele>
        <time>2020-10-19T10:31:32.000Z</time>
      </trkpt>
      <trkpt lat="48.21201" lon="-3.15308">
        <ele>138.60000610352</ele>
        <time>2020-10-19T10:31:33.000Z</time>
      </trkpt>
      <trkpt lat="48.21201" lon="-3.15309">
        <ele>138.60000610352</ele>
        <time>2020-10-19T10:31:34.000Z</time>
      </trkpt>
      <trkpt lat="48.212" lon="-3.15311">
        <ele>138.80000305176</ele>
        <time>2020-10-19T10:31:35.000Z</time>
      </trkpt>
      <trkpt lat="48.212" lon="-3.15312">
        <ele>139</ele>
        <time>2020-10-19T10:31:36.000Z</time>
      </trkpt>
      <trkpt lat="48.212" lon="-3.15313">
        <ele>139</ele>
        <time>2020-10-19T10:31:37.000Z</time>
      </trkpt>
      <trkpt lat="48.212" lon="-3.15314">
        <ele>139</ele>
        <time>2020-10-19T10:31:38.000Z</time>
      </trkpt>
      <trkpt lat="48.21199" lon="-3.15315">
        <ele>139</ele>
        <time>2020-10-19T10:31:39.000Z</time>
      </trkpt>
      <trkpt lat="48.21199" lon="-3.15317">
        <ele>139.19999694824</ele>
        <time>2020-10-19T10:31:40.000Z</time>
      </trkpt>
      <trkpt lat="48.21198" lon="-3.15318">
        <ele>139.19999694824</ele>
        <time>2020-10-19T10:31:41.000Z</time>
      </trkpt>
      <trkpt lat="48.21198" lon="-3.1532">
        <ele>139.39999389648</ele>
        <time>2020-10-19T10:31:42.000Z</time>
      </trkpt>
      <trkpt lat="48.21198" lon="-3.15322">
        <ele>139.39999389648</ele>
        <time>2020-10-19T10:31:43.000Z</time>
      </trkpt>
      <trkpt lat="48.21197" lon="-3.15325">
        <ele>139.60000610352</ele>
        <time>2020-10-19T10:31:44.000Z</time>
      </trkpt>
      <trkpt lat="48.21197" lon="-3.15325">
        <ele>139.60000610352</ele>
        <time>2020-10-19T10:31:45.000Z</time>
      </trkpt>
      <trkpt lat="48.21196" lon="-3.15327">
        <ele>139.80000305176</ele>
        <time>2020-10-19T10:31:46.000Z</time>
      </trkpt>
      <trkpt lat="48.21196" lon="-3.15328">
        <ele>140</ele>
        <time>2020-10-19T10:31:47.000Z</time>
      </trkpt>
      <trkpt lat="48.21196" lon="-3.1533">
        <ele>140</ele>
        <time>2020-10-19T10:31:48.000Z</time>
      </trkpt>
      <trkpt lat="48.21196" lon="-3.15332">
        <ele>140</ele>
        <time>2020-10-19T10:31:49.000Z</time>
      </trkpt>
      <trkpt lat="48.21195" lon="-3.15333">
        <ele>140.19999694824</ele>
        <time>2020-10-19T10:31:50.000Z</time>
      </trkpt>
      <trkpt lat="48.21195" lon="-3.15335">
        <ele>140.19999694824</ele>
        <time>2020-10-19T10:31:51.000Z</time>
      </trkpt>
      <trkpt lat="48.21195" lon="-3.15336">
        <ele>140.39999389648</ele>
        <time>2020-10-19T10:31:52.000Z</time>
      </trkpt>
      <trkpt lat="48.21195" lon="-3.15338">
        <ele>140.39999389648</ele>
        <time>2020-10-19T10:31:53.000Z</time>
      </trkpt>
      <trkpt lat="48.21195" lon="-3.15339">
        <ele>140.60000610352</ele>
        <time>2020-10-19T10:31:54.000Z</time>
      </trkpt>
      <trkpt lat="48.21195" lon="-3.15341">
        <ele>140.60000610352</ele>
        <time>2020-10-19T10:31:55.000Z</time>
      </trkpt>
      <trkpt lat="48.21195" lon="-3.15343">
        <ele>140.60000610352</ele>
        <time>2020-10-19T10:31:56.000Z</time>
      </trkpt>
      <trkpt lat="48.21195" lon="-3.15344">
        <ele>140.60000610352</ele>
        <time>2020-10-19T10:31:57.000Z</time>
      </trkpt>
      <trkpt lat="48.21195" lon="-3.15346">
        <ele>140.80000305176</ele>
        <time>2020-10-19T10:31:58.000Z</time>
      </trkpt>
      <trkpt lat="48.21195" lon="-3.15347">
        <ele>140.80000305176</ele>
        <time>2020-10-19T10:31:59.000Z</time>
      </trkpt>
      <trkpt lat="48.21196" lon="-3.15349">
        <ele>140.80000305176</ele>
        <time>2020-10-19T10:32:00.000Z</time>
      </trkpt>
      <trkpt lat="48.21196" lon="-3.15352">
        <ele>141</ele>
        <time>2020-10-19T10:32:01.000Z</time>
      </trkpt>
      <trkpt lat="48.21196" lon="-3.15352">
        <ele>141</ele>
        <time>2020-10-19T10:32:02.000Z</time>
      </trkpt>
      <trkpt lat="48.21196" lon="-3.15353">
        <ele>141</ele>
        <time>2020-10-19T10:32:03.000Z</time>
      </trkpt>
      <trkpt lat="48.21196" lon="-3.15354">
        <ele>141</ele>
        <time>2020-10-19T10:32:04.000Z</time>
      </trkpt>
      <trkpt lat="48.21195" lon="-3.15356">
        <ele>141.19999694824</ele>
        <time>2020-10-19T10:32:05.000Z</time>
      </trkpt>
      <trkpt lat="48.21195" lon="-3.15358">
        <ele>141.19999694824</ele>
        <time>2020-10-19T10:32:06.000Z</time>
      </trkpt>
      <trkpt lat="48.21195" lon="-3.1536">
        <ele>141.39999389648</ele>
        <time>2020-10-19T10:32:07.000Z</time>
      </trkpt>
      <trkpt lat="48.21195" lon="-3.15361">
        <ele>141.39999389648</ele>
        <time>2020-10-19T10:32:08.000Z</time>
      </trkpt>
      <trkpt lat="48.21195" lon="-3.15363">
        <ele>141.60000610352</ele>
        <time>2020-10-19T10:32:09.000Z</time>
      </trkpt>
      <trkpt lat="48.21194" lon="-3.15365">
        <ele>141.60000610352</ele>
        <time>2020-10-19T10:32:10.000Z</time>
      </trkpt>
      <trkpt lat="48.21194" lon="-3.15367">
        <ele>141.80000305176</ele>
        <time>2020-10-19T10:32:11.000Z</time>
      </trkpt>
      <trkpt lat="48.21194" lon="-3.15368">
        <ele>142</ele>
        <time>2020-10-19T10:32:12.000Z</time>
      </trkpt>
      <trkpt lat="48.21195" lon="-3.1537">
        <ele>142</ele>
        <time>2020-10-19T10:32:13.000Z</time>
      </trkpt>
      <trkpt lat="48.21195" lon="-3.15371">
        <ele>142</ele>
        <time>2020-10-19T10:32:14.000Z</time>
      </trkpt>
      <trkpt lat="48.21195" lon="-3.15372">
        <ele>142</ele>
        <time>2020-10-19T10:32:15.000Z</time>
      </trkpt>
      <trkpt lat="48.21195" lon="-3.15374">
        <ele>142</ele>
        <time>2020-10-19T10:32:16.000Z</time>
      </trkpt>
      <trkpt lat="48.21195" lon="-3.15376">
        <ele>142.19999694824</ele>
        <time>2020-10-19T10:32:17.000Z</time>
      </trkpt>
      <trkpt lat="48.21195" lon="-3.15378">
        <ele>142.19999694824</ele>
        <time>2020-10-19T10:32:18.000Z</time>
      </trkpt>
      <trkpt lat="48.21195" lon="-3.1538">
        <ele>142.39999389648</ele>
        <time>2020-10-19T10:32:19.000Z</time>
      </trkpt>
      <trkpt lat="48.21195" lon="-3.15381">
        <ele>142.39999389648</ele>
        <time>2020-10-19T10:32:20.000Z</time>
      </trkpt>
      <trkpt lat="48.21195" lon="-3.15383">
        <ele>142.60000610352</ele>
        <time>2020-10-19T10:32:21.000Z</time>
      </trkpt>
      <trkpt lat="48.21194" lon="-3.15385">
        <ele>142.60000610352</ele>
        <time>2020-10-19T10:32:22.000Z</time>
      </trkpt>
      <trkpt lat="48.21194" lon="-3.15386">
        <ele>142.80000305176</ele>
        <time>2020-10-19T10:32:23.000Z</time>
      </trkpt>
      <trkpt lat="48.21193" lon="-3.1539">
        <ele>143.19999694824</ele>
        <time>2020-10-19T10:32:24.000Z</time>
      </trkpt>
      <trkpt lat="48.21193" lon="-3.1539">
        <ele>143.19999694824</ele>
        <time>2020-10-19T10:32:25.000Z</time>
      </trkpt>
      <trkpt lat="48.21192" lon="-3.15392">
        <ele>143.39999389648</ele>
        <time>2020-10-19T10:32:26.000Z</time>
      </trkpt>
      <trkpt lat="48.21192" lon="-3.15394">
        <ele>143.39999389648</ele>
        <time>2020-10-19T10:32:27.000Z</time>
      </trkpt>
      <trkpt lat="48.21192" lon="-3.15396">
        <ele>143.60000610352</ele>
        <time>2020-10-19T10:32:28.000Z</time>
      </trkpt>
      <trkpt lat="48.21193" lon="-3.15397">
        <ele>143.60000610352</ele>
        <time>2020-10-19T10:32:29.000Z</time>
      </trkpt>
      <trkpt lat="48.21193" lon="-3.15399">
        <ele>143.60000610352</ele>
        <time>2020-10-19T10:32:30.000Z</time>
      </trkpt>
      <trkpt lat="48.21193" lon="-3.15401">
        <ele>143.60000610352</ele>
        <time>2020-10-19T10:32:31.000Z</time>
      </trkpt>
      <trkpt lat="48.21193" lon="-3.15402">
        <ele>143.60000610352</ele>
        <time>2020-10-19T10:32:32.000Z</time>
      </trkpt>
      <trkpt lat="48.21193" lon="-3.15404">
        <ele>143.80000305176</ele>
        <time>2020-10-19T10:32:33.000Z</time>
      </trkpt>
      <trkpt lat="48.21193" lon="-3.15406">
        <ele>143.80000305176</ele>
        <time>2020-10-19T10:32:34.000Z</time>
      </trkpt>
      <trkpt lat="48.21193" lon="-3.15407">
        <ele>143.80000305176</ele>
        <time>2020-10-19T10:32:35.000Z</time>
      </trkpt>
      <trkpt lat="48.21193" lon="-3.15408">
        <ele>144</ele>
        <time>2020-10-19T10:32:36.000Z</time>
      </trkpt>
      <trkpt lat="48.21194" lon="-3.1541">
        <ele>144</ele>
        <time>2020-10-19T10:32:37.000Z</time>
      </trkpt>
      <trkpt lat="48.21194" lon="-3.15412">
        <ele>144</ele>
        <time>2020-10-19T10:32:38.000Z</time>
      </trkpt>
      <trkpt lat="48.21194" lon="-3.15414">
        <ele>144</ele>
        <time>2020-10-19T10:32:39.000Z</time>
      </trkpt>
      <trkpt lat="48.21194" lon="-3.15415">
        <ele>144</ele>
        <time>2020-10-19T10:32:40.000Z</time>
      </trkpt>
      <trkpt lat="48.21195" lon="-3.15417">
        <ele>143.80000305176</ele>
        <time>2020-10-19T10:32:41.000Z</time>
      </trkpt>
      <trkpt lat="48.21195" lon="-3.15418">
        <ele>143.80000305176</ele>
        <time>2020-10-19T10:32:42.000Z</time>
      </trkpt>
      <trkpt lat="48.21195" lon="-3.1542">
        <ele>143.80000305176</ele>
        <time>2020-10-19T10:32:43.000Z</time>
      </trkpt>
      <trkpt lat="48.21194" lon="-3.15422">
        <ele>144</ele>
        <time>2020-10-19T10:32:44.000Z</time>
      </trkpt>
      <trkpt lat="48.21194" lon="-3.15424">
        <ele>144</ele>
        <time>2020-10-19T10:32:45.000Z</time>
      </trkpt>
      <trkpt lat="48.21193" lon="-3.15426">
        <ele>144</ele>
        <time>2020-10-19T10:32:46.000Z</time>
      </trkpt>
      <trkpt lat="48.21192" lon="-3.15428">
        <ele>144.19999694824</ele>
        <time>2020-10-19T10:32:47.000Z</time>
      </trkpt>
      <trkpt lat="48.21192" lon="-3.15429">
        <ele>144.19999694824</ele>
        <time>2020-10-19T10:32:48.000Z</time>
      </trkpt>
      <trkpt lat="48.21192" lon="-3.15429">
        <ele>144.39999389648</ele>
        <time>2020-10-19T10:32:49.000Z</time>
      </trkpt>
      <trkpt lat="48.21191" lon="-3.1543">
        <ele>144.60000610352</ele>
        <time>2020-10-19T10:32:50.000Z</time>
      </trkpt>
      <trkpt lat="48.21191" lon="-3.15431">
        <ele>144.60000610352</ele>
        <time>2020-10-19T10:32:51.000Z</time>
      </trkpt>
      <trkpt lat="48.2119" lon="-3.15432">
        <ele>144.80000305176</ele>
        <time>2020-10-19T10:32:52.000Z</time>
      </trkpt>
      <trkpt lat="48.2119" lon="-3.15432">
        <ele>144.80000305176</ele>
        <time>2020-10-19T10:32:53.000Z</time>
      </trkpt>
      <trkpt lat="48.2119" lon="-3.15433">
        <ele>144.80000305176</ele>
        <time>2020-10-19T10:32:54.000Z</time>
      </trkpt>
      <trkpt lat="48.2119" lon="-3.15434">
        <ele>144.80000305176</ele>
        <time>2020-10-19T10:32:55.000Z</time>
      </trkpt>
      <trkpt lat="48.2119" lon="-3.15436">
        <ele>144.80000305176</ele>
        <time>2020-10-19T10:32:56.000Z</time>
      </trkpt>
      <trkpt lat="48.2119" lon="-3.15437">
        <ele>145</ele>
        <time>2020-10-19T10:32:57.000Z</time>
      </trkpt>
      <trkpt lat="48.21191" lon="-3.15438">
        <ele>145</ele>
        <time>2020-10-19T10:32:58.000Z</time>
      </trkpt>
      <trkpt lat="48.21191" lon="-3.1544">
        <ele>145</ele>
        <time>2020-10-19T10:32:59.000Z</time>
      </trkpt>
      <trkpt lat="48.21191" lon="-3.15442">
        <ele>145</ele>
        <time>2020-10-19T10:33:00.000Z</time>
      </trkpt>
      <trkpt lat="48.21191" lon="-3.15443">
        <ele>145</ele>
        <time>2020-10-19T10:33:01.000Z</time>
      </trkpt>
      <trkpt lat="48.2119" lon="-3.15445">
        <ele>145.19999694824</ele>
        <time>2020-10-19T10:33:02.000Z</time>
      </trkpt>
      <trkpt lat="48.2119" lon="-3.15447">
        <ele>145.39999389648</ele>
        <time>2020-10-19T10:33:03.000Z</time>
      </trkpt>
      <trkpt lat="48.2119" lon="-3.15448">
        <ele>145.39999389648</ele>
        <time>2020-10-19T10:33:04.000Z</time>
      </trkpt>
      <trkpt lat="48.2119" lon="-3.1545">
        <ele>145.39999389648</ele>
        <time>2020-10-19T10:33:05.000Z</time>
      </trkpt>
      <trkpt lat="48.2119" lon="-3.15452">
        <ele>145.60000610352</ele>
        <time>2020-10-19T10:33:06.000Z</time>
      </trkpt>
      <trkpt lat="48.2119" lon="-3.15454">
        <ele>145.60000610352</ele>
        <time>2020-10-19T10:33:07.000Z</time>
      </trkpt>
      <trkpt lat="48.2119" lon="-3.15456">
        <ele>145.80000305176</ele>
        <time>2020-10-19T10:33:08.000Z</time>
      </trkpt>
      <trkpt lat="48.2119" lon="-3.15459">
        <ele>145.80000305176</ele>
        <time>2020-10-19T10:33:09.000Z</time>
      </trkpt>
      <trkpt lat="48.2119" lon="-3.15459">
        <ele>145.80000305176</ele>
        <time>2020-10-19T10:33:10.000Z</time>
      </trkpt>
      <trkpt lat="48.21191" lon="-3.15461">
        <ele>145.80000305176</ele>
        <time>2020-10-19T10:33:11.000Z</time>
      </trkpt>
      <trkpt lat="48.21191" lon="-3.15462">
        <ele>145.80000305176</ele>
        <time>2020-10-19T10:33:12.000Z</time>
      </trkpt>
      <trkpt lat="48.21191" lon="-3.15463">
        <ele>145.80000305176</ele>
        <time>2020-10-19T10:33:13.000Z</time>
      </trkpt>
      <trkpt lat="48.21191" lon="-3.15465">
        <ele>145.80000305176</ele>
        <time>2020-10-19T10:33:14.000Z</time>
      </trkpt>
      <trkpt lat="48.21191" lon="-3.15466">
        <ele>145.80000305176</ele>
        <time>2020-10-19T10:33:15.000Z</time>
      </trkpt>
      <trkpt lat="48.21191" lon="-3.15468">
        <ele>145.80000305176</ele>
        <time>2020-10-19T10:33:16.000Z</time>
      </trkpt>
      <trkpt lat="48.21191" lon="-3.15469">
        <ele>145.80000305176</ele>
        <time>2020-10-19T10:33:17.000Z</time>
      </trkpt>
      <trkpt lat="48.21191" lon="-3.1547">
        <ele>146</ele>
        <time>2020-10-19T10:33:18.000Z</time>
      </trkpt>
      <trkpt lat="48.21191" lon="-3.15472">
        <ele>146</ele>
        <time>2020-10-19T10:33:19.000Z</time>
      </trkpt>
      <trkpt lat="48.21191" lon="-3.15473">
        <ele>146.19999694824</ele>
        <time>2020-10-19T10:33:20.000Z</time>
      </trkpt>
      <trkpt lat="48.21191" lon="-3.15475">
        <ele>146.19999694824</ele>
        <time>2020-10-19T10:33:21.000Z</time>
      </trkpt>
      <trkpt lat="48.2119" lon="-3.15477">
        <ele>146.39999389648</ele>
        <time>2020-10-19T10:33:22.000Z</time>
      </trkpt>
      <trkpt lat="48.2119" lon="-3.15477">
        <ele>146.39999389648</ele>
        <time>2020-10-19T10:33:23.000Z</time>
      </trkpt>
      <trkpt lat="48.2119" lon="-3.15479">
        <ele>146.60000610352</ele>
        <time>2020-10-19T10:33:24.000Z</time>
      </trkpt>
      <trkpt lat="48.2119" lon="-3.1548">
        <ele>146.60000610352</ele>
        <time>2020-10-19T10:33:25.000Z</time>
      </trkpt>
      <trkpt lat="48.2119" lon="-3.1548">
        <ele>146.60000610352</ele>
        <time>2020-10-19T10:33:26.000Z</time>
      </trkpt>
      <trkpt lat="48.2119" lon="-3.1548">
        <ele>146.60000610352</ele>
        <time>2020-10-19T10:33:27.000Z</time>
      </trkpt>
      <trkpt lat="48.2119" lon="-3.15479">
        <ele>146.39999389648</ele>
        <time>2020-10-19T10:33:28.000Z</time>
      </trkpt>
      <trkpt lat="48.21191" lon="-3.15479">
        <ele>146.39999389648</ele>
        <time>2020-10-19T10:33:29.000Z</time>
      </trkpt>
      <trkpt lat="48.21191" lon="-3.15479">
        <ele>146.19999694824</ele>
        <time>2020-10-19T10:33:30.000Z</time>
      </trkpt>
      <trkpt lat="48.21192" lon="-3.15479">
        <ele>146.19999694824</ele>
        <time>2020-10-19T10:33:31.000Z</time>
      </trkpt>
      <trkpt lat="48.21192" lon="-3.15479">
        <ele>146.19999694824</ele>
        <time>2020-10-19T10:33:32.000Z</time>
      </trkpt>
      <trkpt lat="48.21193" lon="-3.15479">
        <ele>146</ele>
        <time>2020-10-19T10:33:33.000Z</time>
      </trkpt>
      <trkpt lat="48.21193" lon="-3.15479">
        <ele>146</ele>
        <time>2020-10-19T10:33:34.000Z</time>
      </trkpt>
      <trkpt lat="48.21192" lon="-3.1548">
        <ele>146</ele>
        <time>2020-10-19T10:33:35.000Z</time>
      </trkpt>
      <trkpt lat="48.21192" lon="-3.15481">
        <ele>146.19999694824</ele>
        <time>2020-10-19T10:33:36.000Z</time>
      </trkpt>
      <trkpt lat="48.21192" lon="-3.15483">
        <ele>146.39999389648</ele>
        <time>2020-10-19T10:33:37.000Z</time>
      </trkpt>
      <trkpt lat="48.21192" lon="-3.15484">
        <ele>146.39999389648</ele>
        <time>2020-10-19T10:33:38.000Z</time>
      </trkpt>
      <trkpt lat="48.21192" lon="-3.15485">
        <ele>146.39999389648</ele>
        <time>2020-10-19T10:33:39.000Z</time>
      </trkpt>
      <trkpt lat="48.21192" lon="-3.15486">
        <ele>146.39999389648</ele>
        <time>2020-10-19T10:33:40.000Z</time>
      </trkpt>
      <trkpt lat="48.21192" lon="-3.15487">
        <ele>146.39999389648</ele>
        <time>2020-10-19T10:33:41.000Z</time>
      </trkpt>
      <trkpt lat="48.21192" lon="-3.15488">
        <ele>146.39999389648</ele>
        <time>2020-10-19T10:33:42.000Z</time>
      </trkpt>
      <trkpt lat="48.21192" lon="-3.15488">
        <ele>146.39999389648</ele>
        <time>2020-10-19T10:33:43.000Z</time>
      </trkpt>
      <trkpt lat="48.21192" lon="-3.15489">
        <ele>146.39999389648</ele>
        <time>2020-10-19T10:33:44.000Z</time>
      </trkpt>
      <trkpt lat="48.21192" lon="-3.15489">
        <ele>146.39999389648</ele>
        <time>2020-10-19T10:33:45.000Z</time>
      </trkpt>
      <trkpt lat="48.21192" lon="-3.15489">
        <ele>146.39999389648</ele>
        <time>2020-10-19T10:33:46.000Z</time>
      </trkpt>
      <trkpt lat="48.21192" lon="-3.15489">
        <ele>146.39999389648</ele>
        <time>2020-10-19T10:33:47.000Z</time>
      </trkpt>
      <trkpt lat="48.21192" lon="-3.15489">
        <ele>146.60000610352</ele>
        <time>2020-10-19T10:33:48.000Z</time>
      </trkpt>
      <trkpt lat="48.21192" lon="-3.15489">
        <ele>146.60000610352</ele>
        <time>2020-10-19T10:33:49.000Z</time>
      </trkpt>
      <trkpt lat="48.21192" lon="-3.1549">
        <ele>146.60000610352</ele>
        <time>2020-10-19T10:33:50.000Z</time>
      </trkpt>
      <trkpt lat="48.21192" lon="-3.15491">
        <ele>146.60000610352</ele>
        <time>2020-10-19T10:33:51.000Z</time>
      </trkpt>
      <trkpt lat="48.21192" lon="-3.15493">
        <ele>146.60000610352</ele>
        <time>2020-10-19T10:33:52.000Z</time>
      </trkpt>
      <trkpt lat="48.21192" lon="-3.15495">
        <ele>146.80000305176</ele>
        <time>2020-10-19T10:33:53.000Z</time>
      </trkpt>
      <trkpt lat="48.21192" lon="-3.15497">
        <ele>146.80000305176</ele>
        <time>2020-10-19T10:33:54.000Z</time>
      </trkpt>
      <trkpt lat="48.21191" lon="-3.15499">
        <ele>147</ele>
        <time>2020-10-19T10:33:55.000Z</time>
      </trkpt>
      <trkpt lat="48.21191" lon="-3.15501">
        <ele>147</ele>
        <time>2020-10-19T10:33:56.000Z</time>
      </trkpt>
      <trkpt lat="48.21192" lon="-3.15503">
        <ele>147</ele>
        <time>2020-10-19T10:33:57.000Z</time>
      </trkpt>
      <trkpt lat="48.21193" lon="-3.15504">
        <ele>146.80000305176</ele>
        <time>2020-10-19T10:33:58.000Z</time>
      </trkpt>
      <trkpt lat="48.21193" lon="-3.15506">
        <ele>146.60000610352</ele>
        <time>2020-10-19T10:33:59.000Z</time>
      </trkpt>
      <trkpt lat="48.21194" lon="-3.15508">
        <ele>146.60000610352</ele>
        <time>2020-10-19T10:34:00.000Z</time>
      </trkpt>
      <trkpt lat="48.21194" lon="-3.15509">
        <ele>146.60000610352</ele>
        <time>2020-10-19T10:34:01.000Z</time>
      </trkpt>
      <trkpt lat="48.21194" lon="-3.15511">
        <ele>146.39999389648</ele>
        <time>2020-10-19T10:34:02.000Z</time>
      </trkpt>
      <trkpt lat="48.21195" lon="-3.15512">
        <ele>146.39999389648</ele>
        <time>2020-10-19T10:34:03.000Z</time>
      </trkpt>
      <trkpt lat="48.21195" lon="-3.15514">
        <ele>146.19999694824</ele>
        <time>2020-10-19T10:34:04.000Z</time>
      </trkpt>
      <trkpt lat="48.21196" lon="-3.15516">
        <ele>145.80000305176</ele>
        <time>2020-10-19T10:34:05.000Z</time>
      </trkpt>
      <trkpt lat="48.21197" lon="-3.15517">
        <ele>145.60000610352</ele>
        <time>2020-10-19T10:34:06.000Z</time>
      </trkpt>
      <trkpt lat="48.21197" lon="-3.15519">
        <ele>145.60000610352</ele>
        <time>2020-10-19T10:34:07.000Z</time>
      </trkpt>
      <trkpt lat="48.21198" lon="-3.1552">
        <ele>145.39999389648</ele>
        <time>2020-10-19T10:34:08.000Z</time>
      </trkpt>
      <trkpt lat="48.21197" lon="-3.15522">
        <ele>145.39999389648</ele>
        <time>2020-10-19T10:34:09.000Z</time>
      </trkpt>
      <trkpt lat="48.21198" lon="-3.15524">
        <ele>145.39999389648</ele>
        <time>2020-10-19T10:34:10.000Z</time>
      </trkpt>
      <trkpt lat="48.21198" lon="-3.15526">
        <ele>145.19999694824</ele>
        <time>2020-10-19T10:34:11.000Z</time>
      </trkpt>
      <trkpt lat="48.21198" lon="-3.15528">
        <ele>145.19999694824</ele>
        <time>2020-10-19T10:34:12.000Z</time>
      </trkpt>
      <trkpt lat="48.21198" lon="-3.15529">
        <ele>145.19999694824</ele>
        <time>2020-10-19T10:34:13.000Z</time>
      </trkpt>
      <trkpt lat="48.21198" lon="-3.15531">
        <ele>145.19999694824</ele>
        <time>2020-10-19T10:34:14.000Z</time>
      </trkpt>
      <trkpt lat="48.21198" lon="-3.15533">
        <ele>145</ele>
        <time>2020-10-19T10:34:15.000Z</time>
      </trkpt>
      <trkpt lat="48.21198" lon="-3.15534">
        <ele>145</ele>
        <time>2020-10-19T10:34:16.000Z</time>
      </trkpt>
      <trkpt lat="48.21198" lon="-3.15536">
        <ele>144.80000305176</ele>
        <time>2020-10-19T10:34:17.000Z</time>
      </trkpt>
      <trkpt lat="48.21199" lon="-3.15538">
        <ele>144.80000305176</ele>
        <time>2020-10-19T10:34:18.000Z</time>
      </trkpt>
      <trkpt lat="48.21199" lon="-3.1554">
        <ele>144.80000305176</ele>
        <time>2020-10-19T10:34:19.000Z</time>
      </trkpt>
      <trkpt lat="48.21198" lon="-3.15541">
        <ele>144.80000305176</ele>
        <time>2020-10-19T10:34:20.000Z</time>
      </trkpt>
      <trkpt lat="48.21198" lon="-3.15543">
        <ele>144.80000305176</ele>
        <time>2020-10-19T10:34:21.000Z</time>
      </trkpt>
      <trkpt lat="48.21198" lon="-3.15544">
        <ele>144.80000305176</ele>
        <time>2020-10-19T10:34:22.000Z</time>
      </trkpt>
      <trkpt lat="48.21197" lon="-3.15546">
        <ele>144.80000305176</ele>
        <time>2020-10-19T10:34:23.000Z</time>
      </trkpt>
      <trkpt lat="48.21197" lon="-3.15548">
        <ele>144.80000305176</ele>
        <time>2020-10-19T10:34:24.000Z</time>
      </trkpt>
      <trkpt lat="48.21199" lon="-3.1555">
        <ele>144.60000610352</ele>
        <time>2020-10-19T10:34:25.000Z</time>
      </trkpt>
      <trkpt lat="48.21198" lon="-3.15552">
        <ele>144.60000610352</ele>
        <time>2020-10-19T10:34:26.000Z</time>
      </trkpt>
      <trkpt lat="48.21198" lon="-3.15553">
        <ele>144.60000610352</ele>
        <time>2020-10-19T10:34:27.000Z</time>
      </trkpt>
      <trkpt lat="48.21198" lon="-3.15555">
        <ele>144.60000610352</ele>
        <time>2020-10-19T10:34:28.000Z</time>
      </trkpt>
      <trkpt lat="48.21197" lon="-3.15557">
        <ele>144.60000610352</ele>
        <time>2020-10-19T10:34:29.000Z</time>
      </trkpt>
      <trkpt lat="48.21197" lon="-3.15558">
        <ele>144.60000610352</ele>
        <time>2020-10-19T10:34:30.000Z</time>
      </trkpt>
      <trkpt lat="48.21197" lon="-3.1556">
        <ele>144.60000610352</ele>
        <time>2020-10-19T10:34:31.000Z</time>
      </trkpt>
      <trkpt lat="48.21197" lon="-3.15562">
        <ele>144.60000610352</ele>
        <time>2020-10-19T10:34:32.000Z</time>
      </trkpt>
      <trkpt lat="48.21197" lon="-3.15563">
        <ele>144.60000610352</ele>
        <time>2020-10-19T10:34:33.000Z</time>
      </trkpt>
      <trkpt lat="48.21196" lon="-3.15565">
        <ele>144.60000610352</ele>
        <time>2020-10-19T10:34:34.000Z</time>
      </trkpt>
      <trkpt lat="48.21196" lon="-3.15566">
        <ele>144.80000305176</ele>
        <time>2020-10-19T10:34:35.000Z</time>
      </trkpt>
      <trkpt lat="48.21195" lon="-3.15568">
        <ele>144.80000305176</ele>
        <time>2020-10-19T10:34:36.000Z</time>
      </trkpt>
      <trkpt lat="48.21195" lon="-3.1557">
        <ele>144.80000305176</ele>
        <time>2020-10-19T10:34:37.000Z</time>
      </trkpt>
      <trkpt lat="48.21195" lon="-3.15571">
        <ele>144.80000305176</ele>
        <time>2020-10-19T10:34:38.000Z</time>
      </trkpt>
      <trkpt lat="48.21196" lon="-3.15573">
        <ele>144.60000610352</ele>
        <time>2020-10-19T10:34:39.000Z</time>
      </trkpt>
      <trkpt lat="48.21197" lon="-3.15575">
        <ele>144.39999389648</ele>
        <time>2020-10-19T10:34:40.000Z</time>
      </trkpt>
      <trkpt lat="48.21197" lon="-3.15576">
        <ele>144.19999694824</ele>
        <time>2020-10-19T10:34:41.000Z</time>
      </trkpt>
      <trkpt lat="48.21199" lon="-3.15577">
        <ele>144</ele>
        <time>2020-10-19T10:34:42.000Z</time>
      </trkpt>
      <trkpt lat="48.212" lon="-3.15579">
        <ele>143.80000305176</ele>
        <time>2020-10-19T10:34:43.000Z</time>
      </trkpt>
      <trkpt lat="48.212" lon="-3.1558">
        <ele>143.60000610352</ele>
        <time>2020-10-19T10:34:44.000Z</time>
      </trkpt>
      <trkpt lat="48.21201" lon="-3.15581">
        <ele>143.60000610352</ele>
        <time>2020-10-19T10:34:45.000Z</time>
      </trkpt>
      <trkpt lat="48.21202" lon="-3.15582">
        <ele>143.39999389648</ele>
        <time>2020-10-19T10:34:46.000Z</time>
      </trkpt>
      <trkpt lat="48.21202" lon="-3.15584">
        <ele>143.39999389648</ele>
        <time>2020-10-19T10:34:47.000Z</time>
      </trkpt>
      <trkpt lat="48.21202" lon="-3.15585">
        <ele>143.39999389648</ele>
        <time>2020-10-19T10:34:48.000Z</time>
      </trkpt>
      <trkpt lat="48.21203" lon="-3.15587">
        <ele>143.39999389648</ele>
        <time>2020-10-19T10:34:49.000Z</time>
      </trkpt>
      <trkpt lat="48.21202" lon="-3.15588">
        <ele>143.39999389648</ele>
        <time>2020-10-19T10:34:50.000Z</time>
      </trkpt>
      <trkpt lat="48.21202" lon="-3.1559">
        <ele>143.39999389648</ele>
        <time>2020-10-19T10:34:51.000Z</time>
      </trkpt>
      <trkpt lat="48.21202" lon="-3.15592">
        <ele>143.39999389648</ele>
        <time>2020-10-19T10:34:52.000Z</time>
      </trkpt>
      <trkpt lat="48.21202" lon="-3.15594">
        <ele>143.39999389648</ele>
        <time>2020-10-19T10:34:53.000Z</time>
      </trkpt>
      <trkpt lat="48.21202" lon="-3.15595">
        <ele>143.39999389648</ele>
        <time>2020-10-19T10:34:54.000Z</time>
      </trkpt>
      <trkpt lat="48.21202" lon="-3.15596">
        <ele>143.39999389648</ele>
        <time>2020-10-19T10:34:55.000Z</time>
      </trkpt>
      <trkpt lat="48.21203" lon="-3.15597">
        <ele>143.19999694824</ele>
        <time>2020-10-19T10:34:56.000Z</time>
      </trkpt>
      <trkpt lat="48.21203" lon="-3.15599">
        <ele>143</ele>
        <time>2020-10-19T10:34:57.000Z</time>
      </trkpt>
      <trkpt lat="48.21204" lon="-3.156">
        <ele>142.80000305176</ele>
        <time>2020-10-19T10:34:58.000Z</time>
      </trkpt>
      <trkpt lat="48.21204" lon="-3.15602">
        <ele>142.80000305176</ele>
        <time>2020-10-19T10:34:59.000Z</time>
      </trkpt>
      <trkpt lat="48.21205" lon="-3.15604">
        <ele>142.39999389648</ele>
        <time>2020-10-19T10:35:00.000Z</time>
      </trkpt>
      <trkpt lat="48.21205" lon="-3.15606">
        <ele>142.39999389648</ele>
        <time>2020-10-19T10:35:01.000Z</time>
      </trkpt>
      <trkpt lat="48.21205" lon="-3.15608">
        <ele>142.39999389648</ele>
        <time>2020-10-19T10:35:02.000Z</time>
      </trkpt>
      <trkpt lat="48.21205" lon="-3.1561">
        <ele>142.19999694824</ele>
        <time>2020-10-19T10:35:03.000Z</time>
      </trkpt>
      <trkpt lat="48.21205" lon="-3.15614">
        <ele>142</ele>
        <time>2020-10-19T10:35:04.000Z</time>
      </trkpt>
      <trkpt lat="48.21205" lon="-3.15614">
        <ele>142</ele>
        <time>2020-10-19T10:35:05.000Z</time>
      </trkpt>
      <trkpt lat="48.21205" lon="-3.15616">
        <ele>141.80000305176</ele>
        <time>2020-10-19T10:35:06.000Z</time>
      </trkpt>
      <trkpt lat="48.21205" lon="-3.15617">
        <ele>141.80000305176</ele>
        <time>2020-10-19T10:35:07.000Z</time>
      </trkpt>
      <trkpt lat="48.21205" lon="-3.15619">
        <ele>141.60000610352</ele>
        <time>2020-10-19T10:35:08.000Z</time>
      </trkpt>
      <trkpt lat="48.21206" lon="-3.1562">
        <ele>141.60000610352</ele>
        <time>2020-10-19T10:35:09.000Z</time>
      </trkpt>
      <trkpt lat="48.21206" lon="-3.15621">
        <ele>141.39999389648</ele>
        <time>2020-10-19T10:35:10.000Z</time>
      </trkpt>
      <trkpt lat="48.21206" lon="-3.15622">
        <ele>141.39999389648</ele>
        <time>2020-10-19T10:35:11.000Z</time>
      </trkpt>
      <trkpt lat="48.21207" lon="-3.15622">
        <ele>141.19999694824</ele>
        <time>2020-10-19T10:35:12.000Z</time>
      </trkpt>
      <trkpt lat="48.21207" lon="-3.15622">
        <ele>141.19999694824</ele>
        <time>2020-10-19T10:35:13.000Z</time>
      </trkpt>
      <trkpt lat="48.21207" lon="-3.15622">
        <ele>141.19999694824</ele>
        <time>2020-10-19T10:35:14.000Z</time>
      </trkpt>
      <trkpt lat="48.21207" lon="-3.15622">
        <ele>141.19999694824</ele>
        <time>2020-10-19T10:35:15.000Z</time>
      </trkpt>
      <trkpt lat="48.21207" lon="-3.15622">
        <ele>141.19999694824</ele>
        <time>2020-10-19T10:35:16.000Z</time>
      </trkpt>
      <trkpt lat="48.21207" lon="-3.15623">
        <ele>141.19999694824</ele>
        <time>2020-10-19T10:35:17.000Z</time>
      </trkpt>
      <trkpt lat="48.21207" lon="-3.15623">
        <ele>141.19999694824</ele>
        <time>2020-10-19T10:35:18.000Z</time>
      </trkpt>
      <trkpt lat="48.21207" lon="-3.15623">
        <ele>141.19999694824</ele>
        <time>2020-10-19T10:35:19.000Z</time>
      </trkpt>
      <trkpt lat="48.21207" lon="-3.15623">
        <ele>141</ele>
        <time>2020-10-19T10:35:20.000Z</time>
      </trkpt>
      <trkpt lat="48.21207" lon="-3.15623">
        <ele>141.19999694824</ele>
        <time>2020-10-19T10:35:21.000Z</time>
      </trkpt>
      <trkpt lat="48.21207" lon="-3.15623">
        <ele>141.19999694824</ele>
        <time>2020-10-19T10:35:22.000Z</time>
      </trkpt>
      <trkpt lat="48.21207" lon="-3.15624">
        <ele>141</ele>
        <time>2020-10-19T10:35:23.000Z</time>
      </trkpt>
      <trkpt lat="48.21207" lon="-3.15625">
        <ele>141</ele>
        <time>2020-10-19T10:35:24.000Z</time>
      </trkpt>
      <trkpt lat="48.21207" lon="-3.15626">
        <ele>141</ele>
        <time>2020-10-19T10:35:25.000Z</time>
      </trkpt>
      <trkpt lat="48.21207" lon="-3.15627">
        <ele>140.80000305176</ele>
        <time>2020-10-19T10:35:26.000Z</time>
      </trkpt>
      <trkpt lat="48.21208" lon="-3.15628">
        <ele>140.80000305176</ele>
        <time>2020-10-19T10:35:27.000Z</time>
      </trkpt>
      <trkpt lat="48.21208" lon="-3.1563">
        <ele>140.60000610352</ele>
        <time>2020-10-19T10:35:28.000Z</time>
      </trkpt>
      <trkpt lat="48.21208" lon="-3.15631">
        <ele>140.60000610352</ele>
        <time>2020-10-19T10:35:29.000Z</time>
      </trkpt>
      <trkpt lat="48.21208" lon="-3.15632">
        <ele>140.39999389648</ele>
        <time>2020-10-19T10:35:30.000Z</time>
      </trkpt>
      <trkpt lat="48.21208" lon="-3.15634">
        <ele>140.39999389648</ele>
        <time>2020-10-19T10:35:31.000Z</time>
      </trkpt>
      <trkpt lat="48.21209" lon="-3.15635">
        <ele>140.19999694824</ele>
        <time>2020-10-19T10:35:32.000Z</time>
      </trkpt>
      <trkpt lat="48.21209" lon="-3.15637">
        <ele>140.19999694824</ele>
        <time>2020-10-19T10:35:33.000Z</time>
      </trkpt>
      <trkpt lat="48.21209" lon="-3.15639">
        <ele>140</ele>
        <time>2020-10-19T10:35:34.000Z</time>
      </trkpt>
      <trkpt lat="48.21209" lon="-3.1564">
        <ele>140</ele>
        <time>2020-10-19T10:35:35.000Z</time>
      </trkpt>
      <trkpt lat="48.21209" lon="-3.15642">
        <ele>139.80000305176</ele>
        <time>2020-10-19T10:35:36.000Z</time>
      </trkpt>
      <trkpt lat="48.21209" lon="-3.15643">
        <ele>139.80000305176</ele>
        <time>2020-10-19T10:35:37.000Z</time>
      </trkpt>
      <trkpt lat="48.21209" lon="-3.15645">
        <ele>139.60000610352</ele>
        <time>2020-10-19T10:35:38.000Z</time>
      </trkpt>
      <trkpt lat="48.2121" lon="-3.15646">
        <ele>139.60000610352</ele>
        <time>2020-10-19T10:35:39.000Z</time>
      </trkpt>
      <trkpt lat="48.21209" lon="-3.15647">
        <ele>139.60000610352</ele>
        <time>2020-10-19T10:35:40.000Z</time>
      </trkpt>
      <trkpt lat="48.21209" lon="-3.1565">
        <ele>139.60000610352</ele>
        <time>2020-10-19T10:35:41.000Z</time>
      </trkpt>
      <trkpt lat="48.21209" lon="-3.15651">
        <ele>139.60000610352</ele>
        <time>2020-10-19T10:35:42.000Z</time>
      </trkpt>
      <trkpt lat="48.21209" lon="-3.15653">
        <ele>139.60000610352</ele>
        <time>2020-10-19T10:35:43.000Z</time>
      </trkpt>
      <trkpt lat="48.21209" lon="-3.15654">
        <ele>139.60000610352</ele>
        <time>2020-10-19T10:35:44.000Z</time>
      </trkpt>
      <trkpt lat="48.21209" lon="-3.15656">
        <ele>139.60000610352</ele>
        <time>2020-10-19T10:35:45.000Z</time>
      </trkpt>
      <trkpt lat="48.2121" lon="-3.15657">
        <ele>139.60000610352</ele>
        <time>2020-10-19T10:35:46.000Z</time>
      </trkpt>
      <trkpt lat="48.2121" lon="-3.15659">
        <ele>139.60000610352</ele>
        <time>2020-10-19T10:35:47.000Z</time>
      </trkpt>
      <trkpt lat="48.2121" lon="-3.15661">
        <ele>139.60000610352</ele>
        <time>2020-10-19T10:35:48.000Z</time>
      </trkpt>
      <trkpt lat="48.2121" lon="-3.15663">
        <ele>139.60000610352</ele>
        <time>2020-10-19T10:35:49.000Z</time>
      </trkpt>
      <trkpt lat="48.2121" lon="-3.15665">
        <ele>139.60000610352</ele>
        <time>2020-10-19T10:35:50.000Z</time>
      </trkpt>
      <trkpt lat="48.2121" lon="-3.15666">
        <ele>139.60000610352</ele>
        <time>2020-10-19T10:35:51.000Z</time>
      </trkpt>
      <trkpt lat="48.2121" lon="-3.15666">
        <ele>139.60000610352</ele>
        <time>2020-10-19T10:35:52.000Z</time>
      </trkpt>
      <trkpt lat="48.2121" lon="-3.15667">
        <ele>139.39999389648</ele>
        <time>2020-10-19T10:35:53.000Z</time>
      </trkpt>
      <trkpt lat="48.2121" lon="-3.15667">
        <ele>139.39999389648</ele>
        <time>2020-10-19T10:35:54.000Z</time>
      </trkpt>
      <trkpt lat="48.2121" lon="-3.15667">
        <ele>139.39999389648</ele>
        <time>2020-10-19T10:35:55.000Z</time>
      </trkpt>
      <trkpt lat="48.2121" lon="-3.15667">
        <ele>139.39999389648</ele>
        <time>2020-10-19T10:35:56.000Z</time>
      </trkpt>
      <trkpt lat="48.2121" lon="-3.15667">
        <ele>139.39999389648</ele>
        <time>2020-10-19T10:35:57.000Z</time>
      </trkpt>
      <trkpt lat="48.2121" lon="-3.15667">
        <ele>139.39999389648</ele>
        <time>2020-10-19T10:35:58.000Z</time>
      </trkpt>
      <trkpt lat="48.2121" lon="-3.15666">
        <ele>139.39999389648</ele>
        <time>2020-10-19T10:35:59.000Z</time>
      </trkpt>
      <trkpt lat="48.21212" lon="-3.15665">
        <ele>139.19999694824</ele>
        <time>2020-10-19T10:36:00.000Z</time>
      </trkpt>
      <trkpt lat="48.21213" lon="-3.15665">
        <ele>139</ele>
        <time>2020-10-19T10:36:01.000Z</time>
      </trkpt>
      <trkpt lat="48.21213" lon="-3.15665">
        <ele>139</ele>
        <time>2020-10-19T10:36:02.000Z</time>
      </trkpt>
      <trkpt lat="48.21213" lon="-3.15666">
        <ele>139</ele>
        <time>2020-10-19T10:36:03.000Z</time>
      </trkpt>
      <trkpt lat="48.21213" lon="-3.15668">
        <ele>139</ele>
        <time>2020-10-19T10:36:04.000Z</time>
      </trkpt>
      <trkpt lat="48.21213" lon="-3.1567">
        <ele>139.19999694824</ele>
        <time>2020-10-19T10:36:05.000Z</time>
      </trkpt>
      <trkpt lat="48.21212" lon="-3.15672">
        <ele>139.19999694824</ele>
        <time>2020-10-19T10:36:06.000Z</time>
      </trkpt>
      <trkpt lat="48.21212" lon="-3.15674">
        <ele>139.19999694824</ele>
        <time>2020-10-19T10:36:07.000Z</time>
      </trkpt>
      <trkpt lat="48.21212" lon="-3.15676">
        <ele>139.19999694824</ele>
        <time>2020-10-19T10:36:08.000Z</time>
      </trkpt>
      <trkpt lat="48.21212" lon="-3.15678">
        <ele>139.19999694824</ele>
        <time>2020-10-19T10:36:09.000Z</time>
      </trkpt>
      <trkpt lat="48.21213" lon="-3.1568">
        <ele>139</ele>
        <time>2020-10-19T10:36:10.000Z</time>
      </trkpt>
      <trkpt lat="48.21213" lon="-3.15681">
        <ele>139</ele>
        <time>2020-10-19T10:36:11.000Z</time>
      </trkpt>
      <trkpt lat="48.21212" lon="-3.15682">
        <ele>139</ele>
        <time>2020-10-19T10:36:12.000Z</time>
      </trkpt>
      <trkpt lat="48.21213" lon="-3.15684">
        <ele>138.80000305176</ele>
        <time>2020-10-19T10:36:13.000Z</time>
      </trkpt>
      <trkpt lat="48.21213" lon="-3.15685">
        <ele>138.80000305176</ele>
        <time>2020-10-19T10:36:14.000Z</time>
      </trkpt>
      <trkpt lat="48.21213" lon="-3.15687">
        <ele>138.80000305176</ele>
        <time>2020-10-19T10:36:15.000Z</time>
      </trkpt>
      <trkpt lat="48.21213" lon="-3.15688">
        <ele>138.60000610352</ele>
        <time>2020-10-19T10:36:16.000Z</time>
      </trkpt>
      <trkpt lat="48.21213" lon="-3.1569">
        <ele>138.60000610352</ele>
        <time>2020-10-19T10:36:17.000Z</time>
      </trkpt>
      <trkpt lat="48.21214" lon="-3.15691">
        <ele>138.39999389648</ele>
        <time>2020-10-19T10:36:18.000Z</time>
      </trkpt>
      <trkpt lat="48.21214" lon="-3.15692">
        <ele>138.39999389648</ele>
        <time>2020-10-19T10:36:19.000Z</time>
      </trkpt>
      <trkpt lat="48.21215" lon="-3.15695">
        <ele>138.19999694824</ele>
        <time>2020-10-19T10:36:20.000Z</time>
      </trkpt>
      <trkpt lat="48.21215" lon="-3.15695">
        <ele>138.19999694824</ele>
        <time>2020-10-19T10:36:21.000Z</time>
      </trkpt>
      <trkpt lat="48.21216" lon="-3.15696">
        <ele>138</ele>
        <time>2020-10-19T10:36:22.000Z</time>
      </trkpt>
      <trkpt lat="48.21216" lon="-3.15698">
        <ele>137.80000305176</ele>
        <time>2020-10-19T10:36:23.000Z</time>
      </trkpt>
      <trkpt lat="48.21217" lon="-3.15699">
        <ele>137.80000305176</ele>
        <time>2020-10-19T10:36:24.000Z</time>
      </trkpt>
      <trkpt lat="48.21217" lon="-3.15701">
        <ele>137.60000610352</ele>
        <time>2020-10-19T10:36:25.000Z</time>
      </trkpt>
      <trkpt lat="48.21217" lon="-3.15703">
        <ele>137.60000610352</ele>
        <time>2020-10-19T10:36:26.000Z</time>
      </trkpt>
      <trkpt lat="48.21217" lon="-3.15704">
        <ele>137.39999389648</ele>
        <time>2020-10-19T10:36:27.000Z</time>
      </trkpt>
      <trkpt lat="48.21218" lon="-3.15706">
        <ele>137.39999389648</ele>
        <time>2020-10-19T10:36:28.000Z</time>
      </trkpt>
      <trkpt lat="48.21218" lon="-3.15707">
        <ele>137.19999694824</ele>
        <time>2020-10-19T10:36:29.000Z</time>
      </trkpt>
      <trkpt lat="48.21218" lon="-3.15708">
        <ele>137.19999694824</ele>
        <time>2020-10-19T10:36:30.000Z</time>
      </trkpt>
      <trkpt lat="48.21218" lon="-3.15709">
        <ele>137.19999694824</ele>
        <time>2020-10-19T10:36:31.000Z</time>
      </trkpt>
      <trkpt lat="48.21218" lon="-3.1571">
        <ele>137</ele>
        <time>2020-10-19T10:36:32.000Z</time>
      </trkpt>
      <trkpt lat="48.21219" lon="-3.15711">
        <ele>137</ele>
        <time>2020-10-19T10:36:33.000Z</time>
      </trkpt>
      <trkpt lat="48.21219" lon="-3.15711">
        <ele>137</ele>
        <time>2020-10-19T10:36:34.000Z</time>
      </trkpt>
      <trkpt lat="48.21219" lon="-3.15711">
        <ele>137</ele>
        <time>2020-10-19T10:36:35.000Z</time>
      </trkpt>
      <trkpt lat="48.21218" lon="-3.15712">
        <ele>137</ele>
        <time>2020-10-19T10:36:36.000Z</time>
      </trkpt>
      <trkpt lat="48.21218" lon="-3.15712">
        <ele>137</ele>
        <time>2020-10-19T10:36:37.000Z</time>
      </trkpt>
      <trkpt lat="48.21218" lon="-3.15712">
        <ele>137.19999694824</ele>
        <time>2020-10-19T10:36:38.000Z</time>
      </trkpt>
      <trkpt lat="48.21217" lon="-3.15712">
        <ele>137.19999694824</ele>
        <time>2020-10-19T10:36:39.000Z</time>
      </trkpt>
      <trkpt lat="48.21217" lon="-3.15712">
        <ele>137.19999694824</ele>
        <time>2020-10-19T10:36:40.000Z</time>
      </trkpt>
      <trkpt lat="48.21218" lon="-3.15714">
        <ele>137</ele>
        <time>2020-10-19T10:36:41.000Z</time>
      </trkpt>
      <trkpt lat="48.21218" lon="-3.15714">
        <ele>137</ele>
        <time>2020-10-19T10:36:42.000Z</time>
      </trkpt>
      <trkpt lat="48.21218" lon="-3.15715">
        <ele>137</ele>
        <time>2020-10-19T10:36:43.000Z</time>
      </trkpt>
      <trkpt lat="48.21219" lon="-3.15716">
        <ele>136.80000305176</ele>
        <time>2020-10-19T10:36:44.000Z</time>
      </trkpt>
      <trkpt lat="48.21219" lon="-3.15718">
        <ele>136.60000610352</ele>
        <time>2020-10-19T10:36:45.000Z</time>
      </trkpt>
      <trkpt lat="48.2122" lon="-3.1572">
        <ele>136.60000610352</ele>
        <time>2020-10-19T10:36:46.000Z</time>
      </trkpt>
      <trkpt lat="48.21221" lon="-3.15722">
        <ele>136.60000610352</ele>
        <time>2020-10-19T10:36:47.000Z</time>
      </trkpt>
      <trkpt lat="48.21222" lon="-3.15724">
        <ele>136.39999389648</ele>
        <time>2020-10-19T10:36:48.000Z</time>
      </trkpt>
      <trkpt lat="48.21223" lon="-3.15726">
        <ele>136.39999389648</ele>
        <time>2020-10-19T10:36:49.000Z</time>
      </trkpt>
      <trkpt lat="48.21223" lon="-3.15727">
        <ele>136.19999694824</ele>
        <time>2020-10-19T10:36:50.000Z</time>
      </trkpt>
      <trkpt lat="48.21224" lon="-3.15729">
        <ele>136.19999694824</ele>
        <time>2020-10-19T10:36:51.000Z</time>
      </trkpt>
      <trkpt lat="48.21225" lon="-3.1573">
        <ele>136.19999694824</ele>
        <time>2020-10-19T10:36:52.000Z</time>
      </trkpt>
      <trkpt lat="48.21225" lon="-3.15732">
        <ele>136.19999694824</ele>
        <time>2020-10-19T10:36:53.000Z</time>
      </trkpt>
      <trkpt lat="48.21226" lon="-3.15733">
        <ele>136.19999694824</ele>
        <time>2020-10-19T10:36:54.000Z</time>
      </trkpt>
      <trkpt lat="48.21227" lon="-3.15734">
        <ele>136</ele>
        <time>2020-10-19T10:36:55.000Z</time>
      </trkpt>
      <trkpt lat="48.21227" lon="-3.15736">
        <ele>136</ele>
        <time>2020-10-19T10:36:56.000Z</time>
      </trkpt>
      <trkpt lat="48.21227" lon="-3.15737">
        <ele>136</ele>
        <time>2020-10-19T10:36:57.000Z</time>
      </trkpt>
      <trkpt lat="48.21228" lon="-3.15739">
        <ele>136</ele>
        <time>2020-10-19T10:36:58.000Z</time>
      </trkpt>
      <trkpt lat="48.21228" lon="-3.1574">
        <ele>136</ele>
        <time>2020-10-19T10:36:59.000Z</time>
      </trkpt>
      <trkpt lat="48.21229" lon="-3.15742">
        <ele>136</ele>
        <time>2020-10-19T10:37:00.000Z</time>
      </trkpt>
      <trkpt lat="48.21229" lon="-3.15744">
        <ele>136</ele>
        <time>2020-10-19T10:37:01.000Z</time>
      </trkpt>
      <trkpt lat="48.21229" lon="-3.15745">
        <ele>136</ele>
        <time>2020-10-19T10:37:02.000Z</time>
      </trkpt>
      <trkpt lat="48.21229" lon="-3.15747">
        <ele>136</ele>
        <time>2020-10-19T10:37:03.000Z</time>
      </trkpt>
      <trkpt lat="48.2123" lon="-3.15749">
        <ele>136</ele>
        <time>2020-10-19T10:37:04.000Z</time>
      </trkpt>
      <trkpt lat="48.2123" lon="-3.1575">
        <ele>135.80000305176</ele>
        <time>2020-10-19T10:37:05.000Z</time>
      </trkpt>
      <trkpt lat="48.21231" lon="-3.15751">
        <ele>135.80000305176</ele>
        <time>2020-10-19T10:37:06.000Z</time>
      </trkpt>
      <trkpt lat="48.21232" lon="-3.15753">
        <ele>135.80000305176</ele>
        <time>2020-10-19T10:37:07.000Z</time>
      </trkpt>
      <trkpt lat="48.21233" lon="-3.15755">
        <ele>135.80000305176</ele>
        <time>2020-10-19T10:37:08.000Z</time>
      </trkpt>
      <trkpt lat="48.21233" lon="-3.15755">
        <ele>135.80000305176</ele>
        <time>2020-10-19T10:37:09.000Z</time>
      </trkpt>
      <trkpt lat="48.21233" lon="-3.15756">
        <ele>135.80000305176</ele>
        <time>2020-10-19T10:37:10.000Z</time>
      </trkpt>
      <trkpt lat="48.21233" lon="-3.15756">
        <ele>135.80000305176</ele>
        <time>2020-10-19T10:37:11.000Z</time>
      </trkpt>
      <trkpt lat="48.21233" lon="-3.15756">
        <ele>135.60000610352</ele>
        <time>2020-10-19T10:37:12.000Z</time>
      </trkpt>
      <trkpt lat="48.21234" lon="-3.15757">
        <ele>135.60000610352</ele>
        <time>2020-10-19T10:37:13.000Z</time>
      </trkpt>
      <trkpt lat="48.21234" lon="-3.15757">
        <ele>135.60000610352</ele>
        <time>2020-10-19T10:37:14.000Z</time>
      </trkpt>
      <trkpt lat="48.21234" lon="-3.15757">
        <ele>135.60000610352</ele>
        <time>2020-10-19T10:37:15.000Z</time>
      </trkpt>
      <trkpt lat="48.21234" lon="-3.15757">
        <ele>135.60000610352</ele>
        <time>2020-10-19T10:37:16.000Z</time>
      </trkpt>
      <trkpt lat="48.21234" lon="-3.15757">
        <ele>135.60000610352</ele>
        <time>2020-10-19T10:37:17.000Z</time>
      </trkpt>
      <trkpt lat="48.21234" lon="-3.15757">
        <ele>135.60000610352</ele>
        <time>2020-10-19T10:37:18.000Z</time>
      </trkpt>
      <trkpt lat="48.21234" lon="-3.15759">
        <ele>135.60000610352</ele>
        <time>2020-10-19T10:37:19.000Z</time>
      </trkpt>
      <trkpt lat="48.21234" lon="-3.15759">
        <ele>135.60000610352</ele>
        <time>2020-10-19T10:37:20.000Z</time>
      </trkpt>
      <trkpt lat="48.21235" lon="-3.1576">
        <ele>135.60000610352</ele>
        <time>2020-10-19T10:37:21.000Z</time>
      </trkpt>
      <trkpt lat="48.21235" lon="-3.1576">
        <ele>135.60000610352</ele>
        <time>2020-10-19T10:37:22.000Z</time>
      </trkpt>
      <trkpt lat="48.21236" lon="-3.15761">
        <ele>135.60000610352</ele>
        <time>2020-10-19T10:37:23.000Z</time>
      </trkpt>
      <trkpt lat="48.21236" lon="-3.15763">
        <ele>135.39999389648</ele>
        <time>2020-10-19T10:37:24.000Z</time>
      </trkpt>
      <trkpt lat="48.21236" lon="-3.15763">
        <ele>135.39999389648</ele>
        <time>2020-10-19T10:37:25.000Z</time>
      </trkpt>
      <trkpt lat="48.21237" lon="-3.15764">
        <ele>135.19999694824</ele>
        <time>2020-10-19T10:37:26.000Z</time>
      </trkpt>
      <trkpt lat="48.21238" lon="-3.15765">
        <ele>135.19999694824</ele>
        <time>2020-10-19T10:37:27.000Z</time>
      </trkpt>
      <trkpt lat="48.21238" lon="-3.15766">
        <ele>135.19999694824</ele>
        <time>2020-10-19T10:37:28.000Z</time>
      </trkpt>
      <trkpt lat="48.21239" lon="-3.15767">
        <ele>135</ele>
        <time>2020-10-19T10:37:29.000Z</time>
      </trkpt>
      <trkpt lat="48.2124" lon="-3.15769">
        <ele>135</ele>
        <time>2020-10-19T10:37:30.000Z</time>
      </trkpt>
      <trkpt lat="48.21241" lon="-3.1577">
        <ele>134.80000305176</ele>
        <time>2020-10-19T10:37:31.000Z</time>
      </trkpt>
      <trkpt lat="48.21241" lon="-3.15771">
        <ele>134.80000305176</ele>
        <time>2020-10-19T10:37:32.000Z</time>
      </trkpt>
      <trkpt lat="48.21242" lon="-3.15773">
        <ele>134.60000610352</ele>
        <time>2020-10-19T10:37:33.000Z</time>
      </trkpt>
      <trkpt lat="48.21243" lon="-3.15774">
        <ele>134.60000610352</ele>
        <time>2020-10-19T10:37:34.000Z</time>
      </trkpt>
      <trkpt lat="48.21243" lon="-3.15775">
        <ele>134.39999389648</ele>
        <time>2020-10-19T10:37:35.000Z</time>
      </trkpt>
      <trkpt lat="48.21244" lon="-3.15776">
        <ele>134.39999389648</ele>
        <time>2020-10-19T10:37:36.000Z</time>
      </trkpt>
      <trkpt lat="48.21245" lon="-3.15777">
        <ele>134.19999694824</ele>
        <time>2020-10-19T10:37:37.000Z</time>
      </trkpt>
      <trkpt lat="48.21247" lon="-3.1578">
        <ele>134.19999694824</ele>
        <time>2020-10-19T10:37:38.000Z</time>
      </trkpt>
      <trkpt lat="48.21247" lon="-3.1578">
        <ele>134.19999694824</ele>
        <time>2020-10-19T10:37:39.000Z</time>
      </trkpt>
      <trkpt lat="48.21248" lon="-3.15781">
        <ele>134.19999694824</ele>
        <time>2020-10-19T10:37:40.000Z</time>
      </trkpt>
      <trkpt lat="48.21248" lon="-3.15782">
        <ele>134.19999694824</ele>
        <time>2020-10-19T10:37:41.000Z</time>
      </trkpt>
      <trkpt lat="48.2125" lon="-3.15784">
        <ele>134.19999694824</ele>
        <time>2020-10-19T10:37:42.000Z</time>
      </trkpt>
      <trkpt lat="48.2125" lon="-3.15785">
        <ele>134.19999694824</ele>
        <time>2020-10-19T10:37:43.000Z</time>
      </trkpt>
      <trkpt lat="48.21251" lon="-3.15786">
        <ele>134.19999694824</ele>
        <time>2020-10-19T10:37:44.000Z</time>
      </trkpt>
      <trkpt lat="48.21252" lon="-3.15788">
        <ele>134.39999389648</ele>
        <time>2020-10-19T10:37:45.000Z</time>
      </trkpt>
      <trkpt lat="48.21253" lon="-3.15789">
        <ele>134.39999389648</ele>
        <time>2020-10-19T10:37:46.000Z</time>
      </trkpt>
      <trkpt lat="48.21254" lon="-3.1579">
        <ele>134.39999389648</ele>
        <time>2020-10-19T10:37:47.000Z</time>
      </trkpt>
      <trkpt lat="48.21255" lon="-3.15792">
        <ele>134.39999389648</ele>
        <time>2020-10-19T10:37:48.000Z</time>
      </trkpt>
      <trkpt lat="48.21255" lon="-3.15793">
        <ele>134.39999389648</ele>
        <time>2020-10-19T10:37:49.000Z</time>
      </trkpt>
      <trkpt lat="48.21256" lon="-3.15794">
        <ele>134.39999389648</ele>
        <time>2020-10-19T10:37:50.000Z</time>
      </trkpt>
      <trkpt lat="48.21257" lon="-3.15795">
        <ele>134.39999389648</ele>
        <time>2020-10-19T10:37:51.000Z</time>
      </trkpt>
      <trkpt lat="48.21258" lon="-3.15797">
        <ele>134.39999389648</ele>
        <time>2020-10-19T10:37:52.000Z</time>
      </trkpt>
      <trkpt lat="48.21259" lon="-3.15798">
        <ele>134.39999389648</ele>
        <time>2020-10-19T10:37:53.000Z</time>
      </trkpt>
      <trkpt lat="48.2126" lon="-3.15799">
        <ele>134.39999389648</ele>
        <time>2020-10-19T10:37:54.000Z</time>
      </trkpt>
      <trkpt lat="48.2126" lon="-3.158">
        <ele>134.39999389648</ele>
        <time>2020-10-19T10:37:55.000Z</time>
      </trkpt>
      <trkpt lat="48.21261" lon="-3.15801">
        <ele>134.39999389648</ele>
        <time>2020-10-19T10:37:56.000Z</time>
      </trkpt>
      <trkpt lat="48.21262" lon="-3.15802">
        <ele>134.39999389648</ele>
        <time>2020-10-19T10:37:57.000Z</time>
      </trkpt>
      <trkpt lat="48.21263" lon="-3.15804">
        <ele>134.39999389648</ele>
        <time>2020-10-19T10:37:58.000Z</time>
      </trkpt>
      <trkpt lat="48.21263" lon="-3.15804">
        <ele>134.39999389648</ele>
        <time>2020-10-19T10:37:59.000Z</time>
      </trkpt>
      <trkpt lat="48.21264" lon="-3.15805">
        <ele>134.39999389648</ele>
        <time>2020-10-19T10:38:00.000Z</time>
      </trkpt>
      <trkpt lat="48.21265" lon="-3.15806">
        <ele>134.39999389648</ele>
        <time>2020-10-19T10:38:01.000Z</time>
      </trkpt>
      <trkpt lat="48.21266" lon="-3.15807">
        <ele>134.39999389648</ele>
        <time>2020-10-19T10:38:02.000Z</time>
      </trkpt>
      <trkpt lat="48.21267" lon="-3.15808">
        <ele>134.39999389648</ele>
        <time>2020-10-19T10:38:03.000Z</time>
      </trkpt>
      <trkpt lat="48.21267" lon="-3.15809">
        <ele>134.39999389648</ele>
        <time>2020-10-19T10:38:04.000Z</time>
      </trkpt>
      <trkpt lat="48.21268" lon="-3.1581">
        <ele>134.39999389648</ele>
        <time>2020-10-19T10:38:05.000Z</time>
      </trkpt>
      <trkpt lat="48.2127" lon="-3.15811">
        <ele>134.39999389648</ele>
        <time>2020-10-19T10:38:06.000Z</time>
      </trkpt>
      <trkpt lat="48.21271" lon="-3.15812">
        <ele>134.39999389648</ele>
        <time>2020-10-19T10:38:07.000Z</time>
      </trkpt>
      <trkpt lat="48.21271" lon="-3.15813">
        <ele>134.39999389648</ele>
        <time>2020-10-19T10:38:08.000Z</time>
      </trkpt>
      <trkpt lat="48.21272" lon="-3.15814">
        <ele>134.39999389648</ele>
        <time>2020-10-19T10:38:09.000Z</time>
      </trkpt>
      <trkpt lat="48.21273" lon="-3.15815">
        <ele>134.39999389648</ele>
        <time>2020-10-19T10:38:10.000Z</time>
      </trkpt>
      <trkpt lat="48.21275" lon="-3.15818">
        <ele>134.39999389648</ele>
        <time>2020-10-19T10:38:11.000Z</time>
      </trkpt>
      <trkpt lat="48.21275" lon="-3.15818">
        <ele>134.39999389648</ele>
        <time>2020-10-19T10:38:12.000Z</time>
      </trkpt>
      <trkpt lat="48.21276" lon="-3.15819">
        <ele>134.39999389648</ele>
        <time>2020-10-19T10:38:13.000Z</time>
      </trkpt>
      <trkpt lat="48.21277" lon="-3.1582">
        <ele>134.39999389648</ele>
        <time>2020-10-19T10:38:14.000Z</time>
      </trkpt>
      <trkpt lat="48.21278" lon="-3.15821">
        <ele>134.39999389648</ele>
        <time>2020-10-19T10:38:15.000Z</time>
      </trkpt>
      <trkpt lat="48.21279" lon="-3.15822">
        <ele>134.39999389648</ele>
        <time>2020-10-19T10:38:16.000Z</time>
      </trkpt>
      <trkpt lat="48.2128" lon="-3.15823">
        <ele>134.39999389648</ele>
        <time>2020-10-19T10:38:17.000Z</time>
      </trkpt>
      <trkpt lat="48.21281" lon="-3.15824">
        <ele>134.39999389648</ele>
        <time>2020-10-19T10:38:18.000Z</time>
      </trkpt>
      <trkpt lat="48.21281" lon="-3.15826">
        <ele>134.39999389648</ele>
        <time>2020-10-19T10:38:19.000Z</time>
      </trkpt>
      <trkpt lat="48.21282" lon="-3.15827">
        <ele>134.39999389648</ele>
        <time>2020-10-19T10:38:20.000Z</time>
      </trkpt>
      <trkpt lat="48.21283" lon="-3.15827">
        <ele>134.39999389648</ele>
        <time>2020-10-19T10:38:21.000Z</time>
      </trkpt>
      <trkpt lat="48.21284" lon="-3.15828">
        <ele>134.39999389648</ele>
        <time>2020-10-19T10:38:22.000Z</time>
      </trkpt>
      <trkpt lat="48.21285" lon="-3.15829">
        <ele>134.39999389648</ele>
        <time>2020-10-19T10:38:23.000Z</time>
      </trkpt>
      <trkpt lat="48.21286" lon="-3.1583">
        <ele>134.39999389648</ele>
        <time>2020-10-19T10:38:24.000Z</time>
      </trkpt>
      <trkpt lat="48.21287" lon="-3.15831">
        <ele>134.39999389648</ele>
        <time>2020-10-19T10:38:25.000Z</time>
      </trkpt>
      <trkpt lat="48.21289" lon="-3.15832">
        <ele>134.39999389648</ele>
        <time>2020-10-19T10:38:26.000Z</time>
      </trkpt>
      <trkpt lat="48.2129" lon="-3.15833">
        <ele>134.39999389648</ele>
        <time>2020-10-19T10:38:27.000Z</time>
      </trkpt>
      <trkpt lat="48.21291" lon="-3.15834">
        <ele>134.39999389648</ele>
        <time>2020-10-19T10:38:28.000Z</time>
      </trkpt>
      <trkpt lat="48.21292" lon="-3.15835">
        <ele>134.39999389648</ele>
        <time>2020-10-19T10:38:29.000Z</time>
      </trkpt>
      <trkpt lat="48.21293" lon="-3.15836">
        <ele>134.39999389648</ele>
        <time>2020-10-19T10:38:30.000Z</time>
      </trkpt>
      <trkpt lat="48.21294" lon="-3.15836">
        <ele>134.39999389648</ele>
        <time>2020-10-19T10:38:31.000Z</time>
      </trkpt>
      <trkpt lat="48.21295" lon="-3.15837">
        <ele>134.39999389648</ele>
        <time>2020-10-19T10:38:32.000Z</time>
      </trkpt>
      <trkpt lat="48.21295" lon="-3.15838">
        <ele>134.60000610352</ele>
        <time>2020-10-19T10:38:33.000Z</time>
      </trkpt>
      <trkpt lat="48.21296" lon="-3.15839">
        <ele>134.60000610352</ele>
        <time>2020-10-19T10:38:34.000Z</time>
      </trkpt>
      <trkpt lat="48.21296" lon="-3.1584">
        <ele>134.60000610352</ele>
        <time>2020-10-19T10:38:35.000Z</time>
      </trkpt>
      <trkpt lat="48.21297" lon="-3.15841">
        <ele>134.60000610352</ele>
        <time>2020-10-19T10:38:36.000Z</time>
      </trkpt>
      <trkpt lat="48.21297" lon="-3.15842">
        <ele>134.60000610352</ele>
        <time>2020-10-19T10:38:37.000Z</time>
      </trkpt>
      <trkpt lat="48.21296" lon="-3.15842">
        <ele>134.60000610352</ele>
        <time>2020-10-19T10:38:38.000Z</time>
      </trkpt>
      <trkpt lat="48.21296" lon="-3.15843">
        <ele>134.60000610352</ele>
        <time>2020-10-19T10:38:39.000Z</time>
      </trkpt>
      <trkpt lat="48.21297" lon="-3.15843">
        <ele>134.80000305176</ele>
        <time>2020-10-19T10:38:40.000Z</time>
      </trkpt>
      <trkpt lat="48.21297" lon="-3.15844">
        <ele>134.80000305176</ele>
        <time>2020-10-19T10:38:41.000Z</time>
      </trkpt>
      <trkpt lat="48.21297" lon="-3.15844">
        <ele>134.80000305176</ele>
        <time>2020-10-19T10:38:42.000Z</time>
      </trkpt>
      <trkpt lat="48.21297" lon="-3.15844">
        <ele>134.60000610352</ele>
        <time>2020-10-19T10:38:43.000Z</time>
      </trkpt>
      <trkpt lat="48.21298" lon="-3.15844">
        <ele>134.60000610352</ele>
        <time>2020-10-19T10:38:44.000Z</time>
      </trkpt>
      <trkpt lat="48.21298" lon="-3.15843">
        <ele>134.60000610352</ele>
        <time>2020-10-19T10:38:45.000Z</time>
      </trkpt>
      <trkpt lat="48.21298" lon="-3.15843">
        <ele>134.60000610352</ele>
        <time>2020-10-19T10:38:46.000Z</time>
      </trkpt>
      <trkpt lat="48.21298" lon="-3.15843">
        <ele>134.60000610352</ele>
        <time>2020-10-19T10:38:47.000Z</time>
      </trkpt>
      <trkpt lat="48.21298" lon="-3.15843">
        <ele>134.60000610352</ele>
        <time>2020-10-19T10:38:48.000Z</time>
      </trkpt>
      <trkpt lat="48.21298" lon="-3.15843">
        <ele>134.60000610352</ele>
        <time>2020-10-19T10:38:49.000Z</time>
      </trkpt>
      <trkpt lat="48.21298" lon="-3.15843">
        <ele>134.60000610352</ele>
        <time>2020-10-19T10:38:50.000Z</time>
      </trkpt>
      <trkpt lat="48.21298" lon="-3.15843">
        <ele>134.60000610352</ele>
        <time>2020-10-19T10:38:51.000Z</time>
      </trkpt>
      <trkpt lat="48.21298" lon="-3.15843">
        <ele>134.60000610352</ele>
        <time>2020-10-19T10:38:52.000Z</time>
      </trkpt>
      <trkpt lat="48.21299" lon="-3.15843">
        <ele>134.60000610352</ele>
        <time>2020-10-19T10:38:53.000Z</time>
      </trkpt>
      <trkpt lat="48.21299" lon="-3.15843">
        <ele>134.60000610352</ele>
        <time>2020-10-19T10:38:54.000Z</time>
      </trkpt>
      <trkpt lat="48.21299" lon="-3.15843">
        <ele>134.60000610352</ele>
        <time>2020-10-19T10:38:55.000Z</time>
      </trkpt>
      <trkpt lat="48.213" lon="-3.15843">
        <ele>134.60000610352</ele>
        <time>2020-10-19T10:38:56.000Z</time>
      </trkpt>
      <trkpt lat="48.213" lon="-3.15843">
        <ele>134.60000610352</ele>
        <time>2020-10-19T10:38:57.000Z</time>
      </trkpt>
      <trkpt lat="48.213" lon="-3.15843">
        <ele>134.60000610352</ele>
        <time>2020-10-19T10:38:58.000Z</time>
      </trkpt>
      <trkpt lat="48.21301" lon="-3.15843">
        <ele>134.60000610352</ele>
        <time>2020-10-19T10:38:59.000Z</time>
      </trkpt>
      <trkpt lat="48.21301" lon="-3.15843">
        <ele>134.60000610352</ele>
        <time>2020-10-19T10:39:00.000Z</time>
      </trkpt>
      <trkpt lat="48.21302" lon="-3.15843">
        <ele>134.39999389648</ele>
        <time>2020-10-19T10:39:01.000Z</time>
      </trkpt>
      <trkpt lat="48.21303" lon="-3.15843">
        <ele>134.39999389648</ele>
        <time>2020-10-19T10:39:02.000Z</time>
      </trkpt>
      <trkpt lat="48.21303" lon="-3.15844">
        <ele>134.39999389648</ele>
        <time>2020-10-19T10:39:03.000Z</time>
      </trkpt>
      <trkpt lat="48.21304" lon="-3.15844">
        <ele>134.39999389648</ele>
        <time>2020-10-19T10:39:04.000Z</time>
      </trkpt>
      <trkpt lat="48.21305" lon="-3.15845">
        <ele>134.39999389648</ele>
        <time>2020-10-19T10:39:05.000Z</time>
      </trkpt>
      <trkpt lat="48.21306" lon="-3.15845">
        <ele>134.39999389648</ele>
        <time>2020-10-19T10:39:06.000Z</time>
      </trkpt>
      <trkpt lat="48.21307" lon="-3.15845">
        <ele>134.60000610352</ele>
        <time>2020-10-19T10:39:07.000Z</time>
      </trkpt>
      <trkpt lat="48.21308" lon="-3.15846">
        <ele>134.60000610352</ele>
        <time>2020-10-19T10:39:08.000Z</time>
      </trkpt>
      <trkpt lat="48.21309" lon="-3.15847">
        <ele>134.60000610352</ele>
        <time>2020-10-19T10:39:09.000Z</time>
      </trkpt>
      <trkpt lat="48.21309" lon="-3.15847">
        <ele>134.60000610352</ele>
        <time>2020-10-19T10:39:10.000Z</time>
      </trkpt>
      <trkpt lat="48.2131" lon="-3.15848">
        <ele>134.80000305176</ele>
        <time>2020-10-19T10:39:11.000Z</time>
      </trkpt>
      <trkpt lat="48.21311" lon="-3.15849">
        <ele>134.80000305176</ele>
        <time>2020-10-19T10:39:12.000Z</time>
      </trkpt>
      <trkpt lat="48.21312" lon="-3.15849">
        <ele>134.80000305176</ele>
        <time>2020-10-19T10:39:13.000Z</time>
      </trkpt>
      <trkpt lat="48.21313" lon="-3.1585">
        <ele>134.80000305176</ele>
        <time>2020-10-19T10:39:14.000Z</time>
      </trkpt>
      <trkpt lat="48.21314" lon="-3.1585">
        <ele>134.80000305176</ele>
        <time>2020-10-19T10:39:15.000Z</time>
      </trkpt>
      <trkpt lat="48.21314" lon="-3.15851">
        <ele>135</ele>
        <time>2020-10-19T10:39:16.000Z</time>
      </trkpt>
      <trkpt lat="48.21315" lon="-3.15852">
        <ele>135</ele>
        <time>2020-10-19T10:39:17.000Z</time>
      </trkpt>
      <trkpt lat="48.21316" lon="-3.15853">
        <ele>135</ele>
        <time>2020-10-19T10:39:18.000Z</time>
      </trkpt>
      <trkpt lat="48.21317" lon="-3.15854">
        <ele>135.19999694824</ele>
        <time>2020-10-19T10:39:19.000Z</time>
      </trkpt>
      <trkpt lat="48.21318" lon="-3.15855">
        <ele>135.19999694824</ele>
        <time>2020-10-19T10:39:20.000Z</time>
      </trkpt>
      <trkpt lat="48.21319" lon="-3.15856">
        <ele>135.39999389648</ele>
        <time>2020-10-19T10:39:21.000Z</time>
      </trkpt>
      <trkpt lat="48.21319" lon="-3.15857">
        <ele>135.39999389648</ele>
        <time>2020-10-19T10:39:22.000Z</time>
      </trkpt>
      <trkpt lat="48.21321" lon="-3.15858">
        <ele>135.60000610352</ele>
        <time>2020-10-19T10:39:23.000Z</time>
      </trkpt>
      <trkpt lat="48.21322" lon="-3.15858">
        <ele>135.60000610352</ele>
        <time>2020-10-19T10:39:24.000Z</time>
      </trkpt>
      <trkpt lat="48.21324" lon="-3.15859">
        <ele>135.60000610352</ele>
        <time>2020-10-19T10:39:25.000Z</time>
      </trkpt>
      <trkpt lat="48.21325" lon="-3.1586">
        <ele>135.60000610352</ele>
        <time>2020-10-19T10:39:26.000Z</time>
      </trkpt>
      <trkpt lat="48.21326" lon="-3.15861">
        <ele>135.60000610352</ele>
        <time>2020-10-19T10:39:27.000Z</time>
      </trkpt>
      <trkpt lat="48.21327" lon="-3.15861">
        <ele>135.80000305176</ele>
        <time>2020-10-19T10:39:28.000Z</time>
      </trkpt>
      <trkpt lat="48.21328" lon="-3.15862">
        <ele>135.80000305176</ele>
        <time>2020-10-19T10:39:29.000Z</time>
      </trkpt>
      <trkpt lat="48.2133" lon="-3.15863">
        <ele>135.80000305176</ele>
        <time>2020-10-19T10:39:30.000Z</time>
      </trkpt>
      <trkpt lat="48.21331" lon="-3.15863">
        <ele>136</ele>
        <time>2020-10-19T10:39:31.000Z</time>
      </trkpt>
      <trkpt lat="48.21332" lon="-3.15865">
        <ele>136.19999694824</ele>
        <time>2020-10-19T10:39:32.000Z</time>
      </trkpt>
      <trkpt lat="48.21332" lon="-3.15865">
        <ele>136.19999694824</ele>
        <time>2020-10-19T10:39:33.000Z</time>
      </trkpt>
      <trkpt lat="48.21333" lon="-3.15865">
        <ele>136.19999694824</ele>
        <time>2020-10-19T10:39:34.000Z</time>
      </trkpt>
      <trkpt lat="48.21334" lon="-3.15866">
        <ele>136.39999389648</ele>
        <time>2020-10-19T10:39:35.000Z</time>
      </trkpt>
      <trkpt lat="48.21335" lon="-3.15867">
        <ele>136.60000610352</ele>
        <time>2020-10-19T10:39:36.000Z</time>
      </trkpt>
      <trkpt lat="48.21335" lon="-3.15868">
        <ele>136.60000610352</ele>
        <time>2020-10-19T10:39:37.000Z</time>
      </trkpt>
      <trkpt lat="48.21335" lon="-3.15869">
        <ele>136.80000305176</ele>
        <time>2020-10-19T10:39:38.000Z</time>
      </trkpt>
      <trkpt lat="48.21335" lon="-3.1587">
        <ele>137</ele>
        <time>2020-10-19T10:39:39.000Z</time>
      </trkpt>
      <trkpt lat="48.21336" lon="-3.1587">
        <ele>137</ele>
        <time>2020-10-19T10:39:40.000Z</time>
      </trkpt>
      <trkpt lat="48.21336" lon="-3.1587">
        <ele>137</ele>
        <time>2020-10-19T10:39:41.000Z</time>
      </trkpt>
      <trkpt lat="48.21336" lon="-3.15871">
        <ele>137.19999694824</ele>
        <time>2020-10-19T10:39:42.000Z</time>
      </trkpt>
      <trkpt lat="48.21336" lon="-3.15871">
        <ele>137.19999694824</ele>
        <time>2020-10-19T10:39:43.000Z</time>
      </trkpt>
      <trkpt lat="48.21337" lon="-3.1587">
        <ele>137</ele>
        <time>2020-10-19T10:39:44.000Z</time>
      </trkpt>
      <trkpt lat="48.21337" lon="-3.1587">
        <ele>137</ele>
        <time>2020-10-19T10:39:45.000Z</time>
      </trkpt>
      <trkpt lat="48.21338" lon="-3.1587">
        <ele>137</ele>
        <time>2020-10-19T10:39:46.000Z</time>
      </trkpt>
      <trkpt lat="48.21338" lon="-3.1587">
        <ele>137</ele>
        <time>2020-10-19T10:39:47.000Z</time>
      </trkpt>
      <trkpt lat="48.21338" lon="-3.1587">
        <ele>137</ele>
        <time>2020-10-19T10:39:48.000Z</time>
      </trkpt>
      <trkpt lat="48.21338" lon="-3.1587">
        <ele>137</ele>
        <time>2020-10-19T10:39:49.000Z</time>
      </trkpt>
      <trkpt lat="48.21338" lon="-3.1587">
        <ele>137</ele>
        <time>2020-10-19T10:39:50.000Z</time>
      </trkpt>
      <trkpt lat="48.21339" lon="-3.1587">
        <ele>137</ele>
        <time>2020-10-19T10:39:51.000Z</time>
      </trkpt>
      <trkpt lat="48.21339" lon="-3.1587">
        <ele>137</ele>
        <time>2020-10-19T10:39:52.000Z</time>
      </trkpt>
      <trkpt lat="48.2134" lon="-3.15871">
        <ele>137.19999694824</ele>
        <time>2020-10-19T10:39:53.000Z</time>
      </trkpt>
      <trkpt lat="48.2134" lon="-3.15871">
        <ele>137.19999694824</ele>
        <time>2020-10-19T10:39:54.000Z</time>
      </trkpt>
      <trkpt lat="48.21341" lon="-3.15872">
        <ele>137.39999389648</ele>
        <time>2020-10-19T10:39:55.000Z</time>
      </trkpt>
      <trkpt lat="48.21342" lon="-3.15873">
        <ele>137.39999389648</ele>
        <time>2020-10-19T10:39:56.000Z</time>
      </trkpt>
      <trkpt lat="48.21342" lon="-3.15873">
        <ele>137.39999389648</ele>
        <time>2020-10-19T10:39:57.000Z</time>
      </trkpt>
      <trkpt lat="48.21343" lon="-3.15874">
        <ele>137.60000610352</ele>
        <time>2020-10-19T10:39:58.000Z</time>
      </trkpt>
      <trkpt lat="48.21344" lon="-3.15874">
        <ele>137.60000610352</ele>
        <time>2020-10-19T10:39:59.000Z</time>
      </trkpt>
      <trkpt lat="48.21345" lon="-3.15874">
        <ele>137.60000610352</ele>
        <time>2020-10-19T10:40:00.000Z</time>
      </trkpt>
      <trkpt lat="48.21345" lon="-3.15875">
        <ele>137.80000305176</ele>
        <time>2020-10-19T10:40:01.000Z</time>
      </trkpt>
      <trkpt lat="48.21345" lon="-3.15875">
        <ele>137.80000305176</ele>
        <time>2020-10-19T10:40:02.000Z</time>
      </trkpt>
      <trkpt lat="48.21346" lon="-3.15875">
        <ele>137.80000305176</ele>
        <time>2020-10-19T10:40:03.000Z</time>
      </trkpt>
      <trkpt lat="48.21347" lon="-3.15876">
        <ele>138</ele>
        <time>2020-10-19T10:40:04.000Z</time>
      </trkpt>
      <trkpt lat="48.21347" lon="-3.15877">
        <ele>138</ele>
        <time>2020-10-19T10:40:05.000Z</time>
      </trkpt>
      <trkpt lat="48.21348" lon="-3.15878">
        <ele>138.19999694824</ele>
        <time>2020-10-19T10:40:06.000Z</time>
      </trkpt>
      <trkpt lat="48.21349" lon="-3.15879">
        <ele>138.39999389648</ele>
        <time>2020-10-19T10:40:07.000Z</time>
      </trkpt>
      <trkpt lat="48.2135" lon="-3.1588">
        <ele>138.60000610352</ele>
        <time>2020-10-19T10:40:08.000Z</time>
      </trkpt>
      <trkpt lat="48.21351" lon="-3.15881">
        <ele>138.60000610352</ele>
        <time>2020-10-19T10:40:09.000Z</time>
      </trkpt>
      <trkpt lat="48.21352" lon="-3.15882">
        <ele>138.80000305176</ele>
        <time>2020-10-19T10:40:10.000Z</time>
      </trkpt>
      <trkpt lat="48.21353" lon="-3.15883">
        <ele>139</ele>
        <time>2020-10-19T10:40:11.000Z</time>
      </trkpt>
      <trkpt lat="48.21354" lon="-3.15884">
        <ele>139</ele>
        <time>2020-10-19T10:40:12.000Z</time>
      </trkpt>
      <trkpt lat="48.21355" lon="-3.15885">
        <ele>139.19999694824</ele>
        <time>2020-10-19T10:40:13.000Z</time>
      </trkpt>
      <trkpt lat="48.21356" lon="-3.15886">
        <ele>139.39999389648</ele>
        <time>2020-10-19T10:40:14.000Z</time>
      </trkpt>
      <trkpt lat="48.21357" lon="-3.15887">
        <ele>139.60000610352</ele>
        <time>2020-10-19T10:40:15.000Z</time>
      </trkpt>
      <trkpt lat="48.21359" lon="-3.1589">
        <ele>139.80000305176</ele>
        <time>2020-10-19T10:40:16.000Z</time>
      </trkpt>
      <trkpt lat="48.21359" lon="-3.1589">
        <ele>139.80000305176</ele>
        <time>2020-10-19T10:40:17.000Z</time>
      </trkpt>
      <trkpt lat="48.2136" lon="-3.15891">
        <ele>140</ele>
        <time>2020-10-19T10:40:18.000Z</time>
      </trkpt>
      <trkpt lat="48.21361" lon="-3.15892">
        <ele>140.19999694824</ele>
        <time>2020-10-19T10:40:19.000Z</time>
      </trkpt>
      <trkpt lat="48.21361" lon="-3.15892">
        <ele>140.19999694824</ele>
        <time>2020-10-19T10:40:20.000Z</time>
      </trkpt>
      <trkpt lat="48.21362" lon="-3.15893">
        <ele>140.39999389648</ele>
        <time>2020-10-19T10:40:21.000Z</time>
      </trkpt>
      <trkpt lat="48.21362" lon="-3.15894">
        <ele>140.60000610352</ele>
        <time>2020-10-19T10:40:22.000Z</time>
      </trkpt>
      <trkpt lat="48.21363" lon="-3.15895">
        <ele>140.80000305176</ele>
        <time>2020-10-19T10:40:23.000Z</time>
      </trkpt>
      <trkpt lat="48.21364" lon="-3.15896">
        <ele>140.80000305176</ele>
        <time>2020-10-19T10:40:24.000Z</time>
      </trkpt>
      <trkpt lat="48.21365" lon="-3.15898">
        <ele>141</ele>
        <time>2020-10-19T10:40:25.000Z</time>
      </trkpt>
      <trkpt lat="48.21366" lon="-3.15899">
        <ele>141.19999694824</ele>
        <time>2020-10-19T10:40:26.000Z</time>
      </trkpt>
      <trkpt lat="48.21367" lon="-3.159">
        <ele>141.39999389648</ele>
        <time>2020-10-19T10:40:27.000Z</time>
      </trkpt>
      <trkpt lat="48.21367" lon="-3.15901">
        <ele>141.60000610352</ele>
        <time>2020-10-19T10:40:28.000Z</time>
      </trkpt>
      <trkpt lat="48.21368" lon="-3.15902">
        <ele>141.80000305176</ele>
        <time>2020-10-19T10:40:29.000Z</time>
      </trkpt>
      <trkpt lat="48.21369" lon="-3.15904">
        <ele>142</ele>
        <time>2020-10-19T10:40:30.000Z</time>
      </trkpt>
      <trkpt lat="48.21369" lon="-3.15905">
        <ele>142</ele>
        <time>2020-10-19T10:40:31.000Z</time>
      </trkpt>
      <trkpt lat="48.2137" lon="-3.15906">
        <ele>142</ele>
        <time>2020-10-19T10:40:32.000Z</time>
      </trkpt>
      <trkpt lat="48.21371" lon="-3.15907">
        <ele>141.80000305176</ele>
        <time>2020-10-19T10:40:33.000Z</time>
      </trkpt>
      <trkpt lat="48.21372" lon="-3.15908">
        <ele>141.80000305176</ele>
        <time>2020-10-19T10:40:34.000Z</time>
      </trkpt>
      <trkpt lat="48.21373" lon="-3.1591">
        <ele>141.60000610352</ele>
        <time>2020-10-19T10:40:35.000Z</time>
      </trkpt>
      <trkpt lat="48.21373" lon="-3.1591">
        <ele>141.60000610352</ele>
        <time>2020-10-19T10:40:36.000Z</time>
      </trkpt>
      <trkpt lat="48.21374" lon="-3.15911">
        <ele>141.60000610352</ele>
        <time>2020-10-19T10:40:37.000Z</time>
      </trkpt>
      <trkpt lat="48.21375" lon="-3.15912">
        <ele>141.60000610352</ele>
        <time>2020-10-19T10:40:38.000Z</time>
      </trkpt>
      <trkpt lat="48.21375" lon="-3.15913">
        <ele>141.60000610352</ele>
        <time>2020-10-19T10:40:39.000Z</time>
      </trkpt>
      <trkpt lat="48.21376" lon="-3.15915">
        <ele>141.39999389648</ele>
        <time>2020-10-19T10:40:40.000Z</time>
      </trkpt>
      <trkpt lat="48.21377" lon="-3.15916">
        <ele>141.39999389648</ele>
        <time>2020-10-19T10:40:41.000Z</time>
      </trkpt>
      <trkpt lat="48.21377" lon="-3.15917">
        <ele>141.39999389648</ele>
        <time>2020-10-19T10:40:42.000Z</time>
      </trkpt>
      <trkpt lat="48.21378" lon="-3.15918">
        <ele>141.19999694824</ele>
        <time>2020-10-19T10:40:43.000Z</time>
      </trkpt>
      <trkpt lat="48.21379" lon="-3.15919">
        <ele>141.19999694824</ele>
        <time>2020-10-19T10:40:44.000Z</time>
      </trkpt>
      <trkpt lat="48.21379" lon="-3.1592">
        <ele>141.19999694824</ele>
        <time>2020-10-19T10:40:45.000Z</time>
      </trkpt>
      <trkpt lat="48.21381" lon="-3.15922">
        <ele>141</ele>
        <time>2020-10-19T10:40:46.000Z</time>
      </trkpt>
      <trkpt lat="48.21381" lon="-3.15922">
        <ele>141</ele>
        <time>2020-10-19T10:40:47.000Z</time>
      </trkpt>
      <trkpt lat="48.21381" lon="-3.15923">
        <ele>141</ele>
        <time>2020-10-19T10:40:48.000Z</time>
      </trkpt>
      <trkpt lat="48.21382" lon="-3.15924">
        <ele>141</ele>
        <time>2020-10-19T10:40:49.000Z</time>
      </trkpt>
      <trkpt lat="48.21382" lon="-3.15925">
        <ele>141</ele>
        <time>2020-10-19T10:40:50.000Z</time>
      </trkpt>
      <trkpt lat="48.21383" lon="-3.15926">
        <ele>141</ele>
        <time>2020-10-19T10:40:51.000Z</time>
      </trkpt>
      <trkpt lat="48.21383" lon="-3.15928">
        <ele>141</ele>
        <time>2020-10-19T10:40:52.000Z</time>
      </trkpt>
      <trkpt lat="48.21384" lon="-3.15929">
        <ele>141.19999694824</ele>
        <time>2020-10-19T10:40:53.000Z</time>
      </trkpt>
      <trkpt lat="48.21385" lon="-3.1593">
        <ele>141.39999389648</ele>
        <time>2020-10-19T10:40:54.000Z</time>
      </trkpt>
      <trkpt lat="48.21385" lon="-3.15932">
        <ele>141.80000305176</ele>
        <time>2020-10-19T10:40:55.000Z</time>
      </trkpt>
      <trkpt lat="48.21386" lon="-3.15933">
        <ele>142.19999694824</ele>
        <time>2020-10-19T10:40:56.000Z</time>
      </trkpt>
      <trkpt lat="48.21387" lon="-3.15934">
        <ele>142.19999694824</ele>
        <time>2020-10-19T10:40:57.000Z</time>
      </trkpt>
      <trkpt lat="48.21388" lon="-3.15935">
        <ele>142.39999389648</ele>
        <time>2020-10-19T10:40:58.000Z</time>
      </trkpt>
      <trkpt lat="48.21388" lon="-3.15936">
        <ele>142.80000305176</ele>
        <time>2020-10-19T10:40:59.000Z</time>
      </trkpt>
      <trkpt lat="48.21389" lon="-3.15938">
        <ele>143</ele>
        <time>2020-10-19T10:41:00.000Z</time>
      </trkpt>
      <trkpt lat="48.21391" lon="-3.15939">
        <ele>143.19999694824</ele>
        <time>2020-10-19T10:41:01.000Z</time>
      </trkpt>
      <trkpt lat="48.21392" lon="-3.15941">
        <ele>143.39999389648</ele>
        <time>2020-10-19T10:41:02.000Z</time>
      </trkpt>
      <trkpt lat="48.21394" lon="-3.15942">
        <ele>143.60000610352</ele>
        <time>2020-10-19T10:41:03.000Z</time>
      </trkpt>
      <trkpt lat="48.21395" lon="-3.15943">
        <ele>143.80000305176</ele>
        <time>2020-10-19T10:41:04.000Z</time>
      </trkpt>
      <trkpt lat="48.21397" lon="-3.15944">
        <ele>143.80000305176</ele>
        <time>2020-10-19T10:41:05.000Z</time>
      </trkpt>
      <trkpt lat="48.21398" lon="-3.15945">
        <ele>144</ele>
        <time>2020-10-19T10:41:06.000Z</time>
      </trkpt>
      <trkpt lat="48.21399" lon="-3.15946">
        <ele>144</ele>
        <time>2020-10-19T10:41:07.000Z</time>
      </trkpt>
      <trkpt lat="48.21401" lon="-3.15947">
        <ele>144.19999694824</ele>
        <time>2020-10-19T10:41:08.000Z</time>
      </trkpt>
      <trkpt lat="48.21402" lon="-3.15949">
        <ele>144.19999694824</ele>
        <time>2020-10-19T10:41:09.000Z</time>
      </trkpt>
      <trkpt lat="48.21403" lon="-3.1595">
        <ele>144.39999389648</ele>
        <time>2020-10-19T10:41:10.000Z</time>
      </trkpt>
      <trkpt lat="48.21404" lon="-3.15951">
        <ele>144.80000305176</ele>
        <time>2020-10-19T10:41:11.000Z</time>
      </trkpt>
      <trkpt lat="48.21405" lon="-3.15952">
        <ele>144.80000305176</ele>
        <time>2020-10-19T10:41:12.000Z</time>
      </trkpt>
      <trkpt lat="48.21406" lon="-3.15953">
        <ele>145</ele>
        <time>2020-10-19T10:41:13.000Z</time>
      </trkpt>
      <trkpt lat="48.21407" lon="-3.15954">
        <ele>145.19999694824</ele>
        <time>2020-10-19T10:41:14.000Z</time>
      </trkpt>
      <trkpt lat="48.21408" lon="-3.15956">
        <ele>145.39999389648</ele>
        <time>2020-10-19T10:41:15.000Z</time>
      </trkpt>
      <trkpt lat="48.21408" lon="-3.15956">
        <ele>145.39999389648</ele>
        <time>2020-10-19T10:41:16.000Z</time>
      </trkpt>
      <trkpt lat="48.21409" lon="-3.15957">
        <ele>145.60000610352</ele>
        <time>2020-10-19T10:41:17.000Z</time>
      </trkpt>
      <trkpt lat="48.2141" lon="-3.15958">
        <ele>145.80000305176</ele>
        <time>2020-10-19T10:41:18.000Z</time>
      </trkpt>
      <trkpt lat="48.2141" lon="-3.15959">
        <ele>145.80000305176</ele>
        <time>2020-10-19T10:41:19.000Z</time>
      </trkpt>
      <trkpt lat="48.21411" lon="-3.15961">
        <ele>146</ele>
        <time>2020-10-19T10:41:20.000Z</time>
      </trkpt>
      <trkpt lat="48.21412" lon="-3.15961">
        <ele>146.19999694824</ele>
        <time>2020-10-19T10:41:21.000Z</time>
      </trkpt>
      <trkpt lat="48.21413" lon="-3.15962">
        <ele>146.19999694824</ele>
        <time>2020-10-19T10:41:22.000Z</time>
      </trkpt>
      <trkpt lat="48.21414" lon="-3.15963">
        <ele>146.19999694824</ele>
        <time>2020-10-19T10:41:23.000Z</time>
      </trkpt>
      <trkpt lat="48.21415" lon="-3.15964">
        <ele>146.39999389648</ele>
        <time>2020-10-19T10:41:24.000Z</time>
      </trkpt>
      <trkpt lat="48.21416" lon="-3.15965">
        <ele>146.60000610352</ele>
        <time>2020-10-19T10:41:25.000Z</time>
      </trkpt>
      <trkpt lat="48.21417" lon="-3.15966">
        <ele>146.60000610352</ele>
        <time>2020-10-19T10:41:26.000Z</time>
      </trkpt>
      <trkpt lat="48.21418" lon="-3.15968">
        <ele>146.60000610352</ele>
        <time>2020-10-19T10:41:27.000Z</time>
      </trkpt>
      <trkpt lat="48.21419" lon="-3.15969">
        <ele>146.80000305176</ele>
        <time>2020-10-19T10:41:28.000Z</time>
      </trkpt>
      <trkpt lat="48.2142" lon="-3.1597">
        <ele>146.80000305176</ele>
        <time>2020-10-19T10:41:29.000Z</time>
      </trkpt>
      <trkpt lat="48.21422" lon="-3.15971">
        <ele>147</ele>
        <time>2020-10-19T10:41:30.000Z</time>
      </trkpt>
      <trkpt lat="48.21424" lon="-3.15972">
        <ele>147</ele>
        <time>2020-10-19T10:41:31.000Z</time>
      </trkpt>
      <trkpt lat="48.21425" lon="-3.15973">
        <ele>147</ele>
        <time>2020-10-19T10:41:32.000Z</time>
      </trkpt>
      <trkpt lat="48.21426" lon="-3.15974">
        <ele>147.19999694824</ele>
        <time>2020-10-19T10:41:33.000Z</time>
      </trkpt>
      <trkpt lat="48.21427" lon="-3.15975">
        <ele>147.39999389648</ele>
        <time>2020-10-19T10:41:34.000Z</time>
      </trkpt>
      <trkpt lat="48.21428" lon="-3.15976">
        <ele>147.39999389648</ele>
        <time>2020-10-19T10:41:35.000Z</time>
      </trkpt>
      <trkpt lat="48.21429" lon="-3.15978">
        <ele>147.60000610352</ele>
        <time>2020-10-19T10:41:36.000Z</time>
      </trkpt>
      <trkpt lat="48.21429" lon="-3.15979">
        <ele>148</ele>
        <time>2020-10-19T10:41:37.000Z</time>
      </trkpt>
      <trkpt lat="48.2143" lon="-3.1598">
        <ele>148.19999694824</ele>
        <time>2020-10-19T10:41:38.000Z</time>
      </trkpt>
      <trkpt lat="48.21431" lon="-3.15981">
        <ele>148.60000610352</ele>
        <time>2020-10-19T10:41:39.000Z</time>
      </trkpt>
      <trkpt lat="48.21431" lon="-3.15982">
        <ele>148.80000305176</ele>
        <time>2020-10-19T10:41:40.000Z</time>
      </trkpt>
      <trkpt lat="48.21432" lon="-3.15983">
        <ele>149</ele>
        <time>2020-10-19T10:41:41.000Z</time>
      </trkpt>
      <trkpt lat="48.21432" lon="-3.15984">
        <ele>149.39999389648</ele>
        <time>2020-10-19T10:41:42.000Z</time>
      </trkpt>
      <trkpt lat="48.21433" lon="-3.15985">
        <ele>149.60000610352</ele>
        <time>2020-10-19T10:41:43.000Z</time>
      </trkpt>
      <trkpt lat="48.21433" lon="-3.15986">
        <ele>149.80000305176</ele>
        <time>2020-10-19T10:41:44.000Z</time>
      </trkpt>
      <trkpt lat="48.21433" lon="-3.15987">
        <ele>150</ele>
        <time>2020-10-19T10:41:45.000Z</time>
      </trkpt>
      <trkpt lat="48.21434" lon="-3.15988">
        <ele>150.39999389648</ele>
        <time>2020-10-19T10:41:46.000Z</time>
      </trkpt>
      <trkpt lat="48.21434" lon="-3.15989">
        <ele>150.60000610352</ele>
        <time>2020-10-19T10:41:47.000Z</time>
      </trkpt>
      <trkpt lat="48.21435" lon="-3.1599">
        <ele>150.80000305176</ele>
        <time>2020-10-19T10:41:48.000Z</time>
      </trkpt>
      <trkpt lat="48.21435" lon="-3.15991">
        <ele>151</ele>
        <time>2020-10-19T10:41:49.000Z</time>
      </trkpt>
      <trkpt lat="48.21435" lon="-3.15992">
        <ele>151.39999389648</ele>
        <time>2020-10-19T10:41:50.000Z</time>
      </trkpt>
      <trkpt lat="48.21436" lon="-3.15993">
        <ele>151.60000610352</ele>
        <time>2020-10-19T10:41:51.000Z</time>
      </trkpt>
      <trkpt lat="48.21437" lon="-3.15994">
        <ele>152</ele>
        <time>2020-10-19T10:41:52.000Z</time>
      </trkpt>
      <trkpt lat="48.21437" lon="-3.15995">
        <ele>152.19999694824</ele>
        <time>2020-10-19T10:41:53.000Z</time>
      </trkpt>
      <trkpt lat="48.21438" lon="-3.15996">
        <ele>152.60000610352</ele>
        <time>2020-10-19T10:41:54.000Z</time>
      </trkpt>
      <trkpt lat="48.2144" lon="-3.15997">
        <ele>152.80000305176</ele>
        <time>2020-10-19T10:41:55.000Z</time>
      </trkpt>
      <trkpt lat="48.21441" lon="-3.15997">
        <ele>153</ele>
        <time>2020-10-19T10:41:56.000Z</time>
      </trkpt>
      <trkpt lat="48.21443" lon="-3.15998">
        <ele>153</ele>
        <time>2020-10-19T10:41:57.000Z</time>
      </trkpt>
      <trkpt lat="48.21443" lon="-3.15998">
        <ele>152.80000305176</ele>
        <time>2020-10-19T10:41:58.000Z</time>
      </trkpt>
      <trkpt lat="48.21444" lon="-3.15999">
        <ele>152.60000610352</ele>
        <time>2020-10-19T10:41:59.000Z</time>
      </trkpt>
      <trkpt lat="48.21444" lon="-3.15999">
        <ele>152.39999389648</ele>
        <time>2020-10-19T10:42:00.000Z</time>
      </trkpt>
      <trkpt lat="48.21445" lon="-3.15999">
        <ele>152.39999389648</ele>
        <time>2020-10-19T10:42:01.000Z</time>
      </trkpt>
      <trkpt lat="48.21445" lon="-3.16">
        <ele>152.19999694824</ele>
        <time>2020-10-19T10:42:02.000Z</time>
      </trkpt>
      <trkpt lat="48.21446" lon="-3.16001">
        <ele>152</ele>
        <time>2020-10-19T10:42:03.000Z</time>
      </trkpt>
      <trkpt lat="48.21447" lon="-3.16002">
        <ele>151.80000305176</ele>
        <time>2020-10-19T10:42:04.000Z</time>
      </trkpt>
      <trkpt lat="48.21448" lon="-3.16003">
        <ele>151.60000610352</ele>
        <time>2020-10-19T10:42:05.000Z</time>
      </trkpt>
      <trkpt lat="48.21449" lon="-3.16004">
        <ele>151.19999694824</ele>
        <time>2020-10-19T10:42:06.000Z</time>
      </trkpt>
      <trkpt lat="48.2145" lon="-3.16004">
        <ele>151.19999694824</ele>
        <time>2020-10-19T10:42:07.000Z</time>
      </trkpt>
      <trkpt lat="48.2145" lon="-3.16005">
        <ele>151</ele>
        <time>2020-10-19T10:42:08.000Z</time>
      </trkpt>
      <trkpt lat="48.21451" lon="-3.16005">
        <ele>150.80000305176</ele>
        <time>2020-10-19T10:42:09.000Z</time>
      </trkpt>
      <trkpt lat="48.21452" lon="-3.16006">
        <ele>150.60000610352</ele>
        <time>2020-10-19T10:42:10.000Z</time>
      </trkpt>
      <trkpt lat="48.21452" lon="-3.16007">
        <ele>150.39999389648</ele>
        <time>2020-10-19T10:42:11.000Z</time>
      </trkpt>
      <trkpt lat="48.21453" lon="-3.16008">
        <ele>150.19999694824</ele>
        <time>2020-10-19T10:42:12.000Z</time>
      </trkpt>
      <trkpt lat="48.21454" lon="-3.16009">
        <ele>150</ele>
        <time>2020-10-19T10:42:13.000Z</time>
      </trkpt>
      <trkpt lat="48.21455" lon="-3.1601">
        <ele>149.80000305176</ele>
        <time>2020-10-19T10:42:14.000Z</time>
      </trkpt>
      <trkpt lat="48.21456" lon="-3.1601">
        <ele>149.39999389648</ele>
        <time>2020-10-19T10:42:15.000Z</time>
      </trkpt>
      <trkpt lat="48.21457" lon="-3.16012">
        <ele>149.39999389648</ele>
        <time>2020-10-19T10:42:16.000Z</time>
      </trkpt>
      <trkpt lat="48.21457" lon="-3.16013">
        <ele>149.60000610352</ele>
        <time>2020-10-19T10:42:17.000Z</time>
      </trkpt>
      <trkpt lat="48.21458" lon="-3.16014">
        <ele>149.39999389648</ele>
        <time>2020-10-19T10:42:18.000Z</time>
      </trkpt>
      <trkpt lat="48.21459" lon="-3.16014">
        <ele>149.39999389648</ele>
        <time>2020-10-19T10:42:19.000Z</time>
      </trkpt>
      <trkpt lat="48.2146" lon="-3.16014">
        <ele>149.19999694824</ele>
        <time>2020-10-19T10:42:20.000Z</time>
      </trkpt>
      <trkpt lat="48.21461" lon="-3.16014">
        <ele>149</ele>
        <time>2020-10-19T10:42:21.000Z</time>
      </trkpt>
      <trkpt lat="48.21461" lon="-3.16014">
        <ele>149</ele>
        <time>2020-10-19T10:42:22.000Z</time>
      </trkpt>
      <trkpt lat="48.21461" lon="-3.16013">
        <ele>148.80000305176</ele>
        <time>2020-10-19T10:42:23.000Z</time>
      </trkpt>
      <trkpt lat="48.21462" lon="-3.16013">
        <ele>148.60000610352</ele>
        <time>2020-10-19T10:42:24.000Z</time>
      </trkpt>
      <trkpt lat="48.21463" lon="-3.16013">
        <ele>148.19999694824</ele>
        <time>2020-10-19T10:42:25.000Z</time>
      </trkpt>
      <trkpt lat="48.21465" lon="-3.16013">
        <ele>147.80000305176</ele>
        <time>2020-10-19T10:42:26.000Z</time>
      </trkpt>
      <trkpt lat="48.21466" lon="-3.16012">
        <ele>147.39999389648</ele>
        <time>2020-10-19T10:42:27.000Z</time>
      </trkpt>
      <trkpt lat="48.21466" lon="-3.16012">
        <ele>147.19999694824</ele>
        <time>2020-10-19T10:42:28.000Z</time>
      </trkpt>
      <trkpt lat="48.21467" lon="-3.16012">
        <ele>147</ele>
        <time>2020-10-19T10:42:29.000Z</time>
      </trkpt>
      <trkpt lat="48.21467" lon="-3.16012">
        <ele>147</ele>
        <time>2020-10-19T10:42:30.000Z</time>
      </trkpt>
      <trkpt lat="48.21468" lon="-3.16012">
        <ele>147</ele>
        <time>2020-10-19T10:42:31.000Z</time>
      </trkpt>
      <trkpt lat="48.21468" lon="-3.16013">
        <ele>147</ele>
        <time>2020-10-19T10:42:32.000Z</time>
      </trkpt>
      <trkpt lat="48.21468" lon="-3.16013">
        <ele>147</ele>
        <time>2020-10-19T10:42:33.000Z</time>
      </trkpt>
      <trkpt lat="48.21469" lon="-3.16013">
        <ele>147</ele>
        <time>2020-10-19T10:42:34.000Z</time>
      </trkpt>
      <trkpt lat="48.21469" lon="-3.16014">
        <ele>147</ele>
        <time>2020-10-19T10:42:35.000Z</time>
      </trkpt>
      <trkpt lat="48.21469" lon="-3.16015">
        <ele>147</ele>
        <time>2020-10-19T10:42:36.000Z</time>
      </trkpt>
      <trkpt lat="48.2147" lon="-3.16016">
        <ele>147.19999694824</ele>
        <time>2020-10-19T10:42:37.000Z</time>
      </trkpt>
      <trkpt lat="48.21471" lon="-3.16016">
        <ele>147</ele>
        <time>2020-10-19T10:42:38.000Z</time>
      </trkpt>
      <trkpt lat="48.21472" lon="-3.16017">
        <ele>147</ele>
        <time>2020-10-19T10:42:39.000Z</time>
      </trkpt>
      <trkpt lat="48.21473" lon="-3.16018">
        <ele>146.80000305176</ele>
        <time>2020-10-19T10:42:40.000Z</time>
      </trkpt>
      <trkpt lat="48.21474" lon="-3.16019">
        <ele>147</ele>
        <time>2020-10-19T10:42:41.000Z</time>
      </trkpt>
      <trkpt lat="48.21474" lon="-3.1602">
        <ele>147.19999694824</ele>
        <time>2020-10-19T10:42:42.000Z</time>
      </trkpt>
      <trkpt lat="48.21475" lon="-3.16022">
        <ele>147.39999389648</ele>
        <time>2020-10-19T10:42:43.000Z</time>
      </trkpt>
      <trkpt lat="48.21475" lon="-3.16023">
        <ele>147.39999389648</ele>
        <time>2020-10-19T10:42:44.000Z</time>
      </trkpt>
      <trkpt lat="48.21476" lon="-3.16024">
        <ele>147.60000610352</ele>
        <time>2020-10-19T10:42:45.000Z</time>
      </trkpt>
      <trkpt lat="48.21476" lon="-3.16025">
        <ele>147.60000610352</ele>
        <time>2020-10-19T10:42:46.000Z</time>
      </trkpt>
      <trkpt lat="48.21477" lon="-3.16026">
        <ele>147.80000305176</ele>
        <time>2020-10-19T10:42:47.000Z</time>
      </trkpt>
      <trkpt lat="48.21478" lon="-3.16027">
        <ele>147.80000305176</ele>
        <time>2020-10-19T10:42:48.000Z</time>
      </trkpt>
      <trkpt lat="48.21478" lon="-3.16028">
        <ele>148</ele>
        <time>2020-10-19T10:42:49.000Z</time>
      </trkpt>
      <trkpt lat="48.21479" lon="-3.16029">
        <ele>148</ele>
        <time>2020-10-19T10:42:50.000Z</time>
      </trkpt>
      <trkpt lat="48.2148" lon="-3.1603">
        <ele>148.19999694824</ele>
        <time>2020-10-19T10:42:51.000Z</time>
      </trkpt>
      <trkpt lat="48.21481" lon="-3.16032">
        <ele>148.19999694824</ele>
        <time>2020-10-19T10:42:52.000Z</time>
      </trkpt>
      <trkpt lat="48.21481" lon="-3.16033">
        <ele>148.39999389648</ele>
        <time>2020-10-19T10:42:53.000Z</time>
      </trkpt>
      <trkpt lat="48.21482" lon="-3.16034">
        <ele>148.60000610352</ele>
        <time>2020-10-19T10:42:54.000Z</time>
      </trkpt>
      <trkpt lat="48.21482" lon="-3.16035">
        <ele>148.60000610352</ele>
        <time>2020-10-19T10:42:55.000Z</time>
      </trkpt>
      <trkpt lat="48.21483" lon="-3.16036">
        <ele>148.80000305176</ele>
        <time>2020-10-19T10:42:56.000Z</time>
      </trkpt>
      <trkpt lat="48.21484" lon="-3.16038">
        <ele>149</ele>
        <time>2020-10-19T10:42:57.000Z</time>
      </trkpt>
      <trkpt lat="48.21484" lon="-3.16039">
        <ele>149</ele>
        <time>2020-10-19T10:42:58.000Z</time>
      </trkpt>
      <trkpt lat="48.21485" lon="-3.1604">
        <ele>149</ele>
        <time>2020-10-19T10:42:59.000Z</time>
      </trkpt>
      <trkpt lat="48.21486" lon="-3.16041">
        <ele>149</ele>
        <time>2020-10-19T10:43:00.000Z</time>
      </trkpt>
      <trkpt lat="48.21487" lon="-3.16043">
        <ele>148.80000305176</ele>
        <time>2020-10-19T10:43:01.000Z</time>
      </trkpt>
      <trkpt lat="48.21487" lon="-3.16044">
        <ele>149</ele>
        <time>2020-10-19T10:43:02.000Z</time>
      </trkpt>
      <trkpt lat="48.21488" lon="-3.16045">
        <ele>149</ele>
        <time>2020-10-19T10:43:03.000Z</time>
      </trkpt>
      <trkpt lat="48.2149" lon="-3.16046">
        <ele>148.60000610352</ele>
        <time>2020-10-19T10:43:04.000Z</time>
      </trkpt>
      <trkpt lat="48.21491" lon="-3.16046">
        <ele>148.60000610352</ele>
        <time>2020-10-19T10:43:05.000Z</time>
      </trkpt>
      <trkpt lat="48.21491" lon="-3.16047">
        <ele>148.39999389648</ele>
        <time>2020-10-19T10:43:06.000Z</time>
      </trkpt>
      <trkpt lat="48.21492" lon="-3.16048">
        <ele>148.39999389648</ele>
        <time>2020-10-19T10:43:07.000Z</time>
      </trkpt>
      <trkpt lat="48.21493" lon="-3.16049">
        <ele>148.39999389648</ele>
        <time>2020-10-19T10:43:08.000Z</time>
      </trkpt>
      <trkpt lat="48.21494" lon="-3.1605">
        <ele>148.39999389648</ele>
        <time>2020-10-19T10:43:09.000Z</time>
      </trkpt>
      <trkpt lat="48.21495" lon="-3.16051">
        <ele>148.19999694824</ele>
        <time>2020-10-19T10:43:10.000Z</time>
      </trkpt>
      <trkpt lat="48.21496" lon="-3.16052">
        <ele>148</ele>
        <time>2020-10-19T10:43:11.000Z</time>
      </trkpt>
      <trkpt lat="48.21497" lon="-3.16053">
        <ele>148</ele>
        <time>2020-10-19T10:43:12.000Z</time>
      </trkpt>
      <trkpt lat="48.21498" lon="-3.16054">
        <ele>147.60000610352</ele>
        <time>2020-10-19T10:43:13.000Z</time>
      </trkpt>
      <trkpt lat="48.21499" lon="-3.16054">
        <ele>147.39999389648</ele>
        <time>2020-10-19T10:43:14.000Z</time>
      </trkpt>
      <trkpt lat="48.215" lon="-3.16055">
        <ele>147.19999694824</ele>
        <time>2020-10-19T10:43:15.000Z</time>
      </trkpt>
      <trkpt lat="48.21501" lon="-3.16056">
        <ele>147.19999694824</ele>
        <time>2020-10-19T10:43:16.000Z</time>
      </trkpt>
      <trkpt lat="48.21502" lon="-3.16057">
        <ele>147.19999694824</ele>
        <time>2020-10-19T10:43:17.000Z</time>
      </trkpt>
      <trkpt lat="48.21502" lon="-3.16058">
        <ele>147.19999694824</ele>
        <time>2020-10-19T10:43:18.000Z</time>
      </trkpt>
      <trkpt lat="48.21504" lon="-3.16058">
        <ele>147</ele>
        <time>2020-10-19T10:43:19.000Z</time>
      </trkpt>
      <trkpt lat="48.21506" lon="-3.16059">
        <ele>146.39999389648</ele>
        <time>2020-10-19T10:43:20.000Z</time>
      </trkpt>
      <trkpt lat="48.21507" lon="-3.1606">
        <ele>146</ele>
        <time>2020-10-19T10:43:21.000Z</time>
      </trkpt>
      <trkpt lat="48.2151" lon="-3.1606">
        <ele>145.60000610352</ele>
        <time>2020-10-19T10:43:22.000Z</time>
      </trkpt>
      <trkpt lat="48.21511" lon="-3.1606">
        <ele>145.19999694824</ele>
        <time>2020-10-19T10:43:23.000Z</time>
      </trkpt>
      <trkpt lat="48.21513" lon="-3.16061">
        <ele>145.19999694824</ele>
        <time>2020-10-19T10:43:24.000Z</time>
      </trkpt>
      <trkpt lat="48.21515" lon="-3.16062">
        <ele>145.39999389648</ele>
        <time>2020-10-19T10:43:25.000Z</time>
      </trkpt>
      <trkpt lat="48.21517" lon="-3.16063">
        <ele>145.80000305176</ele>
        <time>2020-10-19T10:43:26.000Z</time>
      </trkpt>
      <trkpt lat="48.21518" lon="-3.16064">
        <ele>146</ele>
        <time>2020-10-19T10:43:27.000Z</time>
      </trkpt>
      <trkpt lat="48.21519" lon="-3.16065">
        <ele>146.19999694824</ele>
        <time>2020-10-19T10:43:28.000Z</time>
      </trkpt>
      <trkpt lat="48.21519" lon="-3.16066">
        <ele>146.39999389648</ele>
        <time>2020-10-19T10:43:29.000Z</time>
      </trkpt>
      <trkpt lat="48.2152" lon="-3.16066">
        <ele>146.60000610352</ele>
        <time>2020-10-19T10:43:30.000Z</time>
      </trkpt>
      <trkpt lat="48.21522" lon="-3.16066">
        <ele>146.80000305176</ele>
        <time>2020-10-19T10:43:31.000Z</time>
      </trkpt>
      <trkpt lat="48.21523" lon="-3.16067">
        <ele>147</ele>
        <time>2020-10-19T10:43:32.000Z</time>
      </trkpt>
      <trkpt lat="48.21524" lon="-3.16068">
        <ele>147.19999694824</ele>
        <time>2020-10-19T10:43:33.000Z</time>
      </trkpt>
      <trkpt lat="48.21525" lon="-3.16068">
        <ele>147.39999389648</ele>
        <time>2020-10-19T10:43:34.000Z</time>
      </trkpt>
      <trkpt lat="48.21525" lon="-3.16069">
        <ele>147.60000610352</ele>
        <time>2020-10-19T10:43:35.000Z</time>
      </trkpt>
      <trkpt lat="48.21526" lon="-3.1607">
        <ele>147.80000305176</ele>
        <time>2020-10-19T10:43:36.000Z</time>
      </trkpt>
      <trkpt lat="48.21526" lon="-3.1607">
        <ele>147.80000305176</ele>
        <time>2020-10-19T10:43:37.000Z</time>
      </trkpt>
      <trkpt lat="48.21527" lon="-3.1607">
        <ele>148</ele>
        <time>2020-10-19T10:43:38.000Z</time>
      </trkpt>
      <trkpt lat="48.21527" lon="-3.16072">
        <ele>148.19999694824</ele>
        <time>2020-10-19T10:43:39.000Z</time>
      </trkpt>
      <trkpt lat="48.21528" lon="-3.16073">
        <ele>148.39999389648</ele>
        <time>2020-10-19T10:43:40.000Z</time>
      </trkpt>
      <trkpt lat="48.21528" lon="-3.16074">
        <ele>148.60000610352</ele>
        <time>2020-10-19T10:43:41.000Z</time>
      </trkpt>
      <trkpt lat="48.21529" lon="-3.16074">
        <ele>148.80000305176</ele>
        <time>2020-10-19T10:43:42.000Z</time>
      </trkpt>
      <trkpt lat="48.21529" lon="-3.16075">
        <ele>149</ele>
        <time>2020-10-19T10:43:43.000Z</time>
      </trkpt>
      <trkpt lat="48.2153" lon="-3.16075">
        <ele>149</ele>
        <time>2020-10-19T10:43:44.000Z</time>
      </trkpt>
      <trkpt lat="48.2153" lon="-3.16075">
        <ele>149.19999694824</ele>
        <time>2020-10-19T10:43:45.000Z</time>
      </trkpt>
      <trkpt lat="48.21531" lon="-3.16076">
        <ele>149.19999694824</ele>
        <time>2020-10-19T10:43:46.000Z</time>
      </trkpt>
      <trkpt lat="48.21531" lon="-3.16076">
        <ele>149.19999694824</ele>
        <time>2020-10-19T10:43:47.000Z</time>
      </trkpt>
      <trkpt lat="48.21532" lon="-3.16076">
        <ele>149</ele>
        <time>2020-10-19T10:43:48.000Z</time>
      </trkpt>
      <trkpt lat="48.21532" lon="-3.16077">
        <ele>149</ele>
        <time>2020-10-19T10:43:49.000Z</time>
      </trkpt>
      <trkpt lat="48.21533" lon="-3.16077">
        <ele>149</ele>
        <time>2020-10-19T10:43:50.000Z</time>
      </trkpt>
      <trkpt lat="48.21533" lon="-3.16076">
        <ele>149</ele>
        <time>2020-10-19T10:43:51.000Z</time>
      </trkpt>
      <trkpt lat="48.21532" lon="-3.16075">
        <ele>149</ele>
        <time>2020-10-19T10:43:52.000Z</time>
      </trkpt>
      <trkpt lat="48.21532" lon="-3.16074">
        <ele>149</ele>
        <time>2020-10-19T10:43:53.000Z</time>
      </trkpt>
      <trkpt lat="48.21532" lon="-3.16074">
        <ele>149</ele>
        <time>2020-10-19T10:43:54.000Z</time>
      </trkpt>
      <trkpt lat="48.21533" lon="-3.16075">
        <ele>149</ele>
        <time>2020-10-19T10:43:55.000Z</time>
      </trkpt>
      <trkpt lat="48.21533" lon="-3.16075">
        <ele>149</ele>
        <time>2020-10-19T10:43:56.000Z</time>
      </trkpt>
      <trkpt lat="48.21534" lon="-3.16075">
        <ele>148.80000305176</ele>
        <time>2020-10-19T10:43:57.000Z</time>
      </trkpt>
      <trkpt lat="48.21534" lon="-3.16076">
        <ele>148.80000305176</ele>
        <time>2020-10-19T10:43:58.000Z</time>
      </trkpt>
      <trkpt lat="48.21535" lon="-3.16076">
        <ele>148.80000305176</ele>
        <time>2020-10-19T10:43:59.000Z</time>
      </trkpt>
      <trkpt lat="48.21535" lon="-3.16077">
        <ele>148.60000610352</ele>
        <time>2020-10-19T10:44:00.000Z</time>
      </trkpt>
      <trkpt lat="48.21536" lon="-3.16077">
        <ele>148.60000610352</ele>
        <time>2020-10-19T10:44:01.000Z</time>
      </trkpt>
      <trkpt lat="48.21536" lon="-3.16078">
        <ele>148.60000610352</ele>
        <time>2020-10-19T10:44:02.000Z</time>
      </trkpt>
      <trkpt lat="48.21537" lon="-3.16078">
        <ele>148.60000610352</ele>
        <time>2020-10-19T10:44:03.000Z</time>
      </trkpt>
      <trkpt lat="48.21537" lon="-3.16079">
        <ele>148.39999389648</ele>
        <time>2020-10-19T10:44:04.000Z</time>
      </trkpt>
      <trkpt lat="48.21538" lon="-3.16079">
        <ele>148.39999389648</ele>
        <time>2020-10-19T10:44:05.000Z</time>
      </trkpt>
      <trkpt lat="48.21539" lon="-3.1608">
        <ele>148.19999694824</ele>
        <time>2020-10-19T10:44:06.000Z</time>
      </trkpt>
      <trkpt lat="48.2154" lon="-3.1608">
        <ele>148.19999694824</ele>
        <time>2020-10-19T10:44:07.000Z</time>
      </trkpt>
      <trkpt lat="48.21541" lon="-3.1608">
        <ele>148</ele>
        <time>2020-10-19T10:44:08.000Z</time>
      </trkpt>
      <trkpt lat="48.21543" lon="-3.16081">
        <ele>147.80000305176</ele>
        <time>2020-10-19T10:44:09.000Z</time>
      </trkpt>
      <trkpt lat="48.21543" lon="-3.16082">
        <ele>147.80000305176</ele>
        <time>2020-10-19T10:44:10.000Z</time>
      </trkpt>
      <trkpt lat="48.21544" lon="-3.16082">
        <ele>147.60000610352</ele>
        <time>2020-10-19T10:44:11.000Z</time>
      </trkpt>
      <trkpt lat="48.21545" lon="-3.16083">
        <ele>147.60000610352</ele>
        <time>2020-10-19T10:44:12.000Z</time>
      </trkpt>
      <trkpt lat="48.21545" lon="-3.16082">
        <ele>147.60000610352</ele>
        <time>2020-10-19T10:44:13.000Z</time>
      </trkpt>
      <trkpt lat="48.21545" lon="-3.16082">
        <ele>147.60000610352</ele>
        <time>2020-10-19T10:44:14.000Z</time>
      </trkpt>
      <trkpt lat="48.21546" lon="-3.16082">
        <ele>147.39999389648</ele>
        <time>2020-10-19T10:44:15.000Z</time>
      </trkpt>
      <trkpt lat="48.21546" lon="-3.16083">
        <ele>147.39999389648</ele>
        <time>2020-10-19T10:44:16.000Z</time>
      </trkpt>
      <trkpt lat="48.21547" lon="-3.16083">
        <ele>147.39999389648</ele>
        <time>2020-10-19T10:44:17.000Z</time>
      </trkpt>
      <trkpt lat="48.21547" lon="-3.16084">
        <ele>147.19999694824</ele>
        <time>2020-10-19T10:44:18.000Z</time>
      </trkpt>
      <trkpt lat="48.21548" lon="-3.16085">
        <ele>147.19999694824</ele>
        <time>2020-10-19T10:44:19.000Z</time>
      </trkpt>
      <trkpt lat="48.21549" lon="-3.16085">
        <ele>147.19999694824</ele>
        <time>2020-10-19T10:44:20.000Z</time>
      </trkpt>
      <trkpt lat="48.2155" lon="-3.16086">
        <ele>147</ele>
        <time>2020-10-19T10:44:21.000Z</time>
      </trkpt>
      <trkpt lat="48.2155" lon="-3.16086">
        <ele>147</ele>
        <time>2020-10-19T10:44:22.000Z</time>
      </trkpt>
      <trkpt lat="48.21551" lon="-3.16087">
        <ele>147</ele>
        <time>2020-10-19T10:44:23.000Z</time>
      </trkpt>
      <trkpt lat="48.21551" lon="-3.16087">
        <ele>146.80000305176</ele>
        <time>2020-10-19T10:44:24.000Z</time>
      </trkpt>
      <trkpt lat="48.21552" lon="-3.16088">
        <ele>146.80000305176</ele>
        <time>2020-10-19T10:44:25.000Z</time>
      </trkpt>
      <trkpt lat="48.21553" lon="-3.16089">
        <ele>146.60000610352</ele>
        <time>2020-10-19T10:44:26.000Z</time>
      </trkpt>
      <trkpt lat="48.21553" lon="-3.1609">
        <ele>146.60000610352</ele>
        <time>2020-10-19T10:44:27.000Z</time>
      </trkpt>
      <trkpt lat="48.21554" lon="-3.16091">
        <ele>146.39999389648</ele>
        <time>2020-10-19T10:44:28.000Z</time>
      </trkpt>
      <trkpt lat="48.21555" lon="-3.16091">
        <ele>146.39999389648</ele>
        <time>2020-10-19T10:44:29.000Z</time>
      </trkpt>
      <trkpt lat="48.21556" lon="-3.16092">
        <ele>146.19999694824</ele>
        <time>2020-10-19T10:44:30.000Z</time>
      </trkpt>
      <trkpt lat="48.21558" lon="-3.16094">
        <ele>146</ele>
        <time>2020-10-19T10:44:31.000Z</time>
      </trkpt>
      <trkpt lat="48.21559" lon="-3.16095">
        <ele>146.19999694824</ele>
        <time>2020-10-19T10:44:32.000Z</time>
      </trkpt>
      <trkpt lat="48.2156" lon="-3.16096">
        <ele>146.19999694824</ele>
        <time>2020-10-19T10:44:33.000Z</time>
      </trkpt>
      <trkpt lat="48.21561" lon="-3.16097">
        <ele>146.19999694824</ele>
        <time>2020-10-19T10:44:34.000Z</time>
      </trkpt>
      <trkpt lat="48.21563" lon="-3.16097">
        <ele>146.39999389648</ele>
        <time>2020-10-19T10:44:35.000Z</time>
      </trkpt>
      <trkpt lat="48.21564" lon="-3.16098">
        <ele>146.39999389648</ele>
        <time>2020-10-19T10:44:36.000Z</time>
      </trkpt>
      <trkpt lat="48.21565" lon="-3.16099">
        <ele>146.39999389648</ele>
        <time>2020-10-19T10:44:37.000Z</time>
      </trkpt>
      <trkpt lat="48.21566" lon="-3.16099">
        <ele>146.39999389648</ele>
        <time>2020-10-19T10:44:38.000Z</time>
      </trkpt>
      <trkpt lat="48.21569" lon="-3.161">
        <ele>146.39999389648</ele>
        <time>2020-10-19T10:44:39.000Z</time>
      </trkpt>
      <trkpt lat="48.21569" lon="-3.161">
        <ele>146.39999389648</ele>
        <time>2020-10-19T10:44:40.000Z</time>
      </trkpt>
      <trkpt lat="48.21571" lon="-3.16101">
        <ele>146.19999694824</ele>
        <time>2020-10-19T10:44:41.000Z</time>
      </trkpt>
      <trkpt lat="48.21574" lon="-3.16101">
        <ele>146</ele>
        <time>2020-10-19T10:44:42.000Z</time>
      </trkpt>
      <trkpt lat="48.21576" lon="-3.16102">
        <ele>146</ele>
        <time>2020-10-19T10:44:43.000Z</time>
      </trkpt>
      <trkpt lat="48.21577" lon="-3.16102">
        <ele>146</ele>
        <time>2020-10-19T10:44:44.000Z</time>
      </trkpt>
      <trkpt lat="48.21578" lon="-3.16103">
        <ele>146.19999694824</ele>
        <time>2020-10-19T10:44:45.000Z</time>
      </trkpt>
      <trkpt lat="48.21579" lon="-3.16104">
        <ele>146.39999389648</ele>
        <time>2020-10-19T10:44:46.000Z</time>
      </trkpt>
      <trkpt lat="48.2158" lon="-3.16105">
        <ele>146.39999389648</ele>
        <time>2020-10-19T10:44:47.000Z</time>
      </trkpt>
      <trkpt lat="48.21581" lon="-3.16106">
        <ele>146.39999389648</ele>
        <time>2020-10-19T10:44:48.000Z</time>
      </trkpt>
      <trkpt lat="48.21582" lon="-3.16106">
        <ele>146.39999389648</ele>
        <time>2020-10-19T10:44:49.000Z</time>
      </trkpt>
      <trkpt lat="48.21583" lon="-3.16106">
        <ele>146.19999694824</ele>
        <time>2020-10-19T10:44:50.000Z</time>
      </trkpt>
      <trkpt lat="48.21584" lon="-3.16106">
        <ele>146.19999694824</ele>
        <time>2020-10-19T10:44:51.000Z</time>
      </trkpt>
      <trkpt lat="48.21585" lon="-3.16107">
        <ele>146.19999694824</ele>
        <time>2020-10-19T10:44:52.000Z</time>
      </trkpt>
      <trkpt lat="48.21586" lon="-3.16107">
        <ele>146</ele>
        <time>2020-10-19T10:44:53.000Z</time>
      </trkpt>
      <trkpt lat="48.21587" lon="-3.16107">
        <ele>146</ele>
        <time>2020-10-19T10:44:54.000Z</time>
      </trkpt>
      <trkpt lat="48.21588" lon="-3.16107">
        <ele>145.80000305176</ele>
        <time>2020-10-19T10:44:55.000Z</time>
      </trkpt>
      <trkpt lat="48.21588" lon="-3.16107">
        <ele>145.80000305176</ele>
        <time>2020-10-19T10:44:56.000Z</time>
      </trkpt>
      <trkpt lat="48.21589" lon="-3.16107">
        <ele>145.60000610352</ele>
        <time>2020-10-19T10:44:57.000Z</time>
      </trkpt>
      <trkpt lat="48.2159" lon="-3.16107">
        <ele>145.60000610352</ele>
        <time>2020-10-19T10:44:58.000Z</time>
      </trkpt>
      <trkpt lat="48.21591" lon="-3.16107">
        <ele>145.39999389648</ele>
        <time>2020-10-19T10:44:59.000Z</time>
      </trkpt>
      <trkpt lat="48.21591" lon="-3.16107">
        <ele>145.39999389648</ele>
        <time>2020-10-19T10:45:00.000Z</time>
      </trkpt>
      <trkpt lat="48.21592" lon="-3.16107">
        <ele>145.19999694824</ele>
        <time>2020-10-19T10:45:01.000Z</time>
      </trkpt>
      <trkpt lat="48.21593" lon="-3.16107">
        <ele>145</ele>
        <time>2020-10-19T10:45:02.000Z</time>
      </trkpt>
      <trkpt lat="48.21594" lon="-3.16107">
        <ele>145</ele>
        <time>2020-10-19T10:45:03.000Z</time>
      </trkpt>
      <trkpt lat="48.21594" lon="-3.16107">
        <ele>145</ele>
        <time>2020-10-19T10:45:04.000Z</time>
      </trkpt>
      <trkpt lat="48.21595" lon="-3.16107">
        <ele>145</ele>
        <time>2020-10-19T10:45:05.000Z</time>
      </trkpt>
      <trkpt lat="48.21596" lon="-3.16107">
        <ele>145</ele>
        <time>2020-10-19T10:45:06.000Z</time>
      </trkpt>
      <trkpt lat="48.21598" lon="-3.16107">
        <ele>144.80000305176</ele>
        <time>2020-10-19T10:45:07.000Z</time>
      </trkpt>
      <trkpt lat="48.21599" lon="-3.16107">
        <ele>144.80000305176</ele>
        <time>2020-10-19T10:45:08.000Z</time>
      </trkpt>
      <trkpt lat="48.216" lon="-3.16107">
        <ele>144.80000305176</ele>
        <time>2020-10-19T10:45:09.000Z</time>
      </trkpt>
      <trkpt lat="48.21601" lon="-3.16107">
        <ele>144.80000305176</ele>
        <time>2020-10-19T10:45:10.000Z</time>
      </trkpt>
      <trkpt lat="48.21604" lon="-3.16107">
        <ele>144.80000305176</ele>
        <time>2020-10-19T10:45:11.000Z</time>
      </trkpt>
      <trkpt lat="48.21604" lon="-3.16107">
        <ele>144.80000305176</ele>
        <time>2020-10-19T10:45:12.000Z</time>
      </trkpt>
      <trkpt lat="48.21606" lon="-3.16107">
        <ele>144.80000305176</ele>
        <time>2020-10-19T10:45:13.000Z</time>
      </trkpt>
      <trkpt lat="48.21607" lon="-3.16107">
        <ele>144.60000610352</ele>
        <time>2020-10-19T10:45:14.000Z</time>
      </trkpt>
      <trkpt lat="48.21608" lon="-3.16107">
        <ele>144.60000610352</ele>
        <time>2020-10-19T10:45:15.000Z</time>
      </trkpt>
      <trkpt lat="48.21609" lon="-3.16107">
        <ele>144.60000610352</ele>
        <time>2020-10-19T10:45:16.000Z</time>
      </trkpt>
      <trkpt lat="48.21611" lon="-3.16107">
        <ele>144.60000610352</ele>
        <time>2020-10-19T10:45:17.000Z</time>
      </trkpt>
      <trkpt lat="48.21612" lon="-3.16107">
        <ele>144.60000610352</ele>
        <time>2020-10-19T10:45:18.000Z</time>
      </trkpt>
      <trkpt lat="48.21614" lon="-3.16107">
        <ele>144.60000610352</ele>
        <time>2020-10-19T10:45:19.000Z</time>
      </trkpt>
      <trkpt lat="48.21615" lon="-3.16107">
        <ele>144.60000610352</ele>
        <time>2020-10-19T10:45:20.000Z</time>
      </trkpt>
      <trkpt lat="48.21617" lon="-3.16107">
        <ele>144.60000610352</ele>
        <time>2020-10-19T10:45:21.000Z</time>
      </trkpt>
      <trkpt lat="48.21619" lon="-3.16107">
        <ele>144.60000610352</ele>
        <time>2020-10-19T10:45:22.000Z</time>
      </trkpt>
      <trkpt lat="48.21621" lon="-3.16107">
        <ele>144.60000610352</ele>
        <time>2020-10-19T10:45:23.000Z</time>
      </trkpt>
      <trkpt lat="48.21623" lon="-3.16108">
        <ele>144.80000305176</ele>
        <time>2020-10-19T10:45:24.000Z</time>
      </trkpt>
      <trkpt lat="48.21625" lon="-3.16108">
        <ele>144.80000305176</ele>
        <time>2020-10-19T10:45:25.000Z</time>
      </trkpt>
      <trkpt lat="48.21627" lon="-3.16108">
        <ele>144.80000305176</ele>
        <time>2020-10-19T10:45:26.000Z</time>
      </trkpt>
      <trkpt lat="48.21629" lon="-3.16108">
        <ele>144.80000305176</ele>
        <time>2020-10-19T10:45:27.000Z</time>
      </trkpt>
      <trkpt lat="48.2163" lon="-3.16108">
        <ele>144.60000610352</ele>
        <time>2020-10-19T10:45:28.000Z</time>
      </trkpt>
      <trkpt lat="48.21631" lon="-3.16108">
        <ele>144.60000610352</ele>
        <time>2020-10-19T10:45:29.000Z</time>
      </trkpt>
      <trkpt lat="48.21634" lon="-3.16107">
        <ele>144.60000610352</ele>
        <time>2020-10-19T10:45:30.000Z</time>
      </trkpt>
      <trkpt lat="48.21634" lon="-3.16107">
        <ele>144.60000610352</ele>
        <time>2020-10-19T10:45:31.000Z</time>
      </trkpt>
      <trkpt lat="48.21635" lon="-3.16107">
        <ele>144.39999389648</ele>
        <time>2020-10-19T10:45:32.000Z</time>
      </trkpt>
      <trkpt lat="48.21636" lon="-3.16107">
        <ele>144.39999389648</ele>
        <time>2020-10-19T10:45:33.000Z</time>
      </trkpt>
      <trkpt lat="48.21638" lon="-3.16107">
        <ele>144.39999389648</ele>
        <time>2020-10-19T10:45:34.000Z</time>
      </trkpt>
      <trkpt lat="48.21639" lon="-3.16107">
        <ele>144.39999389648</ele>
        <time>2020-10-19T10:45:35.000Z</time>
      </trkpt>
      <trkpt lat="48.2164" lon="-3.16107">
        <ele>144.39999389648</ele>
        <time>2020-10-19T10:45:36.000Z</time>
      </trkpt>
      <trkpt lat="48.21642" lon="-3.16106">
        <ele>144.19999694824</ele>
        <time>2020-10-19T10:45:37.000Z</time>
      </trkpt>
      <trkpt lat="48.21644" lon="-3.16106">
        <ele>144</ele>
        <time>2020-10-19T10:45:38.000Z</time>
      </trkpt>
      <trkpt lat="48.21645" lon="-3.16106">
        <ele>144</ele>
        <time>2020-10-19T10:45:39.000Z</time>
      </trkpt>
      <trkpt lat="48.21646" lon="-3.16105">
        <ele>144</ele>
        <time>2020-10-19T10:45:40.000Z</time>
      </trkpt>
      <trkpt lat="48.21648" lon="-3.16105">
        <ele>143.80000305176</ele>
        <time>2020-10-19T10:45:41.000Z</time>
      </trkpt>
      <trkpt lat="48.21649" lon="-3.16105">
        <ele>143.60000610352</ele>
        <time>2020-10-19T10:45:42.000Z</time>
      </trkpt>
      <trkpt lat="48.21651" lon="-3.16105">
        <ele>143.60000610352</ele>
        <time>2020-10-19T10:45:43.000Z</time>
      </trkpt>
      <trkpt lat="48.21652" lon="-3.16104">
        <ele>143.60000610352</ele>
        <time>2020-10-19T10:45:44.000Z</time>
      </trkpt>
      <trkpt lat="48.21653" lon="-3.16104">
        <ele>143.60000610352</ele>
        <time>2020-10-19T10:45:45.000Z</time>
      </trkpt>
      <trkpt lat="48.21654" lon="-3.16104">
        <ele>143.39999389648</ele>
        <time>2020-10-19T10:45:46.000Z</time>
      </trkpt>
      <trkpt lat="48.21655" lon="-3.16103">
        <ele>143.39999389648</ele>
        <time>2020-10-19T10:45:47.000Z</time>
      </trkpt>
      <trkpt lat="48.21656" lon="-3.16103">
        <ele>143.19999694824</ele>
        <time>2020-10-19T10:45:48.000Z</time>
      </trkpt>
      <trkpt lat="48.21657" lon="-3.16102">
        <ele>143</ele>
        <time>2020-10-19T10:45:49.000Z</time>
      </trkpt>
      <trkpt lat="48.21659" lon="-3.16101">
        <ele>142.80000305176</ele>
        <time>2020-10-19T10:45:50.000Z</time>
      </trkpt>
      <trkpt lat="48.21659" lon="-3.16101">
        <ele>142.80000305176</ele>
        <time>2020-10-19T10:45:51.000Z</time>
      </trkpt>
      <trkpt lat="48.2166" lon="-3.161">
        <ele>142.60000610352</ele>
        <time>2020-10-19T10:45:52.000Z</time>
      </trkpt>
      <trkpt lat="48.21661" lon="-3.161">
        <ele>142.39999389648</ele>
        <time>2020-10-19T10:45:53.000Z</time>
      </trkpt>
      <trkpt lat="48.21662" lon="-3.16099">
        <ele>142.39999389648</ele>
        <time>2020-10-19T10:45:54.000Z</time>
      </trkpt>
      <trkpt lat="48.21664" lon="-3.16098">
        <ele>142.19999694824</ele>
        <time>2020-10-19T10:45:55.000Z</time>
      </trkpt>
      <trkpt lat="48.21664" lon="-3.16098">
        <ele>142.19999694824</ele>
        <time>2020-10-19T10:45:56.000Z</time>
      </trkpt>
      <trkpt lat="48.21665" lon="-3.16098">
        <ele>142</ele>
        <time>2020-10-19T10:45:57.000Z</time>
      </trkpt>
      <trkpt lat="48.21667" lon="-3.16098">
        <ele>142</ele>
        <time>2020-10-19T10:45:58.000Z</time>
      </trkpt>
      <trkpt lat="48.21668" lon="-3.16098">
        <ele>142</ele>
        <time>2020-10-19T10:45:59.000Z</time>
      </trkpt>
      <trkpt lat="48.21668" lon="-3.16098">
        <ele>141.80000305176</ele>
        <time>2020-10-19T10:46:00.000Z</time>
      </trkpt>
      <trkpt lat="48.21669" lon="-3.16097">
        <ele>141.80000305176</ele>
        <time>2020-10-19T10:46:01.000Z</time>
      </trkpt>
      <trkpt lat="48.2167" lon="-3.16097">
        <ele>141.60000610352</ele>
        <time>2020-10-19T10:46:02.000Z</time>
      </trkpt>
      <trkpt lat="48.21671" lon="-3.16096">
        <ele>141.60000610352</ele>
        <time>2020-10-19T10:46:03.000Z</time>
      </trkpt>
      <trkpt lat="48.21673" lon="-3.16096">
        <ele>141.39999389648</ele>
        <time>2020-10-19T10:46:04.000Z</time>
      </trkpt>
      <trkpt lat="48.21674" lon="-3.16095">
        <ele>141.39999389648</ele>
        <time>2020-10-19T10:46:05.000Z</time>
      </trkpt>
      <trkpt lat="48.21675" lon="-3.16095">
        <ele>141.19999694824</ele>
        <time>2020-10-19T10:46:06.000Z</time>
      </trkpt>
      <trkpt lat="48.21676" lon="-3.16095">
        <ele>141.19999694824</ele>
        <time>2020-10-19T10:46:07.000Z</time>
      </trkpt>
      <trkpt lat="48.21678" lon="-3.16094">
        <ele>141</ele>
        <time>2020-10-19T10:46:08.000Z</time>
      </trkpt>
      <trkpt lat="48.21679" lon="-3.16093">
        <ele>141</ele>
        <time>2020-10-19T10:46:09.000Z</time>
      </trkpt>
      <trkpt lat="48.21681" lon="-3.16092">
        <ele>141</ele>
        <time>2020-10-19T10:46:10.000Z</time>
      </trkpt>
      <trkpt lat="48.21681" lon="-3.16092">
        <ele>141</ele>
        <time>2020-10-19T10:46:11.000Z</time>
      </trkpt>
      <trkpt lat="48.21682" lon="-3.16091">
        <ele>141</ele>
        <time>2020-10-19T10:46:12.000Z</time>
      </trkpt>
      <trkpt lat="48.21684" lon="-3.1609">
        <ele>141.19999694824</ele>
        <time>2020-10-19T10:46:13.000Z</time>
      </trkpt>
      <trkpt lat="48.21685" lon="-3.16089">
        <ele>141.19999694824</ele>
        <time>2020-10-19T10:46:14.000Z</time>
      </trkpt>
      <trkpt lat="48.21686" lon="-3.16089">
        <ele>141.19999694824</ele>
        <time>2020-10-19T10:46:15.000Z</time>
      </trkpt>
      <trkpt lat="48.21688" lon="-3.16088">
        <ele>141.19999694824</ele>
        <time>2020-10-19T10:46:16.000Z</time>
      </trkpt>
      <trkpt lat="48.21689" lon="-3.16088">
        <ele>141.39999389648</ele>
        <time>2020-10-19T10:46:17.000Z</time>
      </trkpt>
      <trkpt lat="48.2169" lon="-3.16087">
        <ele>141.39999389648</ele>
        <time>2020-10-19T10:46:18.000Z</time>
      </trkpt>
      <trkpt lat="48.21691" lon="-3.16086">
        <ele>141.39999389648</ele>
        <time>2020-10-19T10:46:19.000Z</time>
      </trkpt>
      <trkpt lat="48.21692" lon="-3.16085">
        <ele>141.39999389648</ele>
        <time>2020-10-19T10:46:20.000Z</time>
      </trkpt>
      <trkpt lat="48.21694" lon="-3.16084">
        <ele>141.39999389648</ele>
        <time>2020-10-19T10:46:21.000Z</time>
      </trkpt>
      <trkpt lat="48.21695" lon="-3.16083">
        <ele>141.39999389648</ele>
        <time>2020-10-19T10:46:22.000Z</time>
      </trkpt>
      <trkpt lat="48.21696" lon="-3.16082">
        <ele>141.39999389648</ele>
        <time>2020-10-19T10:46:23.000Z</time>
      </trkpt>
      <trkpt lat="48.21697" lon="-3.16081">
        <ele>141.60000610352</ele>
        <time>2020-10-19T10:46:24.000Z</time>
      </trkpt>
      <trkpt lat="48.21698" lon="-3.16081">
        <ele>141.60000610352</ele>
        <time>2020-10-19T10:46:25.000Z</time>
      </trkpt>
      <trkpt lat="48.21699" lon="-3.1608">
        <ele>141.60000610352</ele>
        <time>2020-10-19T10:46:26.000Z</time>
      </trkpt>
      <trkpt lat="48.217" lon="-3.1608">
        <ele>141.60000610352</ele>
        <time>2020-10-19T10:46:27.000Z</time>
      </trkpt>
      <trkpt lat="48.21701" lon="-3.1608">
        <ele>141.80000305176</ele>
        <time>2020-10-19T10:46:28.000Z</time>
      </trkpt>
      <trkpt lat="48.21705" lon="-3.1608">
        <ele>142</ele>
        <time>2020-10-19T10:46:29.000Z</time>
      </trkpt>
      <trkpt lat="48.21705" lon="-3.1608">
        <ele>142</ele>
        <time>2020-10-19T10:46:30.000Z</time>
      </trkpt>
      <trkpt lat="48.21706" lon="-3.1608">
        <ele>142</ele>
        <time>2020-10-19T10:46:31.000Z</time>
      </trkpt>
      <trkpt lat="48.21706" lon="-3.16081">
        <ele>142.19999694824</ele>
        <time>2020-10-19T10:46:32.000Z</time>
      </trkpt>
      <trkpt lat="48.21706" lon="-3.16082">
        <ele>142.19999694824</ele>
        <time>2020-10-19T10:46:33.000Z</time>
      </trkpt>
      <trkpt lat="48.21706" lon="-3.16082">
        <ele>142.19999694824</ele>
        <time>2020-10-19T10:46:34.000Z</time>
      </trkpt>
      <trkpt lat="48.21706" lon="-3.16083">
        <ele>142.39999389648</ele>
        <time>2020-10-19T10:46:35.000Z</time>
      </trkpt>
      <trkpt lat="48.21706" lon="-3.16084">
        <ele>142.39999389648</ele>
        <time>2020-10-19T10:46:36.000Z</time>
      </trkpt>
      <trkpt lat="48.21707" lon="-3.16085">
        <ele>142.39999389648</ele>
        <time>2020-10-19T10:46:37.000Z</time>
      </trkpt>
      <trkpt lat="48.21706" lon="-3.16085">
        <ele>142.39999389648</ele>
        <time>2020-10-19T10:46:38.000Z</time>
      </trkpt>
      <trkpt lat="48.21707" lon="-3.16086">
        <ele>142.39999389648</ele>
        <time>2020-10-19T10:46:39.000Z</time>
      </trkpt>
      <trkpt lat="48.21707" lon="-3.16086">
        <ele>142.60000610352</ele>
        <time>2020-10-19T10:46:40.000Z</time>
      </trkpt>
      <trkpt lat="48.21707" lon="-3.16086">
        <ele>142.60000610352</ele>
        <time>2020-10-19T10:46:41.000Z</time>
      </trkpt>
      <trkpt lat="48.21707" lon="-3.16086">
        <ele>142.60000610352</ele>
        <time>2020-10-19T10:46:42.000Z</time>
      </trkpt>
      <trkpt lat="48.21707" lon="-3.16086">
        <ele>142.60000610352</ele>
        <time>2020-10-19T10:46:43.000Z</time>
      </trkpt>
      <trkpt lat="48.21707" lon="-3.16086">
        <ele>142.60000610352</ele>
        <time>2020-10-19T10:46:44.000Z</time>
      </trkpt>
      <trkpt lat="48.21707" lon="-3.16085">
        <ele>142.39999389648</ele>
        <time>2020-10-19T10:46:45.000Z</time>
      </trkpt>
      <trkpt lat="48.21708" lon="-3.16086">
        <ele>142.60000610352</ele>
        <time>2020-10-19T10:46:46.000Z</time>
      </trkpt>
      <trkpt lat="48.21708" lon="-3.16085">
        <ele>142.60000610352</ele>
        <time>2020-10-19T10:46:47.000Z</time>
      </trkpt>
      <trkpt lat="48.21709" lon="-3.16084">
        <ele>142.60000610352</ele>
        <time>2020-10-19T10:46:48.000Z</time>
      </trkpt>
      <trkpt lat="48.21709" lon="-3.16084">
        <ele>142.60000610352</ele>
        <time>2020-10-19T10:46:49.000Z</time>
      </trkpt>
      <trkpt lat="48.2171" lon="-3.16083">
        <ele>142.60000610352</ele>
        <time>2020-10-19T10:46:50.000Z</time>
      </trkpt>
      <trkpt lat="48.21711" lon="-3.16081">
        <ele>142.60000610352</ele>
        <time>2020-10-19T10:46:51.000Z</time>
      </trkpt>
      <trkpt lat="48.21712" lon="-3.16081">
        <ele>142.60000610352</ele>
        <time>2020-10-19T10:46:52.000Z</time>
      </trkpt>
      <trkpt lat="48.21713" lon="-3.16081">
        <ele>142.60000610352</ele>
        <time>2020-10-19T10:46:53.000Z</time>
      </trkpt>
      <trkpt lat="48.21714" lon="-3.1608">
        <ele>142.60000610352</ele>
        <time>2020-10-19T10:46:54.000Z</time>
      </trkpt>
      <trkpt lat="48.21714" lon="-3.16078">
        <ele>142.60000610352</ele>
        <time>2020-10-19T10:46:55.000Z</time>
      </trkpt>
      <trkpt lat="48.21715" lon="-3.16077">
        <ele>142.60000610352</ele>
        <time>2020-10-19T10:46:56.000Z</time>
      </trkpt>
      <trkpt lat="48.21717" lon="-3.16076">
        <ele>142.60000610352</ele>
        <time>2020-10-19T10:46:57.000Z</time>
      </trkpt>
      <trkpt lat="48.21718" lon="-3.16076">
        <ele>142.80000305176</ele>
        <time>2020-10-19T10:46:58.000Z</time>
      </trkpt>
      <trkpt lat="48.21719" lon="-3.16075">
        <ele>142.80000305176</ele>
        <time>2020-10-19T10:46:59.000Z</time>
      </trkpt>
      <trkpt lat="48.21719" lon="-3.16074">
        <ele>142.80000305176</ele>
        <time>2020-10-19T10:47:00.000Z</time>
      </trkpt>
      <trkpt lat="48.21721" lon="-3.16073">
        <ele>142.80000305176</ele>
        <time>2020-10-19T10:47:01.000Z</time>
      </trkpt>
      <trkpt lat="48.21721" lon="-3.16073">
        <ele>142.80000305176</ele>
        <time>2020-10-19T10:47:02.000Z</time>
      </trkpt>
      <trkpt lat="48.21722" lon="-3.16072">
        <ele>142.80000305176</ele>
        <time>2020-10-19T10:47:03.000Z</time>
      </trkpt>
      <trkpt lat="48.21723" lon="-3.16071">
        <ele>142.80000305176</ele>
        <time>2020-10-19T10:47:04.000Z</time>
      </trkpt>
      <trkpt lat="48.21724" lon="-3.1607">
        <ele>142.80000305176</ele>
        <time>2020-10-19T10:47:05.000Z</time>
      </trkpt>
      <trkpt lat="48.21725" lon="-3.16069">
        <ele>142.80000305176</ele>
        <time>2020-10-19T10:47:06.000Z</time>
      </trkpt>
      <trkpt lat="48.21726" lon="-3.16069">
        <ele>142.80000305176</ele>
        <time>2020-10-19T10:47:07.000Z</time>
      </trkpt>
      <trkpt lat="48.21727" lon="-3.16068">
        <ele>143</ele>
        <time>2020-10-19T10:47:08.000Z</time>
      </trkpt>
      <trkpt lat="48.21728" lon="-3.16068">
        <ele>143</ele>
        <time>2020-10-19T10:47:09.000Z</time>
      </trkpt>
      <trkpt lat="48.21729" lon="-3.16068">
        <ele>143</ele>
        <time>2020-10-19T10:47:10.000Z</time>
      </trkpt>
      <trkpt lat="48.2173" lon="-3.16067">
        <ele>143</ele>
        <time>2020-10-19T10:47:11.000Z</time>
      </trkpt>
      <trkpt lat="48.21731" lon="-3.16066">
        <ele>143.19999694824</ele>
        <time>2020-10-19T10:47:12.000Z</time>
      </trkpt>
      <trkpt lat="48.21733" lon="-3.16066">
        <ele>143.19999694824</ele>
        <time>2020-10-19T10:47:13.000Z</time>
      </trkpt>
      <trkpt lat="48.21734" lon="-3.16065">
        <ele>143.19999694824</ele>
        <time>2020-10-19T10:47:14.000Z</time>
      </trkpt>
      <trkpt lat="48.21735" lon="-3.16065">
        <ele>143.19999694824</ele>
        <time>2020-10-19T10:47:15.000Z</time>
      </trkpt>
      <trkpt lat="48.21735" lon="-3.16064">
        <ele>143.19999694824</ele>
        <time>2020-10-19T10:47:16.000Z</time>
      </trkpt>
      <trkpt lat="48.21736" lon="-3.16064">
        <ele>143.39999389648</ele>
        <time>2020-10-19T10:47:17.000Z</time>
      </trkpt>
      <trkpt lat="48.21737" lon="-3.16064">
        <ele>143.39999389648</ele>
        <time>2020-10-19T10:47:18.000Z</time>
      </trkpt>
      <trkpt lat="48.21739" lon="-3.16064">
        <ele>143.39999389648</ele>
        <time>2020-10-19T10:47:19.000Z</time>
      </trkpt>
      <trkpt lat="48.2174" lon="-3.16064">
        <ele>143.60000610352</ele>
        <time>2020-10-19T10:47:20.000Z</time>
      </trkpt>
      <trkpt lat="48.21741" lon="-3.16063">
        <ele>143.60000610352</ele>
        <time>2020-10-19T10:47:21.000Z</time>
      </trkpt>
      <trkpt lat="48.21742" lon="-3.16063">
        <ele>143.60000610352</ele>
        <time>2020-10-19T10:47:22.000Z</time>
      </trkpt>
      <trkpt lat="48.21743" lon="-3.16062">
        <ele>143.80000305176</ele>
        <time>2020-10-19T10:47:23.000Z</time>
      </trkpt>
      <trkpt lat="48.21744" lon="-3.16062">
        <ele>143.80000305176</ele>
        <time>2020-10-19T10:47:24.000Z</time>
      </trkpt>
      <trkpt lat="48.21746" lon="-3.16061">
        <ele>143.80000305176</ele>
        <time>2020-10-19T10:47:25.000Z</time>
      </trkpt>
      <trkpt lat="48.21747" lon="-3.16062">
        <ele>144</ele>
        <time>2020-10-19T10:47:26.000Z</time>
      </trkpt>
      <trkpt lat="48.21748" lon="-3.16061">
        <ele>144</ele>
        <time>2020-10-19T10:47:27.000Z</time>
      </trkpt>
      <trkpt lat="48.21749" lon="-3.1606">
        <ele>144</ele>
        <time>2020-10-19T10:47:28.000Z</time>
      </trkpt>
      <trkpt lat="48.2175" lon="-3.16059">
        <ele>144</ele>
        <time>2020-10-19T10:47:29.000Z</time>
      </trkpt>
      <trkpt lat="48.21751" lon="-3.16058">
        <ele>144</ele>
        <time>2020-10-19T10:47:30.000Z</time>
      </trkpt>
      <trkpt lat="48.21753" lon="-3.16058">
        <ele>144.19999694824</ele>
        <time>2020-10-19T10:47:31.000Z</time>
      </trkpt>
      <trkpt lat="48.21754" lon="-3.16058">
        <ele>144.19999694824</ele>
        <time>2020-10-19T10:47:32.000Z</time>
      </trkpt>
      <trkpt lat="48.21757" lon="-3.16056">
        <ele>144.39999389648</ele>
        <time>2020-10-19T10:47:33.000Z</time>
      </trkpt>
      <trkpt lat="48.21757" lon="-3.16056">
        <ele>144.39999389648</ele>
        <time>2020-10-19T10:47:34.000Z</time>
      </trkpt>
      <trkpt lat="48.21758" lon="-3.16056">
        <ele>144.39999389648</ele>
        <time>2020-10-19T10:47:35.000Z</time>
      </trkpt>
      <trkpt lat="48.21759" lon="-3.16056">
        <ele>144.39999389648</ele>
        <time>2020-10-19T10:47:36.000Z</time>
      </trkpt>
      <trkpt lat="48.2176" lon="-3.16055">
        <ele>144.60000610352</ele>
        <time>2020-10-19T10:47:37.000Z</time>
      </trkpt>
      <trkpt lat="48.21761" lon="-3.16055">
        <ele>144.60000610352</ele>
        <time>2020-10-19T10:47:38.000Z</time>
      </trkpt>
      <trkpt lat="48.21762" lon="-3.16054">
        <ele>144.60000610352</ele>
        <time>2020-10-19T10:47:39.000Z</time>
      </trkpt>
      <trkpt lat="48.21763" lon="-3.16054">
        <ele>144.39999389648</ele>
        <time>2020-10-19T10:47:40.000Z</time>
      </trkpt>
      <trkpt lat="48.21765" lon="-3.16053">
        <ele>144.39999389648</ele>
        <time>2020-10-19T10:47:41.000Z</time>
      </trkpt>
      <trkpt lat="48.21765" lon="-3.16053">
        <ele>144.39999389648</ele>
        <time>2020-10-19T10:47:42.000Z</time>
      </trkpt>
      <trkpt lat="48.21767" lon="-3.16053">
        <ele>144.19999694824</ele>
        <time>2020-10-19T10:47:43.000Z</time>
      </trkpt>
      <trkpt lat="48.21768" lon="-3.16052">
        <ele>144.19999694824</ele>
        <time>2020-10-19T10:47:44.000Z</time>
      </trkpt>
      <trkpt lat="48.21769" lon="-3.16052">
        <ele>144.19999694824</ele>
        <time>2020-10-19T10:47:45.000Z</time>
      </trkpt>
      <trkpt lat="48.2177" lon="-3.16051">
        <ele>144</ele>
        <time>2020-10-19T10:47:46.000Z</time>
      </trkpt>
      <trkpt lat="48.21772" lon="-3.16051">
        <ele>144</ele>
        <time>2020-10-19T10:47:47.000Z</time>
      </trkpt>
      <trkpt lat="48.21773" lon="-3.1605">
        <ele>143.80000305176</ele>
        <time>2020-10-19T10:47:48.000Z</time>
      </trkpt>
      <trkpt lat="48.21774" lon="-3.16049">
        <ele>143.80000305176</ele>
        <time>2020-10-19T10:47:49.000Z</time>
      </trkpt>
      <trkpt lat="48.21775" lon="-3.16049">
        <ele>143.60000610352</ele>
        <time>2020-10-19T10:47:50.000Z</time>
      </trkpt>
      <trkpt lat="48.21776" lon="-3.16049">
        <ele>143.60000610352</ele>
        <time>2020-10-19T10:47:51.000Z</time>
      </trkpt>
      <trkpt lat="48.21778" lon="-3.16048">
        <ele>143.39999389648</ele>
        <time>2020-10-19T10:47:52.000Z</time>
      </trkpt>
      <trkpt lat="48.21778" lon="-3.16048">
        <ele>143.39999389648</ele>
        <time>2020-10-19T10:47:53.000Z</time>
      </trkpt>
      <trkpt lat="48.21779" lon="-3.16048">
        <ele>143.39999389648</ele>
        <time>2020-10-19T10:47:54.000Z</time>
      </trkpt>
      <trkpt lat="48.21781" lon="-3.16047">
        <ele>143.19999694824</ele>
        <time>2020-10-19T10:47:55.000Z</time>
      </trkpt>
      <trkpt lat="48.21782" lon="-3.16047">
        <ele>143.19999694824</ele>
        <time>2020-10-19T10:47:56.000Z</time>
      </trkpt>
      <trkpt lat="48.21783" lon="-3.16048">
        <ele>143.19999694824</ele>
        <time>2020-10-19T10:47:57.000Z</time>
      </trkpt>
      <trkpt lat="48.21783" lon="-3.16048">
        <ele>143.19999694824</ele>
        <time>2020-10-19T10:47:58.000Z</time>
      </trkpt>
      <trkpt lat="48.21784" lon="-3.16049">
        <ele>143.19999694824</ele>
        <time>2020-10-19T10:47:59.000Z</time>
      </trkpt>
      <trkpt lat="48.21784" lon="-3.16049">
        <ele>143.19999694824</ele>
        <time>2020-10-19T10:48:00.000Z</time>
      </trkpt>
      <trkpt lat="48.21785" lon="-3.16049">
        <ele>143.19999694824</ele>
        <time>2020-10-19T10:48:01.000Z</time>
      </trkpt>
      <trkpt lat="48.21785" lon="-3.16049">
        <ele>143.19999694824</ele>
        <time>2020-10-19T10:48:02.000Z</time>
      </trkpt>
      <trkpt lat="48.21786" lon="-3.16048">
        <ele>143.19999694824</ele>
        <time>2020-10-19T10:48:03.000Z</time>
      </trkpt>
      <trkpt lat="48.21786" lon="-3.16048">
        <ele>143</ele>
        <time>2020-10-19T10:48:04.000Z</time>
      </trkpt>
      <trkpt lat="48.21787" lon="-3.16048">
        <ele>143</ele>
        <time>2020-10-19T10:48:05.000Z</time>
      </trkpt>
      <trkpt lat="48.21789" lon="-3.16046">
        <ele>142.80000305176</ele>
        <time>2020-10-19T10:48:06.000Z</time>
      </trkpt>
      <trkpt lat="48.21789" lon="-3.16046">
        <ele>142.80000305176</ele>
        <time>2020-10-19T10:48:07.000Z</time>
      </trkpt>
      <trkpt lat="48.21789" lon="-3.16044">
        <ele>142.60000610352</ele>
        <time>2020-10-19T10:48:08.000Z</time>
      </trkpt>
      <trkpt lat="48.2179" lon="-3.16044">
        <ele>142.60000610352</ele>
        <time>2020-10-19T10:48:09.000Z</time>
      </trkpt>
      <trkpt lat="48.21791" lon="-3.16043">
        <ele>142.60000610352</ele>
        <time>2020-10-19T10:48:10.000Z</time>
      </trkpt>
      <trkpt lat="48.21792" lon="-3.16043">
        <ele>142.39999389648</ele>
        <time>2020-10-19T10:48:11.000Z</time>
      </trkpt>
      <trkpt lat="48.21793" lon="-3.16042">
        <ele>142.39999389648</ele>
        <time>2020-10-19T10:48:12.000Z</time>
      </trkpt>
      <trkpt lat="48.21794" lon="-3.16041">
        <ele>142.19999694824</ele>
        <time>2020-10-19T10:48:13.000Z</time>
      </trkpt>
      <trkpt lat="48.21795" lon="-3.16041">
        <ele>142.19999694824</ele>
        <time>2020-10-19T10:48:14.000Z</time>
      </trkpt>
      <trkpt lat="48.21796" lon="-3.16041">
        <ele>142.19999694824</ele>
        <time>2020-10-19T10:48:15.000Z</time>
      </trkpt>
      <trkpt lat="48.21797" lon="-3.1604">
        <ele>142</ele>
        <time>2020-10-19T10:48:16.000Z</time>
      </trkpt>
      <trkpt lat="48.21798" lon="-3.1604">
        <ele>142</ele>
        <time>2020-10-19T10:48:17.000Z</time>
      </trkpt>
      <trkpt lat="48.21799" lon="-3.1604">
        <ele>142</ele>
        <time>2020-10-19T10:48:18.000Z</time>
      </trkpt>
      <trkpt lat="48.21801" lon="-3.1604">
        <ele>141.80000305176</ele>
        <time>2020-10-19T10:48:19.000Z</time>
      </trkpt>
      <trkpt lat="48.21801" lon="-3.16039">
        <ele>141.80000305176</ele>
        <time>2020-10-19T10:48:20.000Z</time>
      </trkpt>
      <trkpt lat="48.21802" lon="-3.16037">
        <ele>141.60000610352</ele>
        <time>2020-10-19T10:48:21.000Z</time>
      </trkpt>
      <trkpt lat="48.21803" lon="-3.16037">
        <ele>141.60000610352</ele>
        <time>2020-10-19T10:48:22.000Z</time>
      </trkpt>
      <trkpt lat="48.21804" lon="-3.16036">
        <ele>141.39999389648</ele>
        <time>2020-10-19T10:48:23.000Z</time>
      </trkpt>
      <trkpt lat="48.21805" lon="-3.16034">
        <ele>141.39999389648</ele>
        <time>2020-10-19T10:48:24.000Z</time>
      </trkpt>
      <trkpt lat="48.21806" lon="-3.16033">
        <ele>141.19999694824</ele>
        <time>2020-10-19T10:48:25.000Z</time>
      </trkpt>
      <trkpt lat="48.21807" lon="-3.16032">
        <ele>141</ele>
        <time>2020-10-19T10:48:26.000Z</time>
      </trkpt>
      <trkpt lat="48.21808" lon="-3.16031">
        <ele>141</ele>
        <time>2020-10-19T10:48:27.000Z</time>
      </trkpt>
      <trkpt lat="48.21809" lon="-3.16031">
        <ele>141</ele>
        <time>2020-10-19T10:48:28.000Z</time>
      </trkpt>
      <trkpt lat="48.2181" lon="-3.16031">
        <ele>140.80000305176</ele>
        <time>2020-10-19T10:48:29.000Z</time>
      </trkpt>
      <trkpt lat="48.21811" lon="-3.1603">
        <ele>140.80000305176</ele>
        <time>2020-10-19T10:48:30.000Z</time>
      </trkpt>
      <trkpt lat="48.21812" lon="-3.1603">
        <ele>140.80000305176</ele>
        <time>2020-10-19T10:48:31.000Z</time>
      </trkpt>
      <trkpt lat="48.21814" lon="-3.16029">
        <ele>140.60000610352</ele>
        <time>2020-10-19T10:48:32.000Z</time>
      </trkpt>
      <trkpt lat="48.21815" lon="-3.16029">
        <ele>140.60000610352</ele>
        <time>2020-10-19T10:48:33.000Z</time>
      </trkpt>
      <trkpt lat="48.21816" lon="-3.16028">
        <ele>140.39999389648</ele>
        <time>2020-10-19T10:48:34.000Z</time>
      </trkpt>
      <trkpt lat="48.21817" lon="-3.16027">
        <ele>140.39999389648</ele>
        <time>2020-10-19T10:48:35.000Z</time>
      </trkpt>
      <trkpt lat="48.21818" lon="-3.16027">
        <ele>140.19999694824</ele>
        <time>2020-10-19T10:48:36.000Z</time>
      </trkpt>
      <trkpt lat="48.21819" lon="-3.16026">
        <ele>140.19999694824</ele>
        <time>2020-10-19T10:48:37.000Z</time>
      </trkpt>
      <trkpt lat="48.2182" lon="-3.16026">
        <ele>140</ele>
        <time>2020-10-19T10:48:38.000Z</time>
      </trkpt>
      <trkpt lat="48.21821" lon="-3.16026">
        <ele>140</ele>
        <time>2020-10-19T10:48:39.000Z</time>
      </trkpt>
      <trkpt lat="48.21823" lon="-3.16025">
        <ele>140</ele>
        <time>2020-10-19T10:48:40.000Z</time>
      </trkpt>
      <trkpt lat="48.21824" lon="-3.16025">
        <ele>139.80000305176</ele>
        <time>2020-10-19T10:48:41.000Z</time>
      </trkpt>
      <trkpt lat="48.21825" lon="-3.16024">
        <ele>139.80000305176</ele>
        <time>2020-10-19T10:48:42.000Z</time>
      </trkpt>
      <trkpt lat="48.21826" lon="-3.16025">
        <ele>139.80000305176</ele>
        <time>2020-10-19T10:48:43.000Z</time>
      </trkpt>
      <trkpt lat="48.21828" lon="-3.16025">
        <ele>139.60000610352</ele>
        <time>2020-10-19T10:48:44.000Z</time>
      </trkpt>
      <trkpt lat="48.21829" lon="-3.16025">
        <ele>139.60000610352</ele>
        <time>2020-10-19T10:48:45.000Z</time>
      </trkpt>
      <trkpt lat="48.2183" lon="-3.16025">
        <ele>139.60000610352</ele>
        <time>2020-10-19T10:48:46.000Z</time>
      </trkpt>
      <trkpt lat="48.21832" lon="-3.16026">
        <ele>139.60000610352</ele>
        <time>2020-10-19T10:48:47.000Z</time>
      </trkpt>
      <trkpt lat="48.21832" lon="-3.16026">
        <ele>139.60000610352</ele>
        <time>2020-10-19T10:48:48.000Z</time>
      </trkpt>
      <trkpt lat="48.21834" lon="-3.16026">
        <ele>139.60000610352</ele>
        <time>2020-10-19T10:48:49.000Z</time>
      </trkpt>
      <trkpt lat="48.21834" lon="-3.16025">
        <ele>139.39999389648</ele>
        <time>2020-10-19T10:48:50.000Z</time>
      </trkpt>
      <trkpt lat="48.21835" lon="-3.16025">
        <ele>139.39999389648</ele>
        <time>2020-10-19T10:48:51.000Z</time>
      </trkpt>
      <trkpt lat="48.21836" lon="-3.16025">
        <ele>139.39999389648</ele>
        <time>2020-10-19T10:48:52.000Z</time>
      </trkpt>
      <trkpt lat="48.21837" lon="-3.16025">
        <ele>139.39999389648</ele>
        <time>2020-10-19T10:48:53.000Z</time>
      </trkpt>
      <trkpt lat="48.21838" lon="-3.16026">
        <ele>139.39999389648</ele>
        <time>2020-10-19T10:48:54.000Z</time>
      </trkpt>
      <trkpt lat="48.21839" lon="-3.16026">
        <ele>139.39999389648</ele>
        <time>2020-10-19T10:48:55.000Z</time>
      </trkpt>
      <trkpt lat="48.2184" lon="-3.16026">
        <ele>139.39999389648</ele>
        <time>2020-10-19T10:48:56.000Z</time>
      </trkpt>
      <trkpt lat="48.21841" lon="-3.16026">
        <ele>139.39999389648</ele>
        <time>2020-10-19T10:48:57.000Z</time>
      </trkpt>
      <trkpt lat="48.21842" lon="-3.16026">
        <ele>139.39999389648</ele>
        <time>2020-10-19T10:48:58.000Z</time>
      </trkpt>
      <trkpt lat="48.21843" lon="-3.16026">
        <ele>139.39999389648</ele>
        <time>2020-10-19T10:48:59.000Z</time>
      </trkpt>
      <trkpt lat="48.21844" lon="-3.16026">
        <ele>139.19999694824</ele>
        <time>2020-10-19T10:49:00.000Z</time>
      </trkpt>
      <trkpt lat="48.21846" lon="-3.16026">
        <ele>139.19999694824</ele>
        <time>2020-10-19T10:49:01.000Z</time>
      </trkpt>
      <trkpt lat="48.21847" lon="-3.16027">
        <ele>139.39999389648</ele>
        <time>2020-10-19T10:49:02.000Z</time>
      </trkpt>
      <trkpt lat="48.21848" lon="-3.16027">
        <ele>139.19999694824</ele>
        <time>2020-10-19T10:49:03.000Z</time>
      </trkpt>
      <trkpt lat="48.21848" lon="-3.16027">
        <ele>139.19999694824</ele>
        <time>2020-10-19T10:49:04.000Z</time>
      </trkpt>
      <trkpt lat="48.21849" lon="-3.16026">
        <ele>139.19999694824</ele>
        <time>2020-10-19T10:49:05.000Z</time>
      </trkpt>
      <trkpt lat="48.21852" lon="-3.16026">
        <ele>139.19999694824</ele>
        <time>2020-10-19T10:49:06.000Z</time>
      </trkpt>
      <trkpt lat="48.21852" lon="-3.16026">
        <ele>139.19999694824</ele>
        <time>2020-10-19T10:49:07.000Z</time>
      </trkpt>
      <trkpt lat="48.21853" lon="-3.16026">
        <ele>139</ele>
        <time>2020-10-19T10:49:08.000Z</time>
      </trkpt>
      <trkpt lat="48.21855" lon="-3.16027">
        <ele>139</ele>
        <time>2020-10-19T10:49:09.000Z</time>
      </trkpt>
      <trkpt lat="48.21856" lon="-3.16026">
        <ele>139</ele>
        <time>2020-10-19T10:49:10.000Z</time>
      </trkpt>
      <trkpt lat="48.21857" lon="-3.16026">
        <ele>139</ele>
        <time>2020-10-19T10:49:11.000Z</time>
      </trkpt>
      <trkpt lat="48.21858" lon="-3.16026">
        <ele>139</ele>
        <time>2020-10-19T10:49:12.000Z</time>
      </trkpt>
      <trkpt lat="48.2186" lon="-3.16026">
        <ele>138.80000305176</ele>
        <time>2020-10-19T10:49:13.000Z</time>
      </trkpt>
      <trkpt lat="48.21861" lon="-3.16025">
        <ele>138.80000305176</ele>
        <time>2020-10-19T10:49:14.000Z</time>
      </trkpt>
      <trkpt lat="48.21862" lon="-3.16025">
        <ele>138.80000305176</ele>
        <time>2020-10-19T10:49:15.000Z</time>
      </trkpt>
      <trkpt lat="48.21863" lon="-3.16025">
        <ele>138.80000305176</ele>
        <time>2020-10-19T10:49:16.000Z</time>
      </trkpt>
      <trkpt lat="48.21865" lon="-3.16025">
        <ele>138.80000305176</ele>
        <time>2020-10-19T10:49:17.000Z</time>
      </trkpt>
      <trkpt lat="48.21866" lon="-3.16025">
        <ele>138.80000305176</ele>
        <time>2020-10-19T10:49:18.000Z</time>
      </trkpt>
      <trkpt lat="48.21867" lon="-3.16025">
        <ele>138.60000610352</ele>
        <time>2020-10-19T10:49:19.000Z</time>
      </trkpt>
      <trkpt lat="48.21868" lon="-3.16025">
        <ele>138.60000610352</ele>
        <time>2020-10-19T10:49:20.000Z</time>
      </trkpt>
      <trkpt lat="48.21869" lon="-3.16025">
        <ele>138.60000610352</ele>
        <time>2020-10-19T10:49:21.000Z</time>
      </trkpt>
      <trkpt lat="48.2187" lon="-3.16025">
        <ele>138.60000610352</ele>
        <time>2020-10-19T10:49:22.000Z</time>
      </trkpt>
      <trkpt lat="48.2187" lon="-3.16025">
        <ele>138.60000610352</ele>
        <time>2020-10-19T10:49:23.000Z</time>
      </trkpt>
      <trkpt lat="48.21871" lon="-3.16025">
        <ele>138.60000610352</ele>
        <time>2020-10-19T10:49:24.000Z</time>
      </trkpt>
      <trkpt lat="48.21872" lon="-3.16025">
        <ele>138.60000610352</ele>
        <time>2020-10-19T10:49:25.000Z</time>
      </trkpt>
      <trkpt lat="48.21874" lon="-3.16025">
        <ele>138.60000610352</ele>
        <time>2020-10-19T10:49:26.000Z</time>
      </trkpt>
      <trkpt lat="48.21874" lon="-3.16025">
        <ele>138.60000610352</ele>
        <time>2020-10-19T10:49:27.000Z</time>
      </trkpt>
      <trkpt lat="48.21875" lon="-3.16026">
        <ele>138.60000610352</ele>
        <time>2020-10-19T10:49:28.000Z</time>
      </trkpt>
      <trkpt lat="48.21876" lon="-3.16026">
        <ele>138.60000610352</ele>
        <time>2020-10-19T10:49:29.000Z</time>
      </trkpt>
      <trkpt lat="48.21877" lon="-3.16026">
        <ele>138.60000610352</ele>
        <time>2020-10-19T10:49:30.000Z</time>
      </trkpt>
      <trkpt lat="48.21878" lon="-3.16026">
        <ele>138.60000610352</ele>
        <time>2020-10-19T10:49:31.000Z</time>
      </trkpt>
      <trkpt lat="48.2188" lon="-3.16027">
        <ele>138.60000610352</ele>
        <time>2020-10-19T10:49:32.000Z</time>
      </trkpt>
      <trkpt lat="48.2188" lon="-3.16027">
        <ele>138.39999389648</ele>
        <time>2020-10-19T10:49:33.000Z</time>
      </trkpt>
      <trkpt lat="48.21881" lon="-3.16026">
        <ele>138.39999389648</ele>
        <time>2020-10-19T10:49:34.000Z</time>
      </trkpt>
      <trkpt lat="48.21882" lon="-3.16027">
        <ele>138.39999389648</ele>
        <time>2020-10-19T10:49:35.000Z</time>
      </trkpt>
      <trkpt lat="48.21883" lon="-3.16027">
        <ele>138.39999389648</ele>
        <time>2020-10-19T10:49:36.000Z</time>
      </trkpt>
      <trkpt lat="48.21883" lon="-3.16026">
        <ele>138.39999389648</ele>
        <time>2020-10-19T10:49:37.000Z</time>
      </trkpt>
      <trkpt lat="48.21884" lon="-3.16027">
        <ele>138.39999389648</ele>
        <time>2020-10-19T10:49:38.000Z</time>
      </trkpt>
      <trkpt lat="48.21885" lon="-3.16027">
        <ele>138.39999389648</ele>
        <time>2020-10-19T10:49:39.000Z</time>
      </trkpt>
      <trkpt lat="48.21885" lon="-3.16027">
        <ele>138.39999389648</ele>
        <time>2020-10-19T10:49:40.000Z</time>
      </trkpt>
      <trkpt lat="48.21886" lon="-3.16027">
        <ele>138.39999389648</ele>
        <time>2020-10-19T10:49:41.000Z</time>
      </trkpt>
      <trkpt lat="48.21886" lon="-3.16028">
        <ele>138.39999389648</ele>
        <time>2020-10-19T10:49:42.000Z</time>
      </trkpt>
      <trkpt lat="48.21887" lon="-3.16028">
        <ele>138.39999389648</ele>
        <time>2020-10-19T10:49:43.000Z</time>
      </trkpt>
      <trkpt lat="48.21888" lon="-3.16029">
        <ele>138.39999389648</ele>
        <time>2020-10-19T10:49:44.000Z</time>
      </trkpt>
      <trkpt lat="48.21889" lon="-3.1603">
        <ele>138.60000610352</ele>
        <time>2020-10-19T10:49:45.000Z</time>
      </trkpt>
      <trkpt lat="48.21891" lon="-3.16032">
        <ele>138.60000610352</ele>
        <time>2020-10-19T10:49:46.000Z</time>
      </trkpt>
      <trkpt lat="48.21891" lon="-3.16032">
        <ele>138.60000610352</ele>
        <time>2020-10-19T10:49:47.000Z</time>
      </trkpt>
      <trkpt lat="48.21892" lon="-3.16033">
        <ele>138.80000305176</ele>
        <time>2020-10-19T10:49:48.000Z</time>
      </trkpt>
      <trkpt lat="48.21893" lon="-3.16034">
        <ele>138.80000305176</ele>
        <time>2020-10-19T10:49:49.000Z</time>
      </trkpt>
      <trkpt lat="48.21894" lon="-3.16034">
        <ele>138.80000305176</ele>
        <time>2020-10-19T10:49:50.000Z</time>
      </trkpt>
      <trkpt lat="48.21894" lon="-3.16035">
        <ele>138.80000305176</ele>
        <time>2020-10-19T10:49:51.000Z</time>
      </trkpt>
      <trkpt lat="48.21895" lon="-3.16037">
        <ele>139</ele>
        <time>2020-10-19T10:49:52.000Z</time>
      </trkpt>
      <trkpt lat="48.21895" lon="-3.16037">
        <ele>139</ele>
        <time>2020-10-19T10:49:53.000Z</time>
      </trkpt>
      <trkpt lat="48.21896" lon="-3.16037">
        <ele>139</ele>
        <time>2020-10-19T10:49:54.000Z</time>
      </trkpt>
      <trkpt lat="48.21897" lon="-3.16038">
        <ele>139</ele>
        <time>2020-10-19T10:49:55.000Z</time>
      </trkpt>
      <trkpt lat="48.21898" lon="-3.1604">
        <ele>139.19999694824</ele>
        <time>2020-10-19T10:49:56.000Z</time>
      </trkpt>
      <trkpt lat="48.21899" lon="-3.16041">
        <ele>139.19999694824</ele>
        <time>2020-10-19T10:49:57.000Z</time>
      </trkpt>
      <trkpt lat="48.219" lon="-3.16042">
        <ele>139.19999694824</ele>
        <time>2020-10-19T10:49:58.000Z</time>
      </trkpt>
      <trkpt lat="48.21902" lon="-3.16043">
        <ele>139.19999694824</ele>
        <time>2020-10-19T10:49:59.000Z</time>
      </trkpt>
      <trkpt lat="48.21903" lon="-3.16044">
        <ele>139.19999694824</ele>
        <time>2020-10-19T10:50:00.000Z</time>
      </trkpt>
      <trkpt lat="48.21905" lon="-3.16047">
        <ele>139.19999694824</ele>
        <time>2020-10-19T10:50:01.000Z</time>
      </trkpt>
      <trkpt lat="48.21905" lon="-3.16047">
        <ele>139.19999694824</ele>
        <time>2020-10-19T10:50:02.000Z</time>
      </trkpt>
      <trkpt lat="48.21906" lon="-3.16048">
        <ele>139.39999389648</ele>
        <time>2020-10-19T10:50:03.000Z</time>
      </trkpt>
      <trkpt lat="48.21906" lon="-3.16049">
        <ele>139.39999389648</ele>
        <time>2020-10-19T10:50:04.000Z</time>
      </trkpt>
      <trkpt lat="48.21907" lon="-3.1605">
        <ele>139.39999389648</ele>
        <time>2020-10-19T10:50:05.000Z</time>
      </trkpt>
      <trkpt lat="48.21908" lon="-3.16051">
        <ele>139.39999389648</ele>
        <time>2020-10-19T10:50:06.000Z</time>
      </trkpt>
      <trkpt lat="48.21909" lon="-3.16052">
        <ele>139.39999389648</ele>
        <time>2020-10-19T10:50:07.000Z</time>
      </trkpt>
      <trkpt lat="48.2191" lon="-3.16053">
        <ele>139.39999389648</ele>
        <time>2020-10-19T10:50:08.000Z</time>
      </trkpt>
      <trkpt lat="48.21911" lon="-3.16054">
        <ele>139.39999389648</ele>
        <time>2020-10-19T10:50:09.000Z</time>
      </trkpt>
      <trkpt lat="48.21911" lon="-3.16055">
        <ele>139.39999389648</ele>
        <time>2020-10-19T10:50:10.000Z</time>
      </trkpt>
      <trkpt lat="48.21912" lon="-3.16056">
        <ele>139.39999389648</ele>
        <time>2020-10-19T10:50:11.000Z</time>
      </trkpt>
      <trkpt lat="48.21913" lon="-3.16057">
        <ele>139.60000610352</ele>
        <time>2020-10-19T10:50:12.000Z</time>
      </trkpt>
      <trkpt lat="48.21914" lon="-3.16058">
        <ele>139.60000610352</ele>
        <time>2020-10-19T10:50:13.000Z</time>
      </trkpt>
      <trkpt lat="48.21915" lon="-3.16059">
        <ele>139.60000610352</ele>
        <time>2020-10-19T10:50:14.000Z</time>
      </trkpt>
      <trkpt lat="48.21915" lon="-3.1606">
        <ele>139.60000610352</ele>
        <time>2020-10-19T10:50:15.000Z</time>
      </trkpt>
      <trkpt lat="48.21916" lon="-3.16061">
        <ele>139.60000610352</ele>
        <time>2020-10-19T10:50:16.000Z</time>
      </trkpt>
      <trkpt lat="48.21917" lon="-3.16062">
        <ele>139.60000610352</ele>
        <time>2020-10-19T10:50:17.000Z</time>
      </trkpt>
      <trkpt lat="48.21918" lon="-3.16063">
        <ele>139.60000610352</ele>
        <time>2020-10-19T10:50:18.000Z</time>
      </trkpt>
      <trkpt lat="48.21919" lon="-3.16064">
        <ele>139.60000610352</ele>
        <time>2020-10-19T10:50:19.000Z</time>
      </trkpt>
      <trkpt lat="48.2192" lon="-3.16065">
        <ele>139.60000610352</ele>
        <time>2020-10-19T10:50:20.000Z</time>
      </trkpt>
      <trkpt lat="48.21921" lon="-3.16066">
        <ele>139.60000610352</ele>
        <time>2020-10-19T10:50:21.000Z</time>
      </trkpt>
      <trkpt lat="48.21922" lon="-3.16067">
        <ele>139.60000610352</ele>
        <time>2020-10-19T10:50:22.000Z</time>
      </trkpt>
      <trkpt lat="48.21923" lon="-3.16068">
        <ele>139.60000610352</ele>
        <time>2020-10-19T10:50:23.000Z</time>
      </trkpt>
      <trkpt lat="48.21924" lon="-3.16069">
        <ele>139.60000610352</ele>
        <time>2020-10-19T10:50:24.000Z</time>
      </trkpt>
      <trkpt lat="48.21925" lon="-3.1607">
        <ele>139.60000610352</ele>
        <time>2020-10-19T10:50:25.000Z</time>
      </trkpt>
      <trkpt lat="48.21926" lon="-3.1607">
        <ele>139.80000305176</ele>
        <time>2020-10-19T10:50:26.000Z</time>
      </trkpt>
      <trkpt lat="48.21926" lon="-3.16071">
        <ele>139.80000305176</ele>
        <time>2020-10-19T10:50:27.000Z</time>
      </trkpt>
      <trkpt lat="48.21927" lon="-3.16072">
        <ele>139.80000305176</ele>
        <time>2020-10-19T10:50:28.000Z</time>
      </trkpt>
      <trkpt lat="48.21927" lon="-3.16072">
        <ele>139.80000305176</ele>
        <time>2020-10-19T10:50:29.000Z</time>
      </trkpt>
      <trkpt lat="48.21928" lon="-3.16073">
        <ele>139.80000305176</ele>
        <time>2020-10-19T10:50:30.000Z</time>
      </trkpt>
      <trkpt lat="48.21929" lon="-3.16074">
        <ele>139.80000305176</ele>
        <time>2020-10-19T10:50:31.000Z</time>
      </trkpt>
      <trkpt lat="48.2193" lon="-3.16075">
        <ele>139.80000305176</ele>
        <time>2020-10-19T10:50:32.000Z</time>
      </trkpt>
      <trkpt lat="48.2193" lon="-3.16076">
        <ele>140</ele>
        <time>2020-10-19T10:50:33.000Z</time>
      </trkpt>
      <trkpt lat="48.2193" lon="-3.16077">
        <ele>140</ele>
        <time>2020-10-19T10:50:34.000Z</time>
      </trkpt>
      <trkpt lat="48.21931" lon="-3.16078">
        <ele>140.19999694824</ele>
        <time>2020-10-19T10:50:35.000Z</time>
      </trkpt>
      <trkpt lat="48.21932" lon="-3.16079">
        <ele>140.19999694824</ele>
        <time>2020-10-19T10:50:36.000Z</time>
      </trkpt>
      <trkpt lat="48.21933" lon="-3.1608">
        <ele>140.39999389648</ele>
        <time>2020-10-19T10:50:37.000Z</time>
      </trkpt>
      <trkpt lat="48.21933" lon="-3.16081">
        <ele>140.39999389648</ele>
        <time>2020-10-19T10:50:38.000Z</time>
      </trkpt>
      <trkpt lat="48.21934" lon="-3.16081">
        <ele>140.60000610352</ele>
        <time>2020-10-19T10:50:39.000Z</time>
      </trkpt>
      <trkpt lat="48.21935" lon="-3.16082">
        <ele>140.60000610352</ele>
        <time>2020-10-19T10:50:40.000Z</time>
      </trkpt>
      <trkpt lat="48.21936" lon="-3.16083">
        <ele>140.80000305176</ele>
        <time>2020-10-19T10:50:41.000Z</time>
      </trkpt>
      <trkpt lat="48.21937" lon="-3.16084">
        <ele>140.80000305176</ele>
        <time>2020-10-19T10:50:42.000Z</time>
      </trkpt>
      <trkpt lat="48.21938" lon="-3.16085">
        <ele>141</ele>
        <time>2020-10-19T10:50:43.000Z</time>
      </trkpt>
      <trkpt lat="48.21939" lon="-3.16086">
        <ele>141</ele>
        <time>2020-10-19T10:50:44.000Z</time>
      </trkpt>
      <trkpt lat="48.2194" lon="-3.16086">
        <ele>141</ele>
        <time>2020-10-19T10:50:45.000Z</time>
      </trkpt>
      <trkpt lat="48.21941" lon="-3.16087">
        <ele>140.80000305176</ele>
        <time>2020-10-19T10:50:46.000Z</time>
      </trkpt>
      <trkpt lat="48.21942" lon="-3.16088">
        <ele>140.80000305176</ele>
        <time>2020-10-19T10:50:47.000Z</time>
      </trkpt>
      <trkpt lat="48.21943" lon="-3.16088">
        <ele>140.80000305176</ele>
        <time>2020-10-19T10:50:48.000Z</time>
      </trkpt>
      <trkpt lat="48.21943" lon="-3.16088">
        <ele>140.80000305176</ele>
        <time>2020-10-19T10:50:49.000Z</time>
      </trkpt>
      <trkpt lat="48.21943" lon="-3.16089">
        <ele>140.80000305176</ele>
        <time>2020-10-19T10:50:50.000Z</time>
      </trkpt>
      <trkpt lat="48.21942" lon="-3.16089">
        <ele>140.80000305176</ele>
        <time>2020-10-19T10:50:51.000Z</time>
      </trkpt>
      <trkpt lat="48.21942" lon="-3.16089">
        <ele>140.80000305176</ele>
        <time>2020-10-19T10:50:52.000Z</time>
      </trkpt>
      <trkpt lat="48.21942" lon="-3.16089">
        <ele>140.80000305176</ele>
        <time>2020-10-19T10:50:53.000Z</time>
      </trkpt>
      <trkpt lat="48.21942" lon="-3.16089">
        <ele>140.80000305176</ele>
        <time>2020-10-19T10:50:54.000Z</time>
      </trkpt>
      <trkpt lat="48.21941" lon="-3.1609">
        <ele>140.80000305176</ele>
        <time>2020-10-19T10:50:55.000Z</time>
      </trkpt>
      <trkpt lat="48.21941" lon="-3.1609">
        <ele>140.80000305176</ele>
        <time>2020-10-19T10:50:56.000Z</time>
      </trkpt>
      <trkpt lat="48.21942" lon="-3.1609">
        <ele>140.80000305176</ele>
        <time>2020-10-19T10:50:57.000Z</time>
      </trkpt>
      <trkpt lat="48.21942" lon="-3.16091">
        <ele>140.80000305176</ele>
        <time>2020-10-19T10:50:58.000Z</time>
      </trkpt>
      <trkpt lat="48.21943" lon="-3.16091">
        <ele>140.80000305176</ele>
        <time>2020-10-19T10:50:59.000Z</time>
      </trkpt>
      <trkpt lat="48.21943" lon="-3.16092">
        <ele>140.80000305176</ele>
        <time>2020-10-19T10:51:00.000Z</time>
      </trkpt>
      <trkpt lat="48.21944" lon="-3.16092">
        <ele>140.60000610352</ele>
        <time>2020-10-19T10:51:01.000Z</time>
      </trkpt>
      <trkpt lat="48.21945" lon="-3.16093">
        <ele>140.60000610352</ele>
        <time>2020-10-19T10:51:02.000Z</time>
      </trkpt>
      <trkpt lat="48.21945" lon="-3.16093">
        <ele>140.60000610352</ele>
        <time>2020-10-19T10:51:03.000Z</time>
      </trkpt>
      <trkpt lat="48.21946" lon="-3.16093">
        <ele>140.60000610352</ele>
        <time>2020-10-19T10:51:04.000Z</time>
      </trkpt>
      <trkpt lat="48.21948" lon="-3.16094">
        <ele>140.60000610352</ele>
        <time>2020-10-19T10:51:05.000Z</time>
      </trkpt>
      <trkpt lat="48.21948" lon="-3.16094">
        <ele>140.60000610352</ele>
        <time>2020-10-19T10:51:06.000Z</time>
      </trkpt>
      <trkpt lat="48.21949" lon="-3.16094">
        <ele>140.60000610352</ele>
        <time>2020-10-19T10:51:07.000Z</time>
      </trkpt>
      <trkpt lat="48.2195" lon="-3.16095">
        <ele>140.60000610352</ele>
        <time>2020-10-19T10:51:08.000Z</time>
      </trkpt>
      <trkpt lat="48.21951" lon="-3.16095">
        <ele>140.60000610352</ele>
        <time>2020-10-19T10:51:09.000Z</time>
      </trkpt>
      <trkpt lat="48.21952" lon="-3.16096">
        <ele>140.60000610352</ele>
        <time>2020-10-19T10:51:10.000Z</time>
      </trkpt>
      <trkpt lat="48.21953" lon="-3.16097">
        <ele>140.60000610352</ele>
        <time>2020-10-19T10:51:11.000Z</time>
      </trkpt>
      <trkpt lat="48.21953" lon="-3.16098">
        <ele>140.60000610352</ele>
        <time>2020-10-19T10:51:12.000Z</time>
      </trkpt>
      <trkpt lat="48.21954" lon="-3.16099">
        <ele>140.60000610352</ele>
        <time>2020-10-19T10:51:13.000Z</time>
      </trkpt>
      <trkpt lat="48.21955" lon="-3.161">
        <ele>140.80000305176</ele>
        <time>2020-10-19T10:51:14.000Z</time>
      </trkpt>
      <trkpt lat="48.21955" lon="-3.16101">
        <ele>140.80000305176</ele>
        <time>2020-10-19T10:51:15.000Z</time>
      </trkpt>
      <trkpt lat="48.21956" lon="-3.16102">
        <ele>140.80000305176</ele>
        <time>2020-10-19T10:51:16.000Z</time>
      </trkpt>
      <trkpt lat="48.21957" lon="-3.16102">
        <ele>140.80000305176</ele>
        <time>2020-10-19T10:51:17.000Z</time>
      </trkpt>
      <trkpt lat="48.21959" lon="-3.16104">
        <ele>140.80000305176</ele>
        <time>2020-10-19T10:51:18.000Z</time>
      </trkpt>
      <trkpt lat="48.2196" lon="-3.16105">
        <ele>140.80000305176</ele>
        <time>2020-10-19T10:51:19.000Z</time>
      </trkpt>
      <trkpt lat="48.21961" lon="-3.16106">
        <ele>141</ele>
        <time>2020-10-19T10:51:20.000Z</time>
      </trkpt>
      <trkpt lat="48.21961" lon="-3.16107">
        <ele>141</ele>
        <time>2020-10-19T10:51:21.000Z</time>
      </trkpt>
      <trkpt lat="48.21962" lon="-3.16108">
        <ele>141</ele>
        <time>2020-10-19T10:51:22.000Z</time>
      </trkpt>
      <trkpt lat="48.21962" lon="-3.16109">
        <ele>141</ele>
        <time>2020-10-19T10:51:23.000Z</time>
      </trkpt>
      <trkpt lat="48.21964" lon="-3.1611">
        <ele>141.19999694824</ele>
        <time>2020-10-19T10:51:24.000Z</time>
      </trkpt>
      <trkpt lat="48.21964" lon="-3.1611">
        <ele>141.19999694824</ele>
        <time>2020-10-19T10:51:25.000Z</time>
      </trkpt>
      <trkpt lat="48.21964" lon="-3.16111">
        <ele>141.19999694824</ele>
        <time>2020-10-19T10:51:26.000Z</time>
      </trkpt>
      <trkpt lat="48.21965" lon="-3.16112">
        <ele>141.19999694824</ele>
        <time>2020-10-19T10:51:27.000Z</time>
      </trkpt>
      <trkpt lat="48.21965" lon="-3.16113">
        <ele>141.19999694824</ele>
        <time>2020-10-19T10:51:28.000Z</time>
      </trkpt>
      <trkpt lat="48.21966" lon="-3.16113">
        <ele>141.19999694824</ele>
        <time>2020-10-19T10:51:29.000Z</time>
      </trkpt>
      <trkpt lat="48.21967" lon="-3.16114">
        <ele>141.19999694824</ele>
        <time>2020-10-19T10:51:30.000Z</time>
      </trkpt>
      <trkpt lat="48.21967" lon="-3.16114">
        <ele>141.19999694824</ele>
        <time>2020-10-19T10:51:31.000Z</time>
      </trkpt>
      <trkpt lat="48.21967" lon="-3.16114">
        <ele>141.19999694824</ele>
        <time>2020-10-19T10:51:32.000Z</time>
      </trkpt>
      <trkpt lat="48.21967" lon="-3.16115">
        <ele>141.19999694824</ele>
        <time>2020-10-19T10:51:33.000Z</time>
      </trkpt>
      <trkpt lat="48.21968" lon="-3.16115">
        <ele>141.39999389648</ele>
        <time>2020-10-19T10:51:34.000Z</time>
      </trkpt>
      <trkpt lat="48.21968" lon="-3.16116">
        <ele>141.39999389648</ele>
        <time>2020-10-19T10:51:35.000Z</time>
      </trkpt>
      <trkpt lat="48.21968" lon="-3.16116">
        <ele>141.39999389648</ele>
        <time>2020-10-19T10:51:36.000Z</time>
      </trkpt>
      <trkpt lat="48.21968" lon="-3.16117">
        <ele>141.39999389648</ele>
        <time>2020-10-19T10:51:37.000Z</time>
      </trkpt>
      <trkpt lat="48.21968" lon="-3.16117">
        <ele>141.39999389648</ele>
        <time>2020-10-19T10:51:38.000Z</time>
      </trkpt>
      <trkpt lat="48.21969" lon="-3.16117">
        <ele>141.39999389648</ele>
        <time>2020-10-19T10:51:39.000Z</time>
      </trkpt>
      <trkpt lat="48.21969" lon="-3.16117">
        <ele>141.39999389648</ele>
        <time>2020-10-19T10:51:40.000Z</time>
      </trkpt>
      <trkpt lat="48.21969" lon="-3.16117">
        <ele>141.39999389648</ele>
        <time>2020-10-19T10:51:41.000Z</time>
      </trkpt>
      <trkpt lat="48.21969" lon="-3.16117">
        <ele>141.39999389648</ele>
        <time>2020-10-19T10:51:42.000Z</time>
      </trkpt>
      <trkpt lat="48.2197" lon="-3.16117">
        <ele>141.39999389648</ele>
        <time>2020-10-19T10:51:43.000Z</time>
      </trkpt>
      <trkpt lat="48.2197" lon="-3.16117">
        <ele>141.39999389648</ele>
        <time>2020-10-19T10:51:44.000Z</time>
      </trkpt>
      <trkpt lat="48.2197" lon="-3.16118">
        <ele>141.39999389648</ele>
        <time>2020-10-19T10:51:45.000Z</time>
      </trkpt>
      <trkpt lat="48.21969" lon="-3.16119">
        <ele>141.60000610352</ele>
        <time>2020-10-19T10:51:46.000Z</time>
      </trkpt>
      <trkpt lat="48.21969" lon="-3.1612">
        <ele>141.60000610352</ele>
        <time>2020-10-19T10:51:47.000Z</time>
      </trkpt>
      <trkpt lat="48.21969" lon="-3.16121">
        <ele>141.60000610352</ele>
        <time>2020-10-19T10:51:48.000Z</time>
      </trkpt>
      <trkpt lat="48.21969" lon="-3.16121">
        <ele>141.60000610352</ele>
        <time>2020-10-19T10:51:49.000Z</time>
      </trkpt>
      <trkpt lat="48.21968" lon="-3.16122">
        <ele>141.60000610352</ele>
        <time>2020-10-19T10:51:50.000Z</time>
      </trkpt>
      <trkpt lat="48.21968" lon="-3.16122">
        <ele>141.60000610352</ele>
        <time>2020-10-19T10:51:51.000Z</time>
      </trkpt>
      <trkpt lat="48.21968" lon="-3.16122">
        <ele>141.80000305176</ele>
        <time>2020-10-19T10:51:52.000Z</time>
      </trkpt>
      <trkpt lat="48.21967" lon="-3.16121">
        <ele>141.60000610352</ele>
        <time>2020-10-19T10:51:53.000Z</time>
      </trkpt>
      <trkpt lat="48.21967" lon="-3.16121">
        <ele>141.60000610352</ele>
        <time>2020-10-19T10:51:54.000Z</time>
      </trkpt>
      <trkpt lat="48.21967" lon="-3.1612">
        <ele>141.60000610352</ele>
        <time>2020-10-19T10:51:55.000Z</time>
      </trkpt>
      <trkpt lat="48.21966" lon="-3.1612">
        <ele>141.60000610352</ele>
        <time>2020-10-19T10:51:56.000Z</time>
      </trkpt>
      <trkpt lat="48.21966" lon="-3.1612">
        <ele>141.60000610352</ele>
        <time>2020-10-19T10:51:57.000Z</time>
      </trkpt>
      <trkpt lat="48.21965" lon="-3.1612">
        <ele>141.60000610352</ele>
        <time>2020-10-19T10:51:58.000Z</time>
      </trkpt>
      <trkpt lat="48.21964" lon="-3.16121">
        <ele>141.80000305176</ele>
        <time>2020-10-19T10:51:59.000Z</time>
      </trkpt>
      <trkpt lat="48.21962" lon="-3.1612">
        <ele>141.80000305176</ele>
        <time>2020-10-19T10:52:00.000Z</time>
      </trkpt>
      <trkpt lat="48.21961" lon="-3.16118">
        <ele>141.60000610352</ele>
        <time>2020-10-19T10:52:01.000Z</time>
      </trkpt>
      <trkpt lat="48.21961" lon="-3.16118">
        <ele>141.60000610352</ele>
        <time>2020-10-19T10:52:02.000Z</time>
      </trkpt>
      <trkpt lat="48.21961" lon="-3.16118">
        <ele>141.60000610352</ele>
        <time>2020-10-19T10:52:03.000Z</time>
      </trkpt>
      <trkpt lat="48.21962" lon="-3.16118">
        <ele>141.60000610352</ele>
        <time>2020-10-19T10:52:04.000Z</time>
      </trkpt>
      <trkpt lat="48.21962" lon="-3.16118">
        <ele>141.60000610352</ele>
        <time>2020-10-19T10:52:05.000Z</time>
      </trkpt>
      <trkpt lat="48.21962" lon="-3.16119">
        <ele>141.60000610352</ele>
        <time>2020-10-19T10:52:06.000Z</time>
      </trkpt>
      <trkpt lat="48.21963" lon="-3.16119">
        <ele>141.60000610352</ele>
        <time>2020-10-19T10:52:07.000Z</time>
      </trkpt>
      <trkpt lat="48.21963" lon="-3.1612">
        <ele>141.80000305176</ele>
        <time>2020-10-19T10:52:08.000Z</time>
      </trkpt>
      <trkpt lat="48.21965" lon="-3.16121">
        <ele>141.80000305176</ele>
        <time>2020-10-19T10:52:09.000Z</time>
      </trkpt>
      <trkpt lat="48.21965" lon="-3.16122">
        <ele>141.80000305176</ele>
        <time>2020-10-19T10:52:10.000Z</time>
      </trkpt>
      <trkpt lat="48.21966" lon="-3.16123">
        <ele>141.80000305176</ele>
        <time>2020-10-19T10:52:11.000Z</time>
      </trkpt>
      <trkpt lat="48.21967" lon="-3.16124">
        <ele>141.80000305176</ele>
        <time>2020-10-19T10:52:12.000Z</time>
      </trkpt>
      <trkpt lat="48.21967" lon="-3.16124">
        <ele>141.80000305176</ele>
        <time>2020-10-19T10:52:13.000Z</time>
      </trkpt>
      <trkpt lat="48.21968" lon="-3.16124">
        <ele>141.80000305176</ele>
        <time>2020-10-19T10:52:14.000Z</time>
      </trkpt>
      <trkpt lat="48.21969" lon="-3.16125">
        <ele>141.80000305176</ele>
        <time>2020-10-19T10:52:15.000Z</time>
      </trkpt>
      <trkpt lat="48.2197" lon="-3.16125">
        <ele>141.80000305176</ele>
        <time>2020-10-19T10:52:16.000Z</time>
      </trkpt>
      <trkpt lat="48.2197" lon="-3.16125">
        <ele>141.80000305176</ele>
        <time>2020-10-19T10:52:17.000Z</time>
      </trkpt>
      <trkpt lat="48.21971" lon="-3.16123">
        <ele>141.80000305176</ele>
        <time>2020-10-19T10:52:18.000Z</time>
      </trkpt>
      <trkpt lat="48.21972" lon="-3.16123">
        <ele>141.60000610352</ele>
        <time>2020-10-19T10:52:19.000Z</time>
      </trkpt>
      <trkpt lat="48.21973" lon="-3.16122">
        <ele>141.60000610352</ele>
        <time>2020-10-19T10:52:20.000Z</time>
      </trkpt>
      <trkpt lat="48.21974" lon="-3.16122">
        <ele>141.60000610352</ele>
        <time>2020-10-19T10:52:21.000Z</time>
      </trkpt>
      <trkpt lat="48.21974" lon="-3.16122">
        <ele>141.60000610352</ele>
        <time>2020-10-19T10:52:22.000Z</time>
      </trkpt>
      <trkpt lat="48.21975" lon="-3.16122">
        <ele>141.60000610352</ele>
        <time>2020-10-19T10:52:23.000Z</time>
      </trkpt>
      <trkpt lat="48.21976" lon="-3.16122">
        <ele>141.60000610352</ele>
        <time>2020-10-19T10:52:24.000Z</time>
      </trkpt>
      <trkpt lat="48.21976" lon="-3.16123">
        <ele>141.60000610352</ele>
        <time>2020-10-19T10:52:25.000Z</time>
      </trkpt>
      <trkpt lat="48.21977" lon="-3.16124">
        <ele>141.60000610352</ele>
        <time>2020-10-19T10:52:26.000Z</time>
      </trkpt>
      <trkpt lat="48.21978" lon="-3.16125">
        <ele>141.60000610352</ele>
        <time>2020-10-19T10:52:27.000Z</time>
      </trkpt>
      <trkpt lat="48.21979" lon="-3.16126">
        <ele>141.80000305176</ele>
        <time>2020-10-19T10:52:28.000Z</time>
      </trkpt>
      <trkpt lat="48.21979" lon="-3.16127">
        <ele>141.80000305176</ele>
        <time>2020-10-19T10:52:29.000Z</time>
      </trkpt>
      <trkpt lat="48.2198" lon="-3.16128">
        <ele>141.60000610352</ele>
        <time>2020-10-19T10:52:30.000Z</time>
      </trkpt>
      <trkpt lat="48.21981" lon="-3.16128">
        <ele>141.60000610352</ele>
        <time>2020-10-19T10:52:31.000Z</time>
      </trkpt>
      <trkpt lat="48.21982" lon="-3.16129">
        <ele>141.60000610352</ele>
        <time>2020-10-19T10:52:32.000Z</time>
      </trkpt>
      <trkpt lat="48.21983" lon="-3.16129">
        <ele>141.60000610352</ele>
        <time>2020-10-19T10:52:33.000Z</time>
      </trkpt>
      <trkpt lat="48.21984" lon="-3.1613">
        <ele>141.39999389648</ele>
        <time>2020-10-19T10:52:34.000Z</time>
      </trkpt>
      <trkpt lat="48.21985" lon="-3.16131">
        <ele>141.39999389648</ele>
        <time>2020-10-19T10:52:35.000Z</time>
      </trkpt>
      <trkpt lat="48.21986" lon="-3.16131">
        <ele>141.39999389648</ele>
        <time>2020-10-19T10:52:36.000Z</time>
      </trkpt>
      <trkpt lat="48.21986" lon="-3.16132">
        <ele>141.19999694824</ele>
        <time>2020-10-19T10:52:37.000Z</time>
      </trkpt>
      <trkpt lat="48.21987" lon="-3.16132">
        <ele>141.19999694824</ele>
        <time>2020-10-19T10:52:38.000Z</time>
      </trkpt>
      <trkpt lat="48.21988" lon="-3.16133">
        <ele>141.19999694824</ele>
        <time>2020-10-19T10:52:39.000Z</time>
      </trkpt>
      <trkpt lat="48.21989" lon="-3.16134">
        <ele>141.19999694824</ele>
        <time>2020-10-19T10:52:40.000Z</time>
      </trkpt>
      <trkpt lat="48.2199" lon="-3.16135">
        <ele>141</ele>
        <time>2020-10-19T10:52:41.000Z</time>
      </trkpt>
      <trkpt lat="48.21991" lon="-3.16136">
        <ele>141</ele>
        <time>2020-10-19T10:52:42.000Z</time>
      </trkpt>
      <trkpt lat="48.21992" lon="-3.16138">
        <ele>141</ele>
        <time>2020-10-19T10:52:43.000Z</time>
      </trkpt>
      <trkpt lat="48.21992" lon="-3.16138">
        <ele>141</ele>
        <time>2020-10-19T10:52:44.000Z</time>
      </trkpt>
      <trkpt lat="48.21993" lon="-3.1614">
        <ele>141</ele>
        <time>2020-10-19T10:52:45.000Z</time>
      </trkpt>
      <trkpt lat="48.21993" lon="-3.16141">
        <ele>140.80000305176</ele>
        <time>2020-10-19T10:52:46.000Z</time>
      </trkpt>
      <trkpt lat="48.21994" lon="-3.16142">
        <ele>140.80000305176</ele>
        <time>2020-10-19T10:52:47.000Z</time>
      </trkpt>
      <trkpt lat="48.21994" lon="-3.16144">
        <ele>140.80000305176</ele>
        <time>2020-10-19T10:52:48.000Z</time>
      </trkpt>
      <trkpt lat="48.21995" lon="-3.16145">
        <ele>140.80000305176</ele>
        <time>2020-10-19T10:52:49.000Z</time>
      </trkpt>
      <trkpt lat="48.21995" lon="-3.16146">
        <ele>140.80000305176</ele>
        <time>2020-10-19T10:52:50.000Z</time>
      </trkpt>
      <trkpt lat="48.21996" lon="-3.16147">
        <ele>140.80000305176</ele>
        <time>2020-10-19T10:52:51.000Z</time>
      </trkpt>
      <trkpt lat="48.21996" lon="-3.16149">
        <ele>140.80000305176</ele>
        <time>2020-10-19T10:52:52.000Z</time>
      </trkpt>
      <trkpt lat="48.21997" lon="-3.1615">
        <ele>140.80000305176</ele>
        <time>2020-10-19T10:52:53.000Z</time>
      </trkpt>
      <trkpt lat="48.21998" lon="-3.16151">
        <ele>140.80000305176</ele>
        <time>2020-10-19T10:52:54.000Z</time>
      </trkpt>
      <trkpt lat="48.21998" lon="-3.16152">
        <ele>140.60000610352</ele>
        <time>2020-10-19T10:52:55.000Z</time>
      </trkpt>
      <trkpt lat="48.21999" lon="-3.16153">
        <ele>140.60000610352</ele>
        <time>2020-10-19T10:52:56.000Z</time>
      </trkpt>
      <trkpt lat="48.21999" lon="-3.16156">
        <ele>140.60000610352</ele>
        <time>2020-10-19T10:52:57.000Z</time>
      </trkpt>
      <trkpt lat="48.21999" lon="-3.16158">
        <ele>140.80000305176</ele>
        <time>2020-10-19T10:52:58.000Z</time>
      </trkpt>
      <trkpt lat="48.21999" lon="-3.16159">
        <ele>140.60000610352</ele>
        <time>2020-10-19T10:52:59.000Z</time>
      </trkpt>
      <trkpt lat="48.22" lon="-3.1616">
        <ele>140.60000610352</ele>
        <time>2020-10-19T10:53:00.000Z</time>
      </trkpt>
      <trkpt lat="48.22001" lon="-3.16163">
        <ele>140.60000610352</ele>
        <time>2020-10-19T10:53:01.000Z</time>
      </trkpt>
      <trkpt lat="48.22001" lon="-3.16163">
        <ele>140.60000610352</ele>
        <time>2020-10-19T10:53:02.000Z</time>
      </trkpt>
      <trkpt lat="48.22001" lon="-3.16164">
        <ele>140.60000610352</ele>
        <time>2020-10-19T10:53:03.000Z</time>
      </trkpt>
      <trkpt lat="48.22002" lon="-3.16164">
        <ele>140.60000610352</ele>
        <time>2020-10-19T10:53:04.000Z</time>
      </trkpt>
      <trkpt lat="48.22002" lon="-3.16165">
        <ele>140.60000610352</ele>
        <time>2020-10-19T10:53:05.000Z</time>
      </trkpt>
      <trkpt lat="48.22003" lon="-3.16167">
        <ele>140.60000610352</ele>
        <time>2020-10-19T10:53:06.000Z</time>
      </trkpt>
      <trkpt lat="48.22003" lon="-3.16167">
        <ele>140.60000610352</ele>
        <time>2020-10-19T10:53:07.000Z</time>
      </trkpt>
      <trkpt lat="48.22003" lon="-3.16168">
        <ele>140.60000610352</ele>
        <time>2020-10-19T10:53:08.000Z</time>
      </trkpt>
      <trkpt lat="48.22003" lon="-3.16169">
        <ele>140.60000610352</ele>
        <time>2020-10-19T10:53:09.000Z</time>
      </trkpt>
      <trkpt lat="48.22004" lon="-3.1617">
        <ele>140.60000610352</ele>
        <time>2020-10-19T10:53:10.000Z</time>
      </trkpt>
      <trkpt lat="48.22004" lon="-3.16171">
        <ele>140.60000610352</ele>
        <time>2020-10-19T10:53:11.000Z</time>
      </trkpt>
      <trkpt lat="48.22004" lon="-3.16172">
        <ele>140.60000610352</ele>
        <time>2020-10-19T10:53:12.000Z</time>
      </trkpt>
      <trkpt lat="48.22004" lon="-3.16173">
        <ele>140.39999389648</ele>
        <time>2020-10-19T10:53:13.000Z</time>
      </trkpt>
      <trkpt lat="48.22005" lon="-3.16174">
        <ele>140.39999389648</ele>
        <time>2020-10-19T10:53:14.000Z</time>
      </trkpt>
      <trkpt lat="48.22005" lon="-3.16175">
        <ele>140.39999389648</ele>
        <time>2020-10-19T10:53:15.000Z</time>
      </trkpt>
      <trkpt lat="48.22006" lon="-3.16176">
        <ele>140.39999389648</ele>
        <time>2020-10-19T10:53:16.000Z</time>
      </trkpt>
      <trkpt lat="48.22006" lon="-3.16177">
        <ele>140.39999389648</ele>
        <time>2020-10-19T10:53:17.000Z</time>
      </trkpt>
      <trkpt lat="48.22007" lon="-3.16179">
        <ele>140.39999389648</ele>
        <time>2020-10-19T10:53:18.000Z</time>
      </trkpt>
      <trkpt lat="48.22007" lon="-3.1618">
        <ele>140.39999389648</ele>
        <time>2020-10-19T10:53:19.000Z</time>
      </trkpt>
      <trkpt lat="48.22008" lon="-3.16181">
        <ele>140.39999389648</ele>
        <time>2020-10-19T10:53:20.000Z</time>
      </trkpt>
      <trkpt lat="48.22008" lon="-3.16182">
        <ele>140.39999389648</ele>
        <time>2020-10-19T10:53:21.000Z</time>
      </trkpt>
      <trkpt lat="48.22009" lon="-3.16184">
        <ele>140.39999389648</ele>
        <time>2020-10-19T10:53:22.000Z</time>
      </trkpt>
      <trkpt lat="48.22009" lon="-3.16185">
        <ele>140.39999389648</ele>
        <time>2020-10-19T10:53:23.000Z</time>
      </trkpt>
      <trkpt lat="48.22009" lon="-3.16186">
        <ele>140.39999389648</ele>
        <time>2020-10-19T10:53:24.000Z</time>
      </trkpt>
      <trkpt lat="48.22009" lon="-3.16188">
        <ele>140.39999389648</ele>
        <time>2020-10-19T10:53:25.000Z</time>
      </trkpt>
      <trkpt lat="48.22009" lon="-3.16189">
        <ele>140.39999389648</ele>
        <time>2020-10-19T10:53:26.000Z</time>
      </trkpt>
      <trkpt lat="48.22009" lon="-3.16191">
        <ele>140.39999389648</ele>
        <time>2020-10-19T10:53:27.000Z</time>
      </trkpt>
      <trkpt lat="48.2201" lon="-3.16192">
        <ele>140.39999389648</ele>
        <time>2020-10-19T10:53:28.000Z</time>
      </trkpt>
      <trkpt lat="48.2201" lon="-3.16193">
        <ele>140.39999389648</ele>
        <time>2020-10-19T10:53:29.000Z</time>
      </trkpt>
      <trkpt lat="48.2201" lon="-3.16195">
        <ele>140.39999389648</ele>
        <time>2020-10-19T10:53:30.000Z</time>
      </trkpt>
      <trkpt lat="48.2201" lon="-3.16196">
        <ele>140.39999389648</ele>
        <time>2020-10-19T10:53:31.000Z</time>
      </trkpt>
      <trkpt lat="48.2201" lon="-3.16197">
        <ele>140.39999389648</ele>
        <time>2020-10-19T10:53:32.000Z</time>
      </trkpt>
      <trkpt lat="48.2201" lon="-3.16199">
        <ele>140.39999389648</ele>
        <time>2020-10-19T10:53:33.000Z</time>
      </trkpt>
      <trkpt lat="48.2201" lon="-3.162">
        <ele>140.39999389648</ele>
        <time>2020-10-19T10:53:34.000Z</time>
      </trkpt>
      <trkpt lat="48.22011" lon="-3.16201">
        <ele>140.39999389648</ele>
        <time>2020-10-19T10:53:35.000Z</time>
      </trkpt>
      <trkpt lat="48.22011" lon="-3.16203">
        <ele>140.39999389648</ele>
        <time>2020-10-19T10:53:36.000Z</time>
      </trkpt>
      <trkpt lat="48.22011" lon="-3.16204">
        <ele>140.39999389648</ele>
        <time>2020-10-19T10:53:37.000Z</time>
      </trkpt>
      <trkpt lat="48.22012" lon="-3.16206">
        <ele>140.39999389648</ele>
        <time>2020-10-19T10:53:38.000Z</time>
      </trkpt>
      <trkpt lat="48.22012" lon="-3.16207">
        <ele>140.39999389648</ele>
        <time>2020-10-19T10:53:39.000Z</time>
      </trkpt>
      <trkpt lat="48.22012" lon="-3.16209">
        <ele>140.39999389648</ele>
        <time>2020-10-19T10:53:40.000Z</time>
      </trkpt>
      <trkpt lat="48.22012" lon="-3.1621">
        <ele>140.39999389648</ele>
        <time>2020-10-19T10:53:41.000Z</time>
      </trkpt>
      <trkpt lat="48.22012" lon="-3.16211">
        <ele>140.39999389648</ele>
        <time>2020-10-19T10:53:42.000Z</time>
      </trkpt>
      <trkpt lat="48.22013" lon="-3.16213">
        <ele>140.60000610352</ele>
        <time>2020-10-19T10:53:43.000Z</time>
      </trkpt>
      <trkpt lat="48.22013" lon="-3.16215">
        <ele>140.60000610352</ele>
        <time>2020-10-19T10:53:44.000Z</time>
      </trkpt>
      <trkpt lat="48.22014" lon="-3.16216">
        <ele>140.80000305176</ele>
        <time>2020-10-19T10:53:45.000Z</time>
      </trkpt>
      <trkpt lat="48.22014" lon="-3.16217">
        <ele>140.80000305176</ele>
        <time>2020-10-19T10:53:46.000Z</time>
      </trkpt>
      <trkpt lat="48.22015" lon="-3.16219">
        <ele>140.80000305176</ele>
        <time>2020-10-19T10:53:47.000Z</time>
      </trkpt>
      <trkpt lat="48.22015" lon="-3.16221">
        <ele>141</ele>
        <time>2020-10-19T10:53:48.000Z</time>
      </trkpt>
      <trkpt lat="48.22014" lon="-3.16222">
        <ele>140.80000305176</ele>
        <time>2020-10-19T10:53:49.000Z</time>
      </trkpt>
      <trkpt lat="48.22013" lon="-3.16225">
        <ele>140.80000305176</ele>
        <time>2020-10-19T10:53:50.000Z</time>
      </trkpt>
      <trkpt lat="48.22013" lon="-3.16226">
        <ele>140.80000305176</ele>
        <time>2020-10-19T10:53:51.000Z</time>
      </trkpt>
      <trkpt lat="48.22013" lon="-3.16227">
        <ele>140.80000305176</ele>
        <time>2020-10-19T10:53:52.000Z</time>
      </trkpt>
      <trkpt lat="48.22013" lon="-3.16229">
        <ele>140.80000305176</ele>
        <time>2020-10-19T10:53:53.000Z</time>
      </trkpt>
      <trkpt lat="48.22014" lon="-3.16231">
        <ele>140.80000305176</ele>
        <time>2020-10-19T10:53:54.000Z</time>
      </trkpt>
      <trkpt lat="48.22014" lon="-3.16233">
        <ele>141</ele>
        <time>2020-10-19T10:53:55.000Z</time>
      </trkpt>
      <trkpt lat="48.22014" lon="-3.16235">
        <ele>141</ele>
        <time>2020-10-19T10:53:56.000Z</time>
      </trkpt>
      <trkpt lat="48.22014" lon="-3.16236">
        <ele>141</ele>
        <time>2020-10-19T10:53:57.000Z</time>
      </trkpt>
      <trkpt lat="48.22014" lon="-3.16238">
        <ele>141</ele>
        <time>2020-10-19T10:53:58.000Z</time>
      </trkpt>
      <trkpt lat="48.22013" lon="-3.1624">
        <ele>141</ele>
        <time>2020-10-19T10:53:59.000Z</time>
      </trkpt>
      <trkpt lat="48.22013" lon="-3.16243">
        <ele>141</ele>
        <time>2020-10-19T10:54:00.000Z</time>
      </trkpt>
      <trkpt lat="48.22013" lon="-3.16243">
        <ele>141</ele>
        <time>2020-10-19T10:54:01.000Z</time>
      </trkpt>
      <trkpt lat="48.22013" lon="-3.16245">
        <ele>141</ele>
        <time>2020-10-19T10:54:02.000Z</time>
      </trkpt>
      <trkpt lat="48.22013" lon="-3.16246">
        <ele>141</ele>
        <time>2020-10-19T10:54:03.000Z</time>
      </trkpt>
      <trkpt lat="48.22013" lon="-3.16248">
        <ele>141</ele>
        <time>2020-10-19T10:54:04.000Z</time>
      </trkpt>
      <trkpt lat="48.22012" lon="-3.16251">
        <ele>140.80000305176</ele>
        <time>2020-10-19T10:54:05.000Z</time>
      </trkpt>
      <trkpt lat="48.22011" lon="-3.16252">
        <ele>141</ele>
        <time>2020-10-19T10:54:06.000Z</time>
      </trkpt>
      <trkpt lat="48.22011" lon="-3.16254">
        <ele>141</ele>
        <time>2020-10-19T10:54:07.000Z</time>
      </trkpt>
      <trkpt lat="48.22011" lon="-3.16255">
        <ele>141</ele>
        <time>2020-10-19T10:54:08.000Z</time>
      </trkpt>
      <trkpt lat="48.22012" lon="-3.16257">
        <ele>141</ele>
        <time>2020-10-19T10:54:09.000Z</time>
      </trkpt>
      <trkpt lat="48.22012" lon="-3.16258">
        <ele>141</ele>
        <time>2020-10-19T10:54:10.000Z</time>
      </trkpt>
      <trkpt lat="48.22012" lon="-3.16259">
        <ele>141</ele>
        <time>2020-10-19T10:54:11.000Z</time>
      </trkpt>
      <trkpt lat="48.22012" lon="-3.16261">
        <ele>141</ele>
        <time>2020-10-19T10:54:12.000Z</time>
      </trkpt>
      <trkpt lat="48.22012" lon="-3.16263">
        <ele>141</ele>
        <time>2020-10-19T10:54:13.000Z</time>
      </trkpt>
      <trkpt lat="48.22012" lon="-3.16264">
        <ele>141</ele>
        <time>2020-10-19T10:54:14.000Z</time>
      </trkpt>
      <trkpt lat="48.22012" lon="-3.16265">
        <ele>141</ele>
        <time>2020-10-19T10:54:15.000Z</time>
      </trkpt>
      <trkpt lat="48.22012" lon="-3.16267">
        <ele>141</ele>
        <time>2020-10-19T10:54:16.000Z</time>
      </trkpt>
      <trkpt lat="48.22012" lon="-3.16268">
        <ele>141</ele>
        <time>2020-10-19T10:54:17.000Z</time>
      </trkpt>
      <trkpt lat="48.22012" lon="-3.1627">
        <ele>141</ele>
        <time>2020-10-19T10:54:18.000Z</time>
      </trkpt>
      <trkpt lat="48.22011" lon="-3.16271">
        <ele>141.19999694824</ele>
        <time>2020-10-19T10:54:19.000Z</time>
      </trkpt>
      <trkpt lat="48.2201" lon="-3.16273">
        <ele>141.19999694824</ele>
        <time>2020-10-19T10:54:20.000Z</time>
      </trkpt>
      <trkpt lat="48.2201" lon="-3.16275">
        <ele>141.19999694824</ele>
        <time>2020-10-19T10:54:21.000Z</time>
      </trkpt>
      <trkpt lat="48.22009" lon="-3.16277">
        <ele>141.19999694824</ele>
        <time>2020-10-19T10:54:22.000Z</time>
      </trkpt>
      <trkpt lat="48.22009" lon="-3.16279">
        <ele>141.39999389648</ele>
        <time>2020-10-19T10:54:23.000Z</time>
      </trkpt>
      <trkpt lat="48.22008" lon="-3.16281">
        <ele>141.39999389648</ele>
        <time>2020-10-19T10:54:24.000Z</time>
      </trkpt>
      <trkpt lat="48.22008" lon="-3.16282">
        <ele>141.39999389648</ele>
        <time>2020-10-19T10:54:25.000Z</time>
      </trkpt>
      <trkpt lat="48.22008" lon="-3.16284">
        <ele>141.39999389648</ele>
        <time>2020-10-19T10:54:26.000Z</time>
      </trkpt>
      <trkpt lat="48.22008" lon="-3.16286">
        <ele>141.39999389648</ele>
        <time>2020-10-19T10:54:27.000Z</time>
      </trkpt>
      <trkpt lat="48.22008" lon="-3.16288">
        <ele>141.39999389648</ele>
        <time>2020-10-19T10:54:28.000Z</time>
      </trkpt>
      <trkpt lat="48.22008" lon="-3.1629">
        <ele>141.39999389648</ele>
        <time>2020-10-19T10:54:29.000Z</time>
      </trkpt>
      <trkpt lat="48.22007" lon="-3.16291">
        <ele>141.39999389648</ele>
        <time>2020-10-19T10:54:30.000Z</time>
      </trkpt>
      <trkpt lat="48.22007" lon="-3.16293">
        <ele>141.39999389648</ele>
        <time>2020-10-19T10:54:31.000Z</time>
      </trkpt>
      <trkpt lat="48.22007" lon="-3.16295">
        <ele>141.39999389648</ele>
        <time>2020-10-19T10:54:32.000Z</time>
      </trkpt>
      <trkpt lat="48.22007" lon="-3.16297">
        <ele>141.39999389648</ele>
        <time>2020-10-19T10:54:33.000Z</time>
      </trkpt>
      <trkpt lat="48.22007" lon="-3.16298">
        <ele>141.60000610352</ele>
        <time>2020-10-19T10:54:34.000Z</time>
      </trkpt>
      <trkpt lat="48.22007" lon="-3.16301">
        <ele>141.60000610352</ele>
        <time>2020-10-19T10:54:35.000Z</time>
      </trkpt>
      <trkpt lat="48.22007" lon="-3.16302">
        <ele>141.39999389648</ele>
        <time>2020-10-19T10:54:36.000Z</time>
      </trkpt>
      <trkpt lat="48.22007" lon="-3.16304">
        <ele>141.60000610352</ele>
        <time>2020-10-19T10:54:37.000Z</time>
      </trkpt>
      <trkpt lat="48.22006" lon="-3.16306">
        <ele>141.60000610352</ele>
        <time>2020-10-19T10:54:38.000Z</time>
      </trkpt>
      <trkpt lat="48.22006" lon="-3.16307">
        <ele>141.60000610352</ele>
        <time>2020-10-19T10:54:39.000Z</time>
      </trkpt>
      <trkpt lat="48.22006" lon="-3.16309">
        <ele>141.60000610352</ele>
        <time>2020-10-19T10:54:40.000Z</time>
      </trkpt>
      <trkpt lat="48.22005" lon="-3.1631">
        <ele>141.60000610352</ele>
        <time>2020-10-19T10:54:41.000Z</time>
      </trkpt>
      <trkpt lat="48.22005" lon="-3.16312">
        <ele>141.60000610352</ele>
        <time>2020-10-19T10:54:42.000Z</time>
      </trkpt>
      <trkpt lat="48.22005" lon="-3.16313">
        <ele>141.80000305176</ele>
        <time>2020-10-19T10:54:43.000Z</time>
      </trkpt>
      <trkpt lat="48.22004" lon="-3.16315">
        <ele>141.80000305176</ele>
        <time>2020-10-19T10:54:44.000Z</time>
      </trkpt>
      <trkpt lat="48.22004" lon="-3.16317">
        <ele>141.80000305176</ele>
        <time>2020-10-19T10:54:45.000Z</time>
      </trkpt>
      <trkpt lat="48.22003" lon="-3.16318">
        <ele>141.80000305176</ele>
        <time>2020-10-19T10:54:46.000Z</time>
      </trkpt>
      <trkpt lat="48.22003" lon="-3.1632">
        <ele>142</ele>
        <time>2020-10-19T10:54:47.000Z</time>
      </trkpt>
      <trkpt lat="48.22002" lon="-3.16322">
        <ele>142</ele>
        <time>2020-10-19T10:54:48.000Z</time>
      </trkpt>
      <trkpt lat="48.22001" lon="-3.16323">
        <ele>142</ele>
        <time>2020-10-19T10:54:49.000Z</time>
      </trkpt>
      <trkpt lat="48.22001" lon="-3.16324">
        <ele>142</ele>
        <time>2020-10-19T10:54:50.000Z</time>
      </trkpt>
      <trkpt lat="48.22001" lon="-3.16325">
        <ele>142</ele>
        <time>2020-10-19T10:54:51.000Z</time>
      </trkpt>
      <trkpt lat="48.22" lon="-3.16327">
        <ele>142.19999694824</ele>
        <time>2020-10-19T10:54:52.000Z</time>
      </trkpt>
      <trkpt lat="48.22" lon="-3.16328">
        <ele>142.19999694824</ele>
        <time>2020-10-19T10:54:53.000Z</time>
      </trkpt>
      <trkpt lat="48.22" lon="-3.1633">
        <ele>142.19999694824</ele>
        <time>2020-10-19T10:54:54.000Z</time>
      </trkpt>
      <trkpt lat="48.21999" lon="-3.16331">
        <ele>142.19999694824</ele>
        <time>2020-10-19T10:54:55.000Z</time>
      </trkpt>
      <trkpt lat="48.21999" lon="-3.16333">
        <ele>142.19999694824</ele>
        <time>2020-10-19T10:54:56.000Z</time>
      </trkpt>
      <trkpt lat="48.21999" lon="-3.16334">
        <ele>142.19999694824</ele>
        <time>2020-10-19T10:54:57.000Z</time>
      </trkpt>
      <trkpt lat="48.21999" lon="-3.16336">
        <ele>142.19999694824</ele>
        <time>2020-10-19T10:54:58.000Z</time>
      </trkpt>
      <trkpt lat="48.21998" lon="-3.16337">
        <ele>142.39999389648</ele>
        <time>2020-10-19T10:54:59.000Z</time>
      </trkpt>
      <trkpt lat="48.21998" lon="-3.16339">
        <ele>142.39999389648</ele>
        <time>2020-10-19T10:55:00.000Z</time>
      </trkpt>
      <trkpt lat="48.21998" lon="-3.16342">
        <ele>142.39999389648</ele>
        <time>2020-10-19T10:55:01.000Z</time>
      </trkpt>
      <trkpt lat="48.21998" lon="-3.16344">
        <ele>142.39999389648</ele>
        <time>2020-10-19T10:55:02.000Z</time>
      </trkpt>
      <trkpt lat="48.21997" lon="-3.16346">
        <ele>142.39999389648</ele>
        <time>2020-10-19T10:55:03.000Z</time>
      </trkpt>
      <trkpt lat="48.21997" lon="-3.16349">
        <ele>142.39999389648</ele>
        <time>2020-10-19T10:55:04.000Z</time>
      </trkpt>
      <trkpt lat="48.21996" lon="-3.16351">
        <ele>142.39999389648</ele>
        <time>2020-10-19T10:55:05.000Z</time>
      </trkpt>
      <trkpt lat="48.21995" lon="-3.16352">
        <ele>142.60000610352</ele>
        <time>2020-10-19T10:55:06.000Z</time>
      </trkpt>
      <trkpt lat="48.21994" lon="-3.16354">
        <ele>142.60000610352</ele>
        <time>2020-10-19T10:55:07.000Z</time>
      </trkpt>
      <trkpt lat="48.21994" lon="-3.16356">
        <ele>142.60000610352</ele>
        <time>2020-10-19T10:55:08.000Z</time>
      </trkpt>
      <trkpt lat="48.21994" lon="-3.16357">
        <ele>142.60000610352</ele>
        <time>2020-10-19T10:55:09.000Z</time>
      </trkpt>
      <trkpt lat="48.21994" lon="-3.16358">
        <ele>142.60000610352</ele>
        <time>2020-10-19T10:55:10.000Z</time>
      </trkpt>
      <trkpt lat="48.21993" lon="-3.1636">
        <ele>142.60000610352</ele>
        <time>2020-10-19T10:55:11.000Z</time>
      </trkpt>
      <trkpt lat="48.21993" lon="-3.16361">
        <ele>142.60000610352</ele>
        <time>2020-10-19T10:55:12.000Z</time>
      </trkpt>
      <trkpt lat="48.21992" lon="-3.16364">
        <ele>142.60000610352</ele>
        <time>2020-10-19T10:55:13.000Z</time>
      </trkpt>
      <trkpt lat="48.21992" lon="-3.16364">
        <ele>142.60000610352</ele>
        <time>2020-10-19T10:55:14.000Z</time>
      </trkpt>
      <trkpt lat="48.21992" lon="-3.16365">
        <ele>142.60000610352</ele>
        <time>2020-10-19T10:55:15.000Z</time>
      </trkpt>
      <trkpt lat="48.21992" lon="-3.16367">
        <ele>142.60000610352</ele>
        <time>2020-10-19T10:55:16.000Z</time>
      </trkpt>
      <trkpt lat="48.21992" lon="-3.16369">
        <ele>142.60000610352</ele>
        <time>2020-10-19T10:55:17.000Z</time>
      </trkpt>
      <trkpt lat="48.21992" lon="-3.1637">
        <ele>142.60000610352</ele>
        <time>2020-10-19T10:55:18.000Z</time>
      </trkpt>
      <trkpt lat="48.21992" lon="-3.16371">
        <ele>142.60000610352</ele>
        <time>2020-10-19T10:55:19.000Z</time>
      </trkpt>
      <trkpt lat="48.21992" lon="-3.16373">
        <ele>142.60000610352</ele>
        <time>2020-10-19T10:55:20.000Z</time>
      </trkpt>
      <trkpt lat="48.21992" lon="-3.16374">
        <ele>142.60000610352</ele>
        <time>2020-10-19T10:55:21.000Z</time>
      </trkpt>
      <trkpt lat="48.21992" lon="-3.16375">
        <ele>142.60000610352</ele>
        <time>2020-10-19T10:55:22.000Z</time>
      </trkpt>
      <trkpt lat="48.21992" lon="-3.16376">
        <ele>142.60000610352</ele>
        <time>2020-10-19T10:55:23.000Z</time>
      </trkpt>
      <trkpt lat="48.21992" lon="-3.16378">
        <ele>142.60000610352</ele>
        <time>2020-10-19T10:55:24.000Z</time>
      </trkpt>
      <trkpt lat="48.21992" lon="-3.16379">
        <ele>142.60000610352</ele>
        <time>2020-10-19T10:55:25.000Z</time>
      </trkpt>
      <trkpt lat="48.21991" lon="-3.1638">
        <ele>142.60000610352</ele>
        <time>2020-10-19T10:55:26.000Z</time>
      </trkpt>
      <trkpt lat="48.21991" lon="-3.16381">
        <ele>142.60000610352</ele>
        <time>2020-10-19T10:55:27.000Z</time>
      </trkpt>
      <trkpt lat="48.21991" lon="-3.16383">
        <ele>142.60000610352</ele>
        <time>2020-10-19T10:55:28.000Z</time>
      </trkpt>
      <trkpt lat="48.21991" lon="-3.16384">
        <ele>142.60000610352</ele>
        <time>2020-10-19T10:55:29.000Z</time>
      </trkpt>
      <trkpt lat="48.21991" lon="-3.16385">
        <ele>142.60000610352</ele>
        <time>2020-10-19T10:55:30.000Z</time>
      </trkpt>
      <trkpt lat="48.2199" lon="-3.16386">
        <ele>142.60000610352</ele>
        <time>2020-10-19T10:55:31.000Z</time>
      </trkpt>
      <trkpt lat="48.2199" lon="-3.16388">
        <ele>142.60000610352</ele>
        <time>2020-10-19T10:55:32.000Z</time>
      </trkpt>
      <trkpt lat="48.2199" lon="-3.1639">
        <ele>142.60000610352</ele>
        <time>2020-10-19T10:55:33.000Z</time>
      </trkpt>
      <trkpt lat="48.21989" lon="-3.16391">
        <ele>142.60000610352</ele>
        <time>2020-10-19T10:55:34.000Z</time>
      </trkpt>
      <trkpt lat="48.21988" lon="-3.16392">
        <ele>142.60000610352</ele>
        <time>2020-10-19T10:55:35.000Z</time>
      </trkpt>
      <trkpt lat="48.21988" lon="-3.16394">
        <ele>142.80000305176</ele>
        <time>2020-10-19T10:55:36.000Z</time>
      </trkpt>
      <trkpt lat="48.21987" lon="-3.16395">
        <ele>142.80000305176</ele>
        <time>2020-10-19T10:55:37.000Z</time>
      </trkpt>
      <trkpt lat="48.21986" lon="-3.16397">
        <ele>142.80000305176</ele>
        <time>2020-10-19T10:55:38.000Z</time>
      </trkpt>
      <trkpt lat="48.21985" lon="-3.16398">
        <ele>143</ele>
        <time>2020-10-19T10:55:39.000Z</time>
      </trkpt>
      <trkpt lat="48.21984" lon="-3.164">
        <ele>143</ele>
        <time>2020-10-19T10:55:40.000Z</time>
      </trkpt>
      <trkpt lat="48.21984" lon="-3.16402">
        <ele>143</ele>
        <time>2020-10-19T10:55:41.000Z</time>
      </trkpt>
      <trkpt lat="48.21983" lon="-3.16403">
        <ele>143.19999694824</ele>
        <time>2020-10-19T10:55:42.000Z</time>
      </trkpt>
      <trkpt lat="48.21982" lon="-3.16405">
        <ele>143.19999694824</ele>
        <time>2020-10-19T10:55:43.000Z</time>
      </trkpt>
      <trkpt lat="48.21981" lon="-3.16406">
        <ele>143.19999694824</ele>
        <time>2020-10-19T10:55:44.000Z</time>
      </trkpt>
      <trkpt lat="48.21981" lon="-3.16407">
        <ele>143.19999694824</ele>
        <time>2020-10-19T10:55:45.000Z</time>
      </trkpt>
      <trkpt lat="48.21979" lon="-3.1641">
        <ele>143.39999389648</ele>
        <time>2020-10-19T10:55:46.000Z</time>
      </trkpt>
      <trkpt lat="48.21979" lon="-3.1641">
        <ele>143.39999389648</ele>
        <time>2020-10-19T10:55:47.000Z</time>
      </trkpt>
      <trkpt lat="48.21979" lon="-3.16412">
        <ele>143.39999389648</ele>
        <time>2020-10-19T10:55:48.000Z</time>
      </trkpt>
      <trkpt lat="48.21978" lon="-3.16414">
        <ele>143.39999389648</ele>
        <time>2020-10-19T10:55:49.000Z</time>
      </trkpt>
      <trkpt lat="48.21977" lon="-3.16416">
        <ele>143.60000610352</ele>
        <time>2020-10-19T10:55:50.000Z</time>
      </trkpt>
      <trkpt lat="48.21976" lon="-3.16417">
        <ele>143.60000610352</ele>
        <time>2020-10-19T10:55:51.000Z</time>
      </trkpt>
      <trkpt lat="48.21975" lon="-3.16419">
        <ele>143.60000610352</ele>
        <time>2020-10-19T10:55:52.000Z</time>
      </trkpt>
      <trkpt lat="48.21974" lon="-3.1642">
        <ele>143.80000305176</ele>
        <time>2020-10-19T10:55:53.000Z</time>
      </trkpt>
      <trkpt lat="48.21973" lon="-3.16421">
        <ele>143.80000305176</ele>
        <time>2020-10-19T10:55:54.000Z</time>
      </trkpt>
      <trkpt lat="48.21973" lon="-3.16422">
        <ele>143.80000305176</ele>
        <time>2020-10-19T10:55:55.000Z</time>
      </trkpt>
      <trkpt lat="48.21971" lon="-3.16424">
        <ele>144</ele>
        <time>2020-10-19T10:55:56.000Z</time>
      </trkpt>
      <trkpt lat="48.2197" lon="-3.16427">
        <ele>144</ele>
        <time>2020-10-19T10:55:57.000Z</time>
      </trkpt>
      <trkpt lat="48.2197" lon="-3.16427">
        <ele>144</ele>
        <time>2020-10-19T10:55:58.000Z</time>
      </trkpt>
      <trkpt lat="48.21969" lon="-3.16428">
        <ele>144</ele>
        <time>2020-10-19T10:55:59.000Z</time>
      </trkpt>
      <trkpt lat="48.21968" lon="-3.1643">
        <ele>144</ele>
        <time>2020-10-19T10:56:00.000Z</time>
      </trkpt>
      <trkpt lat="48.21967" lon="-3.16431">
        <ele>144</ele>
        <time>2020-10-19T10:56:01.000Z</time>
      </trkpt>
      <trkpt lat="48.21967" lon="-3.16433">
        <ele>144</ele>
        <time>2020-10-19T10:56:02.000Z</time>
      </trkpt>
      <trkpt lat="48.21966" lon="-3.16434">
        <ele>144</ele>
        <time>2020-10-19T10:56:03.000Z</time>
      </trkpt>
      <trkpt lat="48.21965" lon="-3.16436">
        <ele>144</ele>
        <time>2020-10-19T10:56:04.000Z</time>
      </trkpt>
      <trkpt lat="48.21963" lon="-3.16437">
        <ele>144.19999694824</ele>
        <time>2020-10-19T10:56:05.000Z</time>
      </trkpt>
      <trkpt lat="48.21962" lon="-3.16438">
        <ele>144.19999694824</ele>
        <time>2020-10-19T10:56:06.000Z</time>
      </trkpt>
      <trkpt lat="48.21961" lon="-3.1644">
        <ele>144.19999694824</ele>
        <time>2020-10-19T10:56:07.000Z</time>
      </trkpt>
      <trkpt lat="48.2196" lon="-3.16442">
        <ele>144</ele>
        <time>2020-10-19T10:56:08.000Z</time>
      </trkpt>
      <trkpt lat="48.2196" lon="-3.16444">
        <ele>144</ele>
        <time>2020-10-19T10:56:09.000Z</time>
      </trkpt>
      <trkpt lat="48.21959" lon="-3.16446">
        <ele>144</ele>
        <time>2020-10-19T10:56:10.000Z</time>
      </trkpt>
      <trkpt lat="48.21958" lon="-3.16447">
        <ele>144</ele>
        <time>2020-10-19T10:56:11.000Z</time>
      </trkpt>
      <trkpt lat="48.21957" lon="-3.16449">
        <ele>144</ele>
        <time>2020-10-19T10:56:12.000Z</time>
      </trkpt>
      <trkpt lat="48.21956" lon="-3.1645">
        <ele>144</ele>
        <time>2020-10-19T10:56:13.000Z</time>
      </trkpt>
      <trkpt lat="48.21955" lon="-3.16451">
        <ele>144</ele>
        <time>2020-10-19T10:56:14.000Z</time>
      </trkpt>
      <trkpt lat="48.21954" lon="-3.16453">
        <ele>144</ele>
        <time>2020-10-19T10:56:15.000Z</time>
      </trkpt>
      <trkpt lat="48.21953" lon="-3.16454">
        <ele>144</ele>
        <time>2020-10-19T10:56:16.000Z</time>
      </trkpt>
      <trkpt lat="48.21952" lon="-3.16455">
        <ele>144</ele>
        <time>2020-10-19T10:56:17.000Z</time>
      </trkpt>
      <trkpt lat="48.21952" lon="-3.16457">
        <ele>144</ele>
        <time>2020-10-19T10:56:18.000Z</time>
      </trkpt>
      <trkpt lat="48.21951" lon="-3.16458">
        <ele>144</ele>
        <time>2020-10-19T10:56:19.000Z</time>
      </trkpt>
      <trkpt lat="48.21951" lon="-3.16459">
        <ele>144</ele>
        <time>2020-10-19T10:56:20.000Z</time>
      </trkpt>
      <trkpt lat="48.2195" lon="-3.16459">
        <ele>144</ele>
        <time>2020-10-19T10:56:21.000Z</time>
      </trkpt>
      <trkpt lat="48.21949" lon="-3.1646">
        <ele>144</ele>
        <time>2020-10-19T10:56:22.000Z</time>
      </trkpt>
      <trkpt lat="48.21948" lon="-3.16461">
        <ele>144</ele>
        <time>2020-10-19T10:56:23.000Z</time>
      </trkpt>
      <trkpt lat="48.21948" lon="-3.16463">
        <ele>144</ele>
        <time>2020-10-19T10:56:24.000Z</time>
      </trkpt>
      <trkpt lat="48.21947" lon="-3.16464">
        <ele>144</ele>
        <time>2020-10-19T10:56:25.000Z</time>
      </trkpt>
      <trkpt lat="48.21946" lon="-3.16466">
        <ele>144</ele>
        <time>2020-10-19T10:56:26.000Z</time>
      </trkpt>
      <trkpt lat="48.21945" lon="-3.16467">
        <ele>144</ele>
        <time>2020-10-19T10:56:27.000Z</time>
      </trkpt>
      <trkpt lat="48.21944" lon="-3.16469">
        <ele>144</ele>
        <time>2020-10-19T10:56:28.000Z</time>
      </trkpt>
      <trkpt lat="48.21943" lon="-3.1647">
        <ele>144</ele>
        <time>2020-10-19T10:56:29.000Z</time>
      </trkpt>
      <trkpt lat="48.21943" lon="-3.16471">
        <ele>144</ele>
        <time>2020-10-19T10:56:30.000Z</time>
      </trkpt>
      <trkpt lat="48.21942" lon="-3.16472">
        <ele>144</ele>
        <time>2020-10-19T10:56:31.000Z</time>
      </trkpt>
      <trkpt lat="48.21942" lon="-3.16474">
        <ele>144</ele>
        <time>2020-10-19T10:56:32.000Z</time>
      </trkpt>
      <trkpt lat="48.21941" lon="-3.16475">
        <ele>144</ele>
        <time>2020-10-19T10:56:33.000Z</time>
      </trkpt>
      <trkpt lat="48.21941" lon="-3.16476">
        <ele>144</ele>
        <time>2020-10-19T10:56:34.000Z</time>
      </trkpt>
      <trkpt lat="48.2194" lon="-3.16478">
        <ele>144</ele>
        <time>2020-10-19T10:56:35.000Z</time>
      </trkpt>
      <trkpt lat="48.21939" lon="-3.16479">
        <ele>144</ele>
        <time>2020-10-19T10:56:36.000Z</time>
      </trkpt>
      <trkpt lat="48.21939" lon="-3.16481">
        <ele>143.80000305176</ele>
        <time>2020-10-19T10:56:37.000Z</time>
      </trkpt>
      <trkpt lat="48.21938" lon="-3.16482">
        <ele>143.80000305176</ele>
        <time>2020-10-19T10:56:38.000Z</time>
      </trkpt>
      <trkpt lat="48.21936" lon="-3.16485">
        <ele>143.80000305176</ele>
        <time>2020-10-19T10:56:39.000Z</time>
      </trkpt>
      <trkpt lat="48.21936" lon="-3.16485">
        <ele>143.80000305176</ele>
        <time>2020-10-19T10:56:40.000Z</time>
      </trkpt>
      <trkpt lat="48.21935" lon="-3.16488">
        <ele>143.80000305176</ele>
        <time>2020-10-19T10:56:41.000Z</time>
      </trkpt>
      <trkpt lat="48.21935" lon="-3.16489">
        <ele>143.80000305176</ele>
        <time>2020-10-19T10:56:42.000Z</time>
      </trkpt>
      <trkpt lat="48.21934" lon="-3.16491">
        <ele>143.60000610352</ele>
        <time>2020-10-19T10:56:43.000Z</time>
      </trkpt>
      <trkpt lat="48.21934" lon="-3.16492">
        <ele>143.60000610352</ele>
        <time>2020-10-19T10:56:44.000Z</time>
      </trkpt>
      <trkpt lat="48.21934" lon="-3.16494">
        <ele>143.60000610352</ele>
        <time>2020-10-19T10:56:45.000Z</time>
      </trkpt>
      <trkpt lat="48.21933" lon="-3.16495">
        <ele>143.60000610352</ele>
        <time>2020-10-19T10:56:46.000Z</time>
      </trkpt>
      <trkpt lat="48.21933" lon="-3.16495">
        <ele>143.60000610352</ele>
        <time>2020-10-19T10:56:47.000Z</time>
      </trkpt>
      <trkpt lat="48.21933" lon="-3.16496">
        <ele>143.39999389648</ele>
        <time>2020-10-19T10:56:48.000Z</time>
      </trkpt>
      <trkpt lat="48.21932" lon="-3.16497">
        <ele>143.39999389648</ele>
        <time>2020-10-19T10:56:49.000Z</time>
      </trkpt>
      <trkpt lat="48.21932" lon="-3.16498">
        <ele>143.39999389648</ele>
        <time>2020-10-19T10:56:50.000Z</time>
      </trkpt>
      <trkpt lat="48.21932" lon="-3.165">
        <ele>143.39999389648</ele>
        <time>2020-10-19T10:56:51.000Z</time>
      </trkpt>
      <trkpt lat="48.21931" lon="-3.16501">
        <ele>143.39999389648</ele>
        <time>2020-10-19T10:56:52.000Z</time>
      </trkpt>
      <trkpt lat="48.2193" lon="-3.16502">
        <ele>143.39999389648</ele>
        <time>2020-10-19T10:56:53.000Z</time>
      </trkpt>
      <trkpt lat="48.2193" lon="-3.16503">
        <ele>143.39999389648</ele>
        <time>2020-10-19T10:56:54.000Z</time>
      </trkpt>
      <trkpt lat="48.21929" lon="-3.16503">
        <ele>143.39999389648</ele>
        <time>2020-10-19T10:56:55.000Z</time>
      </trkpt>
      <trkpt lat="48.21929" lon="-3.16504">
        <ele>143.39999389648</ele>
        <time>2020-10-19T10:56:56.000Z</time>
      </trkpt>
      <trkpt lat="48.21928" lon="-3.16504">
        <ele>143.60000610352</ele>
        <time>2020-10-19T10:56:57.000Z</time>
      </trkpt>
      <trkpt lat="48.21928" lon="-3.16505">
        <ele>143.60000610352</ele>
        <time>2020-10-19T10:56:58.000Z</time>
      </trkpt>
      <trkpt lat="48.21928" lon="-3.16505">
        <ele>143.60000610352</ele>
        <time>2020-10-19T10:56:59.000Z</time>
      </trkpt>
      <trkpt lat="48.21927" lon="-3.16505">
        <ele>143.60000610352</ele>
        <time>2020-10-19T10:57:00.000Z</time>
      </trkpt>
      <trkpt lat="48.21928" lon="-3.16505">
        <ele>143.60000610352</ele>
        <time>2020-10-19T10:57:01.000Z</time>
      </trkpt>
      <trkpt lat="48.21928" lon="-3.16505">
        <ele>143.60000610352</ele>
        <time>2020-10-19T10:57:02.000Z</time>
      </trkpt>
      <trkpt lat="48.21928" lon="-3.16506">
        <ele>143.60000610352</ele>
        <time>2020-10-19T10:57:03.000Z</time>
      </trkpt>
      <trkpt lat="48.21928" lon="-3.16505">
        <ele>143.39999389648</ele>
        <time>2020-10-19T10:57:04.000Z</time>
      </trkpt>
      <trkpt lat="48.21929" lon="-3.16505">
        <ele>143.39999389648</ele>
        <time>2020-10-19T10:57:05.000Z</time>
      </trkpt>
      <trkpt lat="48.21929" lon="-3.16505">
        <ele>143.39999389648</ele>
        <time>2020-10-19T10:57:06.000Z</time>
      </trkpt>
      <trkpt lat="48.21929" lon="-3.16506">
        <ele>143.39999389648</ele>
        <time>2020-10-19T10:57:07.000Z</time>
      </trkpt>
      <trkpt lat="48.21928" lon="-3.16506">
        <ele>143.39999389648</ele>
        <time>2020-10-19T10:57:08.000Z</time>
      </trkpt>
      <trkpt lat="48.21928" lon="-3.16506">
        <ele>143.39999389648</ele>
        <time>2020-10-19T10:57:09.000Z</time>
      </trkpt>
      <trkpt lat="48.21928" lon="-3.16507">
        <ele>143.39999389648</ele>
        <time>2020-10-19T10:57:10.000Z</time>
      </trkpt>
      <trkpt lat="48.21929" lon="-3.16507">
        <ele>143.19999694824</ele>
        <time>2020-10-19T10:57:11.000Z</time>
      </trkpt>
      <trkpt lat="48.21928" lon="-3.16508">
        <ele>143.19999694824</ele>
        <time>2020-10-19T10:57:12.000Z</time>
      </trkpt>
      <trkpt lat="48.21928" lon="-3.16508">
        <ele>143.19999694824</ele>
        <time>2020-10-19T10:57:13.000Z</time>
      </trkpt>
      <trkpt lat="48.21928" lon="-3.1651">
        <ele>143.19999694824</ele>
        <time>2020-10-19T10:57:14.000Z</time>
      </trkpt>
      <trkpt lat="48.21928" lon="-3.16511">
        <ele>143.39999389648</ele>
        <time>2020-10-19T10:57:15.000Z</time>
      </trkpt>
      <trkpt lat="48.21927" lon="-3.16512">
        <ele>143.60000610352</ele>
        <time>2020-10-19T10:57:16.000Z</time>
      </trkpt>
      <trkpt lat="48.21926" lon="-3.16514">
        <ele>143.80000305176</ele>
        <time>2020-10-19T10:57:17.000Z</time>
      </trkpt>
      <trkpt lat="48.21925" lon="-3.16515">
        <ele>143.80000305176</ele>
        <time>2020-10-19T10:57:18.000Z</time>
      </trkpt>
      <trkpt lat="48.21924" lon="-3.16516">
        <ele>144</ele>
        <time>2020-10-19T10:57:19.000Z</time>
      </trkpt>
      <trkpt lat="48.21924" lon="-3.16518">
        <ele>144.19999694824</ele>
        <time>2020-10-19T10:57:20.000Z</time>
      </trkpt>
      <trkpt lat="48.21923" lon="-3.16519">
        <ele>144.19999694824</ele>
        <time>2020-10-19T10:57:21.000Z</time>
      </trkpt>
      <trkpt lat="48.21922" lon="-3.16521">
        <ele>144.39999389648</ele>
        <time>2020-10-19T10:57:22.000Z</time>
      </trkpt>
      <trkpt lat="48.21921" lon="-3.16523">
        <ele>144.60000610352</ele>
        <time>2020-10-19T10:57:23.000Z</time>
      </trkpt>
      <trkpt lat="48.21921" lon="-3.16524">
        <ele>144.60000610352</ele>
        <time>2020-10-19T10:57:24.000Z</time>
      </trkpt>
      <trkpt lat="48.2192" lon="-3.16525">
        <ele>144.80000305176</ele>
        <time>2020-10-19T10:57:25.000Z</time>
      </trkpt>
      <trkpt lat="48.2192" lon="-3.16526">
        <ele>144.80000305176</ele>
        <time>2020-10-19T10:57:26.000Z</time>
      </trkpt>
      <trkpt lat="48.21919" lon="-3.16528">
        <ele>145</ele>
        <time>2020-10-19T10:57:27.000Z</time>
      </trkpt>
      <trkpt lat="48.21918" lon="-3.16529">
        <ele>145.19999694824</ele>
        <time>2020-10-19T10:57:28.000Z</time>
      </trkpt>
      <trkpt lat="48.21917" lon="-3.1653">
        <ele>145.39999389648</ele>
        <time>2020-10-19T10:57:29.000Z</time>
      </trkpt>
      <trkpt lat="48.21917" lon="-3.16531">
        <ele>145.39999389648</ele>
        <time>2020-10-19T10:57:30.000Z</time>
      </trkpt>
      <trkpt lat="48.21916" lon="-3.16532">
        <ele>145.60000610352</ele>
        <time>2020-10-19T10:57:31.000Z</time>
      </trkpt>
      <trkpt lat="48.21916" lon="-3.16533">
        <ele>145.60000610352</ele>
        <time>2020-10-19T10:57:32.000Z</time>
      </trkpt>
      <trkpt lat="48.21915" lon="-3.16534">
        <ele>145.60000610352</ele>
        <time>2020-10-19T10:57:33.000Z</time>
      </trkpt>
      <trkpt lat="48.21915" lon="-3.16535">
        <ele>145.60000610352</ele>
        <time>2020-10-19T10:57:34.000Z</time>
      </trkpt>
      <trkpt lat="48.21915" lon="-3.16535">
        <ele>145.80000305176</ele>
        <time>2020-10-19T10:57:35.000Z</time>
      </trkpt>
      <trkpt lat="48.21915" lon="-3.16536">
        <ele>145.60000610352</ele>
        <time>2020-10-19T10:57:36.000Z</time>
      </trkpt>
      <trkpt lat="48.21915" lon="-3.16537">
        <ele>145.60000610352</ele>
        <time>2020-10-19T10:57:37.000Z</time>
      </trkpt>
      <trkpt lat="48.21915" lon="-3.16538">
        <ele>145.60000610352</ele>
        <time>2020-10-19T10:57:38.000Z</time>
      </trkpt>
      <trkpt lat="48.21915" lon="-3.16539">
        <ele>145.60000610352</ele>
        <time>2020-10-19T10:57:39.000Z</time>
      </trkpt>
      <trkpt lat="48.21915" lon="-3.1654">
        <ele>145.60000610352</ele>
        <time>2020-10-19T10:57:40.000Z</time>
      </trkpt>
      <trkpt lat="48.21914" lon="-3.16541">
        <ele>145.80000305176</ele>
        <time>2020-10-19T10:57:41.000Z</time>
      </trkpt>
      <trkpt lat="48.21914" lon="-3.16542">
        <ele>145.80000305176</ele>
        <time>2020-10-19T10:57:42.000Z</time>
      </trkpt>
      <trkpt lat="48.21913" lon="-3.16544">
        <ele>146</ele>
        <time>2020-10-19T10:57:43.000Z</time>
      </trkpt>
      <trkpt lat="48.21913" lon="-3.16545">
        <ele>145.80000305176</ele>
        <time>2020-10-19T10:57:44.000Z</time>
      </trkpt>
      <trkpt lat="48.21913" lon="-3.16546">
        <ele>145.80000305176</ele>
        <time>2020-10-19T10:57:45.000Z</time>
      </trkpt>
      <trkpt lat="48.21913" lon="-3.16548">
        <ele>145.80000305176</ele>
        <time>2020-10-19T10:57:46.000Z</time>
      </trkpt>
      <trkpt lat="48.21913" lon="-3.16549">
        <ele>145.80000305176</ele>
        <time>2020-10-19T10:57:47.000Z</time>
      </trkpt>
      <trkpt lat="48.21913" lon="-3.1655">
        <ele>145.80000305176</ele>
        <time>2020-10-19T10:57:48.000Z</time>
      </trkpt>
      <trkpt lat="48.21912" lon="-3.16551">
        <ele>145.80000305176</ele>
        <time>2020-10-19T10:57:49.000Z</time>
      </trkpt>
      <trkpt lat="48.21912" lon="-3.16552">
        <ele>145.80000305176</ele>
        <time>2020-10-19T10:57:50.000Z</time>
      </trkpt>
      <trkpt lat="48.21912" lon="-3.16554">
        <ele>145.80000305176</ele>
        <time>2020-10-19T10:57:51.000Z</time>
      </trkpt>
      <trkpt lat="48.21912" lon="-3.16555">
        <ele>145.80000305176</ele>
        <time>2020-10-19T10:57:52.000Z</time>
      </trkpt>
      <trkpt lat="48.21912" lon="-3.16555">
        <ele>145.80000305176</ele>
        <time>2020-10-19T10:57:53.000Z</time>
      </trkpt>
      <trkpt lat="48.21911" lon="-3.16556">
        <ele>145.80000305176</ele>
        <time>2020-10-19T10:57:54.000Z</time>
      </trkpt>
      <trkpt lat="48.21911" lon="-3.16557">
        <ele>145.80000305176</ele>
        <time>2020-10-19T10:57:55.000Z</time>
      </trkpt>
      <trkpt lat="48.21911" lon="-3.16559">
        <ele>145.80000305176</ele>
        <time>2020-10-19T10:57:56.000Z</time>
      </trkpt>
      <trkpt lat="48.21911" lon="-3.1656">
        <ele>145.80000305176</ele>
        <time>2020-10-19T10:57:57.000Z</time>
      </trkpt>
      <trkpt lat="48.21911" lon="-3.16561">
        <ele>145.80000305176</ele>
        <time>2020-10-19T10:57:58.000Z</time>
      </trkpt>
      <trkpt lat="48.2191" lon="-3.16562">
        <ele>145.80000305176</ele>
        <time>2020-10-19T10:57:59.000Z</time>
      </trkpt>
      <trkpt lat="48.2191" lon="-3.16563">
        <ele>146</ele>
        <time>2020-10-19T10:58:00.000Z</time>
      </trkpt>
      <trkpt lat="48.2191" lon="-3.16564">
        <ele>146</ele>
        <time>2020-10-19T10:58:01.000Z</time>
      </trkpt>
      <trkpt lat="48.21909" lon="-3.16565">
        <ele>146</ele>
        <time>2020-10-19T10:58:02.000Z</time>
      </trkpt>
      <trkpt lat="48.21909" lon="-3.16567">
        <ele>146</ele>
        <time>2020-10-19T10:58:03.000Z</time>
      </trkpt>
      <trkpt lat="48.21908" lon="-3.16569">
        <ele>146.19999694824</ele>
        <time>2020-10-19T10:58:04.000Z</time>
      </trkpt>
      <trkpt lat="48.21908" lon="-3.1657">
        <ele>146.19999694824</ele>
        <time>2020-10-19T10:58:05.000Z</time>
      </trkpt>
      <trkpt lat="48.21908" lon="-3.16572">
        <ele>146.19999694824</ele>
        <time>2020-10-19T10:58:06.000Z</time>
      </trkpt>
      <trkpt lat="48.21907" lon="-3.16573">
        <ele>146.19999694824</ele>
        <time>2020-10-19T10:58:07.000Z</time>
      </trkpt>
      <trkpt lat="48.21907" lon="-3.16575">
        <ele>146.19999694824</ele>
        <time>2020-10-19T10:58:08.000Z</time>
      </trkpt>
      <trkpt lat="48.21907" lon="-3.16576">
        <ele>146.19999694824</ele>
        <time>2020-10-19T10:58:09.000Z</time>
      </trkpt>
      <trkpt lat="48.21906" lon="-3.16578">
        <ele>146.19999694824</ele>
        <time>2020-10-19T10:58:10.000Z</time>
      </trkpt>
      <trkpt lat="48.21906" lon="-3.16579">
        <ele>146.19999694824</ele>
        <time>2020-10-19T10:58:11.000Z</time>
      </trkpt>
      <trkpt lat="48.21906" lon="-3.16581">
        <ele>146.19999694824</ele>
        <time>2020-10-19T10:58:12.000Z</time>
      </trkpt>
      <trkpt lat="48.21906" lon="-3.16582">
        <ele>146</ele>
        <time>2020-10-19T10:58:13.000Z</time>
      </trkpt>
      <trkpt lat="48.21906" lon="-3.16584">
        <ele>146</ele>
        <time>2020-10-19T10:58:14.000Z</time>
      </trkpt>
      <trkpt lat="48.21906" lon="-3.16585">
        <ele>146</ele>
        <time>2020-10-19T10:58:15.000Z</time>
      </trkpt>
      <trkpt lat="48.21906" lon="-3.16587">
        <ele>146</ele>
        <time>2020-10-19T10:58:16.000Z</time>
      </trkpt>
      <trkpt lat="48.21906" lon="-3.16588">
        <ele>146</ele>
        <time>2020-10-19T10:58:17.000Z</time>
      </trkpt>
      <trkpt lat="48.21906" lon="-3.16589">
        <ele>145.80000305176</ele>
        <time>2020-10-19T10:58:18.000Z</time>
      </trkpt>
      <trkpt lat="48.21906" lon="-3.16591">
        <ele>145.80000305176</ele>
        <time>2020-10-19T10:58:19.000Z</time>
      </trkpt>
      <trkpt lat="48.21906" lon="-3.16593">
        <ele>145.80000305176</ele>
        <time>2020-10-19T10:58:20.000Z</time>
      </trkpt>
      <trkpt lat="48.21906" lon="-3.16594">
        <ele>145.60000610352</ele>
        <time>2020-10-19T10:58:21.000Z</time>
      </trkpt>
      <trkpt lat="48.21905" lon="-3.16596">
        <ele>145.80000305176</ele>
        <time>2020-10-19T10:58:22.000Z</time>
      </trkpt>
      <trkpt lat="48.21905" lon="-3.16597">
        <ele>145.80000305176</ele>
        <time>2020-10-19T10:58:23.000Z</time>
      </trkpt>
      <trkpt lat="48.21905" lon="-3.16599">
        <ele>145.80000305176</ele>
        <time>2020-10-19T10:58:24.000Z</time>
      </trkpt>
      <trkpt lat="48.21905" lon="-3.166">
        <ele>146</ele>
        <time>2020-10-19T10:58:25.000Z</time>
      </trkpt>
      <trkpt lat="48.21904" lon="-3.16602">
        <ele>146</ele>
        <time>2020-10-19T10:58:26.000Z</time>
      </trkpt>
      <trkpt lat="48.21905" lon="-3.16604">
        <ele>146</ele>
        <time>2020-10-19T10:58:27.000Z</time>
      </trkpt>
      <trkpt lat="48.21904" lon="-3.16606">
        <ele>146</ele>
        <time>2020-10-19T10:58:28.000Z</time>
      </trkpt>
      <trkpt lat="48.21904" lon="-3.16609">
        <ele>146.19999694824</ele>
        <time>2020-10-19T10:58:29.000Z</time>
      </trkpt>
      <trkpt lat="48.21904" lon="-3.16611">
        <ele>146.19999694824</ele>
        <time>2020-10-19T10:58:30.000Z</time>
      </trkpt>
      <trkpt lat="48.21904" lon="-3.16613">
        <ele>146.19999694824</ele>
        <time>2020-10-19T10:58:31.000Z</time>
      </trkpt>
      <trkpt lat="48.21904" lon="-3.16614">
        <ele>146.19999694824</ele>
        <time>2020-10-19T10:58:32.000Z</time>
      </trkpt>
      <trkpt lat="48.21904" lon="-3.16617">
        <ele>146.19999694824</ele>
        <time>2020-10-19T10:58:33.000Z</time>
      </trkpt>
      <trkpt lat="48.21904" lon="-3.16617">
        <ele>146.19999694824</ele>
        <time>2020-10-19T10:58:34.000Z</time>
      </trkpt>
      <trkpt lat="48.21903" lon="-3.16619">
        <ele>146.19999694824</ele>
        <time>2020-10-19T10:58:35.000Z</time>
      </trkpt>
      <trkpt lat="48.21903" lon="-3.16621">
        <ele>146.39999389648</ele>
        <time>2020-10-19T10:58:36.000Z</time>
      </trkpt>
      <trkpt lat="48.21903" lon="-3.16623">
        <ele>146.39999389648</ele>
        <time>2020-10-19T10:58:37.000Z</time>
      </trkpt>
      <trkpt lat="48.21902" lon="-3.16625">
        <ele>146.39999389648</ele>
        <time>2020-10-19T10:58:38.000Z</time>
      </trkpt>
      <trkpt lat="48.21902" lon="-3.16627">
        <ele>146.60000610352</ele>
        <time>2020-10-19T10:58:39.000Z</time>
      </trkpt>
      <trkpt lat="48.21902" lon="-3.16628">
        <ele>146.60000610352</ele>
        <time>2020-10-19T10:58:40.000Z</time>
      </trkpt>
      <trkpt lat="48.21902" lon="-3.1663">
        <ele>146.60000610352</ele>
        <time>2020-10-19T10:58:41.000Z</time>
      </trkpt>
      <trkpt lat="48.21902" lon="-3.16631">
        <ele>146.60000610352</ele>
        <time>2020-10-19T10:58:42.000Z</time>
      </trkpt>
      <trkpt lat="48.21902" lon="-3.16633">
        <ele>146.60000610352</ele>
        <time>2020-10-19T10:58:43.000Z</time>
      </trkpt>
      <trkpt lat="48.21902" lon="-3.16634">
        <ele>146.60000610352</ele>
        <time>2020-10-19T10:58:44.000Z</time>
      </trkpt>
      <trkpt lat="48.21901" lon="-3.16636">
        <ele>146.60000610352</ele>
        <time>2020-10-19T10:58:45.000Z</time>
      </trkpt>
      <trkpt lat="48.21901" lon="-3.16638">
        <ele>146.80000305176</ele>
        <time>2020-10-19T10:58:46.000Z</time>
      </trkpt>
      <trkpt lat="48.21901" lon="-3.1664">
        <ele>146.80000305176</ele>
        <time>2020-10-19T10:58:47.000Z</time>
      </trkpt>
      <trkpt lat="48.21901" lon="-3.16641">
        <ele>146.80000305176</ele>
        <time>2020-10-19T10:58:48.000Z</time>
      </trkpt>
      <trkpt lat="48.21901" lon="-3.16642">
        <ele>146.80000305176</ele>
        <time>2020-10-19T10:58:49.000Z</time>
      </trkpt>
      <trkpt lat="48.219" lon="-3.16644">
        <ele>146.80000305176</ele>
        <time>2020-10-19T10:58:50.000Z</time>
      </trkpt>
      <trkpt lat="48.219" lon="-3.16645">
        <ele>147</ele>
        <time>2020-10-19T10:58:51.000Z</time>
      </trkpt>
      <trkpt lat="48.219" lon="-3.16647">
        <ele>147</ele>
        <time>2020-10-19T10:58:52.000Z</time>
      </trkpt>
      <trkpt lat="48.219" lon="-3.16648">
        <ele>147</ele>
        <time>2020-10-19T10:58:53.000Z</time>
      </trkpt>
      <trkpt lat="48.21899" lon="-3.16649">
        <ele>147.19999694824</ele>
        <time>2020-10-19T10:58:54.000Z</time>
      </trkpt>
      <trkpt lat="48.21899" lon="-3.16651">
        <ele>147.39999389648</ele>
        <time>2020-10-19T10:58:55.000Z</time>
      </trkpt>
      <trkpt lat="48.21898" lon="-3.16652">
        <ele>147.39999389648</ele>
        <time>2020-10-19T10:58:56.000Z</time>
      </trkpt>
      <trkpt lat="48.21898" lon="-3.16653">
        <ele>147.39999389648</ele>
        <time>2020-10-19T10:58:57.000Z</time>
      </trkpt>
      <trkpt lat="48.21898" lon="-3.16655">
        <ele>147.39999389648</ele>
        <time>2020-10-19T10:58:58.000Z</time>
      </trkpt>
      <trkpt lat="48.21898" lon="-3.16657">
        <ele>147.39999389648</ele>
        <time>2020-10-19T10:58:59.000Z</time>
      </trkpt>
      <trkpt lat="48.21898" lon="-3.16658">
        <ele>147.39999389648</ele>
        <time>2020-10-19T10:59:00.000Z</time>
      </trkpt>
      <trkpt lat="48.21898" lon="-3.1666">
        <ele>147.39999389648</ele>
        <time>2020-10-19T10:59:01.000Z</time>
      </trkpt>
      <trkpt lat="48.21898" lon="-3.16661">
        <ele>147.39999389648</ele>
        <time>2020-10-19T10:59:02.000Z</time>
      </trkpt>
      <trkpt lat="48.21898" lon="-3.16663">
        <ele>147.39999389648</ele>
        <time>2020-10-19T10:59:03.000Z</time>
      </trkpt>
      <trkpt lat="48.21898" lon="-3.16664">
        <ele>147.39999389648</ele>
        <time>2020-10-19T10:59:04.000Z</time>
      </trkpt>
      <trkpt lat="48.21897" lon="-3.16666">
        <ele>147.60000610352</ele>
        <time>2020-10-19T10:59:05.000Z</time>
      </trkpt>
      <trkpt lat="48.21897" lon="-3.16668">
        <ele>147.80000305176</ele>
        <time>2020-10-19T10:59:06.000Z</time>
      </trkpt>
      <trkpt lat="48.21896" lon="-3.1667">
        <ele>147.80000305176</ele>
        <time>2020-10-19T10:59:07.000Z</time>
      </trkpt>
      <trkpt lat="48.21896" lon="-3.16671">
        <ele>148</ele>
        <time>2020-10-19T10:59:08.000Z</time>
      </trkpt>
      <trkpt lat="48.21895" lon="-3.16673">
        <ele>148</ele>
        <time>2020-10-19T10:59:09.000Z</time>
      </trkpt>
      <trkpt lat="48.21895" lon="-3.16675">
        <ele>148.19999694824</ele>
        <time>2020-10-19T10:59:10.000Z</time>
      </trkpt>
      <trkpt lat="48.21894" lon="-3.16677">
        <ele>148.39999389648</ele>
        <time>2020-10-19T10:59:11.000Z</time>
      </trkpt>
      <trkpt lat="48.21894" lon="-3.16679">
        <ele>148.60000610352</ele>
        <time>2020-10-19T10:59:12.000Z</time>
      </trkpt>
      <trkpt lat="48.21893" lon="-3.16682">
        <ele>148.60000610352</ele>
        <time>2020-10-19T10:59:13.000Z</time>
      </trkpt>
      <trkpt lat="48.21893" lon="-3.16684">
        <ele>148.80000305176</ele>
        <time>2020-10-19T10:59:14.000Z</time>
      </trkpt>
      <trkpt lat="48.21892" lon="-3.16686">
        <ele>149</ele>
        <time>2020-10-19T10:59:15.000Z</time>
      </trkpt>
      <trkpt lat="48.21892" lon="-3.16688">
        <ele>149</ele>
        <time>2020-10-19T10:59:16.000Z</time>
      </trkpt>
      <trkpt lat="48.21891" lon="-3.16691">
        <ele>149</ele>
        <time>2020-10-19T10:59:17.000Z</time>
      </trkpt>
      <trkpt lat="48.21891" lon="-3.16694">
        <ele>149.19999694824</ele>
        <time>2020-10-19T10:59:18.000Z</time>
      </trkpt>
      <trkpt lat="48.2189" lon="-3.16696">
        <ele>149.19999694824</ele>
        <time>2020-10-19T10:59:19.000Z</time>
      </trkpt>
      <trkpt lat="48.2189" lon="-3.16698">
        <ele>149.39999389648</ele>
        <time>2020-10-19T10:59:20.000Z</time>
      </trkpt>
      <trkpt lat="48.21889" lon="-3.167">
        <ele>149.39999389648</ele>
        <time>2020-10-19T10:59:21.000Z</time>
      </trkpt>
      <trkpt lat="48.21889" lon="-3.16702">
        <ele>149.60000610352</ele>
        <time>2020-10-19T10:59:22.000Z</time>
      </trkpt>
      <trkpt lat="48.21889" lon="-3.16704">
        <ele>149.60000610352</ele>
        <time>2020-10-19T10:59:23.000Z</time>
      </trkpt>
      <trkpt lat="48.21889" lon="-3.16706">
        <ele>149.60000610352</ele>
        <time>2020-10-19T10:59:24.000Z</time>
      </trkpt>
      <trkpt lat="48.21889" lon="-3.16708">
        <ele>149.60000610352</ele>
        <time>2020-10-19T10:59:25.000Z</time>
      </trkpt>
      <trkpt lat="48.21888" lon="-3.16709">
        <ele>149.80000305176</ele>
        <time>2020-10-19T10:59:26.000Z</time>
      </trkpt>
      <trkpt lat="48.21888" lon="-3.16711">
        <ele>149.80000305176</ele>
        <time>2020-10-19T10:59:27.000Z</time>
      </trkpt>
      <trkpt lat="48.21887" lon="-3.16713">
        <ele>150</ele>
        <time>2020-10-19T10:59:28.000Z</time>
      </trkpt>
      <trkpt lat="48.21887" lon="-3.16715">
        <ele>150</ele>
        <time>2020-10-19T10:59:29.000Z</time>
      </trkpt>
      <trkpt lat="48.21887" lon="-3.16716">
        <ele>150</ele>
        <time>2020-10-19T10:59:30.000Z</time>
      </trkpt>
      <trkpt lat="48.21887" lon="-3.16718">
        <ele>150</ele>
        <time>2020-10-19T10:59:31.000Z</time>
      </trkpt>
      <trkpt lat="48.21887" lon="-3.16719">
        <ele>150.19999694824</ele>
        <time>2020-10-19T10:59:32.000Z</time>
      </trkpt>
      <trkpt lat="48.21886" lon="-3.16721">
        <ele>150.19999694824</ele>
        <time>2020-10-19T10:59:33.000Z</time>
      </trkpt>
      <trkpt lat="48.21886" lon="-3.16722">
        <ele>150.19999694824</ele>
        <time>2020-10-19T10:59:34.000Z</time>
      </trkpt>
      <trkpt lat="48.21886" lon="-3.16723">
        <ele>150.39999389648</ele>
        <time>2020-10-19T10:59:35.000Z</time>
      </trkpt>
      <trkpt lat="48.21885" lon="-3.16725">
        <ele>150.60000610352</ele>
        <time>2020-10-19T10:59:36.000Z</time>
      </trkpt>
      <trkpt lat="48.21885" lon="-3.16726">
        <ele>150.80000305176</ele>
        <time>2020-10-19T10:59:37.000Z</time>
      </trkpt>
      <trkpt lat="48.21884" lon="-3.16727">
        <ele>150.80000305176</ele>
        <time>2020-10-19T10:59:38.000Z</time>
      </trkpt>
      <trkpt lat="48.21884" lon="-3.16728">
        <ele>151</ele>
        <time>2020-10-19T10:59:39.000Z</time>
      </trkpt>
      <trkpt lat="48.21883" lon="-3.16729">
        <ele>151</ele>
        <time>2020-10-19T10:59:40.000Z</time>
      </trkpt>
      <trkpt lat="48.21883" lon="-3.1673">
        <ele>151.19999694824</ele>
        <time>2020-10-19T10:59:41.000Z</time>
      </trkpt>
      <trkpt lat="48.21883" lon="-3.16731">
        <ele>151.39999389648</ele>
        <time>2020-10-19T10:59:42.000Z</time>
      </trkpt>
      <trkpt lat="48.21882" lon="-3.16732">
        <ele>151.39999389648</ele>
        <time>2020-10-19T10:59:43.000Z</time>
      </trkpt>
      <trkpt lat="48.21882" lon="-3.16733">
        <ele>151.39999389648</ele>
        <time>2020-10-19T10:59:44.000Z</time>
      </trkpt>
      <trkpt lat="48.21882" lon="-3.16734">
        <ele>151.60000610352</ele>
        <time>2020-10-19T10:59:45.000Z</time>
      </trkpt>
      <trkpt lat="48.21882" lon="-3.16735">
        <ele>151.60000610352</ele>
        <time>2020-10-19T10:59:46.000Z</time>
      </trkpt>
      <trkpt lat="48.21882" lon="-3.16736">
        <ele>151.39999389648</ele>
        <time>2020-10-19T10:59:47.000Z</time>
      </trkpt>
      <trkpt lat="48.21882" lon="-3.16738">
        <ele>151.60000610352</ele>
        <time>2020-10-19T10:59:48.000Z</time>
      </trkpt>
      <trkpt lat="48.21882" lon="-3.16739">
        <ele>151.60000610352</ele>
        <time>2020-10-19T10:59:49.000Z</time>
      </trkpt>
      <trkpt lat="48.21882" lon="-3.16741">
        <ele>151.80000305176</ele>
        <time>2020-10-19T10:59:50.000Z</time>
      </trkpt>
      <trkpt lat="48.21881" lon="-3.16743">
        <ele>152</ele>
        <time>2020-10-19T10:59:51.000Z</time>
      </trkpt>
      <trkpt lat="48.21881" lon="-3.16746">
        <ele>152</ele>
        <time>2020-10-19T10:59:52.000Z</time>
      </trkpt>
      <trkpt lat="48.2188" lon="-3.16747">
        <ele>152.19999694824</ele>
        <time>2020-10-19T10:59:53.000Z</time>
      </trkpt>
      <trkpt lat="48.2188" lon="-3.16749">
        <ele>152.19999694824</ele>
        <time>2020-10-19T10:59:54.000Z</time>
      </trkpt>
      <trkpt lat="48.2188" lon="-3.16751">
        <ele>152.19999694824</ele>
        <time>2020-10-19T10:59:55.000Z</time>
      </trkpt>
      <trkpt lat="48.2188" lon="-3.16753">
        <ele>152.19999694824</ele>
        <time>2020-10-19T10:59:56.000Z</time>
      </trkpt>
      <trkpt lat="48.2188" lon="-3.16754">
        <ele>152.39999389648</ele>
        <time>2020-10-19T10:59:57.000Z</time>
      </trkpt>
      <trkpt lat="48.2188" lon="-3.16756">
        <ele>152.39999389648</ele>
        <time>2020-10-19T10:59:58.000Z</time>
      </trkpt>
      <trkpt lat="48.2188" lon="-3.16757">
        <ele>152.39999389648</ele>
        <time>2020-10-19T10:59:59.000Z</time>
      </trkpt>
      <trkpt lat="48.2188" lon="-3.16759">
        <ele>152.39999389648</ele>
        <time>2020-10-19T11:00:00.000Z</time>
      </trkpt>
      <trkpt lat="48.2188" lon="-3.1676">
        <ele>152.39999389648</ele>
        <time>2020-10-19T11:00:01.000Z</time>
      </trkpt>
      <trkpt lat="48.2188" lon="-3.16761">
        <ele>152.39999389648</ele>
        <time>2020-10-19T11:00:02.000Z</time>
      </trkpt>
      <trkpt lat="48.2188" lon="-3.16764">
        <ele>152.39999389648</ele>
        <time>2020-10-19T11:00:03.000Z</time>
      </trkpt>
      <trkpt lat="48.2188" lon="-3.16765">
        <ele>152.39999389648</ele>
        <time>2020-10-19T11:00:04.000Z</time>
      </trkpt>
      <trkpt lat="48.2188" lon="-3.16767">
        <ele>152.39999389648</ele>
        <time>2020-10-19T11:00:05.000Z</time>
      </trkpt>
      <trkpt lat="48.2188" lon="-3.16769">
        <ele>152.39999389648</ele>
        <time>2020-10-19T11:00:06.000Z</time>
      </trkpt>
      <trkpt lat="48.21881" lon="-3.1677">
        <ele>152.19999694824</ele>
        <time>2020-10-19T11:00:07.000Z</time>
      </trkpt>
      <trkpt lat="48.21881" lon="-3.16773">
        <ele>152.19999694824</ele>
        <time>2020-10-19T11:00:08.000Z</time>
      </trkpt>
      <trkpt lat="48.2188" lon="-3.16774">
        <ele>152.39999389648</ele>
        <time>2020-10-19T11:00:09.000Z</time>
      </trkpt>
      <trkpt lat="48.2188" lon="-3.16776">
        <ele>152.39999389648</ele>
        <time>2020-10-19T11:00:10.000Z</time>
      </trkpt>
      <trkpt lat="48.2188" lon="-3.16777">
        <ele>152.39999389648</ele>
        <time>2020-10-19T11:00:11.000Z</time>
      </trkpt>
      <trkpt lat="48.2188" lon="-3.16779">
        <ele>152.39999389648</ele>
        <time>2020-10-19T11:00:12.000Z</time>
      </trkpt>
      <trkpt lat="48.2188" lon="-3.16781">
        <ele>152.39999389648</ele>
        <time>2020-10-19T11:00:13.000Z</time>
      </trkpt>
      <trkpt lat="48.21881" lon="-3.16782">
        <ele>152.19999694824</ele>
        <time>2020-10-19T11:00:14.000Z</time>
      </trkpt>
      <trkpt lat="48.21881" lon="-3.16784">
        <ele>152.19999694824</ele>
        <time>2020-10-19T11:00:15.000Z</time>
      </trkpt>
      <trkpt lat="48.2188" lon="-3.16786">
        <ele>152.39999389648</ele>
        <time>2020-10-19T11:00:16.000Z</time>
      </trkpt>
      <trkpt lat="48.2188" lon="-3.16788">
        <ele>152.39999389648</ele>
        <time>2020-10-19T11:00:17.000Z</time>
      </trkpt>
      <trkpt lat="48.2188" lon="-3.16789">
        <ele>152.39999389648</ele>
        <time>2020-10-19T11:00:18.000Z</time>
      </trkpt>
      <trkpt lat="48.2188" lon="-3.1679">
        <ele>152.39999389648</ele>
        <time>2020-10-19T11:00:19.000Z</time>
      </trkpt>
      <trkpt lat="48.2188" lon="-3.16792">
        <ele>152.39999389648</ele>
        <time>2020-10-19T11:00:20.000Z</time>
      </trkpt>
      <trkpt lat="48.2188" lon="-3.16793">
        <ele>152.39999389648</ele>
        <time>2020-10-19T11:00:21.000Z</time>
      </trkpt>
      <trkpt lat="48.21879" lon="-3.16795">
        <ele>152.60000610352</ele>
        <time>2020-10-19T11:00:22.000Z</time>
      </trkpt>
      <trkpt lat="48.21879" lon="-3.16797">
        <ele>152.60000610352</ele>
        <time>2020-10-19T11:00:23.000Z</time>
      </trkpt>
      <trkpt lat="48.21879" lon="-3.16799">
        <ele>152.60000610352</ele>
        <time>2020-10-19T11:00:24.000Z</time>
      </trkpt>
      <trkpt lat="48.21879" lon="-3.16801">
        <ele>152.60000610352</ele>
        <time>2020-10-19T11:00:25.000Z</time>
      </trkpt>
      <trkpt lat="48.21879" lon="-3.16802">
        <ele>152.60000610352</ele>
        <time>2020-10-19T11:00:26.000Z</time>
      </trkpt>
      <trkpt lat="48.2188" lon="-3.16804">
        <ele>152.60000610352</ele>
        <time>2020-10-19T11:00:27.000Z</time>
      </trkpt>
      <trkpt lat="48.2188" lon="-3.16806">
        <ele>152.39999389648</ele>
        <time>2020-10-19T11:00:28.000Z</time>
      </trkpt>
      <trkpt lat="48.2188" lon="-3.16807">
        <ele>152.39999389648</ele>
        <time>2020-10-19T11:00:29.000Z</time>
      </trkpt>
      <trkpt lat="48.2188" lon="-3.16808">
        <ele>152.39999389648</ele>
        <time>2020-10-19T11:00:30.000Z</time>
      </trkpt>
      <trkpt lat="48.2188" lon="-3.1681">
        <ele>152.39999389648</ele>
        <time>2020-10-19T11:00:31.000Z</time>
      </trkpt>
      <trkpt lat="48.21881" lon="-3.16811">
        <ele>152.19999694824</ele>
        <time>2020-10-19T11:00:32.000Z</time>
      </trkpt>
      <trkpt lat="48.21881" lon="-3.16813">
        <ele>152</ele>
        <time>2020-10-19T11:00:33.000Z</time>
      </trkpt>
      <trkpt lat="48.21882" lon="-3.16815">
        <ele>151.80000305176</ele>
        <time>2020-10-19T11:00:34.000Z</time>
      </trkpt>
      <trkpt lat="48.21882" lon="-3.16816">
        <ele>151.80000305176</ele>
        <time>2020-10-19T11:00:35.000Z</time>
      </trkpt>
      <trkpt lat="48.21882" lon="-3.16817">
        <ele>151.80000305176</ele>
        <time>2020-10-19T11:00:36.000Z</time>
      </trkpt>
      <trkpt lat="48.21883" lon="-3.1682">
        <ele>151.60000610352</ele>
        <time>2020-10-19T11:00:37.000Z</time>
      </trkpt>
      <trkpt lat="48.21883" lon="-3.16821">
        <ele>151.39999389648</ele>
        <time>2020-10-19T11:00:38.000Z</time>
      </trkpt>
      <trkpt lat="48.21883" lon="-3.16823">
        <ele>151.39999389648</ele>
        <time>2020-10-19T11:00:39.000Z</time>
      </trkpt>
      <trkpt lat="48.21883" lon="-3.16825">
        <ele>151.39999389648</ele>
        <time>2020-10-19T11:00:40.000Z</time>
      </trkpt>
      <trkpt lat="48.21883" lon="-3.16827">
        <ele>151.39999389648</ele>
        <time>2020-10-19T11:00:41.000Z</time>
      </trkpt>
      <trkpt lat="48.21883" lon="-3.16828">
        <ele>151.19999694824</ele>
        <time>2020-10-19T11:00:42.000Z</time>
      </trkpt>
      <trkpt lat="48.21883" lon="-3.16829">
        <ele>151.39999389648</ele>
        <time>2020-10-19T11:00:43.000Z</time>
      </trkpt>
      <trkpt lat="48.21882" lon="-3.16831">
        <ele>151.60000610352</ele>
        <time>2020-10-19T11:00:44.000Z</time>
      </trkpt>
      <trkpt lat="48.21881" lon="-3.16833">
        <ele>151.80000305176</ele>
        <time>2020-10-19T11:00:45.000Z</time>
      </trkpt>
      <trkpt lat="48.21881" lon="-3.16835">
        <ele>151.80000305176</ele>
        <time>2020-10-19T11:00:46.000Z</time>
      </trkpt>
      <trkpt lat="48.2188" lon="-3.16837">
        <ele>152</ele>
        <time>2020-10-19T11:00:47.000Z</time>
      </trkpt>
      <trkpt lat="48.2188" lon="-3.16839">
        <ele>152</ele>
        <time>2020-10-19T11:00:48.000Z</time>
      </trkpt>
      <trkpt lat="48.2188" lon="-3.16841">
        <ele>152.19999694824</ele>
        <time>2020-10-19T11:00:49.000Z</time>
      </trkpt>
      <trkpt lat="48.21879" lon="-3.16843">
        <ele>152.19999694824</ele>
        <time>2020-10-19T11:00:50.000Z</time>
      </trkpt>
      <trkpt lat="48.21879" lon="-3.16845">
        <ele>152.19999694824</ele>
        <time>2020-10-19T11:00:51.000Z</time>
      </trkpt>
      <trkpt lat="48.21879" lon="-3.16846">
        <ele>152.39999389648</ele>
        <time>2020-10-19T11:00:52.000Z</time>
      </trkpt>
      <trkpt lat="48.21879" lon="-3.16848">
        <ele>152.39999389648</ele>
        <time>2020-10-19T11:00:53.000Z</time>
      </trkpt>
      <trkpt lat="48.21879" lon="-3.1685">
        <ele>152.19999694824</ele>
        <time>2020-10-19T11:00:54.000Z</time>
      </trkpt>
      <trkpt lat="48.21879" lon="-3.16852">
        <ele>152.39999389648</ele>
        <time>2020-10-19T11:00:55.000Z</time>
      </trkpt>
      <trkpt lat="48.21878" lon="-3.16854">
        <ele>152.60000610352</ele>
        <time>2020-10-19T11:00:56.000Z</time>
      </trkpt>
      <trkpt lat="48.21878" lon="-3.16856">
        <ele>152.60000610352</ele>
        <time>2020-10-19T11:00:57.000Z</time>
      </trkpt>
      <trkpt lat="48.21879" lon="-3.16857">
        <ele>152.39999389648</ele>
        <time>2020-10-19T11:00:58.000Z</time>
      </trkpt>
      <trkpt lat="48.21879" lon="-3.16858">
        <ele>152.39999389648</ele>
        <time>2020-10-19T11:00:59.000Z</time>
      </trkpt>
      <trkpt lat="48.21879" lon="-3.1686">
        <ele>152.39999389648</ele>
        <time>2020-10-19T11:01:00.000Z</time>
      </trkpt>
      <trkpt lat="48.21879" lon="-3.16862">
        <ele>152.39999389648</ele>
        <time>2020-10-19T11:01:01.000Z</time>
      </trkpt>
      <trkpt lat="48.21879" lon="-3.16864">
        <ele>152.39999389648</ele>
        <time>2020-10-19T11:01:02.000Z</time>
      </trkpt>
      <trkpt lat="48.21879" lon="-3.16865">
        <ele>152.39999389648</ele>
        <time>2020-10-19T11:01:03.000Z</time>
      </trkpt>
      <trkpt lat="48.21879" lon="-3.16867">
        <ele>152.60000610352</ele>
        <time>2020-10-19T11:01:04.000Z</time>
      </trkpt>
      <trkpt lat="48.2188" lon="-3.16868">
        <ele>152.39999389648</ele>
        <time>2020-10-19T11:01:05.000Z</time>
      </trkpt>
      <trkpt lat="48.2188" lon="-3.1687">
        <ele>152.39999389648</ele>
        <time>2020-10-19T11:01:06.000Z</time>
      </trkpt>
      <trkpt lat="48.2188" lon="-3.16872">
        <ele>152.39999389648</ele>
        <time>2020-10-19T11:01:07.000Z</time>
      </trkpt>
      <trkpt lat="48.2188" lon="-3.16873">
        <ele>152.39999389648</ele>
        <time>2020-10-19T11:01:08.000Z</time>
      </trkpt>
      <trkpt lat="48.2188" lon="-3.16875">
        <ele>152.19999694824</ele>
        <time>2020-10-19T11:01:09.000Z</time>
      </trkpt>
      <trkpt lat="48.21881" lon="-3.16877">
        <ele>152.19999694824</ele>
        <time>2020-10-19T11:01:10.000Z</time>
      </trkpt>
      <trkpt lat="48.21882" lon="-3.16878">
        <ele>151.80000305176</ele>
        <time>2020-10-19T11:01:11.000Z</time>
      </trkpt>
      <trkpt lat="48.21883" lon="-3.1688">
        <ele>151.60000610352</ele>
        <time>2020-10-19T11:01:12.000Z</time>
      </trkpt>
      <trkpt lat="48.21883" lon="-3.16882">
        <ele>151.60000610352</ele>
        <time>2020-10-19T11:01:13.000Z</time>
      </trkpt>
      <trkpt lat="48.21883" lon="-3.16883">
        <ele>151.60000610352</ele>
        <time>2020-10-19T11:01:14.000Z</time>
      </trkpt>
      <trkpt lat="48.21883" lon="-3.16885">
        <ele>151.60000610352</ele>
        <time>2020-10-19T11:01:15.000Z</time>
      </trkpt>
      <trkpt lat="48.21883" lon="-3.16886">
        <ele>151.60000610352</ele>
        <time>2020-10-19T11:01:16.000Z</time>
      </trkpt>
      <trkpt lat="48.21884" lon="-3.16887">
        <ele>151.39999389648</ele>
        <time>2020-10-19T11:01:17.000Z</time>
      </trkpt>
      <trkpt lat="48.21884" lon="-3.16888">
        <ele>151.39999389648</ele>
        <time>2020-10-19T11:01:18.000Z</time>
      </trkpt>
      <trkpt lat="48.21885" lon="-3.1689">
        <ele>151.19999694824</ele>
        <time>2020-10-19T11:01:19.000Z</time>
      </trkpt>
      <trkpt lat="48.21885" lon="-3.16892">
        <ele>151.19999694824</ele>
        <time>2020-10-19T11:01:20.000Z</time>
      </trkpt>
      <trkpt lat="48.21885" lon="-3.16893">
        <ele>151.19999694824</ele>
        <time>2020-10-19T11:01:21.000Z</time>
      </trkpt>
      <trkpt lat="48.21885" lon="-3.16895">
        <ele>151.19999694824</ele>
        <time>2020-10-19T11:01:22.000Z</time>
      </trkpt>
      <trkpt lat="48.21885" lon="-3.16897">
        <ele>151.19999694824</ele>
        <time>2020-10-19T11:01:23.000Z</time>
      </trkpt>
      <trkpt lat="48.21885" lon="-3.16899">
        <ele>151.19999694824</ele>
        <time>2020-10-19T11:01:24.000Z</time>
      </trkpt>
      <trkpt lat="48.21885" lon="-3.169">
        <ele>151.19999694824</ele>
        <time>2020-10-19T11:01:25.000Z</time>
      </trkpt>
      <trkpt lat="48.21885" lon="-3.16902">
        <ele>151.19999694824</ele>
        <time>2020-10-19T11:01:26.000Z</time>
      </trkpt>
      <trkpt lat="48.21885" lon="-3.16904">
        <ele>151.19999694824</ele>
        <time>2020-10-19T11:01:27.000Z</time>
      </trkpt>
      <trkpt lat="48.21885" lon="-3.16906">
        <ele>151.19999694824</ele>
        <time>2020-10-19T11:01:28.000Z</time>
      </trkpt>
      <trkpt lat="48.21885" lon="-3.16907">
        <ele>151</ele>
        <time>2020-10-19T11:01:29.000Z</time>
      </trkpt>
      <trkpt lat="48.21885" lon="-3.16909">
        <ele>151</ele>
        <time>2020-10-19T11:01:30.000Z</time>
      </trkpt>
      <trkpt lat="48.21886" lon="-3.16911">
        <ele>151</ele>
        <time>2020-10-19T11:01:31.000Z</time>
      </trkpt>
      <trkpt lat="48.21886" lon="-3.16913">
        <ele>150.80000305176</ele>
        <time>2020-10-19T11:01:32.000Z</time>
      </trkpt>
      <trkpt lat="48.21886" lon="-3.16915">
        <ele>150.80000305176</ele>
        <time>2020-10-19T11:01:33.000Z</time>
      </trkpt>
      <trkpt lat="48.21887" lon="-3.16917">
        <ele>150.60000610352</ele>
        <time>2020-10-19T11:01:34.000Z</time>
      </trkpt>
      <trkpt lat="48.21887" lon="-3.16918">
        <ele>150.60000610352</ele>
        <time>2020-10-19T11:01:35.000Z</time>
      </trkpt>
      <trkpt lat="48.21888" lon="-3.1692">
        <ele>150.39999389648</ele>
        <time>2020-10-19T11:01:36.000Z</time>
      </trkpt>
      <trkpt lat="48.21888" lon="-3.16921">
        <ele>150.19999694824</ele>
        <time>2020-10-19T11:01:37.000Z</time>
      </trkpt>
      <trkpt lat="48.21888" lon="-3.16923">
        <ele>150.19999694824</ele>
        <time>2020-10-19T11:01:38.000Z</time>
      </trkpt>
      <trkpt lat="48.21889" lon="-3.16925">
        <ele>150</ele>
        <time>2020-10-19T11:01:39.000Z</time>
      </trkpt>
      <trkpt lat="48.2189" lon="-3.16927">
        <ele>149.60000610352</ele>
        <time>2020-10-19T11:01:40.000Z</time>
      </trkpt>
      <trkpt lat="48.2189" lon="-3.16929">
        <ele>149.60000610352</ele>
        <time>2020-10-19T11:01:41.000Z</time>
      </trkpt>
      <trkpt lat="48.21891" lon="-3.1693">
        <ele>149.39999389648</ele>
        <time>2020-10-19T11:01:42.000Z</time>
      </trkpt>
      <trkpt lat="48.21891" lon="-3.16932">
        <ele>149.19999694824</ele>
        <time>2020-10-19T11:01:43.000Z</time>
      </trkpt>
      <trkpt lat="48.21892" lon="-3.16933">
        <ele>149.19999694824</ele>
        <time>2020-10-19T11:01:44.000Z</time>
      </trkpt>
      <trkpt lat="48.21893" lon="-3.16935">
        <ele>148.80000305176</ele>
        <time>2020-10-19T11:01:45.000Z</time>
      </trkpt>
      <trkpt lat="48.21893" lon="-3.16936">
        <ele>148.80000305176</ele>
        <time>2020-10-19T11:01:46.000Z</time>
      </trkpt>
      <trkpt lat="48.21894" lon="-3.16938">
        <ele>148.60000610352</ele>
        <time>2020-10-19T11:01:47.000Z</time>
      </trkpt>
      <trkpt lat="48.21894" lon="-3.1694">
        <ele>148.39999389648</ele>
        <time>2020-10-19T11:01:48.000Z</time>
      </trkpt>
      <trkpt lat="48.21895" lon="-3.16942">
        <ele>148.19999694824</ele>
        <time>2020-10-19T11:01:49.000Z</time>
      </trkpt>
      <trkpt lat="48.21895" lon="-3.16944">
        <ele>148.19999694824</ele>
        <time>2020-10-19T11:01:50.000Z</time>
      </trkpt>
      <trkpt lat="48.21896" lon="-3.16946">
        <ele>148</ele>
        <time>2020-10-19T11:01:51.000Z</time>
      </trkpt>
      <trkpt lat="48.21896" lon="-3.16947">
        <ele>147.80000305176</ele>
        <time>2020-10-19T11:01:52.000Z</time>
      </trkpt>
      <trkpt lat="48.21897" lon="-3.16949">
        <ele>147.80000305176</ele>
        <time>2020-10-19T11:01:53.000Z</time>
      </trkpt>
      <trkpt lat="48.21897" lon="-3.1695">
        <ele>147.80000305176</ele>
        <time>2020-10-19T11:01:54.000Z</time>
      </trkpt>
      <trkpt lat="48.21898" lon="-3.16952">
        <ele>147.60000610352</ele>
        <time>2020-10-19T11:01:55.000Z</time>
      </trkpt>
      <trkpt lat="48.21898" lon="-3.16953">
        <ele>147.39999389648</ele>
        <time>2020-10-19T11:01:56.000Z</time>
      </trkpt>
      <trkpt lat="48.21899" lon="-3.16955">
        <ele>147.19999694824</ele>
        <time>2020-10-19T11:01:57.000Z</time>
      </trkpt>
      <trkpt lat="48.219" lon="-3.16957">
        <ele>147</ele>
        <time>2020-10-19T11:01:58.000Z</time>
      </trkpt>
      <trkpt lat="48.219" lon="-3.16958">
        <ele>147</ele>
        <time>2020-10-19T11:01:59.000Z</time>
      </trkpt>
      <trkpt lat="48.21901" lon="-3.1696">
        <ele>147</ele>
        <time>2020-10-19T11:02:00.000Z</time>
      </trkpt>
      <trkpt lat="48.21902" lon="-3.16961">
        <ele>147</ele>
        <time>2020-10-19T11:02:01.000Z</time>
      </trkpt>
      <trkpt lat="48.21902" lon="-3.16963">
        <ele>146.80000305176</ele>
        <time>2020-10-19T11:02:02.000Z</time>
      </trkpt>
      <trkpt lat="48.21903" lon="-3.16964">
        <ele>146.80000305176</ele>
        <time>2020-10-19T11:02:03.000Z</time>
      </trkpt>
      <trkpt lat="48.21904" lon="-3.16966">
        <ele>146.80000305176</ele>
        <time>2020-10-19T11:02:04.000Z</time>
      </trkpt>
      <trkpt lat="48.21905" lon="-3.16968">
        <ele>146.60000610352</ele>
        <time>2020-10-19T11:02:05.000Z</time>
      </trkpt>
      <trkpt lat="48.21905" lon="-3.16969">
        <ele>146.80000305176</ele>
        <time>2020-10-19T11:02:06.000Z</time>
      </trkpt>
      <trkpt lat="48.21905" lon="-3.16971">
        <ele>146.80000305176</ele>
        <time>2020-10-19T11:02:07.000Z</time>
      </trkpt>
      <trkpt lat="48.21906" lon="-3.16972">
        <ele>146.60000610352</ele>
        <time>2020-10-19T11:02:08.000Z</time>
      </trkpt>
      <trkpt lat="48.21906" lon="-3.16973">
        <ele>146.80000305176</ele>
        <time>2020-10-19T11:02:09.000Z</time>
      </trkpt>
      <trkpt lat="48.21906" lon="-3.16974">
        <ele>146.80000305176</ele>
        <time>2020-10-19T11:02:10.000Z</time>
      </trkpt>
      <trkpt lat="48.21907" lon="-3.16976">
        <ele>146.60000610352</ele>
        <time>2020-10-19T11:02:11.000Z</time>
      </trkpt>
      <trkpt lat="48.21907" lon="-3.16977">
        <ele>146.80000305176</ele>
        <time>2020-10-19T11:02:12.000Z</time>
      </trkpt>
      <trkpt lat="48.21907" lon="-3.16978">
        <ele>146.80000305176</ele>
        <time>2020-10-19T11:02:13.000Z</time>
      </trkpt>
      <trkpt lat="48.21908" lon="-3.1698">
        <ele>146.80000305176</ele>
        <time>2020-10-19T11:02:14.000Z</time>
      </trkpt>
      <trkpt lat="48.21909" lon="-3.16982">
        <ele>146.60000610352</ele>
        <time>2020-10-19T11:02:15.000Z</time>
      </trkpt>
      <trkpt lat="48.21909" lon="-3.16982">
        <ele>146.60000610352</ele>
        <time>2020-10-19T11:02:16.000Z</time>
      </trkpt>
      <trkpt lat="48.21909" lon="-3.16983">
        <ele>146.60000610352</ele>
        <time>2020-10-19T11:02:17.000Z</time>
      </trkpt>
      <trkpt lat="48.2191" lon="-3.16984">
        <ele>146.60000610352</ele>
        <time>2020-10-19T11:02:18.000Z</time>
      </trkpt>
      <trkpt lat="48.2191" lon="-3.16984">
        <ele>146.39999389648</ele>
        <time>2020-10-19T11:02:19.000Z</time>
      </trkpt>
      <trkpt lat="48.21911" lon="-3.16985">
        <ele>146.39999389648</ele>
        <time>2020-10-19T11:02:20.000Z</time>
      </trkpt>
      <trkpt lat="48.21911" lon="-3.16986">
        <ele>146.39999389648</ele>
        <time>2020-10-19T11:02:21.000Z</time>
      </trkpt>
      <trkpt lat="48.21912" lon="-3.16987">
        <ele>146.39999389648</ele>
        <time>2020-10-19T11:02:22.000Z</time>
      </trkpt>
      <trkpt lat="48.21913" lon="-3.16988">
        <ele>146.19999694824</ele>
        <time>2020-10-19T11:02:23.000Z</time>
      </trkpt>
      <trkpt lat="48.21913" lon="-3.16989">
        <ele>146</ele>
        <time>2020-10-19T11:02:24.000Z</time>
      </trkpt>
      <trkpt lat="48.21914" lon="-3.16991">
        <ele>146</ele>
        <time>2020-10-19T11:02:25.000Z</time>
      </trkpt>
      <trkpt lat="48.21915" lon="-3.16992">
        <ele>145.80000305176</ele>
        <time>2020-10-19T11:02:26.000Z</time>
      </trkpt>
      <trkpt lat="48.21916" lon="-3.16992">
        <ele>145.60000610352</ele>
        <time>2020-10-19T11:02:27.000Z</time>
      </trkpt>
      <trkpt lat="48.21917" lon="-3.16993">
        <ele>145.60000610352</ele>
        <time>2020-10-19T11:02:28.000Z</time>
      </trkpt>
      <trkpt lat="48.21918" lon="-3.16995">
        <ele>145.39999389648</ele>
        <time>2020-10-19T11:02:29.000Z</time>
      </trkpt>
      <trkpt lat="48.21919" lon="-3.16996">
        <ele>145.19999694824</ele>
        <time>2020-10-19T11:02:30.000Z</time>
      </trkpt>
      <trkpt lat="48.2192" lon="-3.16997">
        <ele>145.19999694824</ele>
        <time>2020-10-19T11:02:31.000Z</time>
      </trkpt>
      <trkpt lat="48.2192" lon="-3.16998">
        <ele>145</ele>
        <time>2020-10-19T11:02:32.000Z</time>
      </trkpt>
      <trkpt lat="48.21922" lon="-3.17">
        <ele>144.80000305176</ele>
        <time>2020-10-19T11:02:33.000Z</time>
      </trkpt>
      <trkpt lat="48.21923" lon="-3.17001">
        <ele>144.60000610352</ele>
        <time>2020-10-19T11:02:34.000Z</time>
      </trkpt>
      <trkpt lat="48.21924" lon="-3.17002">
        <ele>144.60000610352</ele>
        <time>2020-10-19T11:02:35.000Z</time>
      </trkpt>
      <trkpt lat="48.21925" lon="-3.17003">
        <ele>144.39999389648</ele>
        <time>2020-10-19T11:02:36.000Z</time>
      </trkpt>
      <trkpt lat="48.21926" lon="-3.17005">
        <ele>144.19999694824</ele>
        <time>2020-10-19T11:02:37.000Z</time>
      </trkpt>
      <trkpt lat="48.21926" lon="-3.17006">
        <ele>144.19999694824</ele>
        <time>2020-10-19T11:02:38.000Z</time>
      </trkpt>
      <trkpt lat="48.21927" lon="-3.17008">
        <ele>144.19999694824</ele>
        <time>2020-10-19T11:02:39.000Z</time>
      </trkpt>
      <trkpt lat="48.21927" lon="-3.17009">
        <ele>144.19999694824</ele>
        <time>2020-10-19T11:02:40.000Z</time>
      </trkpt>
      <trkpt lat="48.21928" lon="-3.1701">
        <ele>144</ele>
        <time>2020-10-19T11:02:41.000Z</time>
      </trkpt>
      <trkpt lat="48.21929" lon="-3.17011">
        <ele>144</ele>
        <time>2020-10-19T11:02:42.000Z</time>
      </trkpt>
      <trkpt lat="48.2193" lon="-3.17013">
        <ele>144</ele>
        <time>2020-10-19T11:02:43.000Z</time>
      </trkpt>
      <trkpt lat="48.21931" lon="-3.17014">
        <ele>144</ele>
        <time>2020-10-19T11:02:44.000Z</time>
      </trkpt>
      <trkpt lat="48.21932" lon="-3.17015">
        <ele>144</ele>
        <time>2020-10-19T11:02:45.000Z</time>
      </trkpt>
      <trkpt lat="48.21933" lon="-3.17016">
        <ele>144</ele>
        <time>2020-10-19T11:02:46.000Z</time>
      </trkpt>
      <trkpt lat="48.21933" lon="-3.17017">
        <ele>144</ele>
        <time>2020-10-19T11:02:47.000Z</time>
      </trkpt>
      <trkpt lat="48.21934" lon="-3.17017">
        <ele>144</ele>
        <time>2020-10-19T11:02:48.000Z</time>
      </trkpt>
      <trkpt lat="48.21935" lon="-3.17018">
        <ele>144</ele>
        <time>2020-10-19T11:02:49.000Z</time>
      </trkpt>
      <trkpt lat="48.21936" lon="-3.17018">
        <ele>144</ele>
        <time>2020-10-19T11:02:50.000Z</time>
      </trkpt>
      <trkpt lat="48.21936" lon="-3.17018">
        <ele>144</ele>
        <time>2020-10-19T11:02:51.000Z</time>
      </trkpt>
      <trkpt lat="48.21936" lon="-3.17018">
        <ele>144</ele>
        <time>2020-10-19T11:02:52.000Z</time>
      </trkpt>
      <trkpt lat="48.21937" lon="-3.17019">
        <ele>144</ele>
        <time>2020-10-19T11:02:53.000Z</time>
      </trkpt>
      <trkpt lat="48.21937" lon="-3.17019">
        <ele>144</ele>
        <time>2020-10-19T11:02:54.000Z</time>
      </trkpt>
      <trkpt lat="48.21937" lon="-3.17019">
        <ele>144</ele>
        <time>2020-10-19T11:02:55.000Z</time>
      </trkpt>
      <trkpt lat="48.21937" lon="-3.17019">
        <ele>144</ele>
        <time>2020-10-19T11:02:56.000Z</time>
      </trkpt>
      <trkpt lat="48.21937" lon="-3.17019">
        <ele>144</ele>
        <time>2020-10-19T11:02:57.000Z</time>
      </trkpt>
      <trkpt lat="48.21937" lon="-3.1702">
        <ele>144</ele>
        <time>2020-10-19T11:02:58.000Z</time>
      </trkpt>
      <trkpt lat="48.21938" lon="-3.17021">
        <ele>144</ele>
        <time>2020-10-19T11:02:59.000Z</time>
      </trkpt>
      <trkpt lat="48.21938" lon="-3.17021">
        <ele>144.19999694824</ele>
        <time>2020-10-19T11:03:00.000Z</time>
      </trkpt>
      <trkpt lat="48.21938" lon="-3.17022">
        <ele>144.19999694824</ele>
        <time>2020-10-19T11:03:01.000Z</time>
      </trkpt>
      <trkpt lat="48.21938" lon="-3.17022">
        <ele>144.19999694824</ele>
        <time>2020-10-19T11:03:02.000Z</time>
      </trkpt>
      <trkpt lat="48.21937" lon="-3.17022">
        <ele>144.19999694824</ele>
        <time>2020-10-19T11:03:03.000Z</time>
      </trkpt>
      <trkpt lat="48.21937" lon="-3.17023">
        <ele>144.39999389648</ele>
        <time>2020-10-19T11:03:04.000Z</time>
      </trkpt>
      <trkpt lat="48.21938" lon="-3.17023">
        <ele>144.39999389648</ele>
        <time>2020-10-19T11:03:05.000Z</time>
      </trkpt>
      <trkpt lat="48.21938" lon="-3.17024">
        <ele>144.39999389648</ele>
        <time>2020-10-19T11:03:06.000Z</time>
      </trkpt>
      <trkpt lat="48.21938" lon="-3.17024">
        <ele>144.39999389648</ele>
        <time>2020-10-19T11:03:07.000Z</time>
      </trkpt>
      <trkpt lat="48.21938" lon="-3.17024">
        <ele>144.39999389648</ele>
        <time>2020-10-19T11:03:08.000Z</time>
      </trkpt>
      <trkpt lat="48.21938" lon="-3.17024">
        <ele>144.39999389648</ele>
        <time>2020-10-19T11:03:09.000Z</time>
      </trkpt>
      <trkpt lat="48.21938" lon="-3.17024">
        <ele>144.39999389648</ele>
        <time>2020-10-19T11:03:10.000Z</time>
      </trkpt>
      <trkpt lat="48.21938" lon="-3.17025">
        <ele>144.39999389648</ele>
        <time>2020-10-19T11:03:11.000Z</time>
      </trkpt>
      <trkpt lat="48.21938" lon="-3.17025">
        <ele>144.39999389648</ele>
        <time>2020-10-19T11:03:12.000Z</time>
      </trkpt>
      <trkpt lat="48.21938" lon="-3.17025">
        <ele>144.39999389648</ele>
        <time>2020-10-19T11:03:13.000Z</time>
      </trkpt>
      <trkpt lat="48.21938" lon="-3.17025">
        <ele>144.39999389648</ele>
        <time>2020-10-19T11:03:14.000Z</time>
      </trkpt>
      <trkpt lat="48.21938" lon="-3.17025">
        <ele>144.39999389648</ele>
        <time>2020-10-19T11:03:15.000Z</time>
      </trkpt>
      <trkpt lat="48.21938" lon="-3.17025">
        <ele>144.39999389648</ele>
        <time>2020-10-19T11:03:16.000Z</time>
      </trkpt>
      <trkpt lat="48.21938" lon="-3.17025">
        <ele>144.39999389648</ele>
        <time>2020-10-19T11:03:17.000Z</time>
      </trkpt>
      <trkpt lat="48.21938" lon="-3.17025">
        <ele>144.39999389648</ele>
        <time>2020-10-19T11:03:18.000Z</time>
      </trkpt>
      <trkpt lat="48.21938" lon="-3.17025">
        <ele>144.60000610352</ele>
        <time>2020-10-19T11:03:19.000Z</time>
      </trkpt>
      <trkpt lat="48.21938" lon="-3.17025">
        <ele>144.60000610352</ele>
        <time>2020-10-19T11:03:20.000Z</time>
      </trkpt>
      <trkpt lat="48.21938" lon="-3.17025">
        <ele>144.39999389648</ele>
        <time>2020-10-19T11:03:21.000Z</time>
      </trkpt>
      <trkpt lat="48.21938" lon="-3.17025">
        <ele>144.39999389648</ele>
        <time>2020-10-19T11:03:22.000Z</time>
      </trkpt>
      <trkpt lat="48.21938" lon="-3.17025">
        <ele>144.39999389648</ele>
        <time>2020-10-19T11:03:23.000Z</time>
      </trkpt>
      <trkpt lat="48.21938" lon="-3.17025">
        <ele>144.39999389648</ele>
        <time>2020-10-19T11:03:24.000Z</time>
      </trkpt>
      <trkpt lat="48.21938" lon="-3.17025">
        <ele>144.39999389648</ele>
        <time>2020-10-19T11:03:25.000Z</time>
      </trkpt>
      <trkpt lat="48.21938" lon="-3.17025">
        <ele>144.39999389648</ele>
        <time>2020-10-19T11:03:26.000Z</time>
      </trkpt>
      <trkpt lat="48.21938" lon="-3.17025">
        <ele>144.39999389648</ele>
        <time>2020-10-19T11:03:27.000Z</time>
      </trkpt>
      <trkpt lat="48.21938" lon="-3.17025">
        <ele>144.39999389648</ele>
        <time>2020-10-19T11:03:28.000Z</time>
      </trkpt>
      <trkpt lat="48.21938" lon="-3.17025">
        <ele>144.39999389648</ele>
        <time>2020-10-19T11:03:29.000Z</time>
      </trkpt>
      <trkpt lat="48.21938" lon="-3.17025">
        <ele>144.39999389648</ele>
        <time>2020-10-19T11:03:30.000Z</time>
      </trkpt>
      <trkpt lat="48.21938" lon="-3.17025">
        <ele>144.60000610352</ele>
        <time>2020-10-19T11:03:31.000Z</time>
      </trkpt>
      <trkpt lat="48.21938" lon="-3.17025">
        <ele>144.60000610352</ele>
        <time>2020-10-19T11:03:32.000Z</time>
      </trkpt>
      <trkpt lat="48.21938" lon="-3.17026">
        <ele>144.60000610352</ele>
        <time>2020-10-19T11:03:33.000Z</time>
      </trkpt>
      <trkpt lat="48.21937" lon="-3.17026">
        <ele>144.60000610352</ele>
        <time>2020-10-19T11:03:34.000Z</time>
      </trkpt>
      <trkpt lat="48.21937" lon="-3.17026">
        <ele>144.60000610352</ele>
        <time>2020-10-19T11:03:35.000Z</time>
      </trkpt>
      <trkpt lat="48.21937" lon="-3.17026">
        <ele>144.80000305176</ele>
        <time>2020-10-19T11:03:36.000Z</time>
      </trkpt>
      <trkpt lat="48.21937" lon="-3.17027">
        <ele>144.80000305176</ele>
        <time>2020-10-19T11:03:37.000Z</time>
      </trkpt>
      <trkpt lat="48.21937" lon="-3.17027">
        <ele>144.80000305176</ele>
        <time>2020-10-19T11:03:38.000Z</time>
      </trkpt>
      <trkpt lat="48.21937" lon="-3.17027">
        <ele>144.80000305176</ele>
        <time>2020-10-19T11:03:39.000Z</time>
      </trkpt>
      <trkpt lat="48.21938" lon="-3.17028">
        <ele>144.80000305176</ele>
        <time>2020-10-19T11:03:40.000Z</time>
      </trkpt>
      <trkpt lat="48.21938" lon="-3.17028">
        <ele>144.80000305176</ele>
        <time>2020-10-19T11:03:41.000Z</time>
      </trkpt>
      <trkpt lat="48.21939" lon="-3.17029">
        <ele>144.80000305176</ele>
        <time>2020-10-19T11:03:42.000Z</time>
      </trkpt>
      <trkpt lat="48.21939" lon="-3.17029">
        <ele>144.80000305176</ele>
        <time>2020-10-19T11:03:43.000Z</time>
      </trkpt>
      <trkpt lat="48.2194" lon="-3.1703">
        <ele>144.80000305176</ele>
        <time>2020-10-19T11:03:44.000Z</time>
      </trkpt>
      <trkpt lat="48.2194" lon="-3.17031">
        <ele>144.80000305176</ele>
        <time>2020-10-19T11:03:45.000Z</time>
      </trkpt>
      <trkpt lat="48.21941" lon="-3.17031">
        <ele>144.80000305176</ele>
        <time>2020-10-19T11:03:46.000Z</time>
      </trkpt>
      <trkpt lat="48.21942" lon="-3.17032">
        <ele>144.80000305176</ele>
        <time>2020-10-19T11:03:47.000Z</time>
      </trkpt>
      <trkpt lat="48.21942" lon="-3.17033">
        <ele>144.80000305176</ele>
        <time>2020-10-19T11:03:48.000Z</time>
      </trkpt>
      <trkpt lat="48.21944" lon="-3.17034">
        <ele>144.80000305176</ele>
        <time>2020-10-19T11:03:49.000Z</time>
      </trkpt>
      <trkpt lat="48.21945" lon="-3.17035">
        <ele>144.80000305176</ele>
        <time>2020-10-19T11:03:50.000Z</time>
      </trkpt>
      <trkpt lat="48.21947" lon="-3.17035">
        <ele>144.60000610352</ele>
        <time>2020-10-19T11:03:51.000Z</time>
      </trkpt>
      <trkpt lat="48.21948" lon="-3.17036">
        <ele>144.60000610352</ele>
        <time>2020-10-19T11:03:52.000Z</time>
      </trkpt>
      <trkpt lat="48.2195" lon="-3.17037">
        <ele>144.39999389648</ele>
        <time>2020-10-19T11:03:53.000Z</time>
      </trkpt>
      <trkpt lat="48.21951" lon="-3.17038">
        <ele>144.39999389648</ele>
        <time>2020-10-19T11:03:54.000Z</time>
      </trkpt>
      <trkpt lat="48.21951" lon="-3.17038">
        <ele>144.39999389648</ele>
        <time>2020-10-19T11:03:55.000Z</time>
      </trkpt>
      <trkpt lat="48.21953" lon="-3.17039">
        <ele>144.39999389648</ele>
        <time>2020-10-19T11:03:56.000Z</time>
      </trkpt>
      <trkpt lat="48.21954" lon="-3.1704">
        <ele>144.39999389648</ele>
        <time>2020-10-19T11:03:57.000Z</time>
      </trkpt>
      <trkpt lat="48.21955" lon="-3.17041">
        <ele>144.39999389648</ele>
        <time>2020-10-19T11:03:58.000Z</time>
      </trkpt>
      <trkpt lat="48.21956" lon="-3.17042">
        <ele>144.39999389648</ele>
        <time>2020-10-19T11:03:59.000Z</time>
      </trkpt>
      <trkpt lat="48.21957" lon="-3.17043">
        <ele>144.39999389648</ele>
        <time>2020-10-19T11:04:00.000Z</time>
      </trkpt>
      <trkpt lat="48.21957" lon="-3.17044">
        <ele>144.39999389648</ele>
        <time>2020-10-19T11:04:01.000Z</time>
      </trkpt>
      <trkpt lat="48.21958" lon="-3.17045">
        <ele>144.39999389648</ele>
        <time>2020-10-19T11:04:02.000Z</time>
      </trkpt>
      <trkpt lat="48.21959" lon="-3.17046">
        <ele>144.39999389648</ele>
        <time>2020-10-19T11:04:03.000Z</time>
      </trkpt>
      <trkpt lat="48.21959" lon="-3.17047">
        <ele>144.60000610352</ele>
        <time>2020-10-19T11:04:04.000Z</time>
      </trkpt>
      <trkpt lat="48.2196" lon="-3.17048">
        <ele>144.60000610352</ele>
        <time>2020-10-19T11:04:05.000Z</time>
      </trkpt>
      <trkpt lat="48.2196" lon="-3.17049">
        <ele>144.60000610352</ele>
        <time>2020-10-19T11:04:06.000Z</time>
      </trkpt>
      <trkpt lat="48.21961" lon="-3.1705">
        <ele>144.60000610352</ele>
        <time>2020-10-19T11:04:07.000Z</time>
      </trkpt>
      <trkpt lat="48.21962" lon="-3.17051">
        <ele>144.80000305176</ele>
        <time>2020-10-19T11:04:08.000Z</time>
      </trkpt>
      <trkpt lat="48.21963" lon="-3.17054">
        <ele>144.80000305176</ele>
        <time>2020-10-19T11:04:09.000Z</time>
      </trkpt>
      <trkpt lat="48.21963" lon="-3.17054">
        <ele>144.80000305176</ele>
        <time>2020-10-19T11:04:10.000Z</time>
      </trkpt>
      <trkpt lat="48.21964" lon="-3.17055">
        <ele>145</ele>
        <time>2020-10-19T11:04:11.000Z</time>
      </trkpt>
      <trkpt lat="48.21965" lon="-3.17057">
        <ele>145</ele>
        <time>2020-10-19T11:04:12.000Z</time>
      </trkpt>
      <trkpt lat="48.21966" lon="-3.17058">
        <ele>145</ele>
        <time>2020-10-19T11:04:13.000Z</time>
      </trkpt>
      <trkpt lat="48.21966" lon="-3.17058">
        <ele>145</ele>
        <time>2020-10-19T11:04:14.000Z</time>
      </trkpt>
      <trkpt lat="48.21968" lon="-3.17059">
        <ele>144.80000305176</ele>
        <time>2020-10-19T11:04:15.000Z</time>
      </trkpt>
      <trkpt lat="48.21969" lon="-3.1706">
        <ele>144.80000305176</ele>
        <time>2020-10-19T11:04:16.000Z</time>
      </trkpt>
      <trkpt lat="48.21971" lon="-3.17061">
        <ele>144.60000610352</ele>
        <time>2020-10-19T11:04:17.000Z</time>
      </trkpt>
      <trkpt lat="48.21972" lon="-3.17062">
        <ele>144.60000610352</ele>
        <time>2020-10-19T11:04:18.000Z</time>
      </trkpt>
      <trkpt lat="48.21973" lon="-3.17062">
        <ele>144.39999389648</ele>
        <time>2020-10-19T11:04:19.000Z</time>
      </trkpt>
      <trkpt lat="48.21974" lon="-3.17063">
        <ele>144.39999389648</ele>
        <time>2020-10-19T11:04:20.000Z</time>
      </trkpt>
      <trkpt lat="48.21976" lon="-3.17064">
        <ele>144.19999694824</ele>
        <time>2020-10-19T11:04:21.000Z</time>
      </trkpt>
      <trkpt lat="48.21977" lon="-3.17065">
        <ele>144</ele>
        <time>2020-10-19T11:04:22.000Z</time>
      </trkpt>
      <trkpt lat="48.21979" lon="-3.17066">
        <ele>144</ele>
        <time>2020-10-19T11:04:23.000Z</time>
      </trkpt>
      <trkpt lat="48.2198" lon="-3.17067">
        <ele>144</ele>
        <time>2020-10-19T11:04:24.000Z</time>
      </trkpt>
      <trkpt lat="48.21981" lon="-3.17067">
        <ele>143.80000305176</ele>
        <time>2020-10-19T11:04:25.000Z</time>
      </trkpt>
      <trkpt lat="48.21982" lon="-3.17068">
        <ele>143.80000305176</ele>
        <time>2020-10-19T11:04:26.000Z</time>
      </trkpt>
      <trkpt lat="48.21983" lon="-3.17069">
        <ele>143.60000610352</ele>
        <time>2020-10-19T11:04:27.000Z</time>
      </trkpt>
      <trkpt lat="48.21985" lon="-3.17071">
        <ele>143.60000610352</ele>
        <time>2020-10-19T11:04:28.000Z</time>
      </trkpt>
      <trkpt lat="48.21985" lon="-3.17071">
        <ele>143.60000610352</ele>
        <time>2020-10-19T11:04:29.000Z</time>
      </trkpt>
      <trkpt lat="48.21986" lon="-3.17072">
        <ele>143.39999389648</ele>
        <time>2020-10-19T11:04:30.000Z</time>
      </trkpt>
      <trkpt lat="48.21987" lon="-3.17073">
        <ele>143.39999389648</ele>
        <time>2020-10-19T11:04:31.000Z</time>
      </trkpt>
      <trkpt lat="48.21988" lon="-3.17074">
        <ele>143.39999389648</ele>
        <time>2020-10-19T11:04:32.000Z</time>
      </trkpt>
      <trkpt lat="48.21989" lon="-3.17075">
        <ele>143.39999389648</ele>
        <time>2020-10-19T11:04:33.000Z</time>
      </trkpt>
      <trkpt lat="48.2199" lon="-3.17076">
        <ele>143.39999389648</ele>
        <time>2020-10-19T11:04:34.000Z</time>
      </trkpt>
      <trkpt lat="48.21991" lon="-3.17077">
        <ele>143.39999389648</ele>
        <time>2020-10-19T11:04:35.000Z</time>
      </trkpt>
      <trkpt lat="48.21992" lon="-3.17078">
        <ele>143.19999694824</ele>
        <time>2020-10-19T11:04:36.000Z</time>
      </trkpt>
      <trkpt lat="48.21994" lon="-3.17079">
        <ele>143.19999694824</ele>
        <time>2020-10-19T11:04:37.000Z</time>
      </trkpt>
      <trkpt lat="48.21994" lon="-3.1708">
        <ele>143</ele>
        <time>2020-10-19T11:04:38.000Z</time>
      </trkpt>
      <trkpt lat="48.21996" lon="-3.17081">
        <ele>143</ele>
        <time>2020-10-19T11:04:39.000Z</time>
      </trkpt>
      <trkpt lat="48.21997" lon="-3.17082">
        <ele>143</ele>
        <time>2020-10-19T11:04:40.000Z</time>
      </trkpt>
      <trkpt lat="48.21998" lon="-3.17083">
        <ele>142.80000305176</ele>
        <time>2020-10-19T11:04:41.000Z</time>
      </trkpt>
      <trkpt lat="48.22" lon="-3.17084">
        <ele>142.80000305176</ele>
        <time>2020-10-19T11:04:42.000Z</time>
      </trkpt>
      <trkpt lat="48.22001" lon="-3.17085">
        <ele>142.60000610352</ele>
        <time>2020-10-19T11:04:43.000Z</time>
      </trkpt>
      <trkpt lat="48.22002" lon="-3.17086">
        <ele>142.60000610352</ele>
        <time>2020-10-19T11:04:44.000Z</time>
      </trkpt>
      <trkpt lat="48.22003" lon="-3.17087">
        <ele>142.60000610352</ele>
        <time>2020-10-19T11:04:45.000Z</time>
      </trkpt>
      <trkpt lat="48.22004" lon="-3.17087">
        <ele>142.60000610352</ele>
        <time>2020-10-19T11:04:46.000Z</time>
      </trkpt>
      <trkpt lat="48.22005" lon="-3.17088">
        <ele>142.39999389648</ele>
        <time>2020-10-19T11:04:47.000Z</time>
      </trkpt>
      <trkpt lat="48.22006" lon="-3.17089">
        <ele>142.19999694824</ele>
        <time>2020-10-19T11:04:48.000Z</time>
      </trkpt>
      <trkpt lat="48.22007" lon="-3.17089">
        <ele>142.19999694824</ele>
        <time>2020-10-19T11:04:49.000Z</time>
      </trkpt>
      <trkpt lat="48.22008" lon="-3.1709">
        <ele>142.19999694824</ele>
        <time>2020-10-19T11:04:50.000Z</time>
      </trkpt>
      <trkpt lat="48.22009" lon="-3.17091">
        <ele>142.19999694824</ele>
        <time>2020-10-19T11:04:51.000Z</time>
      </trkpt>
      <trkpt lat="48.2201" lon="-3.17093">
        <ele>142</ele>
        <time>2020-10-19T11:04:52.000Z</time>
      </trkpt>
      <trkpt lat="48.22011" lon="-3.17094">
        <ele>142</ele>
        <time>2020-10-19T11:04:53.000Z</time>
      </trkpt>
      <trkpt lat="48.22012" lon="-3.17094">
        <ele>142</ele>
        <time>2020-10-19T11:04:54.000Z</time>
      </trkpt>
      <trkpt lat="48.22012" lon="-3.17095">
        <ele>142</ele>
        <time>2020-10-19T11:04:55.000Z</time>
      </trkpt>
      <trkpt lat="48.22012" lon="-3.17095">
        <ele>142</ele>
        <time>2020-10-19T11:04:56.000Z</time>
      </trkpt>
      <trkpt lat="48.22013" lon="-3.17096">
        <ele>142</ele>
        <time>2020-10-19T11:04:57.000Z</time>
      </trkpt>
      <trkpt lat="48.22014" lon="-3.17097">
        <ele>142</ele>
        <time>2020-10-19T11:04:58.000Z</time>
      </trkpt>
      <trkpt lat="48.22015" lon="-3.17097">
        <ele>142</ele>
        <time>2020-10-19T11:04:59.000Z</time>
      </trkpt>
      <trkpt lat="48.22016" lon="-3.17098">
        <ele>142</ele>
        <time>2020-10-19T11:05:00.000Z</time>
      </trkpt>
      <trkpt lat="48.22016" lon="-3.17098">
        <ele>142</ele>
        <time>2020-10-19T11:05:01.000Z</time>
      </trkpt>
      <trkpt lat="48.22017" lon="-3.17099">
        <ele>142</ele>
        <time>2020-10-19T11:05:02.000Z</time>
      </trkpt>
      <trkpt lat="48.22018" lon="-3.171">
        <ele>142</ele>
        <time>2020-10-19T11:05:03.000Z</time>
      </trkpt>
      <trkpt lat="48.22019" lon="-3.17101">
        <ele>142.19999694824</ele>
        <time>2020-10-19T11:05:04.000Z</time>
      </trkpt>
      <trkpt lat="48.2202" lon="-3.17102">
        <ele>142.19999694824</ele>
        <time>2020-10-19T11:05:05.000Z</time>
      </trkpt>
      <trkpt lat="48.22021" lon="-3.17102">
        <ele>142.19999694824</ele>
        <time>2020-10-19T11:05:06.000Z</time>
      </trkpt>
      <trkpt lat="48.22022" lon="-3.17103">
        <ele>142.19999694824</ele>
        <time>2020-10-19T11:05:07.000Z</time>
      </trkpt>
      <trkpt lat="48.22023" lon="-3.17104">
        <ele>142.19999694824</ele>
        <time>2020-10-19T11:05:08.000Z</time>
      </trkpt>
      <trkpt lat="48.22024" lon="-3.17105">
        <ele>142.19999694824</ele>
        <time>2020-10-19T11:05:09.000Z</time>
      </trkpt>
      <trkpt lat="48.22025" lon="-3.17106">
        <ele>142.19999694824</ele>
        <time>2020-10-19T11:05:10.000Z</time>
      </trkpt>
      <trkpt lat="48.22027" lon="-3.17106">
        <ele>142.19999694824</ele>
        <time>2020-10-19T11:05:11.000Z</time>
      </trkpt>
      <trkpt lat="48.22028" lon="-3.17107">
        <ele>142</ele>
        <time>2020-10-19T11:05:12.000Z</time>
      </trkpt>
      <trkpt lat="48.2203" lon="-3.17109">
        <ele>142</ele>
        <time>2020-10-19T11:05:13.000Z</time>
      </trkpt>
      <trkpt lat="48.2203" lon="-3.17109">
        <ele>142</ele>
        <time>2020-10-19T11:05:14.000Z</time>
      </trkpt>
      <trkpt lat="48.22032" lon="-3.17109">
        <ele>142</ele>
        <time>2020-10-19T11:05:15.000Z</time>
      </trkpt>
      <trkpt lat="48.22033" lon="-3.1711">
        <ele>142</ele>
        <time>2020-10-19T11:05:16.000Z</time>
      </trkpt>
      <trkpt lat="48.22034" lon="-3.1711">
        <ele>142</ele>
        <time>2020-10-19T11:05:17.000Z</time>
      </trkpt>
      <trkpt lat="48.22035" lon="-3.17111">
        <ele>142</ele>
        <time>2020-10-19T11:05:18.000Z</time>
      </trkpt>
      <trkpt lat="48.22037" lon="-3.17112">
        <ele>142</ele>
        <time>2020-10-19T11:05:19.000Z</time>
      </trkpt>
      <trkpt lat="48.22038" lon="-3.17113">
        <ele>142</ele>
        <time>2020-10-19T11:05:20.000Z</time>
      </trkpt>
      <trkpt lat="48.22038" lon="-3.17113">
        <ele>142</ele>
        <time>2020-10-19T11:05:21.000Z</time>
      </trkpt>
      <trkpt lat="48.22039" lon="-3.17114">
        <ele>142</ele>
        <time>2020-10-19T11:05:22.000Z</time>
      </trkpt>
      <trkpt lat="48.2204" lon="-3.17114">
        <ele>142</ele>
        <time>2020-10-19T11:05:23.000Z</time>
      </trkpt>
      <trkpt lat="48.22041" lon="-3.17115">
        <ele>142</ele>
        <time>2020-10-19T11:05:24.000Z</time>
      </trkpt>
      <trkpt lat="48.22042" lon="-3.17116">
        <ele>142</ele>
        <time>2020-10-19T11:05:25.000Z</time>
      </trkpt>
      <trkpt lat="48.22043" lon="-3.17116">
        <ele>142</ele>
        <time>2020-10-19T11:05:26.000Z</time>
      </trkpt>
      <trkpt lat="48.22044" lon="-3.17117">
        <ele>142</ele>
        <time>2020-10-19T11:05:27.000Z</time>
      </trkpt>
      <trkpt lat="48.22045" lon="-3.17118">
        <ele>142</ele>
        <time>2020-10-19T11:05:28.000Z</time>
      </trkpt>
      <trkpt lat="48.22046" lon="-3.17118">
        <ele>142</ele>
        <time>2020-10-19T11:05:29.000Z</time>
      </trkpt>
      <trkpt lat="48.22047" lon="-3.17119">
        <ele>142</ele>
        <time>2020-10-19T11:05:30.000Z</time>
      </trkpt>
      <trkpt lat="48.22048" lon="-3.1712">
        <ele>142</ele>
        <time>2020-10-19T11:05:31.000Z</time>
      </trkpt>
      <trkpt lat="48.2205" lon="-3.17121">
        <ele>142</ele>
        <time>2020-10-19T11:05:32.000Z</time>
      </trkpt>
      <trkpt lat="48.22051" lon="-3.17121">
        <ele>142</ele>
        <time>2020-10-19T11:05:33.000Z</time>
      </trkpt>
      <trkpt lat="48.22051" lon="-3.17122">
        <ele>142</ele>
        <time>2020-10-19T11:05:34.000Z</time>
      </trkpt>
      <trkpt lat="48.22052" lon="-3.17123">
        <ele>142</ele>
        <time>2020-10-19T11:05:35.000Z</time>
      </trkpt>
      <trkpt lat="48.22053" lon="-3.17123">
        <ele>142</ele>
        <time>2020-10-19T11:05:36.000Z</time>
      </trkpt>
      <trkpt lat="48.22054" lon="-3.17123">
        <ele>142</ele>
        <time>2020-10-19T11:05:37.000Z</time>
      </trkpt>
      <trkpt lat="48.22054" lon="-3.17123">
        <ele>141.80000305176</ele>
        <time>2020-10-19T11:05:38.000Z</time>
      </trkpt>
      <trkpt lat="48.22054" lon="-3.17123">
        <ele>141.80000305176</ele>
        <time>2020-10-19T11:05:39.000Z</time>
      </trkpt>
      <trkpt lat="48.22055" lon="-3.17123">
        <ele>141.80000305176</ele>
        <time>2020-10-19T11:05:40.000Z</time>
      </trkpt>
      <trkpt lat="48.22055" lon="-3.17123">
        <ele>141.80000305176</ele>
        <time>2020-10-19T11:05:41.000Z</time>
      </trkpt>
      <trkpt lat="48.22055" lon="-3.17123">
        <ele>141.80000305176</ele>
        <time>2020-10-19T11:05:42.000Z</time>
      </trkpt>
      <trkpt lat="48.22055" lon="-3.17123">
        <ele>141.80000305176</ele>
        <time>2020-10-19T11:05:43.000Z</time>
      </trkpt>
      <trkpt lat="48.22055" lon="-3.17123">
        <ele>141.80000305176</ele>
        <time>2020-10-19T11:05:44.000Z</time>
      </trkpt>
      <trkpt lat="48.22055" lon="-3.17123">
        <ele>141.80000305176</ele>
        <time>2020-10-19T11:05:45.000Z</time>
      </trkpt>
      <trkpt lat="48.22056" lon="-3.17123">
        <ele>141.80000305176</ele>
        <time>2020-10-19T11:05:46.000Z</time>
      </trkpt>
      <trkpt lat="48.22056" lon="-3.17123">
        <ele>141.80000305176</ele>
        <time>2020-10-19T11:05:47.000Z</time>
      </trkpt>
      <trkpt lat="48.22057" lon="-3.17123">
        <ele>141.80000305176</ele>
        <time>2020-10-19T11:05:48.000Z</time>
      </trkpt>
      <trkpt lat="48.22057" lon="-3.17123">
        <ele>141.80000305176</ele>
        <time>2020-10-19T11:05:49.000Z</time>
      </trkpt>
      <trkpt lat="48.22057" lon="-3.17123">
        <ele>141.60000610352</ele>
        <time>2020-10-19T11:05:50.000Z</time>
      </trkpt>
      <trkpt lat="48.22058" lon="-3.17123">
        <ele>141.60000610352</ele>
        <time>2020-10-19T11:05:51.000Z</time>
      </trkpt>
      <trkpt lat="48.22058" lon="-3.17124">
        <ele>141.60000610352</ele>
        <time>2020-10-19T11:05:52.000Z</time>
      </trkpt>
      <trkpt lat="48.22058" lon="-3.17124">
        <ele>141.60000610352</ele>
        <time>2020-10-19T11:05:53.000Z</time>
      </trkpt>
      <trkpt lat="48.22058" lon="-3.17124">
        <ele>141.80000305176</ele>
        <time>2020-10-19T11:05:54.000Z</time>
      </trkpt>
      <trkpt lat="48.22058" lon="-3.17124">
        <ele>141.80000305176</ele>
        <time>2020-10-19T11:05:55.000Z</time>
      </trkpt>
      <trkpt lat="48.22059" lon="-3.17125">
        <ele>141.80000305176</ele>
        <time>2020-10-19T11:05:56.000Z</time>
      </trkpt>
      <trkpt lat="48.22059" lon="-3.17125">
        <ele>141.80000305176</ele>
        <time>2020-10-19T11:05:57.000Z</time>
      </trkpt>
      <trkpt lat="48.22059" lon="-3.17125">
        <ele>141.80000305176</ele>
        <time>2020-10-19T11:05:58.000Z</time>
      </trkpt>
      <trkpt lat="48.22059" lon="-3.17126">
        <ele>141.80000305176</ele>
        <time>2020-10-19T11:05:59.000Z</time>
      </trkpt>
      <trkpt lat="48.22059" lon="-3.17126">
        <ele>141.80000305176</ele>
        <time>2020-10-19T11:06:00.000Z</time>
      </trkpt>
      <trkpt lat="48.22059" lon="-3.17127">
        <ele>141.80000305176</ele>
        <time>2020-10-19T11:06:01.000Z</time>
      </trkpt>
      <trkpt lat="48.22059" lon="-3.17127">
        <ele>141.80000305176</ele>
        <time>2020-10-19T11:06:02.000Z</time>
      </trkpt>
      <trkpt lat="48.2206" lon="-3.17127">
        <ele>141.80000305176</ele>
        <time>2020-10-19T11:06:03.000Z</time>
      </trkpt>
      <trkpt lat="48.2206" lon="-3.17127">
        <ele>141.80000305176</ele>
        <time>2020-10-19T11:06:04.000Z</time>
      </trkpt>
      <trkpt lat="48.2206" lon="-3.17127">
        <ele>141.80000305176</ele>
        <time>2020-10-19T11:06:05.000Z</time>
      </trkpt>
      <trkpt lat="48.2206" lon="-3.17127">
        <ele>141.80000305176</ele>
        <time>2020-10-19T11:06:06.000Z</time>
      </trkpt>
      <trkpt lat="48.2206" lon="-3.17127">
        <ele>141.80000305176</ele>
        <time>2020-10-19T11:06:07.000Z</time>
      </trkpt>
      <trkpt lat="48.22061" lon="-3.17127">
        <ele>141.80000305176</ele>
        <time>2020-10-19T11:06:08.000Z</time>
      </trkpt>
      <trkpt lat="48.22061" lon="-3.17128">
        <ele>141.80000305176</ele>
        <time>2020-10-19T11:06:09.000Z</time>
      </trkpt>
      <trkpt lat="48.22061" lon="-3.17128">
        <ele>141.80000305176</ele>
        <time>2020-10-19T11:06:10.000Z</time>
      </trkpt>
      <trkpt lat="48.22062" lon="-3.17128">
        <ele>141.80000305176</ele>
        <time>2020-10-19T11:06:11.000Z</time>
      </trkpt>
      <trkpt lat="48.22062" lon="-3.17128">
        <ele>141.80000305176</ele>
        <time>2020-10-19T11:06:12.000Z</time>
      </trkpt>
      <trkpt lat="48.22063" lon="-3.17129">
        <ele>141.80000305176</ele>
        <time>2020-10-19T11:06:13.000Z</time>
      </trkpt>
      <trkpt lat="48.22064" lon="-3.1713">
        <ele>141.60000610352</ele>
        <time>2020-10-19T11:06:14.000Z</time>
      </trkpt>
      <trkpt lat="48.22065" lon="-3.1713">
        <ele>141.60000610352</ele>
        <time>2020-10-19T11:06:15.000Z</time>
      </trkpt>
      <trkpt lat="48.22065" lon="-3.17131">
        <ele>141.60000610352</ele>
        <time>2020-10-19T11:06:16.000Z</time>
      </trkpt>
      <trkpt lat="48.22065" lon="-3.17131">
        <ele>141.60000610352</ele>
        <time>2020-10-19T11:06:17.000Z</time>
      </trkpt>
      <trkpt lat="48.22066" lon="-3.17131">
        <ele>141.60000610352</ele>
        <time>2020-10-19T11:06:18.000Z</time>
      </trkpt>
      <trkpt lat="48.22066" lon="-3.17131">
        <ele>141.60000610352</ele>
        <time>2020-10-19T11:06:19.000Z</time>
      </trkpt>
      <trkpt lat="48.22066" lon="-3.17132">
        <ele>141.60000610352</ele>
        <time>2020-10-19T11:06:20.000Z</time>
      </trkpt>
      <trkpt lat="48.22066" lon="-3.17132">
        <ele>141.60000610352</ele>
        <time>2020-10-19T11:06:21.000Z</time>
      </trkpt>
      <trkpt lat="48.22066" lon="-3.17132">
        <ele>141.60000610352</ele>
        <time>2020-10-19T11:06:22.000Z</time>
      </trkpt>
      <trkpt lat="48.22066" lon="-3.17132">
        <ele>141.60000610352</ele>
        <time>2020-10-19T11:06:23.000Z</time>
      </trkpt>
      <trkpt lat="48.22066" lon="-3.17132">
        <ele>141.60000610352</ele>
        <time>2020-10-19T11:06:24.000Z</time>
      </trkpt>
      <trkpt lat="48.22065" lon="-3.17133">
        <ele>141.60000610352</ele>
        <time>2020-10-19T11:06:25.000Z</time>
      </trkpt>
      <trkpt lat="48.22066" lon="-3.17133">
        <ele>141.60000610352</ele>
        <time>2020-10-19T11:06:26.000Z</time>
      </trkpt>
      <trkpt lat="48.22066" lon="-3.17134">
        <ele>141.60000610352</ele>
        <time>2020-10-19T11:06:27.000Z</time>
      </trkpt>
      <trkpt lat="48.22067" lon="-3.17134">
        <ele>141.60000610352</ele>
        <time>2020-10-19T11:06:28.000Z</time>
      </trkpt>
      <trkpt lat="48.22068" lon="-3.17135">
        <ele>141.39999389648</ele>
        <time>2020-10-19T11:06:29.000Z</time>
      </trkpt>
      <trkpt lat="48.22069" lon="-3.17136">
        <ele>141.39999389648</ele>
        <time>2020-10-19T11:06:30.000Z</time>
      </trkpt>
      <trkpt lat="48.22069" lon="-3.17137">
        <ele>141.39999389648</ele>
        <time>2020-10-19T11:06:31.000Z</time>
      </trkpt>
      <trkpt lat="48.2207" lon="-3.17137">
        <ele>141.19999694824</ele>
        <time>2020-10-19T11:06:32.000Z</time>
      </trkpt>
      <trkpt lat="48.22071" lon="-3.17137">
        <ele>141.19999694824</ele>
        <time>2020-10-19T11:06:33.000Z</time>
      </trkpt>
      <trkpt lat="48.22071" lon="-3.17138">
        <ele>141.19999694824</ele>
        <time>2020-10-19T11:06:34.000Z</time>
      </trkpt>
      <trkpt lat="48.22072" lon="-3.17138">
        <ele>141</ele>
        <time>2020-10-19T11:06:35.000Z</time>
      </trkpt>
      <trkpt lat="48.22073" lon="-3.17139">
        <ele>141</ele>
        <time>2020-10-19T11:06:36.000Z</time>
      </trkpt>
      <trkpt lat="48.22075" lon="-3.17139">
        <ele>140.80000305176</ele>
        <time>2020-10-19T11:06:37.000Z</time>
      </trkpt>
      <trkpt lat="48.22076" lon="-3.17139">
        <ele>140.60000610352</ele>
        <time>2020-10-19T11:06:38.000Z</time>
      </trkpt>
      <trkpt lat="48.22078" lon="-3.1714">
        <ele>140.60000610352</ele>
        <time>2020-10-19T11:06:39.000Z</time>
      </trkpt>
      <trkpt lat="48.22079" lon="-3.1714">
        <ele>140.39999389648</ele>
        <time>2020-10-19T11:06:40.000Z</time>
      </trkpt>
      <trkpt lat="48.2208" lon="-3.17141">
        <ele>140.39999389648</ele>
        <time>2020-10-19T11:06:41.000Z</time>
      </trkpt>
      <trkpt lat="48.2208" lon="-3.17142">
        <ele>140.39999389648</ele>
        <time>2020-10-19T11:06:42.000Z</time>
      </trkpt>
      <trkpt lat="48.22081" lon="-3.17142">
        <ele>140.19999694824</ele>
        <time>2020-10-19T11:06:43.000Z</time>
      </trkpt>
      <trkpt lat="48.22083" lon="-3.17143">
        <ele>140.19999694824</ele>
        <time>2020-10-19T11:06:44.000Z</time>
      </trkpt>
      <trkpt lat="48.22083" lon="-3.17143">
        <ele>140</ele>
        <time>2020-10-19T11:06:45.000Z</time>
      </trkpt>
      <trkpt lat="48.22084" lon="-3.17144">
        <ele>140</ele>
        <time>2020-10-19T11:06:46.000Z</time>
      </trkpt>
      <trkpt lat="48.22084" lon="-3.17145">
        <ele>140</ele>
        <time>2020-10-19T11:06:47.000Z</time>
      </trkpt>
      <trkpt lat="48.22085" lon="-3.17145">
        <ele>140</ele>
        <time>2020-10-19T11:06:48.000Z</time>
      </trkpt>
      <trkpt lat="48.22085" lon="-3.17146">
        <ele>140</ele>
        <time>2020-10-19T11:06:49.000Z</time>
      </trkpt>
      <trkpt lat="48.22086" lon="-3.17146">
        <ele>139.80000305176</ele>
        <time>2020-10-19T11:06:50.000Z</time>
      </trkpt>
      <trkpt lat="48.22087" lon="-3.17147">
        <ele>139.80000305176</ele>
        <time>2020-10-19T11:06:51.000Z</time>
      </trkpt>
      <trkpt lat="48.22088" lon="-3.17147">
        <ele>139.80000305176</ele>
        <time>2020-10-19T11:06:52.000Z</time>
      </trkpt>
      <trkpt lat="48.22089" lon="-3.17148">
        <ele>139.60000610352</ele>
        <time>2020-10-19T11:06:53.000Z</time>
      </trkpt>
      <trkpt lat="48.2209" lon="-3.17148">
        <ele>139.60000610352</ele>
        <time>2020-10-19T11:06:54.000Z</time>
      </trkpt>
      <trkpt lat="48.22091" lon="-3.17148">
        <ele>139.39999389648</ele>
        <time>2020-10-19T11:06:55.000Z</time>
      </trkpt>
      <trkpt lat="48.22093" lon="-3.17148">
        <ele>139.19999694824</ele>
        <time>2020-10-19T11:06:56.000Z</time>
      </trkpt>
      <trkpt lat="48.22094" lon="-3.17148">
        <ele>139</ele>
        <time>2020-10-19T11:06:57.000Z</time>
      </trkpt>
      <trkpt lat="48.22095" lon="-3.17148">
        <ele>139</ele>
        <time>2020-10-19T11:06:58.000Z</time>
      </trkpt>
      <trkpt lat="48.22095" lon="-3.17148">
        <ele>139</ele>
        <time>2020-10-19T11:06:59.000Z</time>
      </trkpt>
      <trkpt lat="48.22096" lon="-3.17149">
        <ele>139</ele>
        <time>2020-10-19T11:07:00.000Z</time>
      </trkpt>
      <trkpt lat="48.22097" lon="-3.17149">
        <ele>139</ele>
        <time>2020-10-19T11:07:01.000Z</time>
      </trkpt>
      <trkpt lat="48.22098" lon="-3.17149">
        <ele>139.19999694824</ele>
        <time>2020-10-19T11:07:02.000Z</time>
      </trkpt>
      <trkpt lat="48.221" lon="-3.17149">
        <ele>139.19999694824</ele>
        <time>2020-10-19T11:07:03.000Z</time>
      </trkpt>
      <trkpt lat="48.22102" lon="-3.1715">
        <ele>139.39999389648</ele>
        <time>2020-10-19T11:07:04.000Z</time>
      </trkpt>
      <trkpt lat="48.22102" lon="-3.1715">
        <ele>139.39999389648</ele>
        <time>2020-10-19T11:07:05.000Z</time>
      </trkpt>
      <trkpt lat="48.22103" lon="-3.1715">
        <ele>139.39999389648</ele>
        <time>2020-10-19T11:07:06.000Z</time>
      </trkpt>
      <trkpt lat="48.22104" lon="-3.17151">
        <ele>139.39999389648</ele>
        <time>2020-10-19T11:07:07.000Z</time>
      </trkpt>
      <trkpt lat="48.22105" lon="-3.17151">
        <ele>139.60000610352</ele>
        <time>2020-10-19T11:07:08.000Z</time>
      </trkpt>
      <trkpt lat="48.22106" lon="-3.17152">
        <ele>139.60000610352</ele>
        <time>2020-10-19T11:07:09.000Z</time>
      </trkpt>
      <trkpt lat="48.22107" lon="-3.17152">
        <ele>139.60000610352</ele>
        <time>2020-10-19T11:07:10.000Z</time>
      </trkpt>
      <trkpt lat="48.22108" lon="-3.17153">
        <ele>139.80000305176</ele>
        <time>2020-10-19T11:07:11.000Z</time>
      </trkpt>
      <trkpt lat="48.22109" lon="-3.17153">
        <ele>139.80000305176</ele>
        <time>2020-10-19T11:07:12.000Z</time>
      </trkpt>
      <trkpt lat="48.2211" lon="-3.17153">
        <ele>139.80000305176</ele>
        <time>2020-10-19T11:07:13.000Z</time>
      </trkpt>
      <trkpt lat="48.22111" lon="-3.17153">
        <ele>139.80000305176</ele>
        <time>2020-10-19T11:07:14.000Z</time>
      </trkpt>
      <trkpt lat="48.22112" lon="-3.17153">
        <ele>139.80000305176</ele>
        <time>2020-10-19T11:07:15.000Z</time>
      </trkpt>
      <trkpt lat="48.22113" lon="-3.17153">
        <ele>140</ele>
        <time>2020-10-19T11:07:16.000Z</time>
      </trkpt>
      <trkpt lat="48.22114" lon="-3.17153">
        <ele>140</ele>
        <time>2020-10-19T11:07:17.000Z</time>
      </trkpt>
      <trkpt lat="48.22115" lon="-3.17153">
        <ele>140</ele>
        <time>2020-10-19T11:07:18.000Z</time>
      </trkpt>
      <trkpt lat="48.22117" lon="-3.17153">
        <ele>140.19999694824</ele>
        <time>2020-10-19T11:07:19.000Z</time>
      </trkpt>
      <trkpt lat="48.22118" lon="-3.17153">
        <ele>140.19999694824</ele>
        <time>2020-10-19T11:07:20.000Z</time>
      </trkpt>
      <trkpt lat="48.22119" lon="-3.17153">
        <ele>140.19999694824</ele>
        <time>2020-10-19T11:07:21.000Z</time>
      </trkpt>
      <trkpt lat="48.2212" lon="-3.17153">
        <ele>140.19999694824</ele>
        <time>2020-10-19T11:07:22.000Z</time>
      </trkpt>
      <trkpt lat="48.22122" lon="-3.17153">
        <ele>140.19999694824</ele>
        <time>2020-10-19T11:07:23.000Z</time>
      </trkpt>
      <trkpt lat="48.22123" lon="-3.17153">
        <ele>140.19999694824</ele>
        <time>2020-10-19T11:07:24.000Z</time>
      </trkpt>
      <trkpt lat="48.22124" lon="-3.17153">
        <ele>140.19999694824</ele>
        <time>2020-10-19T11:07:25.000Z</time>
      </trkpt>
      <trkpt lat="48.22125" lon="-3.17153">
        <ele>140.19999694824</ele>
        <time>2020-10-19T11:07:26.000Z</time>
      </trkpt>
      <trkpt lat="48.22126" lon="-3.17153">
        <ele>140.19999694824</ele>
        <time>2020-10-19T11:07:27.000Z</time>
      </trkpt>
      <trkpt lat="48.22127" lon="-3.17153">
        <ele>140.19999694824</ele>
        <time>2020-10-19T11:07:28.000Z</time>
      </trkpt>
      <trkpt lat="48.22128" lon="-3.17153">
        <ele>140</ele>
        <time>2020-10-19T11:07:29.000Z</time>
      </trkpt>
      <trkpt lat="48.22129" lon="-3.17153">
        <ele>140</ele>
        <time>2020-10-19T11:07:30.000Z</time>
      </trkpt>
      <trkpt lat="48.22131" lon="-3.17153">
        <ele>140</ele>
        <time>2020-10-19T11:07:31.000Z</time>
      </trkpt>
      <trkpt lat="48.22132" lon="-3.17153">
        <ele>140</ele>
        <time>2020-10-19T11:07:32.000Z</time>
      </trkpt>
      <trkpt lat="48.22133" lon="-3.17153">
        <ele>140</ele>
        <time>2020-10-19T11:07:33.000Z</time>
      </trkpt>
      <trkpt lat="48.22134" lon="-3.17153">
        <ele>140</ele>
        <time>2020-10-19T11:07:34.000Z</time>
      </trkpt>
      <trkpt lat="48.22136" lon="-3.17153">
        <ele>140</ele>
        <time>2020-10-19T11:07:35.000Z</time>
      </trkpt>
      <trkpt lat="48.22138" lon="-3.17154">
        <ele>139.80000305176</ele>
        <time>2020-10-19T11:07:36.000Z</time>
      </trkpt>
      <trkpt lat="48.22139" lon="-3.17154">
        <ele>139.80000305176</ele>
        <time>2020-10-19T11:07:37.000Z</time>
      </trkpt>
      <trkpt lat="48.22141" lon="-3.17153">
        <ele>139.80000305176</ele>
        <time>2020-10-19T11:07:38.000Z</time>
      </trkpt>
      <trkpt lat="48.22141" lon="-3.17153">
        <ele>139.80000305176</ele>
        <time>2020-10-19T11:07:39.000Z</time>
      </trkpt>
      <trkpt lat="48.22142" lon="-3.17153">
        <ele>139.80000305176</ele>
        <time>2020-10-19T11:07:40.000Z</time>
      </trkpt>
      <trkpt lat="48.22142" lon="-3.17153">
        <ele>139.80000305176</ele>
        <time>2020-10-19T11:07:41.000Z</time>
      </trkpt>
      <trkpt lat="48.22143" lon="-3.17152">
        <ele>139.80000305176</ele>
        <time>2020-10-19T11:07:42.000Z</time>
      </trkpt>
      <trkpt lat="48.22144" lon="-3.17152">
        <ele>139.80000305176</ele>
        <time>2020-10-19T11:07:43.000Z</time>
      </trkpt>
      <trkpt lat="48.22145" lon="-3.17152">
        <ele>139.80000305176</ele>
        <time>2020-10-19T11:07:44.000Z</time>
      </trkpt>
      <trkpt lat="48.22146" lon="-3.17151">
        <ele>139.80000305176</ele>
        <time>2020-10-19T11:07:45.000Z</time>
      </trkpt>
      <trkpt lat="48.22147" lon="-3.17151">
        <ele>139.80000305176</ele>
        <time>2020-10-19T11:07:46.000Z</time>
      </trkpt>
      <trkpt lat="48.22148" lon="-3.17151">
        <ele>139.60000610352</ele>
        <time>2020-10-19T11:07:47.000Z</time>
      </trkpt>
      <trkpt lat="48.22149" lon="-3.17151">
        <ele>139.60000610352</ele>
        <time>2020-10-19T11:07:48.000Z</time>
      </trkpt>
      <trkpt lat="48.2215" lon="-3.17151">
        <ele>139.60000610352</ele>
        <time>2020-10-19T11:07:49.000Z</time>
      </trkpt>
      <trkpt lat="48.22151" lon="-3.17151">
        <ele>139.60000610352</ele>
        <time>2020-10-19T11:07:50.000Z</time>
      </trkpt>
      <trkpt lat="48.22152" lon="-3.17151">
        <ele>139.60000610352</ele>
        <time>2020-10-19T11:07:51.000Z</time>
      </trkpt>
      <trkpt lat="48.22152" lon="-3.17151">
        <ele>139.60000610352</ele>
        <time>2020-10-19T11:07:52.000Z</time>
      </trkpt>
      <trkpt lat="48.22153" lon="-3.17151">
        <ele>139.60000610352</ele>
        <time>2020-10-19T11:07:53.000Z</time>
      </trkpt>
      <trkpt lat="48.22154" lon="-3.17151">
        <ele>139.60000610352</ele>
        <time>2020-10-19T11:07:54.000Z</time>
      </trkpt>
      <trkpt lat="48.22156" lon="-3.17151">
        <ele>139.60000610352</ele>
        <time>2020-10-19T11:07:55.000Z</time>
      </trkpt>
      <trkpt lat="48.22157" lon="-3.17151">
        <ele>139.39999389648</ele>
        <time>2020-10-19T11:07:56.000Z</time>
      </trkpt>
      <trkpt lat="48.2216" lon="-3.17151">
        <ele>139.39999389648</ele>
        <time>2020-10-19T11:07:57.000Z</time>
      </trkpt>
      <trkpt lat="48.22161" lon="-3.17151">
        <ele>139.39999389648</ele>
        <time>2020-10-19T11:07:58.000Z</time>
      </trkpt>
      <trkpt lat="48.22163" lon="-3.17151">
        <ele>139.39999389648</ele>
        <time>2020-10-19T11:07:59.000Z</time>
      </trkpt>
      <trkpt lat="48.22165" lon="-3.17151">
        <ele>139.19999694824</ele>
        <time>2020-10-19T11:08:00.000Z</time>
      </trkpt>
      <trkpt lat="48.22166" lon="-3.17151">
        <ele>139.19999694824</ele>
        <time>2020-10-19T11:08:01.000Z</time>
      </trkpt>
      <trkpt lat="48.22168" lon="-3.17151">
        <ele>139.19999694824</ele>
        <time>2020-10-19T11:08:02.000Z</time>
      </trkpt>
      <trkpt lat="48.2217" lon="-3.17151">
        <ele>139.19999694824</ele>
        <time>2020-10-19T11:08:03.000Z</time>
      </trkpt>
      <trkpt lat="48.22171" lon="-3.17151">
        <ele>139.19999694824</ele>
        <time>2020-10-19T11:08:04.000Z</time>
      </trkpt>
      <trkpt lat="48.22172" lon="-3.17151">
        <ele>139.19999694824</ele>
        <time>2020-10-19T11:08:05.000Z</time>
      </trkpt>
      <trkpt lat="48.22174" lon="-3.17152">
        <ele>139</ele>
        <time>2020-10-19T11:08:06.000Z</time>
      </trkpt>
      <trkpt lat="48.22174" lon="-3.17152">
        <ele>139</ele>
        <time>2020-10-19T11:08:07.000Z</time>
      </trkpt>
      <trkpt lat="48.22175" lon="-3.17152">
        <ele>139</ele>
        <time>2020-10-19T11:08:08.000Z</time>
      </trkpt>
      <trkpt lat="48.22176" lon="-3.17152">
        <ele>139</ele>
        <time>2020-10-19T11:08:09.000Z</time>
      </trkpt>
      <trkpt lat="48.22177" lon="-3.17152">
        <ele>139</ele>
        <time>2020-10-19T11:08:10.000Z</time>
      </trkpt>
      <trkpt lat="48.22178" lon="-3.17152">
        <ele>139</ele>
        <time>2020-10-19T11:08:11.000Z</time>
      </trkpt>
      <trkpt lat="48.22179" lon="-3.17152">
        <ele>139</ele>
        <time>2020-10-19T11:08:12.000Z</time>
      </trkpt>
      <trkpt lat="48.2218" lon="-3.17152">
        <ele>139</ele>
        <time>2020-10-19T11:08:13.000Z</time>
      </trkpt>
      <trkpt lat="48.22181" lon="-3.17152">
        <ele>139.19999694824</ele>
        <time>2020-10-19T11:08:14.000Z</time>
      </trkpt>
      <trkpt lat="48.22182" lon="-3.17152">
        <ele>139.19999694824</ele>
        <time>2020-10-19T11:08:15.000Z</time>
      </trkpt>
      <trkpt lat="48.22183" lon="-3.17152">
        <ele>139.19999694824</ele>
        <time>2020-10-19T11:08:16.000Z</time>
      </trkpt>
      <trkpt lat="48.22184" lon="-3.17152">
        <ele>139.39999389648</ele>
        <time>2020-10-19T11:08:17.000Z</time>
      </trkpt>
      <trkpt lat="48.22185" lon="-3.17152">
        <ele>139.39999389648</ele>
        <time>2020-10-19T11:08:18.000Z</time>
      </trkpt>
      <trkpt lat="48.22186" lon="-3.17153">
        <ele>139.60000610352</ele>
        <time>2020-10-19T11:08:19.000Z</time>
      </trkpt>
      <trkpt lat="48.22188" lon="-3.17153">
        <ele>139.60000610352</ele>
        <time>2020-10-19T11:08:20.000Z</time>
      </trkpt>
      <trkpt lat="48.2219" lon="-3.17154">
        <ele>139.80000305176</ele>
        <time>2020-10-19T11:08:21.000Z</time>
      </trkpt>
      <trkpt lat="48.2219" lon="-3.17154">
        <ele>139.80000305176</ele>
        <time>2020-10-19T11:08:22.000Z</time>
      </trkpt>
      <trkpt lat="48.22191" lon="-3.17154">
        <ele>140</ele>
        <time>2020-10-19T11:08:23.000Z</time>
      </trkpt>
      <trkpt lat="48.22193" lon="-3.17154">
        <ele>140</ele>
        <time>2020-10-19T11:08:24.000Z</time>
      </trkpt>
      <trkpt lat="48.22194" lon="-3.17154">
        <ele>140.19999694824</ele>
        <time>2020-10-19T11:08:25.000Z</time>
      </trkpt>
      <trkpt lat="48.22195" lon="-3.17155">
        <ele>140.19999694824</ele>
        <time>2020-10-19T11:08:26.000Z</time>
      </trkpt>
      <trkpt lat="48.22196" lon="-3.17155">
        <ele>140.19999694824</ele>
        <time>2020-10-19T11:08:27.000Z</time>
      </trkpt>
      <trkpt lat="48.22198" lon="-3.17155">
        <ele>140.39999389648</ele>
        <time>2020-10-19T11:08:28.000Z</time>
      </trkpt>
      <trkpt lat="48.22198" lon="-3.17155">
        <ele>140.39999389648</ele>
        <time>2020-10-19T11:08:29.000Z</time>
      </trkpt>
      <trkpt lat="48.22199" lon="-3.17155">
        <ele>140.60000610352</ele>
        <time>2020-10-19T11:08:30.000Z</time>
      </trkpt>
      <trkpt lat="48.222" lon="-3.17156">
        <ele>140.60000610352</ele>
        <time>2020-10-19T11:08:31.000Z</time>
      </trkpt>
      <trkpt lat="48.22201" lon="-3.17156">
        <ele>140.60000610352</ele>
        <time>2020-10-19T11:08:32.000Z</time>
      </trkpt>
      <trkpt lat="48.22202" lon="-3.17156">
        <ele>140.60000610352</ele>
        <time>2020-10-19T11:08:33.000Z</time>
      </trkpt>
      <trkpt lat="48.22204" lon="-3.17156">
        <ele>140.39999389648</ele>
        <time>2020-10-19T11:08:34.000Z</time>
      </trkpt>
      <trkpt lat="48.22204" lon="-3.17157">
        <ele>140.39999389648</ele>
        <time>2020-10-19T11:08:35.000Z</time>
      </trkpt>
      <trkpt lat="48.22206" lon="-3.17157">
        <ele>140.39999389648</ele>
        <time>2020-10-19T11:08:36.000Z</time>
      </trkpt>
      <trkpt lat="48.22207" lon="-3.17157">
        <ele>140.19999694824</ele>
        <time>2020-10-19T11:08:37.000Z</time>
      </trkpt>
      <trkpt lat="48.22208" lon="-3.17158">
        <ele>140.19999694824</ele>
        <time>2020-10-19T11:08:38.000Z</time>
      </trkpt>
      <trkpt lat="48.22209" lon="-3.17158">
        <ele>140</ele>
        <time>2020-10-19T11:08:39.000Z</time>
      </trkpt>
      <trkpt lat="48.2221" lon="-3.17158">
        <ele>140</ele>
        <time>2020-10-19T11:08:40.000Z</time>
      </trkpt>
      <trkpt lat="48.22211" lon="-3.17158">
        <ele>140</ele>
        <time>2020-10-19T11:08:41.000Z</time>
      </trkpt>
      <trkpt lat="48.22212" lon="-3.17158">
        <ele>139.80000305176</ele>
        <time>2020-10-19T11:08:42.000Z</time>
      </trkpt>
      <trkpt lat="48.22213" lon="-3.17158">
        <ele>139.80000305176</ele>
        <time>2020-10-19T11:08:43.000Z</time>
      </trkpt>
      <trkpt lat="48.22214" lon="-3.17159">
        <ele>139.80000305176</ele>
        <time>2020-10-19T11:08:44.000Z</time>
      </trkpt>
      <trkpt lat="48.22216" lon="-3.17159">
        <ele>139.60000610352</ele>
        <time>2020-10-19T11:08:45.000Z</time>
      </trkpt>
      <trkpt lat="48.22217" lon="-3.17159">
        <ele>139.60000610352</ele>
        <time>2020-10-19T11:08:46.000Z</time>
      </trkpt>
      <trkpt lat="48.22218" lon="-3.17159">
        <ele>139.39999389648</ele>
        <time>2020-10-19T11:08:47.000Z</time>
      </trkpt>
      <trkpt lat="48.22219" lon="-3.1716">
        <ele>139.39999389648</ele>
        <time>2020-10-19T11:08:48.000Z</time>
      </trkpt>
      <trkpt lat="48.22221" lon="-3.1716">
        <ele>139.19999694824</ele>
        <time>2020-10-19T11:08:49.000Z</time>
      </trkpt>
      <trkpt lat="48.22222" lon="-3.1716">
        <ele>139.19999694824</ele>
        <time>2020-10-19T11:08:50.000Z</time>
      </trkpt>
      <trkpt lat="48.22222" lon="-3.17159">
        <ele>139.19999694824</ele>
        <time>2020-10-19T11:08:51.000Z</time>
      </trkpt>
      <trkpt lat="48.22224" lon="-3.1716">
        <ele>139.19999694824</ele>
        <time>2020-10-19T11:08:52.000Z</time>
      </trkpt>
      <trkpt lat="48.22225" lon="-3.1716">
        <ele>139</ele>
        <time>2020-10-19T11:08:53.000Z</time>
      </trkpt>
      <trkpt lat="48.22227" lon="-3.1716">
        <ele>139</ele>
        <time>2020-10-19T11:08:54.000Z</time>
      </trkpt>
      <trkpt lat="48.22229" lon="-3.17161">
        <ele>138.80000305176</ele>
        <time>2020-10-19T11:08:55.000Z</time>
      </trkpt>
      <trkpt lat="48.2223" lon="-3.17161">
        <ele>138.80000305176</ele>
        <time>2020-10-19T11:08:56.000Z</time>
      </trkpt>
      <trkpt lat="48.22232" lon="-3.17162">
        <ele>138.60000610352</ele>
        <time>2020-10-19T11:08:57.000Z</time>
      </trkpt>
      <trkpt lat="48.22233" lon="-3.17162">
        <ele>138.60000610352</ele>
        <time>2020-10-19T11:08:58.000Z</time>
      </trkpt>
      <trkpt lat="48.22234" lon="-3.17162">
        <ele>138.39999389648</ele>
        <time>2020-10-19T11:08:59.000Z</time>
      </trkpt>
      <trkpt lat="48.22236" lon="-3.17163">
        <ele>138.39999389648</ele>
        <time>2020-10-19T11:09:00.000Z</time>
      </trkpt>
      <trkpt lat="48.22237" lon="-3.17163">
        <ele>138.19999694824</ele>
        <time>2020-10-19T11:09:01.000Z</time>
      </trkpt>
      <trkpt lat="48.22238" lon="-3.17163">
        <ele>138.19999694824</ele>
        <time>2020-10-19T11:09:02.000Z</time>
      </trkpt>
      <trkpt lat="48.22239" lon="-3.17164">
        <ele>138</ele>
        <time>2020-10-19T11:09:03.000Z</time>
      </trkpt>
      <trkpt lat="48.2224" lon="-3.17164">
        <ele>138</ele>
        <time>2020-10-19T11:09:04.000Z</time>
      </trkpt>
      <trkpt lat="48.22241" lon="-3.17164">
        <ele>137.80000305176</ele>
        <time>2020-10-19T11:09:05.000Z</time>
      </trkpt>
      <trkpt lat="48.22243" lon="-3.17165">
        <ele>137.80000305176</ele>
        <time>2020-10-19T11:09:06.000Z</time>
      </trkpt>
      <trkpt lat="48.22244" lon="-3.17165">
        <ele>137.60000610352</ele>
        <time>2020-10-19T11:09:07.000Z</time>
      </trkpt>
      <trkpt lat="48.22245" lon="-3.17166">
        <ele>137.60000610352</ele>
        <time>2020-10-19T11:09:08.000Z</time>
      </trkpt>
      <trkpt lat="48.22246" lon="-3.17166">
        <ele>137.39999389648</ele>
        <time>2020-10-19T11:09:09.000Z</time>
      </trkpt>
      <trkpt lat="48.22248" lon="-3.17166">
        <ele>137.39999389648</ele>
        <time>2020-10-19T11:09:10.000Z</time>
      </trkpt>
      <trkpt lat="48.22249" lon="-3.17166">
        <ele>137.19999694824</ele>
        <time>2020-10-19T11:09:11.000Z</time>
      </trkpt>
      <trkpt lat="48.2225" lon="-3.17167">
        <ele>137.19999694824</ele>
        <time>2020-10-19T11:09:12.000Z</time>
      </trkpt>
      <trkpt lat="48.22252" lon="-3.17167">
        <ele>137</ele>
        <time>2020-10-19T11:09:13.000Z</time>
      </trkpt>
      <trkpt lat="48.22252" lon="-3.17167">
        <ele>137</ele>
        <time>2020-10-19T11:09:14.000Z</time>
      </trkpt>
      <trkpt lat="48.22253" lon="-3.17167">
        <ele>137</ele>
        <time>2020-10-19T11:09:15.000Z</time>
      </trkpt>
      <trkpt lat="48.22254" lon="-3.17167">
        <ele>137</ele>
        <time>2020-10-19T11:09:16.000Z</time>
      </trkpt>
      <trkpt lat="48.22255" lon="-3.17168">
        <ele>136.80000305176</ele>
        <time>2020-10-19T11:09:17.000Z</time>
      </trkpt>
      <trkpt lat="48.22256" lon="-3.17167">
        <ele>136.80000305176</ele>
        <time>2020-10-19T11:09:18.000Z</time>
      </trkpt>
      <trkpt lat="48.22257" lon="-3.17167">
        <ele>136.80000305176</ele>
        <time>2020-10-19T11:09:19.000Z</time>
      </trkpt>
      <trkpt lat="48.22257" lon="-3.17167">
        <ele>136.80000305176</ele>
        <time>2020-10-19T11:09:20.000Z</time>
      </trkpt>
      <trkpt lat="48.22258" lon="-3.17167">
        <ele>136.80000305176</ele>
        <time>2020-10-19T11:09:21.000Z</time>
      </trkpt>
      <trkpt lat="48.22259" lon="-3.17167">
        <ele>136.80000305176</ele>
        <time>2020-10-19T11:09:22.000Z</time>
      </trkpt>
      <trkpt lat="48.22261" lon="-3.17167">
        <ele>136.80000305176</ele>
        <time>2020-10-19T11:09:23.000Z</time>
      </trkpt>
      <trkpt lat="48.22261" lon="-3.17166">
        <ele>136.80000305176</ele>
        <time>2020-10-19T11:09:24.000Z</time>
      </trkpt>
      <trkpt lat="48.22262" lon="-3.17165">
        <ele>137</ele>
        <time>2020-10-19T11:09:25.000Z</time>
      </trkpt>
      <trkpt lat="48.22263" lon="-3.17165">
        <ele>137</ele>
        <time>2020-10-19T11:09:26.000Z</time>
      </trkpt>
      <trkpt lat="48.22265" lon="-3.17165">
        <ele>137.19999694824</ele>
        <time>2020-10-19T11:09:27.000Z</time>
      </trkpt>
      <trkpt lat="48.22266" lon="-3.17165">
        <ele>137.19999694824</ele>
        <time>2020-10-19T11:09:28.000Z</time>
      </trkpt>
      <trkpt lat="48.22267" lon="-3.17165">
        <ele>137.39999389648</ele>
        <time>2020-10-19T11:09:29.000Z</time>
      </trkpt>
      <trkpt lat="48.22268" lon="-3.17166">
        <ele>137.39999389648</ele>
        <time>2020-10-19T11:09:30.000Z</time>
      </trkpt>
      <trkpt lat="48.22269" lon="-3.17166">
        <ele>137.60000610352</ele>
        <time>2020-10-19T11:09:31.000Z</time>
      </trkpt>
      <trkpt lat="48.22271" lon="-3.17166">
        <ele>137.60000610352</ele>
        <time>2020-10-19T11:09:32.000Z</time>
      </trkpt>
      <trkpt lat="48.22271" lon="-3.17166">
        <ele>137.60000610352</ele>
        <time>2020-10-19T11:09:33.000Z</time>
      </trkpt>
      <trkpt lat="48.22272" lon="-3.17166">
        <ele>137.80000305176</ele>
        <time>2020-10-19T11:09:34.000Z</time>
      </trkpt>
      <trkpt lat="48.22273" lon="-3.17166">
        <ele>137.80000305176</ele>
        <time>2020-10-19T11:09:35.000Z</time>
      </trkpt>
      <trkpt lat="48.22274" lon="-3.17166">
        <ele>138</ele>
        <time>2020-10-19T11:09:36.000Z</time>
      </trkpt>
      <trkpt lat="48.22276" lon="-3.17166">
        <ele>137.80000305176</ele>
        <time>2020-10-19T11:09:37.000Z</time>
      </trkpt>
      <trkpt lat="48.22277" lon="-3.17166">
        <ele>138</ele>
        <time>2020-10-19T11:09:38.000Z</time>
      </trkpt>
      <trkpt lat="48.22278" lon="-3.17166">
        <ele>137.80000305176</ele>
        <time>2020-10-19T11:09:39.000Z</time>
      </trkpt>
      <trkpt lat="48.22279" lon="-3.17166">
        <ele>137.80000305176</ele>
        <time>2020-10-19T11:09:40.000Z</time>
      </trkpt>
      <trkpt lat="48.2228" lon="-3.17167">
        <ele>137.80000305176</ele>
        <time>2020-10-19T11:09:41.000Z</time>
      </trkpt>
      <trkpt lat="48.22281" lon="-3.17167">
        <ele>137.80000305176</ele>
        <time>2020-10-19T11:09:42.000Z</time>
      </trkpt>
      <trkpt lat="48.22282" lon="-3.17167">
        <ele>137.80000305176</ele>
        <time>2020-10-19T11:09:43.000Z</time>
      </trkpt>
      <trkpt lat="48.22283" lon="-3.17167">
        <ele>137.80000305176</ele>
        <time>2020-10-19T11:09:44.000Z</time>
      </trkpt>
      <trkpt lat="48.22284" lon="-3.17167">
        <ele>138</ele>
        <time>2020-10-19T11:09:45.000Z</time>
      </trkpt>
      <trkpt lat="48.22285" lon="-3.17167">
        <ele>137.80000305176</ele>
        <time>2020-10-19T11:09:46.000Z</time>
      </trkpt>
      <trkpt lat="48.22286" lon="-3.17167">
        <ele>137.80000305176</ele>
        <time>2020-10-19T11:09:47.000Z</time>
      </trkpt>
      <trkpt lat="48.22288" lon="-3.17168">
        <ele>137.80000305176</ele>
        <time>2020-10-19T11:09:48.000Z</time>
      </trkpt>
      <trkpt lat="48.22289" lon="-3.17168">
        <ele>137.80000305176</ele>
        <time>2020-10-19T11:09:49.000Z</time>
      </trkpt>
      <trkpt lat="48.22289" lon="-3.17168">
        <ele>137.80000305176</ele>
        <time>2020-10-19T11:09:50.000Z</time>
      </trkpt>
      <trkpt lat="48.2229" lon="-3.17169">
        <ele>137.60000610352</ele>
        <time>2020-10-19T11:09:51.000Z</time>
      </trkpt>
      <trkpt lat="48.22291" lon="-3.17169">
        <ele>137.60000610352</ele>
        <time>2020-10-19T11:09:52.000Z</time>
      </trkpt>
      <trkpt lat="48.22293" lon="-3.17169">
        <ele>137.60000610352</ele>
        <time>2020-10-19T11:09:53.000Z</time>
      </trkpt>
      <trkpt lat="48.22294" lon="-3.17169">
        <ele>137.60000610352</ele>
        <time>2020-10-19T11:09:54.000Z</time>
      </trkpt>
      <trkpt lat="48.22295" lon="-3.17169">
        <ele>137.60000610352</ele>
        <time>2020-10-19T11:09:55.000Z</time>
      </trkpt>
      <trkpt lat="48.22296" lon="-3.17169">
        <ele>137.60000610352</ele>
        <time>2020-10-19T11:09:56.000Z</time>
      </trkpt>
      <trkpt lat="48.22297" lon="-3.17169">
        <ele>137.60000610352</ele>
        <time>2020-10-19T11:09:57.000Z</time>
      </trkpt>
      <trkpt lat="48.22297" lon="-3.17169">
        <ele>137.60000610352</ele>
        <time>2020-10-19T11:09:58.000Z</time>
      </trkpt>
      <trkpt lat="48.22298" lon="-3.1717">
        <ele>137.60000610352</ele>
        <time>2020-10-19T11:09:59.000Z</time>
      </trkpt>
      <trkpt lat="48.22299" lon="-3.17169">
        <ele>137.60000610352</ele>
        <time>2020-10-19T11:10:00.000Z</time>
      </trkpt>
      <trkpt lat="48.22299" lon="-3.17169">
        <ele>137.80000305176</ele>
        <time>2020-10-19T11:10:01.000Z</time>
      </trkpt>
      <trkpt lat="48.22301" lon="-3.1717">
        <ele>137.60000610352</ele>
        <time>2020-10-19T11:10:02.000Z</time>
      </trkpt>
      <trkpt lat="48.22301" lon="-3.1717">
        <ele>137.60000610352</ele>
        <time>2020-10-19T11:10:03.000Z</time>
      </trkpt>
      <trkpt lat="48.22302" lon="-3.1717">
        <ele>137.60000610352</ele>
        <time>2020-10-19T11:10:04.000Z</time>
      </trkpt>
      <trkpt lat="48.22303" lon="-3.17171">
        <ele>137.60000610352</ele>
        <time>2020-10-19T11:10:05.000Z</time>
      </trkpt>
      <trkpt lat="48.22304" lon="-3.17171">
        <ele>137.39999389648</ele>
        <time>2020-10-19T11:10:06.000Z</time>
      </trkpt>
      <trkpt lat="48.22306" lon="-3.17172">
        <ele>137.19999694824</ele>
        <time>2020-10-19T11:10:07.000Z</time>
      </trkpt>
      <trkpt lat="48.22306" lon="-3.17172">
        <ele>137.19999694824</ele>
        <time>2020-10-19T11:10:08.000Z</time>
      </trkpt>
      <trkpt lat="48.22308" lon="-3.17173">
        <ele>137.19999694824</ele>
        <time>2020-10-19T11:10:09.000Z</time>
      </trkpt>
      <trkpt lat="48.22309" lon="-3.17173">
        <ele>137</ele>
        <time>2020-10-19T11:10:10.000Z</time>
      </trkpt>
      <trkpt lat="48.2231" lon="-3.17174">
        <ele>137</ele>
        <time>2020-10-19T11:10:11.000Z</time>
      </trkpt>
      <trkpt lat="48.22311" lon="-3.17175">
        <ele>136.80000305176</ele>
        <time>2020-10-19T11:10:12.000Z</time>
      </trkpt>
      <trkpt lat="48.22312" lon="-3.17175">
        <ele>136.80000305176</ele>
        <time>2020-10-19T11:10:13.000Z</time>
      </trkpt>
      <trkpt lat="48.22313" lon="-3.17176">
        <ele>136.80000305176</ele>
        <time>2020-10-19T11:10:14.000Z</time>
      </trkpt>
      <trkpt lat="48.22314" lon="-3.17176">
        <ele>136.60000610352</ele>
        <time>2020-10-19T11:10:15.000Z</time>
      </trkpt>
      <trkpt lat="48.22316" lon="-3.17176">
        <ele>136.60000610352</ele>
        <time>2020-10-19T11:10:16.000Z</time>
      </trkpt>
      <trkpt lat="48.22317" lon="-3.17176">
        <ele>136.60000610352</ele>
        <time>2020-10-19T11:10:17.000Z</time>
      </trkpt>
      <trkpt lat="48.22318" lon="-3.17177">
        <ele>136.60000610352</ele>
        <time>2020-10-19T11:10:18.000Z</time>
      </trkpt>
      <trkpt lat="48.22319" lon="-3.17178">
        <ele>136.39999389648</ele>
        <time>2020-10-19T11:10:19.000Z</time>
      </trkpt>
      <trkpt lat="48.2232" lon="-3.17178">
        <ele>136.39999389648</ele>
        <time>2020-10-19T11:10:20.000Z</time>
      </trkpt>
      <trkpt lat="48.22321" lon="-3.17178">
        <ele>136.39999389648</ele>
        <time>2020-10-19T11:10:21.000Z</time>
      </trkpt>
      <trkpt lat="48.22322" lon="-3.17179">
        <ele>136.39999389648</ele>
        <time>2020-10-19T11:10:22.000Z</time>
      </trkpt>
      <trkpt lat="48.22324" lon="-3.17179">
        <ele>136.60000610352</ele>
        <time>2020-10-19T11:10:23.000Z</time>
      </trkpt>
      <trkpt lat="48.22325" lon="-3.1718">
        <ele>136.60000610352</ele>
        <time>2020-10-19T11:10:24.000Z</time>
      </trkpt>
      <trkpt lat="48.22327" lon="-3.1718">
        <ele>136.60000610352</ele>
        <time>2020-10-19T11:10:25.000Z</time>
      </trkpt>
      <trkpt lat="48.22329" lon="-3.17181">
        <ele>136.60000610352</ele>
        <time>2020-10-19T11:10:26.000Z</time>
      </trkpt>
      <trkpt lat="48.22331" lon="-3.17181">
        <ele>136.80000305176</ele>
        <time>2020-10-19T11:10:27.000Z</time>
      </trkpt>
      <trkpt lat="48.22333" lon="-3.17182">
        <ele>136.80000305176</ele>
        <time>2020-10-19T11:10:28.000Z</time>
      </trkpt>
      <trkpt lat="48.22334" lon="-3.17182">
        <ele>136.80000305176</ele>
        <time>2020-10-19T11:10:29.000Z</time>
      </trkpt>
      <trkpt lat="48.22336" lon="-3.17183">
        <ele>136.80000305176</ele>
        <time>2020-10-19T11:10:30.000Z</time>
      </trkpt>
      <trkpt lat="48.22337" lon="-3.17183">
        <ele>137</ele>
        <time>2020-10-19T11:10:31.000Z</time>
      </trkpt>
      <trkpt lat="48.22339" lon="-3.17183">
        <ele>137</ele>
        <time>2020-10-19T11:10:32.000Z</time>
      </trkpt>
      <trkpt lat="48.2234" lon="-3.17184">
        <ele>137</ele>
        <time>2020-10-19T11:10:33.000Z</time>
      </trkpt>
      <trkpt lat="48.22341" lon="-3.17184">
        <ele>137</ele>
        <time>2020-10-19T11:10:34.000Z</time>
      </trkpt>
      <trkpt lat="48.22342" lon="-3.17184">
        <ele>136.80000305176</ele>
        <time>2020-10-19T11:10:35.000Z</time>
      </trkpt>
      <trkpt lat="48.22343" lon="-3.17184">
        <ele>136.80000305176</ele>
        <time>2020-10-19T11:10:36.000Z</time>
      </trkpt>
      <trkpt lat="48.22344" lon="-3.17184">
        <ele>136.80000305176</ele>
        <time>2020-10-19T11:10:37.000Z</time>
      </trkpt>
      <trkpt lat="48.22345" lon="-3.17184">
        <ele>136.60000610352</ele>
        <time>2020-10-19T11:10:38.000Z</time>
      </trkpt>
      <trkpt lat="48.22346" lon="-3.17185">
        <ele>136.60000610352</ele>
        <time>2020-10-19T11:10:39.000Z</time>
      </trkpt>
      <trkpt lat="48.22347" lon="-3.17185">
        <ele>136.60000610352</ele>
        <time>2020-10-19T11:10:40.000Z</time>
      </trkpt>
      <trkpt lat="48.22349" lon="-3.17185">
        <ele>136.80000305176</ele>
        <time>2020-10-19T11:10:41.000Z</time>
      </trkpt>
      <trkpt lat="48.2235" lon="-3.17185">
        <ele>136.80000305176</ele>
        <time>2020-10-19T11:10:42.000Z</time>
      </trkpt>
      <trkpt lat="48.22352" lon="-3.17185">
        <ele>136.80000305176</ele>
        <time>2020-10-19T11:10:43.000Z</time>
      </trkpt>
      <trkpt lat="48.22353" lon="-3.17185">
        <ele>136.80000305176</ele>
        <time>2020-10-19T11:10:44.000Z</time>
      </trkpt>
      <trkpt lat="48.22355" lon="-3.17186">
        <ele>136.80000305176</ele>
        <time>2020-10-19T11:10:45.000Z</time>
      </trkpt>
      <trkpt lat="48.22357" lon="-3.17186">
        <ele>136.80000305176</ele>
        <time>2020-10-19T11:10:46.000Z</time>
      </trkpt>
      <trkpt lat="48.22357" lon="-3.17186">
        <ele>136.80000305176</ele>
        <time>2020-10-19T11:10:47.000Z</time>
      </trkpt>
      <trkpt lat="48.22359" lon="-3.17186">
        <ele>136.80000305176</ele>
        <time>2020-10-19T11:10:48.000Z</time>
      </trkpt>
      <trkpt lat="48.2236" lon="-3.17187">
        <ele>136.80000305176</ele>
        <time>2020-10-19T11:10:49.000Z</time>
      </trkpt>
      <trkpt lat="48.22361" lon="-3.17187">
        <ele>136.80000305176</ele>
        <time>2020-10-19T11:10:50.000Z</time>
      </trkpt>
      <trkpt lat="48.22362" lon="-3.17188">
        <ele>136.80000305176</ele>
        <time>2020-10-19T11:10:51.000Z</time>
      </trkpt>
      <trkpt lat="48.22364" lon="-3.17188">
        <ele>136.80000305176</ele>
        <time>2020-10-19T11:10:52.000Z</time>
      </trkpt>
      <trkpt lat="48.22365" lon="-3.17189">
        <ele>136.80000305176</ele>
        <time>2020-10-19T11:10:53.000Z</time>
      </trkpt>
      <trkpt lat="48.22366" lon="-3.17189">
        <ele>136.80000305176</ele>
        <time>2020-10-19T11:10:54.000Z</time>
      </trkpt>
      <trkpt lat="48.22368" lon="-3.17189">
        <ele>136.80000305176</ele>
        <time>2020-10-19T11:10:55.000Z</time>
      </trkpt>
      <trkpt lat="48.22369" lon="-3.17189">
        <ele>136.80000305176</ele>
        <time>2020-10-19T11:10:56.000Z</time>
      </trkpt>
      <trkpt lat="48.2237" lon="-3.1719">
        <ele>136.80000305176</ele>
        <time>2020-10-19T11:10:57.000Z</time>
      </trkpt>
      <trkpt lat="48.22371" lon="-3.1719">
        <ele>136.60000610352</ele>
        <time>2020-10-19T11:10:58.000Z</time>
      </trkpt>
      <trkpt lat="48.22372" lon="-3.17191">
        <ele>136.60000610352</ele>
        <time>2020-10-19T11:10:59.000Z</time>
      </trkpt>
      <trkpt lat="48.22373" lon="-3.17192">
        <ele>136.60000610352</ele>
        <time>2020-10-19T11:11:00.000Z</time>
      </trkpt>
      <trkpt lat="48.22374" lon="-3.17192">
        <ele>136.60000610352</ele>
        <time>2020-10-19T11:11:01.000Z</time>
      </trkpt>
      <trkpt lat="48.22375" lon="-3.17193">
        <ele>136.60000610352</ele>
        <time>2020-10-19T11:11:02.000Z</time>
      </trkpt>
      <trkpt lat="48.22376" lon="-3.17193">
        <ele>136.60000610352</ele>
        <time>2020-10-19T11:11:03.000Z</time>
      </trkpt>
      <trkpt lat="48.22377" lon="-3.17194">
        <ele>136.60000610352</ele>
        <time>2020-10-19T11:11:04.000Z</time>
      </trkpt>
      <trkpt lat="48.22377" lon="-3.17194">
        <ele>136.60000610352</ele>
        <time>2020-10-19T11:11:05.000Z</time>
      </trkpt>
      <trkpt lat="48.22379" lon="-3.17195">
        <ele>136.60000610352</ele>
        <time>2020-10-19T11:11:06.000Z</time>
      </trkpt>
      <trkpt lat="48.22379" lon="-3.17196">
        <ele>136.60000610352</ele>
        <time>2020-10-19T11:11:07.000Z</time>
      </trkpt>
      <trkpt lat="48.2238" lon="-3.17196">
        <ele>136.60000610352</ele>
        <time>2020-10-19T11:11:08.000Z</time>
      </trkpt>
      <trkpt lat="48.2238" lon="-3.17197">
        <ele>136.60000610352</ele>
        <time>2020-10-19T11:11:09.000Z</time>
      </trkpt>
      <trkpt lat="48.22381" lon="-3.17198">
        <ele>136.39999389648</ele>
        <time>2020-10-19T11:11:10.000Z</time>
      </trkpt>
      <trkpt lat="48.22381" lon="-3.17199">
        <ele>136.39999389648</ele>
        <time>2020-10-19T11:11:11.000Z</time>
      </trkpt>
      <trkpt lat="48.22382" lon="-3.17199">
        <ele>136.39999389648</ele>
        <time>2020-10-19T11:11:12.000Z</time>
      </trkpt>
      <trkpt lat="48.22383" lon="-3.172">
        <ele>136.39999389648</ele>
        <time>2020-10-19T11:11:13.000Z</time>
      </trkpt>
      <trkpt lat="48.22384" lon="-3.17201">
        <ele>136.39999389648</ele>
        <time>2020-10-19T11:11:14.000Z</time>
      </trkpt>
      <trkpt lat="48.22384" lon="-3.17202">
        <ele>136.19999694824</ele>
        <time>2020-10-19T11:11:15.000Z</time>
      </trkpt>
      <trkpt lat="48.22385" lon="-3.17204">
        <ele>136.19999694824</ele>
        <time>2020-10-19T11:11:16.000Z</time>
      </trkpt>
      <trkpt lat="48.22386" lon="-3.17205">
        <ele>136.19999694824</ele>
        <time>2020-10-19T11:11:17.000Z</time>
      </trkpt>
      <trkpt lat="48.22388" lon="-3.17206">
        <ele>136.19999694824</ele>
        <time>2020-10-19T11:11:18.000Z</time>
      </trkpt>
      <trkpt lat="48.22389" lon="-3.17207">
        <ele>136.19999694824</ele>
        <time>2020-10-19T11:11:19.000Z</time>
      </trkpt>
      <trkpt lat="48.2239" lon="-3.17208">
        <ele>136.19999694824</ele>
        <time>2020-10-19T11:11:20.000Z</time>
      </trkpt>
      <trkpt lat="48.22391" lon="-3.17209">
        <ele>136</ele>
        <time>2020-10-19T11:11:21.000Z</time>
      </trkpt>
      <trkpt lat="48.22392" lon="-3.1721">
        <ele>136</ele>
        <time>2020-10-19T11:11:22.000Z</time>
      </trkpt>
      <trkpt lat="48.22393" lon="-3.17211">
        <ele>136</ele>
        <time>2020-10-19T11:11:23.000Z</time>
      </trkpt>
      <trkpt lat="48.22394" lon="-3.17212">
        <ele>136</ele>
        <time>2020-10-19T11:11:24.000Z</time>
      </trkpt>
      <trkpt lat="48.22396" lon="-3.17213">
        <ele>135.80000305176</ele>
        <time>2020-10-19T11:11:25.000Z</time>
      </trkpt>
      <trkpt lat="48.22397" lon="-3.17215">
        <ele>135.80000305176</ele>
        <time>2020-10-19T11:11:26.000Z</time>
      </trkpt>
      <trkpt lat="48.22398" lon="-3.17216">
        <ele>135.80000305176</ele>
        <time>2020-10-19T11:11:27.000Z</time>
      </trkpt>
      <trkpt lat="48.224" lon="-3.17217">
        <ele>135.60000610352</ele>
        <time>2020-10-19T11:11:28.000Z</time>
      </trkpt>
      <trkpt lat="48.22401" lon="-3.17219">
        <ele>135.60000610352</ele>
        <time>2020-10-19T11:11:29.000Z</time>
      </trkpt>
      <trkpt lat="48.22402" lon="-3.1722">
        <ele>135.39999389648</ele>
        <time>2020-10-19T11:11:30.000Z</time>
      </trkpt>
      <trkpt lat="48.22403" lon="-3.17222">
        <ele>135.39999389648</ele>
        <time>2020-10-19T11:11:31.000Z</time>
      </trkpt>
      <trkpt lat="48.22405" lon="-3.17223">
        <ele>135.19999694824</ele>
        <time>2020-10-19T11:11:32.000Z</time>
      </trkpt>
      <trkpt lat="48.22406" lon="-3.17224">
        <ele>135.19999694824</ele>
        <time>2020-10-19T11:11:33.000Z</time>
      </trkpt>
      <trkpt lat="48.22407" lon="-3.17225">
        <ele>135.19999694824</ele>
        <time>2020-10-19T11:11:34.000Z</time>
      </trkpt>
      <trkpt lat="48.22408" lon="-3.17226">
        <ele>135.19999694824</ele>
        <time>2020-10-19T11:11:35.000Z</time>
      </trkpt>
      <trkpt lat="48.22409" lon="-3.17227">
        <ele>135</ele>
        <time>2020-10-19T11:11:36.000Z</time>
      </trkpt>
      <trkpt lat="48.2241" lon="-3.17228">
        <ele>135</ele>
        <time>2020-10-19T11:11:37.000Z</time>
      </trkpt>
      <trkpt lat="48.22411" lon="-3.17229">
        <ele>135</ele>
        <time>2020-10-19T11:11:38.000Z</time>
      </trkpt>
      <trkpt lat="48.22412" lon="-3.1723">
        <ele>134.80000305176</ele>
        <time>2020-10-19T11:11:39.000Z</time>
      </trkpt>
      <trkpt lat="48.22413" lon="-3.17231">
        <ele>134.80000305176</ele>
        <time>2020-10-19T11:11:40.000Z</time>
      </trkpt>
      <trkpt lat="48.22414" lon="-3.17232">
        <ele>134.80000305176</ele>
        <time>2020-10-19T11:11:41.000Z</time>
      </trkpt>
      <trkpt lat="48.22415" lon="-3.17233">
        <ele>134.60000610352</ele>
        <time>2020-10-19T11:11:42.000Z</time>
      </trkpt>
      <trkpt lat="48.22416" lon="-3.17234">
        <ele>134.60000610352</ele>
        <time>2020-10-19T11:11:43.000Z</time>
      </trkpt>
      <trkpt lat="48.22417" lon="-3.17235">
        <ele>134.60000610352</ele>
        <time>2020-10-19T11:11:44.000Z</time>
      </trkpt>
      <trkpt lat="48.22418" lon="-3.17236">
        <ele>134.39999389648</ele>
        <time>2020-10-19T11:11:45.000Z</time>
      </trkpt>
      <trkpt lat="48.22419" lon="-3.17237">
        <ele>134.39999389648</ele>
        <time>2020-10-19T11:11:46.000Z</time>
      </trkpt>
      <trkpt lat="48.2242" lon="-3.17238">
        <ele>134.39999389648</ele>
        <time>2020-10-19T11:11:47.000Z</time>
      </trkpt>
      <trkpt lat="48.2242" lon="-3.17239">
        <ele>134.39999389648</ele>
        <time>2020-10-19T11:11:48.000Z</time>
      </trkpt>
      <trkpt lat="48.22421" lon="-3.1724">
        <ele>134.19999694824</ele>
        <time>2020-10-19T11:11:49.000Z</time>
      </trkpt>
      <trkpt lat="48.22422" lon="-3.17242">
        <ele>134.19999694824</ele>
        <time>2020-10-19T11:11:50.000Z</time>
      </trkpt>
      <trkpt lat="48.22422" lon="-3.17243">
        <ele>134.19999694824</ele>
        <time>2020-10-19T11:11:51.000Z</time>
      </trkpt>
      <trkpt lat="48.22423" lon="-3.17244">
        <ele>134</ele>
        <time>2020-10-19T11:11:52.000Z</time>
      </trkpt>
      <trkpt lat="48.22424" lon="-3.17244">
        <ele>134</ele>
        <time>2020-10-19T11:11:53.000Z</time>
      </trkpt>
      <trkpt lat="48.22425" lon="-3.17245">
        <ele>134</ele>
        <time>2020-10-19T11:11:54.000Z</time>
      </trkpt>
      <trkpt lat="48.22425" lon="-3.17246">
        <ele>134</ele>
        <time>2020-10-19T11:11:55.000Z</time>
      </trkpt>
      <trkpt lat="48.22426" lon="-3.17247">
        <ele>133.80000305176</ele>
        <time>2020-10-19T11:11:56.000Z</time>
      </trkpt>
      <trkpt lat="48.22427" lon="-3.17248">
        <ele>133.80000305176</ele>
        <time>2020-10-19T11:11:57.000Z</time>
      </trkpt>
      <trkpt lat="48.22428" lon="-3.17249">
        <ele>133.80000305176</ele>
        <time>2020-10-19T11:11:58.000Z</time>
      </trkpt>
      <trkpt lat="48.2243" lon="-3.1725">
        <ele>133.60000610352</ele>
        <time>2020-10-19T11:11:59.000Z</time>
      </trkpt>
      <trkpt lat="48.22431" lon="-3.17252">
        <ele>133.60000610352</ele>
        <time>2020-10-19T11:12:00.000Z</time>
      </trkpt>
      <trkpt lat="48.22432" lon="-3.17253">
        <ele>133.60000610352</ele>
        <time>2020-10-19T11:12:01.000Z</time>
      </trkpt>
      <trkpt lat="48.22433" lon="-3.17254">
        <ele>133.60000610352</ele>
        <time>2020-10-19T11:12:02.000Z</time>
      </trkpt>
      <trkpt lat="48.22434" lon="-3.17255">
        <ele>133.60000610352</ele>
        <time>2020-10-19T11:12:03.000Z</time>
      </trkpt>
      <trkpt lat="48.22436" lon="-3.17256">
        <ele>133.39999389648</ele>
        <time>2020-10-19T11:12:04.000Z</time>
      </trkpt>
      <trkpt lat="48.22437" lon="-3.17257">
        <ele>133.19999694824</ele>
        <time>2020-10-19T11:12:05.000Z</time>
      </trkpt>
      <trkpt lat="48.22439" lon="-3.17258">
        <ele>133.19999694824</ele>
        <time>2020-10-19T11:12:06.000Z</time>
      </trkpt>
      <trkpt lat="48.22439" lon="-3.1726">
        <ele>133</ele>
        <time>2020-10-19T11:12:07.000Z</time>
      </trkpt>
      <trkpt lat="48.2244" lon="-3.17262">
        <ele>132.80000305176</ele>
        <time>2020-10-19T11:12:08.000Z</time>
      </trkpt>
      <trkpt lat="48.22441" lon="-3.17263">
        <ele>132.80000305176</ele>
        <time>2020-10-19T11:12:09.000Z</time>
      </trkpt>
      <trkpt lat="48.22442" lon="-3.17265">
        <ele>132.80000305176</ele>
        <time>2020-10-19T11:12:10.000Z</time>
      </trkpt>
      <trkpt lat="48.22443" lon="-3.17267">
        <ele>132.60000610352</ele>
        <time>2020-10-19T11:12:11.000Z</time>
      </trkpt>
      <trkpt lat="48.22444" lon="-3.17268">
        <ele>132.60000610352</ele>
        <time>2020-10-19T11:12:12.000Z</time>
      </trkpt>
      <trkpt lat="48.22445" lon="-3.17269">
        <ele>132.60000610352</ele>
        <time>2020-10-19T11:12:13.000Z</time>
      </trkpt>
      <trkpt lat="48.22446" lon="-3.17271">
        <ele>132.60000610352</ele>
        <time>2020-10-19T11:12:14.000Z</time>
      </trkpt>
      <trkpt lat="48.22448" lon="-3.17273">
        <ele>132.39999389648</ele>
        <time>2020-10-19T11:12:15.000Z</time>
      </trkpt>
      <trkpt lat="48.22448" lon="-3.17273">
        <ele>132.39999389648</ele>
        <time>2020-10-19T11:12:16.000Z</time>
      </trkpt>
      <trkpt lat="48.22448" lon="-3.17274">
        <ele>132.39999389648</ele>
        <time>2020-10-19T11:12:17.000Z</time>
      </trkpt>
      <trkpt lat="48.22449" lon="-3.17275">
        <ele>132.39999389648</ele>
        <time>2020-10-19T11:12:18.000Z</time>
      </trkpt>
      <trkpt lat="48.2245" lon="-3.17276">
        <ele>132.39999389648</ele>
        <time>2020-10-19T11:12:19.000Z</time>
      </trkpt>
      <trkpt lat="48.22451" lon="-3.17277">
        <ele>132.39999389648</ele>
        <time>2020-10-19T11:12:20.000Z</time>
      </trkpt>
      <trkpt lat="48.22451" lon="-3.17278">
        <ele>132.39999389648</ele>
        <time>2020-10-19T11:12:21.000Z</time>
      </trkpt>
      <trkpt lat="48.22452" lon="-3.17279">
        <ele>132.19999694824</ele>
        <time>2020-10-19T11:12:22.000Z</time>
      </trkpt>
      <trkpt lat="48.22453" lon="-3.1728">
        <ele>132.19999694824</ele>
        <time>2020-10-19T11:12:23.000Z</time>
      </trkpt>
      <trkpt lat="48.22454" lon="-3.17281">
        <ele>132.19999694824</ele>
        <time>2020-10-19T11:12:24.000Z</time>
      </trkpt>
      <trkpt lat="48.22455" lon="-3.17282">
        <ele>132.19999694824</ele>
        <time>2020-10-19T11:12:25.000Z</time>
      </trkpt>
      <trkpt lat="48.22455" lon="-3.17284">
        <ele>132.19999694824</ele>
        <time>2020-10-19T11:12:26.000Z</time>
      </trkpt>
      <trkpt lat="48.22457" lon="-3.17285">
        <ele>132</ele>
        <time>2020-10-19T11:12:27.000Z</time>
      </trkpt>
      <trkpt lat="48.22459" lon="-3.17286">
        <ele>132</ele>
        <time>2020-10-19T11:12:28.000Z</time>
      </trkpt>
      <trkpt lat="48.2246" lon="-3.17287">
        <ele>132</ele>
        <time>2020-10-19T11:12:29.000Z</time>
      </trkpt>
      <trkpt lat="48.22461" lon="-3.17289">
        <ele>132</ele>
        <time>2020-10-19T11:12:30.000Z</time>
      </trkpt>
      <trkpt lat="48.22463" lon="-3.17289">
        <ele>132</ele>
        <time>2020-10-19T11:12:31.000Z</time>
      </trkpt>
      <trkpt lat="48.22464" lon="-3.1729">
        <ele>131.80000305176</ele>
        <time>2020-10-19T11:12:32.000Z</time>
      </trkpt>
      <trkpt lat="48.22464" lon="-3.17291">
        <ele>131.80000305176</ele>
        <time>2020-10-19T11:12:33.000Z</time>
      </trkpt>
      <trkpt lat="48.22464" lon="-3.17291">
        <ele>131.80000305176</ele>
        <time>2020-10-19T11:12:34.000Z</time>
      </trkpt>
      <trkpt lat="48.22465" lon="-3.17292">
        <ele>131.80000305176</ele>
        <time>2020-10-19T11:12:35.000Z</time>
      </trkpt>
      <trkpt lat="48.22465" lon="-3.17292">
        <ele>131.80000305176</ele>
        <time>2020-10-19T11:12:36.000Z</time>
      </trkpt>
      <trkpt lat="48.22466" lon="-3.17293">
        <ele>131.80000305176</ele>
        <time>2020-10-19T11:12:37.000Z</time>
      </trkpt>
      <trkpt lat="48.22467" lon="-3.17294">
        <ele>131.80000305176</ele>
        <time>2020-10-19T11:12:38.000Z</time>
      </trkpt>
      <trkpt lat="48.22467" lon="-3.17294">
        <ele>131.80000305176</ele>
        <time>2020-10-19T11:12:39.000Z</time>
      </trkpt>
      <trkpt lat="48.22468" lon="-3.17295">
        <ele>131.80000305176</ele>
        <time>2020-10-19T11:12:40.000Z</time>
      </trkpt>
      <trkpt lat="48.22468" lon="-3.17296">
        <ele>131.60000610352</ele>
        <time>2020-10-19T11:12:41.000Z</time>
      </trkpt>
      <trkpt lat="48.22469" lon="-3.17297">
        <ele>131.60000610352</ele>
        <time>2020-10-19T11:12:42.000Z</time>
      </trkpt>
      <trkpt lat="48.2247" lon="-3.17298">
        <ele>131.60000610352</ele>
        <time>2020-10-19T11:12:43.000Z</time>
      </trkpt>
      <trkpt lat="48.22471" lon="-3.17299">
        <ele>131.60000610352</ele>
        <time>2020-10-19T11:12:44.000Z</time>
      </trkpt>
      <trkpt lat="48.22471" lon="-3.173">
        <ele>131.60000610352</ele>
        <time>2020-10-19T11:12:45.000Z</time>
      </trkpt>
      <trkpt lat="48.22472" lon="-3.17302">
        <ele>131.60000610352</ele>
        <time>2020-10-19T11:12:46.000Z</time>
      </trkpt>
      <trkpt lat="48.22473" lon="-3.17303">
        <ele>131.60000610352</ele>
        <time>2020-10-19T11:12:47.000Z</time>
      </trkpt>
      <trkpt lat="48.22474" lon="-3.17304">
        <ele>131.60000610352</ele>
        <time>2020-10-19T11:12:48.000Z</time>
      </trkpt>
      <trkpt lat="48.22475" lon="-3.17305">
        <ele>131.60000610352</ele>
        <time>2020-10-19T11:12:49.000Z</time>
      </trkpt>
      <trkpt lat="48.22476" lon="-3.17306">
        <ele>131.60000610352</ele>
        <time>2020-10-19T11:12:50.000Z</time>
      </trkpt>
      <trkpt lat="48.22477" lon="-3.17308">
        <ele>131.60000610352</ele>
        <time>2020-10-19T11:12:51.000Z</time>
      </trkpt>
      <trkpt lat="48.22477" lon="-3.17308">
        <ele>131.60000610352</ele>
        <time>2020-10-19T11:12:52.000Z</time>
      </trkpt>
      <trkpt lat="48.22477" lon="-3.17309">
        <ele>131.60000610352</ele>
        <time>2020-10-19T11:12:53.000Z</time>
      </trkpt>
      <trkpt lat="48.22477" lon="-3.17309">
        <ele>131.60000610352</ele>
        <time>2020-10-19T11:12:54.000Z</time>
      </trkpt>
      <trkpt lat="48.22477" lon="-3.1731">
        <ele>131.60000610352</ele>
        <time>2020-10-19T11:12:55.000Z</time>
      </trkpt>
      <trkpt lat="48.22477" lon="-3.1731">
        <ele>131.60000610352</ele>
        <time>2020-10-19T11:12:56.000Z</time>
      </trkpt>
      <trkpt lat="48.22477" lon="-3.1731">
        <ele>131.60000610352</ele>
        <time>2020-10-19T11:12:57.000Z</time>
      </trkpt>
      <trkpt lat="48.22477" lon="-3.17311">
        <ele>131.60000610352</ele>
        <time>2020-10-19T11:12:58.000Z</time>
      </trkpt>
      <trkpt lat="48.22477" lon="-3.17311">
        <ele>131.60000610352</ele>
        <time>2020-10-19T11:12:59.000Z</time>
      </trkpt>
      <trkpt lat="48.22478" lon="-3.17312">
        <ele>131.60000610352</ele>
        <time>2020-10-19T11:13:00.000Z</time>
      </trkpt>
      <trkpt lat="48.22478" lon="-3.17312">
        <ele>131.60000610352</ele>
        <time>2020-10-19T11:13:01.000Z</time>
      </trkpt>
      <trkpt lat="48.22478" lon="-3.17313">
        <ele>131.60000610352</ele>
        <time>2020-10-19T11:13:02.000Z</time>
      </trkpt>
      <trkpt lat="48.22478" lon="-3.17314">
        <ele>131.60000610352</ele>
        <time>2020-10-19T11:13:03.000Z</time>
      </trkpt>
      <trkpt lat="48.22478" lon="-3.17315">
        <ele>131.60000610352</ele>
        <time>2020-10-19T11:13:04.000Z</time>
      </trkpt>
      <trkpt lat="48.22478" lon="-3.17315">
        <ele>131.60000610352</ele>
        <time>2020-10-19T11:13:05.000Z</time>
      </trkpt>
      <trkpt lat="48.22478" lon="-3.17315">
        <ele>131.60000610352</ele>
        <time>2020-10-19T11:13:06.000Z</time>
      </trkpt>
      <trkpt lat="48.22478" lon="-3.17315">
        <ele>131.60000610352</ele>
        <time>2020-10-19T11:13:07.000Z</time>
      </trkpt>
      <trkpt lat="48.22478" lon="-3.17315">
        <ele>131.60000610352</ele>
        <time>2020-10-19T11:13:08.000Z</time>
      </trkpt>
      <trkpt lat="48.22478" lon="-3.17315">
        <ele>131.60000610352</ele>
        <time>2020-10-19T11:13:09.000Z</time>
      </trkpt>
      <trkpt lat="48.22478" lon="-3.17315">
        <ele>131.60000610352</ele>
        <time>2020-10-19T11:13:10.000Z</time>
      </trkpt>
      <trkpt lat="48.22478" lon="-3.17315">
        <ele>131.60000610352</ele>
        <time>2020-10-19T11:13:11.000Z</time>
      </trkpt>
      <trkpt lat="48.22477" lon="-3.17315">
        <ele>131.60000610352</ele>
        <time>2020-10-19T11:13:12.000Z</time>
      </trkpt>
      <trkpt lat="48.22477" lon="-3.17315">
        <ele>131.60000610352</ele>
        <time>2020-10-19T11:13:13.000Z</time>
      </trkpt>
      <trkpt lat="48.22477" lon="-3.17315">
        <ele>131.60000610352</ele>
        <time>2020-10-19T11:13:14.000Z</time>
      </trkpt>
      <trkpt lat="48.22477" lon="-3.17315">
        <ele>131.60000610352</ele>
        <time>2020-10-19T11:13:15.000Z</time>
      </trkpt>
      <trkpt lat="48.22478" lon="-3.17315">
        <ele>131.60000610352</ele>
        <time>2020-10-19T11:13:16.000Z</time>
      </trkpt>
      <trkpt lat="48.22478" lon="-3.17315">
        <ele>131.60000610352</ele>
        <time>2020-10-19T11:13:17.000Z</time>
      </trkpt>
      <trkpt lat="48.22478" lon="-3.17316">
        <ele>131.60000610352</ele>
        <time>2020-10-19T11:13:18.000Z</time>
      </trkpt>
      <trkpt lat="48.22478" lon="-3.17316">
        <ele>131.60000610352</ele>
        <time>2020-10-19T11:13:19.000Z</time>
      </trkpt>
      <trkpt lat="48.22478" lon="-3.17316">
        <ele>131.60000610352</ele>
        <time>2020-10-19T11:13:20.000Z</time>
      </trkpt>
      <trkpt lat="48.22478" lon="-3.17316">
        <ele>131.60000610352</ele>
        <time>2020-10-19T11:13:21.000Z</time>
      </trkpt>
      <trkpt lat="48.22478" lon="-3.17316">
        <ele>131.60000610352</ele>
        <time>2020-10-19T11:13:22.000Z</time>
      </trkpt>
      <trkpt lat="48.22478" lon="-3.17316">
        <ele>131.60000610352</ele>
        <time>2020-10-19T11:13:23.000Z</time>
      </trkpt>
      <trkpt lat="48.22478" lon="-3.17316">
        <ele>131.60000610352</ele>
        <time>2020-10-19T11:13:24.000Z</time>
      </trkpt>
      <trkpt lat="48.22478" lon="-3.17316">
        <ele>131.60000610352</ele>
        <time>2020-10-19T11:13:25.000Z</time>
      </trkpt>
      <trkpt lat="48.22478" lon="-3.17316">
        <ele>131.60000610352</ele>
        <time>2020-10-19T11:13:26.000Z</time>
      </trkpt>
      <trkpt lat="48.22478" lon="-3.17316">
        <ele>131.60000610352</ele>
        <time>2020-10-19T11:13:27.000Z</time>
      </trkpt>
      <trkpt lat="48.22477" lon="-3.17316">
        <ele>131.60000610352</ele>
        <time>2020-10-19T11:13:28.000Z</time>
      </trkpt>
      <trkpt lat="48.22477" lon="-3.17316">
        <ele>131.60000610352</ele>
        <time>2020-10-19T11:13:29.000Z</time>
      </trkpt>
      <trkpt lat="48.22477" lon="-3.17316">
        <ele>131.60000610352</ele>
        <time>2020-10-19T11:13:30.000Z</time>
      </trkpt>
      <trkpt lat="48.22477" lon="-3.17316">
        <ele>131.60000610352</ele>
        <time>2020-10-19T11:13:31.000Z</time>
      </trkpt>
      <trkpt lat="48.22477" lon="-3.17316">
        <ele>131.60000610352</ele>
        <time>2020-10-19T11:13:32.000Z</time>
      </trkpt>
      <trkpt lat="48.22477" lon="-3.17316">
        <ele>131.60000610352</ele>
        <time>2020-10-19T11:13:33.000Z</time>
      </trkpt>
      <trkpt lat="48.22477" lon="-3.17316">
        <ele>131.60000610352</ele>
        <time>2020-10-19T11:13:34.000Z</time>
      </trkpt>
      <trkpt lat="48.22478" lon="-3.17316">
        <ele>131.60000610352</ele>
        <time>2020-10-19T11:13:35.000Z</time>
      </trkpt>
      <trkpt lat="48.22478" lon="-3.17316">
        <ele>131.60000610352</ele>
        <time>2020-10-19T11:13:36.000Z</time>
      </trkpt>
      <trkpt lat="48.22478" lon="-3.17316">
        <ele>131.60000610352</ele>
        <time>2020-10-19T11:13:37.000Z</time>
      </trkpt>
      <trkpt lat="48.22478" lon="-3.17317">
        <ele>131.60000610352</ele>
        <time>2020-10-19T11:13:38.000Z</time>
      </trkpt>
      <trkpt lat="48.22478" lon="-3.17316">
        <ele>131.60000610352</ele>
        <time>2020-10-19T11:13:39.000Z</time>
      </trkpt>
      <trkpt lat="48.22478" lon="-3.17316">
        <ele>131.60000610352</ele>
        <time>2020-10-19T11:13:40.000Z</time>
      </trkpt>
      <trkpt lat="48.22478" lon="-3.17316">
        <ele>131.60000610352</ele>
        <time>2020-10-19T11:13:41.000Z</time>
      </trkpt>
      <trkpt lat="48.22478" lon="-3.17316">
        <ele>131.60000610352</ele>
        <time>2020-10-19T11:13:42.000Z</time>
      </trkpt>
      <trkpt lat="48.22477" lon="-3.17316">
        <ele>131.60000610352</ele>
        <time>2020-10-19T11:13:43.000Z</time>
      </trkpt>
      <trkpt lat="48.22477" lon="-3.17316">
        <ele>131.60000610352</ele>
        <time>2020-10-19T11:13:44.000Z</time>
      </trkpt>
      <trkpt lat="48.22477" lon="-3.17316">
        <ele>131.60000610352</ele>
        <time>2020-10-19T11:13:45.000Z</time>
      </trkpt>
      <trkpt lat="48.22477" lon="-3.17316">
        <ele>131.60000610352</ele>
        <time>2020-10-19T11:13:46.000Z</time>
      </trkpt>
      <trkpt lat="48.22477" lon="-3.17316">
        <ele>131.60000610352</ele>
        <time>2020-10-19T11:13:47.000Z</time>
      </trkpt>
      <trkpt lat="48.22477" lon="-3.17316">
        <ele>131.60000610352</ele>
        <time>2020-10-19T11:13:48.000Z</time>
      </trkpt>
      <trkpt lat="48.22477" lon="-3.17317">
        <ele>131.60000610352</ele>
        <time>2020-10-19T11:13:49.000Z</time>
      </trkpt>
      <trkpt lat="48.22477" lon="-3.17317">
        <ele>131.60000610352</ele>
        <time>2020-10-19T11:13:50.000Z</time>
      </trkpt>
      <trkpt lat="48.22478" lon="-3.17317">
        <ele>131.60000610352</ele>
        <time>2020-10-19T11:13:51.000Z</time>
      </trkpt>
      <trkpt lat="48.22478" lon="-3.17317">
        <ele>131.60000610352</ele>
        <time>2020-10-19T11:13:52.000Z</time>
      </trkpt>
      <trkpt lat="48.22478" lon="-3.17318">
        <ele>131.60000610352</ele>
        <time>2020-10-19T11:13:53.000Z</time>
      </trkpt>
      <trkpt lat="48.22478" lon="-3.17318">
        <ele>131.60000610352</ele>
        <time>2020-10-19T11:13:54.000Z</time>
      </trkpt>
      <trkpt lat="48.22478" lon="-3.17318">
        <ele>131.60000610352</ele>
        <time>2020-10-19T11:13:55.000Z</time>
      </trkpt>
      <trkpt lat="48.22478" lon="-3.17318">
        <ele>131.60000610352</ele>
        <time>2020-10-19T11:13:56.000Z</time>
      </trkpt>
      <trkpt lat="48.22478" lon="-3.17318">
        <ele>131.60000610352</ele>
        <time>2020-10-19T11:13:57.000Z</time>
      </trkpt>
      <trkpt lat="48.22478" lon="-3.17318">
        <ele>131.60000610352</ele>
        <time>2020-10-19T11:13:58.000Z</time>
      </trkpt>
      <trkpt lat="48.22478" lon="-3.17318">
        <ele>131.60000610352</ele>
        <time>2020-10-19T11:13:59.000Z</time>
      </trkpt>
      <trkpt lat="48.22478" lon="-3.17318">
        <ele>131.60000610352</ele>
        <time>2020-10-19T11:14:00.000Z</time>
      </trkpt>
      <trkpt lat="48.22478" lon="-3.17318">
        <ele>131.60000610352</ele>
        <time>2020-10-19T11:14:01.000Z</time>
      </trkpt>
      <trkpt lat="48.22478" lon="-3.17318">
        <ele>131.60000610352</ele>
        <time>2020-10-19T11:14:02.000Z</time>
      </trkpt>
      <trkpt lat="48.22478" lon="-3.17318">
        <ele>131.60000610352</ele>
        <time>2020-10-19T11:14:03.000Z</time>
      </trkpt>
      <trkpt lat="48.22478" lon="-3.17318">
        <ele>131.60000610352</ele>
        <time>2020-10-19T11:14:04.000Z</time>
      </trkpt>
      <trkpt lat="48.22478" lon="-3.17318">
        <ele>131.60000610352</ele>
        <time>2020-10-19T11:14:05.000Z</time>
      </trkpt>
      <trkpt lat="48.22478" lon="-3.17318">
        <ele>131.60000610352</ele>
        <time>2020-10-19T11:14:06.000Z</time>
      </trkpt>
      <trkpt lat="48.22478" lon="-3.17319">
        <ele>131.60000610352</ele>
        <time>2020-10-19T11:14:07.000Z</time>
      </trkpt>
      <trkpt lat="48.22478" lon="-3.17319">
        <ele>131.60000610352</ele>
        <time>2020-10-19T11:14:08.000Z</time>
      </trkpt>
      <trkpt lat="48.22478" lon="-3.17319">
        <ele>131.60000610352</ele>
        <time>2020-10-19T11:14:09.000Z</time>
      </trkpt>
      <trkpt lat="48.22478" lon="-3.17319">
        <ele>131.60000610352</ele>
        <time>2020-10-19T11:14:10.000Z</time>
      </trkpt>
      <trkpt lat="48.22478" lon="-3.17319">
        <ele>131.60000610352</ele>
        <time>2020-10-19T11:14:11.000Z</time>
      </trkpt>
      <trkpt lat="48.22478" lon="-3.17319">
        <ele>131.60000610352</ele>
        <time>2020-10-19T11:14:12.000Z</time>
      </trkpt>
      <trkpt lat="48.22478" lon="-3.17319">
        <ele>131.60000610352</ele>
        <time>2020-10-19T11:14:13.000Z</time>
      </trkpt>
      <trkpt lat="48.22478" lon="-3.17319">
        <ele>131.60000610352</ele>
        <time>2020-10-19T11:14:14.000Z</time>
      </trkpt>
      <trkpt lat="48.22478" lon="-3.17319">
        <ele>131.60000610352</ele>
        <time>2020-10-19T11:14:15.000Z</time>
      </trkpt>
      <trkpt lat="48.22478" lon="-3.17319">
        <ele>131.60000610352</ele>
        <time>2020-10-19T11:14:16.000Z</time>
      </trkpt>
      <trkpt lat="48.22478" lon="-3.17319">
        <ele>131.60000610352</ele>
        <time>2020-10-19T11:14:17.000Z</time>
      </trkpt>
      <trkpt lat="48.22478" lon="-3.17319">
        <ele>131.60000610352</ele>
        <time>2020-10-19T11:14:18.000Z</time>
      </trkpt>
      <trkpt lat="48.22478" lon="-3.17319">
        <ele>131.60000610352</ele>
        <time>2020-10-19T11:14:19.000Z</time>
      </trkpt>
      <trkpt lat="48.22478" lon="-3.17319">
        <ele>131.60000610352</ele>
        <time>2020-10-19T11:14:20.000Z</time>
      </trkpt>
      <trkpt lat="48.22478" lon="-3.17319">
        <ele>131.60000610352</ele>
        <time>2020-10-19T11:14:21.000Z</time>
      </trkpt>
      <trkpt lat="48.22478" lon="-3.17319">
        <ele>131.60000610352</ele>
        <time>2020-10-19T11:14:22.000Z</time>
      </trkpt>
      <trkpt lat="48.22478" lon="-3.17319">
        <ele>131.60000610352</ele>
        <time>2020-10-19T11:14:23.000Z</time>
      </trkpt>
      <trkpt lat="48.22478" lon="-3.17319">
        <ele>131.60000610352</ele>
        <time>2020-10-19T11:14:24.000Z</time>
      </trkpt>
      <trkpt lat="48.22478" lon="-3.17319">
        <ele>131.60000610352</ele>
        <time>2020-10-19T11:14:25.000Z</time>
      </trkpt>
      <trkpt lat="48.22478" lon="-3.17319">
        <ele>131.60000610352</ele>
        <time>2020-10-19T11:14:26.000Z</time>
      </trkpt>
      <trkpt lat="48.22478" lon="-3.17319">
        <ele>131.60000610352</ele>
        <time>2020-10-19T11:14:27.000Z</time>
      </trkpt>
      <trkpt lat="48.22478" lon="-3.17319">
        <ele>131.60000610352</ele>
        <time>2020-10-19T11:14:28.000Z</time>
      </trkpt>
      <trkpt lat="48.22478" lon="-3.17319">
        <ele>131.60000610352</ele>
        <time>2020-10-19T11:14:29.000Z</time>
      </trkpt>
      <trkpt lat="48.22478" lon="-3.17319">
        <ele>131.60000610352</ele>
        <time>2020-10-19T11:14:30.000Z</time>
      </trkpt>
      <trkpt lat="48.22478" lon="-3.17319">
        <ele>131.60000610352</ele>
        <time>2020-10-19T11:14:31.000Z</time>
      </trkpt>
      <trkpt lat="48.22478" lon="-3.17319">
        <ele>131.60000610352</ele>
        <time>2020-10-19T11:14:32.000Z</time>
      </trkpt>
      <trkpt lat="48.22478" lon="-3.17319">
        <ele>131.60000610352</ele>
        <time>2020-10-19T11:14:33.000Z</time>
      </trkpt>
      <trkpt lat="48.22478" lon="-3.17319">
        <ele>131.60000610352</ele>
        <time>2020-10-19T11:14:34.000Z</time>
      </trkpt>
      <trkpt lat="48.22478" lon="-3.17319">
        <ele>131.60000610352</ele>
        <time>2020-10-19T11:14:35.000Z</time>
      </trkpt>
      <trkpt lat="48.22478" lon="-3.17319">
        <ele>131.60000610352</ele>
        <time>2020-10-19T11:14:36.000Z</time>
      </trkpt>
      <trkpt lat="48.22478" lon="-3.17319">
        <ele>131.60000610352</ele>
        <time>2020-10-19T11:14:37.000Z</time>
      </trkpt>
      <trkpt lat="48.22478" lon="-3.17319">
        <ele>131.60000610352</ele>
        <time>2020-10-19T11:14:38.000Z</time>
      </trkpt>
      <trkpt lat="48.22478" lon="-3.17319">
        <ele>131.60000610352</ele>
        <time>2020-10-19T11:14:39.000Z</time>
      </trkpt>
      <trkpt lat="48.22478" lon="-3.17319">
        <ele>131.60000610352</ele>
        <time>2020-10-19T11:14:40.000Z</time>
      </trkpt>
      <trkpt lat="48.22478" lon="-3.17319">
        <ele>131.60000610352</ele>
        <time>2020-10-19T11:14:41.000Z</time>
      </trkpt>
      <trkpt lat="48.22478" lon="-3.17319">
        <ele>131.60000610352</ele>
        <time>2020-10-19T11:14:42.000Z</time>
      </trkpt>
      <trkpt lat="48.22478" lon="-3.17319">
        <ele>131.60000610352</ele>
        <time>2020-10-19T11:14:43.000Z</time>
      </trkpt>
      <trkpt lat="48.22478" lon="-3.17318">
        <ele>131.60000610352</ele>
        <time>2020-10-19T11:14:44.000Z</time>
      </trkpt>
      <trkpt lat="48.22478" lon="-3.17318">
        <ele>131.60000610352</ele>
        <time>2020-10-19T11:14:45.000Z</time>
      </trkpt>
      <trkpt lat="48.22478" lon="-3.17318">
        <ele>131.60000610352</ele>
        <time>2020-10-19T11:14:46.000Z</time>
      </trkpt>
      <trkpt lat="48.22478" lon="-3.17318">
        <ele>131.60000610352</ele>
        <time>2020-10-19T11:14:47.000Z</time>
      </trkpt>
      <trkpt lat="48.22478" lon="-3.17318">
        <ele>131.60000610352</ele>
        <time>2020-10-19T11:14:48.000Z</time>
      </trkpt>
      <trkpt lat="48.22478" lon="-3.17318">
        <ele>131.60000610352</ele>
        <time>2020-10-19T11:14:49.000Z</time>
      </trkpt>
      <trkpt lat="48.22478" lon="-3.17318">
        <ele>131.60000610352</ele>
        <time>2020-10-19T11:14:50.000Z</time>
      </trkpt>
      <trkpt lat="48.22478" lon="-3.17319">
        <ele>131.60000610352</ele>
        <time>2020-10-19T11:14:51.000Z</time>
      </trkpt>
      <trkpt lat="48.22478" lon="-3.17319">
        <ele>131.60000610352</ele>
        <time>2020-10-19T11:14:52.000Z</time>
      </trkpt>
      <trkpt lat="48.22479" lon="-3.17319">
        <ele>131.60000610352</ele>
        <time>2020-10-19T11:14:53.000Z</time>
      </trkpt>
      <trkpt lat="48.22479" lon="-3.1732">
        <ele>131.60000610352</ele>
        <time>2020-10-19T11:14:54.000Z</time>
      </trkpt>
      <trkpt lat="48.22479" lon="-3.17321">
        <ele>131.60000610352</ele>
        <time>2020-10-19T11:14:55.000Z</time>
      </trkpt>
      <trkpt lat="48.2248" lon="-3.17322">
        <ele>131.60000610352</ele>
        <time>2020-10-19T11:14:56.000Z</time>
      </trkpt>
      <trkpt lat="48.2248" lon="-3.17323">
        <ele>131.60000610352</ele>
        <time>2020-10-19T11:14:57.000Z</time>
      </trkpt>
      <trkpt lat="48.22481" lon="-3.17325">
        <ele>131.60000610352</ele>
        <time>2020-10-19T11:14:58.000Z</time>
      </trkpt>
      <trkpt lat="48.22482" lon="-3.17326">
        <ele>131.60000610352</ele>
        <time>2020-10-19T11:14:59.000Z</time>
      </trkpt>
      <trkpt lat="48.22482" lon="-3.17328">
        <ele>131.60000610352</ele>
        <time>2020-10-19T11:15:00.000Z</time>
      </trkpt>
      <trkpt lat="48.22483" lon="-3.17329">
        <ele>131.60000610352</ele>
        <time>2020-10-19T11:15:01.000Z</time>
      </trkpt>
      <trkpt lat="48.22484" lon="-3.17331">
        <ele>131.60000610352</ele>
        <time>2020-10-19T11:15:02.000Z</time>
      </trkpt>
      <trkpt lat="48.22484" lon="-3.17332">
        <ele>131.60000610352</ele>
        <time>2020-10-19T11:15:03.000Z</time>
      </trkpt>
      <trkpt lat="48.22485" lon="-3.17334">
        <ele>131.60000610352</ele>
        <time>2020-10-19T11:15:04.000Z</time>
      </trkpt>
      <trkpt lat="48.22485" lon="-3.17335">
        <ele>131.60000610352</ele>
        <time>2020-10-19T11:15:05.000Z</time>
      </trkpt>
      <trkpt lat="48.22486" lon="-3.17337">
        <ele>131.60000610352</ele>
        <time>2020-10-19T11:15:06.000Z</time>
      </trkpt>
      <trkpt lat="48.22486" lon="-3.17338">
        <ele>131.60000610352</ele>
        <time>2020-10-19T11:15:07.000Z</time>
      </trkpt>
      <trkpt lat="48.22486" lon="-3.1734">
        <ele>131.60000610352</ele>
        <time>2020-10-19T11:15:08.000Z</time>
      </trkpt>
      <trkpt lat="48.22487" lon="-3.17341">
        <ele>131.60000610352</ele>
        <time>2020-10-19T11:15:09.000Z</time>
      </trkpt>
      <trkpt lat="48.22487" lon="-3.17343">
        <ele>131.80000305176</ele>
        <time>2020-10-19T11:15:10.000Z</time>
      </trkpt>
      <trkpt lat="48.22488" lon="-3.17344">
        <ele>131.80000305176</ele>
        <time>2020-10-19T11:15:11.000Z</time>
      </trkpt>
      <trkpt lat="48.22488" lon="-3.17346">
        <ele>131.80000305176</ele>
        <time>2020-10-19T11:15:12.000Z</time>
      </trkpt>
      <trkpt lat="48.22489" lon="-3.17348">
        <ele>131.80000305176</ele>
        <time>2020-10-19T11:15:13.000Z</time>
      </trkpt>
      <trkpt lat="48.22489" lon="-3.1735">
        <ele>131.80000305176</ele>
        <time>2020-10-19T11:15:14.000Z</time>
      </trkpt>
      <trkpt lat="48.22489" lon="-3.17351">
        <ele>131.80000305176</ele>
        <time>2020-10-19T11:15:15.000Z</time>
      </trkpt>
      <trkpt lat="48.2249" lon="-3.17352">
        <ele>131.80000305176</ele>
        <time>2020-10-19T11:15:16.000Z</time>
      </trkpt>
      <trkpt lat="48.2249" lon="-3.17354">
        <ele>131.80000305176</ele>
        <time>2020-10-19T11:15:17.000Z</time>
      </trkpt>
      <trkpt lat="48.2249" lon="-3.17355">
        <ele>131.80000305176</ele>
        <time>2020-10-19T11:15:18.000Z</time>
      </trkpt>
      <trkpt lat="48.22491" lon="-3.17356">
        <ele>131.80000305176</ele>
        <time>2020-10-19T11:15:19.000Z</time>
      </trkpt>
      <trkpt lat="48.22491" lon="-3.17357">
        <ele>131.80000305176</ele>
        <time>2020-10-19T11:15:20.000Z</time>
      </trkpt>
      <trkpt lat="48.22491" lon="-3.17358">
        <ele>132</ele>
        <time>2020-10-19T11:15:21.000Z</time>
      </trkpt>
      <trkpt lat="48.22491" lon="-3.1736">
        <ele>132</ele>
        <time>2020-10-19T11:15:22.000Z</time>
      </trkpt>
      <trkpt lat="48.22492" lon="-3.17361">
        <ele>132</ele>
        <time>2020-10-19T11:15:23.000Z</time>
      </trkpt>
      <trkpt lat="48.22492" lon="-3.17363">
        <ele>132</ele>
        <time>2020-10-19T11:15:24.000Z</time>
      </trkpt>
      <trkpt lat="48.22492" lon="-3.17364">
        <ele>132</ele>
        <time>2020-10-19T11:15:25.000Z</time>
      </trkpt>
      <trkpt lat="48.22492" lon="-3.17365">
        <ele>132</ele>
        <time>2020-10-19T11:15:26.000Z</time>
      </trkpt>
      <trkpt lat="48.22492" lon="-3.17367">
        <ele>132</ele>
        <time>2020-10-19T11:15:27.000Z</time>
      </trkpt>
      <trkpt lat="48.22492" lon="-3.17368">
        <ele>132</ele>
        <time>2020-10-19T11:15:28.000Z</time>
      </trkpt>
      <trkpt lat="48.22492" lon="-3.1737">
        <ele>132</ele>
        <time>2020-10-19T11:15:29.000Z</time>
      </trkpt>
      <trkpt lat="48.22492" lon="-3.17371">
        <ele>132</ele>
        <time>2020-10-19T11:15:30.000Z</time>
      </trkpt>
      <trkpt lat="48.22492" lon="-3.17373">
        <ele>132</ele>
        <time>2020-10-19T11:15:31.000Z</time>
      </trkpt>
      <trkpt lat="48.22492" lon="-3.17375">
        <ele>132</ele>
        <time>2020-10-19T11:15:32.000Z</time>
      </trkpt>
      <trkpt lat="48.22492" lon="-3.17376">
        <ele>132</ele>
        <time>2020-10-19T11:15:33.000Z</time>
      </trkpt>
      <trkpt lat="48.22492" lon="-3.17378">
        <ele>132</ele>
        <time>2020-10-19T11:15:34.000Z</time>
      </trkpt>
      <trkpt lat="48.22492" lon="-3.17379">
        <ele>132</ele>
        <time>2020-10-19T11:15:35.000Z</time>
      </trkpt>
      <trkpt lat="48.22492" lon="-3.1738">
        <ele>132</ele>
        <time>2020-10-19T11:15:36.000Z</time>
      </trkpt>
      <trkpt lat="48.22491" lon="-3.17382">
        <ele>132</ele>
        <time>2020-10-19T11:15:37.000Z</time>
      </trkpt>
      <trkpt lat="48.22491" lon="-3.17384">
        <ele>132</ele>
        <time>2020-10-19T11:15:38.000Z</time>
      </trkpt>
      <trkpt lat="48.22491" lon="-3.17386">
        <ele>132</ele>
        <time>2020-10-19T11:15:39.000Z</time>
      </trkpt>
      <trkpt lat="48.22491" lon="-3.17388">
        <ele>132</ele>
        <time>2020-10-19T11:15:40.000Z</time>
      </trkpt>
      <trkpt lat="48.22491" lon="-3.1739">
        <ele>132</ele>
        <time>2020-10-19T11:15:41.000Z</time>
      </trkpt>
      <trkpt lat="48.22491" lon="-3.17392">
        <ele>132</ele>
        <time>2020-10-19T11:15:42.000Z</time>
      </trkpt>
      <trkpt lat="48.22491" lon="-3.17394">
        <ele>132</ele>
        <time>2020-10-19T11:15:43.000Z</time>
      </trkpt>
      <trkpt lat="48.22491" lon="-3.17397">
        <ele>132</ele>
        <time>2020-10-19T11:15:44.000Z</time>
      </trkpt>
      <trkpt lat="48.2249" lon="-3.17398">
        <ele>132</ele>
        <time>2020-10-19T11:15:45.000Z</time>
      </trkpt>
      <trkpt lat="48.2249" lon="-3.174">
        <ele>132</ele>
        <time>2020-10-19T11:15:46.000Z</time>
      </trkpt>
      <trkpt lat="48.2249" lon="-3.17402">
        <ele>132</ele>
        <time>2020-10-19T11:15:47.000Z</time>
      </trkpt>
      <trkpt lat="48.22489" lon="-3.17404">
        <ele>132</ele>
        <time>2020-10-19T11:15:48.000Z</time>
      </trkpt>
      <trkpt lat="48.22489" lon="-3.17405">
        <ele>132</ele>
        <time>2020-10-19T11:15:49.000Z</time>
      </trkpt>
      <trkpt lat="48.22488" lon="-3.17408">
        <ele>132</ele>
        <time>2020-10-19T11:15:50.000Z</time>
      </trkpt>
      <trkpt lat="48.22488" lon="-3.1741">
        <ele>132</ele>
        <time>2020-10-19T11:15:51.000Z</time>
      </trkpt>
      <trkpt lat="48.22489" lon="-3.17412">
        <ele>132</ele>
        <time>2020-10-19T11:15:52.000Z</time>
      </trkpt>
      <trkpt lat="48.22489" lon="-3.17413">
        <ele>132</ele>
        <time>2020-10-19T11:15:53.000Z</time>
      </trkpt>
      <trkpt lat="48.22488" lon="-3.17415">
        <ele>132</ele>
        <time>2020-10-19T11:15:54.000Z</time>
      </trkpt>
      <trkpt lat="48.22488" lon="-3.17417">
        <ele>132</ele>
        <time>2020-10-19T11:15:55.000Z</time>
      </trkpt>
      <trkpt lat="48.22487" lon="-3.17419">
        <ele>132</ele>
        <time>2020-10-19T11:15:56.000Z</time>
      </trkpt>
      <trkpt lat="48.22487" lon="-3.1742">
        <ele>132</ele>
        <time>2020-10-19T11:15:57.000Z</time>
      </trkpt>
      <trkpt lat="48.22486" lon="-3.17422">
        <ele>132</ele>
        <time>2020-10-19T11:15:58.000Z</time>
      </trkpt>
      <trkpt lat="48.22486" lon="-3.17423">
        <ele>132</ele>
        <time>2020-10-19T11:15:59.000Z</time>
      </trkpt>
      <trkpt lat="48.22486" lon="-3.17425">
        <ele>132</ele>
        <time>2020-10-19T11:16:00.000Z</time>
      </trkpt>
      <trkpt lat="48.22486" lon="-3.17427">
        <ele>132</ele>
        <time>2020-10-19T11:16:01.000Z</time>
      </trkpt>
      <trkpt lat="48.22486" lon="-3.17429">
        <ele>132</ele>
        <time>2020-10-19T11:16:02.000Z</time>
      </trkpt>
      <trkpt lat="48.22485" lon="-3.17433">
        <ele>132.19999694824</ele>
        <time>2020-10-19T11:16:03.000Z</time>
      </trkpt>
      <trkpt lat="48.22485" lon="-3.17433">
        <ele>132.19999694824</ele>
        <time>2020-10-19T11:16:04.000Z</time>
      </trkpt>
      <trkpt lat="48.22485" lon="-3.17435">
        <ele>132.19999694824</ele>
        <time>2020-10-19T11:16:05.000Z</time>
      </trkpt>
      <trkpt lat="48.22484" lon="-3.17436">
        <ele>132.19999694824</ele>
        <time>2020-10-19T11:16:06.000Z</time>
      </trkpt>
      <trkpt lat="48.22484" lon="-3.17438">
        <ele>132.19999694824</ele>
        <time>2020-10-19T11:16:07.000Z</time>
      </trkpt>
      <trkpt lat="48.22483" lon="-3.17439">
        <ele>132.19999694824</ele>
        <time>2020-10-19T11:16:08.000Z</time>
      </trkpt>
      <trkpt lat="48.22483" lon="-3.1744">
        <ele>132.39999389648</ele>
        <time>2020-10-19T11:16:09.000Z</time>
      </trkpt>
      <trkpt lat="48.22483" lon="-3.17442">
        <ele>132.39999389648</ele>
        <time>2020-10-19T11:16:10.000Z</time>
      </trkpt>
      <trkpt lat="48.22483" lon="-3.17444">
        <ele>132.39999389648</ele>
        <time>2020-10-19T11:16:11.000Z</time>
      </trkpt>
      <trkpt lat="48.22483" lon="-3.17446">
        <ele>132.39999389648</ele>
        <time>2020-10-19T11:16:12.000Z</time>
      </trkpt>
      <trkpt lat="48.22483" lon="-3.17448">
        <ele>132.39999389648</ele>
        <time>2020-10-19T11:16:13.000Z</time>
      </trkpt>
      <trkpt lat="48.22483" lon="-3.17449">
        <ele>132.60000610352</ele>
        <time>2020-10-19T11:16:14.000Z</time>
      </trkpt>
      <trkpt lat="48.22483" lon="-3.17451">
        <ele>132.60000610352</ele>
        <time>2020-10-19T11:16:15.000Z</time>
      </trkpt>
      <trkpt lat="48.22483" lon="-3.17453">
        <ele>132.60000610352</ele>
        <time>2020-10-19T11:16:16.000Z</time>
      </trkpt>
      <trkpt lat="48.22482" lon="-3.17455">
        <ele>132.60000610352</ele>
        <time>2020-10-19T11:16:17.000Z</time>
      </trkpt>
      <trkpt lat="48.22482" lon="-3.17457">
        <ele>132.60000610352</ele>
        <time>2020-10-19T11:16:18.000Z</time>
      </trkpt>
      <trkpt lat="48.22482" lon="-3.17458">
        <ele>132.80000305176</ele>
        <time>2020-10-19T11:16:19.000Z</time>
      </trkpt>
      <trkpt lat="48.22481" lon="-3.1746">
        <ele>132.80000305176</ele>
        <time>2020-10-19T11:16:20.000Z</time>
      </trkpt>
      <trkpt lat="48.2248" lon="-3.17462">
        <ele>132.80000305176</ele>
        <time>2020-10-19T11:16:21.000Z</time>
      </trkpt>
      <trkpt lat="48.2248" lon="-3.17463">
        <ele>132.80000305176</ele>
        <time>2020-10-19T11:16:22.000Z</time>
      </trkpt>
      <trkpt lat="48.22479" lon="-3.17464">
        <ele>132.80000305176</ele>
        <time>2020-10-19T11:16:23.000Z</time>
      </trkpt>
      <trkpt lat="48.22479" lon="-3.17465">
        <ele>132.80000305176</ele>
        <time>2020-10-19T11:16:24.000Z</time>
      </trkpt>
      <trkpt lat="48.22478" lon="-3.17466">
        <ele>132.80000305176</ele>
        <time>2020-10-19T11:16:25.000Z</time>
      </trkpt>
      <trkpt lat="48.22478" lon="-3.17467">
        <ele>132.80000305176</ele>
        <time>2020-10-19T11:16:26.000Z</time>
      </trkpt>
      <trkpt lat="48.22478" lon="-3.17469">
        <ele>132.80000305176</ele>
        <time>2020-10-19T11:16:27.000Z</time>
      </trkpt>
      <trkpt lat="48.22478" lon="-3.17471">
        <ele>132.80000305176</ele>
        <time>2020-10-19T11:16:28.000Z</time>
      </trkpt>
      <trkpt lat="48.22477" lon="-3.17472">
        <ele>132.80000305176</ele>
        <time>2020-10-19T11:16:29.000Z</time>
      </trkpt>
      <trkpt lat="48.22477" lon="-3.17476">
        <ele>132.80000305176</ele>
        <time>2020-10-19T11:16:30.000Z</time>
      </trkpt>
      <trkpt lat="48.22477" lon="-3.17476">
        <ele>132.80000305176</ele>
        <time>2020-10-19T11:16:31.000Z</time>
      </trkpt>
      <trkpt lat="48.22477" lon="-3.17478">
        <ele>132.80000305176</ele>
        <time>2020-10-19T11:16:32.000Z</time>
      </trkpt>
      <trkpt lat="48.22477" lon="-3.17479">
        <ele>132.80000305176</ele>
        <time>2020-10-19T11:16:33.000Z</time>
      </trkpt>
      <trkpt lat="48.22477" lon="-3.17483">
        <ele>132.80000305176</ele>
        <time>2020-10-19T11:16:34.000Z</time>
      </trkpt>
      <trkpt lat="48.22477" lon="-3.17483">
        <ele>132.80000305176</ele>
        <time>2020-10-19T11:16:35.000Z</time>
      </trkpt>
      <trkpt lat="48.22477" lon="-3.17485">
        <ele>132.80000305176</ele>
        <time>2020-10-19T11:16:36.000Z</time>
      </trkpt>
      <trkpt lat="48.22477" lon="-3.17487">
        <ele>132.80000305176</ele>
        <time>2020-10-19T11:16:37.000Z</time>
      </trkpt>
      <trkpt lat="48.22477" lon="-3.17488">
        <ele>132.80000305176</ele>
        <time>2020-10-19T11:16:38.000Z</time>
      </trkpt>
      <trkpt lat="48.22476" lon="-3.1749">
        <ele>132.80000305176</ele>
        <time>2020-10-19T11:16:39.000Z</time>
      </trkpt>
      <trkpt lat="48.22476" lon="-3.17492">
        <ele>132.80000305176</ele>
        <time>2020-10-19T11:16:40.000Z</time>
      </trkpt>
      <trkpt lat="48.22476" lon="-3.17494">
        <ele>132.80000305176</ele>
        <time>2020-10-19T11:16:41.000Z</time>
      </trkpt>
      <trkpt lat="48.22476" lon="-3.17495">
        <ele>132.80000305176</ele>
        <time>2020-10-19T11:16:42.000Z</time>
      </trkpt>
      <trkpt lat="48.22476" lon="-3.17497">
        <ele>132.80000305176</ele>
        <time>2020-10-19T11:16:43.000Z</time>
      </trkpt>
      <trkpt lat="48.22476" lon="-3.17498">
        <ele>132.80000305176</ele>
        <time>2020-10-19T11:16:44.000Z</time>
      </trkpt>
      <trkpt lat="48.22476" lon="-3.175">
        <ele>132.80000305176</ele>
        <time>2020-10-19T11:16:45.000Z</time>
      </trkpt>
      <trkpt lat="48.22476" lon="-3.17502">
        <ele>132.80000305176</ele>
        <time>2020-10-19T11:16:46.000Z</time>
      </trkpt>
      <trkpt lat="48.22476" lon="-3.17503">
        <ele>132.80000305176</ele>
        <time>2020-10-19T11:16:47.000Z</time>
      </trkpt>
      <trkpt lat="48.22476" lon="-3.17505">
        <ele>132.80000305176</ele>
        <time>2020-10-19T11:16:48.000Z</time>
      </trkpt>
      <trkpt lat="48.22476" lon="-3.17507">
        <ele>132.80000305176</ele>
        <time>2020-10-19T11:16:49.000Z</time>
      </trkpt>
      <trkpt lat="48.22476" lon="-3.17508">
        <ele>132.80000305176</ele>
        <time>2020-10-19T11:16:50.000Z</time>
      </trkpt>
      <trkpt lat="48.22476" lon="-3.1751">
        <ele>132.80000305176</ele>
        <time>2020-10-19T11:16:51.000Z</time>
      </trkpt>
      <trkpt lat="48.22476" lon="-3.17511">
        <ele>132.80000305176</ele>
        <time>2020-10-19T11:16:52.000Z</time>
      </trkpt>
      <trkpt lat="48.22477" lon="-3.17513">
        <ele>132.80000305176</ele>
        <time>2020-10-19T11:16:53.000Z</time>
      </trkpt>
      <trkpt lat="48.22477" lon="-3.17514">
        <ele>133</ele>
        <time>2020-10-19T11:16:54.000Z</time>
      </trkpt>
      <trkpt lat="48.22477" lon="-3.17516">
        <ele>133</ele>
        <time>2020-10-19T11:16:55.000Z</time>
      </trkpt>
      <trkpt lat="48.22477" lon="-3.17518">
        <ele>133</ele>
        <time>2020-10-19T11:16:56.000Z</time>
      </trkpt>
      <trkpt lat="48.22476" lon="-3.1752">
        <ele>133</ele>
        <time>2020-10-19T11:16:57.000Z</time>
      </trkpt>
      <trkpt lat="48.22476" lon="-3.17522">
        <ele>133.19999694824</ele>
        <time>2020-10-19T11:16:58.000Z</time>
      </trkpt>
      <trkpt lat="48.22476" lon="-3.17524">
        <ele>133.19999694824</ele>
        <time>2020-10-19T11:16:59.000Z</time>
      </trkpt>
      <trkpt lat="48.22476" lon="-3.17527">
        <ele>133.19999694824</ele>
        <time>2020-10-19T11:17:00.000Z</time>
      </trkpt>
      <trkpt lat="48.22476" lon="-3.17527">
        <ele>133.19999694824</ele>
        <time>2020-10-19T11:17:01.000Z</time>
      </trkpt>
      <trkpt lat="48.22476" lon="-3.17529">
        <ele>133.19999694824</ele>
        <time>2020-10-19T11:17:02.000Z</time>
      </trkpt>
      <trkpt lat="48.22476" lon="-3.17531">
        <ele>133.39999389648</ele>
        <time>2020-10-19T11:17:03.000Z</time>
      </trkpt>
      <trkpt lat="48.22475" lon="-3.17533">
        <ele>133.39999389648</ele>
        <time>2020-10-19T11:17:04.000Z</time>
      </trkpt>
      <trkpt lat="48.22475" lon="-3.17535">
        <ele>133.39999389648</ele>
        <time>2020-10-19T11:17:05.000Z</time>
      </trkpt>
      <trkpt lat="48.22475" lon="-3.17537">
        <ele>133.60000610352</ele>
        <time>2020-10-19T11:17:06.000Z</time>
      </trkpt>
      <trkpt lat="48.22475" lon="-3.17539">
        <ele>133.60000610352</ele>
        <time>2020-10-19T11:17:07.000Z</time>
      </trkpt>
      <trkpt lat="48.22475" lon="-3.1754">
        <ele>133.60000610352</ele>
        <time>2020-10-19T11:17:08.000Z</time>
      </trkpt>
      <trkpt lat="48.22475" lon="-3.17543">
        <ele>133.60000610352</ele>
        <time>2020-10-19T11:17:09.000Z</time>
      </trkpt>
      <trkpt lat="48.22475" lon="-3.17545">
        <ele>133.60000610352</ele>
        <time>2020-10-19T11:17:10.000Z</time>
      </trkpt>
      <trkpt lat="48.22475" lon="-3.17546">
        <ele>133.80000305176</ele>
        <time>2020-10-19T11:17:11.000Z</time>
      </trkpt>
      <trkpt lat="48.22475" lon="-3.17548">
        <ele>133.80000305176</ele>
        <time>2020-10-19T11:17:12.000Z</time>
      </trkpt>
      <trkpt lat="48.22475" lon="-3.1755">
        <ele>133.80000305176</ele>
        <time>2020-10-19T11:17:13.000Z</time>
      </trkpt>
      <trkpt lat="48.22475" lon="-3.17551">
        <ele>133.80000305176</ele>
        <time>2020-10-19T11:17:14.000Z</time>
      </trkpt>
      <trkpt lat="48.22475" lon="-3.17553">
        <ele>133.80000305176</ele>
        <time>2020-10-19T11:17:15.000Z</time>
      </trkpt>
      <trkpt lat="48.22475" lon="-3.17554">
        <ele>133.80000305176</ele>
        <time>2020-10-19T11:17:16.000Z</time>
      </trkpt>
      <trkpt lat="48.22475" lon="-3.17556">
        <ele>133.80000305176</ele>
        <time>2020-10-19T11:17:17.000Z</time>
      </trkpt>
      <trkpt lat="48.22475" lon="-3.17557">
        <ele>133.80000305176</ele>
        <time>2020-10-19T11:17:18.000Z</time>
      </trkpt>
      <trkpt lat="48.22475" lon="-3.17558">
        <ele>133.80000305176</ele>
        <time>2020-10-19T11:17:19.000Z</time>
      </trkpt>
      <trkpt lat="48.22475" lon="-3.1756">
        <ele>133.80000305176</ele>
        <time>2020-10-19T11:17:20.000Z</time>
      </trkpt>
      <trkpt lat="48.22476" lon="-3.17562">
        <ele>133.80000305176</ele>
        <time>2020-10-19T11:17:21.000Z</time>
      </trkpt>
      <trkpt lat="48.22475" lon="-3.17563">
        <ele>133.80000305176</ele>
        <time>2020-10-19T11:17:22.000Z</time>
      </trkpt>
      <trkpt lat="48.22475" lon="-3.17565">
        <ele>133.80000305176</ele>
        <time>2020-10-19T11:17:23.000Z</time>
      </trkpt>
      <trkpt lat="48.22475" lon="-3.17567">
        <ele>133.80000305176</ele>
        <time>2020-10-19T11:17:24.000Z</time>
      </trkpt>
      <trkpt lat="48.22474" lon="-3.17569">
        <ele>133.80000305176</ele>
        <time>2020-10-19T11:17:25.000Z</time>
      </trkpt>
      <trkpt lat="48.22474" lon="-3.17571">
        <ele>133.80000305176</ele>
        <time>2020-10-19T11:17:26.000Z</time>
      </trkpt>
      <trkpt lat="48.22474" lon="-3.17573">
        <ele>133.80000305176</ele>
        <time>2020-10-19T11:17:27.000Z</time>
      </trkpt>
      <trkpt lat="48.22474" lon="-3.17575">
        <ele>133.80000305176</ele>
        <time>2020-10-19T11:17:28.000Z</time>
      </trkpt>
      <trkpt lat="48.22473" lon="-3.17577">
        <ele>133.80000305176</ele>
        <time>2020-10-19T11:17:29.000Z</time>
      </trkpt>
      <trkpt lat="48.22473" lon="-3.17579">
        <ele>133.80000305176</ele>
        <time>2020-10-19T11:17:30.000Z</time>
      </trkpt>
      <trkpt lat="48.22473" lon="-3.17581">
        <ele>134</ele>
        <time>2020-10-19T11:17:31.000Z</time>
      </trkpt>
      <trkpt lat="48.22472" lon="-3.17582">
        <ele>134</ele>
        <time>2020-10-19T11:17:32.000Z</time>
      </trkpt>
      <trkpt lat="48.22472" lon="-3.17584">
        <ele>134</ele>
        <time>2020-10-19T11:17:33.000Z</time>
      </trkpt>
      <trkpt lat="48.22471" lon="-3.17586">
        <ele>134</ele>
        <time>2020-10-19T11:17:34.000Z</time>
      </trkpt>
      <trkpt lat="48.22471" lon="-3.17588">
        <ele>134</ele>
        <time>2020-10-19T11:17:35.000Z</time>
      </trkpt>
      <trkpt lat="48.22471" lon="-3.1759">
        <ele>134</ele>
        <time>2020-10-19T11:17:36.000Z</time>
      </trkpt>
      <trkpt lat="48.2247" lon="-3.17592">
        <ele>134</ele>
        <time>2020-10-19T11:17:37.000Z</time>
      </trkpt>
      <trkpt lat="48.2247" lon="-3.17594">
        <ele>134</ele>
        <time>2020-10-19T11:17:38.000Z</time>
      </trkpt>
      <trkpt lat="48.22469" lon="-3.17596">
        <ele>134</ele>
        <time>2020-10-19T11:17:39.000Z</time>
      </trkpt>
      <trkpt lat="48.22469" lon="-3.17597">
        <ele>134.19999694824</ele>
        <time>2020-10-19T11:17:40.000Z</time>
      </trkpt>
      <trkpt lat="48.22468" lon="-3.17598">
        <ele>134.19999694824</ele>
        <time>2020-10-19T11:17:41.000Z</time>
      </trkpt>
      <trkpt lat="48.22467" lon="-3.176">
        <ele>134.19999694824</ele>
        <time>2020-10-19T11:17:42.000Z</time>
      </trkpt>
      <trkpt lat="48.22467" lon="-3.17601">
        <ele>134.19999694824</ele>
        <time>2020-10-19T11:17:43.000Z</time>
      </trkpt>
      <trkpt lat="48.22466" lon="-3.17603">
        <ele>134.19999694824</ele>
        <time>2020-10-19T11:17:44.000Z</time>
      </trkpt>
      <trkpt lat="48.22466" lon="-3.17604">
        <ele>134.39999389648</ele>
        <time>2020-10-19T11:17:45.000Z</time>
      </trkpt>
      <trkpt lat="48.22465" lon="-3.17605">
        <ele>134.39999389648</ele>
        <time>2020-10-19T11:17:46.000Z</time>
      </trkpt>
      <trkpt lat="48.22465" lon="-3.17607">
        <ele>134.39999389648</ele>
        <time>2020-10-19T11:17:47.000Z</time>
      </trkpt>
      <trkpt lat="48.22464" lon="-3.17609">
        <ele>134.39999389648</ele>
        <time>2020-10-19T11:17:48.000Z</time>
      </trkpt>
      <trkpt lat="48.22463" lon="-3.17611">
        <ele>134.60000610352</ele>
        <time>2020-10-19T11:17:49.000Z</time>
      </trkpt>
      <trkpt lat="48.22462" lon="-3.17613">
        <ele>134.60000610352</ele>
        <time>2020-10-19T11:17:50.000Z</time>
      </trkpt>
      <trkpt lat="48.22462" lon="-3.17615">
        <ele>134.60000610352</ele>
        <time>2020-10-19T11:17:51.000Z</time>
      </trkpt>
      <trkpt lat="48.22461" lon="-3.17616">
        <ele>134.80000305176</ele>
        <time>2020-10-19T11:17:52.000Z</time>
      </trkpt>
      <trkpt lat="48.22461" lon="-3.17617">
        <ele>134.80000305176</ele>
        <time>2020-10-19T11:17:53.000Z</time>
      </trkpt>
      <trkpt lat="48.2246" lon="-3.17619">
        <ele>134.80000305176</ele>
        <time>2020-10-19T11:17:54.000Z</time>
      </trkpt>
      <trkpt lat="48.2246" lon="-3.1762">
        <ele>134.80000305176</ele>
        <time>2020-10-19T11:17:55.000Z</time>
      </trkpt>
      <trkpt lat="48.22459" lon="-3.17622">
        <ele>134.80000305176</ele>
        <time>2020-10-19T11:17:56.000Z</time>
      </trkpt>
      <trkpt lat="48.22459" lon="-3.17623">
        <ele>135</ele>
        <time>2020-10-19T11:17:57.000Z</time>
      </trkpt>
      <trkpt lat="48.22458" lon="-3.17625">
        <ele>135</ele>
        <time>2020-10-19T11:17:58.000Z</time>
      </trkpt>
      <trkpt lat="48.22458" lon="-3.17626">
        <ele>135</ele>
        <time>2020-10-19T11:17:59.000Z</time>
      </trkpt>
      <trkpt lat="48.22457" lon="-3.17629">
        <ele>135</ele>
        <time>2020-10-19T11:18:00.000Z</time>
      </trkpt>
      <trkpt lat="48.22456" lon="-3.17632">
        <ele>135.19999694824</ele>
        <time>2020-10-19T11:18:01.000Z</time>
      </trkpt>
      <trkpt lat="48.22456" lon="-3.17632">
        <ele>135.19999694824</ele>
        <time>2020-10-19T11:18:02.000Z</time>
      </trkpt>
      <trkpt lat="48.22455" lon="-3.17635">
        <ele>135.19999694824</ele>
        <time>2020-10-19T11:18:03.000Z</time>
      </trkpt>
      <trkpt lat="48.22455" lon="-3.17636">
        <ele>135.19999694824</ele>
        <time>2020-10-19T11:18:04.000Z</time>
      </trkpt>
      <trkpt lat="48.22455" lon="-3.17638">
        <ele>135.19999694824</ele>
        <time>2020-10-19T11:18:05.000Z</time>
      </trkpt>
      <trkpt lat="48.22455" lon="-3.1764">
        <ele>135.19999694824</ele>
        <time>2020-10-19T11:18:06.000Z</time>
      </trkpt>
      <trkpt lat="48.22455" lon="-3.17641">
        <ele>135.39999389648</ele>
        <time>2020-10-19T11:18:07.000Z</time>
      </trkpt>
      <trkpt lat="48.22454" lon="-3.17643">
        <ele>135.39999389648</ele>
        <time>2020-10-19T11:18:08.000Z</time>
      </trkpt>
      <trkpt lat="48.22454" lon="-3.17644">
        <ele>135.39999389648</ele>
        <time>2020-10-19T11:18:09.000Z</time>
      </trkpt>
      <trkpt lat="48.22454" lon="-3.17646">
        <ele>135.39999389648</ele>
        <time>2020-10-19T11:18:10.000Z</time>
      </trkpt>
      <trkpt lat="48.22453" lon="-3.17647">
        <ele>135.39999389648</ele>
        <time>2020-10-19T11:18:11.000Z</time>
      </trkpt>
      <trkpt lat="48.22452" lon="-3.17651">
        <ele>135.60000610352</ele>
        <time>2020-10-19T11:18:12.000Z</time>
      </trkpt>
      <trkpt lat="48.22452" lon="-3.17651">
        <ele>135.60000610352</ele>
        <time>2020-10-19T11:18:13.000Z</time>
      </trkpt>
      <trkpt lat="48.22451" lon="-3.17652">
        <ele>135.60000610352</ele>
        <time>2020-10-19T11:18:14.000Z</time>
      </trkpt>
      <trkpt lat="48.22451" lon="-3.17654">
        <ele>135.60000610352</ele>
        <time>2020-10-19T11:18:15.000Z</time>
      </trkpt>
      <trkpt lat="48.2245" lon="-3.17655">
        <ele>135.80000305176</ele>
        <time>2020-10-19T11:18:16.000Z</time>
      </trkpt>
      <trkpt lat="48.22449" lon="-3.17657">
        <ele>135.80000305176</ele>
        <time>2020-10-19T11:18:17.000Z</time>
      </trkpt>
      <trkpt lat="48.22449" lon="-3.17659">
        <ele>135.80000305176</ele>
        <time>2020-10-19T11:18:18.000Z</time>
      </trkpt>
      <trkpt lat="48.22449" lon="-3.17661">
        <ele>135.80000305176</ele>
        <time>2020-10-19T11:18:19.000Z</time>
      </trkpt>
      <trkpt lat="48.22449" lon="-3.17663">
        <ele>135.80000305176</ele>
        <time>2020-10-19T11:18:20.000Z</time>
      </trkpt>
      <trkpt lat="48.22449" lon="-3.17665">
        <ele>135.80000305176</ele>
        <time>2020-10-19T11:18:21.000Z</time>
      </trkpt>
      <trkpt lat="48.22448" lon="-3.17667">
        <ele>136</ele>
        <time>2020-10-19T11:18:22.000Z</time>
      </trkpt>
      <trkpt lat="48.22449" lon="-3.17668">
        <ele>136</ele>
        <time>2020-10-19T11:18:23.000Z</time>
      </trkpt>
      <trkpt lat="48.22449" lon="-3.17669">
        <ele>136</ele>
        <time>2020-10-19T11:18:24.000Z</time>
      </trkpt>
      <trkpt lat="48.22448" lon="-3.17671">
        <ele>136</ele>
        <time>2020-10-19T11:18:25.000Z</time>
      </trkpt>
      <trkpt lat="48.22448" lon="-3.17673">
        <ele>136</ele>
        <time>2020-10-19T11:18:26.000Z</time>
      </trkpt>
      <trkpt lat="48.22448" lon="-3.17674">
        <ele>136</ele>
        <time>2020-10-19T11:18:27.000Z</time>
      </trkpt>
      <trkpt lat="48.22447" lon="-3.17676">
        <ele>136</ele>
        <time>2020-10-19T11:18:28.000Z</time>
      </trkpt>
      <trkpt lat="48.22447" lon="-3.17678">
        <ele>136.19999694824</ele>
        <time>2020-10-19T11:18:29.000Z</time>
      </trkpt>
      <trkpt lat="48.22446" lon="-3.1768">
        <ele>136.19999694824</ele>
        <time>2020-10-19T11:18:30.000Z</time>
      </trkpt>
      <trkpt lat="48.22446" lon="-3.17682">
        <ele>136.19999694824</ele>
        <time>2020-10-19T11:18:31.000Z</time>
      </trkpt>
      <trkpt lat="48.22445" lon="-3.17684">
        <ele>136.19999694824</ele>
        <time>2020-10-19T11:18:32.000Z</time>
      </trkpt>
      <trkpt lat="48.22445" lon="-3.17686">
        <ele>136.19999694824</ele>
        <time>2020-10-19T11:18:33.000Z</time>
      </trkpt>
      <trkpt lat="48.22445" lon="-3.17688">
        <ele>136.19999694824</ele>
        <time>2020-10-19T11:18:34.000Z</time>
      </trkpt>
      <trkpt lat="48.22445" lon="-3.1769">
        <ele>136</ele>
        <time>2020-10-19T11:18:35.000Z</time>
      </trkpt>
      <trkpt lat="48.22445" lon="-3.17692">
        <ele>136</ele>
        <time>2020-10-19T11:18:36.000Z</time>
      </trkpt>
      <trkpt lat="48.22444" lon="-3.17693">
        <ele>136</ele>
        <time>2020-10-19T11:18:37.000Z</time>
      </trkpt>
      <trkpt lat="48.22444" lon="-3.17695">
        <ele>136</ele>
        <time>2020-10-19T11:18:38.000Z</time>
      </trkpt>
      <trkpt lat="48.22444" lon="-3.17697">
        <ele>136</ele>
        <time>2020-10-19T11:18:39.000Z</time>
      </trkpt>
      <trkpt lat="48.22443" lon="-3.17699">
        <ele>136</ele>
        <time>2020-10-19T11:18:40.000Z</time>
      </trkpt>
      <trkpt lat="48.22443" lon="-3.17701">
        <ele>136</ele>
        <time>2020-10-19T11:18:41.000Z</time>
      </trkpt>
      <trkpt lat="48.22443" lon="-3.17703">
        <ele>136</ele>
        <time>2020-10-19T11:18:42.000Z</time>
      </trkpt>
      <trkpt lat="48.22443" lon="-3.17706">
        <ele>136</ele>
        <time>2020-10-19T11:18:43.000Z</time>
      </trkpt>
      <trkpt lat="48.22443" lon="-3.17706">
        <ele>136</ele>
        <time>2020-10-19T11:18:44.000Z</time>
      </trkpt>
      <trkpt lat="48.22443" lon="-3.17708">
        <ele>136</ele>
        <time>2020-10-19T11:18:45.000Z</time>
      </trkpt>
      <trkpt lat="48.22443" lon="-3.1771">
        <ele>136</ele>
        <time>2020-10-19T11:18:46.000Z</time>
      </trkpt>
      <trkpt lat="48.22443" lon="-3.17712">
        <ele>136</ele>
        <time>2020-10-19T11:18:47.000Z</time>
      </trkpt>
      <trkpt lat="48.22442" lon="-3.17714">
        <ele>136</ele>
        <time>2020-10-19T11:18:48.000Z</time>
      </trkpt>
      <trkpt lat="48.22442" lon="-3.17716">
        <ele>135.80000305176</ele>
        <time>2020-10-19T11:18:49.000Z</time>
      </trkpt>
      <trkpt lat="48.22443" lon="-3.17718">
        <ele>135.80000305176</ele>
        <time>2020-10-19T11:18:50.000Z</time>
      </trkpt>
      <trkpt lat="48.22443" lon="-3.1772">
        <ele>135.80000305176</ele>
        <time>2020-10-19T11:18:51.000Z</time>
      </trkpt>
      <trkpt lat="48.22443" lon="-3.17722">
        <ele>135.80000305176</ele>
        <time>2020-10-19T11:18:52.000Z</time>
      </trkpt>
      <trkpt lat="48.22443" lon="-3.17724">
        <ele>135.80000305176</ele>
        <time>2020-10-19T11:18:53.000Z</time>
      </trkpt>
      <trkpt lat="48.22443" lon="-3.17725">
        <ele>135.80000305176</ele>
        <time>2020-10-19T11:18:54.000Z</time>
      </trkpt>
      <trkpt lat="48.22443" lon="-3.17727">
        <ele>135.80000305176</ele>
        <time>2020-10-19T11:18:55.000Z</time>
      </trkpt>
      <trkpt lat="48.22443" lon="-3.1773">
        <ele>135.80000305176</ele>
        <time>2020-10-19T11:18:56.000Z</time>
      </trkpt>
      <trkpt lat="48.22443" lon="-3.17732">
        <ele>135.60000610352</ele>
        <time>2020-10-19T11:18:57.000Z</time>
      </trkpt>
      <trkpt lat="48.22443" lon="-3.17734">
        <ele>135.60000610352</ele>
        <time>2020-10-19T11:18:58.000Z</time>
      </trkpt>
      <trkpt lat="48.22443" lon="-3.17735">
        <ele>135.60000610352</ele>
        <time>2020-10-19T11:18:59.000Z</time>
      </trkpt>
      <trkpt lat="48.22443" lon="-3.17737">
        <ele>135.60000610352</ele>
        <time>2020-10-19T11:19:00.000Z</time>
      </trkpt>
      <trkpt lat="48.22443" lon="-3.17738">
        <ele>135.60000610352</ele>
        <time>2020-10-19T11:19:01.000Z</time>
      </trkpt>
      <trkpt lat="48.22443" lon="-3.1774">
        <ele>135.60000610352</ele>
        <time>2020-10-19T11:19:02.000Z</time>
      </trkpt>
      <trkpt lat="48.22442" lon="-3.17742">
        <ele>135.60000610352</ele>
        <time>2020-10-19T11:19:03.000Z</time>
      </trkpt>
      <trkpt lat="48.22442" lon="-3.17744">
        <ele>135.60000610352</ele>
        <time>2020-10-19T11:19:04.000Z</time>
      </trkpt>
      <trkpt lat="48.22442" lon="-3.17746">
        <ele>135.60000610352</ele>
        <time>2020-10-19T11:19:05.000Z</time>
      </trkpt>
      <trkpt lat="48.22442" lon="-3.17748">
        <ele>135.60000610352</ele>
        <time>2020-10-19T11:19:06.000Z</time>
      </trkpt>
      <trkpt lat="48.22442" lon="-3.1775">
        <ele>135.60000610352</ele>
        <time>2020-10-19T11:19:07.000Z</time>
      </trkpt>
      <trkpt lat="48.22441" lon="-3.17751">
        <ele>135.60000610352</ele>
        <time>2020-10-19T11:19:08.000Z</time>
      </trkpt>
      <trkpt lat="48.22441" lon="-3.17753">
        <ele>135.60000610352</ele>
        <time>2020-10-19T11:19:09.000Z</time>
      </trkpt>
      <trkpt lat="48.22441" lon="-3.17755">
        <ele>135.60000610352</ele>
        <time>2020-10-19T11:19:10.000Z</time>
      </trkpt>
      <trkpt lat="48.22441" lon="-3.17757">
        <ele>135.60000610352</ele>
        <time>2020-10-19T11:19:11.000Z</time>
      </trkpt>
      <trkpt lat="48.22441" lon="-3.17759">
        <ele>135.60000610352</ele>
        <time>2020-10-19T11:19:12.000Z</time>
      </trkpt>
      <trkpt lat="48.22441" lon="-3.17761">
        <ele>135.60000610352</ele>
        <time>2020-10-19T11:19:13.000Z</time>
      </trkpt>
      <trkpt lat="48.22441" lon="-3.17763">
        <ele>135.60000610352</ele>
        <time>2020-10-19T11:19:14.000Z</time>
      </trkpt>
      <trkpt lat="48.22441" lon="-3.17765">
        <ele>135.39999389648</ele>
        <time>2020-10-19T11:19:15.000Z</time>
      </trkpt>
      <trkpt lat="48.22441" lon="-3.17767">
        <ele>135.39999389648</ele>
        <time>2020-10-19T11:19:16.000Z</time>
      </trkpt>
      <trkpt lat="48.22441" lon="-3.17769">
        <ele>135.39999389648</ele>
        <time>2020-10-19T11:19:17.000Z</time>
      </trkpt>
      <trkpt lat="48.22441" lon="-3.17771">
        <ele>135.39999389648</ele>
        <time>2020-10-19T11:19:18.000Z</time>
      </trkpt>
      <trkpt lat="48.22441" lon="-3.17773">
        <ele>135.19999694824</ele>
        <time>2020-10-19T11:19:19.000Z</time>
      </trkpt>
      <trkpt lat="48.22441" lon="-3.17774">
        <ele>135.19999694824</ele>
        <time>2020-10-19T11:19:20.000Z</time>
      </trkpt>
      <trkpt lat="48.22441" lon="-3.17776">
        <ele>135.19999694824</ele>
        <time>2020-10-19T11:19:21.000Z</time>
      </trkpt>
      <trkpt lat="48.22441" lon="-3.17778">
        <ele>135.19999694824</ele>
        <time>2020-10-19T11:19:22.000Z</time>
      </trkpt>
      <trkpt lat="48.22441" lon="-3.1778">
        <ele>135.19999694824</ele>
        <time>2020-10-19T11:19:23.000Z</time>
      </trkpt>
      <trkpt lat="48.22442" lon="-3.17782">
        <ele>135</ele>
        <time>2020-10-19T11:19:24.000Z</time>
      </trkpt>
      <trkpt lat="48.22442" lon="-3.17784">
        <ele>135</ele>
        <time>2020-10-19T11:19:25.000Z</time>
      </trkpt>
      <trkpt lat="48.22442" lon="-3.17786">
        <ele>135</ele>
        <time>2020-10-19T11:19:26.000Z</time>
      </trkpt>
      <trkpt lat="48.22442" lon="-3.17787">
        <ele>135</ele>
        <time>2020-10-19T11:19:27.000Z</time>
      </trkpt>
      <trkpt lat="48.22442" lon="-3.17789">
        <ele>134.80000305176</ele>
        <time>2020-10-19T11:19:28.000Z</time>
      </trkpt>
      <trkpt lat="48.22442" lon="-3.17791">
        <ele>134.80000305176</ele>
        <time>2020-10-19T11:19:29.000Z</time>
      </trkpt>
      <trkpt lat="48.22442" lon="-3.17792">
        <ele>134.80000305176</ele>
        <time>2020-10-19T11:19:30.000Z</time>
      </trkpt>
      <trkpt lat="48.22442" lon="-3.17794">
        <ele>134.80000305176</ele>
        <time>2020-10-19T11:19:31.000Z</time>
      </trkpt>
      <trkpt lat="48.22442" lon="-3.17796">
        <ele>134.80000305176</ele>
        <time>2020-10-19T11:19:32.000Z</time>
      </trkpt>
      <trkpt lat="48.22442" lon="-3.17798">
        <ele>134.60000610352</ele>
        <time>2020-10-19T11:19:33.000Z</time>
      </trkpt>
      <trkpt lat="48.22441" lon="-3.17801">
        <ele>134.60000610352</ele>
        <time>2020-10-19T11:19:34.000Z</time>
      </trkpt>
      <trkpt lat="48.22441" lon="-3.17801">
        <ele>134.60000610352</ele>
        <time>2020-10-19T11:19:35.000Z</time>
      </trkpt>
      <trkpt lat="48.22441" lon="-3.17803">
        <ele>134.60000610352</ele>
        <time>2020-10-19T11:19:36.000Z</time>
      </trkpt>
      <trkpt lat="48.22441" lon="-3.17805">
        <ele>134.60000610352</ele>
        <time>2020-10-19T11:19:37.000Z</time>
      </trkpt>
      <trkpt lat="48.22442" lon="-3.17806">
        <ele>134.39999389648</ele>
        <time>2020-10-19T11:19:38.000Z</time>
      </trkpt>
      <trkpt lat="48.22442" lon="-3.17808">
        <ele>134.39999389648</ele>
        <time>2020-10-19T11:19:39.000Z</time>
      </trkpt>
      <trkpt lat="48.22442" lon="-3.1781">
        <ele>134.39999389648</ele>
        <time>2020-10-19T11:19:40.000Z</time>
      </trkpt>
      <trkpt lat="48.22442" lon="-3.17812">
        <ele>134.39999389648</ele>
        <time>2020-10-19T11:19:41.000Z</time>
      </trkpt>
      <trkpt lat="48.22442" lon="-3.17814">
        <ele>134.19999694824</ele>
        <time>2020-10-19T11:19:42.000Z</time>
      </trkpt>
      <trkpt lat="48.22442" lon="-3.17815">
        <ele>134.19999694824</ele>
        <time>2020-10-19T11:19:43.000Z</time>
      </trkpt>
      <trkpt lat="48.22442" lon="-3.17817">
        <ele>134.19999694824</ele>
        <time>2020-10-19T11:19:44.000Z</time>
      </trkpt>
      <trkpt lat="48.22442" lon="-3.17818">
        <ele>134.19999694824</ele>
        <time>2020-10-19T11:19:45.000Z</time>
      </trkpt>
      <trkpt lat="48.22442" lon="-3.17819">
        <ele>134.19999694824</ele>
        <time>2020-10-19T11:19:46.000Z</time>
      </trkpt>
      <trkpt lat="48.22442" lon="-3.1782">
        <ele>134.19999694824</ele>
        <time>2020-10-19T11:19:47.000Z</time>
      </trkpt>
      <trkpt lat="48.22442" lon="-3.17822">
        <ele>134</ele>
        <time>2020-10-19T11:19:48.000Z</time>
      </trkpt>
      <trkpt lat="48.22442" lon="-3.17824">
        <ele>134</ele>
        <time>2020-10-19T11:19:49.000Z</time>
      </trkpt>
      <trkpt lat="48.22442" lon="-3.17826">
        <ele>134</ele>
        <time>2020-10-19T11:19:50.000Z</time>
      </trkpt>
      <trkpt lat="48.22442" lon="-3.17828">
        <ele>134</ele>
        <time>2020-10-19T11:19:51.000Z</time>
      </trkpt>
      <trkpt lat="48.22442" lon="-3.17829">
        <ele>133.80000305176</ele>
        <time>2020-10-19T11:19:52.000Z</time>
      </trkpt>
      <trkpt lat="48.22443" lon="-3.1783">
        <ele>133.80000305176</ele>
        <time>2020-10-19T11:19:53.000Z</time>
      </trkpt>
      <trkpt lat="48.22444" lon="-3.17831">
        <ele>133.80000305176</ele>
        <time>2020-10-19T11:19:54.000Z</time>
      </trkpt>
      <trkpt lat="48.22445" lon="-3.17831">
        <ele>133.80000305176</ele>
        <time>2020-10-19T11:19:55.000Z</time>
      </trkpt>
      <trkpt lat="48.22446" lon="-3.17831">
        <ele>133.80000305176</ele>
        <time>2020-10-19T11:19:56.000Z</time>
      </trkpt>
      <trkpt lat="48.22447" lon="-3.1783">
        <ele>133.60000610352</ele>
        <time>2020-10-19T11:19:57.000Z</time>
      </trkpt>
      <trkpt lat="48.22449" lon="-3.1783">
        <ele>133.60000610352</ele>
        <time>2020-10-19T11:19:58.000Z</time>
      </trkpt>
      <trkpt lat="48.2245" lon="-3.1783">
        <ele>133.60000610352</ele>
        <time>2020-10-19T11:19:59.000Z</time>
      </trkpt>
      <trkpt lat="48.22451" lon="-3.1783">
        <ele>133.60000610352</ele>
        <time>2020-10-19T11:20:00.000Z</time>
      </trkpt>
      <trkpt lat="48.22453" lon="-3.1783">
        <ele>133.39999389648</ele>
        <time>2020-10-19T11:20:01.000Z</time>
      </trkpt>
      <trkpt lat="48.22453" lon="-3.17831">
        <ele>133.39999389648</ele>
        <time>2020-10-19T11:20:02.000Z</time>
      </trkpt>
      <trkpt lat="48.22454" lon="-3.17831">
        <ele>133.39999389648</ele>
        <time>2020-10-19T11:20:03.000Z</time>
      </trkpt>
      <trkpt lat="48.22454" lon="-3.17831">
        <ele>133.39999389648</ele>
        <time>2020-10-19T11:20:04.000Z</time>
      </trkpt>
      <trkpt lat="48.22454" lon="-3.17831">
        <ele>133.39999389648</ele>
        <time>2020-10-19T11:20:05.000Z</time>
      </trkpt>
      <trkpt lat="48.22454" lon="-3.17831">
        <ele>133.39999389648</ele>
        <time>2020-10-19T11:20:06.000Z</time>
      </trkpt>
      <trkpt lat="48.22455" lon="-3.17831">
        <ele>133.39999389648</ele>
        <time>2020-10-19T11:20:07.000Z</time>
      </trkpt>
      <trkpt lat="48.22456" lon="-3.17832">
        <ele>133.39999389648</ele>
        <time>2020-10-19T11:20:08.000Z</time>
      </trkpt>
      <trkpt lat="48.22457" lon="-3.17832">
        <ele>133.19999694824</ele>
        <time>2020-10-19T11:20:09.000Z</time>
      </trkpt>
      <trkpt lat="48.22459" lon="-3.17832">
        <ele>133.19999694824</ele>
        <time>2020-10-19T11:20:10.000Z</time>
      </trkpt>
      <trkpt lat="48.22459" lon="-3.17832">
        <ele>133.19999694824</ele>
        <time>2020-10-19T11:20:11.000Z</time>
      </trkpt>
      <trkpt lat="48.2246" lon="-3.17832">
        <ele>133.19999694824</ele>
        <time>2020-10-19T11:20:12.000Z</time>
      </trkpt>
      <trkpt lat="48.22462" lon="-3.17832">
        <ele>133.19999694824</ele>
        <time>2020-10-19T11:20:13.000Z</time>
      </trkpt>
      <trkpt lat="48.22463" lon="-3.17831">
        <ele>133</ele>
        <time>2020-10-19T11:20:14.000Z</time>
      </trkpt>
      <trkpt lat="48.22464" lon="-3.17831">
        <ele>133</ele>
        <time>2020-10-19T11:20:15.000Z</time>
      </trkpt>
      <trkpt lat="48.22465" lon="-3.17831">
        <ele>133</ele>
        <time>2020-10-19T11:20:16.000Z</time>
      </trkpt>
      <trkpt lat="48.22465" lon="-3.17831">
        <ele>133</ele>
        <time>2020-10-19T11:20:17.000Z</time>
      </trkpt>
      <trkpt lat="48.22466" lon="-3.1783">
        <ele>133</ele>
        <time>2020-10-19T11:20:18.000Z</time>
      </trkpt>
      <trkpt lat="48.22467" lon="-3.1783">
        <ele>133</ele>
        <time>2020-10-19T11:20:19.000Z</time>
      </trkpt>
      <trkpt lat="48.22468" lon="-3.1783">
        <ele>133</ele>
        <time>2020-10-19T11:20:20.000Z</time>
      </trkpt>
      <trkpt lat="48.22468" lon="-3.1783">
        <ele>133</ele>
        <time>2020-10-19T11:20:21.000Z</time>
      </trkpt>
      <trkpt lat="48.22469" lon="-3.1783">
        <ele>132.80000305176</ele>
        <time>2020-10-19T11:20:22.000Z</time>
      </trkpt>
      <trkpt lat="48.22469" lon="-3.17831">
        <ele>132.80000305176</ele>
        <time>2020-10-19T11:20:23.000Z</time>
      </trkpt>
      <trkpt lat="48.2247" lon="-3.17831">
        <ele>132.80000305176</ele>
        <time>2020-10-19T11:20:24.000Z</time>
      </trkpt>
      <trkpt lat="48.22471" lon="-3.17831">
        <ele>132.80000305176</ele>
        <time>2020-10-19T11:20:25.000Z</time>
      </trkpt>
      <trkpt lat="48.22472" lon="-3.17831">
        <ele>132.80000305176</ele>
        <time>2020-10-19T11:20:26.000Z</time>
      </trkpt>
      <trkpt lat="48.22473" lon="-3.17832">
        <ele>132.80000305176</ele>
        <time>2020-10-19T11:20:27.000Z</time>
      </trkpt>
      <trkpt lat="48.22475" lon="-3.17832">
        <ele>132.60000610352</ele>
        <time>2020-10-19T11:20:28.000Z</time>
      </trkpt>
      <trkpt lat="48.22476" lon="-3.17833">
        <ele>132.60000610352</ele>
        <time>2020-10-19T11:20:29.000Z</time>
      </trkpt>
      <trkpt lat="48.22477" lon="-3.17833">
        <ele>132.60000610352</ele>
        <time>2020-10-19T11:20:30.000Z</time>
      </trkpt>
      <trkpt lat="48.22478" lon="-3.17834">
        <ele>132.39999389648</ele>
        <time>2020-10-19T11:20:31.000Z</time>
      </trkpt>
      <trkpt lat="48.22479" lon="-3.17835">
        <ele>132.39999389648</ele>
        <time>2020-10-19T11:20:32.000Z</time>
      </trkpt>
      <trkpt lat="48.2248" lon="-3.17836">
        <ele>132.39999389648</ele>
        <time>2020-10-19T11:20:33.000Z</time>
      </trkpt>
      <trkpt lat="48.22481" lon="-3.17836">
        <ele>132.39999389648</ele>
        <time>2020-10-19T11:20:34.000Z</time>
      </trkpt>
      <trkpt lat="48.22482" lon="-3.17836">
        <ele>132.19999694824</ele>
        <time>2020-10-19T11:20:35.000Z</time>
      </trkpt>
      <trkpt lat="48.22483" lon="-3.17837">
        <ele>132.19999694824</ele>
        <time>2020-10-19T11:20:36.000Z</time>
      </trkpt>
      <trkpt lat="48.22484" lon="-3.17837">
        <ele>132.19999694824</ele>
        <time>2020-10-19T11:20:37.000Z</time>
      </trkpt>
      <trkpt lat="48.22485" lon="-3.17838">
        <ele>132.19999694824</ele>
        <time>2020-10-19T11:20:38.000Z</time>
      </trkpt>
      <trkpt lat="48.22486" lon="-3.17838">
        <ele>132.19999694824</ele>
        <time>2020-10-19T11:20:39.000Z</time>
      </trkpt>
      <trkpt lat="48.22487" lon="-3.17838">
        <ele>132</ele>
        <time>2020-10-19T11:20:40.000Z</time>
      </trkpt>
      <trkpt lat="48.22488" lon="-3.17838">
        <ele>132</ele>
        <time>2020-10-19T11:20:41.000Z</time>
      </trkpt>
      <trkpt lat="48.22489" lon="-3.17839">
        <ele>132</ele>
        <time>2020-10-19T11:20:42.000Z</time>
      </trkpt>
      <trkpt lat="48.2249" lon="-3.17839">
        <ele>132</ele>
        <time>2020-10-19T11:20:43.000Z</time>
      </trkpt>
      <trkpt lat="48.22491" lon="-3.17839">
        <ele>131.80000305176</ele>
        <time>2020-10-19T11:20:44.000Z</time>
      </trkpt>
      <trkpt lat="48.22493" lon="-3.17839">
        <ele>131.80000305176</ele>
        <time>2020-10-19T11:20:45.000Z</time>
      </trkpt>
      <trkpt lat="48.22495" lon="-3.17839">
        <ele>131.80000305176</ele>
        <time>2020-10-19T11:20:46.000Z</time>
      </trkpt>
      <trkpt lat="48.22496" lon="-3.17839">
        <ele>131.80000305176</ele>
        <time>2020-10-19T11:20:47.000Z</time>
      </trkpt>
      <trkpt lat="48.22497" lon="-3.17838">
        <ele>131.60000610352</ele>
        <time>2020-10-19T11:20:48.000Z</time>
      </trkpt>
      <trkpt lat="48.22498" lon="-3.17839">
        <ele>131.60000610352</ele>
        <time>2020-10-19T11:20:49.000Z</time>
      </trkpt>
      <trkpt lat="48.225" lon="-3.17839">
        <ele>131.60000610352</ele>
        <time>2020-10-19T11:20:50.000Z</time>
      </trkpt>
      <trkpt lat="48.22501" lon="-3.17839">
        <ele>131.60000610352</ele>
        <time>2020-10-19T11:20:51.000Z</time>
      </trkpt>
      <trkpt lat="48.22502" lon="-3.17839">
        <ele>131.39999389648</ele>
        <time>2020-10-19T11:20:52.000Z</time>
      </trkpt>
      <trkpt lat="48.22503" lon="-3.17839">
        <ele>131.39999389648</ele>
        <time>2020-10-19T11:20:53.000Z</time>
      </trkpt>
      <trkpt lat="48.22504" lon="-3.17839">
        <ele>131.39999389648</ele>
        <time>2020-10-19T11:20:54.000Z</time>
      </trkpt>
      <trkpt lat="48.22505" lon="-3.17839">
        <ele>131.39999389648</ele>
        <time>2020-10-19T11:20:55.000Z</time>
      </trkpt>
      <trkpt lat="48.22506" lon="-3.1784">
        <ele>131.39999389648</ele>
        <time>2020-10-19T11:20:56.000Z</time>
      </trkpt>
      <trkpt lat="48.22507" lon="-3.1784">
        <ele>131.19999694824</ele>
        <time>2020-10-19T11:20:57.000Z</time>
      </trkpt>
      <trkpt lat="48.22508" lon="-3.1784">
        <ele>131.19999694824</ele>
        <time>2020-10-19T11:20:58.000Z</time>
      </trkpt>
      <trkpt lat="48.2251" lon="-3.1784">
        <ele>131.19999694824</ele>
        <time>2020-10-19T11:20:59.000Z</time>
      </trkpt>
      <trkpt lat="48.22511" lon="-3.1784">
        <ele>131.19999694824</ele>
        <time>2020-10-19T11:21:00.000Z</time>
      </trkpt>
      <trkpt lat="48.22512" lon="-3.17841">
        <ele>131.19999694824</ele>
        <time>2020-10-19T11:21:01.000Z</time>
      </trkpt>
      <trkpt lat="48.22513" lon="-3.17841">
        <ele>131</ele>
        <time>2020-10-19T11:21:02.000Z</time>
      </trkpt>
      <trkpt lat="48.22514" lon="-3.17841">
        <ele>131</ele>
        <time>2020-10-19T11:21:03.000Z</time>
      </trkpt>
      <trkpt lat="48.22517" lon="-3.17841">
        <ele>131</ele>
        <time>2020-10-19T11:21:04.000Z</time>
      </trkpt>
      <trkpt lat="48.22517" lon="-3.17841">
        <ele>131</ele>
        <time>2020-10-19T11:21:05.000Z</time>
      </trkpt>
      <trkpt lat="48.22518" lon="-3.17841">
        <ele>131</ele>
        <time>2020-10-19T11:21:06.000Z</time>
      </trkpt>
      <trkpt lat="48.22519" lon="-3.17841">
        <ele>131</ele>
        <time>2020-10-19T11:21:07.000Z</time>
      </trkpt>
      <trkpt lat="48.22521" lon="-3.17842">
        <ele>131</ele>
        <time>2020-10-19T11:21:08.000Z</time>
      </trkpt>
      <trkpt lat="48.22522" lon="-3.17842">
        <ele>131</ele>
        <time>2020-10-19T11:21:09.000Z</time>
      </trkpt>
      <trkpt lat="48.22523" lon="-3.17842">
        <ele>131</ele>
        <time>2020-10-19T11:21:10.000Z</time>
      </trkpt>
      <trkpt lat="48.22524" lon="-3.17842">
        <ele>131</ele>
        <time>2020-10-19T11:21:11.000Z</time>
      </trkpt>
      <trkpt lat="48.22526" lon="-3.17842">
        <ele>131</ele>
        <time>2020-10-19T11:21:12.000Z</time>
      </trkpt>
      <trkpt lat="48.22527" lon="-3.17842">
        <ele>131</ele>
        <time>2020-10-19T11:21:13.000Z</time>
      </trkpt>
      <trkpt lat="48.22528" lon="-3.17842">
        <ele>131</ele>
        <time>2020-10-19T11:21:14.000Z</time>
      </trkpt>
      <trkpt lat="48.22529" lon="-3.17842">
        <ele>131</ele>
        <time>2020-10-19T11:21:15.000Z</time>
      </trkpt>
      <trkpt lat="48.2253" lon="-3.17843">
        <ele>131</ele>
        <time>2020-10-19T11:21:16.000Z</time>
      </trkpt>
      <trkpt lat="48.22531" lon="-3.17843">
        <ele>131</ele>
        <time>2020-10-19T11:21:17.000Z</time>
      </trkpt>
      <trkpt lat="48.22533" lon="-3.17844">
        <ele>131</ele>
        <time>2020-10-19T11:21:18.000Z</time>
      </trkpt>
      <trkpt lat="48.22534" lon="-3.17844">
        <ele>131</ele>
        <time>2020-10-19T11:21:19.000Z</time>
      </trkpt>
      <trkpt lat="48.22535" lon="-3.17845">
        <ele>131</ele>
        <time>2020-10-19T11:21:20.000Z</time>
      </trkpt>
      <trkpt lat="48.22537" lon="-3.17845">
        <ele>131</ele>
        <time>2020-10-19T11:21:21.000Z</time>
      </trkpt>
      <trkpt lat="48.22538" lon="-3.17845">
        <ele>131</ele>
        <time>2020-10-19T11:21:22.000Z</time>
      </trkpt>
      <trkpt lat="48.22539" lon="-3.17846">
        <ele>131</ele>
        <time>2020-10-19T11:21:23.000Z</time>
      </trkpt>
      <trkpt lat="48.2254" lon="-3.17847">
        <ele>131</ele>
        <time>2020-10-19T11:21:24.000Z</time>
      </trkpt>
      <trkpt lat="48.22541" lon="-3.17848">
        <ele>131</ele>
        <time>2020-10-19T11:21:25.000Z</time>
      </trkpt>
      <trkpt lat="48.22542" lon="-3.17849">
        <ele>131</ele>
        <time>2020-10-19T11:21:26.000Z</time>
      </trkpt>
      <trkpt lat="48.22543" lon="-3.17849">
        <ele>131.19999694824</ele>
        <time>2020-10-19T11:21:27.000Z</time>
      </trkpt>
      <trkpt lat="48.22544" lon="-3.1785">
        <ele>131.19999694824</ele>
        <time>2020-10-19T11:21:28.000Z</time>
      </trkpt>
      <trkpt lat="48.22545" lon="-3.17851">
        <ele>131.19999694824</ele>
        <time>2020-10-19T11:21:29.000Z</time>
      </trkpt>
      <trkpt lat="48.22546" lon="-3.17851">
        <ele>131.19999694824</ele>
        <time>2020-10-19T11:21:30.000Z</time>
      </trkpt>
      <trkpt lat="48.22547" lon="-3.17852">
        <ele>131.19999694824</ele>
        <time>2020-10-19T11:21:31.000Z</time>
      </trkpt>
      <trkpt lat="48.22548" lon="-3.17853">
        <ele>131.19999694824</ele>
        <time>2020-10-19T11:21:32.000Z</time>
      </trkpt>
      <trkpt lat="48.22549" lon="-3.17854">
        <ele>131.19999694824</ele>
        <time>2020-10-19T11:21:33.000Z</time>
      </trkpt>
      <trkpt lat="48.2255" lon="-3.17855">
        <ele>131.19999694824</ele>
        <time>2020-10-19T11:21:34.000Z</time>
      </trkpt>
      <trkpt lat="48.22551" lon="-3.17856">
        <ele>131.19999694824</ele>
        <time>2020-10-19T11:21:35.000Z</time>
      </trkpt>
      <trkpt lat="48.22551" lon="-3.17856">
        <ele>131.19999694824</ele>
        <time>2020-10-19T11:21:36.000Z</time>
      </trkpt>
      <trkpt lat="48.22553" lon="-3.17859">
        <ele>131.39999389648</ele>
        <time>2020-10-19T11:21:37.000Z</time>
      </trkpt>
      <trkpt lat="48.22554" lon="-3.1786">
        <ele>131.39999389648</ele>
        <time>2020-10-19T11:21:38.000Z</time>
      </trkpt>
      <trkpt lat="48.22555" lon="-3.1786">
        <ele>131.39999389648</ele>
        <time>2020-10-19T11:21:39.000Z</time>
      </trkpt>
      <trkpt lat="48.22556" lon="-3.17859">
        <ele>131.39999389648</ele>
        <time>2020-10-19T11:21:40.000Z</time>
      </trkpt>
      <trkpt lat="48.22557" lon="-3.17859">
        <ele>131.39999389648</ele>
        <time>2020-10-19T11:21:41.000Z</time>
      </trkpt>
      <trkpt lat="48.22558" lon="-3.17858">
        <ele>131.39999389648</ele>
        <time>2020-10-19T11:21:42.000Z</time>
      </trkpt>
      <trkpt lat="48.22558" lon="-3.17858">
        <ele>131.39999389648</ele>
        <time>2020-10-19T11:21:43.000Z</time>
      </trkpt>
      <trkpt lat="48.22559" lon="-3.17858">
        <ele>131.39999389648</ele>
        <time>2020-10-19T11:21:44.000Z</time>
      </trkpt>
      <trkpt lat="48.2256" lon="-3.17858">
        <ele>131.39999389648</ele>
        <time>2020-10-19T11:21:45.000Z</time>
      </trkpt>
      <trkpt lat="48.22561" lon="-3.17859">
        <ele>131.39999389648</ele>
        <time>2020-10-19T11:21:46.000Z</time>
      </trkpt>
      <trkpt lat="48.22562" lon="-3.17858">
        <ele>131.39999389648</ele>
        <time>2020-10-19T11:21:47.000Z</time>
      </trkpt>
      <trkpt lat="48.22562" lon="-3.17857">
        <ele>131.39999389648</ele>
        <time>2020-10-19T11:21:48.000Z</time>
      </trkpt>
      <trkpt lat="48.22563" lon="-3.17857">
        <ele>131.19999694824</ele>
        <time>2020-10-19T11:21:49.000Z</time>
      </trkpt>
      <trkpt lat="48.22563" lon="-3.17857">
        <ele>131.19999694824</ele>
        <time>2020-10-19T11:21:50.000Z</time>
      </trkpt>
      <trkpt lat="48.22563" lon="-3.17857">
        <ele>131.19999694824</ele>
        <time>2020-10-19T11:21:51.000Z</time>
      </trkpt>
      <trkpt lat="48.22563" lon="-3.17857">
        <ele>131.19999694824</ele>
        <time>2020-10-19T11:21:52.000Z</time>
      </trkpt>
      <trkpt lat="48.22564" lon="-3.17856">
        <ele>131.19999694824</ele>
        <time>2020-10-19T11:21:53.000Z</time>
      </trkpt>
      <trkpt lat="48.22564" lon="-3.17856">
        <ele>131.19999694824</ele>
        <time>2020-10-19T11:21:54.000Z</time>
      </trkpt>
      <trkpt lat="48.22564" lon="-3.17856">
        <ele>131.19999694824</ele>
        <time>2020-10-19T11:21:55.000Z</time>
      </trkpt>
      <trkpt lat="48.22564" lon="-3.17856">
        <ele>131.19999694824</ele>
        <time>2020-10-19T11:21:56.000Z</time>
      </trkpt>
      <trkpt lat="48.22565" lon="-3.17856">
        <ele>131.19999694824</ele>
        <time>2020-10-19T11:21:57.000Z</time>
      </trkpt>
      <trkpt lat="48.22565" lon="-3.17855">
        <ele>131.19999694824</ele>
        <time>2020-10-19T11:21:58.000Z</time>
      </trkpt>
      <trkpt lat="48.22565" lon="-3.17855">
        <ele>131.19999694824</ele>
        <time>2020-10-19T11:21:59.000Z</time>
      </trkpt>
      <trkpt lat="48.22565" lon="-3.17855">
        <ele>131.19999694824</ele>
        <time>2020-10-19T11:22:00.000Z</time>
      </trkpt>
      <trkpt lat="48.22565" lon="-3.17854">
        <ele>131.19999694824</ele>
        <time>2020-10-19T11:22:01.000Z</time>
      </trkpt>
      <trkpt lat="48.22564" lon="-3.17854">
        <ele>131.19999694824</ele>
        <time>2020-10-19T11:22:02.000Z</time>
      </trkpt>
      <trkpt lat="48.22564" lon="-3.17854">
        <ele>131.19999694824</ele>
        <time>2020-10-19T11:22:03.000Z</time>
      </trkpt>
      <trkpt lat="48.22565" lon="-3.17854">
        <ele>131.19999694824</ele>
        <time>2020-10-19T11:22:04.000Z</time>
      </trkpt>
      <trkpt lat="48.22565" lon="-3.17854">
        <ele>131.19999694824</ele>
        <time>2020-10-19T11:22:05.000Z</time>
      </trkpt>
      <trkpt lat="48.22565" lon="-3.17853">
        <ele>131.19999694824</ele>
        <time>2020-10-19T11:22:06.000Z</time>
      </trkpt>
      <trkpt lat="48.22565" lon="-3.17853">
        <ele>131.19999694824</ele>
        <time>2020-10-19T11:22:07.000Z</time>
      </trkpt>
      <trkpt lat="48.22565" lon="-3.17853">
        <ele>131.19999694824</ele>
        <time>2020-10-19T11:22:08.000Z</time>
      </trkpt>
      <trkpt lat="48.22565" lon="-3.17853">
        <ele>131.19999694824</ele>
        <time>2020-10-19T11:22:09.000Z</time>
      </trkpt>
      <trkpt lat="48.22565" lon="-3.17853">
        <ele>131.19999694824</ele>
        <time>2020-10-19T11:22:10.000Z</time>
      </trkpt>
      <trkpt lat="48.22565" lon="-3.17853">
        <ele>131.19999694824</ele>
        <time>2020-10-19T11:22:11.000Z</time>
      </trkpt>
      <trkpt lat="48.22565" lon="-3.17853">
        <ele>131.19999694824</ele>
        <time>2020-10-19T11:22:12.000Z</time>
      </trkpt>
      <trkpt lat="48.22565" lon="-3.17853">
        <ele>131.19999694824</ele>
        <time>2020-10-19T11:22:13.000Z</time>
      </trkpt>
      <trkpt lat="48.22565" lon="-3.17852">
        <ele>131.19999694824</ele>
        <time>2020-10-19T11:22:14.000Z</time>
      </trkpt>
      <trkpt lat="48.22565" lon="-3.17851">
        <ele>131.19999694824</ele>
        <time>2020-10-19T11:22:15.000Z</time>
      </trkpt>
      <trkpt lat="48.22566" lon="-3.17849">
        <ele>131.19999694824</ele>
        <time>2020-10-19T11:22:16.000Z</time>
      </trkpt>
      <trkpt lat="48.22566" lon="-3.17848">
        <ele>131</ele>
        <time>2020-10-19T11:22:17.000Z</time>
      </trkpt>
      <trkpt lat="48.22566" lon="-3.17846">
        <ele>131</ele>
        <time>2020-10-19T11:22:18.000Z</time>
      </trkpt>
      <trkpt lat="48.22566" lon="-3.17844">
        <ele>131</ele>
        <time>2020-10-19T11:22:19.000Z</time>
      </trkpt>
      <trkpt lat="48.22566" lon="-3.17843">
        <ele>131</ele>
        <time>2020-10-19T11:22:20.000Z</time>
      </trkpt>
      <trkpt lat="48.22566" lon="-3.17841">
        <ele>131</ele>
        <time>2020-10-19T11:22:21.000Z</time>
      </trkpt>
      <trkpt lat="48.22566" lon="-3.17839">
        <ele>131</ele>
        <time>2020-10-19T11:22:22.000Z</time>
      </trkpt>
      <trkpt lat="48.22566" lon="-3.17838">
        <ele>131</ele>
        <time>2020-10-19T11:22:23.000Z</time>
      </trkpt>
      <trkpt lat="48.22566" lon="-3.17836">
        <ele>131.19999694824</ele>
        <time>2020-10-19T11:22:24.000Z</time>
      </trkpt>
      <trkpt lat="48.22566" lon="-3.17835">
        <ele>131.19999694824</ele>
        <time>2020-10-19T11:22:25.000Z</time>
      </trkpt>
      <trkpt lat="48.22566" lon="-3.17833">
        <ele>131.19999694824</ele>
        <time>2020-10-19T11:22:26.000Z</time>
      </trkpt>
      <trkpt lat="48.22566" lon="-3.17831">
        <ele>131.19999694824</ele>
        <time>2020-10-19T11:22:27.000Z</time>
      </trkpt>
      <trkpt lat="48.22567" lon="-3.17828">
        <ele>131.19999694824</ele>
        <time>2020-10-19T11:22:28.000Z</time>
      </trkpt>
      <trkpt lat="48.22567" lon="-3.17828">
        <ele>131.19999694824</ele>
        <time>2020-10-19T11:22:29.000Z</time>
      </trkpt>
      <trkpt lat="48.22567" lon="-3.17826">
        <ele>131.19999694824</ele>
        <time>2020-10-19T11:22:30.000Z</time>
      </trkpt>
      <trkpt lat="48.22567" lon="-3.17824">
        <ele>131.19999694824</ele>
        <time>2020-10-19T11:22:31.000Z</time>
      </trkpt>
      <trkpt lat="48.22567" lon="-3.17822">
        <ele>131.19999694824</ele>
        <time>2020-10-19T11:22:32.000Z</time>
      </trkpt>
      <trkpt lat="48.22568" lon="-3.17821">
        <ele>131.19999694824</ele>
        <time>2020-10-19T11:22:33.000Z</time>
      </trkpt>
      <trkpt lat="48.22568" lon="-3.17819">
        <ele>131.39999389648</ele>
        <time>2020-10-19T11:22:34.000Z</time>
      </trkpt>
      <trkpt lat="48.22568" lon="-3.17817">
        <ele>131.39999389648</ele>
        <time>2020-10-19T11:22:35.000Z</time>
      </trkpt>
      <trkpt lat="48.22569" lon="-3.17816">
        <ele>131.39999389648</ele>
        <time>2020-10-19T11:22:36.000Z</time>
      </trkpt>
      <trkpt lat="48.22569" lon="-3.17814">
        <ele>131.39999389648</ele>
        <time>2020-10-19T11:22:37.000Z</time>
      </trkpt>
      <trkpt lat="48.2257" lon="-3.17812">
        <ele>131.39999389648</ele>
        <time>2020-10-19T11:22:38.000Z</time>
      </trkpt>
      <trkpt lat="48.2257" lon="-3.17811">
        <ele>131.39999389648</ele>
        <time>2020-10-19T11:22:39.000Z</time>
      </trkpt>
      <trkpt lat="48.22571" lon="-3.17809">
        <ele>131.39999389648</ele>
        <time>2020-10-19T11:22:40.000Z</time>
      </trkpt>
      <trkpt lat="48.22571" lon="-3.17807">
        <ele>131.39999389648</ele>
        <time>2020-10-19T11:22:41.000Z</time>
      </trkpt>
      <trkpt lat="48.22572" lon="-3.17806">
        <ele>131.39999389648</ele>
        <time>2020-10-19T11:22:42.000Z</time>
      </trkpt>
      <trkpt lat="48.22572" lon="-3.17804">
        <ele>131.39999389648</ele>
        <time>2020-10-19T11:22:43.000Z</time>
      </trkpt>
      <trkpt lat="48.22573" lon="-3.17803">
        <ele>131.60000610352</ele>
        <time>2020-10-19T11:22:44.000Z</time>
      </trkpt>
      <trkpt lat="48.22573" lon="-3.17801">
        <ele>131.60000610352</ele>
        <time>2020-10-19T11:22:45.000Z</time>
      </trkpt>
      <trkpt lat="48.22575" lon="-3.17798">
        <ele>131.60000610352</ele>
        <time>2020-10-19T11:22:46.000Z</time>
      </trkpt>
      <trkpt lat="48.22575" lon="-3.17798">
        <ele>131.60000610352</ele>
        <time>2020-10-19T11:22:47.000Z</time>
      </trkpt>
      <trkpt lat="48.22575" lon="-3.17797">
        <ele>131.60000610352</ele>
        <time>2020-10-19T11:22:48.000Z</time>
      </trkpt>
      <trkpt lat="48.22576" lon="-3.17795">
        <ele>131.60000610352</ele>
        <time>2020-10-19T11:22:49.000Z</time>
      </trkpt>
      <trkpt lat="48.22577" lon="-3.17794">
        <ele>131.60000610352</ele>
        <time>2020-10-19T11:22:50.000Z</time>
      </trkpt>
      <trkpt lat="48.22578" lon="-3.17793">
        <ele>131.60000610352</ele>
        <time>2020-10-19T11:22:51.000Z</time>
      </trkpt>
      <trkpt lat="48.22579" lon="-3.17791">
        <ele>131.60000610352</ele>
        <time>2020-10-19T11:22:52.000Z</time>
      </trkpt>
      <trkpt lat="48.2258" lon="-3.1779">
        <ele>131.60000610352</ele>
        <time>2020-10-19T11:22:53.000Z</time>
      </trkpt>
      <trkpt lat="48.2258" lon="-3.17789">
        <ele>131.60000610352</ele>
        <time>2020-10-19T11:22:54.000Z</time>
      </trkpt>
      <trkpt lat="48.22581" lon="-3.17787">
        <ele>131.60000610352</ele>
        <time>2020-10-19T11:22:55.000Z</time>
      </trkpt>
      <trkpt lat="48.22581" lon="-3.17786">
        <ele>131.80000305176</ele>
        <time>2020-10-19T11:22:56.000Z</time>
      </trkpt>
      <trkpt lat="48.22581" lon="-3.17785">
        <ele>131.80000305176</ele>
        <time>2020-10-19T11:22:57.000Z</time>
      </trkpt>
      <trkpt lat="48.22581" lon="-3.17784">
        <ele>131.80000305176</ele>
        <time>2020-10-19T11:22:58.000Z</time>
      </trkpt>
      <trkpt lat="48.22581" lon="-3.17784">
        <ele>131.80000305176</ele>
        <time>2020-10-19T11:22:59.000Z</time>
      </trkpt>
      <trkpt lat="48.22582" lon="-3.17783">
        <ele>131.80000305176</ele>
        <time>2020-10-19T11:23:00.000Z</time>
      </trkpt>
      <trkpt lat="48.22581" lon="-3.17783">
        <ele>131.80000305176</ele>
        <time>2020-10-19T11:23:01.000Z</time>
      </trkpt>
      <trkpt lat="48.22581" lon="-3.17783">
        <ele>131.80000305176</ele>
        <time>2020-10-19T11:23:02.000Z</time>
      </trkpt>
      <trkpt lat="48.22581" lon="-3.17783">
        <ele>131.80000305176</ele>
        <time>2020-10-19T11:23:03.000Z</time>
      </trkpt>
      <trkpt lat="48.22581" lon="-3.17782">
        <ele>131.80000305176</ele>
        <time>2020-10-19T11:23:04.000Z</time>
      </trkpt>
      <trkpt lat="48.22581" lon="-3.17782">
        <ele>131.80000305176</ele>
        <time>2020-10-19T11:23:05.000Z</time>
      </trkpt>
      <trkpt lat="48.22581" lon="-3.17782">
        <ele>131.80000305176</ele>
        <time>2020-10-19T11:23:06.000Z</time>
      </trkpt>
      <trkpt lat="48.22581" lon="-3.17782">
        <ele>131.80000305176</ele>
        <time>2020-10-19T11:23:07.000Z</time>
      </trkpt>
      <trkpt lat="48.22581" lon="-3.17781">
        <ele>131.80000305176</ele>
        <time>2020-10-19T11:23:08.000Z</time>
      </trkpt>
      <trkpt lat="48.22582" lon="-3.1778">
        <ele>131.80000305176</ele>
        <time>2020-10-19T11:23:09.000Z</time>
      </trkpt>
      <trkpt lat="48.22582" lon="-3.17779">
        <ele>131.80000305176</ele>
        <time>2020-10-19T11:23:10.000Z</time>
      </trkpt>
      <trkpt lat="48.22583" lon="-3.17778">
        <ele>131.80000305176</ele>
        <time>2020-10-19T11:23:11.000Z</time>
      </trkpt>
      <trkpt lat="48.22583" lon="-3.17777">
        <ele>131.80000305176</ele>
        <time>2020-10-19T11:23:12.000Z</time>
      </trkpt>
      <trkpt lat="48.22584" lon="-3.17776">
        <ele>131.80000305176</ele>
        <time>2020-10-19T11:23:13.000Z</time>
      </trkpt>
      <trkpt lat="48.22584" lon="-3.17775">
        <ele>131.80000305176</ele>
        <time>2020-10-19T11:23:14.000Z</time>
      </trkpt>
      <trkpt lat="48.22585" lon="-3.17774">
        <ele>131.80000305176</ele>
        <time>2020-10-19T11:23:15.000Z</time>
      </trkpt>
      <trkpt lat="48.22585" lon="-3.17772">
        <ele>131.80000305176</ele>
        <time>2020-10-19T11:23:16.000Z</time>
      </trkpt>
      <trkpt lat="48.22585" lon="-3.17771">
        <ele>131.80000305176</ele>
        <time>2020-10-19T11:23:17.000Z</time>
      </trkpt>
      <trkpt lat="48.22587" lon="-3.1777">
        <ele>131.80000305176</ele>
        <time>2020-10-19T11:23:18.000Z</time>
      </trkpt>
      <trkpt lat="48.22587" lon="-3.17768">
        <ele>132</ele>
        <time>2020-10-19T11:23:19.000Z</time>
      </trkpt>
      <trkpt lat="48.22588" lon="-3.17767">
        <ele>132</ele>
        <time>2020-10-19T11:23:20.000Z</time>
      </trkpt>
      <trkpt lat="48.22588" lon="-3.17765">
        <ele>132</ele>
        <time>2020-10-19T11:23:21.000Z</time>
      </trkpt>
      <trkpt lat="48.22588" lon="-3.17764">
        <ele>132</ele>
        <time>2020-10-19T11:23:22.000Z</time>
      </trkpt>
      <trkpt lat="48.22589" lon="-3.17762">
        <ele>132</ele>
        <time>2020-10-19T11:23:23.000Z</time>
      </trkpt>
      <trkpt lat="48.2259" lon="-3.17761">
        <ele>132</ele>
        <time>2020-10-19T11:23:24.000Z</time>
      </trkpt>
      <trkpt lat="48.2259" lon="-3.1776">
        <ele>132</ele>
        <time>2020-10-19T11:23:25.000Z</time>
      </trkpt>
      <trkpt lat="48.22591" lon="-3.17758">
        <ele>132</ele>
        <time>2020-10-19T11:23:26.000Z</time>
      </trkpt>
      <trkpt lat="48.22591" lon="-3.17757">
        <ele>132</ele>
        <time>2020-10-19T11:23:27.000Z</time>
      </trkpt>
      <trkpt lat="48.22592" lon="-3.17756">
        <ele>132</ele>
        <time>2020-10-19T11:23:28.000Z</time>
      </trkpt>
      <trkpt lat="48.22595" lon="-3.17755">
        <ele>132</ele>
        <time>2020-10-19T11:23:29.000Z</time>
      </trkpt>
      <trkpt lat="48.22596" lon="-3.17753">
        <ele>132</ele>
        <time>2020-10-19T11:23:30.000Z</time>
      </trkpt>
      <trkpt lat="48.22597" lon="-3.17752">
        <ele>132</ele>
        <time>2020-10-19T11:23:31.000Z</time>
      </trkpt>
      <trkpt lat="48.22598" lon="-3.1775">
        <ele>132</ele>
        <time>2020-10-19T11:23:32.000Z</time>
      </trkpt>
      <trkpt lat="48.22599" lon="-3.17749">
        <ele>132</ele>
        <time>2020-10-19T11:23:33.000Z</time>
      </trkpt>
      <trkpt lat="48.22601" lon="-3.17745">
        <ele>132</ele>
        <time>2020-10-19T11:23:34.000Z</time>
      </trkpt>
      <trkpt lat="48.22601" lon="-3.17745">
        <ele>132</ele>
        <time>2020-10-19T11:23:35.000Z</time>
      </trkpt>
      <trkpt lat="48.22601" lon="-3.17744">
        <ele>132</ele>
        <time>2020-10-19T11:23:36.000Z</time>
      </trkpt>
      <trkpt lat="48.22601" lon="-3.17742">
        <ele>132</ele>
        <time>2020-10-19T11:23:37.000Z</time>
      </trkpt>
      <trkpt lat="48.22602" lon="-3.1774">
        <ele>132</ele>
        <time>2020-10-19T11:23:38.000Z</time>
      </trkpt>
      <trkpt lat="48.22602" lon="-3.17738">
        <ele>132</ele>
        <time>2020-10-19T11:23:39.000Z</time>
      </trkpt>
      <trkpt lat="48.22602" lon="-3.17736">
        <ele>132</ele>
        <time>2020-10-19T11:23:40.000Z</time>
      </trkpt>
      <trkpt lat="48.22601" lon="-3.17735">
        <ele>132</ele>
        <time>2020-10-19T11:23:41.000Z</time>
      </trkpt>
      <trkpt lat="48.22601" lon="-3.17733">
        <ele>132</ele>
        <time>2020-10-19T11:23:42.000Z</time>
      </trkpt>
      <trkpt lat="48.22601" lon="-3.17732">
        <ele>132</ele>
        <time>2020-10-19T11:23:43.000Z</time>
      </trkpt>
      <trkpt lat="48.22601" lon="-3.17732">
        <ele>132</ele>
        <time>2020-10-19T11:23:44.000Z</time>
      </trkpt>
      <trkpt lat="48.22601" lon="-3.17731">
        <ele>132</ele>
        <time>2020-10-19T11:23:45.000Z</time>
      </trkpt>
      <trkpt lat="48.22601" lon="-3.17731">
        <ele>132</ele>
        <time>2020-10-19T11:23:46.000Z</time>
      </trkpt>
      <trkpt lat="48.22601" lon="-3.17731">
        <ele>132</ele>
        <time>2020-10-19T11:23:47.000Z</time>
      </trkpt>
      <trkpt lat="48.22601" lon="-3.1773">
        <ele>132</ele>
        <time>2020-10-19T11:23:48.000Z</time>
      </trkpt>
      <trkpt lat="48.22602" lon="-3.17728">
        <ele>132</ele>
        <time>2020-10-19T11:23:49.000Z</time>
      </trkpt>
      <trkpt lat="48.22602" lon="-3.17727">
        <ele>132</ele>
        <time>2020-10-19T11:23:50.000Z</time>
      </trkpt>
      <trkpt lat="48.22602" lon="-3.17726">
        <ele>132</ele>
        <time>2020-10-19T11:23:51.000Z</time>
      </trkpt>
      <trkpt lat="48.22603" lon="-3.17723">
        <ele>132</ele>
        <time>2020-10-19T11:23:52.000Z</time>
      </trkpt>
      <trkpt lat="48.22603" lon="-3.17723">
        <ele>132</ele>
        <time>2020-10-19T11:23:53.000Z</time>
      </trkpt>
      <trkpt lat="48.22604" lon="-3.17722">
        <ele>132</ele>
        <time>2020-10-19T11:23:54.000Z</time>
      </trkpt>
      <trkpt lat="48.22604" lon="-3.17721">
        <ele>132</ele>
        <time>2020-10-19T11:23:55.000Z</time>
      </trkpt>
      <trkpt lat="48.22605" lon="-3.17719">
        <ele>132</ele>
        <time>2020-10-19T11:23:56.000Z</time>
      </trkpt>
      <trkpt lat="48.22606" lon="-3.17718">
        <ele>132</ele>
        <time>2020-10-19T11:23:57.000Z</time>
      </trkpt>
      <trkpt lat="48.22606" lon="-3.17717">
        <ele>132</ele>
        <time>2020-10-19T11:23:58.000Z</time>
      </trkpt>
      <trkpt lat="48.22607" lon="-3.17716">
        <ele>132</ele>
        <time>2020-10-19T11:23:59.000Z</time>
      </trkpt>
      <trkpt lat="48.22608" lon="-3.17715">
        <ele>132</ele>
        <time>2020-10-19T11:24:00.000Z</time>
      </trkpt>
      <trkpt lat="48.2261" lon="-3.17712">
        <ele>132</ele>
        <time>2020-10-19T11:24:01.000Z</time>
      </trkpt>
      <trkpt lat="48.2261" lon="-3.17712">
        <ele>132</ele>
        <time>2020-10-19T11:24:02.000Z</time>
      </trkpt>
      <trkpt lat="48.2261" lon="-3.17711">
        <ele>132</ele>
        <time>2020-10-19T11:24:03.000Z</time>
      </trkpt>
      <trkpt lat="48.22611" lon="-3.1771">
        <ele>132</ele>
        <time>2020-10-19T11:24:04.000Z</time>
      </trkpt>
      <trkpt lat="48.22613" lon="-3.17709">
        <ele>132</ele>
        <time>2020-10-19T11:24:05.000Z</time>
      </trkpt>
      <trkpt lat="48.22615" lon="-3.17706">
        <ele>132</ele>
        <time>2020-10-19T11:24:06.000Z</time>
      </trkpt>
      <trkpt lat="48.22615" lon="-3.17706">
        <ele>132</ele>
        <time>2020-10-19T11:24:07.000Z</time>
      </trkpt>
      <trkpt lat="48.22616" lon="-3.17705">
        <ele>132</ele>
        <time>2020-10-19T11:24:08.000Z</time>
      </trkpt>
      <trkpt lat="48.22616" lon="-3.17703">
        <ele>132</ele>
        <time>2020-10-19T11:24:09.000Z</time>
      </trkpt>
      <trkpt lat="48.22617" lon="-3.17702">
        <ele>132</ele>
        <time>2020-10-19T11:24:10.000Z</time>
      </trkpt>
      <trkpt lat="48.22618" lon="-3.17701">
        <ele>132</ele>
        <time>2020-10-19T11:24:11.000Z</time>
      </trkpt>
      <trkpt lat="48.22619" lon="-3.17699">
        <ele>132</ele>
        <time>2020-10-19T11:24:12.000Z</time>
      </trkpt>
      <trkpt lat="48.2262" lon="-3.17698">
        <ele>132</ele>
        <time>2020-10-19T11:24:13.000Z</time>
      </trkpt>
      <trkpt lat="48.2262" lon="-3.17696">
        <ele>132</ele>
        <time>2020-10-19T11:24:14.000Z</time>
      </trkpt>
      <trkpt lat="48.22621" lon="-3.17695">
        <ele>132</ele>
        <time>2020-10-19T11:24:15.000Z</time>
      </trkpt>
      <trkpt lat="48.22621" lon="-3.17693">
        <ele>132</ele>
        <time>2020-10-19T11:24:16.000Z</time>
      </trkpt>
      <trkpt lat="48.22622" lon="-3.17692">
        <ele>132</ele>
        <time>2020-10-19T11:24:17.000Z</time>
      </trkpt>
      <trkpt lat="48.22622" lon="-3.1769">
        <ele>132</ele>
        <time>2020-10-19T11:24:18.000Z</time>
      </trkpt>
      <trkpt lat="48.22623" lon="-3.17689">
        <ele>132</ele>
        <time>2020-10-19T11:24:19.000Z</time>
      </trkpt>
      <trkpt lat="48.22623" lon="-3.17687">
        <ele>132</ele>
        <time>2020-10-19T11:24:20.000Z</time>
      </trkpt>
      <trkpt lat="48.22624" lon="-3.17686">
        <ele>132</ele>
        <time>2020-10-19T11:24:21.000Z</time>
      </trkpt>
      <trkpt lat="48.22625" lon="-3.17685">
        <ele>132</ele>
        <time>2020-10-19T11:24:22.000Z</time>
      </trkpt>
      <trkpt lat="48.22626" lon="-3.17683">
        <ele>132</ele>
        <time>2020-10-19T11:24:23.000Z</time>
      </trkpt>
      <trkpt lat="48.22627" lon="-3.17682">
        <ele>132</ele>
        <time>2020-10-19T11:24:24.000Z</time>
      </trkpt>
      <trkpt lat="48.22628" lon="-3.17681">
        <ele>132</ele>
        <time>2020-10-19T11:24:25.000Z</time>
      </trkpt>
      <trkpt lat="48.22628" lon="-3.17679">
        <ele>132</ele>
        <time>2020-10-19T11:24:26.000Z</time>
      </trkpt>
      <trkpt lat="48.22629" lon="-3.17678">
        <ele>132</ele>
        <time>2020-10-19T11:24:27.000Z</time>
      </trkpt>
      <trkpt lat="48.2263" lon="-3.17676">
        <ele>132</ele>
        <time>2020-10-19T11:24:28.000Z</time>
      </trkpt>
      <trkpt lat="48.22631" lon="-3.17675">
        <ele>132</ele>
        <time>2020-10-19T11:24:29.000Z</time>
      </trkpt>
      <trkpt lat="48.22631" lon="-3.17674">
        <ele>132</ele>
        <time>2020-10-19T11:24:30.000Z</time>
      </trkpt>
      <trkpt lat="48.22632" lon="-3.17673">
        <ele>132</ele>
        <time>2020-10-19T11:24:31.000Z</time>
      </trkpt>
      <trkpt lat="48.22633" lon="-3.17671">
        <ele>132</ele>
        <time>2020-10-19T11:24:32.000Z</time>
      </trkpt>
      <trkpt lat="48.22634" lon="-3.1767">
        <ele>132</ele>
        <time>2020-10-19T11:24:33.000Z</time>
      </trkpt>
      <trkpt lat="48.22635" lon="-3.17669">
        <ele>132</ele>
        <time>2020-10-19T11:24:34.000Z</time>
      </trkpt>
      <trkpt lat="48.22635" lon="-3.17667">
        <ele>132</ele>
        <time>2020-10-19T11:24:35.000Z</time>
      </trkpt>
      <trkpt lat="48.22636" lon="-3.17666">
        <ele>132</ele>
        <time>2020-10-19T11:24:36.000Z</time>
      </trkpt>
      <trkpt lat="48.22637" lon="-3.17665">
        <ele>132</ele>
        <time>2020-10-19T11:24:37.000Z</time>
      </trkpt>
      <trkpt lat="48.22638" lon="-3.17664">
        <ele>132</ele>
        <time>2020-10-19T11:24:38.000Z</time>
      </trkpt>
      <trkpt lat="48.2264" lon="-3.17663">
        <ele>132</ele>
        <time>2020-10-19T11:24:39.000Z</time>
      </trkpt>
      <trkpt lat="48.22641" lon="-3.17661">
        <ele>132</ele>
        <time>2020-10-19T11:24:40.000Z</time>
      </trkpt>
      <trkpt lat="48.22642" lon="-3.1766">
        <ele>132</ele>
        <time>2020-10-19T11:24:41.000Z</time>
      </trkpt>
      <trkpt lat="48.22643" lon="-3.1766">
        <ele>132</ele>
        <time>2020-10-19T11:24:42.000Z</time>
      </trkpt>
      <trkpt lat="48.22644" lon="-3.17659">
        <ele>132</ele>
        <time>2020-10-19T11:24:43.000Z</time>
      </trkpt>
      <trkpt lat="48.22645" lon="-3.17658">
        <ele>132</ele>
        <time>2020-10-19T11:24:44.000Z</time>
      </trkpt>
      <trkpt lat="48.22646" lon="-3.17658">
        <ele>132</ele>
        <time>2020-10-19T11:24:45.000Z</time>
      </trkpt>
      <trkpt lat="48.22648" lon="-3.17657">
        <ele>132</ele>
        <time>2020-10-19T11:24:46.000Z</time>
      </trkpt>
      <trkpt lat="48.22649" lon="-3.17657">
        <ele>132</ele>
        <time>2020-10-19T11:24:47.000Z</time>
      </trkpt>
      <trkpt lat="48.2265" lon="-3.17656">
        <ele>132</ele>
        <time>2020-10-19T11:24:48.000Z</time>
      </trkpt>
      <trkpt lat="48.22651" lon="-3.17656">
        <ele>132</ele>
        <time>2020-10-19T11:24:49.000Z</time>
      </trkpt>
      <trkpt lat="48.22652" lon="-3.17655">
        <ele>132</ele>
        <time>2020-10-19T11:24:50.000Z</time>
      </trkpt>
      <trkpt lat="48.22653" lon="-3.17654">
        <ele>132</ele>
        <time>2020-10-19T11:24:51.000Z</time>
      </trkpt>
      <trkpt lat="48.22655" lon="-3.17654">
        <ele>132</ele>
        <time>2020-10-19T11:24:52.000Z</time>
      </trkpt>
      <trkpt lat="48.22655" lon="-3.17654">
        <ele>132</ele>
        <time>2020-10-19T11:24:53.000Z</time>
      </trkpt>
      <trkpt lat="48.22656" lon="-3.17653">
        <ele>132</ele>
        <time>2020-10-19T11:24:54.000Z</time>
      </trkpt>
      <trkpt lat="48.22657" lon="-3.17653">
        <ele>132</ele>
        <time>2020-10-19T11:24:55.000Z</time>
      </trkpt>
      <trkpt lat="48.22658" lon="-3.17653">
        <ele>132</ele>
        <time>2020-10-19T11:24:56.000Z</time>
      </trkpt>
      <trkpt lat="48.22659" lon="-3.17653">
        <ele>132</ele>
        <time>2020-10-19T11:24:57.000Z</time>
      </trkpt>
      <trkpt lat="48.2266" lon="-3.17653">
        <ele>132</ele>
        <time>2020-10-19T11:24:58.000Z</time>
      </trkpt>
      <trkpt lat="48.22661" lon="-3.17654">
        <ele>132</ele>
        <time>2020-10-19T11:24:59.000Z</time>
      </trkpt>
      <trkpt lat="48.22662" lon="-3.17654">
        <ele>132</ele>
        <time>2020-10-19T11:25:00.000Z</time>
      </trkpt>
      <trkpt lat="48.22663" lon="-3.17654">
        <ele>132</ele>
        <time>2020-10-19T11:25:01.000Z</time>
      </trkpt>
      <trkpt lat="48.22664" lon="-3.17654">
        <ele>132</ele>
        <time>2020-10-19T11:25:02.000Z</time>
      </trkpt>
      <trkpt lat="48.22664" lon="-3.17655">
        <ele>132</ele>
        <time>2020-10-19T11:25:03.000Z</time>
      </trkpt>
      <trkpt lat="48.22665" lon="-3.17655">
        <ele>132</ele>
        <time>2020-10-19T11:25:04.000Z</time>
      </trkpt>
      <trkpt lat="48.22665" lon="-3.17655">
        <ele>132</ele>
        <time>2020-10-19T11:25:05.000Z</time>
      </trkpt>
      <trkpt lat="48.22666" lon="-3.17655">
        <ele>132</ele>
        <time>2020-10-19T11:25:06.000Z</time>
      </trkpt>
      <trkpt lat="48.22667" lon="-3.17655">
        <ele>132</ele>
        <time>2020-10-19T11:25:07.000Z</time>
      </trkpt>
      <trkpt lat="48.22668" lon="-3.17655">
        <ele>132</ele>
        <time>2020-10-19T11:25:08.000Z</time>
      </trkpt>
      <trkpt lat="48.22669" lon="-3.17655">
        <ele>132</ele>
        <time>2020-10-19T11:25:09.000Z</time>
      </trkpt>
      <trkpt lat="48.2267" lon="-3.17655">
        <ele>132</ele>
        <time>2020-10-19T11:25:10.000Z</time>
      </trkpt>
      <trkpt lat="48.2267" lon="-3.17655">
        <ele>132</ele>
        <time>2020-10-19T11:25:11.000Z</time>
      </trkpt>
      <trkpt lat="48.22671" lon="-3.17655">
        <ele>132</ele>
        <time>2020-10-19T11:25:12.000Z</time>
      </trkpt>
      <trkpt lat="48.22672" lon="-3.17654">
        <ele>132</ele>
        <time>2020-10-19T11:25:13.000Z</time>
      </trkpt>
      <trkpt lat="48.22673" lon="-3.17654">
        <ele>132</ele>
        <time>2020-10-19T11:25:14.000Z</time>
      </trkpt>
      <trkpt lat="48.22674" lon="-3.17654">
        <ele>132</ele>
        <time>2020-10-19T11:25:15.000Z</time>
      </trkpt>
      <trkpt lat="48.22675" lon="-3.17654">
        <ele>132</ele>
        <time>2020-10-19T11:25:16.000Z</time>
      </trkpt>
      <trkpt lat="48.22676" lon="-3.17654">
        <ele>132</ele>
        <time>2020-10-19T11:25:17.000Z</time>
      </trkpt>
      <trkpt lat="48.22677" lon="-3.17653">
        <ele>132</ele>
        <time>2020-10-19T11:25:18.000Z</time>
      </trkpt>
      <trkpt lat="48.22678" lon="-3.17653">
        <ele>132</ele>
        <time>2020-10-19T11:25:19.000Z</time>
      </trkpt>
      <trkpt lat="48.22679" lon="-3.17653">
        <ele>132</ele>
        <time>2020-10-19T11:25:20.000Z</time>
      </trkpt>
      <trkpt lat="48.2268" lon="-3.17653">
        <ele>132</ele>
        <time>2020-10-19T11:25:21.000Z</time>
      </trkpt>
      <trkpt lat="48.22681" lon="-3.17652">
        <ele>132</ele>
        <time>2020-10-19T11:25:22.000Z</time>
      </trkpt>
      <trkpt lat="48.22682" lon="-3.17652">
        <ele>132.19999694824</ele>
        <time>2020-10-19T11:25:23.000Z</time>
      </trkpt>
      <trkpt lat="48.22682" lon="-3.17651">
        <ele>132.19999694824</ele>
        <time>2020-10-19T11:25:24.000Z</time>
      </trkpt>
      <trkpt lat="48.22684" lon="-3.1765">
        <ele>132.19999694824</ele>
        <time>2020-10-19T11:25:25.000Z</time>
      </trkpt>
      <trkpt lat="48.22684" lon="-3.1765">
        <ele>132.19999694824</ele>
        <time>2020-10-19T11:25:26.000Z</time>
      </trkpt>
      <trkpt lat="48.22685" lon="-3.17648">
        <ele>132.19999694824</ele>
        <time>2020-10-19T11:25:27.000Z</time>
      </trkpt>
      <trkpt lat="48.22685" lon="-3.17647">
        <ele>132.39999389648</ele>
        <time>2020-10-19T11:25:28.000Z</time>
      </trkpt>
      <trkpt lat="48.22686" lon="-3.17645">
        <ele>132.39999389648</ele>
        <time>2020-10-19T11:25:29.000Z</time>
      </trkpt>
      <trkpt lat="48.22686" lon="-3.17644">
        <ele>132.39999389648</ele>
        <time>2020-10-19T11:25:30.000Z</time>
      </trkpt>
      <trkpt lat="48.22687" lon="-3.17642">
        <ele>132.39999389648</ele>
        <time>2020-10-19T11:25:31.000Z</time>
      </trkpt>
      <trkpt lat="48.22687" lon="-3.17641">
        <ele>132.39999389648</ele>
        <time>2020-10-19T11:25:32.000Z</time>
      </trkpt>
      <trkpt lat="48.22688" lon="-3.17639">
        <ele>132.39999389648</ele>
        <time>2020-10-19T11:25:33.000Z</time>
      </trkpt>
      <trkpt lat="48.22688" lon="-3.17638">
        <ele>132.39999389648</ele>
        <time>2020-10-19T11:25:34.000Z</time>
      </trkpt>
      <trkpt lat="48.22688" lon="-3.17637">
        <ele>132.39999389648</ele>
        <time>2020-10-19T11:25:35.000Z</time>
      </trkpt>
      <trkpt lat="48.22689" lon="-3.17635">
        <ele>132.39999389648</ele>
        <time>2020-10-19T11:25:36.000Z</time>
      </trkpt>
      <trkpt lat="48.22689" lon="-3.17634">
        <ele>132.39999389648</ele>
        <time>2020-10-19T11:25:37.000Z</time>
      </trkpt>
      <trkpt lat="48.22689" lon="-3.17634">
        <ele>132.39999389648</ele>
        <time>2020-10-19T11:25:38.000Z</time>
      </trkpt>
      <trkpt lat="48.22689" lon="-3.17633">
        <ele>132.39999389648</ele>
        <time>2020-10-19T11:25:39.000Z</time>
      </trkpt>
      <trkpt lat="48.22689" lon="-3.17633">
        <ele>132.39999389648</ele>
        <time>2020-10-19T11:25:40.000Z</time>
      </trkpt>
      <trkpt lat="48.22689" lon="-3.17633">
        <ele>132.39999389648</ele>
        <time>2020-10-19T11:25:41.000Z</time>
      </trkpt>
      <trkpt lat="48.22689" lon="-3.17632">
        <ele>132.60000610352</ele>
        <time>2020-10-19T11:25:42.000Z</time>
      </trkpt>
      <trkpt lat="48.22689" lon="-3.17632">
        <ele>132.60000610352</ele>
        <time>2020-10-19T11:25:43.000Z</time>
      </trkpt>
      <trkpt lat="48.22689" lon="-3.1763">
        <ele>132.60000610352</ele>
        <time>2020-10-19T11:25:44.000Z</time>
      </trkpt>
      <trkpt lat="48.22689" lon="-3.17629">
        <ele>132.39999389648</ele>
        <time>2020-10-19T11:25:45.000Z</time>
      </trkpt>
      <trkpt lat="48.22689" lon="-3.17628">
        <ele>132.39999389648</ele>
        <time>2020-10-19T11:25:46.000Z</time>
      </trkpt>
      <trkpt lat="48.22689" lon="-3.17627">
        <ele>132.39999389648</ele>
        <time>2020-10-19T11:25:47.000Z</time>
      </trkpt>
      <trkpt lat="48.22688" lon="-3.17627">
        <ele>132.39999389648</ele>
        <time>2020-10-19T11:25:48.000Z</time>
      </trkpt>
      <trkpt lat="48.22688" lon="-3.17626">
        <ele>132.39999389648</ele>
        <time>2020-10-19T11:25:49.000Z</time>
      </trkpt>
      <trkpt lat="48.22688" lon="-3.17625">
        <ele>132.39999389648</ele>
        <time>2020-10-19T11:25:50.000Z</time>
      </trkpt>
      <trkpt lat="48.22687" lon="-3.17625">
        <ele>132.39999389648</ele>
        <time>2020-10-19T11:25:51.000Z</time>
      </trkpt>
      <trkpt lat="48.22687" lon="-3.17624">
        <ele>132.39999389648</ele>
        <time>2020-10-19T11:25:52.000Z</time>
      </trkpt>
      <trkpt lat="48.22687" lon="-3.17624">
        <ele>132.39999389648</ele>
        <time>2020-10-19T11:25:53.000Z</time>
      </trkpt>
      <trkpt lat="48.22687" lon="-3.17624">
        <ele>132.39999389648</ele>
        <time>2020-10-19T11:25:54.000Z</time>
      </trkpt>
      <trkpt lat="48.22686" lon="-3.17625">
        <ele>132.39999389648</ele>
        <time>2020-10-19T11:25:55.000Z</time>
      </trkpt>
      <trkpt lat="48.22686" lon="-3.17625">
        <ele>132.39999389648</ele>
        <time>2020-10-19T11:25:56.000Z</time>
      </trkpt>
      <trkpt lat="48.22686" lon="-3.17625">
        <ele>132.39999389648</ele>
        <time>2020-10-19T11:25:57.000Z</time>
      </trkpt>
      <trkpt lat="48.22686" lon="-3.17625">
        <ele>132.39999389648</ele>
        <time>2020-10-19T11:25:58.000Z</time>
      </trkpt>
      <trkpt lat="48.22686" lon="-3.17625">
        <ele>132.39999389648</ele>
        <time>2020-10-19T11:25:59.000Z</time>
      </trkpt>
      <trkpt lat="48.22686" lon="-3.17625">
        <ele>132.39999389648</ele>
        <time>2020-10-19T11:26:00.000Z</time>
      </trkpt>
      <trkpt lat="48.22686" lon="-3.17625">
        <ele>132.39999389648</ele>
        <time>2020-10-19T11:26:01.000Z</time>
      </trkpt>
      <trkpt lat="48.22685" lon="-3.17625">
        <ele>132.39999389648</ele>
        <time>2020-10-19T11:26:02.000Z</time>
      </trkpt>
      <trkpt lat="48.22685" lon="-3.17624">
        <ele>132.39999389648</ele>
        <time>2020-10-19T11:26:03.000Z</time>
      </trkpt>
      <trkpt lat="48.22685" lon="-3.17625">
        <ele>132.39999389648</ele>
        <time>2020-10-19T11:26:04.000Z</time>
      </trkpt>
      <trkpt lat="48.22685" lon="-3.17625">
        <ele>132.39999389648</ele>
        <time>2020-10-19T11:26:05.000Z</time>
      </trkpt>
      <trkpt lat="48.22685" lon="-3.17625">
        <ele>132.19999694824</ele>
        <time>2020-10-19T11:26:06.000Z</time>
      </trkpt>
      <trkpt lat="48.22685" lon="-3.17626">
        <ele>132.39999389648</ele>
        <time>2020-10-19T11:26:07.000Z</time>
      </trkpt>
      <trkpt lat="48.22686" lon="-3.17627">
        <ele>132.39999389648</ele>
        <time>2020-10-19T11:26:08.000Z</time>
      </trkpt>
      <trkpt lat="48.22686" lon="-3.17627">
        <ele>132.39999389648</ele>
        <time>2020-10-19T11:26:09.000Z</time>
      </trkpt>
      <trkpt lat="48.22686" lon="-3.17628">
        <ele>132.39999389648</ele>
        <time>2020-10-19T11:26:10.000Z</time>
      </trkpt>
      <trkpt lat="48.22686" lon="-3.17629">
        <ele>132.39999389648</ele>
        <time>2020-10-19T11:26:11.000Z</time>
      </trkpt>
      <trkpt lat="48.22687" lon="-3.1763">
        <ele>132.39999389648</ele>
        <time>2020-10-19T11:26:12.000Z</time>
      </trkpt>
      <trkpt lat="48.22688" lon="-3.17631">
        <ele>132.39999389648</ele>
        <time>2020-10-19T11:26:13.000Z</time>
      </trkpt>
      <trkpt lat="48.22688" lon="-3.17632">
        <ele>132.39999389648</ele>
        <time>2020-10-19T11:26:14.000Z</time>
      </trkpt>
      <trkpt lat="48.22689" lon="-3.17634">
        <ele>132.39999389648</ele>
        <time>2020-10-19T11:26:15.000Z</time>
      </trkpt>
      <trkpt lat="48.2269" lon="-3.17635">
        <ele>132.60000610352</ele>
        <time>2020-10-19T11:26:16.000Z</time>
      </trkpt>
      <trkpt lat="48.22692" lon="-3.17637">
        <ele>132.60000610352</ele>
        <time>2020-10-19T11:26:17.000Z</time>
      </trkpt>
      <trkpt lat="48.22693" lon="-3.17639">
        <ele>132.60000610352</ele>
        <time>2020-10-19T11:26:18.000Z</time>
      </trkpt>
      <trkpt lat="48.22694" lon="-3.17641">
        <ele>132.80000305176</ele>
        <time>2020-10-19T11:26:19.000Z</time>
      </trkpt>
      <trkpt lat="48.22694" lon="-3.17642">
        <ele>132.80000305176</ele>
        <time>2020-10-19T11:26:20.000Z</time>
      </trkpt>
      <trkpt lat="48.22695" lon="-3.17643">
        <ele>132.80000305176</ele>
        <time>2020-10-19T11:26:21.000Z</time>
      </trkpt>
      <trkpt lat="48.22695" lon="-3.17644">
        <ele>132.80000305176</ele>
        <time>2020-10-19T11:26:22.000Z</time>
      </trkpt>
      <trkpt lat="48.22696" lon="-3.17645">
        <ele>132.80000305176</ele>
        <time>2020-10-19T11:26:23.000Z</time>
      </trkpt>
      <trkpt lat="48.22696" lon="-3.17646">
        <ele>132.80000305176</ele>
        <time>2020-10-19T11:26:24.000Z</time>
      </trkpt>
      <trkpt lat="48.22696" lon="-3.17646">
        <ele>132.80000305176</ele>
        <time>2020-10-19T11:26:25.000Z</time>
      </trkpt>
      <trkpt lat="48.22696" lon="-3.17647">
        <ele>132.80000305176</ele>
        <time>2020-10-19T11:26:26.000Z</time>
      </trkpt>
      <trkpt lat="48.22695" lon="-3.17647">
        <ele>132.80000305176</ele>
        <time>2020-10-19T11:26:27.000Z</time>
      </trkpt>
      <trkpt lat="48.22695" lon="-3.17647">
        <ele>132.80000305176</ele>
        <time>2020-10-19T11:26:28.000Z</time>
      </trkpt>
      <trkpt lat="48.22695" lon="-3.17647">
        <ele>132.80000305176</ele>
        <time>2020-10-19T11:26:29.000Z</time>
      </trkpt>
      <trkpt lat="48.22695" lon="-3.17646">
        <ele>132.80000305176</ele>
        <time>2020-10-19T11:26:30.000Z</time>
      </trkpt>
      <trkpt lat="48.22695" lon="-3.17646">
        <ele>132.80000305176</ele>
        <time>2020-10-19T11:26:31.000Z</time>
      </trkpt>
      <trkpt lat="48.22695" lon="-3.17646">
        <ele>132.80000305176</ele>
        <time>2020-10-19T11:26:32.000Z</time>
      </trkpt>
      <trkpt lat="48.22695" lon="-3.17646">
        <ele>132.80000305176</ele>
        <time>2020-10-19T11:26:33.000Z</time>
      </trkpt>
      <trkpt lat="48.22695" lon="-3.17646">
        <ele>132.80000305176</ele>
        <time>2020-10-19T11:26:34.000Z</time>
      </trkpt>
      <trkpt lat="48.22695" lon="-3.17646">
        <ele>132.80000305176</ele>
        <time>2020-10-19T11:26:35.000Z</time>
      </trkpt>
      <trkpt lat="48.22695" lon="-3.17646">
        <ele>132.80000305176</ele>
        <time>2020-10-19T11:26:36.000Z</time>
      </trkpt>
      <trkpt lat="48.22695" lon="-3.17646">
        <ele>132.80000305176</ele>
        <time>2020-10-19T11:26:37.000Z</time>
      </trkpt>
      <trkpt lat="48.22695" lon="-3.17646">
        <ele>132.80000305176</ele>
        <time>2020-10-19T11:26:38.000Z</time>
      </trkpt>
      <trkpt lat="48.22694" lon="-3.17646">
        <ele>132.80000305176</ele>
        <time>2020-10-19T11:26:39.000Z</time>
      </trkpt>
      <trkpt lat="48.22694" lon="-3.17646">
        <ele>132.80000305176</ele>
        <time>2020-10-19T11:26:40.000Z</time>
      </trkpt>
      <trkpt lat="48.22694" lon="-3.17646">
        <ele>132.80000305176</ele>
        <time>2020-10-19T11:26:41.000Z</time>
      </trkpt>
      <trkpt lat="48.22694" lon="-3.17646">
        <ele>132.80000305176</ele>
        <time>2020-10-19T11:26:42.000Z</time>
      </trkpt>
      <trkpt lat="48.22694" lon="-3.17646">
        <ele>132.80000305176</ele>
        <time>2020-10-19T11:26:43.000Z</time>
      </trkpt>
      <trkpt lat="48.22694" lon="-3.17646">
        <ele>132.80000305176</ele>
        <time>2020-10-19T11:26:44.000Z</time>
      </trkpt>
      <trkpt lat="48.22694" lon="-3.17646">
        <ele>132.80000305176</ele>
        <time>2020-10-19T11:26:45.000Z</time>
      </trkpt>
      <trkpt lat="48.22694" lon="-3.17647">
        <ele>132.80000305176</ele>
        <time>2020-10-19T11:26:46.000Z</time>
      </trkpt>
      <trkpt lat="48.22694" lon="-3.17646">
        <ele>132.80000305176</ele>
        <time>2020-10-19T11:26:47.000Z</time>
      </trkpt>
      <trkpt lat="48.22694" lon="-3.17646">
        <ele>132.80000305176</ele>
        <time>2020-10-19T11:26:48.000Z</time>
      </trkpt>
      <trkpt lat="48.22694" lon="-3.17646">
        <ele>132.80000305176</ele>
        <time>2020-10-19T11:26:49.000Z</time>
      </trkpt>
      <trkpt lat="48.22694" lon="-3.17646">
        <ele>132.80000305176</ele>
        <time>2020-10-19T11:26:50.000Z</time>
      </trkpt>
      <trkpt lat="48.22694" lon="-3.17646">
        <ele>132.80000305176</ele>
        <time>2020-10-19T11:26:51.000Z</time>
      </trkpt>
      <trkpt lat="48.22694" lon="-3.17646">
        <ele>132.80000305176</ele>
        <time>2020-10-19T11:26:52.000Z</time>
      </trkpt>
      <trkpt lat="48.22694" lon="-3.17647">
        <ele>132.80000305176</ele>
        <time>2020-10-19T11:26:53.000Z</time>
      </trkpt>
      <trkpt lat="48.22694" lon="-3.17647">
        <ele>132.80000305176</ele>
        <time>2020-10-19T11:26:54.000Z</time>
      </trkpt>
      <trkpt lat="48.22694" lon="-3.17648">
        <ele>132.80000305176</ele>
        <time>2020-10-19T11:26:55.000Z</time>
      </trkpt>
      <trkpt lat="48.22694" lon="-3.17648">
        <ele>132.80000305176</ele>
        <time>2020-10-19T11:26:56.000Z</time>
      </trkpt>
      <trkpt lat="48.22694" lon="-3.17649">
        <ele>132.80000305176</ele>
        <time>2020-10-19T11:26:57.000Z</time>
      </trkpt>
      <trkpt lat="48.22694" lon="-3.17649">
        <ele>132.80000305176</ele>
        <time>2020-10-19T11:26:58.000Z</time>
      </trkpt>
      <trkpt lat="48.22694" lon="-3.17649">
        <ele>132.80000305176</ele>
        <time>2020-10-19T11:26:59.000Z</time>
      </trkpt>
      <trkpt lat="48.22694" lon="-3.17649">
        <ele>132.80000305176</ele>
        <time>2020-10-19T11:27:00.000Z</time>
      </trkpt>
      <trkpt lat="48.22694" lon="-3.1765">
        <ele>132.80000305176</ele>
        <time>2020-10-19T11:27:01.000Z</time>
      </trkpt>
      <trkpt lat="48.22694" lon="-3.1765">
        <ele>132.80000305176</ele>
        <time>2020-10-19T11:27:02.000Z</time>
      </trkpt>
      <trkpt lat="48.22694" lon="-3.1765">
        <ele>132.80000305176</ele>
        <time>2020-10-19T11:27:03.000Z</time>
      </trkpt>
      <trkpt lat="48.22694" lon="-3.1765">
        <ele>132.80000305176</ele>
        <time>2020-10-19T11:27:04.000Z</time>
      </trkpt>
      <trkpt lat="48.22694" lon="-3.1765">
        <ele>132.80000305176</ele>
        <time>2020-10-19T11:27:05.000Z</time>
      </trkpt>
      <trkpt lat="48.22694" lon="-3.1765">
        <ele>132.80000305176</ele>
        <time>2020-10-19T11:27:06.000Z</time>
      </trkpt>
      <trkpt lat="48.22694" lon="-3.17649">
        <ele>132.80000305176</ele>
        <time>2020-10-19T11:27:07.000Z</time>
      </trkpt>
      <trkpt lat="48.22695" lon="-3.17649">
        <ele>132.80000305176</ele>
        <time>2020-10-19T11:27:08.000Z</time>
      </trkpt>
      <trkpt lat="48.22695" lon="-3.17649">
        <ele>132.80000305176</ele>
        <time>2020-10-19T11:27:09.000Z</time>
      </trkpt>
      <trkpt lat="48.22695" lon="-3.17649">
        <ele>132.80000305176</ele>
        <time>2020-10-19T11:27:10.000Z</time>
      </trkpt>
      <trkpt lat="48.22695" lon="-3.1765">
        <ele>132.80000305176</ele>
        <time>2020-10-19T11:27:11.000Z</time>
      </trkpt>
      <trkpt lat="48.22696" lon="-3.1765">
        <ele>132.80000305176</ele>
        <time>2020-10-19T11:27:12.000Z</time>
      </trkpt>
      <trkpt lat="48.22696" lon="-3.17651">
        <ele>132.80000305176</ele>
        <time>2020-10-19T11:27:13.000Z</time>
      </trkpt>
      <trkpt lat="48.22696" lon="-3.17651">
        <ele>132.80000305176</ele>
        <time>2020-10-19T11:27:14.000Z</time>
      </trkpt>
      <trkpt lat="48.22696" lon="-3.17651">
        <ele>132.80000305176</ele>
        <time>2020-10-19T11:27:15.000Z</time>
      </trkpt>
      <trkpt lat="48.22696" lon="-3.1765">
        <ele>132.80000305176</ele>
        <time>2020-10-19T11:27:16.000Z</time>
      </trkpt>
      <trkpt lat="48.22696" lon="-3.1765">
        <ele>132.80000305176</ele>
        <time>2020-10-19T11:27:17.000Z</time>
      </trkpt>
      <trkpt lat="48.22696" lon="-3.1765">
        <ele>132.80000305176</ele>
        <time>2020-10-19T11:27:18.000Z</time>
      </trkpt>
      <trkpt lat="48.22696" lon="-3.1765">
        <ele>132.80000305176</ele>
        <time>2020-10-19T11:27:19.000Z</time>
      </trkpt>
      <trkpt lat="48.22696" lon="-3.17651">
        <ele>132.80000305176</ele>
        <time>2020-10-19T11:27:20.000Z</time>
      </trkpt>
      <trkpt lat="48.22696" lon="-3.17651">
        <ele>132.80000305176</ele>
        <time>2020-10-19T11:27:21.000Z</time>
      </trkpt>
      <trkpt lat="48.22696" lon="-3.17651">
        <ele>132.80000305176</ele>
        <time>2020-10-19T11:27:22.000Z</time>
      </trkpt>
      <trkpt lat="48.22696" lon="-3.17651">
        <ele>132.80000305176</ele>
        <time>2020-10-19T11:27:23.000Z</time>
      </trkpt>
      <trkpt lat="48.22696" lon="-3.17651">
        <ele>132.80000305176</ele>
        <time>2020-10-19T11:27:24.000Z</time>
      </trkpt>
      <trkpt lat="48.22696" lon="-3.17651">
        <ele>132.80000305176</ele>
        <time>2020-10-19T11:27:25.000Z</time>
      </trkpt>
      <trkpt lat="48.22696" lon="-3.17651">
        <ele>132.80000305176</ele>
        <time>2020-10-19T11:27:26.000Z</time>
      </trkpt>
      <trkpt lat="48.22696" lon="-3.17651">
        <ele>132.80000305176</ele>
        <time>2020-10-19T11:27:27.000Z</time>
      </trkpt>
      <trkpt lat="48.22696" lon="-3.17651">
        <ele>132.80000305176</ele>
        <time>2020-10-19T11:27:28.000Z</time>
      </trkpt>
      <trkpt lat="48.22696" lon="-3.17651">
        <ele>132.80000305176</ele>
        <time>2020-10-19T11:27:29.000Z</time>
      </trkpt>
      <trkpt lat="48.22696" lon="-3.17651">
        <ele>132.80000305176</ele>
        <time>2020-10-19T11:27:30.000Z</time>
      </trkpt>
      <trkpt lat="48.22697" lon="-3.17651">
        <ele>132.80000305176</ele>
        <time>2020-10-19T11:27:31.000Z</time>
      </trkpt>
      <trkpt lat="48.22697" lon="-3.17651">
        <ele>132.80000305176</ele>
        <time>2020-10-19T11:27:32.000Z</time>
      </trkpt>
      <trkpt lat="48.22697" lon="-3.17651">
        <ele>132.80000305176</ele>
        <time>2020-10-19T11:27:33.000Z</time>
      </trkpt>
      <trkpt lat="48.22697" lon="-3.17651">
        <ele>132.80000305176</ele>
        <time>2020-10-19T11:27:34.000Z</time>
      </trkpt>
      <trkpt lat="48.22697" lon="-3.17651">
        <ele>132.80000305176</ele>
        <time>2020-10-19T11:27:35.000Z</time>
      </trkpt>
      <trkpt lat="48.22697" lon="-3.17651">
        <ele>132.80000305176</ele>
        <time>2020-10-19T11:27:36.000Z</time>
      </trkpt>
      <trkpt lat="48.22697" lon="-3.17652">
        <ele>132.80000305176</ele>
        <time>2020-10-19T11:27:37.000Z</time>
      </trkpt>
      <trkpt lat="48.22697" lon="-3.17652">
        <ele>132.80000305176</ele>
        <time>2020-10-19T11:27:38.000Z</time>
      </trkpt>
      <trkpt lat="48.22697" lon="-3.17652">
        <ele>132.80000305176</ele>
        <time>2020-10-19T11:27:39.000Z</time>
      </trkpt>
      <trkpt lat="48.22697" lon="-3.17652">
        <ele>132.80000305176</ele>
        <time>2020-10-19T11:27:40.000Z</time>
      </trkpt>
      <trkpt lat="48.22697" lon="-3.17652">
        <ele>132.80000305176</ele>
        <time>2020-10-19T11:27:41.000Z</time>
      </trkpt>
      <trkpt lat="48.22697" lon="-3.17652">
        <ele>132.80000305176</ele>
        <time>2020-10-19T11:27:42.000Z</time>
      </trkpt>
      <trkpt lat="48.22697" lon="-3.17652">
        <ele>132.80000305176</ele>
        <time>2020-10-19T11:27:43.000Z</time>
      </trkpt>
      <trkpt lat="48.22697" lon="-3.17652">
        <ele>132.80000305176</ele>
        <time>2020-10-19T11:27:44.000Z</time>
      </trkpt>
      <trkpt lat="48.22697" lon="-3.17652">
        <ele>132.80000305176</ele>
        <time>2020-10-19T11:27:45.000Z</time>
      </trkpt>
      <trkpt lat="48.22697" lon="-3.17652">
        <ele>132.80000305176</ele>
        <time>2020-10-19T11:27:46.000Z</time>
      </trkpt>
      <trkpt lat="48.22697" lon="-3.17652">
        <ele>132.80000305176</ele>
        <time>2020-10-19T11:27:47.000Z</time>
      </trkpt>
      <trkpt lat="48.22697" lon="-3.17652">
        <ele>132.80000305176</ele>
        <time>2020-10-19T11:27:48.000Z</time>
      </trkpt>
      <trkpt lat="48.22697" lon="-3.17652">
        <ele>132.80000305176</ele>
        <time>2020-10-19T11:27:49.000Z</time>
      </trkpt>
      <trkpt lat="48.22697" lon="-3.17652">
        <ele>132.80000305176</ele>
        <time>2020-10-19T11:27:50.000Z</time>
      </trkpt>
      <trkpt lat="48.22697" lon="-3.17652">
        <ele>132.80000305176</ele>
        <time>2020-10-19T11:27:51.000Z</time>
      </trkpt>
      <trkpt lat="48.22697" lon="-3.17652">
        <ele>132.80000305176</ele>
        <time>2020-10-19T11:27:52.000Z</time>
      </trkpt>
      <trkpt lat="48.22697" lon="-3.17652">
        <ele>132.80000305176</ele>
        <time>2020-10-19T11:27:53.000Z</time>
      </trkpt>
      <trkpt lat="48.22697" lon="-3.17652">
        <ele>132.80000305176</ele>
        <time>2020-10-19T11:27:54.000Z</time>
      </trkpt>
      <trkpt lat="48.22697" lon="-3.17652">
        <ele>132.80000305176</ele>
        <time>2020-10-19T11:27:55.000Z</time>
      </trkpt>
      <trkpt lat="48.22697" lon="-3.17652">
        <ele>132.80000305176</ele>
        <time>2020-10-19T11:27:56.000Z</time>
      </trkpt>
      <trkpt lat="48.22697" lon="-3.17653">
        <ele>132.80000305176</ele>
        <time>2020-10-19T11:27:57.000Z</time>
      </trkpt>
      <trkpt lat="48.22698" lon="-3.17655">
        <ele>133</ele>
        <time>2020-10-19T11:27:58.000Z</time>
      </trkpt>
      <trkpt lat="48.22698" lon="-3.17656">
        <ele>133</ele>
        <time>2020-10-19T11:27:59.000Z</time>
      </trkpt>
      <trkpt lat="48.22699" lon="-3.17658">
        <ele>133</ele>
        <time>2020-10-19T11:28:00.000Z</time>
      </trkpt>
      <trkpt lat="48.227" lon="-3.17659">
        <ele>133</ele>
        <time>2020-10-19T11:28:01.000Z</time>
      </trkpt>
      <trkpt lat="48.22701" lon="-3.17661">
        <ele>132.80000305176</ele>
        <time>2020-10-19T11:28:02.000Z</time>
      </trkpt>
      <trkpt lat="48.22701" lon="-3.17661">
        <ele>132.80000305176</ele>
        <time>2020-10-19T11:28:03.000Z</time>
      </trkpt>
      <trkpt lat="48.22701" lon="-3.17661">
        <ele>132.80000305176</ele>
        <time>2020-10-19T11:28:04.000Z</time>
      </trkpt>
      <trkpt lat="48.22701" lon="-3.17662">
        <ele>132.80000305176</ele>
        <time>2020-10-19T11:28:05.000Z</time>
      </trkpt>
      <trkpt lat="48.22701" lon="-3.17662">
        <ele>132.80000305176</ele>
        <time>2020-10-19T11:28:06.000Z</time>
      </trkpt>
      <trkpt lat="48.22701" lon="-3.17663">
        <ele>132.80000305176</ele>
        <time>2020-10-19T11:28:07.000Z</time>
      </trkpt>
      <trkpt lat="48.22701" lon="-3.17664">
        <ele>132.80000305176</ele>
        <time>2020-10-19T11:28:08.000Z</time>
      </trkpt>
      <trkpt lat="48.22702" lon="-3.17665">
        <ele>132.80000305176</ele>
        <time>2020-10-19T11:28:09.000Z</time>
      </trkpt>
      <trkpt lat="48.22702" lon="-3.17666">
        <ele>132.60000610352</ele>
        <time>2020-10-19T11:28:10.000Z</time>
      </trkpt>
      <trkpt lat="48.22702" lon="-3.17668">
        <ele>132.60000610352</ele>
        <time>2020-10-19T11:28:11.000Z</time>
      </trkpt>
      <trkpt lat="48.22703" lon="-3.17669">
        <ele>132.60000610352</ele>
        <time>2020-10-19T11:28:12.000Z</time>
      </trkpt>
      <trkpt lat="48.22703" lon="-3.1767">
        <ele>132.60000610352</ele>
        <time>2020-10-19T11:28:13.000Z</time>
      </trkpt>
      <trkpt lat="48.22703" lon="-3.17671">
        <ele>132.60000610352</ele>
        <time>2020-10-19T11:28:14.000Z</time>
      </trkpt>
      <trkpt lat="48.22704" lon="-3.17673">
        <ele>132.39999389648</ele>
        <time>2020-10-19T11:28:15.000Z</time>
      </trkpt>
      <trkpt lat="48.22704" lon="-3.17674">
        <ele>132.39999389648</ele>
        <time>2020-10-19T11:28:16.000Z</time>
      </trkpt>
      <trkpt lat="48.22705" lon="-3.17676">
        <ele>132.39999389648</ele>
        <time>2020-10-19T11:28:17.000Z</time>
      </trkpt>
      <trkpt lat="48.22705" lon="-3.17678">
        <ele>132.39999389648</ele>
        <time>2020-10-19T11:28:18.000Z</time>
      </trkpt>
      <trkpt lat="48.22706" lon="-3.17679">
        <ele>132.39999389648</ele>
        <time>2020-10-19T11:28:19.000Z</time>
      </trkpt>
      <trkpt lat="48.22706" lon="-3.17681">
        <ele>132.19999694824</ele>
        <time>2020-10-19T11:28:20.000Z</time>
      </trkpt>
      <trkpt lat="48.22706" lon="-3.17683">
        <ele>132.19999694824</ele>
        <time>2020-10-19T11:28:21.000Z</time>
      </trkpt>
      <trkpt lat="48.22706" lon="-3.17685">
        <ele>132.19999694824</ele>
        <time>2020-10-19T11:28:22.000Z</time>
      </trkpt>
      <trkpt lat="48.22706" lon="-3.17687">
        <ele>132.19999694824</ele>
        <time>2020-10-19T11:28:23.000Z</time>
      </trkpt>
      <trkpt lat="48.22706" lon="-3.17689">
        <ele>132.19999694824</ele>
        <time>2020-10-19T11:28:24.000Z</time>
      </trkpt>
      <trkpt lat="48.22707" lon="-3.17693">
        <ele>132.19999694824</ele>
        <time>2020-10-19T11:28:25.000Z</time>
      </trkpt>
      <trkpt lat="48.22707" lon="-3.17693">
        <ele>132.19999694824</ele>
        <time>2020-10-19T11:28:26.000Z</time>
      </trkpt>
      <trkpt lat="48.22707" lon="-3.17694">
        <ele>132.19999694824</ele>
        <time>2020-10-19T11:28:27.000Z</time>
      </trkpt>
      <trkpt lat="48.22708" lon="-3.17697">
        <ele>132.19999694824</ele>
        <time>2020-10-19T11:28:28.000Z</time>
      </trkpt>
      <trkpt lat="48.22708" lon="-3.17699">
        <ele>132.19999694824</ele>
        <time>2020-10-19T11:28:29.000Z</time>
      </trkpt>
      <trkpt lat="48.22709" lon="-3.17702">
        <ele>132</ele>
        <time>2020-10-19T11:28:30.000Z</time>
      </trkpt>
      <trkpt lat="48.22709" lon="-3.17704">
        <ele>132</ele>
        <time>2020-10-19T11:28:31.000Z</time>
      </trkpt>
      <trkpt lat="48.2271" lon="-3.17706">
        <ele>132</ele>
        <time>2020-10-19T11:28:32.000Z</time>
      </trkpt>
      <trkpt lat="48.2271" lon="-3.17708">
        <ele>132</ele>
        <time>2020-10-19T11:28:33.000Z</time>
      </trkpt>
      <trkpt lat="48.2271" lon="-3.1771">
        <ele>132</ele>
        <time>2020-10-19T11:28:34.000Z</time>
      </trkpt>
      <trkpt lat="48.22711" lon="-3.17712">
        <ele>132</ele>
        <time>2020-10-19T11:28:35.000Z</time>
      </trkpt>
      <trkpt lat="48.22711" lon="-3.17714">
        <ele>132</ele>
        <time>2020-10-19T11:28:36.000Z</time>
      </trkpt>
      <trkpt lat="48.22711" lon="-3.17716">
        <ele>132</ele>
        <time>2020-10-19T11:28:37.000Z</time>
      </trkpt>
      <trkpt lat="48.22712" lon="-3.17717">
        <ele>132</ele>
        <time>2020-10-19T11:28:38.000Z</time>
      </trkpt>
      <trkpt lat="48.22712" lon="-3.17719">
        <ele>132</ele>
        <time>2020-10-19T11:28:39.000Z</time>
      </trkpt>
      <trkpt lat="48.22713" lon="-3.17721">
        <ele>131.80000305176</ele>
        <time>2020-10-19T11:28:40.000Z</time>
      </trkpt>
      <trkpt lat="48.22713" lon="-3.17723">
        <ele>131.80000305176</ele>
        <time>2020-10-19T11:28:41.000Z</time>
      </trkpt>
      <trkpt lat="48.22713" lon="-3.17724">
        <ele>131.80000305176</ele>
        <time>2020-10-19T11:28:42.000Z</time>
      </trkpt>
      <trkpt lat="48.22713" lon="-3.17726">
        <ele>131.80000305176</ele>
        <time>2020-10-19T11:28:43.000Z</time>
      </trkpt>
      <trkpt lat="48.22713" lon="-3.17728">
        <ele>131.80000305176</ele>
        <time>2020-10-19T11:28:44.000Z</time>
      </trkpt>
      <trkpt lat="48.22713" lon="-3.17729">
        <ele>131.80000305176</ele>
        <time>2020-10-19T11:28:45.000Z</time>
      </trkpt>
      <trkpt lat="48.22713" lon="-3.17731">
        <ele>131.80000305176</ele>
        <time>2020-10-19T11:28:46.000Z</time>
      </trkpt>
      <trkpt lat="48.22713" lon="-3.17733">
        <ele>131.80000305176</ele>
        <time>2020-10-19T11:28:47.000Z</time>
      </trkpt>
      <trkpt lat="48.22713" lon="-3.17735">
        <ele>131.80000305176</ele>
        <time>2020-10-19T11:28:48.000Z</time>
      </trkpt>
      <trkpt lat="48.22713" lon="-3.17736">
        <ele>131.80000305176</ele>
        <time>2020-10-19T11:28:49.000Z</time>
      </trkpt>
      <trkpt lat="48.22712" lon="-3.17738">
        <ele>131.60000610352</ele>
        <time>2020-10-19T11:28:50.000Z</time>
      </trkpt>
      <trkpt lat="48.22712" lon="-3.17739">
        <ele>131.60000610352</ele>
        <time>2020-10-19T11:28:51.000Z</time>
      </trkpt>
      <trkpt lat="48.22712" lon="-3.17741">
        <ele>131.60000610352</ele>
        <time>2020-10-19T11:28:52.000Z</time>
      </trkpt>
      <trkpt lat="48.22711" lon="-3.17743">
        <ele>131.60000610352</ele>
        <time>2020-10-19T11:28:53.000Z</time>
      </trkpt>
      <trkpt lat="48.22711" lon="-3.17744">
        <ele>131.60000610352</ele>
        <time>2020-10-19T11:28:54.000Z</time>
      </trkpt>
      <trkpt lat="48.22711" lon="-3.17746">
        <ele>131.60000610352</ele>
        <time>2020-10-19T11:28:55.000Z</time>
      </trkpt>
      <trkpt lat="48.22711" lon="-3.17748">
        <ele>131.60000610352</ele>
        <time>2020-10-19T11:28:56.000Z</time>
      </trkpt>
      <trkpt lat="48.22711" lon="-3.1775">
        <ele>131.60000610352</ele>
        <time>2020-10-19T11:28:57.000Z</time>
      </trkpt>
      <trkpt lat="48.22711" lon="-3.17752">
        <ele>131.60000610352</ele>
        <time>2020-10-19T11:28:58.000Z</time>
      </trkpt>
      <trkpt lat="48.22712" lon="-3.17754">
        <ele>131.39999389648</ele>
        <time>2020-10-19T11:28:59.000Z</time>
      </trkpt>
      <trkpt lat="48.22712" lon="-3.17755">
        <ele>131.39999389648</ele>
        <time>2020-10-19T11:29:00.000Z</time>
      </trkpt>
      <trkpt lat="48.22713" lon="-3.17757">
        <ele>131.39999389648</ele>
        <time>2020-10-19T11:29:01.000Z</time>
      </trkpt>
      <trkpt lat="48.22713" lon="-3.17759">
        <ele>131.39999389648</ele>
        <time>2020-10-19T11:29:02.000Z</time>
      </trkpt>
      <trkpt lat="48.22713" lon="-3.17761">
        <ele>131.39999389648</ele>
        <time>2020-10-19T11:29:03.000Z</time>
      </trkpt>
      <trkpt lat="48.22713" lon="-3.17763">
        <ele>131.39999389648</ele>
        <time>2020-10-19T11:29:04.000Z</time>
      </trkpt>
      <trkpt lat="48.22713" lon="-3.17766">
        <ele>131.39999389648</ele>
        <time>2020-10-19T11:29:05.000Z</time>
      </trkpt>
      <trkpt lat="48.22713" lon="-3.17766">
        <ele>131.39999389648</ele>
        <time>2020-10-19T11:29:06.000Z</time>
      </trkpt>
      <trkpt lat="48.22712" lon="-3.17768">
        <ele>131.39999389648</ele>
        <time>2020-10-19T11:29:07.000Z</time>
      </trkpt>
      <trkpt lat="48.22712" lon="-3.1777">
        <ele>131.39999389648</ele>
        <time>2020-10-19T11:29:08.000Z</time>
      </trkpt>
      <trkpt lat="48.22712" lon="-3.17772">
        <ele>131.39999389648</ele>
        <time>2020-10-19T11:29:09.000Z</time>
      </trkpt>
      <trkpt lat="48.22712" lon="-3.17773">
        <ele>131.39999389648</ele>
        <time>2020-10-19T11:29:10.000Z</time>
      </trkpt>
      <trkpt lat="48.22712" lon="-3.17775">
        <ele>131.39999389648</ele>
        <time>2020-10-19T11:29:11.000Z</time>
      </trkpt>
      <trkpt lat="48.22712" lon="-3.17777">
        <ele>131.39999389648</ele>
        <time>2020-10-19T11:29:12.000Z</time>
      </trkpt>
      <trkpt lat="48.22712" lon="-3.17778">
        <ele>131.39999389648</ele>
        <time>2020-10-19T11:29:13.000Z</time>
      </trkpt>
      <trkpt lat="48.22711" lon="-3.1778">
        <ele>131.39999389648</ele>
        <time>2020-10-19T11:29:14.000Z</time>
      </trkpt>
      <trkpt lat="48.22711" lon="-3.17782">
        <ele>131.39999389648</ele>
        <time>2020-10-19T11:29:15.000Z</time>
      </trkpt>
      <trkpt lat="48.22711" lon="-3.17784">
        <ele>131.39999389648</ele>
        <time>2020-10-19T11:29:16.000Z</time>
      </trkpt>
      <trkpt lat="48.22711" lon="-3.17785">
        <ele>131.39999389648</ele>
        <time>2020-10-19T11:29:17.000Z</time>
      </trkpt>
      <trkpt lat="48.22712" lon="-3.17786">
        <ele>131.39999389648</ele>
        <time>2020-10-19T11:29:18.000Z</time>
      </trkpt>
      <trkpt lat="48.22712" lon="-3.17787">
        <ele>131.39999389648</ele>
        <time>2020-10-19T11:29:19.000Z</time>
      </trkpt>
      <trkpt lat="48.22712" lon="-3.17787">
        <ele>131.39999389648</ele>
        <time>2020-10-19T11:29:20.000Z</time>
      </trkpt>
      <trkpt lat="48.22713" lon="-3.17788">
        <ele>131.39999389648</ele>
        <time>2020-10-19T11:29:21.000Z</time>
      </trkpt>
      <trkpt lat="48.22713" lon="-3.17789">
        <ele>131.39999389648</ele>
        <time>2020-10-19T11:29:22.000Z</time>
      </trkpt>
      <trkpt lat="48.22713" lon="-3.1779">
        <ele>131.39999389648</ele>
        <time>2020-10-19T11:29:23.000Z</time>
      </trkpt>
      <trkpt lat="48.22712" lon="-3.17792">
        <ele>131.39999389648</ele>
        <time>2020-10-19T11:29:24.000Z</time>
      </trkpt>
      <trkpt lat="48.22712" lon="-3.17793">
        <ele>131.39999389648</ele>
        <time>2020-10-19T11:29:25.000Z</time>
      </trkpt>
      <trkpt lat="48.22712" lon="-3.17795">
        <ele>131.39999389648</ele>
        <time>2020-10-19T11:29:26.000Z</time>
      </trkpt>
      <trkpt lat="48.22712" lon="-3.17797">
        <ele>131.39999389648</ele>
        <time>2020-10-19T11:29:27.000Z</time>
      </trkpt>
      <trkpt lat="48.22712" lon="-3.17798">
        <ele>131.39999389648</ele>
        <time>2020-10-19T11:29:28.000Z</time>
      </trkpt>
      <trkpt lat="48.22712" lon="-3.17799">
        <ele>131.39999389648</ele>
        <time>2020-10-19T11:29:29.000Z</time>
      </trkpt>
      <trkpt lat="48.22712" lon="-3.17801">
        <ele>131.39999389648</ele>
        <time>2020-10-19T11:29:30.000Z</time>
      </trkpt>
      <trkpt lat="48.22712" lon="-3.17803">
        <ele>131.39999389648</ele>
        <time>2020-10-19T11:29:31.000Z</time>
      </trkpt>
      <trkpt lat="48.22712" lon="-3.17805">
        <ele>131.39999389648</ele>
        <time>2020-10-19T11:29:32.000Z</time>
      </trkpt>
      <trkpt lat="48.22712" lon="-3.17807">
        <ele>131.39999389648</ele>
        <time>2020-10-19T11:29:33.000Z</time>
      </trkpt>
      <trkpt lat="48.22712" lon="-3.17809">
        <ele>131.39999389648</ele>
        <time>2020-10-19T11:29:34.000Z</time>
      </trkpt>
      <trkpt lat="48.22712" lon="-3.1781">
        <ele>131.39999389648</ele>
        <time>2020-10-19T11:29:35.000Z</time>
      </trkpt>
      <trkpt lat="48.22712" lon="-3.17812">
        <ele>131.39999389648</ele>
        <time>2020-10-19T11:29:36.000Z</time>
      </trkpt>
      <trkpt lat="48.22712" lon="-3.17814">
        <ele>131.39999389648</ele>
        <time>2020-10-19T11:29:37.000Z</time>
      </trkpt>
      <trkpt lat="48.22712" lon="-3.17815">
        <ele>131.39999389648</ele>
        <time>2020-10-19T11:29:38.000Z</time>
      </trkpt>
      <trkpt lat="48.22712" lon="-3.17817">
        <ele>131.39999389648</ele>
        <time>2020-10-19T11:29:39.000Z</time>
      </trkpt>
      <trkpt lat="48.22712" lon="-3.17819">
        <ele>131.39999389648</ele>
        <time>2020-10-19T11:29:40.000Z</time>
      </trkpt>
      <trkpt lat="48.22712" lon="-3.17819">
        <ele>131.39999389648</ele>
        <time>2020-10-19T11:29:41.000Z</time>
      </trkpt>
      <trkpt lat="48.22712" lon="-3.1782">
        <ele>131.19999694824</ele>
        <time>2020-10-19T11:29:42.000Z</time>
      </trkpt>
      <trkpt lat="48.22713" lon="-3.17821">
        <ele>131.19999694824</ele>
        <time>2020-10-19T11:29:43.000Z</time>
      </trkpt>
      <trkpt lat="48.22714" lon="-3.17822">
        <ele>131.19999694824</ele>
        <time>2020-10-19T11:29:44.000Z</time>
      </trkpt>
      <trkpt lat="48.22715" lon="-3.17823">
        <ele>131.19999694824</ele>
        <time>2020-10-19T11:29:45.000Z</time>
      </trkpt>
      <trkpt lat="48.22715" lon="-3.17825">
        <ele>131.19999694824</ele>
        <time>2020-10-19T11:29:46.000Z</time>
      </trkpt>
      <trkpt lat="48.22716" lon="-3.17826">
        <ele>131.19999694824</ele>
        <time>2020-10-19T11:29:47.000Z</time>
      </trkpt>
      <trkpt lat="48.22717" lon="-3.17829">
        <ele>131.19999694824</ele>
        <time>2020-10-19T11:29:48.000Z</time>
      </trkpt>
      <trkpt lat="48.22717" lon="-3.17831">
        <ele>131.19999694824</ele>
        <time>2020-10-19T11:29:49.000Z</time>
      </trkpt>
      <trkpt lat="48.22718" lon="-3.17832">
        <ele>131.19999694824</ele>
        <time>2020-10-19T11:29:50.000Z</time>
      </trkpt>
      <trkpt lat="48.22718" lon="-3.17835">
        <ele>131.19999694824</ele>
        <time>2020-10-19T11:29:51.000Z</time>
      </trkpt>
      <trkpt lat="48.22718" lon="-3.17837">
        <ele>131</ele>
        <time>2020-10-19T11:29:52.000Z</time>
      </trkpt>
      <trkpt lat="48.22718" lon="-3.17839">
        <ele>131</ele>
        <time>2020-10-19T11:29:53.000Z</time>
      </trkpt>
      <trkpt lat="48.22718" lon="-3.1784">
        <ele>131</ele>
        <time>2020-10-19T11:29:54.000Z</time>
      </trkpt>
      <trkpt lat="48.22718" lon="-3.17842">
        <ele>131</ele>
        <time>2020-10-19T11:29:55.000Z</time>
      </trkpt>
      <trkpt lat="48.22718" lon="-3.17844">
        <ele>131</ele>
        <time>2020-10-19T11:29:56.000Z</time>
      </trkpt>
      <trkpt lat="48.22718" lon="-3.17845">
        <ele>131</ele>
        <time>2020-10-19T11:29:57.000Z</time>
      </trkpt>
      <trkpt lat="48.22718" lon="-3.17846">
        <ele>131</ele>
        <time>2020-10-19T11:29:58.000Z</time>
      </trkpt>
      <trkpt lat="48.22718" lon="-3.17847">
        <ele>131</ele>
        <time>2020-10-19T11:29:59.000Z</time>
      </trkpt>
      <trkpt lat="48.22718" lon="-3.17849">
        <ele>131.19999694824</ele>
        <time>2020-10-19T11:30:00.000Z</time>
      </trkpt>
      <trkpt lat="48.22718" lon="-3.17851">
        <ele>131.19999694824</ele>
        <time>2020-10-19T11:30:01.000Z</time>
      </trkpt>
      <trkpt lat="48.22718" lon="-3.17852">
        <ele>131.19999694824</ele>
        <time>2020-10-19T11:30:02.000Z</time>
      </trkpt>
      <trkpt lat="48.22718" lon="-3.17854">
        <ele>131.19999694824</ele>
        <time>2020-10-19T11:30:03.000Z</time>
      </trkpt>
      <trkpt lat="48.22717" lon="-3.17856">
        <ele>131.19999694824</ele>
        <time>2020-10-19T11:30:04.000Z</time>
      </trkpt>
      <trkpt lat="48.22718" lon="-3.17858">
        <ele>131.39999389648</ele>
        <time>2020-10-19T11:30:05.000Z</time>
      </trkpt>
      <trkpt lat="48.22718" lon="-3.1786">
        <ele>131.39999389648</ele>
        <time>2020-10-19T11:30:06.000Z</time>
      </trkpt>
      <trkpt lat="48.22717" lon="-3.17861">
        <ele>131.39999389648</ele>
        <time>2020-10-19T11:30:07.000Z</time>
      </trkpt>
      <trkpt lat="48.22717" lon="-3.17863">
        <ele>131.39999389648</ele>
        <time>2020-10-19T11:30:08.000Z</time>
      </trkpt>
      <trkpt lat="48.22718" lon="-3.17864">
        <ele>131.39999389648</ele>
        <time>2020-10-19T11:30:09.000Z</time>
      </trkpt>
      <trkpt lat="48.22718" lon="-3.17865">
        <ele>131.39999389648</ele>
        <time>2020-10-19T11:30:10.000Z</time>
      </trkpt>
      <trkpt lat="48.22719" lon="-3.17865">
        <ele>131.39999389648</ele>
        <time>2020-10-19T11:30:11.000Z</time>
      </trkpt>
      <trkpt lat="48.2272" lon="-3.17866">
        <ele>131.60000610352</ele>
        <time>2020-10-19T11:30:12.000Z</time>
      </trkpt>
      <trkpt lat="48.22721" lon="-3.17866">
        <ele>131.60000610352</ele>
        <time>2020-10-19T11:30:13.000Z</time>
      </trkpt>
      <trkpt lat="48.22722" lon="-3.17865">
        <ele>131.39999389648</ele>
        <time>2020-10-19T11:30:14.000Z</time>
      </trkpt>
      <trkpt lat="48.22722" lon="-3.17864">
        <ele>131.39999389648</ele>
        <time>2020-10-19T11:30:15.000Z</time>
      </trkpt>
      <trkpt lat="48.22724" lon="-3.17861">
        <ele>131.39999389648</ele>
        <time>2020-10-19T11:30:16.000Z</time>
      </trkpt>
      <trkpt lat="48.22724" lon="-3.17861">
        <ele>131.39999389648</ele>
        <time>2020-10-19T11:30:17.000Z</time>
      </trkpt>
      <trkpt lat="48.22724" lon="-3.17859">
        <ele>131.39999389648</ele>
        <time>2020-10-19T11:30:18.000Z</time>
      </trkpt>
      <trkpt lat="48.22725" lon="-3.17858">
        <ele>131.39999389648</ele>
        <time>2020-10-19T11:30:19.000Z</time>
      </trkpt>
      <trkpt lat="48.22726" lon="-3.17856">
        <ele>131.19999694824</ele>
        <time>2020-10-19T11:30:20.000Z</time>
      </trkpt>
      <trkpt lat="48.22726" lon="-3.17855">
        <ele>131.19999694824</ele>
        <time>2020-10-19T11:30:21.000Z</time>
      </trkpt>
      <trkpt lat="48.22727" lon="-3.17854">
        <ele>131.19999694824</ele>
        <time>2020-10-19T11:30:22.000Z</time>
      </trkpt>
      <trkpt lat="48.22728" lon="-3.17852">
        <ele>131.19999694824</ele>
        <time>2020-10-19T11:30:23.000Z</time>
      </trkpt>
      <trkpt lat="48.22729" lon="-3.17851">
        <ele>131.19999694824</ele>
        <time>2020-10-19T11:30:24.000Z</time>
      </trkpt>
      <trkpt lat="48.2273" lon="-3.1785">
        <ele>131.19999694824</ele>
        <time>2020-10-19T11:30:25.000Z</time>
      </trkpt>
      <trkpt lat="48.2273" lon="-3.17849">
        <ele>131</ele>
        <time>2020-10-19T11:30:26.000Z</time>
      </trkpt>
      <trkpt lat="48.22731" lon="-3.17848">
        <ele>131</ele>
        <time>2020-10-19T11:30:27.000Z</time>
      </trkpt>
      <trkpt lat="48.22733" lon="-3.17847">
        <ele>131</ele>
        <time>2020-10-19T11:30:28.000Z</time>
      </trkpt>
      <trkpt lat="48.22734" lon="-3.17847">
        <ele>131</ele>
        <time>2020-10-19T11:30:29.000Z</time>
      </trkpt>
      <trkpt lat="48.22735" lon="-3.17848">
        <ele>131</ele>
        <time>2020-10-19T11:30:30.000Z</time>
      </trkpt>
      <trkpt lat="48.22736" lon="-3.17848">
        <ele>131</ele>
        <time>2020-10-19T11:30:31.000Z</time>
      </trkpt>
      <trkpt lat="48.22738" lon="-3.17849">
        <ele>131.19999694824</ele>
        <time>2020-10-19T11:30:32.000Z</time>
      </trkpt>
      <trkpt lat="48.22739" lon="-3.1785">
        <ele>131.19999694824</ele>
        <time>2020-10-19T11:30:33.000Z</time>
      </trkpt>
      <trkpt lat="48.2274" lon="-3.1785">
        <ele>131.19999694824</ele>
        <time>2020-10-19T11:30:34.000Z</time>
      </trkpt>
      <trkpt lat="48.22742" lon="-3.17851">
        <ele>131.19999694824</ele>
        <time>2020-10-19T11:30:35.000Z</time>
      </trkpt>
      <trkpt lat="48.22743" lon="-3.17851">
        <ele>131.19999694824</ele>
        <time>2020-10-19T11:30:36.000Z</time>
      </trkpt>
      <trkpt lat="48.22744" lon="-3.17852">
        <ele>131.19999694824</ele>
        <time>2020-10-19T11:30:37.000Z</time>
      </trkpt>
      <trkpt lat="48.22745" lon="-3.17853">
        <ele>131.19999694824</ele>
        <time>2020-10-19T11:30:38.000Z</time>
      </trkpt>
      <trkpt lat="48.22747" lon="-3.17853">
        <ele>131.19999694824</ele>
        <time>2020-10-19T11:30:39.000Z</time>
      </trkpt>
      <trkpt lat="48.22748" lon="-3.17854">
        <ele>131.19999694824</ele>
        <time>2020-10-19T11:30:40.000Z</time>
      </trkpt>
      <trkpt lat="48.22749" lon="-3.17854">
        <ele>131.19999694824</ele>
        <time>2020-10-19T11:30:41.000Z</time>
      </trkpt>
      <trkpt lat="48.22751" lon="-3.17855">
        <ele>131.19999694824</ele>
        <time>2020-10-19T11:30:42.000Z</time>
      </trkpt>
      <trkpt lat="48.22752" lon="-3.17855">
        <ele>131.19999694824</ele>
        <time>2020-10-19T11:30:43.000Z</time>
      </trkpt>
      <trkpt lat="48.22753" lon="-3.17856">
        <ele>131.19999694824</ele>
        <time>2020-10-19T11:30:44.000Z</time>
      </trkpt>
      <trkpt lat="48.22755" lon="-3.17857">
        <ele>131.19999694824</ele>
        <time>2020-10-19T11:30:45.000Z</time>
      </trkpt>
      <trkpt lat="48.22756" lon="-3.17858">
        <ele>131.19999694824</ele>
        <time>2020-10-19T11:30:46.000Z</time>
      </trkpt>
      <trkpt lat="48.22757" lon="-3.17858">
        <ele>131.19999694824</ele>
        <time>2020-10-19T11:30:47.000Z</time>
      </trkpt>
      <trkpt lat="48.22758" lon="-3.17858">
        <ele>131.19999694824</ele>
        <time>2020-10-19T11:30:48.000Z</time>
      </trkpt>
      <trkpt lat="48.22759" lon="-3.17859">
        <ele>131.19999694824</ele>
        <time>2020-10-19T11:30:49.000Z</time>
      </trkpt>
      <trkpt lat="48.2276" lon="-3.17859">
        <ele>131.19999694824</ele>
        <time>2020-10-19T11:30:50.000Z</time>
      </trkpt>
      <trkpt lat="48.22761" lon="-3.17859">
        <ele>131.19999694824</ele>
        <time>2020-10-19T11:30:51.000Z</time>
      </trkpt>
      <trkpt lat="48.22762" lon="-3.1786">
        <ele>131.19999694824</ele>
        <time>2020-10-19T11:30:52.000Z</time>
      </trkpt>
      <trkpt lat="48.22763" lon="-3.1786">
        <ele>131.19999694824</ele>
        <time>2020-10-19T11:30:53.000Z</time>
      </trkpt>
      <trkpt lat="48.22764" lon="-3.17861">
        <ele>131.19999694824</ele>
        <time>2020-10-19T11:30:54.000Z</time>
      </trkpt>
      <trkpt lat="48.22765" lon="-3.17862">
        <ele>131.19999694824</ele>
        <time>2020-10-19T11:30:55.000Z</time>
      </trkpt>
      <trkpt lat="48.22766" lon="-3.17863">
        <ele>131.19999694824</ele>
        <time>2020-10-19T11:30:56.000Z</time>
      </trkpt>
      <trkpt lat="48.22768" lon="-3.17863">
        <ele>131.19999694824</ele>
        <time>2020-10-19T11:30:57.000Z</time>
      </trkpt>
      <trkpt lat="48.22769" lon="-3.17864">
        <ele>131.19999694824</ele>
        <time>2020-10-19T11:30:58.000Z</time>
      </trkpt>
      <trkpt lat="48.2277" lon="-3.17865">
        <ele>131.19999694824</ele>
        <time>2020-10-19T11:30:59.000Z</time>
      </trkpt>
      <trkpt lat="48.22772" lon="-3.17865">
        <ele>131.19999694824</ele>
        <time>2020-10-19T11:31:00.000Z</time>
      </trkpt>
      <trkpt lat="48.22773" lon="-3.17867">
        <ele>131.19999694824</ele>
        <time>2020-10-19T11:31:01.000Z</time>
      </trkpt>
      <trkpt lat="48.22774" lon="-3.17867">
        <ele>131.19999694824</ele>
        <time>2020-10-19T11:31:02.000Z</time>
      </trkpt>
      <trkpt lat="48.22775" lon="-3.17868">
        <ele>131.19999694824</ele>
        <time>2020-10-19T11:31:03.000Z</time>
      </trkpt>
      <trkpt lat="48.22776" lon="-3.17869">
        <ele>131.19999694824</ele>
        <time>2020-10-19T11:31:04.000Z</time>
      </trkpt>
      <trkpt lat="48.22777" lon="-3.17869">
        <ele>131.19999694824</ele>
        <time>2020-10-19T11:31:05.000Z</time>
      </trkpt>
      <trkpt lat="48.22778" lon="-3.17869">
        <ele>131.19999694824</ele>
        <time>2020-10-19T11:31:06.000Z</time>
      </trkpt>
      <trkpt lat="48.22779" lon="-3.17869">
        <ele>131.19999694824</ele>
        <time>2020-10-19T11:31:07.000Z</time>
      </trkpt>
      <trkpt lat="48.22779" lon="-3.17868">
        <ele>131.19999694824</ele>
        <time>2020-10-19T11:31:08.000Z</time>
      </trkpt>
      <trkpt lat="48.22779" lon="-3.17868">
        <ele>131.19999694824</ele>
        <time>2020-10-19T11:31:09.000Z</time>
      </trkpt>
      <trkpt lat="48.22779" lon="-3.17868">
        <ele>131.19999694824</ele>
        <time>2020-10-19T11:31:10.000Z</time>
      </trkpt>
      <trkpt lat="48.22779" lon="-3.17867">
        <ele>131.19999694824</ele>
        <time>2020-10-19T11:31:11.000Z</time>
      </trkpt>
      <trkpt lat="48.22779" lon="-3.17867">
        <ele>131.19999694824</ele>
        <time>2020-10-19T11:31:12.000Z</time>
      </trkpt>
      <trkpt lat="48.22779" lon="-3.17866">
        <ele>131.19999694824</ele>
        <time>2020-10-19T11:31:13.000Z</time>
      </trkpt>
      <trkpt lat="48.2278" lon="-3.17866">
        <ele>131.19999694824</ele>
        <time>2020-10-19T11:31:14.000Z</time>
      </trkpt>
      <trkpt lat="48.2278" lon="-3.17865">
        <ele>131.19999694824</ele>
        <time>2020-10-19T11:31:15.000Z</time>
      </trkpt>
      <trkpt lat="48.22779" lon="-3.17865">
        <ele>131.19999694824</ele>
        <time>2020-10-19T11:31:16.000Z</time>
      </trkpt>
      <trkpt lat="48.22779" lon="-3.17865">
        <ele>131.19999694824</ele>
        <time>2020-10-19T11:31:17.000Z</time>
      </trkpt>
      <trkpt lat="48.2278" lon="-3.17865">
        <ele>131.19999694824</ele>
        <time>2020-10-19T11:31:18.000Z</time>
      </trkpt>
      <trkpt lat="48.22779" lon="-3.17865">
        <ele>131.19999694824</ele>
        <time>2020-10-19T11:31:19.000Z</time>
      </trkpt>
      <trkpt lat="48.2278" lon="-3.17865">
        <ele>131.19999694824</ele>
        <time>2020-10-19T11:31:20.000Z</time>
      </trkpt>
      <trkpt lat="48.2278" lon="-3.17865">
        <ele>131.19999694824</ele>
        <time>2020-10-19T11:31:21.000Z</time>
      </trkpt>
      <trkpt lat="48.2278" lon="-3.17865">
        <ele>131.19999694824</ele>
        <time>2020-10-19T11:31:22.000Z</time>
      </trkpt>
      <trkpt lat="48.2278" lon="-3.17865">
        <ele>131.19999694824</ele>
        <time>2020-10-19T11:31:23.000Z</time>
      </trkpt>
      <trkpt lat="48.2278" lon="-3.17865">
        <ele>131.19999694824</ele>
        <time>2020-10-19T11:31:24.000Z</time>
      </trkpt>
      <trkpt lat="48.2278" lon="-3.17865">
        <ele>131.19999694824</ele>
        <time>2020-10-19T11:31:25.000Z</time>
      </trkpt>
      <trkpt lat="48.2278" lon="-3.17864">
        <ele>131.19999694824</ele>
        <time>2020-10-19T11:31:26.000Z</time>
      </trkpt>
      <trkpt lat="48.2278" lon="-3.17864">
        <ele>131.19999694824</ele>
        <time>2020-10-19T11:31:27.000Z</time>
      </trkpt>
      <trkpt lat="48.2278" lon="-3.17864">
        <ele>131.19999694824</ele>
        <time>2020-10-19T11:31:28.000Z</time>
      </trkpt>
      <trkpt lat="48.2278" lon="-3.17864">
        <ele>131.19999694824</ele>
        <time>2020-10-19T11:31:29.000Z</time>
      </trkpt>
      <trkpt lat="48.2278" lon="-3.17863">
        <ele>131.19999694824</ele>
        <time>2020-10-19T11:31:30.000Z</time>
      </trkpt>
      <trkpt lat="48.2278" lon="-3.17862">
        <ele>131.19999694824</ele>
        <time>2020-10-19T11:31:31.000Z</time>
      </trkpt>
      <trkpt lat="48.2278" lon="-3.17862">
        <ele>131.19999694824</ele>
        <time>2020-10-19T11:31:32.000Z</time>
      </trkpt>
      <trkpt lat="48.2278" lon="-3.17862">
        <ele>131.19999694824</ele>
        <time>2020-10-19T11:31:33.000Z</time>
      </trkpt>
      <trkpt lat="48.2278" lon="-3.17862">
        <ele>131.19999694824</ele>
        <time>2020-10-19T11:31:34.000Z</time>
      </trkpt>
      <trkpt lat="48.22781" lon="-3.17861">
        <ele>131.19999694824</ele>
        <time>2020-10-19T11:31:35.000Z</time>
      </trkpt>
      <trkpt lat="48.22781" lon="-3.17861">
        <ele>131.19999694824</ele>
        <time>2020-10-19T11:31:36.000Z</time>
      </trkpt>
      <trkpt lat="48.22781" lon="-3.17861">
        <ele>131.19999694824</ele>
        <time>2020-10-19T11:31:37.000Z</time>
      </trkpt>
      <trkpt lat="48.22781" lon="-3.17861">
        <ele>131.19999694824</ele>
        <time>2020-10-19T11:31:38.000Z</time>
      </trkpt>
      <trkpt lat="48.22781" lon="-3.17861">
        <ele>131.19999694824</ele>
        <time>2020-10-19T11:31:39.000Z</time>
      </trkpt>
      <trkpt lat="48.22781" lon="-3.17861">
        <ele>131.19999694824</ele>
        <time>2020-10-19T11:31:40.000Z</time>
      </trkpt>
      <trkpt lat="48.22781" lon="-3.17861">
        <ele>131.19999694824</ele>
        <time>2020-10-19T11:31:41.000Z</time>
      </trkpt>
      <trkpt lat="48.22781" lon="-3.17861">
        <ele>131.19999694824</ele>
        <time>2020-10-19T11:31:42.000Z</time>
      </trkpt>
      <trkpt lat="48.22781" lon="-3.17861">
        <ele>131.19999694824</ele>
        <time>2020-10-19T11:31:43.000Z</time>
      </trkpt>
      <trkpt lat="48.2278" lon="-3.17861">
        <ele>131.19999694824</ele>
        <time>2020-10-19T11:31:44.000Z</time>
      </trkpt>
      <trkpt lat="48.2278" lon="-3.17861">
        <ele>131.19999694824</ele>
        <time>2020-10-19T11:31:45.000Z</time>
      </trkpt>
      <trkpt lat="48.2278" lon="-3.1786">
        <ele>131.19999694824</ele>
        <time>2020-10-19T11:31:46.000Z</time>
      </trkpt>
      <trkpt lat="48.2278" lon="-3.1786">
        <ele>131.19999694824</ele>
        <time>2020-10-19T11:31:47.000Z</time>
      </trkpt>
      <trkpt lat="48.2278" lon="-3.1786">
        <ele>131.19999694824</ele>
        <time>2020-10-19T11:31:48.000Z</time>
      </trkpt>
      <trkpt lat="48.2278" lon="-3.17859">
        <ele>131.19999694824</ele>
        <time>2020-10-19T11:31:49.000Z</time>
      </trkpt>
      <trkpt lat="48.2278" lon="-3.17859">
        <ele>131.19999694824</ele>
        <time>2020-10-19T11:31:50.000Z</time>
      </trkpt>
      <trkpt lat="48.2278" lon="-3.17859">
        <ele>131.19999694824</ele>
        <time>2020-10-19T11:31:51.000Z</time>
      </trkpt>
      <trkpt lat="48.22781" lon="-3.17859">
        <ele>131.19999694824</ele>
        <time>2020-10-19T11:31:52.000Z</time>
      </trkpt>
      <trkpt lat="48.22781" lon="-3.17859">
        <ele>131.19999694824</ele>
        <time>2020-10-19T11:31:53.000Z</time>
      </trkpt>
      <trkpt lat="48.2278" lon="-3.17859">
        <ele>131.19999694824</ele>
        <time>2020-10-19T11:31:54.000Z</time>
      </trkpt>
      <trkpt lat="48.2278" lon="-3.17859">
        <ele>131.19999694824</ele>
        <time>2020-10-19T11:31:55.000Z</time>
      </trkpt>
      <trkpt lat="48.2278" lon="-3.17859">
        <ele>131.19999694824</ele>
        <time>2020-10-19T11:31:56.000Z</time>
      </trkpt>
      <trkpt lat="48.2278" lon="-3.17859">
        <ele>131.19999694824</ele>
        <time>2020-10-19T11:31:57.000Z</time>
      </trkpt>
      <trkpt lat="48.2278" lon="-3.17859">
        <ele>131.19999694824</ele>
        <time>2020-10-19T11:31:58.000Z</time>
      </trkpt>
      <trkpt lat="48.22781" lon="-3.17859">
        <ele>131.19999694824</ele>
        <time>2020-10-19T11:31:59.000Z</time>
      </trkpt>
      <trkpt lat="48.22781" lon="-3.17859">
        <ele>131.19999694824</ele>
        <time>2020-10-19T11:32:00.000Z</time>
      </trkpt>
      <trkpt lat="48.22781" lon="-3.17859">
        <ele>131.19999694824</ele>
        <time>2020-10-19T11:32:01.000Z</time>
      </trkpt>
      <trkpt lat="48.22781" lon="-3.1786">
        <ele>131.19999694824</ele>
        <time>2020-10-19T11:32:02.000Z</time>
      </trkpt>
      <trkpt lat="48.22781" lon="-3.1786">
        <ele>131.19999694824</ele>
        <time>2020-10-19T11:32:03.000Z</time>
      </trkpt>
      <trkpt lat="48.22781" lon="-3.1786">
        <ele>131.19999694824</ele>
        <time>2020-10-19T11:32:04.000Z</time>
      </trkpt>
      <trkpt lat="48.22781" lon="-3.17861">
        <ele>131.19999694824</ele>
        <time>2020-10-19T11:32:05.000Z</time>
      </trkpt>
      <trkpt lat="48.22781" lon="-3.17861">
        <ele>131.19999694824</ele>
        <time>2020-10-19T11:32:06.000Z</time>
      </trkpt>
      <trkpt lat="48.22781" lon="-3.17861">
        <ele>131.19999694824</ele>
        <time>2020-10-19T11:32:07.000Z</time>
      </trkpt>
      <trkpt lat="48.22781" lon="-3.17861">
        <ele>131.19999694824</ele>
        <time>2020-10-19T11:32:08.000Z</time>
      </trkpt>
      <trkpt lat="48.22781" lon="-3.17861">
        <ele>131.19999694824</ele>
        <time>2020-10-19T11:32:09.000Z</time>
      </trkpt>
      <trkpt lat="48.22781" lon="-3.17861">
        <ele>131.19999694824</ele>
        <time>2020-10-19T11:32:10.000Z</time>
      </trkpt>
      <trkpt lat="48.22782" lon="-3.17861">
        <ele>131.19999694824</ele>
        <time>2020-10-19T11:32:11.000Z</time>
      </trkpt>
      <trkpt lat="48.22782" lon="-3.17861">
        <ele>131.19999694824</ele>
        <time>2020-10-19T11:32:12.000Z</time>
      </trkpt>
      <trkpt lat="48.22782" lon="-3.17861">
        <ele>131.19999694824</ele>
        <time>2020-10-19T11:32:13.000Z</time>
      </trkpt>
      <trkpt lat="48.22782" lon="-3.17861">
        <ele>131.19999694824</ele>
        <time>2020-10-19T11:32:14.000Z</time>
      </trkpt>
      <trkpt lat="48.22782" lon="-3.17861">
        <ele>131.19999694824</ele>
        <time>2020-10-19T11:32:15.000Z</time>
      </trkpt>
      <trkpt lat="48.22782" lon="-3.17861">
        <ele>131.19999694824</ele>
        <time>2020-10-19T11:32:16.000Z</time>
      </trkpt>
      <trkpt lat="48.22782" lon="-3.17861">
        <ele>131.19999694824</ele>
        <time>2020-10-19T11:32:17.000Z</time>
      </trkpt>
      <trkpt lat="48.22782" lon="-3.17862">
        <ele>131.19999694824</ele>
        <time>2020-10-19T11:32:18.000Z</time>
      </trkpt>
      <trkpt lat="48.22781" lon="-3.17861">
        <ele>131.19999694824</ele>
        <time>2020-10-19T12:07:26.000Z</time>
      </trkpt>
      <trkpt lat="48.22779" lon="-3.17866">
        <ele>131.19999694824</ele>
        <time>2020-10-19T12:07:27.000Z</time>
      </trkpt>
      <trkpt lat="48.22778" lon="-3.17868">
        <ele>131.19999694824</ele>
        <time>2020-10-19T12:07:28.000Z</time>
      </trkpt>
      <trkpt lat="48.22778" lon="-3.17868">
        <ele>131.19999694824</ele>
        <time>2020-10-19T12:07:29.000Z</time>
      </trkpt>
      <trkpt lat="48.22778" lon="-3.17869">
        <ele>131.19999694824</ele>
        <time>2020-10-19T12:07:30.000Z</time>
      </trkpt>
      <trkpt lat="48.22778" lon="-3.1787">
        <ele>131.39999389648</ele>
        <time>2020-10-19T12:07:31.000Z</time>
      </trkpt>
      <trkpt lat="48.22778" lon="-3.1787">
        <ele>131.39999389648</ele>
        <time>2020-10-19T12:07:32.000Z</time>
      </trkpt>
      <trkpt lat="48.22777" lon="-3.17868">
        <ele>131.19999694824</ele>
        <time>2020-10-19T12:07:33.000Z</time>
      </trkpt>
      <trkpt lat="48.22777" lon="-3.17868">
        <ele>131.19999694824</ele>
        <time>2020-10-19T12:07:35.000Z</time>
      </trkpt>
      <trkpt lat="48.22777" lon="-3.17868">
        <ele>131.19999694824</ele>
        <time>2020-10-19T12:07:36.000Z</time>
      </trkpt>
      <trkpt lat="48.22778" lon="-3.17868">
        <ele>131.19999694824</ele>
        <time>2020-10-19T12:07:37.000Z</time>
      </trkpt>
      <trkpt lat="48.22778" lon="-3.17868">
        <ele>131.19999694824</ele>
        <time>2020-10-19T12:07:38.000Z</time>
      </trkpt>
      <trkpt lat="48.22779" lon="-3.17868">
        <ele>131.19999694824</ele>
        <time>2020-10-19T12:07:39.000Z</time>
      </trkpt>
      <trkpt lat="48.22779" lon="-3.17867">
        <ele>131.19999694824</ele>
        <time>2020-10-19T12:07:40.000Z</time>
      </trkpt>
      <trkpt lat="48.22779" lon="-3.17867">
        <ele>131.19999694824</ele>
        <time>2020-10-19T12:07:41.000Z</time>
      </trkpt>
      <trkpt lat="48.22779" lon="-3.17867">
        <ele>131.19999694824</ele>
        <time>2020-10-19T12:07:42.000Z</time>
      </trkpt>
      <trkpt lat="48.2278" lon="-3.17866">
        <ele>131.19999694824</ele>
        <time>2020-10-19T12:07:43.000Z</time>
      </trkpt>
      <trkpt lat="48.2278" lon="-3.17866">
        <ele>131.19999694824</ele>
        <time>2020-10-19T12:07:44.000Z</time>
      </trkpt>
      <trkpt lat="48.22779" lon="-3.17866">
        <ele>131.19999694824</ele>
        <time>2020-10-19T12:07:45.000Z</time>
      </trkpt>
      <trkpt lat="48.2278" lon="-3.17865">
        <ele>131.19999694824</ele>
        <time>2020-10-19T12:07:46.000Z</time>
      </trkpt>
      <trkpt lat="48.2278" lon="-3.17865">
        <ele>131.19999694824</ele>
        <time>2020-10-19T12:07:47.000Z</time>
      </trkpt>
      <trkpt lat="48.2278" lon="-3.17865">
        <ele>131.19999694824</ele>
        <time>2020-10-19T12:07:48.000Z</time>
      </trkpt>
      <trkpt lat="48.2278" lon="-3.17864">
        <ele>131.19999694824</ele>
        <time>2020-10-19T12:07:49.000Z</time>
      </trkpt>
      <trkpt lat="48.2278" lon="-3.17864">
        <ele>131.19999694824</ele>
        <time>2020-10-19T12:07:50.000Z</time>
      </trkpt>
      <trkpt lat="48.2278" lon="-3.17864">
        <ele>131.19999694824</ele>
        <time>2020-10-19T12:07:51.000Z</time>
      </trkpt>
      <trkpt lat="48.22781" lon="-3.17864">
        <ele>131.19999694824</ele>
        <time>2020-10-19T12:07:52.000Z</time>
      </trkpt>
      <trkpt lat="48.2278" lon="-3.17863">
        <ele>131.19999694824</ele>
        <time>2020-10-19T12:07:53.000Z</time>
      </trkpt>
      <trkpt lat="48.22781" lon="-3.17864">
        <ele>131.19999694824</ele>
        <time>2020-10-19T12:07:54.000Z</time>
      </trkpt>
      <trkpt lat="48.22781" lon="-3.17864">
        <ele>131.19999694824</ele>
        <time>2020-10-19T12:07:55.000Z</time>
      </trkpt>
      <trkpt lat="48.22781" lon="-3.17864">
        <ele>131.19999694824</ele>
        <time>2020-10-19T12:07:56.000Z</time>
      </trkpt>
      <trkpt lat="48.22781" lon="-3.17863">
        <ele>131.19999694824</ele>
        <time>2020-10-19T12:07:57.000Z</time>
      </trkpt>
      <trkpt lat="48.22781" lon="-3.17864">
        <ele>131.19999694824</ele>
        <time>2020-10-19T12:07:58.000Z</time>
      </trkpt>
      <trkpt lat="48.22781" lon="-3.17863">
        <ele>131.19999694824</ele>
        <time>2020-10-19T12:07:59.000Z</time>
      </trkpt>
      <trkpt lat="48.22781" lon="-3.17863">
        <ele>131.19999694824</ele>
        <time>2020-10-19T12:08:00.000Z</time>
      </trkpt>
      <trkpt lat="48.22781" lon="-3.17863">
        <ele>131.19999694824</ele>
        <time>2020-10-19T12:08:01.000Z</time>
      </trkpt>
      <trkpt lat="48.22781" lon="-3.17863">
        <ele>131.19999694824</ele>
        <time>2020-10-19T12:08:02.000Z</time>
      </trkpt>
      <trkpt lat="48.22781" lon="-3.17863">
        <ele>131.19999694824</ele>
        <time>2020-10-19T12:08:03.000Z</time>
      </trkpt>
      <trkpt lat="48.22781" lon="-3.17864">
        <ele>131.19999694824</ele>
        <time>2020-10-19T12:08:04.000Z</time>
      </trkpt>
      <trkpt lat="48.22781" lon="-3.17864">
        <ele>131.19999694824</ele>
        <time>2020-10-19T12:08:05.000Z</time>
      </trkpt>
      <trkpt lat="48.22781" lon="-3.17864">
        <ele>131.19999694824</ele>
        <time>2020-10-19T12:08:06.000Z</time>
      </trkpt>
      <trkpt lat="48.22781" lon="-3.17864">
        <ele>131.19999694824</ele>
        <time>2020-10-19T12:08:07.000Z</time>
      </trkpt>
      <trkpt lat="48.22782" lon="-3.17864">
        <ele>131.19999694824</ele>
        <time>2020-10-19T12:08:08.000Z</time>
      </trkpt>
      <trkpt lat="48.22782" lon="-3.17865">
        <ele>131.19999694824</ele>
        <time>2020-10-19T12:08:09.000Z</time>
      </trkpt>
      <trkpt lat="48.22782" lon="-3.17865">
        <ele>131.19999694824</ele>
        <time>2020-10-19T12:08:10.000Z</time>
      </trkpt>
      <trkpt lat="48.22782" lon="-3.17864">
        <ele>131.19999694824</ele>
        <time>2020-10-19T12:08:11.000Z</time>
      </trkpt>
      <trkpt lat="48.22782" lon="-3.17864">
        <ele>131.19999694824</ele>
        <time>2020-10-19T12:08:12.000Z</time>
      </trkpt>
      <trkpt lat="48.22782" lon="-3.17864">
        <ele>131.19999694824</ele>
        <time>2020-10-19T12:08:13.000Z</time>
      </trkpt>
      <trkpt lat="48.22782" lon="-3.17864">
        <ele>131.19999694824</ele>
        <time>2020-10-19T12:08:14.000Z</time>
      </trkpt>
      <trkpt lat="48.22782" lon="-3.17864">
        <ele>131.19999694824</ele>
        <time>2020-10-19T12:08:15.000Z</time>
      </trkpt>
      <trkpt lat="48.22782" lon="-3.17863">
        <ele>131.19999694824</ele>
        <time>2020-10-19T12:08:16.000Z</time>
      </trkpt>
      <trkpt lat="48.22783" lon="-3.17863">
        <ele>131.19999694824</ele>
        <time>2020-10-19T12:08:17.000Z</time>
      </trkpt>
      <trkpt lat="48.22783" lon="-3.17863">
        <ele>131.19999694824</ele>
        <time>2020-10-19T12:08:18.000Z</time>
      </trkpt>
      <trkpt lat="48.22783" lon="-3.17863">
        <ele>131.19999694824</ele>
        <time>2020-10-19T12:08:19.000Z</time>
      </trkpt>
      <trkpt lat="48.22783" lon="-3.17863">
        <ele>131.19999694824</ele>
        <time>2020-10-19T12:08:20.000Z</time>
      </trkpt>
      <trkpt lat="48.22784" lon="-3.17863">
        <ele>131.19999694824</ele>
        <time>2020-10-19T12:08:21.000Z</time>
      </trkpt>
      <trkpt lat="48.22784" lon="-3.17863">
        <ele>131.19999694824</ele>
        <time>2020-10-19T12:08:22.000Z</time>
      </trkpt>
      <trkpt lat="48.22785" lon="-3.17863">
        <ele>131.19999694824</ele>
        <time>2020-10-19T12:08:23.000Z</time>
      </trkpt>
      <trkpt lat="48.22785" lon="-3.17863">
        <ele>131.19999694824</ele>
        <time>2020-10-19T12:08:24.000Z</time>
      </trkpt>
      <trkpt lat="48.22785" lon="-3.17863">
        <ele>131.19999694824</ele>
        <time>2020-10-19T12:08:25.000Z</time>
      </trkpt>
      <trkpt lat="48.22785" lon="-3.17863">
        <ele>131.19999694824</ele>
        <time>2020-10-19T12:08:26.000Z</time>
      </trkpt>
      <trkpt lat="48.22785" lon="-3.17863">
        <ele>131.19999694824</ele>
        <time>2020-10-19T12:08:27.000Z</time>
      </trkpt>
      <trkpt lat="48.22785" lon="-3.17863">
        <ele>131.19999694824</ele>
        <time>2020-10-19T12:08:28.000Z</time>
      </trkpt>
      <trkpt lat="48.22785" lon="-3.17863">
        <ele>131.19999694824</ele>
        <time>2020-10-19T12:08:29.000Z</time>
      </trkpt>
      <trkpt lat="48.22785" lon="-3.17863">
        <ele>131.19999694824</ele>
        <time>2020-10-19T12:08:30.000Z</time>
      </trkpt>
      <trkpt lat="48.22785" lon="-3.17863">
        <ele>131.19999694824</ele>
        <time>2020-10-19T12:08:31.000Z</time>
      </trkpt>
      <trkpt lat="48.22785" lon="-3.17862">
        <ele>131.19999694824</ele>
        <time>2020-10-19T12:08:32.000Z</time>
      </trkpt>
      <trkpt lat="48.22785" lon="-3.17862">
        <ele>131.19999694824</ele>
        <time>2020-10-19T12:08:33.000Z</time>
      </trkpt>
      <trkpt lat="48.22785" lon="-3.17862">
        <ele>131.19999694824</ele>
        <time>2020-10-19T12:08:34.000Z</time>
      </trkpt>
      <trkpt lat="48.22785" lon="-3.17862">
        <ele>131.19999694824</ele>
        <time>2020-10-19T12:08:35.000Z</time>
      </trkpt>
      <trkpt lat="48.22785" lon="-3.17862">
        <ele>131.19999694824</ele>
        <time>2020-10-19T12:08:36.000Z</time>
      </trkpt>
      <trkpt lat="48.22785" lon="-3.17862">
        <ele>131.19999694824</ele>
        <time>2020-10-19T12:08:37.000Z</time>
      </trkpt>
      <trkpt lat="48.22784" lon="-3.17862">
        <ele>131.19999694824</ele>
        <time>2020-10-19T12:08:38.000Z</time>
      </trkpt>
      <trkpt lat="48.22784" lon="-3.17862">
        <ele>131.19999694824</ele>
        <time>2020-10-19T12:08:39.000Z</time>
      </trkpt>
      <trkpt lat="48.22784" lon="-3.17862">
        <ele>131.19999694824</ele>
        <time>2020-10-19T12:08:40.000Z</time>
      </trkpt>
      <trkpt lat="48.22784" lon="-3.17862">
        <ele>131.19999694824</ele>
        <time>2020-10-19T12:08:41.000Z</time>
      </trkpt>
      <trkpt lat="48.22784" lon="-3.17862">
        <ele>131.19999694824</ele>
        <time>2020-10-19T12:08:42.000Z</time>
      </trkpt>
      <trkpt lat="48.22784" lon="-3.17862">
        <ele>131.19999694824</ele>
        <time>2020-10-19T12:08:43.000Z</time>
      </trkpt>
      <trkpt lat="48.22784" lon="-3.17862">
        <ele>131.19999694824</ele>
        <time>2020-10-19T12:08:44.000Z</time>
      </trkpt>
      <trkpt lat="48.22784" lon="-3.17862">
        <ele>131.19999694824</ele>
        <time>2020-10-19T12:08:45.000Z</time>
      </trkpt>
      <trkpt lat="48.22784" lon="-3.17862">
        <ele>131.19999694824</ele>
        <time>2020-10-19T12:08:46.000Z</time>
      </trkpt>
      <trkpt lat="48.22784" lon="-3.17862">
        <ele>131.19999694824</ele>
        <time>2020-10-19T12:08:47.000Z</time>
      </trkpt>
      <trkpt lat="48.22784" lon="-3.17862">
        <ele>131.19999694824</ele>
        <time>2020-10-19T12:08:48.000Z</time>
      </trkpt>
      <trkpt lat="48.22784" lon="-3.17862">
        <ele>131.19999694824</ele>
        <time>2020-10-19T12:08:49.000Z</time>
      </trkpt>
      <trkpt lat="48.22784" lon="-3.17862">
        <ele>131.19999694824</ele>
        <time>2020-10-19T12:08:50.000Z</time>
      </trkpt>
      <trkpt lat="48.22784" lon="-3.17862">
        <ele>131.19999694824</ele>
        <time>2020-10-19T12:08:51.000Z</time>
      </trkpt>
      <trkpt lat="48.22784" lon="-3.17862">
        <ele>131.19999694824</ele>
        <time>2020-10-19T12:08:52.000Z</time>
      </trkpt>
      <trkpt lat="48.22784" lon="-3.17862">
        <ele>131.19999694824</ele>
        <time>2020-10-19T12:08:53.000Z</time>
      </trkpt>
      <trkpt lat="48.22785" lon="-3.17863">
        <ele>131.19999694824</ele>
        <time>2020-10-19T12:08:54.000Z</time>
      </trkpt>
      <trkpt lat="48.22785" lon="-3.17863">
        <ele>131.19999694824</ele>
        <time>2020-10-19T12:08:55.000Z</time>
      </trkpt>
      <trkpt lat="48.22785" lon="-3.17862">
        <ele>131.19999694824</ele>
        <time>2020-10-19T12:08:56.000Z</time>
      </trkpt>
      <trkpt lat="48.22785" lon="-3.17862">
        <ele>131.19999694824</ele>
        <time>2020-10-19T12:08:57.000Z</time>
      </trkpt>
      <trkpt lat="48.22785" lon="-3.17862">
        <ele>131.19999694824</ele>
        <time>2020-10-19T12:08:58.000Z</time>
      </trkpt>
      <trkpt lat="48.22784" lon="-3.17862">
        <ele>131.19999694824</ele>
        <time>2020-10-19T12:08:59.000Z</time>
      </trkpt>
      <trkpt lat="48.22783" lon="-3.17862">
        <ele>131.19999694824</ele>
        <time>2020-10-19T12:09:00.000Z</time>
      </trkpt>
      <trkpt lat="48.22783" lon="-3.17862">
        <ele>131.19999694824</ele>
        <time>2020-10-19T12:09:01.000Z</time>
      </trkpt>
      <trkpt lat="48.22783" lon="-3.17862">
        <ele>131.19999694824</ele>
        <time>2020-10-19T12:09:02.000Z</time>
      </trkpt>
      <trkpt lat="48.22783" lon="-3.17862">
        <ele>131.19999694824</ele>
        <time>2020-10-19T12:09:03.000Z</time>
      </trkpt>
      <trkpt lat="48.22783" lon="-3.17862">
        <ele>131.19999694824</ele>
        <time>2020-10-19T12:09:04.000Z</time>
      </trkpt>
      <trkpt lat="48.22783" lon="-3.17862">
        <ele>131.19999694824</ele>
        <time>2020-10-19T12:09:05.000Z</time>
      </trkpt>
      <trkpt lat="48.22783" lon="-3.17862">
        <ele>131.19999694824</ele>
        <time>2020-10-19T12:09:06.000Z</time>
      </trkpt>
      <trkpt lat="48.22783" lon="-3.17862">
        <ele>131.19999694824</ele>
        <time>2020-10-19T12:09:07.000Z</time>
      </trkpt>
      <trkpt lat="48.22783" lon="-3.17862">
        <ele>131.19999694824</ele>
        <time>2020-10-19T12:09:08.000Z</time>
      </trkpt>
      <trkpt lat="48.22783" lon="-3.17862">
        <ele>131.19999694824</ele>
        <time>2020-10-19T12:09:09.000Z</time>
      </trkpt>
      <trkpt lat="48.22782" lon="-3.17862">
        <ele>131.19999694824</ele>
        <time>2020-10-19T12:09:10.000Z</time>
      </trkpt>
      <trkpt lat="48.22782" lon="-3.17862">
        <ele>131.19999694824</ele>
        <time>2020-10-19T12:09:11.000Z</time>
      </trkpt>
      <trkpt lat="48.22782" lon="-3.17862">
        <ele>131.19999694824</ele>
        <time>2020-10-19T12:09:12.000Z</time>
      </trkpt>
      <trkpt lat="48.22782" lon="-3.17862">
        <ele>131.19999694824</ele>
        <time>2020-10-19T12:09:13.000Z</time>
      </trkpt>
      <trkpt lat="48.22781" lon="-3.17863">
        <ele>131.19999694824</ele>
        <time>2020-10-19T12:09:14.000Z</time>
      </trkpt>
      <trkpt lat="48.22782" lon="-3.17863">
        <ele>131.19999694824</ele>
        <time>2020-10-19T12:09:15.000Z</time>
      </trkpt>
      <trkpt lat="48.22782" lon="-3.17862">
        <ele>131.19999694824</ele>
        <time>2020-10-19T12:09:16.000Z</time>
      </trkpt>
      <trkpt lat="48.22783" lon="-3.17861">
        <ele>131.19999694824</ele>
        <time>2020-10-19T12:09:17.000Z</time>
      </trkpt>
      <trkpt lat="48.22783" lon="-3.1786">
        <ele>131.19999694824</ele>
        <time>2020-10-19T12:09:18.000Z</time>
      </trkpt>
      <trkpt lat="48.22783" lon="-3.1786">
        <ele>131.19999694824</ele>
        <time>2020-10-19T12:09:19.000Z</time>
      </trkpt>
      <trkpt lat="48.22783" lon="-3.1786">
        <ele>131.19999694824</ele>
        <time>2020-10-19T12:09:20.000Z</time>
      </trkpt>
      <trkpt lat="48.22784" lon="-3.1786">
        <ele>131.19999694824</ele>
        <time>2020-10-19T12:09:21.000Z</time>
      </trkpt>
      <trkpt lat="48.22784" lon="-3.17859">
        <ele>131.19999694824</ele>
        <time>2020-10-19T12:09:22.000Z</time>
      </trkpt>
      <trkpt lat="48.22784" lon="-3.17859">
        <ele>131.19999694824</ele>
        <time>2020-10-19T12:09:23.000Z</time>
      </trkpt>
      <trkpt lat="48.22784" lon="-3.17859">
        <ele>131.19999694824</ele>
        <time>2020-10-19T12:09:24.000Z</time>
      </trkpt>
      <trkpt lat="48.22784" lon="-3.17858">
        <ele>131.19999694824</ele>
        <time>2020-10-19T12:09:25.000Z</time>
      </trkpt>
      <trkpt lat="48.22784" lon="-3.17857">
        <ele>131.19999694824</ele>
        <time>2020-10-19T12:09:26.000Z</time>
      </trkpt>
      <trkpt lat="48.22785" lon="-3.17856">
        <ele>131.19999694824</ele>
        <time>2020-10-19T12:09:27.000Z</time>
      </trkpt>
      <trkpt lat="48.22785" lon="-3.17854">
        <ele>131.19999694824</ele>
        <time>2020-10-19T12:09:28.000Z</time>
      </trkpt>
      <trkpt lat="48.22786" lon="-3.17852">
        <ele>131</ele>
        <time>2020-10-19T12:09:29.000Z</time>
      </trkpt>
      <trkpt lat="48.22786" lon="-3.17851">
        <ele>131</ele>
        <time>2020-10-19T12:09:30.000Z</time>
      </trkpt>
      <trkpt lat="48.22786" lon="-3.1785">
        <ele>131</ele>
        <time>2020-10-19T12:09:31.000Z</time>
      </trkpt>
      <trkpt lat="48.22786" lon="-3.1785">
        <ele>131</ele>
        <time>2020-10-19T12:09:32.000Z</time>
      </trkpt>
      <trkpt lat="48.22787" lon="-3.1785">
        <ele>131</ele>
        <time>2020-10-19T12:09:33.000Z</time>
      </trkpt>
      <trkpt lat="48.22787" lon="-3.1785">
        <ele>131</ele>
        <time>2020-10-19T12:09:34.000Z</time>
      </trkpt>
      <trkpt lat="48.22787" lon="-3.17849">
        <ele>131</ele>
        <time>2020-10-19T12:09:35.000Z</time>
      </trkpt>
      <trkpt lat="48.22788" lon="-3.17848">
        <ele>131</ele>
        <time>2020-10-19T12:09:36.000Z</time>
      </trkpt>
      <trkpt lat="48.22788" lon="-3.17847">
        <ele>131</ele>
        <time>2020-10-19T12:09:37.000Z</time>
      </trkpt>
      <trkpt lat="48.22789" lon="-3.17846">
        <ele>131</ele>
        <time>2020-10-19T12:09:38.000Z</time>
      </trkpt>
      <trkpt lat="48.22789" lon="-3.17844">
        <ele>131</ele>
        <time>2020-10-19T12:09:39.000Z</time>
      </trkpt>
      <trkpt lat="48.2279" lon="-3.17843">
        <ele>131</ele>
        <time>2020-10-19T12:09:40.000Z</time>
      </trkpt>
      <trkpt lat="48.2279" lon="-3.17842">
        <ele>131</ele>
        <time>2020-10-19T12:09:41.000Z</time>
      </trkpt>
      <trkpt lat="48.2279" lon="-3.1784">
        <ele>131</ele>
        <time>2020-10-19T12:09:42.000Z</time>
      </trkpt>
      <trkpt lat="48.2279" lon="-3.17839">
        <ele>131</ele>
        <time>2020-10-19T12:09:43.000Z</time>
      </trkpt>
      <trkpt lat="48.2279" lon="-3.17838">
        <ele>131</ele>
        <time>2020-10-19T12:09:44.000Z</time>
      </trkpt>
      <trkpt lat="48.2279" lon="-3.17837">
        <ele>131</ele>
        <time>2020-10-19T12:09:45.000Z</time>
      </trkpt>
      <trkpt lat="48.22791" lon="-3.17835">
        <ele>130.80000305176</ele>
        <time>2020-10-19T12:09:46.000Z</time>
      </trkpt>
      <trkpt lat="48.22791" lon="-3.17834">
        <ele>130.80000305176</ele>
        <time>2020-10-19T12:09:47.000Z</time>
      </trkpt>
      <trkpt lat="48.22791" lon="-3.17832">
        <ele>130.80000305176</ele>
        <time>2020-10-19T12:09:48.000Z</time>
      </trkpt>
      <trkpt lat="48.22791" lon="-3.17831">
        <ele>130.80000305176</ele>
        <time>2020-10-19T12:09:49.000Z</time>
      </trkpt>
      <trkpt lat="48.22791" lon="-3.1783">
        <ele>130.80000305176</ele>
        <time>2020-10-19T12:09:50.000Z</time>
      </trkpt>
      <trkpt lat="48.22791" lon="-3.17829">
        <ele>130.80000305176</ele>
        <time>2020-10-19T12:09:51.000Z</time>
      </trkpt>
      <trkpt lat="48.22791" lon="-3.17829">
        <ele>130.80000305176</ele>
        <time>2020-10-19T12:09:52.000Z</time>
      </trkpt>
      <trkpt lat="48.22792" lon="-3.17828">
        <ele>130.80000305176</ele>
        <time>2020-10-19T12:09:53.000Z</time>
      </trkpt>
      <trkpt lat="48.22792" lon="-3.17827">
        <ele>130.80000305176</ele>
        <time>2020-10-19T12:09:54.000Z</time>
      </trkpt>
      <trkpt lat="48.22792" lon="-3.17826">
        <ele>130.80000305176</ele>
        <time>2020-10-19T12:09:55.000Z</time>
      </trkpt>
      <trkpt lat="48.22792" lon="-3.17826">
        <ele>130.80000305176</ele>
        <time>2020-10-19T12:09:56.000Z</time>
      </trkpt>
      <trkpt lat="48.22793" lon="-3.17826">
        <ele>130.80000305176</ele>
        <time>2020-10-19T12:09:57.000Z</time>
      </trkpt>
      <trkpt lat="48.22793" lon="-3.17825">
        <ele>130.80000305176</ele>
        <time>2020-10-19T12:09:58.000Z</time>
      </trkpt>
      <trkpt lat="48.22794" lon="-3.17824">
        <ele>130.80000305176</ele>
        <time>2020-10-19T12:09:59.000Z</time>
      </trkpt>
      <trkpt lat="48.22795" lon="-3.17823">
        <ele>130.80000305176</ele>
        <time>2020-10-19T12:10:00.000Z</time>
      </trkpt>
      <trkpt lat="48.22795" lon="-3.17823">
        <ele>130.80000305176</ele>
        <time>2020-10-19T12:10:01.000Z</time>
      </trkpt>
      <trkpt lat="48.22796" lon="-3.17822">
        <ele>130.80000305176</ele>
        <time>2020-10-19T12:10:02.000Z</time>
      </trkpt>
      <trkpt lat="48.22797" lon="-3.17822">
        <ele>130.80000305176</ele>
        <time>2020-10-19T12:10:03.000Z</time>
      </trkpt>
      <trkpt lat="48.22798" lon="-3.17823">
        <ele>130.80000305176</ele>
        <time>2020-10-19T12:10:04.000Z</time>
      </trkpt>
      <trkpt lat="48.22799" lon="-3.17823">
        <ele>130.80000305176</ele>
        <time>2020-10-19T12:10:05.000Z</time>
      </trkpt>
      <trkpt lat="48.228" lon="-3.17823">
        <ele>130.80000305176</ele>
        <time>2020-10-19T12:10:06.000Z</time>
      </trkpt>
      <trkpt lat="48.22801" lon="-3.17823">
        <ele>130.80000305176</ele>
        <time>2020-10-19T12:10:07.000Z</time>
      </trkpt>
      <trkpt lat="48.22802" lon="-3.17823">
        <ele>130.80000305176</ele>
        <time>2020-10-19T12:10:08.000Z</time>
      </trkpt>
      <trkpt lat="48.22803" lon="-3.17823">
        <ele>130.80000305176</ele>
        <time>2020-10-19T12:10:09.000Z</time>
      </trkpt>
      <trkpt lat="48.22804" lon="-3.17823">
        <ele>130.80000305176</ele>
        <time>2020-10-19T12:10:10.000Z</time>
      </trkpt>
      <trkpt lat="48.22806" lon="-3.17823">
        <ele>130.80000305176</ele>
        <time>2020-10-19T12:10:11.000Z</time>
      </trkpt>
      <trkpt lat="48.22806" lon="-3.17823">
        <ele>130.80000305176</ele>
        <time>2020-10-19T12:10:12.000Z</time>
      </trkpt>
      <trkpt lat="48.22807" lon="-3.17823">
        <ele>130.80000305176</ele>
        <time>2020-10-19T12:10:13.000Z</time>
      </trkpt>
      <trkpt lat="48.22808" lon="-3.17823">
        <ele>130.80000305176</ele>
        <time>2020-10-19T12:10:14.000Z</time>
      </trkpt>
      <trkpt lat="48.22809" lon="-3.17823">
        <ele>130.80000305176</ele>
        <time>2020-10-19T12:10:15.000Z</time>
      </trkpt>
      <trkpt lat="48.2281" lon="-3.17822">
        <ele>130.80000305176</ele>
        <time>2020-10-19T12:10:16.000Z</time>
      </trkpt>
      <trkpt lat="48.2281" lon="-3.17821">
        <ele>130.80000305176</ele>
        <time>2020-10-19T12:10:17.000Z</time>
      </trkpt>
      <trkpt lat="48.22811" lon="-3.1782">
        <ele>130.80000305176</ele>
        <time>2020-10-19T12:10:18.000Z</time>
      </trkpt>
      <trkpt lat="48.22812" lon="-3.1782">
        <ele>130.80000305176</ele>
        <time>2020-10-19T12:10:19.000Z</time>
      </trkpt>
      <trkpt lat="48.22813" lon="-3.17819">
        <ele>130.60000610352</ele>
        <time>2020-10-19T12:10:20.000Z</time>
      </trkpt>
      <trkpt lat="48.22813" lon="-3.17817">
        <ele>130.60000610352</ele>
        <time>2020-10-19T12:10:21.000Z</time>
      </trkpt>
      <trkpt lat="48.22814" lon="-3.17816">
        <ele>130.60000610352</ele>
        <time>2020-10-19T12:10:22.000Z</time>
      </trkpt>
      <trkpt lat="48.22815" lon="-3.17815">
        <ele>130.60000610352</ele>
        <time>2020-10-19T12:10:23.000Z</time>
      </trkpt>
      <trkpt lat="48.22815" lon="-3.17813">
        <ele>130.60000610352</ele>
        <time>2020-10-19T12:10:24.000Z</time>
      </trkpt>
      <trkpt lat="48.22815" lon="-3.17812">
        <ele>130.60000610352</ele>
        <time>2020-10-19T12:10:25.000Z</time>
      </trkpt>
      <trkpt lat="48.22816" lon="-3.17811">
        <ele>130.60000610352</ele>
        <time>2020-10-19T12:10:26.000Z</time>
      </trkpt>
      <trkpt lat="48.22816" lon="-3.17811">
        <ele>130.60000610352</ele>
        <time>2020-10-19T12:10:27.000Z</time>
      </trkpt>
      <trkpt lat="48.22817" lon="-3.1781">
        <ele>130.60000610352</ele>
        <time>2020-10-19T12:10:28.000Z</time>
      </trkpt>
      <trkpt lat="48.22817" lon="-3.1781">
        <ele>130.60000610352</ele>
        <time>2020-10-19T12:10:29.000Z</time>
      </trkpt>
      <trkpt lat="48.22817" lon="-3.17809">
        <ele>130.60000610352</ele>
        <time>2020-10-19T12:10:30.000Z</time>
      </trkpt>
      <trkpt lat="48.22817" lon="-3.17808">
        <ele>130.60000610352</ele>
        <time>2020-10-19T12:10:31.000Z</time>
      </trkpt>
      <trkpt lat="48.22816" lon="-3.17808">
        <ele>130.60000610352</ele>
        <time>2020-10-19T12:10:32.000Z</time>
      </trkpt>
      <trkpt lat="48.22816" lon="-3.17807">
        <ele>130.60000610352</ele>
        <time>2020-10-19T12:10:33.000Z</time>
      </trkpt>
      <trkpt lat="48.22815" lon="-3.17806">
        <ele>130.60000610352</ele>
        <time>2020-10-19T12:10:34.000Z</time>
      </trkpt>
      <trkpt lat="48.22815" lon="-3.17805">
        <ele>130.60000610352</ele>
        <time>2020-10-19T12:10:35.000Z</time>
      </trkpt>
      <trkpt lat="48.22814" lon="-3.17804">
        <ele>130.60000610352</ele>
        <time>2020-10-19T12:10:36.000Z</time>
      </trkpt>
      <trkpt lat="48.22814" lon="-3.17803">
        <ele>130.60000610352</ele>
        <time>2020-10-19T12:10:37.000Z</time>
      </trkpt>
      <trkpt lat="48.22813" lon="-3.17803">
        <ele>130.39999389648</ele>
        <time>2020-10-19T12:10:38.000Z</time>
      </trkpt>
      <trkpt lat="48.22812" lon="-3.17803">
        <ele>130.39999389648</ele>
        <time>2020-10-19T12:10:39.000Z</time>
      </trkpt>
      <trkpt lat="48.22812" lon="-3.17803">
        <ele>130.60000610352</ele>
        <time>2020-10-19T12:10:40.000Z</time>
      </trkpt>
      <trkpt lat="48.22812" lon="-3.17803">
        <ele>130.60000610352</ele>
        <time>2020-10-19T12:10:41.000Z</time>
      </trkpt>
      <trkpt lat="48.22812" lon="-3.17803">
        <ele>130.60000610352</ele>
        <time>2020-10-19T12:10:42.000Z</time>
      </trkpt>
      <trkpt lat="48.22812" lon="-3.17803">
        <ele>130.60000610352</ele>
        <time>2020-10-19T12:10:43.000Z</time>
      </trkpt>
      <trkpt lat="48.22811" lon="-3.17803">
        <ele>130.60000610352</ele>
        <time>2020-10-19T12:10:44.000Z</time>
      </trkpt>
      <trkpt lat="48.22811" lon="-3.17803">
        <ele>130.60000610352</ele>
        <time>2020-10-19T12:10:45.000Z</time>
      </trkpt>
      <trkpt lat="48.22811" lon="-3.17803">
        <ele>130.60000610352</ele>
        <time>2020-10-19T12:10:46.000Z</time>
      </trkpt>
      <trkpt lat="48.22811" lon="-3.17803">
        <ele>130.60000610352</ele>
        <time>2020-10-19T12:10:47.000Z</time>
      </trkpt>
      <trkpt lat="48.22811" lon="-3.17803">
        <ele>130.60000610352</ele>
        <time>2020-10-19T12:10:48.000Z</time>
      </trkpt>
      <trkpt lat="48.22811" lon="-3.17803">
        <ele>130.60000610352</ele>
        <time>2020-10-19T12:10:49.000Z</time>
      </trkpt>
      <trkpt lat="48.2281" lon="-3.17803">
        <ele>130.60000610352</ele>
        <time>2020-10-19T12:10:50.000Z</time>
      </trkpt>
      <trkpt lat="48.2281" lon="-3.17803">
        <ele>130.60000610352</ele>
        <time>2020-10-19T12:10:51.000Z</time>
      </trkpt>
      <trkpt lat="48.2281" lon="-3.17803">
        <ele>130.60000610352</ele>
        <time>2020-10-19T12:10:52.000Z</time>
      </trkpt>
      <trkpt lat="48.2281" lon="-3.17803">
        <ele>130.60000610352</ele>
        <time>2020-10-19T12:10:53.000Z</time>
      </trkpt>
      <trkpt lat="48.2281" lon="-3.17803">
        <ele>130.60000610352</ele>
        <time>2020-10-19T12:10:54.000Z</time>
      </trkpt>
      <trkpt lat="48.2281" lon="-3.17803">
        <ele>130.39999389648</ele>
        <time>2020-10-19T12:10:55.000Z</time>
      </trkpt>
      <trkpt lat="48.22811" lon="-3.17803">
        <ele>130.39999389648</ele>
        <time>2020-10-19T12:10:56.000Z</time>
      </trkpt>
      <trkpt lat="48.2281" lon="-3.17802">
        <ele>130.39999389648</ele>
        <time>2020-10-19T12:10:57.000Z</time>
      </trkpt>
      <trkpt lat="48.2281" lon="-3.17801">
        <ele>130.39999389648</ele>
        <time>2020-10-19T12:10:58.000Z</time>
      </trkpt>
      <trkpt lat="48.2281" lon="-3.17801">
        <ele>130.39999389648</ele>
        <time>2020-10-19T12:10:59.000Z</time>
      </trkpt>
      <trkpt lat="48.2281" lon="-3.178">
        <ele>130.39999389648</ele>
        <time>2020-10-19T12:11:00.000Z</time>
      </trkpt>
      <trkpt lat="48.22809" lon="-3.17799">
        <ele>130.39999389648</ele>
        <time>2020-10-19T12:11:01.000Z</time>
      </trkpt>
      <trkpt lat="48.22809" lon="-3.17798">
        <ele>130.39999389648</ele>
        <time>2020-10-19T12:11:02.000Z</time>
      </trkpt>
      <trkpt lat="48.22808" lon="-3.17798">
        <ele>130.39999389648</ele>
        <time>2020-10-19T12:11:03.000Z</time>
      </trkpt>
      <trkpt lat="48.22808" lon="-3.17797">
        <ele>130.39999389648</ele>
        <time>2020-10-19T12:11:04.000Z</time>
      </trkpt>
      <trkpt lat="48.22808" lon="-3.17796">
        <ele>130.39999389648</ele>
        <time>2020-10-19T12:11:05.000Z</time>
      </trkpt>
      <trkpt lat="48.22807" lon="-3.17795">
        <ele>130.60000610352</ele>
        <time>2020-10-19T12:11:06.000Z</time>
      </trkpt>
      <trkpt lat="48.22807" lon="-3.17794">
        <ele>130.60000610352</ele>
        <time>2020-10-19T12:11:07.000Z</time>
      </trkpt>
      <trkpt lat="48.22806" lon="-3.17793">
        <ele>130.60000610352</ele>
        <time>2020-10-19T12:11:08.000Z</time>
      </trkpt>
      <trkpt lat="48.22806" lon="-3.17792">
        <ele>130.60000610352</ele>
        <time>2020-10-19T12:11:09.000Z</time>
      </trkpt>
      <trkpt lat="48.22806" lon="-3.1779">
        <ele>130.60000610352</ele>
        <time>2020-10-19T12:11:10.000Z</time>
      </trkpt>
      <trkpt lat="48.22805" lon="-3.17789">
        <ele>130.60000610352</ele>
        <time>2020-10-19T12:11:11.000Z</time>
      </trkpt>
      <trkpt lat="48.22805" lon="-3.17788">
        <ele>130.60000610352</ele>
        <time>2020-10-19T12:11:12.000Z</time>
      </trkpt>
      <trkpt lat="48.22804" lon="-3.17787">
        <ele>130.60000610352</ele>
        <time>2020-10-19T12:11:13.000Z</time>
      </trkpt>
      <trkpt lat="48.22803" lon="-3.17786">
        <ele>130.80000305176</ele>
        <time>2020-10-19T12:11:14.000Z</time>
      </trkpt>
      <trkpt lat="48.22803" lon="-3.17785">
        <ele>130.80000305176</ele>
        <time>2020-10-19T12:11:15.000Z</time>
      </trkpt>
      <trkpt lat="48.22802" lon="-3.17785">
        <ele>130.80000305176</ele>
        <time>2020-10-19T12:11:16.000Z</time>
      </trkpt>
      <trkpt lat="48.22802" lon="-3.17785">
        <ele>130.80000305176</ele>
        <time>2020-10-19T12:11:17.000Z</time>
      </trkpt>
      <trkpt lat="48.22802" lon="-3.17784">
        <ele>130.80000305176</ele>
        <time>2020-10-19T12:11:18.000Z</time>
      </trkpt>
      <trkpt lat="48.22801" lon="-3.17783">
        <ele>130.80000305176</ele>
        <time>2020-10-19T12:11:19.000Z</time>
      </trkpt>
      <trkpt lat="48.22801" lon="-3.17783">
        <ele>130.80000305176</ele>
        <time>2020-10-19T12:11:20.000Z</time>
      </trkpt>
      <trkpt lat="48.228" lon="-3.17782">
        <ele>130.80000305176</ele>
        <time>2020-10-19T12:11:21.000Z</time>
      </trkpt>
      <trkpt lat="48.22799" lon="-3.17781">
        <ele>130.80000305176</ele>
        <time>2020-10-19T12:11:22.000Z</time>
      </trkpt>
      <trkpt lat="48.22798" lon="-3.17779">
        <ele>131</ele>
        <time>2020-10-19T12:11:23.000Z</time>
      </trkpt>
      <trkpt lat="48.22797" lon="-3.17778">
        <ele>131</ele>
        <time>2020-10-19T12:11:24.000Z</time>
      </trkpt>
      <trkpt lat="48.22796" lon="-3.17777">
        <ele>131</ele>
        <time>2020-10-19T12:11:25.000Z</time>
      </trkpt>
      <trkpt lat="48.22796" lon="-3.17776">
        <ele>131</ele>
        <time>2020-10-19T12:11:26.000Z</time>
      </trkpt>
      <trkpt lat="48.22795" lon="-3.17775">
        <ele>131</ele>
        <time>2020-10-19T12:11:27.000Z</time>
      </trkpt>
      <trkpt lat="48.22794" lon="-3.17774">
        <ele>131</ele>
        <time>2020-10-19T12:11:28.000Z</time>
      </trkpt>
      <trkpt lat="48.22793" lon="-3.17772">
        <ele>131.19999694824</ele>
        <time>2020-10-19T12:11:29.000Z</time>
      </trkpt>
      <trkpt lat="48.22792" lon="-3.17771">
        <ele>131.19999694824</ele>
        <time>2020-10-19T12:11:30.000Z</time>
      </trkpt>
      <trkpt lat="48.22792" lon="-3.1777">
        <ele>131.19999694824</ele>
        <time>2020-10-19T12:11:31.000Z</time>
      </trkpt>
      <trkpt lat="48.22791" lon="-3.17768">
        <ele>131.19999694824</ele>
        <time>2020-10-19T12:11:32.000Z</time>
      </trkpt>
      <trkpt lat="48.2279" lon="-3.17767">
        <ele>131.19999694824</ele>
        <time>2020-10-19T12:11:33.000Z</time>
      </trkpt>
      <trkpt lat="48.2279" lon="-3.17766">
        <ele>131.19999694824</ele>
        <time>2020-10-19T12:11:34.000Z</time>
      </trkpt>
      <trkpt lat="48.22789" lon="-3.17765">
        <ele>131.39999389648</ele>
        <time>2020-10-19T12:11:35.000Z</time>
      </trkpt>
      <trkpt lat="48.22788" lon="-3.17764">
        <ele>131.39999389648</ele>
        <time>2020-10-19T12:11:36.000Z</time>
      </trkpt>
      <trkpt lat="48.22787" lon="-3.17763">
        <ele>131.39999389648</ele>
        <time>2020-10-19T12:11:37.000Z</time>
      </trkpt>
      <trkpt lat="48.22786" lon="-3.1776">
        <ele>131.39999389648</ele>
        <time>2020-10-19T12:11:38.000Z</time>
      </trkpt>
      <trkpt lat="48.22786" lon="-3.1776">
        <ele>131.39999389648</ele>
        <time>2020-10-19T12:11:39.000Z</time>
      </trkpt>
      <trkpt lat="48.22785" lon="-3.17759">
        <ele>131.60000610352</ele>
        <time>2020-10-19T12:11:40.000Z</time>
      </trkpt>
      <trkpt lat="48.22784" lon="-3.17758">
        <ele>131.60000610352</ele>
        <time>2020-10-19T12:11:41.000Z</time>
      </trkpt>
      <trkpt lat="48.22783" lon="-3.17757">
        <ele>131.60000610352</ele>
        <time>2020-10-19T12:11:42.000Z</time>
      </trkpt>
      <trkpt lat="48.22782" lon="-3.17756">
        <ele>131.80000305176</ele>
        <time>2020-10-19T12:11:43.000Z</time>
      </trkpt>
      <trkpt lat="48.22781" lon="-3.17755">
        <ele>131.80000305176</ele>
        <time>2020-10-19T12:11:44.000Z</time>
      </trkpt>
      <trkpt lat="48.22781" lon="-3.17754">
        <ele>131.80000305176</ele>
        <time>2020-10-19T12:11:45.000Z</time>
      </trkpt>
      <trkpt lat="48.2278" lon="-3.17753">
        <ele>131.80000305176</ele>
        <time>2020-10-19T12:11:46.000Z</time>
      </trkpt>
      <trkpt lat="48.22779" lon="-3.17752">
        <ele>132</ele>
        <time>2020-10-19T12:11:47.000Z</time>
      </trkpt>
      <trkpt lat="48.22778" lon="-3.17751">
        <ele>132</ele>
        <time>2020-10-19T12:11:48.000Z</time>
      </trkpt>
      <trkpt lat="48.22778" lon="-3.17749">
        <ele>132</ele>
        <time>2020-10-19T12:11:49.000Z</time>
      </trkpt>
      <trkpt lat="48.22777" lon="-3.17748">
        <ele>132.19999694824</ele>
        <time>2020-10-19T12:11:50.000Z</time>
      </trkpt>
      <trkpt lat="48.22776" lon="-3.17747">
        <ele>132.19999694824</ele>
        <time>2020-10-19T12:11:51.000Z</time>
      </trkpt>
      <trkpt lat="48.22776" lon="-3.17746">
        <ele>132.19999694824</ele>
        <time>2020-10-19T12:11:52.000Z</time>
      </trkpt>
      <trkpt lat="48.22775" lon="-3.17745">
        <ele>132.19999694824</ele>
        <time>2020-10-19T12:11:53.000Z</time>
      </trkpt>
      <trkpt lat="48.22775" lon="-3.17743">
        <ele>132.19999694824</ele>
        <time>2020-10-19T12:11:54.000Z</time>
      </trkpt>
      <trkpt lat="48.22774" lon="-3.17742">
        <ele>132.19999694824</ele>
        <time>2020-10-19T12:11:55.000Z</time>
      </trkpt>
      <trkpt lat="48.22773" lon="-3.17741">
        <ele>132.19999694824</ele>
        <time>2020-10-19T12:11:56.000Z</time>
      </trkpt>
      <trkpt lat="48.22772" lon="-3.1774">
        <ele>132.19999694824</ele>
        <time>2020-10-19T12:11:57.000Z</time>
      </trkpt>
      <trkpt lat="48.22771" lon="-3.17739">
        <ele>132.19999694824</ele>
        <time>2020-10-19T12:11:58.000Z</time>
      </trkpt>
      <trkpt lat="48.2277" lon="-3.17739">
        <ele>132.19999694824</ele>
        <time>2020-10-19T12:11:59.000Z</time>
      </trkpt>
      <trkpt lat="48.22769" lon="-3.17738">
        <ele>132.19999694824</ele>
        <time>2020-10-19T12:12:00.000Z</time>
      </trkpt>
      <trkpt lat="48.22769" lon="-3.17736">
        <ele>132.19999694824</ele>
        <time>2020-10-19T12:12:01.000Z</time>
      </trkpt>
      <trkpt lat="48.22768" lon="-3.17735">
        <ele>132.39999389648</ele>
        <time>2020-10-19T12:12:02.000Z</time>
      </trkpt>
      <trkpt lat="48.22767" lon="-3.17735">
        <ele>132.39999389648</ele>
        <time>2020-10-19T12:12:03.000Z</time>
      </trkpt>
      <trkpt lat="48.22766" lon="-3.17734">
        <ele>132.39999389648</ele>
        <time>2020-10-19T12:12:04.000Z</time>
      </trkpt>
      <trkpt lat="48.22765" lon="-3.17733">
        <ele>132.39999389648</ele>
        <time>2020-10-19T12:12:05.000Z</time>
      </trkpt>
      <trkpt lat="48.22763" lon="-3.17732">
        <ele>132.39999389648</ele>
        <time>2020-10-19T12:12:06.000Z</time>
      </trkpt>
      <trkpt lat="48.22762" lon="-3.17731">
        <ele>132.39999389648</ele>
        <time>2020-10-19T12:12:07.000Z</time>
      </trkpt>
      <trkpt lat="48.22762" lon="-3.1773">
        <ele>132.39999389648</ele>
        <time>2020-10-19T12:12:08.000Z</time>
      </trkpt>
      <trkpt lat="48.22761" lon="-3.17729">
        <ele>132.39999389648</ele>
        <time>2020-10-19T12:12:09.000Z</time>
      </trkpt>
      <trkpt lat="48.2276" lon="-3.17727">
        <ele>132.39999389648</ele>
        <time>2020-10-19T12:12:10.000Z</time>
      </trkpt>
      <trkpt lat="48.22759" lon="-3.17726">
        <ele>132.39999389648</ele>
        <time>2020-10-19T12:12:11.000Z</time>
      </trkpt>
      <trkpt lat="48.22758" lon="-3.17724">
        <ele>132.39999389648</ele>
        <time>2020-10-19T12:12:12.000Z</time>
      </trkpt>
      <trkpt lat="48.22757" lon="-3.17723">
        <ele>132.39999389648</ele>
        <time>2020-10-19T12:12:13.000Z</time>
      </trkpt>
      <trkpt lat="48.22756" lon="-3.17722">
        <ele>132.39999389648</ele>
        <time>2020-10-19T12:12:14.000Z</time>
      </trkpt>
      <trkpt lat="48.22755" lon="-3.17721">
        <ele>132.39999389648</ele>
        <time>2020-10-19T12:12:15.000Z</time>
      </trkpt>
      <trkpt lat="48.22754" lon="-3.1772">
        <ele>132.39999389648</ele>
        <time>2020-10-19T12:12:16.000Z</time>
      </trkpt>
      <trkpt lat="48.22753" lon="-3.17719">
        <ele>132.39999389648</ele>
        <time>2020-10-19T12:12:17.000Z</time>
      </trkpt>
      <trkpt lat="48.22752" lon="-3.17718">
        <ele>132.39999389648</ele>
        <time>2020-10-19T12:12:18.000Z</time>
      </trkpt>
      <trkpt lat="48.22751" lon="-3.17717">
        <ele>132.39999389648</ele>
        <time>2020-10-19T12:12:19.000Z</time>
      </trkpt>
      <trkpt lat="48.22751" lon="-3.17716">
        <ele>132.39999389648</ele>
        <time>2020-10-19T12:12:20.000Z</time>
      </trkpt>
      <trkpt lat="48.2275" lon="-3.17714">
        <ele>132.39999389648</ele>
        <time>2020-10-19T12:12:21.000Z</time>
      </trkpt>
      <trkpt lat="48.2275" lon="-3.17713">
        <ele>132.39999389648</ele>
        <time>2020-10-19T12:12:22.000Z</time>
      </trkpt>
      <trkpt lat="48.22749" lon="-3.17712">
        <ele>132.39999389648</ele>
        <time>2020-10-19T12:12:23.000Z</time>
      </trkpt>
      <trkpt lat="48.22748" lon="-3.17711">
        <ele>132.39999389648</ele>
        <time>2020-10-19T12:12:24.000Z</time>
      </trkpt>
      <trkpt lat="48.22748" lon="-3.17711">
        <ele>132.39999389648</ele>
        <time>2020-10-19T12:12:25.000Z</time>
      </trkpt>
      <trkpt lat="48.22747" lon="-3.1771">
        <ele>132.39999389648</ele>
        <time>2020-10-19T12:12:26.000Z</time>
      </trkpt>
      <trkpt lat="48.22746" lon="-3.17708">
        <ele>132.39999389648</ele>
        <time>2020-10-19T12:12:27.000Z</time>
      </trkpt>
      <trkpt lat="48.22746" lon="-3.17708">
        <ele>132.39999389648</ele>
        <time>2020-10-19T12:12:28.000Z</time>
      </trkpt>
      <trkpt lat="48.22745" lon="-3.17707">
        <ele>132.39999389648</ele>
        <time>2020-10-19T12:12:29.000Z</time>
      </trkpt>
      <trkpt lat="48.22745" lon="-3.17706">
        <ele>132.39999389648</ele>
        <time>2020-10-19T12:12:30.000Z</time>
      </trkpt>
      <trkpt lat="48.22744" lon="-3.17705">
        <ele>132.39999389648</ele>
        <time>2020-10-19T12:12:31.000Z</time>
      </trkpt>
      <trkpt lat="48.22744" lon="-3.17705">
        <ele>132.39999389648</ele>
        <time>2020-10-19T12:12:32.000Z</time>
      </trkpt>
      <trkpt lat="48.22744" lon="-3.17704">
        <ele>132.39999389648</ele>
        <time>2020-10-19T12:12:33.000Z</time>
      </trkpt>
      <trkpt lat="48.22743" lon="-3.17703">
        <ele>132.39999389648</ele>
        <time>2020-10-19T12:12:34.000Z</time>
      </trkpt>
      <trkpt lat="48.22742" lon="-3.17703">
        <ele>132.39999389648</ele>
        <time>2020-10-19T12:12:35.000Z</time>
      </trkpt>
      <trkpt lat="48.22742" lon="-3.17703">
        <ele>132.39999389648</ele>
        <time>2020-10-19T12:12:36.000Z</time>
      </trkpt>
      <trkpt lat="48.22742" lon="-3.17703">
        <ele>132.39999389648</ele>
        <time>2020-10-19T12:12:37.000Z</time>
      </trkpt>
      <trkpt lat="48.22741" lon="-3.17702">
        <ele>132.39999389648</ele>
        <time>2020-10-19T12:12:38.000Z</time>
      </trkpt>
      <trkpt lat="48.22741" lon="-3.17702">
        <ele>132.39999389648</ele>
        <time>2020-10-19T12:12:39.000Z</time>
      </trkpt>
      <trkpt lat="48.22741" lon="-3.17702">
        <ele>132.39999389648</ele>
        <time>2020-10-19T12:12:40.000Z</time>
      </trkpt>
      <trkpt lat="48.2274" lon="-3.17701">
        <ele>132.39999389648</ele>
        <time>2020-10-19T12:12:41.000Z</time>
      </trkpt>
      <trkpt lat="48.2274" lon="-3.17701">
        <ele>132.39999389648</ele>
        <time>2020-10-19T12:12:42.000Z</time>
      </trkpt>
      <trkpt lat="48.22739" lon="-3.177">
        <ele>132.39999389648</ele>
        <time>2020-10-19T12:12:43.000Z</time>
      </trkpt>
      <trkpt lat="48.22739" lon="-3.17699">
        <ele>132.39999389648</ele>
        <time>2020-10-19T12:12:44.000Z</time>
      </trkpt>
      <trkpt lat="48.22737" lon="-3.17698">
        <ele>132.39999389648</ele>
        <time>2020-10-19T12:12:45.000Z</time>
      </trkpt>
      <trkpt lat="48.22737" lon="-3.17697">
        <ele>132.39999389648</ele>
        <time>2020-10-19T12:12:46.000Z</time>
      </trkpt>
      <trkpt lat="48.22735" lon="-3.17696">
        <ele>132.39999389648</ele>
        <time>2020-10-19T12:12:47.000Z</time>
      </trkpt>
      <trkpt lat="48.22735" lon="-3.17695">
        <ele>132.39999389648</ele>
        <time>2020-10-19T12:12:48.000Z</time>
      </trkpt>
      <trkpt lat="48.22734" lon="-3.17694">
        <ele>132.39999389648</ele>
        <time>2020-10-19T12:12:49.000Z</time>
      </trkpt>
      <trkpt lat="48.22733" lon="-3.17693">
        <ele>132.39999389648</ele>
        <time>2020-10-19T12:12:50.000Z</time>
      </trkpt>
      <trkpt lat="48.22732" lon="-3.17691">
        <ele>132.39999389648</ele>
        <time>2020-10-19T12:12:51.000Z</time>
      </trkpt>
      <trkpt lat="48.22731" lon="-3.1769">
        <ele>132.39999389648</ele>
        <time>2020-10-19T12:12:52.000Z</time>
      </trkpt>
      <trkpt lat="48.2273" lon="-3.17689">
        <ele>132.39999389648</ele>
        <time>2020-10-19T12:12:53.000Z</time>
      </trkpt>
      <trkpt lat="48.22729" lon="-3.17688">
        <ele>132.39999389648</ele>
        <time>2020-10-19T12:12:54.000Z</time>
      </trkpt>
      <trkpt lat="48.22729" lon="-3.17687">
        <ele>132.39999389648</ele>
        <time>2020-10-19T12:12:55.000Z</time>
      </trkpt>
      <trkpt lat="48.22728" lon="-3.17686">
        <ele>132.39999389648</ele>
        <time>2020-10-19T12:12:56.000Z</time>
      </trkpt>
      <trkpt lat="48.22728" lon="-3.17685">
        <ele>132.60000610352</ele>
        <time>2020-10-19T12:12:57.000Z</time>
      </trkpt>
      <trkpt lat="48.22727" lon="-3.17684">
        <ele>132.60000610352</ele>
        <time>2020-10-19T12:12:58.000Z</time>
      </trkpt>
      <trkpt lat="48.22727" lon="-3.17682">
        <ele>132.60000610352</ele>
        <time>2020-10-19T12:12:59.000Z</time>
      </trkpt>
      <trkpt lat="48.22726" lon="-3.17681">
        <ele>132.60000610352</ele>
        <time>2020-10-19T12:13:00.000Z</time>
      </trkpt>
      <trkpt lat="48.22725" lon="-3.17679">
        <ele>132.60000610352</ele>
        <time>2020-10-19T12:13:01.000Z</time>
      </trkpt>
      <trkpt lat="48.22725" lon="-3.17678">
        <ele>132.60000610352</ele>
        <time>2020-10-19T12:13:02.000Z</time>
      </trkpt>
      <trkpt lat="48.22724" lon="-3.17676">
        <ele>132.60000610352</ele>
        <time>2020-10-19T12:13:03.000Z</time>
      </trkpt>
      <trkpt lat="48.22724" lon="-3.17675">
        <ele>132.60000610352</ele>
        <time>2020-10-19T12:13:04.000Z</time>
      </trkpt>
      <trkpt lat="48.22723" lon="-3.17673">
        <ele>132.60000610352</ele>
        <time>2020-10-19T12:13:05.000Z</time>
      </trkpt>
      <trkpt lat="48.22722" lon="-3.17672">
        <ele>132.80000305176</ele>
        <time>2020-10-19T12:13:06.000Z</time>
      </trkpt>
      <trkpt lat="48.22721" lon="-3.1767">
        <ele>132.80000305176</ele>
        <time>2020-10-19T12:13:07.000Z</time>
      </trkpt>
      <trkpt lat="48.2272" lon="-3.17668">
        <ele>132.80000305176</ele>
        <time>2020-10-19T12:13:08.000Z</time>
      </trkpt>
      <trkpt lat="48.22719" lon="-3.17667">
        <ele>132.80000305176</ele>
        <time>2020-10-19T12:13:09.000Z</time>
      </trkpt>
      <trkpt lat="48.22719" lon="-3.17665">
        <ele>133</ele>
        <time>2020-10-19T12:13:10.000Z</time>
      </trkpt>
      <trkpt lat="48.22718" lon="-3.17664">
        <ele>133</ele>
        <time>2020-10-19T12:13:11.000Z</time>
      </trkpt>
      <trkpt lat="48.22718" lon="-3.17663">
        <ele>133</ele>
        <time>2020-10-19T12:13:12.000Z</time>
      </trkpt>
      <trkpt lat="48.22718" lon="-3.17662">
        <ele>133</ele>
        <time>2020-10-19T12:13:13.000Z</time>
      </trkpt>
      <trkpt lat="48.22717" lon="-3.1766">
        <ele>133</ele>
        <time>2020-10-19T12:13:14.000Z</time>
      </trkpt>
      <trkpt lat="48.22717" lon="-3.17658">
        <ele>133.19999694824</ele>
        <time>2020-10-19T12:13:15.000Z</time>
      </trkpt>
      <trkpt lat="48.22717" lon="-3.17657">
        <ele>133.19999694824</ele>
        <time>2020-10-19T12:13:16.000Z</time>
      </trkpt>
      <trkpt lat="48.22716" lon="-3.17655">
        <ele>133.19999694824</ele>
        <time>2020-10-19T12:13:17.000Z</time>
      </trkpt>
      <trkpt lat="48.22716" lon="-3.17654">
        <ele>133.39999389648</ele>
        <time>2020-10-19T12:13:18.000Z</time>
      </trkpt>
      <trkpt lat="48.22716" lon="-3.17652">
        <ele>133.39999389648</ele>
        <time>2020-10-19T12:13:19.000Z</time>
      </trkpt>
      <trkpt lat="48.22715" lon="-3.17651">
        <ele>133.39999389648</ele>
        <time>2020-10-19T12:13:20.000Z</time>
      </trkpt>
      <trkpt lat="48.22715" lon="-3.17649">
        <ele>133.39999389648</ele>
        <time>2020-10-19T12:13:21.000Z</time>
      </trkpt>
      <trkpt lat="48.22715" lon="-3.17648">
        <ele>133.60000610352</ele>
        <time>2020-10-19T12:13:22.000Z</time>
      </trkpt>
      <trkpt lat="48.22715" lon="-3.17646">
        <ele>133.60000610352</ele>
        <time>2020-10-19T12:13:23.000Z</time>
      </trkpt>
      <trkpt lat="48.22714" lon="-3.17644">
        <ele>133.60000610352</ele>
        <time>2020-10-19T12:13:24.000Z</time>
      </trkpt>
      <trkpt lat="48.22714" lon="-3.17643">
        <ele>133.60000610352</ele>
        <time>2020-10-19T12:13:25.000Z</time>
      </trkpt>
      <trkpt lat="48.22714" lon="-3.17641">
        <ele>133.60000610352</ele>
        <time>2020-10-19T12:13:26.000Z</time>
      </trkpt>
      <trkpt lat="48.22713" lon="-3.1764">
        <ele>133.60000610352</ele>
        <time>2020-10-19T12:13:27.000Z</time>
      </trkpt>
      <trkpt lat="48.22713" lon="-3.17638">
        <ele>133.60000610352</ele>
        <time>2020-10-19T12:13:28.000Z</time>
      </trkpt>
      <trkpt lat="48.22712" lon="-3.17637">
        <ele>133.60000610352</ele>
        <time>2020-10-19T12:13:29.000Z</time>
      </trkpt>
      <trkpt lat="48.22711" lon="-3.17635">
        <ele>133.60000610352</ele>
        <time>2020-10-19T12:13:30.000Z</time>
      </trkpt>
      <trkpt lat="48.2271" lon="-3.17634">
        <ele>133.39999389648</ele>
        <time>2020-10-19T12:13:31.000Z</time>
      </trkpt>
      <trkpt lat="48.22709" lon="-3.17632">
        <ele>133.39999389648</ele>
        <time>2020-10-19T12:13:32.000Z</time>
      </trkpt>
      <trkpt lat="48.22709" lon="-3.1763">
        <ele>133.39999389648</ele>
        <time>2020-10-19T12:13:33.000Z</time>
      </trkpt>
      <trkpt lat="48.22708" lon="-3.17629">
        <ele>133.39999389648</ele>
        <time>2020-10-19T12:13:34.000Z</time>
      </trkpt>
      <trkpt lat="48.22707" lon="-3.17628">
        <ele>133.39999389648</ele>
        <time>2020-10-19T12:13:35.000Z</time>
      </trkpt>
      <trkpt lat="48.22707" lon="-3.17626">
        <ele>133.39999389648</ele>
        <time>2020-10-19T12:13:36.000Z</time>
      </trkpt>
      <trkpt lat="48.22706" lon="-3.17625">
        <ele>133.39999389648</ele>
        <time>2020-10-19T12:13:37.000Z</time>
      </trkpt>
      <trkpt lat="48.22704" lon="-3.17622">
        <ele>133.19999694824</ele>
        <time>2020-10-19T12:13:38.000Z</time>
      </trkpt>
      <trkpt lat="48.22704" lon="-3.17622">
        <ele>133.19999694824</ele>
        <time>2020-10-19T12:13:39.000Z</time>
      </trkpt>
      <trkpt lat="48.22704" lon="-3.17621">
        <ele>133.19999694824</ele>
        <time>2020-10-19T12:13:40.000Z</time>
      </trkpt>
      <trkpt lat="48.22703" lon="-3.17619">
        <ele>133.19999694824</ele>
        <time>2020-10-19T12:13:41.000Z</time>
      </trkpt>
      <trkpt lat="48.22702" lon="-3.17618">
        <ele>133.19999694824</ele>
        <time>2020-10-19T12:13:42.000Z</time>
      </trkpt>
      <trkpt lat="48.22701" lon="-3.17616">
        <ele>133</ele>
        <time>2020-10-19T12:13:43.000Z</time>
      </trkpt>
      <trkpt lat="48.22701" lon="-3.17615">
        <ele>133</ele>
        <time>2020-10-19T12:13:44.000Z</time>
      </trkpt>
      <trkpt lat="48.227" lon="-3.17614">
        <ele>133</ele>
        <time>2020-10-19T12:13:45.000Z</time>
      </trkpt>
      <trkpt lat="48.22699" lon="-3.17613">
        <ele>133</ele>
        <time>2020-10-19T12:13:46.000Z</time>
      </trkpt>
      <trkpt lat="48.22698" lon="-3.17612">
        <ele>133</ele>
        <time>2020-10-19T12:13:47.000Z</time>
      </trkpt>
      <trkpt lat="48.22697" lon="-3.17611">
        <ele>132.80000305176</ele>
        <time>2020-10-19T12:13:48.000Z</time>
      </trkpt>
      <trkpt lat="48.22696" lon="-3.1761">
        <ele>132.80000305176</ele>
        <time>2020-10-19T12:13:49.000Z</time>
      </trkpt>
      <trkpt lat="48.22695" lon="-3.17609">
        <ele>132.80000305176</ele>
        <time>2020-10-19T12:13:50.000Z</time>
      </trkpt>
      <trkpt lat="48.22695" lon="-3.17608">
        <ele>132.80000305176</ele>
        <time>2020-10-19T12:13:51.000Z</time>
      </trkpt>
      <trkpt lat="48.22694" lon="-3.17606">
        <ele>132.80000305176</ele>
        <time>2020-10-19T12:13:52.000Z</time>
      </trkpt>
      <trkpt lat="48.22694" lon="-3.17606">
        <ele>132.80000305176</ele>
        <time>2020-10-19T12:13:53.000Z</time>
      </trkpt>
      <trkpt lat="48.22693" lon="-3.17605">
        <ele>132.60000610352</ele>
        <time>2020-10-19T12:13:54.000Z</time>
      </trkpt>
      <trkpt lat="48.22693" lon="-3.17603">
        <ele>132.60000610352</ele>
        <time>2020-10-19T12:13:55.000Z</time>
      </trkpt>
      <trkpt lat="48.22692" lon="-3.17601">
        <ele>132.60000610352</ele>
        <time>2020-10-19T12:13:56.000Z</time>
      </trkpt>
      <trkpt lat="48.22692" lon="-3.176">
        <ele>132.60000610352</ele>
        <time>2020-10-19T12:13:57.000Z</time>
      </trkpt>
      <trkpt lat="48.22691" lon="-3.17598">
        <ele>132.60000610352</ele>
        <time>2020-10-19T12:13:58.000Z</time>
      </trkpt>
      <trkpt lat="48.22691" lon="-3.17596">
        <ele>132.60000610352</ele>
        <time>2020-10-19T12:13:59.000Z</time>
      </trkpt>
      <trkpt lat="48.22691" lon="-3.17594">
        <ele>132.60000610352</ele>
        <time>2020-10-19T12:14:00.000Z</time>
      </trkpt>
      <trkpt lat="48.2269" lon="-3.17592">
        <ele>132.80000305176</ele>
        <time>2020-10-19T12:14:01.000Z</time>
      </trkpt>
      <trkpt lat="48.2269" lon="-3.17591">
        <ele>132.80000305176</ele>
        <time>2020-10-19T12:14:02.000Z</time>
      </trkpt>
      <trkpt lat="48.22689" lon="-3.17589">
        <ele>133</ele>
        <time>2020-10-19T12:14:03.000Z</time>
      </trkpt>
      <trkpt lat="48.22689" lon="-3.17587">
        <ele>133.19999694824</ele>
        <time>2020-10-19T12:14:04.000Z</time>
      </trkpt>
      <trkpt lat="48.22688" lon="-3.17585">
        <ele>133.39999389648</ele>
        <time>2020-10-19T12:14:05.000Z</time>
      </trkpt>
      <trkpt lat="48.22688" lon="-3.17583">
        <ele>133.39999389648</ele>
        <time>2020-10-19T12:14:06.000Z</time>
      </trkpt>
      <trkpt lat="48.22688" lon="-3.17581">
        <ele>133.39999389648</ele>
        <time>2020-10-19T12:14:07.000Z</time>
      </trkpt>
      <trkpt lat="48.22687" lon="-3.1758">
        <ele>133.60000610352</ele>
        <time>2020-10-19T12:14:08.000Z</time>
      </trkpt>
      <trkpt lat="48.22687" lon="-3.17579">
        <ele>133.60000610352</ele>
        <time>2020-10-19T12:14:09.000Z</time>
      </trkpt>
      <trkpt lat="48.22686" lon="-3.17577">
        <ele>133.60000610352</ele>
        <time>2020-10-19T12:14:10.000Z</time>
      </trkpt>
      <trkpt lat="48.22685" lon="-3.17576">
        <ele>133.60000610352</ele>
        <time>2020-10-19T12:14:11.000Z</time>
      </trkpt>
      <trkpt lat="48.22685" lon="-3.17574">
        <ele>133.60000610352</ele>
        <time>2020-10-19T12:14:12.000Z</time>
      </trkpt>
      <trkpt lat="48.22684" lon="-3.17572">
        <ele>133.60000610352</ele>
        <time>2020-10-19T12:14:13.000Z</time>
      </trkpt>
      <trkpt lat="48.22683" lon="-3.17571">
        <ele>133.60000610352</ele>
        <time>2020-10-19T12:14:14.000Z</time>
      </trkpt>
      <trkpt lat="48.22682" lon="-3.17569">
        <ele>133.60000610352</ele>
        <time>2020-10-19T12:14:15.000Z</time>
      </trkpt>
      <trkpt lat="48.22682" lon="-3.17568">
        <ele>133.60000610352</ele>
        <time>2020-10-19T12:14:16.000Z</time>
      </trkpt>
      <trkpt lat="48.22681" lon="-3.17567">
        <ele>133.60000610352</ele>
        <time>2020-10-19T12:14:17.000Z</time>
      </trkpt>
      <trkpt lat="48.2268" lon="-3.17565">
        <ele>133.60000610352</ele>
        <time>2020-10-19T12:14:18.000Z</time>
      </trkpt>
      <trkpt lat="48.22679" lon="-3.17564">
        <ele>133.39999389648</ele>
        <time>2020-10-19T12:14:19.000Z</time>
      </trkpt>
      <trkpt lat="48.22678" lon="-3.17563">
        <ele>133.60000610352</ele>
        <time>2020-10-19T12:14:20.000Z</time>
      </trkpt>
      <trkpt lat="48.22678" lon="-3.17562">
        <ele>133.60000610352</ele>
        <time>2020-10-19T12:14:21.000Z</time>
      </trkpt>
      <trkpt lat="48.22677" lon="-3.17561">
        <ele>133.60000610352</ele>
        <time>2020-10-19T12:14:22.000Z</time>
      </trkpt>
      <trkpt lat="48.22676" lon="-3.1756">
        <ele>133.60000610352</ele>
        <time>2020-10-19T12:14:23.000Z</time>
      </trkpt>
      <trkpt lat="48.22676" lon="-3.17559">
        <ele>133.60000610352</ele>
        <time>2020-10-19T12:14:24.000Z</time>
      </trkpt>
      <trkpt lat="48.22675" lon="-3.17558">
        <ele>133.80000305176</ele>
        <time>2020-10-19T12:14:25.000Z</time>
      </trkpt>
      <trkpt lat="48.22674" lon="-3.17557">
        <ele>133.80000305176</ele>
        <time>2020-10-19T12:14:26.000Z</time>
      </trkpt>
      <trkpt lat="48.22673" lon="-3.17556">
        <ele>133.80000305176</ele>
        <time>2020-10-19T12:14:27.000Z</time>
      </trkpt>
      <trkpt lat="48.22672" lon="-3.17555">
        <ele>133.80000305176</ele>
        <time>2020-10-19T12:14:28.000Z</time>
      </trkpt>
      <trkpt lat="48.22671" lon="-3.17554">
        <ele>133.80000305176</ele>
        <time>2020-10-19T12:14:29.000Z</time>
      </trkpt>
      <trkpt lat="48.2267" lon="-3.17553">
        <ele>134</ele>
        <time>2020-10-19T12:14:30.000Z</time>
      </trkpt>
      <trkpt lat="48.22669" lon="-3.17551">
        <ele>134</ele>
        <time>2020-10-19T12:14:31.000Z</time>
      </trkpt>
      <trkpt lat="48.22669" lon="-3.1755">
        <ele>134</ele>
        <time>2020-10-19T12:14:32.000Z</time>
      </trkpt>
      <trkpt lat="48.22668" lon="-3.17549">
        <ele>134</ele>
        <time>2020-10-19T12:14:33.000Z</time>
      </trkpt>
      <trkpt lat="48.22668" lon="-3.17548">
        <ele>134.19999694824</ele>
        <time>2020-10-19T12:14:34.000Z</time>
      </trkpt>
      <trkpt lat="48.22667" lon="-3.17546">
        <ele>134.19999694824</ele>
        <time>2020-10-19T12:14:35.000Z</time>
      </trkpt>
      <trkpt lat="48.22666" lon="-3.17545">
        <ele>134.19999694824</ele>
        <time>2020-10-19T12:14:36.000Z</time>
      </trkpt>
      <trkpt lat="48.22666" lon="-3.17544">
        <ele>134.19999694824</ele>
        <time>2020-10-19T12:14:37.000Z</time>
      </trkpt>
      <trkpt lat="48.22665" lon="-3.17543">
        <ele>134.39999389648</ele>
        <time>2020-10-19T12:14:38.000Z</time>
      </trkpt>
      <trkpt lat="48.22664" lon="-3.17542">
        <ele>134.39999389648</ele>
        <time>2020-10-19T12:14:39.000Z</time>
      </trkpt>
      <trkpt lat="48.22663" lon="-3.1754">
        <ele>134.39999389648</ele>
        <time>2020-10-19T12:14:40.000Z</time>
      </trkpt>
      <trkpt lat="48.22663" lon="-3.17539">
        <ele>134.39999389648</ele>
        <time>2020-10-19T12:14:41.000Z</time>
      </trkpt>
      <trkpt lat="48.22662" lon="-3.17538">
        <ele>134.60000610352</ele>
        <time>2020-10-19T12:14:42.000Z</time>
      </trkpt>
      <trkpt lat="48.22661" lon="-3.17536">
        <ele>134.60000610352</ele>
        <time>2020-10-19T12:14:43.000Z</time>
      </trkpt>
      <trkpt lat="48.2266" lon="-3.17535">
        <ele>134.60000610352</ele>
        <time>2020-10-19T12:14:44.000Z</time>
      </trkpt>
      <trkpt lat="48.2266" lon="-3.17534">
        <ele>134.60000610352</ele>
        <time>2020-10-19T12:14:45.000Z</time>
      </trkpt>
      <trkpt lat="48.22659" lon="-3.17533">
        <ele>134.80000305176</ele>
        <time>2020-10-19T12:14:46.000Z</time>
      </trkpt>
      <trkpt lat="48.22659" lon="-3.17532">
        <ele>134.80000305176</ele>
        <time>2020-10-19T12:14:47.000Z</time>
      </trkpt>
      <trkpt lat="48.22658" lon="-3.1753">
        <ele>134.80000305176</ele>
        <time>2020-10-19T12:14:48.000Z</time>
      </trkpt>
      <trkpt lat="48.22658" lon="-3.17529">
        <ele>134.80000305176</ele>
        <time>2020-10-19T12:14:49.000Z</time>
      </trkpt>
      <trkpt lat="48.22657" lon="-3.17528">
        <ele>134.80000305176</ele>
        <time>2020-10-19T12:14:50.000Z</time>
      </trkpt>
      <trkpt lat="48.22657" lon="-3.17526">
        <ele>134.80000305176</ele>
        <time>2020-10-19T12:14:51.000Z</time>
      </trkpt>
      <trkpt lat="48.22656" lon="-3.17525">
        <ele>134.80000305176</ele>
        <time>2020-10-19T12:14:52.000Z</time>
      </trkpt>
      <trkpt lat="48.22655" lon="-3.17524">
        <ele>134.80000305176</ele>
        <time>2020-10-19T12:14:53.000Z</time>
      </trkpt>
      <trkpt lat="48.22655" lon="-3.17522">
        <ele>134.80000305176</ele>
        <time>2020-10-19T12:14:54.000Z</time>
      </trkpt>
      <trkpt lat="48.22654" lon="-3.17521">
        <ele>134.80000305176</ele>
        <time>2020-10-19T12:14:55.000Z</time>
      </trkpt>
      <trkpt lat="48.22653" lon="-3.17519">
        <ele>134.80000305176</ele>
        <time>2020-10-19T12:14:56.000Z</time>
      </trkpt>
      <trkpt lat="48.22652" lon="-3.17518">
        <ele>134.80000305176</ele>
        <time>2020-10-19T12:14:57.000Z</time>
      </trkpt>
      <trkpt lat="48.22652" lon="-3.17517">
        <ele>134.80000305176</ele>
        <time>2020-10-19T12:14:58.000Z</time>
      </trkpt>
      <trkpt lat="48.22651" lon="-3.17515">
        <ele>134.80000305176</ele>
        <time>2020-10-19T12:14:59.000Z</time>
      </trkpt>
      <trkpt lat="48.2265" lon="-3.17514">
        <ele>134.80000305176</ele>
        <time>2020-10-19T12:15:00.000Z</time>
      </trkpt>
      <trkpt lat="48.2265" lon="-3.17513">
        <ele>135</ele>
        <time>2020-10-19T12:15:01.000Z</time>
      </trkpt>
      <trkpt lat="48.22649" lon="-3.17512">
        <ele>135</ele>
        <time>2020-10-19T12:15:02.000Z</time>
      </trkpt>
      <trkpt lat="48.22648" lon="-3.1751">
        <ele>135</ele>
        <time>2020-10-19T12:15:03.000Z</time>
      </trkpt>
      <trkpt lat="48.22647" lon="-3.17509">
        <ele>135</ele>
        <time>2020-10-19T12:15:04.000Z</time>
      </trkpt>
      <trkpt lat="48.22647" lon="-3.17508">
        <ele>135.19999694824</ele>
        <time>2020-10-19T12:15:05.000Z</time>
      </trkpt>
      <trkpt lat="48.22646" lon="-3.17506">
        <ele>135.19999694824</ele>
        <time>2020-10-19T12:15:06.000Z</time>
      </trkpt>
      <trkpt lat="48.22646" lon="-3.17505">
        <ele>135.39999389648</ele>
        <time>2020-10-19T12:15:07.000Z</time>
      </trkpt>
      <trkpt lat="48.22645" lon="-3.17503">
        <ele>135.60000610352</ele>
        <time>2020-10-19T12:15:08.000Z</time>
      </trkpt>
      <trkpt lat="48.22645" lon="-3.17501">
        <ele>135.80000305176</ele>
        <time>2020-10-19T12:15:09.000Z</time>
      </trkpt>
      <trkpt lat="48.22645" lon="-3.175">
        <ele>135.80000305176</ele>
        <time>2020-10-19T12:15:10.000Z</time>
      </trkpt>
      <trkpt lat="48.22644" lon="-3.17498">
        <ele>136</ele>
        <time>2020-10-19T12:15:11.000Z</time>
      </trkpt>
      <trkpt lat="48.22644" lon="-3.17497">
        <ele>136.19999694824</ele>
        <time>2020-10-19T12:15:12.000Z</time>
      </trkpt>
      <trkpt lat="48.22644" lon="-3.17495">
        <ele>136.19999694824</ele>
        <time>2020-10-19T12:15:13.000Z</time>
      </trkpt>
      <trkpt lat="48.22643" lon="-3.17494">
        <ele>136.39999389648</ele>
        <time>2020-10-19T12:15:14.000Z</time>
      </trkpt>
      <trkpt lat="48.22643" lon="-3.17492">
        <ele>136.60000610352</ele>
        <time>2020-10-19T12:15:15.000Z</time>
      </trkpt>
      <trkpt lat="48.22643" lon="-3.17491">
        <ele>136.60000610352</ele>
        <time>2020-10-19T12:15:16.000Z</time>
      </trkpt>
      <trkpt lat="48.22642" lon="-3.17489">
        <ele>136.80000305176</ele>
        <time>2020-10-19T12:15:17.000Z</time>
      </trkpt>
      <trkpt lat="48.22642" lon="-3.17488">
        <ele>137</ele>
        <time>2020-10-19T12:15:18.000Z</time>
      </trkpt>
      <trkpt lat="48.22641" lon="-3.17487">
        <ele>137</ele>
        <time>2020-10-19T12:15:19.000Z</time>
      </trkpt>
      <trkpt lat="48.22641" lon="-3.17485">
        <ele>137.19999694824</ele>
        <time>2020-10-19T12:15:20.000Z</time>
      </trkpt>
      <trkpt lat="48.22641" lon="-3.17484">
        <ele>137.19999694824</ele>
        <time>2020-10-19T12:15:21.000Z</time>
      </trkpt>
      <trkpt lat="48.22641" lon="-3.17483">
        <ele>137.19999694824</ele>
        <time>2020-10-19T12:15:22.000Z</time>
      </trkpt>
      <trkpt lat="48.2264" lon="-3.17483">
        <ele>137.39999389648</ele>
        <time>2020-10-19T12:15:23.000Z</time>
      </trkpt>
      <trkpt lat="48.2264" lon="-3.17481">
        <ele>137.39999389648</ele>
        <time>2020-10-19T12:15:24.000Z</time>
      </trkpt>
      <trkpt lat="48.2264" lon="-3.1748">
        <ele>137.60000610352</ele>
        <time>2020-10-19T12:15:25.000Z</time>
      </trkpt>
      <trkpt lat="48.22639" lon="-3.17479">
        <ele>137.60000610352</ele>
        <time>2020-10-19T12:15:26.000Z</time>
      </trkpt>
      <trkpt lat="48.22639" lon="-3.17478">
        <ele>137.80000305176</ele>
        <time>2020-10-19T12:15:27.000Z</time>
      </trkpt>
      <trkpt lat="48.22639" lon="-3.17478">
        <ele>137.80000305176</ele>
        <time>2020-10-19T12:15:28.000Z</time>
      </trkpt>
      <trkpt lat="48.22639" lon="-3.17477">
        <ele>137.80000305176</ele>
        <time>2020-10-19T12:15:29.000Z</time>
      </trkpt>
      <trkpt lat="48.22639" lon="-3.17477">
        <ele>137.80000305176</ele>
        <time>2020-10-19T12:15:30.000Z</time>
      </trkpt>
      <trkpt lat="48.22639" lon="-3.17477">
        <ele>137.80000305176</ele>
        <time>2020-10-19T12:15:31.000Z</time>
      </trkpt>
      <trkpt lat="48.22638" lon="-3.17477">
        <ele>137.80000305176</ele>
        <time>2020-10-19T12:15:32.000Z</time>
      </trkpt>
      <trkpt lat="48.22638" lon="-3.17476">
        <ele>137.80000305176</ele>
        <time>2020-10-19T12:15:33.000Z</time>
      </trkpt>
      <trkpt lat="48.22637" lon="-3.17475">
        <ele>138</ele>
        <time>2020-10-19T12:15:34.000Z</time>
      </trkpt>
      <trkpt lat="48.22636" lon="-3.17475">
        <ele>138</ele>
        <time>2020-10-19T12:15:35.000Z</time>
      </trkpt>
      <trkpt lat="48.22636" lon="-3.17475">
        <ele>138</ele>
        <time>2020-10-19T12:15:36.000Z</time>
      </trkpt>
      <trkpt lat="48.22636" lon="-3.17475">
        <ele>138</ele>
        <time>2020-10-19T12:15:37.000Z</time>
      </trkpt>
      <trkpt lat="48.22636" lon="-3.17475">
        <ele>138</ele>
        <time>2020-10-19T12:15:38.000Z</time>
      </trkpt>
      <trkpt lat="48.22636" lon="-3.17475">
        <ele>138</ele>
        <time>2020-10-19T12:15:39.000Z</time>
      </trkpt>
      <trkpt lat="48.22636" lon="-3.17475">
        <ele>138</ele>
        <time>2020-10-19T12:15:40.000Z</time>
      </trkpt>
      <trkpt lat="48.22635" lon="-3.17475">
        <ele>138</ele>
        <time>2020-10-19T12:15:41.000Z</time>
      </trkpt>
      <trkpt lat="48.22635" lon="-3.17474">
        <ele>138</ele>
        <time>2020-10-19T12:15:42.000Z</time>
      </trkpt>
      <trkpt lat="48.22635" lon="-3.17473">
        <ele>138.19999694824</ele>
        <time>2020-10-19T12:15:43.000Z</time>
      </trkpt>
      <trkpt lat="48.22635" lon="-3.17472">
        <ele>138.19999694824</ele>
        <time>2020-10-19T12:15:44.000Z</time>
      </trkpt>
      <trkpt lat="48.22635" lon="-3.17471">
        <ele>138.19999694824</ele>
        <time>2020-10-19T12:15:45.000Z</time>
      </trkpt>
      <trkpt lat="48.22634" lon="-3.17471">
        <ele>138.19999694824</ele>
        <time>2020-10-19T12:15:46.000Z</time>
      </trkpt>
      <trkpt lat="48.22634" lon="-3.1747">
        <ele>138.19999694824</ele>
        <time>2020-10-19T12:15:47.000Z</time>
      </trkpt>
      <trkpt lat="48.22634" lon="-3.17469">
        <ele>138.19999694824</ele>
        <time>2020-10-19T12:15:48.000Z</time>
      </trkpt>
      <trkpt lat="48.22633" lon="-3.17467">
        <ele>138</ele>
        <time>2020-10-19T12:15:49.000Z</time>
      </trkpt>
      <trkpt lat="48.22633" lon="-3.17466">
        <ele>138</ele>
        <time>2020-10-19T12:15:50.000Z</time>
      </trkpt>
      <trkpt lat="48.22632" lon="-3.17465">
        <ele>138</ele>
        <time>2020-10-19T12:15:51.000Z</time>
      </trkpt>
      <trkpt lat="48.22631" lon="-3.17464">
        <ele>137.80000305176</ele>
        <time>2020-10-19T12:15:52.000Z</time>
      </trkpt>
      <trkpt lat="48.22631" lon="-3.17462">
        <ele>137.80000305176</ele>
        <time>2020-10-19T12:15:53.000Z</time>
      </trkpt>
      <trkpt lat="48.2263" lon="-3.17461">
        <ele>137.80000305176</ele>
        <time>2020-10-19T12:15:54.000Z</time>
      </trkpt>
      <trkpt lat="48.22629" lon="-3.1746">
        <ele>137.60000610352</ele>
        <time>2020-10-19T12:15:55.000Z</time>
      </trkpt>
      <trkpt lat="48.22629" lon="-3.17458">
        <ele>137.60000610352</ele>
        <time>2020-10-19T12:15:56.000Z</time>
      </trkpt>
      <trkpt lat="48.22629" lon="-3.17457">
        <ele>137.60000610352</ele>
        <time>2020-10-19T12:15:57.000Z</time>
      </trkpt>
      <trkpt lat="48.22628" lon="-3.17456">
        <ele>137.60000610352</ele>
        <time>2020-10-19T12:15:58.000Z</time>
      </trkpt>
      <trkpt lat="48.22628" lon="-3.17454">
        <ele>137.60000610352</ele>
        <time>2020-10-19T12:15:59.000Z</time>
      </trkpt>
      <trkpt lat="48.22628" lon="-3.17452">
        <ele>137.60000610352</ele>
        <time>2020-10-19T12:16:00.000Z</time>
      </trkpt>
      <trkpt lat="48.22628" lon="-3.17451">
        <ele>137.60000610352</ele>
        <time>2020-10-19T12:16:01.000Z</time>
      </trkpt>
      <trkpt lat="48.22628" lon="-3.17449">
        <ele>137.60000610352</ele>
        <time>2020-10-19T12:16:02.000Z</time>
      </trkpt>
      <trkpt lat="48.22628" lon="-3.17448">
        <ele>137.60000610352</ele>
        <time>2020-10-19T12:16:03.000Z</time>
      </trkpt>
      <trkpt lat="48.22627" lon="-3.17447">
        <ele>137.60000610352</ele>
        <time>2020-10-19T12:16:04.000Z</time>
      </trkpt>
      <trkpt lat="48.22627" lon="-3.17446">
        <ele>137.60000610352</ele>
        <time>2020-10-19T12:16:05.000Z</time>
      </trkpt>
      <trkpt lat="48.22627" lon="-3.17444">
        <ele>137.60000610352</ele>
        <time>2020-10-19T12:16:06.000Z</time>
      </trkpt>
      <trkpt lat="48.22626" lon="-3.17443">
        <ele>137.60000610352</ele>
        <time>2020-10-19T12:16:07.000Z</time>
      </trkpt>
      <trkpt lat="48.22626" lon="-3.17441">
        <ele>137.60000610352</ele>
        <time>2020-10-19T12:16:08.000Z</time>
      </trkpt>
      <trkpt lat="48.22626" lon="-3.1744">
        <ele>137.60000610352</ele>
        <time>2020-10-19T12:16:09.000Z</time>
      </trkpt>
      <trkpt lat="48.22626" lon="-3.17438">
        <ele>137.39999389648</ele>
        <time>2020-10-19T12:16:10.000Z</time>
      </trkpt>
      <trkpt lat="48.22625" lon="-3.17437">
        <ele>137.39999389648</ele>
        <time>2020-10-19T12:16:11.000Z</time>
      </trkpt>
      <trkpt lat="48.22625" lon="-3.17435">
        <ele>137.39999389648</ele>
        <time>2020-10-19T12:16:12.000Z</time>
      </trkpt>
      <trkpt lat="48.22625" lon="-3.17434">
        <ele>137.39999389648</ele>
        <time>2020-10-19T12:16:13.000Z</time>
      </trkpt>
      <trkpt lat="48.22624" lon="-3.17432">
        <ele>137.39999389648</ele>
        <time>2020-10-19T12:16:14.000Z</time>
      </trkpt>
      <trkpt lat="48.22624" lon="-3.17431">
        <ele>137.39999389648</ele>
        <time>2020-10-19T12:16:15.000Z</time>
      </trkpt>
      <trkpt lat="48.22624" lon="-3.17429">
        <ele>137.39999389648</ele>
        <time>2020-10-19T12:16:16.000Z</time>
      </trkpt>
      <trkpt lat="48.22623" lon="-3.17427">
        <ele>137.39999389648</ele>
        <time>2020-10-19T12:16:17.000Z</time>
      </trkpt>
      <trkpt lat="48.22623" lon="-3.17426">
        <ele>137.39999389648</ele>
        <time>2020-10-19T12:16:18.000Z</time>
      </trkpt>
      <trkpt lat="48.22623" lon="-3.17424">
        <ele>137.39999389648</ele>
        <time>2020-10-19T12:16:19.000Z</time>
      </trkpt>
      <trkpt lat="48.22623" lon="-3.17422">
        <ele>137.39999389648</ele>
        <time>2020-10-19T12:16:20.000Z</time>
      </trkpt>
      <trkpt lat="48.22623" lon="-3.17421">
        <ele>137.39999389648</ele>
        <time>2020-10-19T12:16:21.000Z</time>
      </trkpt>
      <trkpt lat="48.22623" lon="-3.17419">
        <ele>137.39999389648</ele>
        <time>2020-10-19T12:16:22.000Z</time>
      </trkpt>
      <trkpt lat="48.22623" lon="-3.17417">
        <ele>137.60000610352</ele>
        <time>2020-10-19T12:16:23.000Z</time>
      </trkpt>
      <trkpt lat="48.22622" lon="-3.17415">
        <ele>137.60000610352</ele>
        <time>2020-10-19T12:16:24.000Z</time>
      </trkpt>
      <trkpt lat="48.22622" lon="-3.17414">
        <ele>137.60000610352</ele>
        <time>2020-10-19T12:16:25.000Z</time>
      </trkpt>
      <trkpt lat="48.22622" lon="-3.17412">
        <ele>137.60000610352</ele>
        <time>2020-10-19T12:16:26.000Z</time>
      </trkpt>
      <trkpt lat="48.22622" lon="-3.1741">
        <ele>137.60000610352</ele>
        <time>2020-10-19T12:16:27.000Z</time>
      </trkpt>
      <trkpt lat="48.22621" lon="-3.17408">
        <ele>137.60000610352</ele>
        <time>2020-10-19T12:16:28.000Z</time>
      </trkpt>
      <trkpt lat="48.22621" lon="-3.17406">
        <ele>137.60000610352</ele>
        <time>2020-10-19T12:16:29.000Z</time>
      </trkpt>
      <trkpt lat="48.22621" lon="-3.17405">
        <ele>137.60000610352</ele>
        <time>2020-10-19T12:16:30.000Z</time>
      </trkpt>
      <trkpt lat="48.22621" lon="-3.17403">
        <ele>137.60000610352</ele>
        <time>2020-10-19T12:16:31.000Z</time>
      </trkpt>
      <trkpt lat="48.22621" lon="-3.17402">
        <ele>137.60000610352</ele>
        <time>2020-10-19T12:16:32.000Z</time>
      </trkpt>
      <trkpt lat="48.22621" lon="-3.174">
        <ele>137.60000610352</ele>
        <time>2020-10-19T12:16:33.000Z</time>
      </trkpt>
      <trkpt lat="48.22621" lon="-3.17399">
        <ele>137.80000305176</ele>
        <time>2020-10-19T12:16:34.000Z</time>
      </trkpt>
      <trkpt lat="48.2262" lon="-3.17397">
        <ele>137.80000305176</ele>
        <time>2020-10-19T12:16:35.000Z</time>
      </trkpt>
      <trkpt lat="48.2262" lon="-3.17396">
        <ele>137.80000305176</ele>
        <time>2020-10-19T12:16:36.000Z</time>
      </trkpt>
      <trkpt lat="48.22619" lon="-3.17394">
        <ele>137.60000610352</ele>
        <time>2020-10-19T12:16:37.000Z</time>
      </trkpt>
      <trkpt lat="48.22619" lon="-3.17392">
        <ele>137.60000610352</ele>
        <time>2020-10-19T12:16:38.000Z</time>
      </trkpt>
      <trkpt lat="48.22619" lon="-3.17391">
        <ele>137.60000610352</ele>
        <time>2020-10-19T12:16:39.000Z</time>
      </trkpt>
      <trkpt lat="48.22618" lon="-3.17389">
        <ele>137.60000610352</ele>
        <time>2020-10-19T12:16:40.000Z</time>
      </trkpt>
      <trkpt lat="48.22618" lon="-3.17387">
        <ele>137.80000305176</ele>
        <time>2020-10-19T12:16:41.000Z</time>
      </trkpt>
      <trkpt lat="48.22618" lon="-3.17386">
        <ele>137.80000305176</ele>
        <time>2020-10-19T12:16:42.000Z</time>
      </trkpt>
      <trkpt lat="48.22618" lon="-3.17384">
        <ele>137.80000305176</ele>
        <time>2020-10-19T12:16:43.000Z</time>
      </trkpt>
      <trkpt lat="48.22617" lon="-3.17383">
        <ele>137.80000305176</ele>
        <time>2020-10-19T12:16:44.000Z</time>
      </trkpt>
      <trkpt lat="48.22617" lon="-3.17381">
        <ele>137.60000610352</ele>
        <time>2020-10-19T12:16:45.000Z</time>
      </trkpt>
      <trkpt lat="48.22616" lon="-3.1738">
        <ele>137.60000610352</ele>
        <time>2020-10-19T12:16:46.000Z</time>
      </trkpt>
      <trkpt lat="48.22616" lon="-3.17379">
        <ele>137.60000610352</ele>
        <time>2020-10-19T12:16:47.000Z</time>
      </trkpt>
      <trkpt lat="48.22616" lon="-3.17378">
        <ele>137.60000610352</ele>
        <time>2020-10-19T12:16:48.000Z</time>
      </trkpt>
      <trkpt lat="48.22616" lon="-3.17377">
        <ele>137.60000610352</ele>
        <time>2020-10-19T12:16:49.000Z</time>
      </trkpt>
      <trkpt lat="48.22616" lon="-3.17377">
        <ele>137.60000610352</ele>
        <time>2020-10-19T12:16:50.000Z</time>
      </trkpt>
      <trkpt lat="48.22616" lon="-3.17377">
        <ele>137.60000610352</ele>
        <time>2020-10-19T12:16:51.000Z</time>
      </trkpt>
      <trkpt lat="48.22616" lon="-3.17377">
        <ele>137.60000610352</ele>
        <time>2020-10-19T12:16:52.000Z</time>
      </trkpt>
      <trkpt lat="48.22616" lon="-3.17376">
        <ele>137.60000610352</ele>
        <time>2020-10-19T12:16:53.000Z</time>
      </trkpt>
      <trkpt lat="48.22616" lon="-3.17375">
        <ele>137.60000610352</ele>
        <time>2020-10-19T12:16:54.000Z</time>
      </trkpt>
      <trkpt lat="48.22615" lon="-3.17374">
        <ele>137.60000610352</ele>
        <time>2020-10-19T12:16:55.000Z</time>
      </trkpt>
      <trkpt lat="48.22615" lon="-3.17372">
        <ele>137.60000610352</ele>
        <time>2020-10-19T12:16:56.000Z</time>
      </trkpt>
      <trkpt lat="48.22614" lon="-3.17371">
        <ele>137.60000610352</ele>
        <time>2020-10-19T12:16:57.000Z</time>
      </trkpt>
      <trkpt lat="48.22613" lon="-3.17369">
        <ele>137.60000610352</ele>
        <time>2020-10-19T12:16:58.000Z</time>
      </trkpt>
      <trkpt lat="48.22612" lon="-3.17368">
        <ele>137.39999389648</ele>
        <time>2020-10-19T12:16:59.000Z</time>
      </trkpt>
      <trkpt lat="48.22612" lon="-3.17367">
        <ele>137.39999389648</ele>
        <time>2020-10-19T12:17:00.000Z</time>
      </trkpt>
      <trkpt lat="48.22611" lon="-3.17366">
        <ele>137.39999389648</ele>
        <time>2020-10-19T12:17:01.000Z</time>
      </trkpt>
      <trkpt lat="48.2261" lon="-3.17363">
        <ele>137.19999694824</ele>
        <time>2020-10-19T12:17:02.000Z</time>
      </trkpt>
      <trkpt lat="48.2261" lon="-3.17363">
        <ele>137.19999694824</ele>
        <time>2020-10-19T12:17:03.000Z</time>
      </trkpt>
      <trkpt lat="48.2261" lon="-3.17362">
        <ele>137.19999694824</ele>
        <time>2020-10-19T12:17:04.000Z</time>
      </trkpt>
      <trkpt lat="48.22609" lon="-3.1736">
        <ele>137.19999694824</ele>
        <time>2020-10-19T12:17:05.000Z</time>
      </trkpt>
      <trkpt lat="48.22609" lon="-3.17359">
        <ele>137.19999694824</ele>
        <time>2020-10-19T12:17:06.000Z</time>
      </trkpt>
      <trkpt lat="48.22608" lon="-3.17357">
        <ele>137.19999694824</ele>
        <time>2020-10-19T12:17:07.000Z</time>
      </trkpt>
      <trkpt lat="48.22608" lon="-3.17356">
        <ele>137.19999694824</ele>
        <time>2020-10-19T12:17:08.000Z</time>
      </trkpt>
      <trkpt lat="48.22608" lon="-3.17354">
        <ele>137.19999694824</ele>
        <time>2020-10-19T12:17:09.000Z</time>
      </trkpt>
      <trkpt lat="48.22607" lon="-3.17353">
        <ele>137.19999694824</ele>
        <time>2020-10-19T12:17:10.000Z</time>
      </trkpt>
      <trkpt lat="48.22607" lon="-3.17351">
        <ele>137.19999694824</ele>
        <time>2020-10-19T12:17:11.000Z</time>
      </trkpt>
      <trkpt lat="48.22606" lon="-3.17349">
        <ele>137.19999694824</ele>
        <time>2020-10-19T12:17:12.000Z</time>
      </trkpt>
      <trkpt lat="48.22606" lon="-3.17348">
        <ele>137.19999694824</ele>
        <time>2020-10-19T12:17:13.000Z</time>
      </trkpt>
      <trkpt lat="48.22605" lon="-3.17346">
        <ele>137.19999694824</ele>
        <time>2020-10-19T12:17:14.000Z</time>
      </trkpt>
      <trkpt lat="48.22604" lon="-3.17344">
        <ele>137</ele>
        <time>2020-10-19T12:17:15.000Z</time>
      </trkpt>
      <trkpt lat="48.22603" lon="-3.17343">
        <ele>137</ele>
        <time>2020-10-19T12:17:16.000Z</time>
      </trkpt>
      <trkpt lat="48.22603" lon="-3.17341">
        <ele>136.80000305176</ele>
        <time>2020-10-19T12:17:17.000Z</time>
      </trkpt>
      <trkpt lat="48.22603" lon="-3.17339">
        <ele>136.80000305176</ele>
        <time>2020-10-19T12:17:18.000Z</time>
      </trkpt>
      <trkpt lat="48.22603" lon="-3.17338">
        <ele>136.80000305176</ele>
        <time>2020-10-19T12:17:19.000Z</time>
      </trkpt>
      <trkpt lat="48.22602" lon="-3.17336">
        <ele>136.80000305176</ele>
        <time>2020-10-19T12:17:20.000Z</time>
      </trkpt>
      <trkpt lat="48.22602" lon="-3.17335">
        <ele>137</ele>
        <time>2020-10-19T12:17:21.000Z</time>
      </trkpt>
      <trkpt lat="48.22602" lon="-3.17333">
        <ele>137</ele>
        <time>2020-10-19T12:17:22.000Z</time>
      </trkpt>
      <trkpt lat="48.22601" lon="-3.17332">
        <ele>137</ele>
        <time>2020-10-19T12:17:23.000Z</time>
      </trkpt>
      <trkpt lat="48.22602" lon="-3.17331">
        <ele>137.19999694824</ele>
        <time>2020-10-19T12:17:24.000Z</time>
      </trkpt>
      <trkpt lat="48.22602" lon="-3.1733">
        <ele>137.19999694824</ele>
        <time>2020-10-19T12:17:25.000Z</time>
      </trkpt>
      <trkpt lat="48.22601" lon="-3.17328">
        <ele>137.19999694824</ele>
        <time>2020-10-19T12:17:26.000Z</time>
      </trkpt>
      <trkpt lat="48.22601" lon="-3.17327">
        <ele>137.19999694824</ele>
        <time>2020-10-19T12:17:27.000Z</time>
      </trkpt>
      <trkpt lat="48.22601" lon="-3.17326">
        <ele>137.39999389648</ele>
        <time>2020-10-19T12:17:28.000Z</time>
      </trkpt>
      <trkpt lat="48.22601" lon="-3.17325">
        <ele>137.39999389648</ele>
        <time>2020-10-19T12:17:29.000Z</time>
      </trkpt>
      <trkpt lat="48.22601" lon="-3.17323">
        <ele>137.60000610352</ele>
        <time>2020-10-19T12:17:30.000Z</time>
      </trkpt>
      <trkpt lat="48.22602" lon="-3.17321">
        <ele>137.60000610352</ele>
        <time>2020-10-19T12:17:31.000Z</time>
      </trkpt>
      <trkpt lat="48.22602" lon="-3.1732">
        <ele>137.80000305176</ele>
        <time>2020-10-19T12:17:32.000Z</time>
      </trkpt>
      <trkpt lat="48.22602" lon="-3.17318">
        <ele>137.80000305176</ele>
        <time>2020-10-19T12:17:33.000Z</time>
      </trkpt>
      <trkpt lat="48.22602" lon="-3.17317">
        <ele>138</ele>
        <time>2020-10-19T12:17:34.000Z</time>
      </trkpt>
      <trkpt lat="48.22602" lon="-3.17315">
        <ele>138</ele>
        <time>2020-10-19T12:17:35.000Z</time>
      </trkpt>
      <trkpt lat="48.22602" lon="-3.17313">
        <ele>138.19999694824</ele>
        <time>2020-10-19T12:17:36.000Z</time>
      </trkpt>
      <trkpt lat="48.22602" lon="-3.17312">
        <ele>138.39999389648</ele>
        <time>2020-10-19T12:17:37.000Z</time>
      </trkpt>
      <trkpt lat="48.22603" lon="-3.17309">
        <ele>138.60000610352</ele>
        <time>2020-10-19T12:17:38.000Z</time>
      </trkpt>
      <trkpt lat="48.22603" lon="-3.17309">
        <ele>138.60000610352</ele>
        <time>2020-10-19T12:17:39.000Z</time>
      </trkpt>
      <trkpt lat="48.22603" lon="-3.17307">
        <ele>138.60000610352</ele>
        <time>2020-10-19T12:17:40.000Z</time>
      </trkpt>
      <trkpt lat="48.22603" lon="-3.17305">
        <ele>138.60000610352</ele>
        <time>2020-10-19T12:17:41.000Z</time>
      </trkpt>
      <trkpt lat="48.22602" lon="-3.17304">
        <ele>138.80000305176</ele>
        <time>2020-10-19T12:17:42.000Z</time>
      </trkpt>
      <trkpt lat="48.22602" lon="-3.17302">
        <ele>138.80000305176</ele>
        <time>2020-10-19T12:17:43.000Z</time>
      </trkpt>
      <trkpt lat="48.22601" lon="-3.17301">
        <ele>139</ele>
        <time>2020-10-19T12:17:44.000Z</time>
      </trkpt>
      <trkpt lat="48.22601" lon="-3.17299">
        <ele>139</ele>
        <time>2020-10-19T12:17:45.000Z</time>
      </trkpt>
      <trkpt lat="48.22601" lon="-3.17298">
        <ele>139</ele>
        <time>2020-10-19T12:17:46.000Z</time>
      </trkpt>
      <trkpt lat="48.22601" lon="-3.17296">
        <ele>139.19999694824</ele>
        <time>2020-10-19T12:17:47.000Z</time>
      </trkpt>
      <trkpt lat="48.22601" lon="-3.17294">
        <ele>139.19999694824</ele>
        <time>2020-10-19T12:17:48.000Z</time>
      </trkpt>
      <trkpt lat="48.22601" lon="-3.17292">
        <ele>139.39999389648</ele>
        <time>2020-10-19T12:17:49.000Z</time>
      </trkpt>
      <trkpt lat="48.22601" lon="-3.17291">
        <ele>139.39999389648</ele>
        <time>2020-10-19T12:17:50.000Z</time>
      </trkpt>
      <trkpt lat="48.226" lon="-3.17289">
        <ele>139.60000610352</ele>
        <time>2020-10-19T12:17:51.000Z</time>
      </trkpt>
      <trkpt lat="48.22601" lon="-3.17287">
        <ele>139.60000610352</ele>
        <time>2020-10-19T12:17:52.000Z</time>
      </trkpt>
      <trkpt lat="48.22601" lon="-3.17286">
        <ele>139.80000305176</ele>
        <time>2020-10-19T12:17:53.000Z</time>
      </trkpt>
      <trkpt lat="48.22601" lon="-3.17284">
        <ele>140</ele>
        <time>2020-10-19T12:17:54.000Z</time>
      </trkpt>
      <trkpt lat="48.22601" lon="-3.17282">
        <ele>140</ele>
        <time>2020-10-19T12:17:55.000Z</time>
      </trkpt>
      <trkpt lat="48.22601" lon="-3.1728">
        <ele>140.19999694824</ele>
        <time>2020-10-19T12:17:56.000Z</time>
      </trkpt>
      <trkpt lat="48.22602" lon="-3.17278">
        <ele>140.19999694824</ele>
        <time>2020-10-19T12:17:57.000Z</time>
      </trkpt>
      <trkpt lat="48.22601" lon="-3.17276">
        <ele>140.39999389648</ele>
        <time>2020-10-19T12:17:58.000Z</time>
      </trkpt>
      <trkpt lat="48.22601" lon="-3.17275">
        <ele>140.39999389648</ele>
        <time>2020-10-19T12:17:59.000Z</time>
      </trkpt>
      <trkpt lat="48.22601" lon="-3.17274">
        <ele>140.60000610352</ele>
        <time>2020-10-19T12:18:00.000Z</time>
      </trkpt>
      <trkpt lat="48.22601" lon="-3.17272">
        <ele>140.60000610352</ele>
        <time>2020-10-19T12:18:01.000Z</time>
      </trkpt>
      <trkpt lat="48.22601" lon="-3.1727">
        <ele>140.80000305176</ele>
        <time>2020-10-19T12:18:02.000Z</time>
      </trkpt>
      <trkpt lat="48.22601" lon="-3.17269">
        <ele>140.80000305176</ele>
        <time>2020-10-19T12:18:03.000Z</time>
      </trkpt>
      <trkpt lat="48.22601" lon="-3.17268">
        <ele>140.80000305176</ele>
        <time>2020-10-19T12:18:04.000Z</time>
      </trkpt>
      <trkpt lat="48.22601" lon="-3.17267">
        <ele>141</ele>
        <time>2020-10-19T12:18:05.000Z</time>
      </trkpt>
      <trkpt lat="48.22602" lon="-3.17265">
        <ele>141</ele>
        <time>2020-10-19T12:18:06.000Z</time>
      </trkpt>
      <trkpt lat="48.22602" lon="-3.17264">
        <ele>141.19999694824</ele>
        <time>2020-10-19T12:18:07.000Z</time>
      </trkpt>
      <trkpt lat="48.22603" lon="-3.17262">
        <ele>141.19999694824</ele>
        <time>2020-10-19T12:18:08.000Z</time>
      </trkpt>
      <trkpt lat="48.22603" lon="-3.1726">
        <ele>141.39999389648</ele>
        <time>2020-10-19T12:18:09.000Z</time>
      </trkpt>
      <trkpt lat="48.22603" lon="-3.17258">
        <ele>141.39999389648</ele>
        <time>2020-10-19T12:18:10.000Z</time>
      </trkpt>
      <trkpt lat="48.22603" lon="-3.17257">
        <ele>141.39999389648</ele>
        <time>2020-10-19T12:18:11.000Z</time>
      </trkpt>
      <trkpt lat="48.22603" lon="-3.17255">
        <ele>141.39999389648</ele>
        <time>2020-10-19T12:18:12.000Z</time>
      </trkpt>
      <trkpt lat="48.22603" lon="-3.17253">
        <ele>141.39999389648</ele>
        <time>2020-10-19T12:18:13.000Z</time>
      </trkpt>
      <trkpt lat="48.22604" lon="-3.17252">
        <ele>141.39999389648</ele>
        <time>2020-10-19T12:18:14.000Z</time>
      </trkpt>
      <trkpt lat="48.22604" lon="-3.1725">
        <ele>141.60000610352</ele>
        <time>2020-10-19T12:18:15.000Z</time>
      </trkpt>
      <trkpt lat="48.22604" lon="-3.17248">
        <ele>141.60000610352</ele>
        <time>2020-10-19T12:18:16.000Z</time>
      </trkpt>
      <trkpt lat="48.22603" lon="-3.17247">
        <ele>141.80000305176</ele>
        <time>2020-10-19T12:18:17.000Z</time>
      </trkpt>
      <trkpt lat="48.22603" lon="-3.17245">
        <ele>141.80000305176</ele>
        <time>2020-10-19T12:18:18.000Z</time>
      </trkpt>
      <trkpt lat="48.22603" lon="-3.17243">
        <ele>141.80000305176</ele>
        <time>2020-10-19T12:18:19.000Z</time>
      </trkpt>
      <trkpt lat="48.22603" lon="-3.17242">
        <ele>142</ele>
        <time>2020-10-19T12:18:20.000Z</time>
      </trkpt>
      <trkpt lat="48.22603" lon="-3.17241">
        <ele>142</ele>
        <time>2020-10-19T12:18:21.000Z</time>
      </trkpt>
      <trkpt lat="48.22603" lon="-3.1724">
        <ele>142</ele>
        <time>2020-10-19T12:18:22.000Z</time>
      </trkpt>
      <trkpt lat="48.22603" lon="-3.17238">
        <ele>142</ele>
        <time>2020-10-19T12:18:23.000Z</time>
      </trkpt>
      <trkpt lat="48.22603" lon="-3.17237">
        <ele>142.19999694824</ele>
        <time>2020-10-19T12:18:24.000Z</time>
      </trkpt>
      <trkpt lat="48.22603" lon="-3.17235">
        <ele>142.19999694824</ele>
        <time>2020-10-19T12:18:25.000Z</time>
      </trkpt>
      <trkpt lat="48.22604" lon="-3.17234">
        <ele>142.19999694824</ele>
        <time>2020-10-19T12:18:26.000Z</time>
      </trkpt>
      <trkpt lat="48.22604" lon="-3.17233">
        <ele>142.39999389648</ele>
        <time>2020-10-19T12:18:27.000Z</time>
      </trkpt>
      <trkpt lat="48.22604" lon="-3.17233">
        <ele>142.39999389648</ele>
        <time>2020-10-19T12:18:28.000Z</time>
      </trkpt>
      <trkpt lat="48.22604" lon="-3.17232">
        <ele>142.39999389648</ele>
        <time>2020-10-19T12:18:29.000Z</time>
      </trkpt>
      <trkpt lat="48.22604" lon="-3.17231">
        <ele>142.39999389648</ele>
        <time>2020-10-19T12:18:30.000Z</time>
      </trkpt>
      <trkpt lat="48.22604" lon="-3.17231">
        <ele>142.39999389648</ele>
        <time>2020-10-19T12:18:31.000Z</time>
      </trkpt>
      <trkpt lat="48.22604" lon="-3.1723">
        <ele>142.39999389648</ele>
        <time>2020-10-19T12:18:32.000Z</time>
      </trkpt>
      <trkpt lat="48.22604" lon="-3.17229">
        <ele>142.60000610352</ele>
        <time>2020-10-19T12:18:33.000Z</time>
      </trkpt>
      <trkpt lat="48.22604" lon="-3.17228">
        <ele>142.60000610352</ele>
        <time>2020-10-19T12:18:34.000Z</time>
      </trkpt>
      <trkpt lat="48.22604" lon="-3.17226">
        <ele>142.60000610352</ele>
        <time>2020-10-19T12:18:35.000Z</time>
      </trkpt>
      <trkpt lat="48.22604" lon="-3.17226">
        <ele>142.60000610352</ele>
        <time>2020-10-19T12:18:36.000Z</time>
      </trkpt>
      <trkpt lat="48.22604" lon="-3.17226">
        <ele>142.80000305176</ele>
        <time>2020-10-19T12:18:37.000Z</time>
      </trkpt>
      <trkpt lat="48.22604" lon="-3.17225">
        <ele>142.80000305176</ele>
        <time>2020-10-19T12:18:38.000Z</time>
      </trkpt>
      <trkpt lat="48.22604" lon="-3.17224">
        <ele>142.80000305176</ele>
        <time>2020-10-19T12:18:39.000Z</time>
      </trkpt>
      <trkpt lat="48.22604" lon="-3.17224">
        <ele>142.80000305176</ele>
        <time>2020-10-19T12:18:40.000Z</time>
      </trkpt>
      <trkpt lat="48.22604" lon="-3.17222">
        <ele>142.80000305176</ele>
        <time>2020-10-19T12:18:41.000Z</time>
      </trkpt>
      <trkpt lat="48.22604" lon="-3.17221">
        <ele>143</ele>
        <time>2020-10-19T12:18:42.000Z</time>
      </trkpt>
      <trkpt lat="48.22604" lon="-3.1722">
        <ele>143</ele>
        <time>2020-10-19T12:18:43.000Z</time>
      </trkpt>
      <trkpt lat="48.22603" lon="-3.17218">
        <ele>143</ele>
        <time>2020-10-19T12:18:44.000Z</time>
      </trkpt>
      <trkpt lat="48.22604" lon="-3.17216">
        <ele>143.19999694824</ele>
        <time>2020-10-19T12:18:45.000Z</time>
      </trkpt>
      <trkpt lat="48.22604" lon="-3.17215">
        <ele>143.19999694824</ele>
        <time>2020-10-19T12:18:46.000Z</time>
      </trkpt>
      <trkpt lat="48.22604" lon="-3.17213">
        <ele>143.19999694824</ele>
        <time>2020-10-19T12:18:47.000Z</time>
      </trkpt>
      <trkpt lat="48.22604" lon="-3.17212">
        <ele>143.39999389648</ele>
        <time>2020-10-19T12:18:48.000Z</time>
      </trkpt>
      <trkpt lat="48.22604" lon="-3.17211">
        <ele>143.39999389648</ele>
        <time>2020-10-19T12:18:49.000Z</time>
      </trkpt>
      <trkpt lat="48.22604" lon="-3.17209">
        <ele>143.60000610352</ele>
        <time>2020-10-19T12:18:50.000Z</time>
      </trkpt>
      <trkpt lat="48.22604" lon="-3.17207">
        <ele>143.60000610352</ele>
        <time>2020-10-19T12:18:51.000Z</time>
      </trkpt>
      <trkpt lat="48.22604" lon="-3.17205">
        <ele>143.80000305176</ele>
        <time>2020-10-19T12:18:52.000Z</time>
      </trkpt>
      <trkpt lat="48.22605" lon="-3.17203">
        <ele>143.80000305176</ele>
        <time>2020-10-19T12:18:53.000Z</time>
      </trkpt>
      <trkpt lat="48.22605" lon="-3.17202">
        <ele>143.80000305176</ele>
        <time>2020-10-19T12:18:54.000Z</time>
      </trkpt>
      <trkpt lat="48.22605" lon="-3.17201">
        <ele>143.80000305176</ele>
        <time>2020-10-19T12:18:55.000Z</time>
      </trkpt>
      <trkpt lat="48.22605" lon="-3.17199">
        <ele>144</ele>
        <time>2020-10-19T12:18:56.000Z</time>
      </trkpt>
      <trkpt lat="48.22605" lon="-3.17198">
        <ele>144</ele>
        <time>2020-10-19T12:18:57.000Z</time>
      </trkpt>
      <trkpt lat="48.22606" lon="-3.17197">
        <ele>144</ele>
        <time>2020-10-19T12:18:58.000Z</time>
      </trkpt>
      <trkpt lat="48.22606" lon="-3.17196">
        <ele>144.19999694824</ele>
        <time>2020-10-19T12:18:59.000Z</time>
      </trkpt>
      <trkpt lat="48.22606" lon="-3.17195">
        <ele>144.19999694824</ele>
        <time>2020-10-19T12:19:00.000Z</time>
      </trkpt>
      <trkpt lat="48.22606" lon="-3.17193">
        <ele>144.19999694824</ele>
        <time>2020-10-19T12:19:01.000Z</time>
      </trkpt>
      <trkpt lat="48.22606" lon="-3.17192">
        <ele>144.39999389648</ele>
        <time>2020-10-19T12:19:02.000Z</time>
      </trkpt>
      <trkpt lat="48.22607" lon="-3.1719">
        <ele>144.39999389648</ele>
        <time>2020-10-19T12:19:03.000Z</time>
      </trkpt>
      <trkpt lat="48.22607" lon="-3.17189">
        <ele>144.39999389648</ele>
        <time>2020-10-19T12:19:04.000Z</time>
      </trkpt>
      <trkpt lat="48.22607" lon="-3.17187">
        <ele>144.60000610352</ele>
        <time>2020-10-19T12:19:05.000Z</time>
      </trkpt>
      <trkpt lat="48.22607" lon="-3.17186">
        <ele>144.60000610352</ele>
        <time>2020-10-19T12:19:06.000Z</time>
      </trkpt>
      <trkpt lat="48.22608" lon="-3.17185">
        <ele>144.60000610352</ele>
        <time>2020-10-19T12:19:07.000Z</time>
      </trkpt>
      <trkpt lat="48.22607" lon="-3.17183">
        <ele>144.80000305176</ele>
        <time>2020-10-19T12:19:08.000Z</time>
      </trkpt>
      <trkpt lat="48.22607" lon="-3.17182">
        <ele>144.80000305176</ele>
        <time>2020-10-19T12:19:09.000Z</time>
      </trkpt>
      <trkpt lat="48.22607" lon="-3.17181">
        <ele>144.80000305176</ele>
        <time>2020-10-19T12:19:10.000Z</time>
      </trkpt>
      <trkpt lat="48.22607" lon="-3.17179">
        <ele>145</ele>
        <time>2020-10-19T12:19:11.000Z</time>
      </trkpt>
      <trkpt lat="48.22607" lon="-3.17177">
        <ele>145</ele>
        <time>2020-10-19T12:19:12.000Z</time>
      </trkpt>
      <trkpt lat="48.22607" lon="-3.17176">
        <ele>145.19999694824</ele>
        <time>2020-10-19T12:19:13.000Z</time>
      </trkpt>
      <trkpt lat="48.22607" lon="-3.17174">
        <ele>145.19999694824</ele>
        <time>2020-10-19T12:19:14.000Z</time>
      </trkpt>
      <trkpt lat="48.22607" lon="-3.17173">
        <ele>145.39999389648</ele>
        <time>2020-10-19T12:19:15.000Z</time>
      </trkpt>
      <trkpt lat="48.22607" lon="-3.17171">
        <ele>145.39999389648</ele>
        <time>2020-10-19T12:19:16.000Z</time>
      </trkpt>
      <trkpt lat="48.22607" lon="-3.17169">
        <ele>145.60000610352</ele>
        <time>2020-10-19T12:19:17.000Z</time>
      </trkpt>
      <trkpt lat="48.22607" lon="-3.17167">
        <ele>145.80000305176</ele>
        <time>2020-10-19T12:19:18.000Z</time>
      </trkpt>
      <trkpt lat="48.22607" lon="-3.17166">
        <ele>146</ele>
        <time>2020-10-19T12:19:19.000Z</time>
      </trkpt>
      <trkpt lat="48.22607" lon="-3.17164">
        <ele>146</ele>
        <time>2020-10-19T12:19:20.000Z</time>
      </trkpt>
      <trkpt lat="48.22606" lon="-3.17163">
        <ele>146.19999694824</ele>
        <time>2020-10-19T12:19:21.000Z</time>
      </trkpt>
      <trkpt lat="48.22606" lon="-3.17161">
        <ele>146.39999389648</ele>
        <time>2020-10-19T12:19:22.000Z</time>
      </trkpt>
      <trkpt lat="48.22605" lon="-3.1716">
        <ele>146.80000305176</ele>
        <time>2020-10-19T12:19:23.000Z</time>
      </trkpt>
      <trkpt lat="48.22605" lon="-3.17159">
        <ele>146.80000305176</ele>
        <time>2020-10-19T12:19:24.000Z</time>
      </trkpt>
      <trkpt lat="48.22604" lon="-3.17158">
        <ele>147</ele>
        <time>2020-10-19T12:19:25.000Z</time>
      </trkpt>
      <trkpt lat="48.22604" lon="-3.17156">
        <ele>147.19999694824</ele>
        <time>2020-10-19T12:19:26.000Z</time>
      </trkpt>
      <trkpt lat="48.22604" lon="-3.17155">
        <ele>147.39999389648</ele>
        <time>2020-10-19T12:19:27.000Z</time>
      </trkpt>
      <trkpt lat="48.22603" lon="-3.17154">
        <ele>147.39999389648</ele>
        <time>2020-10-19T12:19:28.000Z</time>
      </trkpt>
      <trkpt lat="48.22603" lon="-3.17153">
        <ele>147.60000610352</ele>
        <time>2020-10-19T12:19:29.000Z</time>
      </trkpt>
      <trkpt lat="48.22603" lon="-3.17152">
        <ele>147.80000305176</ele>
        <time>2020-10-19T12:19:30.000Z</time>
      </trkpt>
      <trkpt lat="48.22603" lon="-3.1715">
        <ele>148</ele>
        <time>2020-10-19T12:19:31.000Z</time>
      </trkpt>
      <trkpt lat="48.22603" lon="-3.17149">
        <ele>148</ele>
        <time>2020-10-19T12:19:32.000Z</time>
      </trkpt>
      <trkpt lat="48.22603" lon="-3.17148">
        <ele>148.19999694824</ele>
        <time>2020-10-19T12:19:33.000Z</time>
      </trkpt>
      <trkpt lat="48.22602" lon="-3.17147">
        <ele>148.39999389648</ele>
        <time>2020-10-19T12:19:34.000Z</time>
      </trkpt>
      <trkpt lat="48.22602" lon="-3.17146">
        <ele>148.60000610352</ele>
        <time>2020-10-19T12:19:35.000Z</time>
      </trkpt>
      <trkpt lat="48.22602" lon="-3.17144">
        <ele>148.60000610352</ele>
        <time>2020-10-19T12:19:36.000Z</time>
      </trkpt>
      <trkpt lat="48.22602" lon="-3.17143">
        <ele>148.80000305176</ele>
        <time>2020-10-19T12:19:37.000Z</time>
      </trkpt>
      <trkpt lat="48.22601" lon="-3.17142">
        <ele>149</ele>
        <time>2020-10-19T12:19:38.000Z</time>
      </trkpt>
      <trkpt lat="48.22601" lon="-3.1714">
        <ele>149.19999694824</ele>
        <time>2020-10-19T12:19:39.000Z</time>
      </trkpt>
      <trkpt lat="48.22601" lon="-3.17139">
        <ele>149.39999389648</ele>
        <time>2020-10-19T12:19:40.000Z</time>
      </trkpt>
      <trkpt lat="48.226" lon="-3.17138">
        <ele>149.60000610352</ele>
        <time>2020-10-19T12:19:41.000Z</time>
      </trkpt>
      <trkpt lat="48.226" lon="-3.17136">
        <ele>149.80000305176</ele>
        <time>2020-10-19T12:19:42.000Z</time>
      </trkpt>
      <trkpt lat="48.226" lon="-3.17135">
        <ele>150</ele>
        <time>2020-10-19T12:19:43.000Z</time>
      </trkpt>
      <trkpt lat="48.226" lon="-3.17133">
        <ele>150.19999694824</ele>
        <time>2020-10-19T12:19:44.000Z</time>
      </trkpt>
      <trkpt lat="48.226" lon="-3.17132">
        <ele>150.39999389648</ele>
        <time>2020-10-19T12:19:45.000Z</time>
      </trkpt>
      <trkpt lat="48.226" lon="-3.1713">
        <ele>150.60000610352</ele>
        <time>2020-10-19T12:19:46.000Z</time>
      </trkpt>
      <trkpt lat="48.22599" lon="-3.17129">
        <ele>150.60000610352</ele>
        <time>2020-10-19T12:19:47.000Z</time>
      </trkpt>
      <trkpt lat="48.22599" lon="-3.17127">
        <ele>150.80000305176</ele>
        <time>2020-10-19T12:19:48.000Z</time>
      </trkpt>
      <trkpt lat="48.22599" lon="-3.17126">
        <ele>151</ele>
        <time>2020-10-19T12:19:49.000Z</time>
      </trkpt>
      <trkpt lat="48.22599" lon="-3.17125">
        <ele>151.19999694824</ele>
        <time>2020-10-19T12:19:50.000Z</time>
      </trkpt>
      <trkpt lat="48.22599" lon="-3.17123">
        <ele>151.39999389648</ele>
        <time>2020-10-19T12:19:51.000Z</time>
      </trkpt>
      <trkpt lat="48.22598" lon="-3.17122">
        <ele>151.60000610352</ele>
        <time>2020-10-19T12:19:52.000Z</time>
      </trkpt>
      <trkpt lat="48.22598" lon="-3.1712">
        <ele>151.80000305176</ele>
        <time>2020-10-19T12:19:53.000Z</time>
      </trkpt>
      <trkpt lat="48.22598" lon="-3.17118">
        <ele>152</ele>
        <time>2020-10-19T12:19:54.000Z</time>
      </trkpt>
      <trkpt lat="48.22597" lon="-3.17117">
        <ele>152.19999694824</ele>
        <time>2020-10-19T12:19:55.000Z</time>
      </trkpt>
      <trkpt lat="48.22596" lon="-3.17115">
        <ele>152.39999389648</ele>
        <time>2020-10-19T12:19:56.000Z</time>
      </trkpt>
      <trkpt lat="48.22596" lon="-3.17114">
        <ele>152.60000610352</ele>
        <time>2020-10-19T12:19:57.000Z</time>
      </trkpt>
      <trkpt lat="48.22595" lon="-3.17113">
        <ele>152.80000305176</ele>
        <time>2020-10-19T12:19:58.000Z</time>
      </trkpt>
      <trkpt lat="48.22594" lon="-3.17111">
        <ele>153</ele>
        <time>2020-10-19T12:19:59.000Z</time>
      </trkpt>
      <trkpt lat="48.22594" lon="-3.1711">
        <ele>153</ele>
        <time>2020-10-19T12:20:00.000Z</time>
      </trkpt>
      <trkpt lat="48.22594" lon="-3.17109">
        <ele>153.19999694824</ele>
        <time>2020-10-19T12:20:01.000Z</time>
      </trkpt>
      <trkpt lat="48.22593" lon="-3.17108">
        <ele>153.19999694824</ele>
        <time>2020-10-19T12:20:02.000Z</time>
      </trkpt>
      <trkpt lat="48.22593" lon="-3.17106">
        <ele>153.39999389648</ele>
        <time>2020-10-19T12:20:03.000Z</time>
      </trkpt>
      <trkpt lat="48.22592" lon="-3.17105">
        <ele>153.60000610352</ele>
        <time>2020-10-19T12:20:04.000Z</time>
      </trkpt>
      <trkpt lat="48.22592" lon="-3.17104">
        <ele>153.60000610352</ele>
        <time>2020-10-19T12:20:05.000Z</time>
      </trkpt>
      <trkpt lat="48.22592" lon="-3.17103">
        <ele>153.80000305176</ele>
        <time>2020-10-19T12:20:06.000Z</time>
      </trkpt>
      <trkpt lat="48.22591" lon="-3.17103">
        <ele>153.80000305176</ele>
        <time>2020-10-19T12:20:07.000Z</time>
      </trkpt>
      <trkpt lat="48.22591" lon="-3.17102">
        <ele>153.80000305176</ele>
        <time>2020-10-19T12:20:08.000Z</time>
      </trkpt>
      <trkpt lat="48.22591" lon="-3.17101">
        <ele>154</ele>
        <time>2020-10-19T12:20:09.000Z</time>
      </trkpt>
      <trkpt lat="48.2259" lon="-3.171">
        <ele>154</ele>
        <time>2020-10-19T12:20:10.000Z</time>
      </trkpt>
      <trkpt lat="48.2259" lon="-3.17099">
        <ele>154.19999694824</ele>
        <time>2020-10-19T12:20:11.000Z</time>
      </trkpt>
      <trkpt lat="48.22589" lon="-3.17098">
        <ele>154.39999389648</ele>
        <time>2020-10-19T12:20:12.000Z</time>
      </trkpt>
      <trkpt lat="48.22589" lon="-3.17097">
        <ele>154.39999389648</ele>
        <time>2020-10-19T12:20:13.000Z</time>
      </trkpt>
      <trkpt lat="48.22589" lon="-3.17097">
        <ele>154.60000610352</ele>
        <time>2020-10-19T12:20:14.000Z</time>
      </trkpt>
      <trkpt lat="48.22589" lon="-3.17096">
        <ele>154.60000610352</ele>
        <time>2020-10-19T12:20:15.000Z</time>
      </trkpt>
      <trkpt lat="48.22588" lon="-3.17096">
        <ele>154.80000305176</ele>
        <time>2020-10-19T12:20:16.000Z</time>
      </trkpt>
      <trkpt lat="48.22588" lon="-3.17095">
        <ele>154.80000305176</ele>
        <time>2020-10-19T12:20:17.000Z</time>
      </trkpt>
      <trkpt lat="48.22588" lon="-3.17095">
        <ele>154.80000305176</ele>
        <time>2020-10-19T12:20:18.000Z</time>
      </trkpt>
      <trkpt lat="48.22588" lon="-3.17095">
        <ele>155</ele>
        <time>2020-10-19T12:20:19.000Z</time>
      </trkpt>
      <trkpt lat="48.22588" lon="-3.17095">
        <ele>155</ele>
        <time>2020-10-19T12:20:20.000Z</time>
      </trkpt>
      <trkpt lat="48.22588" lon="-3.17095">
        <ele>155</ele>
        <time>2020-10-19T12:20:21.000Z</time>
      </trkpt>
      <trkpt lat="48.22588" lon="-3.17094">
        <ele>155</ele>
        <time>2020-10-19T12:20:22.000Z</time>
      </trkpt>
      <trkpt lat="48.22589" lon="-3.17093">
        <ele>155.19999694824</ele>
        <time>2020-10-19T12:20:23.000Z</time>
      </trkpt>
      <trkpt lat="48.22589" lon="-3.17091">
        <ele>155.19999694824</ele>
        <time>2020-10-19T12:20:24.000Z</time>
      </trkpt>
      <trkpt lat="48.22589" lon="-3.1709">
        <ele>155.39999389648</ele>
        <time>2020-10-19T12:20:25.000Z</time>
      </trkpt>
      <trkpt lat="48.22589" lon="-3.17088">
        <ele>155.39999389648</ele>
        <time>2020-10-19T12:20:26.000Z</time>
      </trkpt>
      <trkpt lat="48.22589" lon="-3.17087">
        <ele>155.60000610352</ele>
        <time>2020-10-19T12:20:27.000Z</time>
      </trkpt>
      <trkpt lat="48.22588" lon="-3.17086">
        <ele>155.60000610352</ele>
        <time>2020-10-19T12:20:28.000Z</time>
      </trkpt>
      <trkpt lat="48.22588" lon="-3.17084">
        <ele>155.80000305176</ele>
        <time>2020-10-19T12:20:29.000Z</time>
      </trkpt>
      <trkpt lat="48.22587" lon="-3.17083">
        <ele>155.80000305176</ele>
        <time>2020-10-19T12:20:30.000Z</time>
      </trkpt>
      <trkpt lat="48.22587" lon="-3.17082">
        <ele>155.80000305176</ele>
        <time>2020-10-19T12:20:31.000Z</time>
      </trkpt>
      <trkpt lat="48.22587" lon="-3.17081">
        <ele>156</ele>
        <time>2020-10-19T12:20:32.000Z</time>
      </trkpt>
      <trkpt lat="48.22587" lon="-3.1708">
        <ele>156</ele>
        <time>2020-10-19T12:20:33.000Z</time>
      </trkpt>
      <trkpt lat="48.22587" lon="-3.17079">
        <ele>156.19999694824</ele>
        <time>2020-10-19T12:20:34.000Z</time>
      </trkpt>
      <trkpt lat="48.22586" lon="-3.17078">
        <ele>156.19999694824</ele>
        <time>2020-10-19T12:20:35.000Z</time>
      </trkpt>
      <trkpt lat="48.22586" lon="-3.17078">
        <ele>156.19999694824</ele>
        <time>2020-10-19T12:20:36.000Z</time>
      </trkpt>
      <trkpt lat="48.22587" lon="-3.17077">
        <ele>156.19999694824</ele>
        <time>2020-10-19T12:20:37.000Z</time>
      </trkpt>
      <trkpt lat="48.22587" lon="-3.17076">
        <ele>156.39999389648</ele>
        <time>2020-10-19T12:20:38.000Z</time>
      </trkpt>
      <trkpt lat="48.22586" lon="-3.17075">
        <ele>156.39999389648</ele>
        <time>2020-10-19T12:20:39.000Z</time>
      </trkpt>
      <trkpt lat="48.22586" lon="-3.17074">
        <ele>156.39999389648</ele>
        <time>2020-10-19T12:20:40.000Z</time>
      </trkpt>
      <trkpt lat="48.22586" lon="-3.17073">
        <ele>156.60000610352</ele>
        <time>2020-10-19T12:20:41.000Z</time>
      </trkpt>
      <trkpt lat="48.22586" lon="-3.17072">
        <ele>156.60000610352</ele>
        <time>2020-10-19T12:20:42.000Z</time>
      </trkpt>
      <trkpt lat="48.22586" lon="-3.17071">
        <ele>156.60000610352</ele>
        <time>2020-10-19T12:20:43.000Z</time>
      </trkpt>
      <trkpt lat="48.22586" lon="-3.1707">
        <ele>156.80000305176</ele>
        <time>2020-10-19T12:20:44.000Z</time>
      </trkpt>
      <trkpt lat="48.22586" lon="-3.17068">
        <ele>156.80000305176</ele>
        <time>2020-10-19T12:20:45.000Z</time>
      </trkpt>
      <trkpt lat="48.22585" lon="-3.17067">
        <ele>157</ele>
        <time>2020-10-19T12:20:46.000Z</time>
      </trkpt>
      <trkpt lat="48.22585" lon="-3.17065">
        <ele>157</ele>
        <time>2020-10-19T12:20:47.000Z</time>
      </trkpt>
      <trkpt lat="48.22585" lon="-3.17064">
        <ele>157.19999694824</ele>
        <time>2020-10-19T12:20:48.000Z</time>
      </trkpt>
      <trkpt lat="48.22584" lon="-3.17063">
        <ele>157.19999694824</ele>
        <time>2020-10-19T12:20:49.000Z</time>
      </trkpt>
      <trkpt lat="48.22584" lon="-3.17061">
        <ele>157.39999389648</ele>
        <time>2020-10-19T12:20:50.000Z</time>
      </trkpt>
      <trkpt lat="48.22582" lon="-3.1706">
        <ele>157.60000610352</ele>
        <time>2020-10-19T12:20:51.000Z</time>
      </trkpt>
      <trkpt lat="48.22581" lon="-3.17058">
        <ele>157.60000610352</ele>
        <time>2020-10-19T12:20:52.000Z</time>
      </trkpt>
      <trkpt lat="48.2258" lon="-3.17056">
        <ele>157.80000305176</ele>
        <time>2020-10-19T12:20:53.000Z</time>
      </trkpt>
      <trkpt lat="48.22579" lon="-3.17054">
        <ele>157.80000305176</ele>
        <time>2020-10-19T12:20:54.000Z</time>
      </trkpt>
      <trkpt lat="48.22579" lon="-3.17053">
        <ele>158</ele>
        <time>2020-10-19T12:20:55.000Z</time>
      </trkpt>
      <trkpt lat="48.22578" lon="-3.17052">
        <ele>158</ele>
        <time>2020-10-19T12:20:56.000Z</time>
      </trkpt>
      <trkpt lat="48.22578" lon="-3.17051">
        <ele>158.19999694824</ele>
        <time>2020-10-19T12:20:57.000Z</time>
      </trkpt>
      <trkpt lat="48.22578" lon="-3.1705">
        <ele>158.19999694824</ele>
        <time>2020-10-19T12:20:58.000Z</time>
      </trkpt>
      <trkpt lat="48.22577" lon="-3.17048">
        <ele>158.39999389648</ele>
        <time>2020-10-19T12:20:59.000Z</time>
      </trkpt>
      <trkpt lat="48.22577" lon="-3.17047">
        <ele>158.39999389648</ele>
        <time>2020-10-19T12:21:00.000Z</time>
      </trkpt>
      <trkpt lat="48.22576" lon="-3.17045">
        <ele>158.60000610352</ele>
        <time>2020-10-19T12:21:01.000Z</time>
      </trkpt>
      <trkpt lat="48.22576" lon="-3.17044">
        <ele>158.60000610352</ele>
        <time>2020-10-19T12:21:02.000Z</time>
      </trkpt>
      <trkpt lat="48.22575" lon="-3.17042">
        <ele>158.80000305176</ele>
        <time>2020-10-19T12:21:03.000Z</time>
      </trkpt>
      <trkpt lat="48.22575" lon="-3.17041">
        <ele>158.80000305176</ele>
        <time>2020-10-19T12:21:04.000Z</time>
      </trkpt>
      <trkpt lat="48.22574" lon="-3.1704">
        <ele>159</ele>
        <time>2020-10-19T12:21:05.000Z</time>
      </trkpt>
      <trkpt lat="48.22574" lon="-3.17038">
        <ele>159</ele>
        <time>2020-10-19T12:21:06.000Z</time>
      </trkpt>
      <trkpt lat="48.22573" lon="-3.17037">
        <ele>159.19999694824</ele>
        <time>2020-10-19T12:21:07.000Z</time>
      </trkpt>
      <trkpt lat="48.22572" lon="-3.17036">
        <ele>159.19999694824</ele>
        <time>2020-10-19T12:21:08.000Z</time>
      </trkpt>
      <trkpt lat="48.22572" lon="-3.17034">
        <ele>159.39999389648</ele>
        <time>2020-10-19T12:21:09.000Z</time>
      </trkpt>
      <trkpt lat="48.22571" lon="-3.17033">
        <ele>159.60000610352</ele>
        <time>2020-10-19T12:21:10.000Z</time>
      </trkpt>
      <trkpt lat="48.22571" lon="-3.17032">
        <ele>159.60000610352</ele>
        <time>2020-10-19T12:21:11.000Z</time>
      </trkpt>
      <trkpt lat="48.2257" lon="-3.1703">
        <ele>159.80000305176</ele>
        <time>2020-10-19T12:21:12.000Z</time>
      </trkpt>
      <trkpt lat="48.2257" lon="-3.17029">
        <ele>160</ele>
        <time>2020-10-19T12:21:13.000Z</time>
      </trkpt>
      <trkpt lat="48.2257" lon="-3.17028">
        <ele>160.19999694824</ele>
        <time>2020-10-19T12:21:14.000Z</time>
      </trkpt>
      <trkpt lat="48.22569" lon="-3.17027">
        <ele>160.19999694824</ele>
        <time>2020-10-19T12:21:15.000Z</time>
      </trkpt>
      <trkpt lat="48.22569" lon="-3.17025">
        <ele>160.39999389648</ele>
        <time>2020-10-19T12:21:16.000Z</time>
      </trkpt>
      <trkpt lat="48.22569" lon="-3.17024">
        <ele>160.60000610352</ele>
        <time>2020-10-19T12:21:17.000Z</time>
      </trkpt>
      <trkpt lat="48.22568" lon="-3.17023">
        <ele>160.80000305176</ele>
        <time>2020-10-19T12:21:18.000Z</time>
      </trkpt>
      <trkpt lat="48.22568" lon="-3.17021">
        <ele>160.80000305176</ele>
        <time>2020-10-19T12:21:19.000Z</time>
      </trkpt>
      <trkpt lat="48.22568" lon="-3.1702">
        <ele>161</ele>
        <time>2020-10-19T12:21:20.000Z</time>
      </trkpt>
      <trkpt lat="48.22567" lon="-3.17019">
        <ele>161.19999694824</ele>
        <time>2020-10-19T12:21:21.000Z</time>
      </trkpt>
      <trkpt lat="48.22567" lon="-3.17018">
        <ele>161.39999389648</ele>
        <time>2020-10-19T12:21:22.000Z</time>
      </trkpt>
      <trkpt lat="48.22567" lon="-3.17017">
        <ele>161.39999389648</ele>
        <time>2020-10-19T12:21:23.000Z</time>
      </trkpt>
      <trkpt lat="48.22567" lon="-3.17016">
        <ele>161.60000610352</ele>
        <time>2020-10-19T12:21:24.000Z</time>
      </trkpt>
      <trkpt lat="48.22567" lon="-3.17015">
        <ele>161.60000610352</ele>
        <time>2020-10-19T12:21:25.000Z</time>
      </trkpt>
      <trkpt lat="48.22567" lon="-3.17014">
        <ele>161.60000610352</ele>
        <time>2020-10-19T12:21:26.000Z</time>
      </trkpt>
      <trkpt lat="48.22567" lon="-3.17013">
        <ele>161.80000305176</ele>
        <time>2020-10-19T12:21:27.000Z</time>
      </trkpt>
      <trkpt lat="48.22567" lon="-3.17013">
        <ele>161.80000305176</ele>
        <time>2020-10-19T12:21:28.000Z</time>
      </trkpt>
      <trkpt lat="48.22567" lon="-3.17012">
        <ele>162</ele>
        <time>2020-10-19T12:21:29.000Z</time>
      </trkpt>
      <trkpt lat="48.22567" lon="-3.17011">
        <ele>162</ele>
        <time>2020-10-19T12:21:30.000Z</time>
      </trkpt>
      <trkpt lat="48.22566" lon="-3.1701">
        <ele>162.19999694824</ele>
        <time>2020-10-19T12:21:31.000Z</time>
      </trkpt>
      <trkpt lat="48.22566" lon="-3.17009">
        <ele>162.19999694824</ele>
        <time>2020-10-19T12:21:32.000Z</time>
      </trkpt>
      <trkpt lat="48.22565" lon="-3.17008">
        <ele>162.19999694824</ele>
        <time>2020-10-19T12:21:33.000Z</time>
      </trkpt>
      <trkpt lat="48.22565" lon="-3.17008">
        <ele>162.39999389648</ele>
        <time>2020-10-19T12:21:34.000Z</time>
      </trkpt>
      <trkpt lat="48.22564" lon="-3.17007">
        <ele>162.39999389648</ele>
        <time>2020-10-19T12:21:35.000Z</time>
      </trkpt>
      <trkpt lat="48.22564" lon="-3.17007">
        <ele>162.39999389648</ele>
        <time>2020-10-19T12:21:36.000Z</time>
      </trkpt>
      <trkpt lat="48.22564" lon="-3.17006">
        <ele>162.60000610352</ele>
        <time>2020-10-19T12:21:37.000Z</time>
      </trkpt>
      <trkpt lat="48.22563" lon="-3.17005">
        <ele>162.60000610352</ele>
        <time>2020-10-19T12:21:38.000Z</time>
      </trkpt>
      <trkpt lat="48.22562" lon="-3.17004">
        <ele>162.60000610352</ele>
        <time>2020-10-19T12:21:39.000Z</time>
      </trkpt>
      <trkpt lat="48.22562" lon="-3.17002">
        <ele>162.80000305176</ele>
        <time>2020-10-19T12:21:40.000Z</time>
      </trkpt>
      <trkpt lat="48.22561" lon="-3.17002">
        <ele>163</ele>
        <time>2020-10-19T12:21:41.000Z</time>
      </trkpt>
      <trkpt lat="48.22561" lon="-3.17">
        <ele>163</ele>
        <time>2020-10-19T12:21:42.000Z</time>
      </trkpt>
      <trkpt lat="48.22559" lon="-3.16998">
        <ele>163.19999694824</ele>
        <time>2020-10-19T12:21:43.000Z</time>
      </trkpt>
      <trkpt lat="48.22559" lon="-3.16998">
        <ele>163.19999694824</ele>
        <time>2020-10-19T12:21:44.000Z</time>
      </trkpt>
      <trkpt lat="48.22558" lon="-3.16997">
        <ele>163.39999389648</ele>
        <time>2020-10-19T12:21:45.000Z</time>
      </trkpt>
      <trkpt lat="48.22557" lon="-3.16996">
        <ele>163.39999389648</ele>
        <time>2020-10-19T12:21:46.000Z</time>
      </trkpt>
      <trkpt lat="48.22556" lon="-3.16995">
        <ele>163.60000610352</ele>
        <time>2020-10-19T12:21:47.000Z</time>
      </trkpt>
      <trkpt lat="48.22556" lon="-3.16995">
        <ele>163.60000610352</ele>
        <time>2020-10-19T12:21:48.000Z</time>
      </trkpt>
      <trkpt lat="48.22554" lon="-3.16994">
        <ele>163.60000610352</ele>
        <time>2020-10-19T12:21:49.000Z</time>
      </trkpt>
      <trkpt lat="48.22554" lon="-3.16994">
        <ele>163.80000305176</ele>
        <time>2020-10-19T12:21:50.000Z</time>
      </trkpt>
      <trkpt lat="48.22553" lon="-3.16995">
        <ele>163.80000305176</ele>
        <time>2020-10-19T12:21:51.000Z</time>
      </trkpt>
      <trkpt lat="48.22552" lon="-3.16995">
        <ele>163.80000305176</ele>
        <time>2020-10-19T12:21:52.000Z</time>
      </trkpt>
      <trkpt lat="48.22552" lon="-3.16995">
        <ele>163.80000305176</ele>
        <time>2020-10-19T12:21:53.000Z</time>
      </trkpt>
      <trkpt lat="48.22552" lon="-3.16994">
        <ele>163.80000305176</ele>
        <time>2020-10-19T12:21:54.000Z</time>
      </trkpt>
      <trkpt lat="48.22551" lon="-3.16995">
        <ele>163.80000305176</ele>
        <time>2020-10-19T12:21:55.000Z</time>
      </trkpt>
      <trkpt lat="48.22551" lon="-3.16996">
        <ele>163.80000305176</ele>
        <time>2020-10-19T12:21:56.000Z</time>
      </trkpt>
      <trkpt lat="48.2255" lon="-3.16997">
        <ele>163.60000610352</ele>
        <time>2020-10-19T12:21:57.000Z</time>
      </trkpt>
      <trkpt lat="48.2255" lon="-3.16997">
        <ele>163.60000610352</ele>
        <time>2020-10-19T12:21:58.000Z</time>
      </trkpt>
      <trkpt lat="48.22549" lon="-3.16998">
        <ele>163.60000610352</ele>
        <time>2020-10-19T12:21:59.000Z</time>
      </trkpt>
      <trkpt lat="48.22549" lon="-3.16999">
        <ele>163.60000610352</ele>
        <time>2020-10-19T12:22:00.000Z</time>
      </trkpt>
      <trkpt lat="48.22549" lon="-3.17">
        <ele>163.39999389648</ele>
        <time>2020-10-19T12:22:01.000Z</time>
      </trkpt>
      <trkpt lat="48.22549" lon="-3.17002">
        <ele>163.39999389648</ele>
        <time>2020-10-19T12:22:02.000Z</time>
      </trkpt>
      <trkpt lat="48.22549" lon="-3.17003">
        <ele>163.19999694824</ele>
        <time>2020-10-19T12:22:03.000Z</time>
      </trkpt>
      <trkpt lat="48.22548" lon="-3.17004">
        <ele>163.19999694824</ele>
        <time>2020-10-19T12:22:04.000Z</time>
      </trkpt>
      <trkpt lat="48.22548" lon="-3.17005">
        <ele>163.19999694824</ele>
        <time>2020-10-19T12:22:05.000Z</time>
      </trkpt>
      <trkpt lat="48.22548" lon="-3.17006">
        <ele>163</ele>
        <time>2020-10-19T12:22:06.000Z</time>
      </trkpt>
      <trkpt lat="48.22547" lon="-3.17008">
        <ele>163</ele>
        <time>2020-10-19T12:22:07.000Z</time>
      </trkpt>
      <trkpt lat="48.22547" lon="-3.17009">
        <ele>163</ele>
        <time>2020-10-19T12:22:08.000Z</time>
      </trkpt>
      <trkpt lat="48.22546" lon="-3.1701">
        <ele>162.80000305176</ele>
        <time>2020-10-19T12:22:09.000Z</time>
      </trkpt>
      <trkpt lat="48.22546" lon="-3.17011">
        <ele>162.80000305176</ele>
        <time>2020-10-19T12:22:10.000Z</time>
      </trkpt>
      <trkpt lat="48.22545" lon="-3.17012">
        <ele>162.60000610352</ele>
        <time>2020-10-19T12:22:11.000Z</time>
      </trkpt>
      <trkpt lat="48.22545" lon="-3.17013">
        <ele>162.60000610352</ele>
        <time>2020-10-19T12:22:12.000Z</time>
      </trkpt>
      <trkpt lat="48.22544" lon="-3.17014">
        <ele>162.39999389648</ele>
        <time>2020-10-19T12:22:13.000Z</time>
      </trkpt>
      <trkpt lat="48.22544" lon="-3.17015">
        <ele>162.39999389648</ele>
        <time>2020-10-19T12:22:14.000Z</time>
      </trkpt>
      <trkpt lat="48.22543" lon="-3.17016">
        <ele>162.39999389648</ele>
        <time>2020-10-19T12:22:15.000Z</time>
      </trkpt>
      <trkpt lat="48.22543" lon="-3.17017">
        <ele>162.19999694824</ele>
        <time>2020-10-19T12:22:16.000Z</time>
      </trkpt>
      <trkpt lat="48.22542" lon="-3.17018">
        <ele>162.19999694824</ele>
        <time>2020-10-19T12:22:17.000Z</time>
      </trkpt>
      <trkpt lat="48.22542" lon="-3.17021">
        <ele>162</ele>
        <time>2020-10-19T12:22:18.000Z</time>
      </trkpt>
      <trkpt lat="48.2254" lon="-3.17023">
        <ele>161.60000610352</ele>
        <time>2020-10-19T12:22:19.000Z</time>
      </trkpt>
      <trkpt lat="48.2254" lon="-3.17023">
        <ele>161.60000610352</ele>
        <time>2020-10-19T12:22:20.000Z</time>
      </trkpt>
      <trkpt lat="48.2254" lon="-3.17025">
        <ele>161.60000610352</ele>
        <time>2020-10-19T12:22:21.000Z</time>
      </trkpt>
      <trkpt lat="48.22539" lon="-3.17026">
        <ele>161.39999389648</ele>
        <time>2020-10-19T12:22:22.000Z</time>
      </trkpt>
      <trkpt lat="48.22539" lon="-3.17026">
        <ele>161.39999389648</ele>
        <time>2020-10-19T12:22:23.000Z</time>
      </trkpt>
      <trkpt lat="48.22539" lon="-3.17027">
        <ele>161.39999389648</ele>
        <time>2020-10-19T12:22:24.000Z</time>
      </trkpt>
      <trkpt lat="48.22538" lon="-3.17028">
        <ele>161.19999694824</ele>
        <time>2020-10-19T12:22:25.000Z</time>
      </trkpt>
      <trkpt lat="48.22537" lon="-3.17029">
        <ele>161.19999694824</ele>
        <time>2020-10-19T12:22:26.000Z</time>
      </trkpt>
      <trkpt lat="48.22537" lon="-3.17031">
        <ele>161</ele>
        <time>2020-10-19T12:22:27.000Z</time>
      </trkpt>
      <trkpt lat="48.22537" lon="-3.17032">
        <ele>160.80000305176</ele>
        <time>2020-10-19T12:22:28.000Z</time>
      </trkpt>
      <trkpt lat="48.22536" lon="-3.17033">
        <ele>160.80000305176</ele>
        <time>2020-10-19T12:22:29.000Z</time>
      </trkpt>
      <trkpt lat="48.22535" lon="-3.17034">
        <ele>160.80000305176</ele>
        <time>2020-10-19T12:22:30.000Z</time>
      </trkpt>
      <trkpt lat="48.22535" lon="-3.17035">
        <ele>160.60000610352</ele>
        <time>2020-10-19T12:22:31.000Z</time>
      </trkpt>
      <trkpt lat="48.22534" lon="-3.17036">
        <ele>160.60000610352</ele>
        <time>2020-10-19T12:22:32.000Z</time>
      </trkpt>
      <trkpt lat="48.22534" lon="-3.17037">
        <ele>160.39999389648</ele>
        <time>2020-10-19T12:22:33.000Z</time>
      </trkpt>
      <trkpt lat="48.22533" lon="-3.17038">
        <ele>160.39999389648</ele>
        <time>2020-10-19T12:22:34.000Z</time>
      </trkpt>
      <trkpt lat="48.22533" lon="-3.17039">
        <ele>160.19999694824</ele>
        <time>2020-10-19T12:22:35.000Z</time>
      </trkpt>
      <trkpt lat="48.22532" lon="-3.17041">
        <ele>160</ele>
        <time>2020-10-19T12:22:36.000Z</time>
      </trkpt>
      <trkpt lat="48.22532" lon="-3.17042">
        <ele>160</ele>
        <time>2020-10-19T12:22:37.000Z</time>
      </trkpt>
      <trkpt lat="48.22531" lon="-3.17045">
        <ele>159.60000610352</ele>
        <time>2020-10-19T12:22:38.000Z</time>
      </trkpt>
      <trkpt lat="48.22531" lon="-3.17046">
        <ele>159.60000610352</ele>
        <time>2020-10-19T12:22:39.000Z</time>
      </trkpt>
      <trkpt lat="48.2253" lon="-3.17047">
        <ele>159.39999389648</ele>
        <time>2020-10-19T12:22:40.000Z</time>
      </trkpt>
      <trkpt lat="48.2253" lon="-3.17049">
        <ele>159.39999389648</ele>
        <time>2020-10-19T12:22:41.000Z</time>
      </trkpt>
      <trkpt lat="48.22529" lon="-3.1705">
        <ele>159.19999694824</ele>
        <time>2020-10-19T12:22:42.000Z</time>
      </trkpt>
      <trkpt lat="48.22528" lon="-3.17051">
        <ele>159.19999694824</ele>
        <time>2020-10-19T12:22:43.000Z</time>
      </trkpt>
      <trkpt lat="48.22528" lon="-3.17052">
        <ele>159</ele>
        <time>2020-10-19T12:22:44.000Z</time>
      </trkpt>
      <trkpt lat="48.22528" lon="-3.17053">
        <ele>159</ele>
        <time>2020-10-19T12:22:45.000Z</time>
      </trkpt>
      <trkpt lat="48.22528" lon="-3.17054">
        <ele>158.80000305176</ele>
        <time>2020-10-19T12:22:46.000Z</time>
      </trkpt>
      <trkpt lat="48.22528" lon="-3.17056">
        <ele>158.60000610352</ele>
        <time>2020-10-19T12:22:47.000Z</time>
      </trkpt>
      <trkpt lat="48.22528" lon="-3.17057">
        <ele>158.39999389648</ele>
        <time>2020-10-19T12:22:48.000Z</time>
      </trkpt>
      <trkpt lat="48.22527" lon="-3.17058">
        <ele>158.39999389648</ele>
        <time>2020-10-19T12:22:49.000Z</time>
      </trkpt>
      <trkpt lat="48.22527" lon="-3.1706">
        <ele>158.19999694824</ele>
        <time>2020-10-19T12:22:50.000Z</time>
      </trkpt>
      <trkpt lat="48.22527" lon="-3.17061">
        <ele>158</ele>
        <time>2020-10-19T12:22:51.000Z</time>
      </trkpt>
      <trkpt lat="48.22527" lon="-3.17062">
        <ele>158</ele>
        <time>2020-10-19T12:22:52.000Z</time>
      </trkpt>
      <trkpt lat="48.22526" lon="-3.17063">
        <ele>157.80000305176</ele>
        <time>2020-10-19T12:22:53.000Z</time>
      </trkpt>
      <trkpt lat="48.22526" lon="-3.17064">
        <ele>157.80000305176</ele>
        <time>2020-10-19T12:22:54.000Z</time>
      </trkpt>
      <trkpt lat="48.22526" lon="-3.17065">
        <ele>157.60000610352</ele>
        <time>2020-10-19T12:22:55.000Z</time>
      </trkpt>
      <trkpt lat="48.22526" lon="-3.17066">
        <ele>157.60000610352</ele>
        <time>2020-10-19T12:22:56.000Z</time>
      </trkpt>
      <trkpt lat="48.22526" lon="-3.17067">
        <ele>157.39999389648</ele>
        <time>2020-10-19T12:22:57.000Z</time>
      </trkpt>
      <trkpt lat="48.22526" lon="-3.17068">
        <ele>157.39999389648</ele>
        <time>2020-10-19T12:22:58.000Z</time>
      </trkpt>
      <trkpt lat="48.22525" lon="-3.17069">
        <ele>157.19999694824</ele>
        <time>2020-10-19T12:22:59.000Z</time>
      </trkpt>
      <trkpt lat="48.22525" lon="-3.1707">
        <ele>157.19999694824</ele>
        <time>2020-10-19T12:23:00.000Z</time>
      </trkpt>
      <trkpt lat="48.22525" lon="-3.17072">
        <ele>157</ele>
        <time>2020-10-19T12:23:01.000Z</time>
      </trkpt>
      <trkpt lat="48.22524" lon="-3.17073">
        <ele>156.80000305176</ele>
        <time>2020-10-19T12:23:02.000Z</time>
      </trkpt>
      <trkpt lat="48.22524" lon="-3.17074">
        <ele>156.80000305176</ele>
        <time>2020-10-19T12:23:03.000Z</time>
      </trkpt>
      <trkpt lat="48.22524" lon="-3.17076">
        <ele>156.60000610352</ele>
        <time>2020-10-19T12:23:04.000Z</time>
      </trkpt>
      <trkpt lat="48.22523" lon="-3.17077">
        <ele>156.39999389648</ele>
        <time>2020-10-19T12:23:05.000Z</time>
      </trkpt>
      <trkpt lat="48.22523" lon="-3.17078">
        <ele>156.39999389648</ele>
        <time>2020-10-19T12:23:06.000Z</time>
      </trkpt>
      <trkpt lat="48.22523" lon="-3.1708">
        <ele>156.19999694824</ele>
        <time>2020-10-19T12:23:07.000Z</time>
      </trkpt>
      <trkpt lat="48.22523" lon="-3.17082">
        <ele>156</ele>
        <time>2020-10-19T12:23:08.000Z</time>
      </trkpt>
      <trkpt lat="48.22523" lon="-3.17083">
        <ele>155.80000305176</ele>
        <time>2020-10-19T12:23:09.000Z</time>
      </trkpt>
      <trkpt lat="48.22523" lon="-3.17084">
        <ele>155.80000305176</ele>
        <time>2020-10-19T12:23:10.000Z</time>
      </trkpt>
      <trkpt lat="48.22524" lon="-3.17085">
        <ele>155.60000610352</ele>
        <time>2020-10-19T12:23:11.000Z</time>
      </trkpt>
      <trkpt lat="48.22524" lon="-3.17086">
        <ele>155.60000610352</ele>
        <time>2020-10-19T12:23:12.000Z</time>
      </trkpt>
      <trkpt lat="48.22524" lon="-3.17087">
        <ele>155.60000610352</ele>
        <time>2020-10-19T12:23:13.000Z</time>
      </trkpt>
      <trkpt lat="48.22524" lon="-3.17088">
        <ele>155.39999389648</ele>
        <time>2020-10-19T12:23:14.000Z</time>
      </trkpt>
      <trkpt lat="48.22524" lon="-3.17089">
        <ele>155.39999389648</ele>
        <time>2020-10-19T12:23:15.000Z</time>
      </trkpt>
      <trkpt lat="48.22524" lon="-3.17089">
        <ele>155.39999389648</ele>
        <time>2020-10-19T12:23:16.000Z</time>
      </trkpt>
      <trkpt lat="48.22524" lon="-3.1709">
        <ele>155.39999389648</ele>
        <time>2020-10-19T12:23:17.000Z</time>
      </trkpt>
      <trkpt lat="48.22523" lon="-3.17091">
        <ele>155.19999694824</ele>
        <time>2020-10-19T12:23:18.000Z</time>
      </trkpt>
      <trkpt lat="48.22523" lon="-3.17092">
        <ele>155.19999694824</ele>
        <time>2020-10-19T12:23:19.000Z</time>
      </trkpt>
      <trkpt lat="48.22523" lon="-3.17093">
        <ele>155.19999694824</ele>
        <time>2020-10-19T12:23:20.000Z</time>
      </trkpt>
      <trkpt lat="48.22523" lon="-3.17094">
        <ele>155</ele>
        <time>2020-10-19T12:23:21.000Z</time>
      </trkpt>
      <trkpt lat="48.22523" lon="-3.17095">
        <ele>155</ele>
        <time>2020-10-19T12:23:22.000Z</time>
      </trkpt>
      <trkpt lat="48.22523" lon="-3.17096">
        <ele>154.80000305176</ele>
        <time>2020-10-19T12:23:23.000Z</time>
      </trkpt>
      <trkpt lat="48.22523" lon="-3.17096">
        <ele>154.60000610352</ele>
        <time>2020-10-19T12:23:24.000Z</time>
      </trkpt>
      <trkpt lat="48.22523" lon="-3.17097">
        <ele>154.60000610352</ele>
        <time>2020-10-19T12:23:25.000Z</time>
      </trkpt>
      <trkpt lat="48.22523" lon="-3.17098">
        <ele>154.39999389648</ele>
        <time>2020-10-19T12:23:26.000Z</time>
      </trkpt>
      <trkpt lat="48.22522" lon="-3.17099">
        <ele>154.19999694824</ele>
        <time>2020-10-19T12:23:27.000Z</time>
      </trkpt>
      <trkpt lat="48.22522" lon="-3.17101">
        <ele>153.80000305176</ele>
        <time>2020-10-19T12:23:28.000Z</time>
      </trkpt>
      <trkpt lat="48.22522" lon="-3.17102">
        <ele>153.60000610352</ele>
        <time>2020-10-19T12:23:29.000Z</time>
      </trkpt>
      <trkpt lat="48.22522" lon="-3.17103">
        <ele>153.39999389648</ele>
        <time>2020-10-19T12:23:30.000Z</time>
      </trkpt>
      <trkpt lat="48.22521" lon="-3.17104">
        <ele>153.19999694824</ele>
        <time>2020-10-19T12:23:31.000Z</time>
      </trkpt>
      <trkpt lat="48.22521" lon="-3.17105">
        <ele>153</ele>
        <time>2020-10-19T12:23:32.000Z</time>
      </trkpt>
      <trkpt lat="48.22521" lon="-3.17107">
        <ele>152.80000305176</ele>
        <time>2020-10-19T12:23:33.000Z</time>
      </trkpt>
      <trkpt lat="48.22521" lon="-3.17108">
        <ele>152.60000610352</ele>
        <time>2020-10-19T12:23:34.000Z</time>
      </trkpt>
      <trkpt lat="48.2252" lon="-3.17111">
        <ele>152</ele>
        <time>2020-10-19T12:23:35.000Z</time>
      </trkpt>
      <trkpt lat="48.22519" lon="-3.17113">
        <ele>151.60000610352</ele>
        <time>2020-10-19T12:23:36.000Z</time>
      </trkpt>
      <trkpt lat="48.22519" lon="-3.17116">
        <ele>151.19999694824</ele>
        <time>2020-10-19T12:23:37.000Z</time>
      </trkpt>
      <trkpt lat="48.22519" lon="-3.17118">
        <ele>150.80000305176</ele>
        <time>2020-10-19T12:23:38.000Z</time>
      </trkpt>
      <trkpt lat="48.22519" lon="-3.1712">
        <ele>150.39999389648</ele>
        <time>2020-10-19T12:23:39.000Z</time>
      </trkpt>
      <trkpt lat="48.22518" lon="-3.17123">
        <ele>149.80000305176</ele>
        <time>2020-10-19T12:23:40.000Z</time>
      </trkpt>
      <trkpt lat="48.22518" lon="-3.17123">
        <ele>149.80000305176</ele>
        <time>2020-10-19T12:23:41.000Z</time>
      </trkpt>
      <trkpt lat="48.22518" lon="-3.17124">
        <ele>149.60000610352</ele>
        <time>2020-10-19T12:23:42.000Z</time>
      </trkpt>
      <trkpt lat="48.22517" lon="-3.17126">
        <ele>149.39999389648</ele>
        <time>2020-10-19T12:23:43.000Z</time>
      </trkpt>
      <trkpt lat="48.22517" lon="-3.17128">
        <ele>149</ele>
        <time>2020-10-19T12:23:44.000Z</time>
      </trkpt>
      <trkpt lat="48.22516" lon="-3.17129">
        <ele>148.80000305176</ele>
        <time>2020-10-19T12:23:45.000Z</time>
      </trkpt>
      <trkpt lat="48.22516" lon="-3.1713">
        <ele>148.60000610352</ele>
        <time>2020-10-19T12:23:46.000Z</time>
      </trkpt>
      <trkpt lat="48.22515" lon="-3.17132">
        <ele>148.39999389648</ele>
        <time>2020-10-19T12:23:47.000Z</time>
      </trkpt>
      <trkpt lat="48.22515" lon="-3.17133">
        <ele>148</ele>
        <time>2020-10-19T12:23:48.000Z</time>
      </trkpt>
      <trkpt lat="48.22515" lon="-3.17134">
        <ele>147.80000305176</ele>
        <time>2020-10-19T12:23:49.000Z</time>
      </trkpt>
      <trkpt lat="48.22514" lon="-3.17135">
        <ele>147.80000305176</ele>
        <time>2020-10-19T12:23:50.000Z</time>
      </trkpt>
      <trkpt lat="48.22514" lon="-3.17136">
        <ele>147.60000610352</ele>
        <time>2020-10-19T12:23:51.000Z</time>
      </trkpt>
      <trkpt lat="48.22513" lon="-3.17137">
        <ele>147.39999389648</ele>
        <time>2020-10-19T12:23:52.000Z</time>
      </trkpt>
      <trkpt lat="48.22513" lon="-3.17138">
        <ele>147.19999694824</ele>
        <time>2020-10-19T12:23:53.000Z</time>
      </trkpt>
      <trkpt lat="48.22512" lon="-3.1714">
        <ele>146.80000305176</ele>
        <time>2020-10-19T12:23:54.000Z</time>
      </trkpt>
      <trkpt lat="48.22512" lon="-3.17141">
        <ele>146.60000610352</ele>
        <time>2020-10-19T12:23:55.000Z</time>
      </trkpt>
      <trkpt lat="48.22511" lon="-3.17142">
        <ele>146.39999389648</ele>
        <time>2020-10-19T12:23:56.000Z</time>
      </trkpt>
      <trkpt lat="48.2251" lon="-3.17143">
        <ele>146.19999694824</ele>
        <time>2020-10-19T12:23:57.000Z</time>
      </trkpt>
      <trkpt lat="48.2251" lon="-3.17143">
        <ele>146.19999694824</ele>
        <time>2020-10-19T12:23:58.000Z</time>
      </trkpt>
      <trkpt lat="48.22509" lon="-3.17144">
        <ele>146</ele>
        <time>2020-10-19T12:23:59.000Z</time>
      </trkpt>
      <trkpt lat="48.22507" lon="-3.17146">
        <ele>145.60000610352</ele>
        <time>2020-10-19T12:24:00.000Z</time>
      </trkpt>
      <trkpt lat="48.22507" lon="-3.17146">
        <ele>145.60000610352</ele>
        <time>2020-10-19T12:24:01.000Z</time>
      </trkpt>
      <trkpt lat="48.22506" lon="-3.17146">
        <ele>145.60000610352</ele>
        <time>2020-10-19T12:24:02.000Z</time>
      </trkpt>
      <trkpt lat="48.22506" lon="-3.17146">
        <ele>145.60000610352</ele>
        <time>2020-10-19T12:24:03.000Z</time>
      </trkpt>
      <trkpt lat="48.22505" lon="-3.17146">
        <ele>145.39999389648</ele>
        <time>2020-10-19T12:24:04.000Z</time>
      </trkpt>
      <trkpt lat="48.22504" lon="-3.17146">
        <ele>145.60000610352</ele>
        <time>2020-10-19T12:24:05.000Z</time>
      </trkpt>
      <trkpt lat="48.22503" lon="-3.17146">
        <ele>145.60000610352</ele>
        <time>2020-10-19T12:24:06.000Z</time>
      </trkpt>
      <trkpt lat="48.22502" lon="-3.17145">
        <ele>145.60000610352</ele>
        <time>2020-10-19T12:24:07.000Z</time>
      </trkpt>
      <trkpt lat="48.22501" lon="-3.17144">
        <ele>145.80000305176</ele>
        <time>2020-10-19T12:24:08.000Z</time>
      </trkpt>
      <trkpt lat="48.22501" lon="-3.17144">
        <ele>145.80000305176</ele>
        <time>2020-10-19T12:24:09.000Z</time>
      </trkpt>
      <trkpt lat="48.225" lon="-3.17143">
        <ele>146</ele>
        <time>2020-10-19T12:24:10.000Z</time>
      </trkpt>
      <trkpt lat="48.22499" lon="-3.17143">
        <ele>146</ele>
        <time>2020-10-19T12:24:11.000Z</time>
      </trkpt>
      <trkpt lat="48.22498" lon="-3.17142">
        <ele>146.19999694824</ele>
        <time>2020-10-19T12:24:12.000Z</time>
      </trkpt>
      <trkpt lat="48.22497" lon="-3.17141">
        <ele>146.19999694824</ele>
        <time>2020-10-19T12:24:13.000Z</time>
      </trkpt>
      <trkpt lat="48.22496" lon="-3.17141">
        <ele>146.19999694824</ele>
        <time>2020-10-19T12:24:14.000Z</time>
      </trkpt>
      <trkpt lat="48.22496" lon="-3.1714">
        <ele>146.39999389648</ele>
        <time>2020-10-19T12:24:15.000Z</time>
      </trkpt>
      <trkpt lat="48.22495" lon="-3.17139">
        <ele>146.60000610352</ele>
        <time>2020-10-19T12:24:16.000Z</time>
      </trkpt>
      <trkpt lat="48.22495" lon="-3.17139">
        <ele>146.60000610352</ele>
        <time>2020-10-19T12:24:17.000Z</time>
      </trkpt>
      <trkpt lat="48.22494" lon="-3.17138">
        <ele>146.80000305176</ele>
        <time>2020-10-19T12:24:18.000Z</time>
      </trkpt>
      <trkpt lat="48.22494" lon="-3.17137">
        <ele>146.80000305176</ele>
        <time>2020-10-19T12:24:19.000Z</time>
      </trkpt>
      <trkpt lat="48.22493" lon="-3.17136">
        <ele>147</ele>
        <time>2020-10-19T12:24:20.000Z</time>
      </trkpt>
      <trkpt lat="48.22493" lon="-3.17135">
        <ele>147.19999694824</ele>
        <time>2020-10-19T12:24:21.000Z</time>
      </trkpt>
      <trkpt lat="48.22492" lon="-3.17135">
        <ele>147.19999694824</ele>
        <time>2020-10-19T12:24:22.000Z</time>
      </trkpt>
      <trkpt lat="48.22491" lon="-3.17135">
        <ele>147.19999694824</ele>
        <time>2020-10-19T12:24:23.000Z</time>
      </trkpt>
      <trkpt lat="48.22489" lon="-3.17134">
        <ele>147.39999389648</ele>
        <time>2020-10-19T12:24:24.000Z</time>
      </trkpt>
      <trkpt lat="48.22488" lon="-3.17133">
        <ele>147.39999389648</ele>
        <time>2020-10-19T12:24:25.000Z</time>
      </trkpt>
      <trkpt lat="48.22487" lon="-3.17132">
        <ele>147.60000610352</ele>
        <time>2020-10-19T12:24:26.000Z</time>
      </trkpt>
      <trkpt lat="48.22486" lon="-3.17132">
        <ele>147.60000610352</ele>
        <time>2020-10-19T12:24:27.000Z</time>
      </trkpt>
      <trkpt lat="48.22485" lon="-3.17131">
        <ele>147.80000305176</ele>
        <time>2020-10-19T12:24:28.000Z</time>
      </trkpt>
      <trkpt lat="48.22484" lon="-3.17131">
        <ele>147.80000305176</ele>
        <time>2020-10-19T12:24:29.000Z</time>
      </trkpt>
      <trkpt lat="48.22483" lon="-3.1713">
        <ele>147.80000305176</ele>
        <time>2020-10-19T12:24:30.000Z</time>
      </trkpt>
      <trkpt lat="48.22482" lon="-3.17129">
        <ele>148</ele>
        <time>2020-10-19T12:24:31.000Z</time>
      </trkpt>
      <trkpt lat="48.22481" lon="-3.17128">
        <ele>148.19999694824</ele>
        <time>2020-10-19T12:24:32.000Z</time>
      </trkpt>
      <trkpt lat="48.2248" lon="-3.17127">
        <ele>148.19999694824</ele>
        <time>2020-10-19T12:24:33.000Z</time>
      </trkpt>
      <trkpt lat="48.2248" lon="-3.17127">
        <ele>148.39999389648</ele>
        <time>2020-10-19T12:24:34.000Z</time>
      </trkpt>
      <trkpt lat="48.22479" lon="-3.17126">
        <ele>148.60000610352</ele>
        <time>2020-10-19T12:24:35.000Z</time>
      </trkpt>
      <trkpt lat="48.22478" lon="-3.17125">
        <ele>148.80000305176</ele>
        <time>2020-10-19T12:24:36.000Z</time>
      </trkpt>
      <trkpt lat="48.22478" lon="-3.17124">
        <ele>148.80000305176</ele>
        <time>2020-10-19T12:24:37.000Z</time>
      </trkpt>
      <trkpt lat="48.22477" lon="-3.17124">
        <ele>149</ele>
        <time>2020-10-19T12:24:38.000Z</time>
      </trkpt>
      <trkpt lat="48.22476" lon="-3.17123">
        <ele>149</ele>
        <time>2020-10-19T12:24:39.000Z</time>
      </trkpt>
      <trkpt lat="48.22475" lon="-3.17123">
        <ele>149.19999694824</ele>
        <time>2020-10-19T12:24:40.000Z</time>
      </trkpt>
      <trkpt lat="48.22474" lon="-3.17122">
        <ele>149.19999694824</ele>
        <time>2020-10-19T12:24:41.000Z</time>
      </trkpt>
      <trkpt lat="48.22474" lon="-3.17121">
        <ele>149.39999389648</ele>
        <time>2020-10-19T12:24:42.000Z</time>
      </trkpt>
      <trkpt lat="48.22473" lon="-3.17121">
        <ele>149.39999389648</ele>
        <time>2020-10-19T12:24:43.000Z</time>
      </trkpt>
      <trkpt lat="48.22473" lon="-3.1712">
        <ele>149.60000610352</ele>
        <time>2020-10-19T12:24:44.000Z</time>
      </trkpt>
      <trkpt lat="48.22472" lon="-3.17119">
        <ele>149.80000305176</ele>
        <time>2020-10-19T12:24:45.000Z</time>
      </trkpt>
      <trkpt lat="48.22472" lon="-3.17119">
        <ele>149.80000305176</ele>
        <time>2020-10-19T12:24:46.000Z</time>
      </trkpt>
      <trkpt lat="48.22471" lon="-3.17118">
        <ele>150</ele>
        <time>2020-10-19T12:24:47.000Z</time>
      </trkpt>
      <trkpt lat="48.2247" lon="-3.17118">
        <ele>150</ele>
        <time>2020-10-19T12:24:48.000Z</time>
      </trkpt>
      <trkpt lat="48.2247" lon="-3.17117">
        <ele>150.19999694824</ele>
        <time>2020-10-19T12:24:49.000Z</time>
      </trkpt>
      <trkpt lat="48.22469" lon="-3.17117">
        <ele>150.19999694824</ele>
        <time>2020-10-19T12:24:50.000Z</time>
      </trkpt>
      <trkpt lat="48.22469" lon="-3.17116">
        <ele>150.39999389648</ele>
        <time>2020-10-19T12:24:51.000Z</time>
      </trkpt>
      <trkpt lat="48.22468" lon="-3.17116">
        <ele>150.39999389648</ele>
        <time>2020-10-19T12:24:52.000Z</time>
      </trkpt>
      <trkpt lat="48.22467" lon="-3.17115">
        <ele>150.39999389648</ele>
        <time>2020-10-19T12:24:53.000Z</time>
      </trkpt>
      <trkpt lat="48.22467" lon="-3.17115">
        <ele>150.60000610352</ele>
        <time>2020-10-19T12:24:54.000Z</time>
      </trkpt>
      <trkpt lat="48.22466" lon="-3.17114">
        <ele>150.60000610352</ele>
        <time>2020-10-19T12:24:55.000Z</time>
      </trkpt>
      <trkpt lat="48.22465" lon="-3.17113">
        <ele>150.80000305176</ele>
        <time>2020-10-19T12:24:56.000Z</time>
      </trkpt>
      <trkpt lat="48.22464" lon="-3.17113">
        <ele>151</ele>
        <time>2020-10-19T12:24:57.000Z</time>
      </trkpt>
      <trkpt lat="48.22463" lon="-3.17112">
        <ele>151</ele>
        <time>2020-10-19T12:24:58.000Z</time>
      </trkpt>
      <trkpt lat="48.22462" lon="-3.17112">
        <ele>151.19999694824</ele>
        <time>2020-10-19T12:24:59.000Z</time>
      </trkpt>
      <trkpt lat="48.22461" lon="-3.17111">
        <ele>151.19999694824</ele>
        <time>2020-10-19T12:25:00.000Z</time>
      </trkpt>
      <trkpt lat="48.22461" lon="-3.1711">
        <ele>151.39999389648</ele>
        <time>2020-10-19T12:25:01.000Z</time>
      </trkpt>
      <trkpt lat="48.2246" lon="-3.17109">
        <ele>151.39999389648</ele>
        <time>2020-10-19T12:25:02.000Z</time>
      </trkpt>
      <trkpt lat="48.22459" lon="-3.17109">
        <ele>151.60000610352</ele>
        <time>2020-10-19T12:25:03.000Z</time>
      </trkpt>
      <trkpt lat="48.22458" lon="-3.17108">
        <ele>151.80000305176</ele>
        <time>2020-10-19T12:25:04.000Z</time>
      </trkpt>
      <trkpt lat="48.22457" lon="-3.17107">
        <ele>151.80000305176</ele>
        <time>2020-10-19T12:25:05.000Z</time>
      </trkpt>
      <trkpt lat="48.22456" lon="-3.17107">
        <ele>152</ele>
        <time>2020-10-19T12:25:06.000Z</time>
      </trkpt>
      <trkpt lat="48.22455" lon="-3.17106">
        <ele>152</ele>
        <time>2020-10-19T12:25:07.000Z</time>
      </trkpt>
      <trkpt lat="48.22454" lon="-3.17106">
        <ele>152.19999694824</ele>
        <time>2020-10-19T12:25:08.000Z</time>
      </trkpt>
      <trkpt lat="48.22454" lon="-3.17105">
        <ele>152.19999694824</ele>
        <time>2020-10-19T12:25:09.000Z</time>
      </trkpt>
      <trkpt lat="48.22453" lon="-3.17104">
        <ele>152.39999389648</ele>
        <time>2020-10-19T12:25:10.000Z</time>
      </trkpt>
      <trkpt lat="48.22452" lon="-3.17104">
        <ele>152.39999389648</ele>
        <time>2020-10-19T12:25:11.000Z</time>
      </trkpt>
      <trkpt lat="48.22452" lon="-3.17103">
        <ele>152.60000610352</ele>
        <time>2020-10-19T12:25:12.000Z</time>
      </trkpt>
      <trkpt lat="48.22451" lon="-3.17103">
        <ele>152.60000610352</ele>
        <time>2020-10-19T12:25:13.000Z</time>
      </trkpt>
      <trkpt lat="48.2245" lon="-3.17102">
        <ele>152.80000305176</ele>
        <time>2020-10-19T12:25:14.000Z</time>
      </trkpt>
      <trkpt lat="48.22449" lon="-3.17102">
        <ele>152.80000305176</ele>
        <time>2020-10-19T12:25:15.000Z</time>
      </trkpt>
      <trkpt lat="48.22449" lon="-3.17101">
        <ele>153</ele>
        <time>2020-10-19T12:25:16.000Z</time>
      </trkpt>
      <trkpt lat="48.22448" lon="-3.17101">
        <ele>153</ele>
        <time>2020-10-19T12:25:17.000Z</time>
      </trkpt>
      <trkpt lat="48.22448" lon="-3.171">
        <ele>153.19999694824</ele>
        <time>2020-10-19T12:25:18.000Z</time>
      </trkpt>
      <trkpt lat="48.22447" lon="-3.171">
        <ele>153.19999694824</ele>
        <time>2020-10-19T12:25:19.000Z</time>
      </trkpt>
      <trkpt lat="48.22446" lon="-3.171">
        <ele>153.19999694824</ele>
        <time>2020-10-19T12:25:20.000Z</time>
      </trkpt>
      <trkpt lat="48.22446" lon="-3.17099">
        <ele>153.19999694824</ele>
        <time>2020-10-19T12:25:21.000Z</time>
      </trkpt>
      <trkpt lat="48.22445" lon="-3.17099">
        <ele>153.39999389648</ele>
        <time>2020-10-19T12:25:22.000Z</time>
      </trkpt>
      <trkpt lat="48.22445" lon="-3.17099">
        <ele>153.39999389648</ele>
        <time>2020-10-19T12:25:23.000Z</time>
      </trkpt>
      <trkpt lat="48.22445" lon="-3.17098">
        <ele>153.39999389648</ele>
        <time>2020-10-19T12:25:24.000Z</time>
      </trkpt>
      <trkpt lat="48.22445" lon="-3.17097">
        <ele>153.60000610352</ele>
        <time>2020-10-19T12:25:25.000Z</time>
      </trkpt>
      <trkpt lat="48.22444" lon="-3.17096">
        <ele>153.80000305176</ele>
        <time>2020-10-19T12:25:26.000Z</time>
      </trkpt>
      <trkpt lat="48.22444" lon="-3.17096">
        <ele>154</ele>
        <time>2020-10-19T12:25:27.000Z</time>
      </trkpt>
      <trkpt lat="48.22442" lon="-3.17095">
        <ele>154.19999694824</ele>
        <time>2020-10-19T12:25:28.000Z</time>
      </trkpt>
      <trkpt lat="48.22442" lon="-3.17094">
        <ele>154.19999694824</ele>
        <time>2020-10-19T12:25:29.000Z</time>
      </trkpt>
      <trkpt lat="48.22441" lon="-3.17094">
        <ele>154.19999694824</ele>
        <time>2020-10-19T12:25:30.000Z</time>
      </trkpt>
      <trkpt lat="48.22441" lon="-3.17093">
        <ele>154.19999694824</ele>
        <time>2020-10-19T12:25:31.000Z</time>
      </trkpt>
      <trkpt lat="48.22441" lon="-3.17093">
        <ele>154.39999389648</ele>
        <time>2020-10-19T12:25:32.000Z</time>
      </trkpt>
      <trkpt lat="48.2244" lon="-3.17092">
        <ele>154.39999389648</ele>
        <time>2020-10-19T12:25:33.000Z</time>
      </trkpt>
      <trkpt lat="48.2244" lon="-3.17092">
        <ele>154.39999389648</ele>
        <time>2020-10-19T12:25:34.000Z</time>
      </trkpt>
      <trkpt lat="48.22439" lon="-3.17091">
        <ele>154.39999389648</ele>
        <time>2020-10-19T12:25:35.000Z</time>
      </trkpt>
      <trkpt lat="48.22439" lon="-3.1709">
        <ele>154.60000610352</ele>
        <time>2020-10-19T12:25:36.000Z</time>
      </trkpt>
      <trkpt lat="48.22438" lon="-3.1709">
        <ele>154.60000610352</ele>
        <time>2020-10-19T12:25:37.000Z</time>
      </trkpt>
      <trkpt lat="48.22437" lon="-3.17089">
        <ele>154.80000305176</ele>
        <time>2020-10-19T12:25:38.000Z</time>
      </trkpt>
      <trkpt lat="48.22436" lon="-3.17088">
        <ele>154.80000305176</ele>
        <time>2020-10-19T12:25:39.000Z</time>
      </trkpt>
      <trkpt lat="48.22436" lon="-3.17087">
        <ele>155</ele>
        <time>2020-10-19T12:25:40.000Z</time>
      </trkpt>
      <trkpt lat="48.22435" lon="-3.17086">
        <ele>155.19999694824</ele>
        <time>2020-10-19T12:25:41.000Z</time>
      </trkpt>
      <trkpt lat="48.22434" lon="-3.17085">
        <ele>155.39999389648</ele>
        <time>2020-10-19T12:25:42.000Z</time>
      </trkpt>
      <trkpt lat="48.22433" lon="-3.17085">
        <ele>155.39999389648</ele>
        <time>2020-10-19T12:25:43.000Z</time>
      </trkpt>
      <trkpt lat="48.22433" lon="-3.17085">
        <ele>155.60000610352</ele>
        <time>2020-10-19T12:25:44.000Z</time>
      </trkpt>
      <trkpt lat="48.22432" lon="-3.17084">
        <ele>155.60000610352</ele>
        <time>2020-10-19T12:25:45.000Z</time>
      </trkpt>
      <trkpt lat="48.22431" lon="-3.17084">
        <ele>155.80000305176</ele>
        <time>2020-10-19T12:25:46.000Z</time>
      </trkpt>
      <trkpt lat="48.2243" lon="-3.17083">
        <ele>155.80000305176</ele>
        <time>2020-10-19T12:25:47.000Z</time>
      </trkpt>
      <trkpt lat="48.22429" lon="-3.17083">
        <ele>156</ele>
        <time>2020-10-19T12:25:48.000Z</time>
      </trkpt>
      <trkpt lat="48.22428" lon="-3.17083">
        <ele>156.19999694824</ele>
        <time>2020-10-19T12:25:49.000Z</time>
      </trkpt>
      <trkpt lat="48.22427" lon="-3.17082">
        <ele>156.19999694824</ele>
        <time>2020-10-19T12:25:50.000Z</time>
      </trkpt>
      <trkpt lat="48.22425" lon="-3.17081">
        <ele>156.39999389648</ele>
        <time>2020-10-19T12:25:51.000Z</time>
      </trkpt>
      <trkpt lat="48.22424" lon="-3.17081">
        <ele>156.39999389648</ele>
        <time>2020-10-19T12:25:52.000Z</time>
      </trkpt>
      <trkpt lat="48.22423" lon="-3.1708">
        <ele>156.60000610352</ele>
        <time>2020-10-19T12:25:53.000Z</time>
      </trkpt>
      <trkpt lat="48.22423" lon="-3.1708">
        <ele>156.80000305176</ele>
        <time>2020-10-19T12:25:54.000Z</time>
      </trkpt>
      <trkpt lat="48.22422" lon="-3.17079">
        <ele>157</ele>
        <time>2020-10-19T12:25:55.000Z</time>
      </trkpt>
      <trkpt lat="48.22421" lon="-3.17078">
        <ele>157</ele>
        <time>2020-10-19T12:25:56.000Z</time>
      </trkpt>
      <trkpt lat="48.22421" lon="-3.17077">
        <ele>157.19999694824</ele>
        <time>2020-10-19T12:25:57.000Z</time>
      </trkpt>
      <trkpt lat="48.2242" lon="-3.17076">
        <ele>157.39999389648</ele>
        <time>2020-10-19T12:25:58.000Z</time>
      </trkpt>
      <trkpt lat="48.22419" lon="-3.17076">
        <ele>157.39999389648</ele>
        <time>2020-10-19T12:25:59.000Z</time>
      </trkpt>
      <trkpt lat="48.22418" lon="-3.17074">
        <ele>157.80000305176</ele>
        <time>2020-10-19T12:26:00.000Z</time>
      </trkpt>
      <trkpt lat="48.22418" lon="-3.17074">
        <ele>157.80000305176</ele>
        <time>2020-10-19T12:26:01.000Z</time>
      </trkpt>
      <trkpt lat="48.22417" lon="-3.17074">
        <ele>157.80000305176</ele>
        <time>2020-10-19T12:26:02.000Z</time>
      </trkpt>
      <trkpt lat="48.22416" lon="-3.17073">
        <ele>158</ele>
        <time>2020-10-19T12:26:03.000Z</time>
      </trkpt>
      <trkpt lat="48.22415" lon="-3.17072">
        <ele>158.19999694824</ele>
        <time>2020-10-19T12:26:04.000Z</time>
      </trkpt>
      <trkpt lat="48.22414" lon="-3.17072">
        <ele>158.19999694824</ele>
        <time>2020-10-19T12:26:05.000Z</time>
      </trkpt>
      <trkpt lat="48.22414" lon="-3.17071">
        <ele>158.39999389648</ele>
        <time>2020-10-19T12:26:06.000Z</time>
      </trkpt>
      <trkpt lat="48.22413" lon="-3.1707">
        <ele>158.60000610352</ele>
        <time>2020-10-19T12:26:07.000Z</time>
      </trkpt>
      <trkpt lat="48.22412" lon="-3.17069">
        <ele>158.60000610352</ele>
        <time>2020-10-19T12:26:08.000Z</time>
      </trkpt>
      <trkpt lat="48.22412" lon="-3.17069">
        <ele>158.80000305176</ele>
        <time>2020-10-19T12:26:09.000Z</time>
      </trkpt>
      <trkpt lat="48.22411" lon="-3.17068">
        <ele>158.80000305176</ele>
        <time>2020-10-19T12:26:10.000Z</time>
      </trkpt>
      <trkpt lat="48.2241" lon="-3.17067">
        <ele>159.19999694824</ele>
        <time>2020-10-19T12:26:11.000Z</time>
      </trkpt>
      <trkpt lat="48.2241" lon="-3.17067">
        <ele>159.19999694824</ele>
        <time>2020-10-19T12:26:12.000Z</time>
      </trkpt>
      <trkpt lat="48.22409" lon="-3.17066">
        <ele>159.19999694824</ele>
        <time>2020-10-19T12:26:13.000Z</time>
      </trkpt>
      <trkpt lat="48.22408" lon="-3.17066">
        <ele>159.39999389648</ele>
        <time>2020-10-19T12:26:14.000Z</time>
      </trkpt>
      <trkpt lat="48.22407" lon="-3.17065">
        <ele>159.60000610352</ele>
        <time>2020-10-19T12:26:15.000Z</time>
      </trkpt>
      <trkpt lat="48.22407" lon="-3.17065">
        <ele>159.60000610352</ele>
        <time>2020-10-19T12:26:16.000Z</time>
      </trkpt>
      <trkpt lat="48.22406" lon="-3.17065">
        <ele>159.60000610352</ele>
        <time>2020-10-19T12:26:17.000Z</time>
      </trkpt>
      <trkpt lat="48.22406" lon="-3.17065">
        <ele>159.60000610352</ele>
        <time>2020-10-19T12:26:18.000Z</time>
      </trkpt>
      <trkpt lat="48.22406" lon="-3.17064">
        <ele>159.80000305176</ele>
        <time>2020-10-19T12:26:19.000Z</time>
      </trkpt>
      <trkpt lat="48.22406" lon="-3.17064">
        <ele>159.80000305176</ele>
        <time>2020-10-19T12:26:20.000Z</time>
      </trkpt>
      <trkpt lat="48.22404" lon="-3.17063">
        <ele>160</ele>
        <time>2020-10-19T12:26:21.000Z</time>
      </trkpt>
      <trkpt lat="48.22403" lon="-3.17062">
        <ele>160</ele>
        <time>2020-10-19T12:26:22.000Z</time>
      </trkpt>
      <trkpt lat="48.22401" lon="-3.17062">
        <ele>160.19999694824</ele>
        <time>2020-10-19T12:26:23.000Z</time>
      </trkpt>
      <trkpt lat="48.224" lon="-3.17061">
        <ele>160.39999389648</ele>
        <time>2020-10-19T12:26:24.000Z</time>
      </trkpt>
      <trkpt lat="48.22399" lon="-3.1706">
        <ele>160.39999389648</ele>
        <time>2020-10-19T12:26:25.000Z</time>
      </trkpt>
      <trkpt lat="48.22399" lon="-3.1706">
        <ele>160.60000610352</ele>
        <time>2020-10-19T12:26:26.000Z</time>
      </trkpt>
      <trkpt lat="48.22398" lon="-3.1706">
        <ele>160.60000610352</ele>
        <time>2020-10-19T12:26:27.000Z</time>
      </trkpt>
      <trkpt lat="48.22397" lon="-3.17059">
        <ele>160.80000305176</ele>
        <time>2020-10-19T12:26:28.000Z</time>
      </trkpt>
      <trkpt lat="48.22397" lon="-3.17059">
        <ele>160.80000305176</ele>
        <time>2020-10-19T12:26:29.000Z</time>
      </trkpt>
      <trkpt lat="48.22396" lon="-3.17059">
        <ele>160.80000305176</ele>
        <time>2020-10-19T12:26:30.000Z</time>
      </trkpt>
      <trkpt lat="48.22396" lon="-3.17059">
        <ele>160.80000305176</ele>
        <time>2020-10-19T12:26:31.000Z</time>
      </trkpt>
      <trkpt lat="48.22396" lon="-3.17059">
        <ele>160.80000305176</ele>
        <time>2020-10-19T12:26:32.000Z</time>
      </trkpt>
      <trkpt lat="48.22395" lon="-3.17059">
        <ele>160.80000305176</ele>
        <time>2020-10-19T12:26:33.000Z</time>
      </trkpt>
      <trkpt lat="48.22395" lon="-3.17059">
        <ele>160.80000305176</ele>
        <time>2020-10-19T12:26:34.000Z</time>
      </trkpt>
      <trkpt lat="48.22394" lon="-3.17059">
        <ele>160.80000305176</ele>
        <time>2020-10-19T12:26:35.000Z</time>
      </trkpt>
      <trkpt lat="48.22393" lon="-3.17058">
        <ele>161</ele>
        <time>2020-10-19T12:26:36.000Z</time>
      </trkpt>
      <trkpt lat="48.22393" lon="-3.17058">
        <ele>161</ele>
        <time>2020-10-19T12:26:37.000Z</time>
      </trkpt>
      <trkpt lat="48.22392" lon="-3.17058">
        <ele>161</ele>
        <time>2020-10-19T12:26:38.000Z</time>
      </trkpt>
      <trkpt lat="48.22392" lon="-3.17058">
        <ele>161</ele>
        <time>2020-10-19T12:26:39.000Z</time>
      </trkpt>
      <trkpt lat="48.22391" lon="-3.17058">
        <ele>161</ele>
        <time>2020-10-19T12:26:40.000Z</time>
      </trkpt>
      <trkpt lat="48.22391" lon="-3.17058">
        <ele>161</ele>
        <time>2020-10-19T12:26:41.000Z</time>
      </trkpt>
      <trkpt lat="48.2239" lon="-3.17058">
        <ele>161</ele>
        <time>2020-10-19T12:26:42.000Z</time>
      </trkpt>
      <trkpt lat="48.22389" lon="-3.17058">
        <ele>161</ele>
        <time>2020-10-19T12:26:43.000Z</time>
      </trkpt>
      <trkpt lat="48.22388" lon="-3.17057">
        <ele>161.19999694824</ele>
        <time>2020-10-19T12:26:44.000Z</time>
      </trkpt>
      <trkpt lat="48.22387" lon="-3.17057">
        <ele>161.19999694824</ele>
        <time>2020-10-19T12:26:45.000Z</time>
      </trkpt>
      <trkpt lat="48.22386" lon="-3.17057">
        <ele>161.19999694824</ele>
        <time>2020-10-19T12:26:46.000Z</time>
      </trkpt>
      <trkpt lat="48.22385" lon="-3.17057">
        <ele>161.19999694824</ele>
        <time>2020-10-19T12:26:47.000Z</time>
      </trkpt>
      <trkpt lat="48.22385" lon="-3.17057">
        <ele>161.19999694824</ele>
        <time>2020-10-19T12:26:48.000Z</time>
      </trkpt>
      <trkpt lat="48.22384" lon="-3.17057">
        <ele>161.19999694824</ele>
        <time>2020-10-19T12:26:49.000Z</time>
      </trkpt>
      <trkpt lat="48.22383" lon="-3.17057">
        <ele>161.19999694824</ele>
        <time>2020-10-19T12:26:50.000Z</time>
      </trkpt>
      <trkpt lat="48.22383" lon="-3.17057">
        <ele>161.19999694824</ele>
        <time>2020-10-19T12:26:51.000Z</time>
      </trkpt>
      <trkpt lat="48.22382" lon="-3.17058">
        <ele>161.19999694824</ele>
        <time>2020-10-19T12:26:52.000Z</time>
      </trkpt>
      <trkpt lat="48.22381" lon="-3.17057">
        <ele>161.60000610352</ele>
        <time>2020-10-19T12:26:53.000Z</time>
      </trkpt>
      <trkpt lat="48.2238" lon="-3.17056">
        <ele>161.80000305176</ele>
        <time>2020-10-19T12:26:54.000Z</time>
      </trkpt>
      <trkpt lat="48.22379" lon="-3.17055">
        <ele>162.19999694824</ele>
        <time>2020-10-19T12:26:55.000Z</time>
      </trkpt>
      <trkpt lat="48.22377" lon="-3.17054">
        <ele>162.60000610352</ele>
        <time>2020-10-19T12:26:56.000Z</time>
      </trkpt>
      <trkpt lat="48.22375" lon="-3.17053">
        <ele>163.19999694824</ele>
        <time>2020-10-19T12:26:57.000Z</time>
      </trkpt>
      <trkpt lat="48.22373" lon="-3.17052">
        <ele>163.39999389648</ele>
        <time>2020-10-19T12:26:58.000Z</time>
      </trkpt>
      <trkpt lat="48.22372" lon="-3.17051">
        <ele>163.80000305176</ele>
        <time>2020-10-19T12:26:59.000Z</time>
      </trkpt>
      <trkpt lat="48.22368" lon="-3.17049">
        <ele>164.80000305176</ele>
        <time>2020-10-19T12:27:00.000Z</time>
      </trkpt>
      <trkpt lat="48.22368" lon="-3.17049">
        <ele>164.80000305176</ele>
        <time>2020-10-19T12:27:01.000Z</time>
      </trkpt>
      <trkpt lat="48.22366" lon="-3.17049">
        <ele>165</ele>
        <time>2020-10-19T12:27:02.000Z</time>
      </trkpt>
      <trkpt lat="48.22364" lon="-3.17047">
        <ele>165.80000305176</ele>
        <time>2020-10-19T12:27:03.000Z</time>
      </trkpt>
      <trkpt lat="48.22363" lon="-3.17047">
        <ele>166</ele>
        <time>2020-10-19T12:27:04.000Z</time>
      </trkpt>
      <trkpt lat="48.22362" lon="-3.17047">
        <ele>166</ele>
        <time>2020-10-19T12:27:05.000Z</time>
      </trkpt>
      <trkpt lat="48.22362" lon="-3.17046">
        <ele>166.19999694824</ele>
        <time>2020-10-19T12:27:06.000Z</time>
      </trkpt>
      <trkpt lat="48.22361" lon="-3.17046">
        <ele>166.39999389648</ele>
        <time>2020-10-19T12:27:07.000Z</time>
      </trkpt>
      <trkpt lat="48.2236" lon="-3.17046">
        <ele>166.39999389648</ele>
        <time>2020-10-19T12:27:08.000Z</time>
      </trkpt>
      <trkpt lat="48.2236" lon="-3.17045">
        <ele>166.60000610352</ele>
        <time>2020-10-19T12:27:09.000Z</time>
      </trkpt>
      <trkpt lat="48.22359" lon="-3.17045">
        <ele>166.80000305176</ele>
        <time>2020-10-19T12:27:10.000Z</time>
      </trkpt>
      <trkpt lat="48.22358" lon="-3.17044">
        <ele>167</ele>
        <time>2020-10-19T12:27:11.000Z</time>
      </trkpt>
      <trkpt lat="48.22358" lon="-3.17044">
        <ele>167</ele>
        <time>2020-10-19T12:27:12.000Z</time>
      </trkpt>
      <trkpt lat="48.22357" lon="-3.17044">
        <ele>167.19999694824</ele>
        <time>2020-10-19T12:27:13.000Z</time>
      </trkpt>
      <trkpt lat="48.22357" lon="-3.17044">
        <ele>167.19999694824</ele>
        <time>2020-10-19T12:27:14.000Z</time>
      </trkpt>
      <trkpt lat="48.22357" lon="-3.17043">
        <ele>167.39999389648</ele>
        <time>2020-10-19T12:27:15.000Z</time>
      </trkpt>
      <trkpt lat="48.22356" lon="-3.17043">
        <ele>167.39999389648</ele>
        <time>2020-10-19T12:27:16.000Z</time>
      </trkpt>
      <trkpt lat="48.22356" lon="-3.17043">
        <ele>167.60000610352</ele>
        <time>2020-10-19T12:27:17.000Z</time>
      </trkpt>
      <trkpt lat="48.22355" lon="-3.17043">
        <ele>167.60000610352</ele>
        <time>2020-10-19T12:27:18.000Z</time>
      </trkpt>
      <trkpt lat="48.22355" lon="-3.17042">
        <ele>167.80000305176</ele>
        <time>2020-10-19T12:27:19.000Z</time>
      </trkpt>
      <trkpt lat="48.22354" lon="-3.17043">
        <ele>167.80000305176</ele>
        <time>2020-10-19T12:27:20.000Z</time>
      </trkpt>
      <trkpt lat="48.22354" lon="-3.17043">
        <ele>167.80000305176</ele>
        <time>2020-10-19T12:27:21.000Z</time>
      </trkpt>
      <trkpt lat="48.22353" lon="-3.17044">
        <ele>167.60000610352</ele>
        <time>2020-10-19T12:27:22.000Z</time>
      </trkpt>
      <trkpt lat="48.22353" lon="-3.17043">
        <ele>167.80000305176</ele>
        <time>2020-10-19T12:27:23.000Z</time>
      </trkpt>
      <trkpt lat="48.22352" lon="-3.17042">
        <ele>168.19999694824</ele>
        <time>2020-10-19T12:27:24.000Z</time>
      </trkpt>
      <trkpt lat="48.22351" lon="-3.17043">
        <ele>168.19999694824</ele>
        <time>2020-10-19T12:27:25.000Z</time>
      </trkpt>
      <trkpt lat="48.22351" lon="-3.17042">
        <ele>168.19999694824</ele>
        <time>2020-10-19T12:27:26.000Z</time>
      </trkpt>
      <trkpt lat="48.2235" lon="-3.17042">
        <ele>168.19999694824</ele>
        <time>2020-10-19T12:27:27.000Z</time>
      </trkpt>
      <trkpt lat="48.22349" lon="-3.17042">
        <ele>168.39999389648</ele>
        <time>2020-10-19T12:27:28.000Z</time>
      </trkpt>
      <trkpt lat="48.22348" lon="-3.17043">
        <ele>168.39999389648</ele>
        <time>2020-10-19T12:27:29.000Z</time>
      </trkpt>
      <trkpt lat="48.22347" lon="-3.17043">
        <ele>168.39999389648</ele>
        <time>2020-10-19T12:27:30.000Z</time>
      </trkpt>
      <trkpt lat="48.22345" lon="-3.17043">
        <ele>168.60000610352</ele>
        <time>2020-10-19T12:27:31.000Z</time>
      </trkpt>
      <trkpt lat="48.22345" lon="-3.17043">
        <ele>168.60000610352</ele>
        <time>2020-10-19T12:27:32.000Z</time>
      </trkpt>
      <trkpt lat="48.22344" lon="-3.17043">
        <ele>168.39999389648</ele>
        <time>2020-10-19T12:27:33.000Z</time>
      </trkpt>
      <trkpt lat="48.22343" lon="-3.17042">
        <ele>168.60000610352</ele>
        <time>2020-10-19T12:27:34.000Z</time>
      </trkpt>
      <trkpt lat="48.22342" lon="-3.17042">
        <ele>168.60000610352</ele>
        <time>2020-10-19T12:27:35.000Z</time>
      </trkpt>
      <trkpt lat="48.22341" lon="-3.17041">
        <ele>168.60000610352</ele>
        <time>2020-10-19T12:27:36.000Z</time>
      </trkpt>
      <trkpt lat="48.2234" lon="-3.17041">
        <ele>168.80000305176</ele>
        <time>2020-10-19T12:27:37.000Z</time>
      </trkpt>
      <trkpt lat="48.22339" lon="-3.1704">
        <ele>168.80000305176</ele>
        <time>2020-10-19T12:27:38.000Z</time>
      </trkpt>
      <trkpt lat="48.22338" lon="-3.17039">
        <ele>169</ele>
        <time>2020-10-19T12:27:39.000Z</time>
      </trkpt>
      <trkpt lat="48.22337" lon="-3.17039">
        <ele>169</ele>
        <time>2020-10-19T12:27:40.000Z</time>
      </trkpt>
      <trkpt lat="48.22337" lon="-3.17038">
        <ele>169</ele>
        <time>2020-10-19T12:27:41.000Z</time>
      </trkpt>
      <trkpt lat="48.22336" lon="-3.17037">
        <ele>169.39999389648</ele>
        <time>2020-10-19T12:27:42.000Z</time>
      </trkpt>
      <trkpt lat="48.22336" lon="-3.17036">
        <ele>169.39999389648</ele>
        <time>2020-10-19T12:27:43.000Z</time>
      </trkpt>
      <trkpt lat="48.22335" lon="-3.17036">
        <ele>169.60000610352</ele>
        <time>2020-10-19T12:27:44.000Z</time>
      </trkpt>
      <trkpt lat="48.22335" lon="-3.17035">
        <ele>169.60000610352</ele>
        <time>2020-10-19T12:27:45.000Z</time>
      </trkpt>
      <trkpt lat="48.22334" lon="-3.17035">
        <ele>169.80000305176</ele>
        <time>2020-10-19T12:27:46.000Z</time>
      </trkpt>
      <trkpt lat="48.22335" lon="-3.17034">
        <ele>170</ele>
        <time>2020-10-19T12:27:47.000Z</time>
      </trkpt>
      <trkpt lat="48.22334" lon="-3.17034">
        <ele>170</ele>
        <time>2020-10-19T12:27:48.000Z</time>
      </trkpt>
      <trkpt lat="48.22334" lon="-3.17034">
        <ele>170</ele>
        <time>2020-10-19T12:27:49.000Z</time>
      </trkpt>
      <trkpt lat="48.22335" lon="-3.17033">
        <ele>170.39999389648</ele>
        <time>2020-10-19T12:27:50.000Z</time>
      </trkpt>
      <trkpt lat="48.22335" lon="-3.17032">
        <ele>170.60000610352</ele>
        <time>2020-10-19T12:27:51.000Z</time>
      </trkpt>
      <trkpt lat="48.22336" lon="-3.17031">
        <ele>170.80000305176</ele>
        <time>2020-10-19T12:27:52.000Z</time>
      </trkpt>
      <trkpt lat="48.22336" lon="-3.17031">
        <ele>171</ele>
        <time>2020-10-19T12:27:53.000Z</time>
      </trkpt>
      <trkpt lat="48.22336" lon="-3.1703">
        <ele>171.19999694824</ele>
        <time>2020-10-19T12:27:54.000Z</time>
      </trkpt>
      <trkpt lat="48.22336" lon="-3.1703">
        <ele>171.19999694824</ele>
        <time>2020-10-19T12:27:55.000Z</time>
      </trkpt>
      <trkpt lat="48.22335" lon="-3.1703">
        <ele>171.39999389648</ele>
        <time>2020-10-19T12:27:56.000Z</time>
      </trkpt>
      <trkpt lat="48.22335" lon="-3.17029">
        <ele>171.39999389648</ele>
        <time>2020-10-19T12:27:57.000Z</time>
      </trkpt>
      <trkpt lat="48.22334" lon="-3.17029">
        <ele>171.19999694824</ele>
        <time>2020-10-19T12:27:58.000Z</time>
      </trkpt>
      <trkpt lat="48.22334" lon="-3.1703">
        <ele>171</ele>
        <time>2020-10-19T12:27:59.000Z</time>
      </trkpt>
      <trkpt lat="48.22332" lon="-3.17028">
        <ele>171.39999389648</ele>
        <time>2020-10-19T12:28:00.000Z</time>
      </trkpt>
      <trkpt lat="48.22332" lon="-3.17028">
        <ele>171.39999389648</ele>
        <time>2020-10-19T12:28:01.000Z</time>
      </trkpt>
      <trkpt lat="48.2233" lon="-3.17027">
        <ele>171.60000610352</ele>
        <time>2020-10-19T12:28:02.000Z</time>
      </trkpt>
      <trkpt lat="48.22329" lon="-3.17027">
        <ele>171.60000610352</ele>
        <time>2020-10-19T12:28:03.000Z</time>
      </trkpt>
      <trkpt lat="48.22329" lon="-3.17026">
        <ele>171.60000610352</ele>
        <time>2020-10-19T12:28:04.000Z</time>
      </trkpt>
      <trkpt lat="48.22328" lon="-3.17025">
        <ele>172</ele>
        <time>2020-10-19T12:28:05.000Z</time>
      </trkpt>
      <trkpt lat="48.22327" lon="-3.17024">
        <ele>172.19999694824</ele>
        <time>2020-10-19T12:28:06.000Z</time>
      </trkpt>
      <trkpt lat="48.22326" lon="-3.17023">
        <ele>172.39999389648</ele>
        <time>2020-10-19T12:28:07.000Z</time>
      </trkpt>
      <trkpt lat="48.22326" lon="-3.17022">
        <ele>172.60000610352</ele>
        <time>2020-10-19T12:28:08.000Z</time>
      </trkpt>
      <trkpt lat="48.22325" lon="-3.17021">
        <ele>172.80000305176</ele>
        <time>2020-10-19T12:28:09.000Z</time>
      </trkpt>
      <trkpt lat="48.22325" lon="-3.1702">
        <ele>173</ele>
        <time>2020-10-19T12:28:10.000Z</time>
      </trkpt>
      <trkpt lat="48.22324" lon="-3.17019">
        <ele>173.19999694824</ele>
        <time>2020-10-19T12:28:11.000Z</time>
      </trkpt>
      <trkpt lat="48.22324" lon="-3.17018">
        <ele>173.39999389648</ele>
        <time>2020-10-19T12:28:12.000Z</time>
      </trkpt>
      <trkpt lat="48.22324" lon="-3.17016">
        <ele>174.19999694824</ele>
        <time>2020-10-19T12:28:13.000Z</time>
      </trkpt>
      <trkpt lat="48.22324" lon="-3.17016">
        <ele>174.19999694824</ele>
        <time>2020-10-19T12:28:14.000Z</time>
      </trkpt>
      <trkpt lat="48.22324" lon="-3.17015">
        <ele>174.39999389648</ele>
        <time>2020-10-19T12:28:15.000Z</time>
      </trkpt>
      <trkpt lat="48.22325" lon="-3.17013">
        <ele>174.80000305176</ele>
        <time>2020-10-19T12:28:16.000Z</time>
      </trkpt>
      <trkpt lat="48.22325" lon="-3.17013">
        <ele>175.19999694824</ele>
        <time>2020-10-19T12:28:17.000Z</time>
      </trkpt>
      <trkpt lat="48.22325" lon="-3.17012">
        <ele>175.39999389648</ele>
        <time>2020-10-19T12:28:18.000Z</time>
      </trkpt>
      <trkpt lat="48.22325" lon="-3.17011">
        <ele>175.60000610352</ele>
        <time>2020-10-19T12:28:19.000Z</time>
      </trkpt>
      <trkpt lat="48.22326" lon="-3.1701">
        <ele>175.80000305176</ele>
        <time>2020-10-19T12:28:20.000Z</time>
      </trkpt>
      <trkpt lat="48.22326" lon="-3.17009">
        <ele>176</ele>
        <time>2020-10-19T12:28:21.000Z</time>
      </trkpt>
      <trkpt lat="48.22325" lon="-3.17008">
        <ele>176.19999694824</ele>
        <time>2020-10-19T12:28:22.000Z</time>
      </trkpt>
      <trkpt lat="48.22324" lon="-3.17006">
        <ele>176.39999389648</ele>
        <time>2020-10-19T12:28:23.000Z</time>
      </trkpt>
      <trkpt lat="48.22324" lon="-3.17005">
        <ele>176.60000610352</ele>
        <time>2020-10-19T12:28:24.000Z</time>
      </trkpt>
      <trkpt lat="48.22323" lon="-3.17004">
        <ele>176.80000305176</ele>
        <time>2020-10-19T12:28:25.000Z</time>
      </trkpt>
      <trkpt lat="48.22323" lon="-3.17003">
        <ele>176.80000305176</ele>
        <time>2020-10-19T12:28:26.000Z</time>
      </trkpt>
      <trkpt lat="48.22323" lon="-3.17003">
        <ele>177</ele>
        <time>2020-10-19T12:28:27.000Z</time>
      </trkpt>
      <trkpt lat="48.22323" lon="-3.17002">
        <ele>177</ele>
        <time>2020-10-19T12:28:28.000Z</time>
      </trkpt>
      <trkpt lat="48.22323" lon="-3.17001">
        <ele>177.19999694824</ele>
        <time>2020-10-19T12:28:29.000Z</time>
      </trkpt>
      <trkpt lat="48.22323" lon="-3.17">
        <ele>177.39999389648</ele>
        <time>2020-10-19T12:28:30.000Z</time>
      </trkpt>
      <trkpt lat="48.22323" lon="-3.17">
        <ele>177.39999389648</ele>
        <time>2020-10-19T12:28:31.000Z</time>
      </trkpt>
      <trkpt lat="48.22323" lon="-3.16999">
        <ele>177.60000610352</ele>
        <time>2020-10-19T12:28:32.000Z</time>
      </trkpt>
      <trkpt lat="48.22323" lon="-3.16998">
        <ele>177.80000305176</ele>
        <time>2020-10-19T12:28:33.000Z</time>
      </trkpt>
      <trkpt lat="48.22323" lon="-3.16998">
        <ele>177.80000305176</ele>
        <time>2020-10-19T12:28:34.000Z</time>
      </trkpt>
      <trkpt lat="48.22323" lon="-3.16998">
        <ele>177.80000305176</ele>
        <time>2020-10-19T12:28:35.000Z</time>
      </trkpt>
      <trkpt lat="48.22323" lon="-3.16998">
        <ele>177.80000305176</ele>
        <time>2020-10-19T12:28:36.000Z</time>
      </trkpt>
      <trkpt lat="48.22322" lon="-3.16997">
        <ele>178</ele>
        <time>2020-10-19T12:28:37.000Z</time>
      </trkpt>
      <trkpt lat="48.22322" lon="-3.16996">
        <ele>178</ele>
        <time>2020-10-19T12:28:38.000Z</time>
      </trkpt>
      <trkpt lat="48.22321" lon="-3.16996">
        <ele>178</ele>
        <time>2020-10-19T12:28:39.000Z</time>
      </trkpt>
      <trkpt lat="48.2232" lon="-3.16995">
        <ele>178</ele>
        <time>2020-10-19T12:28:40.000Z</time>
      </trkpt>
      <trkpt lat="48.22319" lon="-3.16995">
        <ele>178</ele>
        <time>2020-10-19T12:28:41.000Z</time>
      </trkpt>
      <trkpt lat="48.22318" lon="-3.16995">
        <ele>177.80000305176</ele>
        <time>2020-10-19T12:28:42.000Z</time>
      </trkpt>
      <trkpt lat="48.22317" lon="-3.16995">
        <ele>177.80000305176</ele>
        <time>2020-10-19T12:28:43.000Z</time>
      </trkpt>
      <trkpt lat="48.22317" lon="-3.16995">
        <ele>177.80000305176</ele>
        <time>2020-10-19T12:28:44.000Z</time>
      </trkpt>
      <trkpt lat="48.22316" lon="-3.16994">
        <ele>177.80000305176</ele>
        <time>2020-10-19T12:28:45.000Z</time>
      </trkpt>
      <trkpt lat="48.22315" lon="-3.16994">
        <ele>178</ele>
        <time>2020-10-19T12:28:46.000Z</time>
      </trkpt>
      <trkpt lat="48.22314" lon="-3.16993">
        <ele>178</ele>
        <time>2020-10-19T12:28:47.000Z</time>
      </trkpt>
      <trkpt lat="48.22313" lon="-3.16993">
        <ele>177.80000305176</ele>
        <time>2020-10-19T12:28:48.000Z</time>
      </trkpt>
      <trkpt lat="48.22313" lon="-3.16994">
        <ele>177.80000305176</ele>
        <time>2020-10-19T12:28:49.000Z</time>
      </trkpt>
      <trkpt lat="48.22313" lon="-3.16994">
        <ele>177.80000305176</ele>
        <time>2020-10-19T12:28:50.000Z</time>
      </trkpt>
      <trkpt lat="48.22313" lon="-3.16995">
        <ele>177.60000610352</ele>
        <time>2020-10-19T12:28:51.000Z</time>
      </trkpt>
      <trkpt lat="48.22312" lon="-3.16995">
        <ele>177.60000610352</ele>
        <time>2020-10-19T12:28:52.000Z</time>
      </trkpt>
      <trkpt lat="48.22312" lon="-3.16995">
        <ele>177.60000610352</ele>
        <time>2020-10-19T12:28:53.000Z</time>
      </trkpt>
      <trkpt lat="48.22313" lon="-3.16995">
        <ele>177.60000610352</ele>
        <time>2020-10-19T12:28:54.000Z</time>
      </trkpt>
      <trkpt lat="48.22313" lon="-3.16996">
        <ele>177.39999389648</ele>
        <time>2020-10-19T12:28:55.000Z</time>
      </trkpt>
      <trkpt lat="48.22313" lon="-3.16996">
        <ele>177.39999389648</ele>
        <time>2020-10-19T12:28:56.000Z</time>
      </trkpt>
      <trkpt lat="48.22314" lon="-3.16996">
        <ele>177.39999389648</ele>
        <time>2020-10-19T12:28:57.000Z</time>
      </trkpt>
      <trkpt lat="48.22314" lon="-3.16996">
        <ele>177.60000610352</ele>
        <time>2020-10-19T12:28:58.000Z</time>
      </trkpt>
      <trkpt lat="48.22315" lon="-3.16996">
        <ele>177.60000610352</ele>
        <time>2020-10-19T12:28:59.000Z</time>
      </trkpt>
      <trkpt lat="48.22315" lon="-3.16997">
        <ele>177.39999389648</ele>
        <time>2020-10-19T12:29:00.000Z</time>
      </trkpt>
      <trkpt lat="48.22315" lon="-3.16998">
        <ele>177.19999694824</ele>
        <time>2020-10-19T12:29:01.000Z</time>
      </trkpt>
      <trkpt lat="48.22316" lon="-3.16998">
        <ele>177.19999694824</ele>
        <time>2020-10-19T12:29:02.000Z</time>
      </trkpt>
      <trkpt lat="48.22316" lon="-3.16999">
        <ele>177</ele>
        <time>2020-10-19T12:29:03.000Z</time>
      </trkpt>
      <trkpt lat="48.22316" lon="-3.17">
        <ele>177</ele>
        <time>2020-10-19T12:29:04.000Z</time>
      </trkpt>
      <trkpt lat="48.22315" lon="-3.17001">
        <ele>176.80000305176</ele>
        <time>2020-10-19T12:29:05.000Z</time>
      </trkpt>
      <trkpt lat="48.22315" lon="-3.17001">
        <ele>176.60000610352</ele>
        <time>2020-10-19T12:29:06.000Z</time>
      </trkpt>
      <trkpt lat="48.22315" lon="-3.17002">
        <ele>176.60000610352</ele>
        <time>2020-10-19T12:29:07.000Z</time>
      </trkpt>
      <trkpt lat="48.22315" lon="-3.17002">
        <ele>176.39999389648</ele>
        <time>2020-10-19T12:29:08.000Z</time>
      </trkpt>
      <trkpt lat="48.22315" lon="-3.17002">
        <ele>176.39999389648</ele>
        <time>2020-10-19T12:29:09.000Z</time>
      </trkpt>
      <trkpt lat="48.22315" lon="-3.17002">
        <ele>176.39999389648</ele>
        <time>2020-10-19T12:29:10.000Z</time>
      </trkpt>
      <trkpt lat="48.22315" lon="-3.17002">
        <ele>176.39999389648</ele>
        <time>2020-10-19T12:29:11.000Z</time>
      </trkpt>
      <trkpt lat="48.22315" lon="-3.17002">
        <ele>176.39999389648</ele>
        <time>2020-10-19T12:29:12.000Z</time>
      </trkpt>
      <trkpt lat="48.22315" lon="-3.17003">
        <ele>176.39999389648</ele>
        <time>2020-10-19T12:29:13.000Z</time>
      </trkpt>
      <trkpt lat="48.22315" lon="-3.17003">
        <ele>176.39999389648</ele>
        <time>2020-10-19T12:29:14.000Z</time>
      </trkpt>
      <trkpt lat="48.22314" lon="-3.17002">
        <ele>176.39999389648</ele>
        <time>2020-10-19T12:29:15.000Z</time>
      </trkpt>
      <trkpt lat="48.22314" lon="-3.17001">
        <ele>176.39999389648</ele>
        <time>2020-10-19T12:29:16.000Z</time>
      </trkpt>
      <trkpt lat="48.22313" lon="-3.17001">
        <ele>176.60000610352</ele>
        <time>2020-10-19T12:29:17.000Z</time>
      </trkpt>
      <trkpt lat="48.22314" lon="-3.17001">
        <ele>176.60000610352</ele>
        <time>2020-10-19T12:29:18.000Z</time>
      </trkpt>
      <trkpt lat="48.22313" lon="-3.17001">
        <ele>176.60000610352</ele>
        <time>2020-10-19T12:29:19.000Z</time>
      </trkpt>
      <trkpt lat="48.22314" lon="-3.17001">
        <ele>176.60000610352</ele>
        <time>2020-10-19T12:29:20.000Z</time>
      </trkpt>
      <trkpt lat="48.22313" lon="-3.17001">
        <ele>176.39999389648</ele>
        <time>2020-10-19T12:29:21.000Z</time>
      </trkpt>
      <trkpt lat="48.22313" lon="-3.17001">
        <ele>176.39999389648</ele>
        <time>2020-10-19T12:29:22.000Z</time>
      </trkpt>
      <trkpt lat="48.22313" lon="-3.17001">
        <ele>176.39999389648</ele>
        <time>2020-10-19T12:29:23.000Z</time>
      </trkpt>
      <trkpt lat="48.22313" lon="-3.17001">
        <ele>176.39999389648</ele>
        <time>2020-10-19T12:29:24.000Z</time>
      </trkpt>
      <trkpt lat="48.22313" lon="-3.17001">
        <ele>176.39999389648</ele>
        <time>2020-10-19T12:29:25.000Z</time>
      </trkpt>
      <trkpt lat="48.22313" lon="-3.17001">
        <ele>176.39999389648</ele>
        <time>2020-10-19T12:29:26.000Z</time>
      </trkpt>
      <trkpt lat="48.22313" lon="-3.17001">
        <ele>176.39999389648</ele>
        <time>2020-10-19T12:29:27.000Z</time>
      </trkpt>
      <trkpt lat="48.22313" lon="-3.17001">
        <ele>176.39999389648</ele>
        <time>2020-10-19T12:29:28.000Z</time>
      </trkpt>
      <trkpt lat="48.22314" lon="-3.17002">
        <ele>176.39999389648</ele>
        <time>2020-10-19T12:29:29.000Z</time>
      </trkpt>
      <trkpt lat="48.22314" lon="-3.17002">
        <ele>176.39999389648</ele>
        <time>2020-10-19T12:29:30.000Z</time>
      </trkpt>
      <trkpt lat="48.22314" lon="-3.17002">
        <ele>176.39999389648</ele>
        <time>2020-10-19T12:29:31.000Z</time>
      </trkpt>
      <trkpt lat="48.22314" lon="-3.17002">
        <ele>176.39999389648</ele>
        <time>2020-10-19T12:29:32.000Z</time>
      </trkpt>
      <trkpt lat="48.22314" lon="-3.17002">
        <ele>176.39999389648</ele>
        <time>2020-10-19T12:29:33.000Z</time>
      </trkpt>
      <trkpt lat="48.22314" lon="-3.17002">
        <ele>176.19999694824</ele>
        <time>2020-10-19T12:29:34.000Z</time>
      </trkpt>
      <trkpt lat="48.22314" lon="-3.17003">
        <ele>176.19999694824</ele>
        <time>2020-10-19T12:29:35.000Z</time>
      </trkpt>
      <trkpt lat="48.22313" lon="-3.17003">
        <ele>176.19999694824</ele>
        <time>2020-10-19T12:29:36.000Z</time>
      </trkpt>
      <trkpt lat="48.22313" lon="-3.17003">
        <ele>176</ele>
        <time>2020-10-19T12:29:37.000Z</time>
      </trkpt>
      <trkpt lat="48.22313" lon="-3.17003">
        <ele>176</ele>
        <time>2020-10-19T12:29:38.000Z</time>
      </trkpt>
      <trkpt lat="48.22313" lon="-3.17004">
        <ele>176</ele>
        <time>2020-10-19T12:29:39.000Z</time>
      </trkpt>
      <trkpt lat="48.22313" lon="-3.17004">
        <ele>176</ele>
        <time>2020-10-19T12:29:40.000Z</time>
      </trkpt>
      <trkpt lat="48.22313" lon="-3.17004">
        <ele>176</ele>
        <time>2020-10-19T12:29:41.000Z</time>
      </trkpt>
      <trkpt lat="48.22313" lon="-3.17004">
        <ele>175.80000305176</ele>
        <time>2020-10-19T12:29:42.000Z</time>
      </trkpt>
      <trkpt lat="48.22313" lon="-3.17004">
        <ele>175.80000305176</ele>
        <time>2020-10-19T12:29:43.000Z</time>
      </trkpt>
      <trkpt lat="48.22313" lon="-3.17005">
        <ele>175.80000305176</ele>
        <time>2020-10-19T12:29:44.000Z</time>
      </trkpt>
      <trkpt lat="48.22313" lon="-3.17005">
        <ele>175.80000305176</ele>
        <time>2020-10-19T12:29:45.000Z</time>
      </trkpt>
      <trkpt lat="48.22313" lon="-3.17005">
        <ele>175.80000305176</ele>
        <time>2020-10-19T12:29:46.000Z</time>
      </trkpt>
      <trkpt lat="48.22314" lon="-3.17005">
        <ele>175.80000305176</ele>
        <time>2020-10-19T12:29:47.000Z</time>
      </trkpt>
      <trkpt lat="48.22314" lon="-3.17006">
        <ele>175.60000610352</ele>
        <time>2020-10-19T12:29:48.000Z</time>
      </trkpt>
      <trkpt lat="48.22314" lon="-3.17006">
        <ele>175.60000610352</ele>
        <time>2020-10-19T12:29:49.000Z</time>
      </trkpt>
      <trkpt lat="48.22314" lon="-3.17007">
        <ele>175.39999389648</ele>
        <time>2020-10-19T12:29:50.000Z</time>
      </trkpt>
      <trkpt lat="48.22314" lon="-3.17008">
        <ele>175.19999694824</ele>
        <time>2020-10-19T12:29:51.000Z</time>
      </trkpt>
      <trkpt lat="48.22315" lon="-3.1701">
        <ele>175</ele>
        <time>2020-10-19T12:29:52.000Z</time>
      </trkpt>
      <trkpt lat="48.22315" lon="-3.17011">
        <ele>174.80000305176</ele>
        <time>2020-10-19T12:29:53.000Z</time>
      </trkpt>
      <trkpt lat="48.22315" lon="-3.17011">
        <ele>174.80000305176</ele>
        <time>2020-10-19T12:29:54.000Z</time>
      </trkpt>
      <trkpt lat="48.22315" lon="-3.17012">
        <ele>174.60000610352</ele>
        <time>2020-10-19T12:29:55.000Z</time>
      </trkpt>
      <trkpt lat="48.22316" lon="-3.17012">
        <ele>174.39999389648</ele>
        <time>2020-10-19T12:29:56.000Z</time>
      </trkpt>
      <trkpt lat="48.22316" lon="-3.17013">
        <ele>174.39999389648</ele>
        <time>2020-10-19T12:29:57.000Z</time>
      </trkpt>
      <trkpt lat="48.22316" lon="-3.17013">
        <ele>174.19999694824</ele>
        <time>2020-10-19T12:29:58.000Z</time>
      </trkpt>
      <trkpt lat="48.22316" lon="-3.17014">
        <ele>174</ele>
        <time>2020-10-19T12:29:59.000Z</time>
      </trkpt>
      <trkpt lat="48.22317" lon="-3.17015">
        <ele>174</ele>
        <time>2020-10-19T12:30:00.000Z</time>
      </trkpt>
      <trkpt lat="48.22317" lon="-3.17015">
        <ele>174</ele>
        <time>2020-10-19T12:30:01.000Z</time>
      </trkpt>
      <trkpt lat="48.22317" lon="-3.17015">
        <ele>173.80000305176</ele>
        <time>2020-10-19T12:30:02.000Z</time>
      </trkpt>
      <trkpt lat="48.22317" lon="-3.17016">
        <ele>173.60000610352</ele>
        <time>2020-10-19T12:30:03.000Z</time>
      </trkpt>
      <trkpt lat="48.22317" lon="-3.17016">
        <ele>173.60000610352</ele>
        <time>2020-10-19T12:30:04.000Z</time>
      </trkpt>
      <trkpt lat="48.22317" lon="-3.17016">
        <ele>173.60000610352</ele>
        <time>2020-10-19T12:30:05.000Z</time>
      </trkpt>
      <trkpt lat="48.22317" lon="-3.17016">
        <ele>173.60000610352</ele>
        <time>2020-10-19T12:30:06.000Z</time>
      </trkpt>
      <trkpt lat="48.22316" lon="-3.17016">
        <ele>173.60000610352</ele>
        <time>2020-10-19T12:30:07.000Z</time>
      </trkpt>
      <trkpt lat="48.22316" lon="-3.17017">
        <ele>173.39999389648</ele>
        <time>2020-10-19T12:30:08.000Z</time>
      </trkpt>
      <trkpt lat="48.22316" lon="-3.17016">
        <ele>173.39999389648</ele>
        <time>2020-10-19T12:30:09.000Z</time>
      </trkpt>
      <trkpt lat="48.22316" lon="-3.17017">
        <ele>173.39999389648</ele>
        <time>2020-10-19T12:30:10.000Z</time>
      </trkpt>
      <trkpt lat="48.22317" lon="-3.17017">
        <ele>173.39999389648</ele>
        <time>2020-10-19T12:30:11.000Z</time>
      </trkpt>
      <trkpt lat="48.22316" lon="-3.17017">
        <ele>173.39999389648</ele>
        <time>2020-10-19T12:30:12.000Z</time>
      </trkpt>
      <trkpt lat="48.22316" lon="-3.17017">
        <ele>173.39999389648</ele>
        <time>2020-10-19T12:30:13.000Z</time>
      </trkpt>
      <trkpt lat="48.22316" lon="-3.17016">
        <ele>173.39999389648</ele>
        <time>2020-10-19T12:30:14.000Z</time>
      </trkpt>
      <trkpt lat="48.22315" lon="-3.17016">
        <ele>173.60000610352</ele>
        <time>2020-10-19T12:30:15.000Z</time>
      </trkpt>
      <trkpt lat="48.22315" lon="-3.17016">
        <ele>173.60000610352</ele>
        <time>2020-10-19T12:30:16.000Z</time>
      </trkpt>
      <trkpt lat="48.22315" lon="-3.17016">
        <ele>173.60000610352</ele>
        <time>2020-10-19T12:30:17.000Z</time>
      </trkpt>
      <trkpt lat="48.22315" lon="-3.17015">
        <ele>173.60000610352</ele>
        <time>2020-10-19T12:30:18.000Z</time>
      </trkpt>
      <trkpt lat="48.22315" lon="-3.17014">
        <ele>173.80000305176</ele>
        <time>2020-10-19T12:30:19.000Z</time>
      </trkpt>
      <trkpt lat="48.22315" lon="-3.17014">
        <ele>174</ele>
        <time>2020-10-19T12:30:20.000Z</time>
      </trkpt>
      <trkpt lat="48.22315" lon="-3.17013">
        <ele>174.19999694824</ele>
        <time>2020-10-19T12:30:21.000Z</time>
      </trkpt>
      <trkpt lat="48.22315" lon="-3.17013">
        <ele>174.39999389648</ele>
        <time>2020-10-19T12:30:22.000Z</time>
      </trkpt>
      <trkpt lat="48.22316" lon="-3.17013">
        <ele>174.39999389648</ele>
        <time>2020-10-19T12:30:23.000Z</time>
      </trkpt>
      <trkpt lat="48.22315" lon="-3.17012">
        <ele>174.60000610352</ele>
        <time>2020-10-19T12:30:24.000Z</time>
      </trkpt>
      <trkpt lat="48.22316" lon="-3.17011">
        <ele>174.80000305176</ele>
        <time>2020-10-19T12:30:25.000Z</time>
      </trkpt>
      <trkpt lat="48.22317" lon="-3.17011">
        <ele>174.80000305176</ele>
        <time>2020-10-19T12:30:26.000Z</time>
      </trkpt>
      <trkpt lat="48.22317" lon="-3.17012">
        <ele>174.60000610352</ele>
        <time>2020-10-19T12:30:27.000Z</time>
      </trkpt>
      <trkpt lat="48.22317" lon="-3.17012">
        <ele>174.60000610352</ele>
        <time>2020-10-19T12:30:28.000Z</time>
      </trkpt>
      <trkpt lat="48.22317" lon="-3.17012">
        <ele>174.60000610352</ele>
        <time>2020-10-19T12:30:29.000Z</time>
      </trkpt>
      <trkpt lat="48.22317" lon="-3.17012">
        <ele>174.80000305176</ele>
        <time>2020-10-19T12:30:30.000Z</time>
      </trkpt>
      <trkpt lat="48.22318" lon="-3.17012">
        <ele>174.80000305176</ele>
        <time>2020-10-19T12:30:31.000Z</time>
      </trkpt>
      <trkpt lat="48.22318" lon="-3.17011">
        <ele>175</ele>
        <time>2020-10-19T12:30:32.000Z</time>
      </trkpt>
      <trkpt lat="48.22318" lon="-3.17011">
        <ele>175</ele>
        <time>2020-10-19T12:30:33.000Z</time>
      </trkpt>
      <trkpt lat="48.22319" lon="-3.17011">
        <ele>175.19999694824</ele>
        <time>2020-10-19T12:30:34.000Z</time>
      </trkpt>
      <trkpt lat="48.2232" lon="-3.17011">
        <ele>175.19999694824</ele>
        <time>2020-10-19T12:30:35.000Z</time>
      </trkpt>
      <trkpt lat="48.22321" lon="-3.1701">
        <ele>175.39999389648</ele>
        <time>2020-10-19T12:30:36.000Z</time>
      </trkpt>
      <trkpt lat="48.22321" lon="-3.1701">
        <ele>175.39999389648</ele>
        <time>2020-10-19T12:30:37.000Z</time>
      </trkpt>
      <trkpt lat="48.22322" lon="-3.17011">
        <ele>175.39999389648</ele>
        <time>2020-10-19T12:30:38.000Z</time>
      </trkpt>
      <trkpt lat="48.22323" lon="-3.1701">
        <ele>175.60000610352</ele>
        <time>2020-10-19T12:30:39.000Z</time>
      </trkpt>
      <trkpt lat="48.22324" lon="-3.17011">
        <ele>175.60000610352</ele>
        <time>2020-10-19T12:30:40.000Z</time>
      </trkpt>
      <trkpt lat="48.22325" lon="-3.17011">
        <ele>175.60000610352</ele>
        <time>2020-10-19T12:30:41.000Z</time>
      </trkpt>
      <trkpt lat="48.22325" lon="-3.17011">
        <ele>175.39999389648</ele>
        <time>2020-10-19T12:30:42.000Z</time>
      </trkpt>
      <trkpt lat="48.22326" lon="-3.17012">
        <ele>175.39999389648</ele>
        <time>2020-10-19T12:30:43.000Z</time>
      </trkpt>
      <trkpt lat="48.22326" lon="-3.17012">
        <ele>175.39999389648</ele>
        <time>2020-10-19T12:30:44.000Z</time>
      </trkpt>
      <trkpt lat="48.22327" lon="-3.17012">
        <ele>175.39999389648</ele>
        <time>2020-10-19T12:30:45.000Z</time>
      </trkpt>
      <trkpt lat="48.22327" lon="-3.17012">
        <ele>175.60000610352</ele>
        <time>2020-10-19T12:30:46.000Z</time>
      </trkpt>
      <trkpt lat="48.22328" lon="-3.17012">
        <ele>175.60000610352</ele>
        <time>2020-10-19T12:30:47.000Z</time>
      </trkpt>
      <trkpt lat="48.22328" lon="-3.17011">
        <ele>175.60000610352</ele>
        <time>2020-10-19T12:30:48.000Z</time>
      </trkpt>
      <trkpt lat="48.22329" lon="-3.17011">
        <ele>175.80000305176</ele>
        <time>2020-10-19T12:30:49.000Z</time>
      </trkpt>
      <trkpt lat="48.22329" lon="-3.1701">
        <ele>176</ele>
        <time>2020-10-19T12:30:50.000Z</time>
      </trkpt>
      <trkpt lat="48.22329" lon="-3.1701">
        <ele>176</ele>
        <time>2020-10-19T12:30:51.000Z</time>
      </trkpt>
      <trkpt lat="48.22329" lon="-3.17009">
        <ele>176.19999694824</ele>
        <time>2020-10-19T12:30:52.000Z</time>
      </trkpt>
      <trkpt lat="48.22329" lon="-3.17008">
        <ele>176.39999389648</ele>
        <time>2020-10-19T12:30:53.000Z</time>
      </trkpt>
      <trkpt lat="48.22329" lon="-3.17008">
        <ele>176.39999389648</ele>
        <time>2020-10-19T12:30:54.000Z</time>
      </trkpt>
      <trkpt lat="48.22328" lon="-3.17007">
        <ele>176.60000610352</ele>
        <time>2020-10-19T12:30:55.000Z</time>
      </trkpt>
      <trkpt lat="48.22327" lon="-3.17005">
        <ele>176.80000305176</ele>
        <time>2020-10-19T12:30:56.000Z</time>
      </trkpt>
      <trkpt lat="48.22326" lon="-3.17004">
        <ele>177</ele>
        <time>2020-10-19T12:30:57.000Z</time>
      </trkpt>
      <trkpt lat="48.22326" lon="-3.17002">
        <ele>177.19999694824</ele>
        <time>2020-10-19T12:30:58.000Z</time>
      </trkpt>
      <trkpt lat="48.22325" lon="-3.17001">
        <ele>177.39999389648</ele>
        <time>2020-10-19T12:30:59.000Z</time>
      </trkpt>
      <trkpt lat="48.22325" lon="-3.17">
        <ele>177.60000610352</ele>
        <time>2020-10-19T12:31:00.000Z</time>
      </trkpt>
      <trkpt lat="48.22325" lon="-3.16998">
        <ele>177.80000305176</ele>
        <time>2020-10-19T12:31:01.000Z</time>
      </trkpt>
      <trkpt lat="48.22324" lon="-3.16998">
        <ele>178</ele>
        <time>2020-10-19T12:31:02.000Z</time>
      </trkpt>
      <trkpt lat="48.22324" lon="-3.16997">
        <ele>178</ele>
        <time>2020-10-19T12:31:03.000Z</time>
      </trkpt>
      <trkpt lat="48.22324" lon="-3.16997">
        <ele>178</ele>
        <time>2020-10-19T12:31:04.000Z</time>
      </trkpt>
      <trkpt lat="48.22324" lon="-3.16997">
        <ele>178</ele>
        <time>2020-10-19T12:31:05.000Z</time>
      </trkpt>
      <trkpt lat="48.22324" lon="-3.16997">
        <ele>178</ele>
        <time>2020-10-19T12:31:06.000Z</time>
      </trkpt>
      <trkpt lat="48.22324" lon="-3.16996">
        <ele>178</ele>
        <time>2020-10-19T12:31:07.000Z</time>
      </trkpt>
      <trkpt lat="48.22324" lon="-3.16996">
        <ele>178.19999694824</ele>
        <time>2020-10-19T12:31:08.000Z</time>
      </trkpt>
      <trkpt lat="48.22324" lon="-3.16996">
        <ele>178.19999694824</ele>
        <time>2020-10-19T12:31:09.000Z</time>
      </trkpt>
      <trkpt lat="48.22325" lon="-3.16996">
        <ele>178.19999694824</ele>
        <time>2020-10-19T12:31:10.000Z</time>
      </trkpt>
      <trkpt lat="48.22325" lon="-3.16995">
        <ele>178.39999389648</ele>
        <time>2020-10-19T12:31:11.000Z</time>
      </trkpt>
      <trkpt lat="48.22325" lon="-3.16995">
        <ele>178.39999389648</ele>
        <time>2020-10-19T12:31:12.000Z</time>
      </trkpt>
      <trkpt lat="48.22325" lon="-3.16995">
        <ele>178.39999389648</ele>
        <time>2020-10-19T12:31:13.000Z</time>
      </trkpt>
      <trkpt lat="48.22325" lon="-3.16995">
        <ele>178.39999389648</ele>
        <time>2020-10-19T12:31:14.000Z</time>
      </trkpt>
      <trkpt lat="48.22325" lon="-3.16995">
        <ele>178.39999389648</ele>
        <time>2020-10-19T12:31:15.000Z</time>
      </trkpt>
      <trkpt lat="48.22326" lon="-3.16995">
        <ele>178.60000610352</ele>
        <time>2020-10-19T12:31:16.000Z</time>
      </trkpt>
      <trkpt lat="48.22326" lon="-3.16995">
        <ele>178.60000610352</ele>
        <time>2020-10-19T12:31:17.000Z</time>
      </trkpt>
      <trkpt lat="48.22327" lon="-3.16995">
        <ele>178.60000610352</ele>
        <time>2020-10-19T12:31:18.000Z</time>
      </trkpt>
      <trkpt lat="48.22327" lon="-3.16994">
        <ele>178.80000305176</ele>
        <time>2020-10-19T12:31:19.000Z</time>
      </trkpt>
      <trkpt lat="48.22327" lon="-3.16993">
        <ele>179</ele>
        <time>2020-10-19T12:31:20.000Z</time>
      </trkpt>
      <trkpt lat="48.22327" lon="-3.16993">
        <ele>179</ele>
        <time>2020-10-19T12:31:21.000Z</time>
      </trkpt>
      <trkpt lat="48.22326" lon="-3.16992">
        <ele>179</ele>
        <time>2020-10-19T12:31:22.000Z</time>
      </trkpt>
      <trkpt lat="48.22326" lon="-3.16991">
        <ele>179.19999694824</ele>
        <time>2020-10-19T12:31:23.000Z</time>
      </trkpt>
      <trkpt lat="48.22325" lon="-3.1699">
        <ele>179.39999389648</ele>
        <time>2020-10-19T12:31:24.000Z</time>
      </trkpt>
      <trkpt lat="48.22325" lon="-3.16989">
        <ele>179.39999389648</ele>
        <time>2020-10-19T12:31:25.000Z</time>
      </trkpt>
      <trkpt lat="48.22324" lon="-3.16989">
        <ele>179.39999389648</ele>
        <time>2020-10-19T12:31:26.000Z</time>
      </trkpt>
      <trkpt lat="48.22324" lon="-3.16989">
        <ele>179.39999389648</ele>
        <time>2020-10-19T12:31:27.000Z</time>
      </trkpt>
      <trkpt lat="48.22322" lon="-3.16991">
        <ele>179</ele>
        <time>2020-10-19T12:31:28.000Z</time>
      </trkpt>
      <trkpt lat="48.22322" lon="-3.1699">
        <ele>179</ele>
        <time>2020-10-19T12:31:29.000Z</time>
      </trkpt>
      <trkpt lat="48.22321" lon="-3.16991">
        <ele>179</ele>
        <time>2020-10-19T12:31:30.000Z</time>
      </trkpt>
      <trkpt lat="48.22321" lon="-3.1699">
        <ele>179</ele>
        <time>2020-10-19T12:31:31.000Z</time>
      </trkpt>
      <trkpt lat="48.2232" lon="-3.1699">
        <ele>179</ele>
        <time>2020-10-19T12:31:32.000Z</time>
      </trkpt>
      <trkpt lat="48.22319" lon="-3.16991">
        <ele>178.80000305176</ele>
        <time>2020-10-19T12:31:33.000Z</time>
      </trkpt>
      <trkpt lat="48.22318" lon="-3.1699">
        <ele>178.80000305176</ele>
        <time>2020-10-19T12:31:34.000Z</time>
      </trkpt>
      <trkpt lat="48.22317" lon="-3.1699">
        <ele>178.80000305176</ele>
        <time>2020-10-19T12:31:35.000Z</time>
      </trkpt>
      <trkpt lat="48.22317" lon="-3.16989">
        <ele>178.80000305176</ele>
        <time>2020-10-19T12:31:36.000Z</time>
      </trkpt>
      <trkpt lat="48.22316" lon="-3.16989">
        <ele>179</ele>
        <time>2020-10-19T12:31:37.000Z</time>
      </trkpt>
      <trkpt lat="48.22315" lon="-3.16988">
        <ele>179</ele>
        <time>2020-10-19T12:31:38.000Z</time>
      </trkpt>
      <trkpt lat="48.22315" lon="-3.16988">
        <ele>179</ele>
        <time>2020-10-19T12:31:39.000Z</time>
      </trkpt>
      <trkpt lat="48.22314" lon="-3.16987">
        <ele>179.19999694824</ele>
        <time>2020-10-19T12:31:40.000Z</time>
      </trkpt>
      <trkpt lat="48.22314" lon="-3.16986">
        <ele>179.19999694824</ele>
        <time>2020-10-19T12:31:41.000Z</time>
      </trkpt>
      <trkpt lat="48.22314" lon="-3.16985">
        <ele>179.39999389648</ele>
        <time>2020-10-19T12:31:42.000Z</time>
      </trkpt>
      <trkpt lat="48.22313" lon="-3.16984">
        <ele>179.39999389648</ele>
        <time>2020-10-19T12:31:43.000Z</time>
      </trkpt>
      <trkpt lat="48.22313" lon="-3.16984">
        <ele>179.60000610352</ele>
        <time>2020-10-19T12:31:44.000Z</time>
      </trkpt>
      <trkpt lat="48.22312" lon="-3.16983">
        <ele>179.60000610352</ele>
        <time>2020-10-19T12:31:45.000Z</time>
      </trkpt>
      <trkpt lat="48.22311" lon="-3.16982">
        <ele>179.80000305176</ele>
        <time>2020-10-19T12:31:46.000Z</time>
      </trkpt>
      <trkpt lat="48.22311" lon="-3.16982">
        <ele>179.80000305176</ele>
        <time>2020-10-19T12:31:47.000Z</time>
      </trkpt>
      <trkpt lat="48.2231" lon="-3.16981">
        <ele>179.80000305176</ele>
        <time>2020-10-19T12:31:48.000Z</time>
      </trkpt>
      <trkpt lat="48.22309" lon="-3.1698">
        <ele>180</ele>
        <time>2020-10-19T12:31:49.000Z</time>
      </trkpt>
      <trkpt lat="48.22308" lon="-3.1698">
        <ele>180</ele>
        <time>2020-10-19T12:31:50.000Z</time>
      </trkpt>
      <trkpt lat="48.22307" lon="-3.16979">
        <ele>180</ele>
        <time>2020-10-19T12:31:51.000Z</time>
      </trkpt>
      <trkpt lat="48.22307" lon="-3.16979">
        <ele>180</ele>
        <time>2020-10-19T12:31:52.000Z</time>
      </trkpt>
      <trkpt lat="48.22304" lon="-3.16977">
        <ele>180.19999694824</ele>
        <time>2020-10-19T12:31:53.000Z</time>
      </trkpt>
      <trkpt lat="48.22304" lon="-3.16977">
        <ele>180.19999694824</ele>
        <time>2020-10-19T12:31:54.000Z</time>
      </trkpt>
      <trkpt lat="48.22303" lon="-3.16977">
        <ele>180.19999694824</ele>
        <time>2020-10-19T12:31:55.000Z</time>
      </trkpt>
      <trkpt lat="48.22303" lon="-3.16976">
        <ele>180.19999694824</ele>
        <time>2020-10-19T12:31:56.000Z</time>
      </trkpt>
      <trkpt lat="48.22302" lon="-3.16975">
        <ele>180.39999389648</ele>
        <time>2020-10-19T12:31:57.000Z</time>
      </trkpt>
      <trkpt lat="48.22301" lon="-3.16974">
        <ele>180.39999389648</ele>
        <time>2020-10-19T12:31:58.000Z</time>
      </trkpt>
      <trkpt lat="48.223" lon="-3.16973">
        <ele>180.60000610352</ele>
        <time>2020-10-19T12:31:59.000Z</time>
      </trkpt>
      <trkpt lat="48.22299" lon="-3.16972">
        <ele>180.60000610352</ele>
        <time>2020-10-19T12:32:00.000Z</time>
      </trkpt>
      <trkpt lat="48.22298" lon="-3.16972">
        <ele>180.60000610352</ele>
        <time>2020-10-19T12:32:01.000Z</time>
      </trkpt>
      <trkpt lat="48.22297" lon="-3.16971">
        <ele>180.60000610352</ele>
        <time>2020-10-19T12:32:02.000Z</time>
      </trkpt>
      <trkpt lat="48.22297" lon="-3.16971">
        <ele>180.80000305176</ele>
        <time>2020-10-19T12:32:03.000Z</time>
      </trkpt>
      <trkpt lat="48.22296" lon="-3.16969">
        <ele>180.80000305176</ele>
        <time>2020-10-19T12:32:04.000Z</time>
      </trkpt>
      <trkpt lat="48.22296" lon="-3.16968">
        <ele>181</ele>
        <time>2020-10-19T12:32:05.000Z</time>
      </trkpt>
      <trkpt lat="48.22296" lon="-3.16967">
        <ele>181.19999694824</ele>
        <time>2020-10-19T12:32:06.000Z</time>
      </trkpt>
      <trkpt lat="48.22296" lon="-3.16966">
        <ele>181.39999389648</ele>
        <time>2020-10-19T12:32:07.000Z</time>
      </trkpt>
      <trkpt lat="48.22295" lon="-3.16965">
        <ele>181.60000610352</ele>
        <time>2020-10-19T12:32:08.000Z</time>
      </trkpt>
      <trkpt lat="48.22295" lon="-3.16964">
        <ele>181.80000305176</ele>
        <time>2020-10-19T12:32:09.000Z</time>
      </trkpt>
      <trkpt lat="48.22295" lon="-3.16963">
        <ele>181.80000305176</ele>
        <time>2020-10-19T12:32:10.000Z</time>
      </trkpt>
      <trkpt lat="48.22294" lon="-3.16962">
        <ele>182</ele>
        <time>2020-10-19T12:32:11.000Z</time>
      </trkpt>
      <trkpt lat="48.22294" lon="-3.16961">
        <ele>182</ele>
        <time>2020-10-19T12:32:12.000Z</time>
      </trkpt>
      <trkpt lat="48.22293" lon="-3.1696">
        <ele>182.19999694824</ele>
        <time>2020-10-19T12:32:13.000Z</time>
      </trkpt>
      <trkpt lat="48.22293" lon="-3.1696">
        <ele>182.19999694824</ele>
        <time>2020-10-19T12:32:14.000Z</time>
      </trkpt>
      <trkpt lat="48.22292" lon="-3.16959">
        <ele>182.39999389648</ele>
        <time>2020-10-19T12:32:15.000Z</time>
      </trkpt>
      <trkpt lat="48.22292" lon="-3.16958">
        <ele>182.39999389648</ele>
        <time>2020-10-19T12:32:16.000Z</time>
      </trkpt>
      <trkpt lat="48.22291" lon="-3.16957">
        <ele>182.39999389648</ele>
        <time>2020-10-19T12:32:17.000Z</time>
      </trkpt>
      <trkpt lat="48.22291" lon="-3.16957">
        <ele>182.60000610352</ele>
        <time>2020-10-19T12:32:18.000Z</time>
      </trkpt>
      <trkpt lat="48.2229" lon="-3.16956">
        <ele>182.60000610352</ele>
        <time>2020-10-19T12:32:19.000Z</time>
      </trkpt>
      <trkpt lat="48.22289" lon="-3.16956">
        <ele>182.60000610352</ele>
        <time>2020-10-19T12:32:20.000Z</time>
      </trkpt>
      <trkpt lat="48.22289" lon="-3.16955">
        <ele>182.60000610352</ele>
        <time>2020-10-19T12:32:21.000Z</time>
      </trkpt>
      <trkpt lat="48.22288" lon="-3.16955">
        <ele>182.60000610352</ele>
        <time>2020-10-19T12:32:22.000Z</time>
      </trkpt>
      <trkpt lat="48.22287" lon="-3.16955">
        <ele>182.60000610352</ele>
        <time>2020-10-19T12:32:23.000Z</time>
      </trkpt>
      <trkpt lat="48.22286" lon="-3.16955">
        <ele>182.39999389648</ele>
        <time>2020-10-19T12:32:24.000Z</time>
      </trkpt>
      <trkpt lat="48.22286" lon="-3.16954">
        <ele>182.60000610352</ele>
        <time>2020-10-19T12:32:25.000Z</time>
      </trkpt>
      <trkpt lat="48.22285" lon="-3.16953">
        <ele>182.80000305176</ele>
        <time>2020-10-19T12:32:26.000Z</time>
      </trkpt>
      <trkpt lat="48.22284" lon="-3.16951">
        <ele>182.80000305176</ele>
        <time>2020-10-19T12:32:27.000Z</time>
      </trkpt>
      <trkpt lat="48.22283" lon="-3.1695">
        <ele>183</ele>
        <time>2020-10-19T12:32:28.000Z</time>
      </trkpt>
      <trkpt lat="48.22282" lon="-3.16948">
        <ele>183.19999694824</ele>
        <time>2020-10-19T12:32:29.000Z</time>
      </trkpt>
      <trkpt lat="48.22282" lon="-3.16947">
        <ele>183.39999389648</ele>
        <time>2020-10-19T12:32:30.000Z</time>
      </trkpt>
      <trkpt lat="48.22281" lon="-3.16946">
        <ele>183.60000610352</ele>
        <time>2020-10-19T12:32:31.000Z</time>
      </trkpt>
      <trkpt lat="48.22281" lon="-3.16944">
        <ele>183.80000305176</ele>
        <time>2020-10-19T12:32:32.000Z</time>
      </trkpt>
      <trkpt lat="48.2228" lon="-3.16943">
        <ele>184</ele>
        <time>2020-10-19T12:32:33.000Z</time>
      </trkpt>
      <trkpt lat="48.2228" lon="-3.16942">
        <ele>184</ele>
        <time>2020-10-19T12:32:34.000Z</time>
      </trkpt>
      <trkpt lat="48.22279" lon="-3.16941">
        <ele>184.19999694824</ele>
        <time>2020-10-19T12:32:35.000Z</time>
      </trkpt>
      <trkpt lat="48.22279" lon="-3.1694">
        <ele>184.39999389648</ele>
        <time>2020-10-19T12:32:36.000Z</time>
      </trkpt>
      <trkpt lat="48.22278" lon="-3.16939">
        <ele>184.39999389648</ele>
        <time>2020-10-19T12:32:37.000Z</time>
      </trkpt>
      <trkpt lat="48.22278" lon="-3.16938">
        <ele>184.60000610352</ele>
        <time>2020-10-19T12:32:38.000Z</time>
      </trkpt>
      <trkpt lat="48.22278" lon="-3.16938">
        <ele>184.60000610352</ele>
        <time>2020-10-19T12:32:39.000Z</time>
      </trkpt>
      <trkpt lat="48.22277" lon="-3.16937">
        <ele>184.80000305176</ele>
        <time>2020-10-19T12:32:40.000Z</time>
      </trkpt>
      <trkpt lat="48.22277" lon="-3.16935">
        <ele>185</ele>
        <time>2020-10-19T12:32:41.000Z</time>
      </trkpt>
      <trkpt lat="48.22277" lon="-3.16934">
        <ele>185.19999694824</ele>
        <time>2020-10-19T12:32:42.000Z</time>
      </trkpt>
      <trkpt lat="48.22277" lon="-3.16933">
        <ele>185.39999389648</ele>
        <time>2020-10-19T12:32:43.000Z</time>
      </trkpt>
      <trkpt lat="48.22276" lon="-3.16932">
        <ele>185.39999389648</ele>
        <time>2020-10-19T12:32:44.000Z</time>
      </trkpt>
      <trkpt lat="48.22276" lon="-3.16931">
        <ele>185.60000610352</ele>
        <time>2020-10-19T12:32:45.000Z</time>
      </trkpt>
      <trkpt lat="48.22275" lon="-3.1693">
        <ele>185.80000305176</ele>
        <time>2020-10-19T12:32:46.000Z</time>
      </trkpt>
      <trkpt lat="48.22274" lon="-3.16929">
        <ele>185.80000305176</ele>
        <time>2020-10-19T12:32:47.000Z</time>
      </trkpt>
      <trkpt lat="48.22274" lon="-3.16928">
        <ele>186</ele>
        <time>2020-10-19T12:32:48.000Z</time>
      </trkpt>
      <trkpt lat="48.22274" lon="-3.16927">
        <ele>186</ele>
        <time>2020-10-19T12:32:49.000Z</time>
      </trkpt>
      <trkpt lat="48.22274" lon="-3.16927">
        <ele>186</ele>
        <time>2020-10-19T12:32:50.000Z</time>
      </trkpt>
      <trkpt lat="48.22273" lon="-3.16926">
        <ele>186.19999694824</ele>
        <time>2020-10-19T12:32:51.000Z</time>
      </trkpt>
      <trkpt lat="48.22273" lon="-3.16925">
        <ele>186.19999694824</ele>
        <time>2020-10-19T12:32:52.000Z</time>
      </trkpt>
      <trkpt lat="48.22273" lon="-3.16925">
        <ele>186.19999694824</ele>
        <time>2020-10-19T12:32:53.000Z</time>
      </trkpt>
      <trkpt lat="48.22273" lon="-3.16924">
        <ele>186.19999694824</ele>
        <time>2020-10-19T12:32:54.000Z</time>
      </trkpt>
      <trkpt lat="48.22272" lon="-3.16924">
        <ele>186.19999694824</ele>
        <time>2020-10-19T12:32:55.000Z</time>
      </trkpt>
      <trkpt lat="48.22272" lon="-3.16923">
        <ele>186.19999694824</ele>
        <time>2020-10-19T12:32:56.000Z</time>
      </trkpt>
      <trkpt lat="48.22272" lon="-3.16922">
        <ele>186.39999389648</ele>
        <time>2020-10-19T12:32:57.000Z</time>
      </trkpt>
      <trkpt lat="48.22272" lon="-3.16921">
        <ele>186.39999389648</ele>
        <time>2020-10-19T12:32:58.000Z</time>
      </trkpt>
      <trkpt lat="48.22271" lon="-3.1692">
        <ele>186.39999389648</ele>
        <time>2020-10-19T12:32:59.000Z</time>
      </trkpt>
      <trkpt lat="48.22271" lon="-3.16919">
        <ele>186.60000610352</ele>
        <time>2020-10-19T12:33:00.000Z</time>
      </trkpt>
      <trkpt lat="48.2227" lon="-3.16918">
        <ele>186.60000610352</ele>
        <time>2020-10-19T12:33:01.000Z</time>
      </trkpt>
      <trkpt lat="48.2227" lon="-3.16917">
        <ele>186.60000610352</ele>
        <time>2020-10-19T12:33:02.000Z</time>
      </trkpt>
      <trkpt lat="48.2227" lon="-3.16916">
        <ele>186.60000610352</ele>
        <time>2020-10-19T12:33:03.000Z</time>
      </trkpt>
      <trkpt lat="48.2227" lon="-3.16915">
        <ele>186.80000305176</ele>
        <time>2020-10-19T12:33:04.000Z</time>
      </trkpt>
      <trkpt lat="48.22269" lon="-3.16914">
        <ele>186.80000305176</ele>
        <time>2020-10-19T12:33:05.000Z</time>
      </trkpt>
      <trkpt lat="48.22269" lon="-3.16913">
        <ele>186.80000305176</ele>
        <time>2020-10-19T12:33:06.000Z</time>
      </trkpt>
      <trkpt lat="48.22269" lon="-3.16912">
        <ele>187</ele>
        <time>2020-10-19T12:33:07.000Z</time>
      </trkpt>
      <trkpt lat="48.22269" lon="-3.16911">
        <ele>187</ele>
        <time>2020-10-19T12:33:08.000Z</time>
      </trkpt>
      <trkpt lat="48.22269" lon="-3.1691">
        <ele>187</ele>
        <time>2020-10-19T12:33:09.000Z</time>
      </trkpt>
      <trkpt lat="48.22269" lon="-3.16909">
        <ele>187</ele>
        <time>2020-10-19T12:33:10.000Z</time>
      </trkpt>
      <trkpt lat="48.22269" lon="-3.16908">
        <ele>187.19999694824</ele>
        <time>2020-10-19T12:33:11.000Z</time>
      </trkpt>
      <trkpt lat="48.22269" lon="-3.16907">
        <ele>187.19999694824</ele>
        <time>2020-10-19T12:33:12.000Z</time>
      </trkpt>
      <trkpt lat="48.22269" lon="-3.16905">
        <ele>187.39999389648</ele>
        <time>2020-10-19T12:33:13.000Z</time>
      </trkpt>
      <trkpt lat="48.22269" lon="-3.16904">
        <ele>187.39999389648</ele>
        <time>2020-10-19T12:33:14.000Z</time>
      </trkpt>
      <trkpt lat="48.22269" lon="-3.16903">
        <ele>187.60000610352</ele>
        <time>2020-10-19T12:33:15.000Z</time>
      </trkpt>
      <trkpt lat="48.22269" lon="-3.16902">
        <ele>187.60000610352</ele>
        <time>2020-10-19T12:33:16.000Z</time>
      </trkpt>
      <trkpt lat="48.2227" lon="-3.16901">
        <ele>187.80000305176</ele>
        <time>2020-10-19T12:33:17.000Z</time>
      </trkpt>
      <trkpt lat="48.2227" lon="-3.16901">
        <ele>187.80000305176</ele>
        <time>2020-10-19T12:33:18.000Z</time>
      </trkpt>
      <trkpt lat="48.22271" lon="-3.169">
        <ele>188</ele>
        <time>2020-10-19T12:33:19.000Z</time>
      </trkpt>
      <trkpt lat="48.22271" lon="-3.16898">
        <ele>188.19999694824</ele>
        <time>2020-10-19T12:33:20.000Z</time>
      </trkpt>
      <trkpt lat="48.22271" lon="-3.16897">
        <ele>188.19999694824</ele>
        <time>2020-10-19T12:33:21.000Z</time>
      </trkpt>
      <trkpt lat="48.22271" lon="-3.16896">
        <ele>188.39999389648</ele>
        <time>2020-10-19T12:33:22.000Z</time>
      </trkpt>
      <trkpt lat="48.22272" lon="-3.16894">
        <ele>188.39999389648</ele>
        <time>2020-10-19T12:33:23.000Z</time>
      </trkpt>
      <trkpt lat="48.22272" lon="-3.16893">
        <ele>188.60000610352</ele>
        <time>2020-10-19T12:33:24.000Z</time>
      </trkpt>
      <trkpt lat="48.22272" lon="-3.16893">
        <ele>188.60000610352</ele>
        <time>2020-10-19T12:33:25.000Z</time>
      </trkpt>
      <trkpt lat="48.22272" lon="-3.16892">
        <ele>188.60000610352</ele>
        <time>2020-10-19T12:33:26.000Z</time>
      </trkpt>
      <trkpt lat="48.22272" lon="-3.16892">
        <ele>188.60000610352</ele>
        <time>2020-10-19T12:33:27.000Z</time>
      </trkpt>
      <trkpt lat="48.22272" lon="-3.16892">
        <ele>188.60000610352</ele>
        <time>2020-10-19T12:33:28.000Z</time>
      </trkpt>
      <trkpt lat="48.22272" lon="-3.16891">
        <ele>188.80000305176</ele>
        <time>2020-10-19T12:33:29.000Z</time>
      </trkpt>
      <trkpt lat="48.22272" lon="-3.16891">
        <ele>188.80000305176</ele>
        <time>2020-10-19T12:33:30.000Z</time>
      </trkpt>
      <trkpt lat="48.2227" lon="-3.16888">
        <ele>188.80000305176</ele>
        <time>2020-10-19T12:33:31.000Z</time>
      </trkpt>
      <trkpt lat="48.2227" lon="-3.16887">
        <ele>188.80000305176</ele>
        <time>2020-10-19T12:33:32.000Z</time>
      </trkpt>
      <trkpt lat="48.2227" lon="-3.16885">
        <ele>188.80000305176</ele>
        <time>2020-10-19T12:33:33.000Z</time>
      </trkpt>
      <trkpt lat="48.22269" lon="-3.16883">
        <ele>189</ele>
        <time>2020-10-19T12:33:34.000Z</time>
      </trkpt>
      <trkpt lat="48.22269" lon="-3.16882">
        <ele>189</ele>
        <time>2020-10-19T12:33:35.000Z</time>
      </trkpt>
      <trkpt lat="48.22268" lon="-3.1688">
        <ele>189</ele>
        <time>2020-10-19T12:33:36.000Z</time>
      </trkpt>
      <trkpt lat="48.22268" lon="-3.16879">
        <ele>189.19999694824</ele>
        <time>2020-10-19T12:33:37.000Z</time>
      </trkpt>
      <trkpt lat="48.22267" lon="-3.16877">
        <ele>189.19999694824</ele>
        <time>2020-10-19T12:33:38.000Z</time>
      </trkpt>
      <trkpt lat="48.22267" lon="-3.16876">
        <ele>189.19999694824</ele>
        <time>2020-10-19T12:33:39.000Z</time>
      </trkpt>
      <trkpt lat="48.22267" lon="-3.16875">
        <ele>189.39999389648</ele>
        <time>2020-10-19T12:33:40.000Z</time>
      </trkpt>
      <trkpt lat="48.22266" lon="-3.16874">
        <ele>189.39999389648</ele>
        <time>2020-10-19T12:33:41.000Z</time>
      </trkpt>
      <trkpt lat="48.22266" lon="-3.16873">
        <ele>189.39999389648</ele>
        <time>2020-10-19T12:33:42.000Z</time>
      </trkpt>
      <trkpt lat="48.22266" lon="-3.16871">
        <ele>189.60000610352</ele>
        <time>2020-10-19T12:33:43.000Z</time>
      </trkpt>
      <trkpt lat="48.22266" lon="-3.16869">
        <ele>189.60000610352</ele>
        <time>2020-10-19T12:33:44.000Z</time>
      </trkpt>
      <trkpt lat="48.22266" lon="-3.16868">
        <ele>189.80000305176</ele>
        <time>2020-10-19T12:33:45.000Z</time>
      </trkpt>
      <trkpt lat="48.22266" lon="-3.16867">
        <ele>189.80000305176</ele>
        <time>2020-10-19T12:33:46.000Z</time>
      </trkpt>
      <trkpt lat="48.22266" lon="-3.16865">
        <ele>190</ele>
        <time>2020-10-19T12:33:47.000Z</time>
      </trkpt>
      <trkpt lat="48.22266" lon="-3.16864">
        <ele>190</ele>
        <time>2020-10-19T12:33:48.000Z</time>
      </trkpt>
      <trkpt lat="48.22266" lon="-3.16862">
        <ele>190.19999694824</ele>
        <time>2020-10-19T12:33:49.000Z</time>
      </trkpt>
      <trkpt lat="48.22266" lon="-3.16861">
        <ele>190.19999694824</ele>
        <time>2020-10-19T12:33:50.000Z</time>
      </trkpt>
      <trkpt lat="48.22266" lon="-3.16859">
        <ele>190.39999389648</ele>
        <time>2020-10-19T12:33:51.000Z</time>
      </trkpt>
      <trkpt lat="48.22266" lon="-3.16858">
        <ele>190.39999389648</ele>
        <time>2020-10-19T12:33:52.000Z</time>
      </trkpt>
      <trkpt lat="48.22265" lon="-3.16857">
        <ele>190.39999389648</ele>
        <time>2020-10-19T12:33:53.000Z</time>
      </trkpt>
      <trkpt lat="48.22265" lon="-3.16856">
        <ele>190.60000610352</ele>
        <time>2020-10-19T12:33:54.000Z</time>
      </trkpt>
      <trkpt lat="48.22265" lon="-3.16855">
        <ele>190.60000610352</ele>
        <time>2020-10-19T12:33:55.000Z</time>
      </trkpt>
      <trkpt lat="48.22265" lon="-3.16853">
        <ele>190.60000610352</ele>
        <time>2020-10-19T12:33:56.000Z</time>
      </trkpt>
      <trkpt lat="48.22265" lon="-3.16852">
        <ele>190.80000305176</ele>
        <time>2020-10-19T12:33:57.000Z</time>
      </trkpt>
      <trkpt lat="48.22264" lon="-3.16851">
        <ele>190.80000305176</ele>
        <time>2020-10-19T12:33:58.000Z</time>
      </trkpt>
      <trkpt lat="48.22264" lon="-3.1685">
        <ele>190.80000305176</ele>
        <time>2020-10-19T12:33:59.000Z</time>
      </trkpt>
      <trkpt lat="48.22263" lon="-3.16848">
        <ele>190.80000305176</ele>
        <time>2020-10-19T12:34:00.000Z</time>
      </trkpt>
      <trkpt lat="48.22263" lon="-3.16847">
        <ele>191</ele>
        <time>2020-10-19T12:34:01.000Z</time>
      </trkpt>
      <trkpt lat="48.22263" lon="-3.16846">
        <ele>191</ele>
        <time>2020-10-19T12:34:02.000Z</time>
      </trkpt>
      <trkpt lat="48.22263" lon="-3.16845">
        <ele>191</ele>
        <time>2020-10-19T12:34:03.000Z</time>
      </trkpt>
      <trkpt lat="48.22262" lon="-3.16843">
        <ele>191.19999694824</ele>
        <time>2020-10-19T12:34:04.000Z</time>
      </trkpt>
      <trkpt lat="48.22262" lon="-3.16841">
        <ele>191.19999694824</ele>
        <time>2020-10-19T12:34:05.000Z</time>
      </trkpt>
      <trkpt lat="48.22262" lon="-3.1684">
        <ele>191.19999694824</ele>
        <time>2020-10-19T12:34:06.000Z</time>
      </trkpt>
      <trkpt lat="48.22261" lon="-3.16839">
        <ele>191.19999694824</ele>
        <time>2020-10-19T12:34:07.000Z</time>
      </trkpt>
      <trkpt lat="48.22261" lon="-3.16838">
        <ele>191.19999694824</ele>
        <time>2020-10-19T12:34:08.000Z</time>
      </trkpt>
      <trkpt lat="48.2226" lon="-3.16836">
        <ele>191.19999694824</ele>
        <time>2020-10-19T12:34:09.000Z</time>
      </trkpt>
      <trkpt lat="48.2226" lon="-3.16835">
        <ele>191.39999389648</ele>
        <time>2020-10-19T12:34:10.000Z</time>
      </trkpt>
      <trkpt lat="48.2226" lon="-3.16834">
        <ele>191.39999389648</ele>
        <time>2020-10-19T12:34:11.000Z</time>
      </trkpt>
      <trkpt lat="48.22261" lon="-3.16832">
        <ele>191.60000610352</ele>
        <time>2020-10-19T12:34:12.000Z</time>
      </trkpt>
      <trkpt lat="48.22261" lon="-3.16831">
        <ele>191.60000610352</ele>
        <time>2020-10-19T12:34:13.000Z</time>
      </trkpt>
      <trkpt lat="48.22261" lon="-3.1683">
        <ele>191.80000305176</ele>
        <time>2020-10-19T12:34:14.000Z</time>
      </trkpt>
      <trkpt lat="48.22261" lon="-3.16828">
        <ele>192</ele>
        <time>2020-10-19T12:34:15.000Z</time>
      </trkpt>
      <trkpt lat="48.22261" lon="-3.16827">
        <ele>192</ele>
        <time>2020-10-19T12:34:16.000Z</time>
      </trkpt>
      <trkpt lat="48.22261" lon="-3.16825">
        <ele>192.19999694824</ele>
        <time>2020-10-19T12:34:17.000Z</time>
      </trkpt>
      <trkpt lat="48.22261" lon="-3.16824">
        <ele>192.19999694824</ele>
        <time>2020-10-19T12:34:18.000Z</time>
      </trkpt>
      <trkpt lat="48.22261" lon="-3.16823">
        <ele>192.19999694824</ele>
        <time>2020-10-19T12:34:19.000Z</time>
      </trkpt>
      <trkpt lat="48.2226" lon="-3.16822">
        <ele>192.39999389648</ele>
        <time>2020-10-19T12:34:20.000Z</time>
      </trkpt>
      <trkpt lat="48.22261" lon="-3.1682">
        <ele>192.39999389648</ele>
        <time>2020-10-19T12:34:21.000Z</time>
      </trkpt>
      <trkpt lat="48.22261" lon="-3.16819">
        <ele>192.60000610352</ele>
        <time>2020-10-19T12:34:22.000Z</time>
      </trkpt>
      <trkpt lat="48.2226" lon="-3.16818">
        <ele>192.60000610352</ele>
        <time>2020-10-19T12:34:23.000Z</time>
      </trkpt>
      <trkpt lat="48.2226" lon="-3.16816">
        <ele>192.60000610352</ele>
        <time>2020-10-19T12:34:24.000Z</time>
      </trkpt>
      <trkpt lat="48.22259" lon="-3.16815">
        <ele>192.60000610352</ele>
        <time>2020-10-19T12:34:25.000Z</time>
      </trkpt>
      <trkpt lat="48.22259" lon="-3.16814">
        <ele>192.60000610352</ele>
        <time>2020-10-19T12:34:26.000Z</time>
      </trkpt>
      <trkpt lat="48.22259" lon="-3.16813">
        <ele>192.60000610352</ele>
        <time>2020-10-19T12:34:27.000Z</time>
      </trkpt>
      <trkpt lat="48.22258" lon="-3.1681">
        <ele>192.80000305176</ele>
        <time>2020-10-19T12:34:28.000Z</time>
      </trkpt>
      <trkpt lat="48.22258" lon="-3.1681">
        <ele>192.80000305176</ele>
        <time>2020-10-19T12:34:29.000Z</time>
      </trkpt>
      <trkpt lat="48.22258" lon="-3.16809">
        <ele>192.80000305176</ele>
        <time>2020-10-19T12:34:30.000Z</time>
      </trkpt>
      <trkpt lat="48.22258" lon="-3.16808">
        <ele>193</ele>
        <time>2020-10-19T12:34:31.000Z</time>
      </trkpt>
      <trkpt lat="48.22258" lon="-3.16806">
        <ele>193</ele>
        <time>2020-10-19T12:34:32.000Z</time>
      </trkpt>
      <trkpt lat="48.22258" lon="-3.16805">
        <ele>193.19999694824</ele>
        <time>2020-10-19T12:34:33.000Z</time>
      </trkpt>
      <trkpt lat="48.22258" lon="-3.16804">
        <ele>193.19999694824</ele>
        <time>2020-10-19T12:34:34.000Z</time>
      </trkpt>
      <trkpt lat="48.22258" lon="-3.16803">
        <ele>193.19999694824</ele>
        <time>2020-10-19T12:34:35.000Z</time>
      </trkpt>
      <trkpt lat="48.22258" lon="-3.168">
        <ele>193.39999389648</ele>
        <time>2020-10-19T12:34:36.000Z</time>
      </trkpt>
      <trkpt lat="48.22258" lon="-3.16799">
        <ele>193.60000610352</ele>
        <time>2020-10-19T12:34:37.000Z</time>
      </trkpt>
      <trkpt lat="48.22258" lon="-3.16798">
        <ele>193.60000610352</ele>
        <time>2020-10-19T12:34:38.000Z</time>
      </trkpt>
      <trkpt lat="48.22258" lon="-3.16798">
        <ele>193.60000610352</ele>
        <time>2020-10-19T12:34:39.000Z</time>
      </trkpt>
      <trkpt lat="48.22258" lon="-3.16798">
        <ele>193.60000610352</ele>
        <time>2020-10-19T12:34:40.000Z</time>
      </trkpt>
      <trkpt lat="48.22258" lon="-3.16797">
        <ele>193.60000610352</ele>
        <time>2020-10-19T12:34:41.000Z</time>
      </trkpt>
      <trkpt lat="48.22258" lon="-3.16797">
        <ele>193.60000610352</ele>
        <time>2020-10-19T12:34:42.000Z</time>
      </trkpt>
      <trkpt lat="48.22258" lon="-3.16797">
        <ele>193.60000610352</ele>
        <time>2020-10-19T12:34:43.000Z</time>
      </trkpt>
      <trkpt lat="48.22258" lon="-3.16797">
        <ele>193.60000610352</ele>
        <time>2020-10-19T12:34:44.000Z</time>
      </trkpt>
      <trkpt lat="48.22258" lon="-3.16796">
        <ele>193.80000305176</ele>
        <time>2020-10-19T12:34:45.000Z</time>
      </trkpt>
      <trkpt lat="48.22258" lon="-3.16795">
        <ele>193.80000305176</ele>
        <time>2020-10-19T12:34:46.000Z</time>
      </trkpt>
      <trkpt lat="48.22258" lon="-3.16794">
        <ele>193.80000305176</ele>
        <time>2020-10-19T12:34:47.000Z</time>
      </trkpt>
      <trkpt lat="48.22258" lon="-3.16793">
        <ele>194</ele>
        <time>2020-10-19T12:34:48.000Z</time>
      </trkpt>
      <trkpt lat="48.22258" lon="-3.16791">
        <ele>194</ele>
        <time>2020-10-19T12:34:49.000Z</time>
      </trkpt>
      <trkpt lat="48.22258" lon="-3.1679">
        <ele>194</ele>
        <time>2020-10-19T12:34:50.000Z</time>
      </trkpt>
      <trkpt lat="48.22258" lon="-3.16788">
        <ele>194.19999694824</ele>
        <time>2020-10-19T12:34:51.000Z</time>
      </trkpt>
      <trkpt lat="48.22258" lon="-3.16787">
        <ele>194.39999389648</ele>
        <time>2020-10-19T12:34:52.000Z</time>
      </trkpt>
      <trkpt lat="48.22258" lon="-3.16786">
        <ele>194.39999389648</ele>
        <time>2020-10-19T12:34:53.000Z</time>
      </trkpt>
      <trkpt lat="48.22259" lon="-3.16785">
        <ele>194.60000610352</ele>
        <time>2020-10-19T12:34:54.000Z</time>
      </trkpt>
      <trkpt lat="48.22259" lon="-3.16784">
        <ele>194.80000305176</ele>
        <time>2020-10-19T12:34:55.000Z</time>
      </trkpt>
      <trkpt lat="48.22259" lon="-3.16783">
        <ele>194.80000305176</ele>
        <time>2020-10-19T12:34:56.000Z</time>
      </trkpt>
      <trkpt lat="48.22259" lon="-3.16782">
        <ele>195</ele>
        <time>2020-10-19T12:34:57.000Z</time>
      </trkpt>
      <trkpt lat="48.22259" lon="-3.1678">
        <ele>195</ele>
        <time>2020-10-19T12:34:58.000Z</time>
      </trkpt>
      <trkpt lat="48.22258" lon="-3.16779">
        <ele>195</ele>
        <time>2020-10-19T12:34:59.000Z</time>
      </trkpt>
      <trkpt lat="48.22258" lon="-3.16776">
        <ele>195</ele>
        <time>2020-10-19T12:35:00.000Z</time>
      </trkpt>
      <trkpt lat="48.22258" lon="-3.16776">
        <ele>195</ele>
        <time>2020-10-19T12:35:01.000Z</time>
      </trkpt>
      <trkpt lat="48.22257" lon="-3.16773">
        <ele>195.19999694824</ele>
        <time>2020-10-19T12:35:02.000Z</time>
      </trkpt>
      <trkpt lat="48.22257" lon="-3.16772">
        <ele>195.19999694824</ele>
        <time>2020-10-19T12:35:03.000Z</time>
      </trkpt>
      <trkpt lat="48.22257" lon="-3.16771">
        <ele>195.39999389648</ele>
        <time>2020-10-19T12:35:04.000Z</time>
      </trkpt>
      <trkpt lat="48.22256" lon="-3.16769">
        <ele>195.39999389648</ele>
        <time>2020-10-19T12:35:05.000Z</time>
      </trkpt>
      <trkpt lat="48.22256" lon="-3.16767">
        <ele>195.39999389648</ele>
        <time>2020-10-19T12:35:06.000Z</time>
      </trkpt>
      <trkpt lat="48.22256" lon="-3.16766">
        <ele>195.39999389648</ele>
        <time>2020-10-19T12:35:07.000Z</time>
      </trkpt>
      <trkpt lat="48.22256" lon="-3.16764">
        <ele>195.60000610352</ele>
        <time>2020-10-19T12:35:08.000Z</time>
      </trkpt>
      <trkpt lat="48.22256" lon="-3.16762">
        <ele>195.80000305176</ele>
        <time>2020-10-19T12:35:09.000Z</time>
      </trkpt>
      <trkpt lat="48.22256" lon="-3.16761">
        <ele>195.80000305176</ele>
        <time>2020-10-19T12:35:10.000Z</time>
      </trkpt>
      <trkpt lat="48.22257" lon="-3.16759">
        <ele>196</ele>
        <time>2020-10-19T12:35:11.000Z</time>
      </trkpt>
      <trkpt lat="48.22257" lon="-3.16757">
        <ele>196</ele>
        <time>2020-10-19T12:35:12.000Z</time>
      </trkpt>
      <trkpt lat="48.22256" lon="-3.16755">
        <ele>196.19999694824</ele>
        <time>2020-10-19T12:35:13.000Z</time>
      </trkpt>
      <trkpt lat="48.22256" lon="-3.16754">
        <ele>196.19999694824</ele>
        <time>2020-10-19T12:35:14.000Z</time>
      </trkpt>
      <trkpt lat="48.22257" lon="-3.16752">
        <ele>196.39999389648</ele>
        <time>2020-10-19T12:35:15.000Z</time>
      </trkpt>
      <trkpt lat="48.22256" lon="-3.1675">
        <ele>196.39999389648</ele>
        <time>2020-10-19T12:35:16.000Z</time>
      </trkpt>
      <trkpt lat="48.22256" lon="-3.16749">
        <ele>196.39999389648</ele>
        <time>2020-10-19T12:35:17.000Z</time>
      </trkpt>
      <trkpt lat="48.22257" lon="-3.16747">
        <ele>196.60000610352</ele>
        <time>2020-10-19T12:35:18.000Z</time>
      </trkpt>
      <trkpt lat="48.22256" lon="-3.16745">
        <ele>196.60000610352</ele>
        <time>2020-10-19T12:35:19.000Z</time>
      </trkpt>
      <trkpt lat="48.22256" lon="-3.16743">
        <ele>196.80000305176</ele>
        <time>2020-10-19T12:35:20.000Z</time>
      </trkpt>
      <trkpt lat="48.22257" lon="-3.16742">
        <ele>196.80000305176</ele>
        <time>2020-10-19T12:35:21.000Z</time>
      </trkpt>
      <trkpt lat="48.22256" lon="-3.1674">
        <ele>196.80000305176</ele>
        <time>2020-10-19T12:35:22.000Z</time>
      </trkpt>
      <trkpt lat="48.22256" lon="-3.16739">
        <ele>197</ele>
        <time>2020-10-19T12:35:23.000Z</time>
      </trkpt>
      <trkpt lat="48.22256" lon="-3.16737">
        <ele>197</ele>
        <time>2020-10-19T12:35:24.000Z</time>
      </trkpt>
      <trkpt lat="48.22257" lon="-3.16735">
        <ele>197.19999694824</ele>
        <time>2020-10-19T12:35:25.000Z</time>
      </trkpt>
      <trkpt lat="48.22257" lon="-3.16734">
        <ele>197.19999694824</ele>
        <time>2020-10-19T12:35:26.000Z</time>
      </trkpt>
      <trkpt lat="48.22256" lon="-3.16732">
        <ele>197.19999694824</ele>
        <time>2020-10-19T12:35:27.000Z</time>
      </trkpt>
      <trkpt lat="48.22256" lon="-3.1673">
        <ele>197.19999694824</ele>
        <time>2020-10-19T12:35:28.000Z</time>
      </trkpt>
      <trkpt lat="48.22256" lon="-3.16728">
        <ele>197.19999694824</ele>
        <time>2020-10-19T12:35:29.000Z</time>
      </trkpt>
      <trkpt lat="48.22255" lon="-3.16727">
        <ele>197.39999389648</ele>
        <time>2020-10-19T12:35:30.000Z</time>
      </trkpt>
      <trkpt lat="48.22255" lon="-3.16725">
        <ele>197.39999389648</ele>
        <time>2020-10-19T12:35:31.000Z</time>
      </trkpt>
      <trkpt lat="48.22255" lon="-3.16723">
        <ele>197.39999389648</ele>
        <time>2020-10-19T12:35:32.000Z</time>
      </trkpt>
      <trkpt lat="48.22255" lon="-3.16722">
        <ele>197.39999389648</ele>
        <time>2020-10-19T12:35:33.000Z</time>
      </trkpt>
      <trkpt lat="48.22255" lon="-3.16721">
        <ele>197.60000610352</ele>
        <time>2020-10-19T12:35:34.000Z</time>
      </trkpt>
      <trkpt lat="48.22255" lon="-3.16719">
        <ele>197.60000610352</ele>
        <time>2020-10-19T12:35:35.000Z</time>
      </trkpt>
      <trkpt lat="48.22255" lon="-3.16717">
        <ele>197.60000610352</ele>
        <time>2020-10-19T12:35:36.000Z</time>
      </trkpt>
      <trkpt lat="48.22255" lon="-3.16716">
        <ele>197.80000305176</ele>
        <time>2020-10-19T12:35:37.000Z</time>
      </trkpt>
      <trkpt lat="48.22255" lon="-3.16714">
        <ele>197.80000305176</ele>
        <time>2020-10-19T12:35:38.000Z</time>
      </trkpt>
      <trkpt lat="48.22255" lon="-3.16712">
        <ele>198</ele>
        <time>2020-10-19T12:35:39.000Z</time>
      </trkpt>
      <trkpt lat="48.22255" lon="-3.1671">
        <ele>198</ele>
        <time>2020-10-19T12:35:40.000Z</time>
      </trkpt>
      <trkpt lat="48.22255" lon="-3.16709">
        <ele>198.19999694824</ele>
        <time>2020-10-19T12:35:41.000Z</time>
      </trkpt>
      <trkpt lat="48.22256" lon="-3.16708">
        <ele>198.19999694824</ele>
        <time>2020-10-19T12:35:42.000Z</time>
      </trkpt>
      <trkpt lat="48.22255" lon="-3.16706">
        <ele>198.19999694824</ele>
        <time>2020-10-19T12:35:43.000Z</time>
      </trkpt>
      <trkpt lat="48.22256" lon="-3.16704">
        <ele>198.39999389648</ele>
        <time>2020-10-19T12:35:44.000Z</time>
      </trkpt>
      <trkpt lat="48.22255" lon="-3.16701">
        <ele>198.39999389648</ele>
        <time>2020-10-19T12:35:45.000Z</time>
      </trkpt>
      <trkpt lat="48.22255" lon="-3.16701">
        <ele>198.39999389648</ele>
        <time>2020-10-19T12:35:46.000Z</time>
      </trkpt>
      <trkpt lat="48.22255" lon="-3.167">
        <ele>198.60000610352</ele>
        <time>2020-10-19T12:35:47.000Z</time>
      </trkpt>
      <trkpt lat="48.22256" lon="-3.16698">
        <ele>198.80000305176</ele>
        <time>2020-10-19T12:35:48.000Z</time>
      </trkpt>
      <trkpt lat="48.22256" lon="-3.16696">
        <ele>198.80000305176</ele>
        <time>2020-10-19T12:35:49.000Z</time>
      </trkpt>
      <trkpt lat="48.22256" lon="-3.16695">
        <ele>199</ele>
        <time>2020-10-19T12:35:50.000Z</time>
      </trkpt>
      <trkpt lat="48.22256" lon="-3.16693">
        <ele>199</ele>
        <time>2020-10-19T12:35:51.000Z</time>
      </trkpt>
      <trkpt lat="48.22256" lon="-3.16691">
        <ele>199.19999694824</ele>
        <time>2020-10-19T12:35:52.000Z</time>
      </trkpt>
      <trkpt lat="48.22256" lon="-3.1669">
        <ele>199.19999694824</ele>
        <time>2020-10-19T12:35:53.000Z</time>
      </trkpt>
      <trkpt lat="48.22256" lon="-3.16688">
        <ele>199.19999694824</ele>
        <time>2020-10-19T12:35:54.000Z</time>
      </trkpt>
      <trkpt lat="48.22256" lon="-3.16686">
        <ele>199.19999694824</ele>
        <time>2020-10-19T12:35:55.000Z</time>
      </trkpt>
      <trkpt lat="48.22256" lon="-3.16685">
        <ele>199.39999389648</ele>
        <time>2020-10-19T12:35:56.000Z</time>
      </trkpt>
      <trkpt lat="48.22256" lon="-3.16683">
        <ele>199.39999389648</ele>
        <time>2020-10-19T12:35:57.000Z</time>
      </trkpt>
      <trkpt lat="48.22256" lon="-3.16682">
        <ele>199.60000610352</ele>
        <time>2020-10-19T12:35:58.000Z</time>
      </trkpt>
      <trkpt lat="48.22256" lon="-3.1668">
        <ele>199.60000610352</ele>
        <time>2020-10-19T12:35:59.000Z</time>
      </trkpt>
      <trkpt lat="48.22256" lon="-3.16678">
        <ele>199.60000610352</ele>
        <time>2020-10-19T12:36:00.000Z</time>
      </trkpt>
      <trkpt lat="48.22256" lon="-3.16678">
        <ele>199.60000610352</ele>
        <time>2020-10-19T12:36:01.000Z</time>
      </trkpt>
      <trkpt lat="48.22257" lon="-3.16676">
        <ele>199.60000610352</ele>
        <time>2020-10-19T12:36:02.000Z</time>
      </trkpt>
      <trkpt lat="48.22257" lon="-3.16675">
        <ele>199.80000305176</ele>
        <time>2020-10-19T12:36:03.000Z</time>
      </trkpt>
      <trkpt lat="48.22257" lon="-3.16674">
        <ele>199.80000305176</ele>
        <time>2020-10-19T12:36:04.000Z</time>
      </trkpt>
      <trkpt lat="48.22257" lon="-3.16672">
        <ele>199.80000305176</ele>
        <time>2020-10-19T12:36:05.000Z</time>
      </trkpt>
      <trkpt lat="48.22258" lon="-3.16671">
        <ele>200</ele>
        <time>2020-10-19T12:36:06.000Z</time>
      </trkpt>
      <trkpt lat="48.22258" lon="-3.16669">
        <ele>200.19999694824</ele>
        <time>2020-10-19T12:36:07.000Z</time>
      </trkpt>
      <trkpt lat="48.22259" lon="-3.16668">
        <ele>200.19999694824</ele>
        <time>2020-10-19T12:36:08.000Z</time>
      </trkpt>
      <trkpt lat="48.22259" lon="-3.16666">
        <ele>200.39999389648</ele>
        <time>2020-10-19T12:36:09.000Z</time>
      </trkpt>
      <trkpt lat="48.2226" lon="-3.16665">
        <ele>200.39999389648</ele>
        <time>2020-10-19T12:36:10.000Z</time>
      </trkpt>
      <trkpt lat="48.2226" lon="-3.16664">
        <ele>200.60000610352</ele>
        <time>2020-10-19T12:36:11.000Z</time>
      </trkpt>
      <trkpt lat="48.2226" lon="-3.16662">
        <ele>200.60000610352</ele>
        <time>2020-10-19T12:36:12.000Z</time>
      </trkpt>
      <trkpt lat="48.2226" lon="-3.1666">
        <ele>200.60000610352</ele>
        <time>2020-10-19T12:36:13.000Z</time>
      </trkpt>
      <trkpt lat="48.2226" lon="-3.16659">
        <ele>200.60000610352</ele>
        <time>2020-10-19T12:36:14.000Z</time>
      </trkpt>
      <trkpt lat="48.2226" lon="-3.16658">
        <ele>200.39999389648</ele>
        <time>2020-10-19T12:36:15.000Z</time>
      </trkpt>
      <trkpt lat="48.2226" lon="-3.16656">
        <ele>200.39999389648</ele>
        <time>2020-10-19T12:36:16.000Z</time>
      </trkpt>
      <trkpt lat="48.2226" lon="-3.16654">
        <ele>200.39999389648</ele>
        <time>2020-10-19T12:36:17.000Z</time>
      </trkpt>
      <trkpt lat="48.2226" lon="-3.16653">
        <ele>200.39999389648</ele>
        <time>2020-10-19T12:36:18.000Z</time>
      </trkpt>
      <trkpt lat="48.2226" lon="-3.16651">
        <ele>200.39999389648</ele>
        <time>2020-10-19T12:36:19.000Z</time>
      </trkpt>
      <trkpt lat="48.2226" lon="-3.1665">
        <ele>200.39999389648</ele>
        <time>2020-10-19T12:36:20.000Z</time>
      </trkpt>
      <trkpt lat="48.2226" lon="-3.16648">
        <ele>200.39999389648</ele>
        <time>2020-10-19T12:36:21.000Z</time>
      </trkpt>
      <trkpt lat="48.2226" lon="-3.16647">
        <ele>200.39999389648</ele>
        <time>2020-10-19T12:36:22.000Z</time>
      </trkpt>
      <trkpt lat="48.2226" lon="-3.16645">
        <ele>200.60000610352</ele>
        <time>2020-10-19T12:36:23.000Z</time>
      </trkpt>
      <trkpt lat="48.2226" lon="-3.16644">
        <ele>200.60000610352</ele>
        <time>2020-10-19T12:36:24.000Z</time>
      </trkpt>
      <trkpt lat="48.22261" lon="-3.16642">
        <ele>200.80000305176</ele>
        <time>2020-10-19T12:36:25.000Z</time>
      </trkpt>
      <trkpt lat="48.22261" lon="-3.1664">
        <ele>200.80000305176</ele>
        <time>2020-10-19T12:36:26.000Z</time>
      </trkpt>
      <trkpt lat="48.22262" lon="-3.16639">
        <ele>201</ele>
        <time>2020-10-19T12:36:27.000Z</time>
      </trkpt>
      <trkpt lat="48.22262" lon="-3.16637">
        <ele>201</ele>
        <time>2020-10-19T12:36:28.000Z</time>
      </trkpt>
      <trkpt lat="48.22262" lon="-3.16635">
        <ele>201</ele>
        <time>2020-10-19T12:36:29.000Z</time>
      </trkpt>
      <trkpt lat="48.22263" lon="-3.16634">
        <ele>201</ele>
        <time>2020-10-19T12:36:30.000Z</time>
      </trkpt>
      <trkpt lat="48.22263" lon="-3.16633">
        <ele>201</ele>
        <time>2020-10-19T12:36:31.000Z</time>
      </trkpt>
      <trkpt lat="48.22263" lon="-3.16631">
        <ele>201</ele>
        <time>2020-10-19T12:36:32.000Z</time>
      </trkpt>
      <trkpt lat="48.22263" lon="-3.1663">
        <ele>201</ele>
        <time>2020-10-19T12:36:33.000Z</time>
      </trkpt>
      <trkpt lat="48.22263" lon="-3.16629">
        <ele>201</ele>
        <time>2020-10-19T12:36:34.000Z</time>
      </trkpt>
      <trkpt lat="48.22263" lon="-3.16628">
        <ele>201</ele>
        <time>2020-10-19T12:36:35.000Z</time>
      </trkpt>
      <trkpt lat="48.22263" lon="-3.16626">
        <ele>201</ele>
        <time>2020-10-19T12:36:36.000Z</time>
      </trkpt>
      <trkpt lat="48.22263" lon="-3.16625">
        <ele>201</ele>
        <time>2020-10-19T12:36:37.000Z</time>
      </trkpt>
      <trkpt lat="48.22263" lon="-3.16623">
        <ele>201</ele>
        <time>2020-10-19T12:36:38.000Z</time>
      </trkpt>
      <trkpt lat="48.22263" lon="-3.16622">
        <ele>201</ele>
        <time>2020-10-19T12:36:39.000Z</time>
      </trkpt>
      <trkpt lat="48.22264" lon="-3.16621">
        <ele>201</ele>
        <time>2020-10-19T12:36:40.000Z</time>
      </trkpt>
      <trkpt lat="48.22264" lon="-3.1662">
        <ele>201.19999694824</ele>
        <time>2020-10-19T12:36:41.000Z</time>
      </trkpt>
      <trkpt lat="48.22265" lon="-3.16618">
        <ele>201.19999694824</ele>
        <time>2020-10-19T12:36:42.000Z</time>
      </trkpt>
      <trkpt lat="48.22266" lon="-3.16617">
        <ele>201.19999694824</ele>
        <time>2020-10-19T12:36:43.000Z</time>
      </trkpt>
      <trkpt lat="48.22266" lon="-3.16616">
        <ele>201.19999694824</ele>
        <time>2020-10-19T12:36:44.000Z</time>
      </trkpt>
      <trkpt lat="48.22266" lon="-3.16614">
        <ele>201.19999694824</ele>
        <time>2020-10-19T12:36:45.000Z</time>
      </trkpt>
      <trkpt lat="48.22266" lon="-3.16613">
        <ele>201.19999694824</ele>
        <time>2020-10-19T12:36:46.000Z</time>
      </trkpt>
      <trkpt lat="48.22267" lon="-3.16613">
        <ele>201.19999694824</ele>
        <time>2020-10-19T12:36:47.000Z</time>
      </trkpt>
      <trkpt lat="48.22267" lon="-3.16613">
        <ele>201.39999389648</ele>
        <time>2020-10-19T12:36:48.000Z</time>
      </trkpt>
      <trkpt lat="48.22268" lon="-3.16612">
        <ele>201.39999389648</ele>
        <time>2020-10-19T12:36:49.000Z</time>
      </trkpt>
      <trkpt lat="48.22269" lon="-3.1661">
        <ele>201.39999389648</ele>
        <time>2020-10-19T12:36:50.000Z</time>
      </trkpt>
      <trkpt lat="48.2227" lon="-3.16609">
        <ele>201.39999389648</ele>
        <time>2020-10-19T12:36:51.000Z</time>
      </trkpt>
      <trkpt lat="48.2227" lon="-3.16607">
        <ele>201.39999389648</ele>
        <time>2020-10-19T12:36:52.000Z</time>
      </trkpt>
      <trkpt lat="48.2227" lon="-3.16606">
        <ele>201.60000610352</ele>
        <time>2020-10-19T12:36:53.000Z</time>
      </trkpt>
      <trkpt lat="48.22271" lon="-3.16604">
        <ele>201.60000610352</ele>
        <time>2020-10-19T12:36:54.000Z</time>
      </trkpt>
      <trkpt lat="48.22271" lon="-3.16603">
        <ele>201.60000610352</ele>
        <time>2020-10-19T12:36:55.000Z</time>
      </trkpt>
      <trkpt lat="48.22272" lon="-3.16601">
        <ele>201.60000610352</ele>
        <time>2020-10-19T12:36:56.000Z</time>
      </trkpt>
      <trkpt lat="48.22272" lon="-3.16601">
        <ele>201.60000610352</ele>
        <time>2020-10-19T12:36:57.000Z</time>
      </trkpt>
      <trkpt lat="48.22273" lon="-3.16599">
        <ele>201.60000610352</ele>
        <time>2020-10-19T12:36:58.000Z</time>
      </trkpt>
      <trkpt lat="48.22274" lon="-3.16598">
        <ele>201.60000610352</ele>
        <time>2020-10-19T12:36:59.000Z</time>
      </trkpt>
      <trkpt lat="48.22274" lon="-3.16596">
        <ele>201.80000305176</ele>
        <time>2020-10-19T12:37:00.000Z</time>
      </trkpt>
      <trkpt lat="48.22275" lon="-3.16595">
        <ele>201.80000305176</ele>
        <time>2020-10-19T12:37:01.000Z</time>
      </trkpt>
      <trkpt lat="48.22276" lon="-3.16594">
        <ele>201.80000305176</ele>
        <time>2020-10-19T12:37:02.000Z</time>
      </trkpt>
      <trkpt lat="48.22277" lon="-3.16592">
        <ele>202</ele>
        <time>2020-10-19T12:37:03.000Z</time>
      </trkpt>
      <trkpt lat="48.22277" lon="-3.16591">
        <ele>202</ele>
        <time>2020-10-19T12:37:04.000Z</time>
      </trkpt>
      <trkpt lat="48.22278" lon="-3.16589">
        <ele>202</ele>
        <time>2020-10-19T12:37:05.000Z</time>
      </trkpt>
      <trkpt lat="48.22279" lon="-3.16588">
        <ele>202.19999694824</ele>
        <time>2020-10-19T12:37:06.000Z</time>
      </trkpt>
      <trkpt lat="48.22279" lon="-3.16587">
        <ele>202.19999694824</ele>
        <time>2020-10-19T12:37:07.000Z</time>
      </trkpt>
      <trkpt lat="48.22279" lon="-3.16586">
        <ele>202.19999694824</ele>
        <time>2020-10-19T12:37:08.000Z</time>
      </trkpt>
      <trkpt lat="48.22279" lon="-3.16585">
        <ele>202.19999694824</ele>
        <time>2020-10-19T12:37:09.000Z</time>
      </trkpt>
      <trkpt lat="48.2228" lon="-3.16585">
        <ele>202.19999694824</ele>
        <time>2020-10-19T12:37:10.000Z</time>
      </trkpt>
      <trkpt lat="48.2228" lon="-3.16583">
        <ele>202.39999389648</ele>
        <time>2020-10-19T12:37:11.000Z</time>
      </trkpt>
      <trkpt lat="48.22281" lon="-3.16582">
        <ele>202.39999389648</ele>
        <time>2020-10-19T12:37:12.000Z</time>
      </trkpt>
      <trkpt lat="48.22281" lon="-3.16581">
        <ele>202.39999389648</ele>
        <time>2020-10-19T12:37:13.000Z</time>
      </trkpt>
      <trkpt lat="48.22281" lon="-3.16581">
        <ele>202.39999389648</ele>
        <time>2020-10-19T12:37:14.000Z</time>
      </trkpt>
      <trkpt lat="48.22281" lon="-3.16581">
        <ele>202.39999389648</ele>
        <time>2020-10-19T12:37:15.000Z</time>
      </trkpt>
      <trkpt lat="48.22281" lon="-3.16581">
        <ele>202.39999389648</ele>
        <time>2020-10-19T12:37:16.000Z</time>
      </trkpt>
      <trkpt lat="48.22282" lon="-3.1658">
        <ele>202.60000610352</ele>
        <time>2020-10-19T12:37:17.000Z</time>
      </trkpt>
      <trkpt lat="48.22282" lon="-3.1658">
        <ele>202.60000610352</ele>
        <time>2020-10-19T12:37:18.000Z</time>
      </trkpt>
      <trkpt lat="48.22282" lon="-3.1658">
        <ele>202.60000610352</ele>
        <time>2020-10-19T12:37:19.000Z</time>
      </trkpt>
      <trkpt lat="48.22282" lon="-3.1658">
        <ele>202.60000610352</ele>
        <time>2020-10-19T12:37:20.000Z</time>
      </trkpt>
      <trkpt lat="48.22282" lon="-3.1658">
        <ele>202.60000610352</ele>
        <time>2020-10-19T12:37:21.000Z</time>
      </trkpt>
      <trkpt lat="48.22283" lon="-3.16579">
        <ele>202.60000610352</ele>
        <time>2020-10-19T12:37:22.000Z</time>
      </trkpt>
      <trkpt lat="48.22283" lon="-3.16579">
        <ele>202.60000610352</ele>
        <time>2020-10-19T12:37:23.000Z</time>
      </trkpt>
      <trkpt lat="48.22283" lon="-3.1658">
        <ele>202.60000610352</ele>
        <time>2020-10-19T12:37:24.000Z</time>
      </trkpt>
      <trkpt lat="48.22283" lon="-3.1658">
        <ele>202.60000610352</ele>
        <time>2020-10-19T12:37:25.000Z</time>
      </trkpt>
      <trkpt lat="48.22282" lon="-3.1658">
        <ele>202.60000610352</ele>
        <time>2020-10-19T12:37:26.000Z</time>
      </trkpt>
      <trkpt lat="48.22282" lon="-3.1658">
        <ele>202.60000610352</ele>
        <time>2020-10-19T12:37:27.000Z</time>
      </trkpt>
      <trkpt lat="48.22282" lon="-3.1658">
        <ele>202.60000610352</ele>
        <time>2020-10-19T12:37:28.000Z</time>
      </trkpt>
      <trkpt lat="48.22282" lon="-3.1658">
        <ele>202.60000610352</ele>
        <time>2020-10-19T12:37:29.000Z</time>
      </trkpt>
      <trkpt lat="48.22282" lon="-3.16579">
        <ele>202.60000610352</ele>
        <time>2020-10-19T12:37:30.000Z</time>
      </trkpt>
      <trkpt lat="48.22282" lon="-3.16579">
        <ele>202.60000610352</ele>
        <time>2020-10-19T12:37:31.000Z</time>
      </trkpt>
      <trkpt lat="48.22282" lon="-3.16579">
        <ele>202.60000610352</ele>
        <time>2020-10-19T12:37:32.000Z</time>
      </trkpt>
      <trkpt lat="48.22281" lon="-3.16579">
        <ele>202.60000610352</ele>
        <time>2020-10-19T12:37:33.000Z</time>
      </trkpt>
      <trkpt lat="48.22281" lon="-3.16578">
        <ele>202.60000610352</ele>
        <time>2020-10-19T12:37:34.000Z</time>
      </trkpt>
      <trkpt lat="48.22281" lon="-3.16578">
        <ele>202.60000610352</ele>
        <time>2020-10-19T12:37:35.000Z</time>
      </trkpt>
      <trkpt lat="48.22281" lon="-3.16578">
        <ele>202.60000610352</ele>
        <time>2020-10-19T12:37:36.000Z</time>
      </trkpt>
      <trkpt lat="48.22281" lon="-3.16578">
        <ele>202.60000610352</ele>
        <time>2020-10-19T12:37:37.000Z</time>
      </trkpt>
      <trkpt lat="48.22281" lon="-3.16578">
        <ele>202.60000610352</ele>
        <time>2020-10-19T12:37:38.000Z</time>
      </trkpt>
      <trkpt lat="48.22281" lon="-3.16578">
        <ele>202.60000610352</ele>
        <time>2020-10-19T12:37:39.000Z</time>
      </trkpt>
      <trkpt lat="48.22281" lon="-3.16578">
        <ele>202.60000610352</ele>
        <time>2020-10-19T12:37:40.000Z</time>
      </trkpt>
      <trkpt lat="48.22281" lon="-3.16578">
        <ele>202.60000610352</ele>
        <time>2020-10-19T12:37:41.000Z</time>
      </trkpt>
      <trkpt lat="48.22281" lon="-3.16578">
        <ele>202.60000610352</ele>
        <time>2020-10-19T12:37:42.000Z</time>
      </trkpt>
      <trkpt lat="48.22281" lon="-3.16578">
        <ele>202.60000610352</ele>
        <time>2020-10-19T12:37:43.000Z</time>
      </trkpt>
      <trkpt lat="48.22281" lon="-3.16578">
        <ele>202.60000610352</ele>
        <time>2020-10-19T12:37:44.000Z</time>
      </trkpt>
      <trkpt lat="48.22281" lon="-3.16578">
        <ele>202.60000610352</ele>
        <time>2020-10-19T12:37:45.000Z</time>
      </trkpt>
      <trkpt lat="48.22281" lon="-3.16578">
        <ele>202.60000610352</ele>
        <time>2020-10-19T12:37:46.000Z</time>
      </trkpt>
      <trkpt lat="48.22281" lon="-3.16578">
        <ele>202.39999389648</ele>
        <time>2020-10-19T12:37:47.000Z</time>
      </trkpt>
      <trkpt lat="48.2228" lon="-3.16578">
        <ele>202.39999389648</ele>
        <time>2020-10-19T12:37:48.000Z</time>
      </trkpt>
      <trkpt lat="48.2228" lon="-3.16578">
        <ele>202.39999389648</ele>
        <time>2020-10-19T12:37:49.000Z</time>
      </trkpt>
      <trkpt lat="48.2228" lon="-3.16578">
        <ele>202.39999389648</ele>
        <time>2020-10-19T12:37:50.000Z</time>
      </trkpt>
      <trkpt lat="48.2228" lon="-3.16578">
        <ele>202.39999389648</ele>
        <time>2020-10-19T12:37:51.000Z</time>
      </trkpt>
      <trkpt lat="48.2228" lon="-3.16578">
        <ele>202.39999389648</ele>
        <time>2020-10-19T12:37:52.000Z</time>
      </trkpt>
      <trkpt lat="48.2228" lon="-3.16578">
        <ele>202.39999389648</ele>
        <time>2020-10-19T12:37:53.000Z</time>
      </trkpt>
      <trkpt lat="48.2228" lon="-3.16578">
        <ele>202.39999389648</ele>
        <time>2020-10-19T12:37:54.000Z</time>
      </trkpt>
      <trkpt lat="48.2228" lon="-3.16578">
        <ele>202.60000610352</ele>
        <time>2020-10-19T12:37:55.000Z</time>
      </trkpt>
      <trkpt lat="48.22281" lon="-3.16578">
        <ele>202.60000610352</ele>
        <time>2020-10-19T12:37:56.000Z</time>
      </trkpt>
      <trkpt lat="48.22281" lon="-3.16577">
        <ele>202.60000610352</ele>
        <time>2020-10-19T12:37:57.000Z</time>
      </trkpt>
      <trkpt lat="48.22281" lon="-3.16577">
        <ele>202.60000610352</ele>
        <time>2020-10-19T12:37:58.000Z</time>
      </trkpt>
      <trkpt lat="48.22281" lon="-3.16577">
        <ele>202.60000610352</ele>
        <time>2020-10-19T12:37:59.000Z</time>
      </trkpt>
      <trkpt lat="48.22281" lon="-3.16577">
        <ele>202.60000610352</ele>
        <time>2020-10-19T12:38:00.000Z</time>
      </trkpt>
      <trkpt lat="48.2228" lon="-3.16577">
        <ele>202.60000610352</ele>
        <time>2020-10-19T12:38:01.000Z</time>
      </trkpt>
      <trkpt lat="48.2228" lon="-3.16578">
        <ele>202.39999389648</ele>
        <time>2020-10-19T12:38:02.000Z</time>
      </trkpt>
      <trkpt lat="48.2228" lon="-3.16578">
        <ele>202.39999389648</ele>
        <time>2020-10-19T12:38:03.000Z</time>
      </trkpt>
      <trkpt lat="48.2228" lon="-3.16578">
        <ele>202.39999389648</ele>
        <time>2020-10-19T12:38:04.000Z</time>
      </trkpt>
      <trkpt lat="48.2228" lon="-3.16578">
        <ele>202.39999389648</ele>
        <time>2020-10-19T12:38:05.000Z</time>
      </trkpt>
      <trkpt lat="48.2228" lon="-3.16579">
        <ele>202.39999389648</ele>
        <time>2020-10-19T12:38:06.000Z</time>
      </trkpt>
      <trkpt lat="48.2228" lon="-3.16579">
        <ele>202.39999389648</ele>
        <time>2020-10-19T12:38:07.000Z</time>
      </trkpt>
      <trkpt lat="48.2228" lon="-3.16579">
        <ele>202.39999389648</ele>
        <time>2020-10-19T12:38:08.000Z</time>
      </trkpt>
      <trkpt lat="48.2228" lon="-3.16578">
        <ele>202.39999389648</ele>
        <time>2020-10-19T12:38:09.000Z</time>
      </trkpt>
      <trkpt lat="48.2228" lon="-3.16579">
        <ele>202.39999389648</ele>
        <time>2020-10-19T12:38:10.000Z</time>
      </trkpt>
      <trkpt lat="48.2228" lon="-3.16579">
        <ele>202.39999389648</ele>
        <time>2020-10-19T12:38:11.000Z</time>
      </trkpt>
      <trkpt lat="48.2228" lon="-3.16579">
        <ele>202.39999389648</ele>
        <time>2020-10-19T12:38:12.000Z</time>
      </trkpt>
      <trkpt lat="48.2228" lon="-3.16579">
        <ele>202.39999389648</ele>
        <time>2020-10-19T12:38:13.000Z</time>
      </trkpt>
      <trkpt lat="48.2228" lon="-3.16579">
        <ele>202.39999389648</ele>
        <time>2020-10-19T12:38:14.000Z</time>
      </trkpt>
      <trkpt lat="48.2228" lon="-3.16579">
        <ele>202.39999389648</ele>
        <time>2020-10-19T12:38:15.000Z</time>
      </trkpt>
      <trkpt lat="48.2228" lon="-3.16579">
        <ele>202.39999389648</ele>
        <time>2020-10-19T12:38:16.000Z</time>
      </trkpt>
      <trkpt lat="48.2228" lon="-3.16579">
        <ele>202.39999389648</ele>
        <time>2020-10-19T12:38:17.000Z</time>
      </trkpt>
      <trkpt lat="48.2228" lon="-3.16579">
        <ele>202.39999389648</ele>
        <time>2020-10-19T12:38:18.000Z</time>
      </trkpt>
      <trkpt lat="48.2228" lon="-3.16579">
        <ele>202.39999389648</ele>
        <time>2020-10-19T12:38:19.000Z</time>
      </trkpt>
      <trkpt lat="48.22279" lon="-3.16579">
        <ele>202.39999389648</ele>
        <time>2020-10-19T12:38:20.000Z</time>
      </trkpt>
      <trkpt lat="48.22279" lon="-3.16578">
        <ele>202.39999389648</ele>
        <time>2020-10-19T12:38:21.000Z</time>
      </trkpt>
      <trkpt lat="48.22279" lon="-3.16578">
        <ele>202.39999389648</ele>
        <time>2020-10-19T12:38:22.000Z</time>
      </trkpt>
      <trkpt lat="48.22278" lon="-3.16578">
        <ele>202.39999389648</ele>
        <time>2020-10-19T12:38:23.000Z</time>
      </trkpt>
      <trkpt lat="48.22278" lon="-3.16578">
        <ele>202.39999389648</ele>
        <time>2020-10-19T12:38:24.000Z</time>
      </trkpt>
      <trkpt lat="48.22278" lon="-3.16578">
        <ele>202.39999389648</ele>
        <time>2020-10-19T12:38:25.000Z</time>
      </trkpt>
      <trkpt lat="48.22278" lon="-3.16578">
        <ele>202.39999389648</ele>
        <time>2020-10-19T12:38:26.000Z</time>
      </trkpt>
      <trkpt lat="48.22278" lon="-3.16578">
        <ele>202.39999389648</ele>
        <time>2020-10-19T12:38:27.000Z</time>
      </trkpt>
      <trkpt lat="48.22278" lon="-3.16578">
        <ele>202.39999389648</ele>
        <time>2020-10-19T12:38:28.000Z</time>
      </trkpt>
      <trkpt lat="48.22278" lon="-3.16578">
        <ele>202.39999389648</ele>
        <time>2020-10-19T12:38:29.000Z</time>
      </trkpt>
      <trkpt lat="48.22278" lon="-3.16578">
        <ele>202.39999389648</ele>
        <time>2020-10-19T12:38:30.000Z</time>
      </trkpt>
      <trkpt lat="48.22278" lon="-3.16578">
        <ele>202.39999389648</ele>
        <time>2020-10-19T12:38:31.000Z</time>
      </trkpt>
      <trkpt lat="48.22278" lon="-3.16578">
        <ele>202.39999389648</ele>
        <time>2020-10-19T12:38:32.000Z</time>
      </trkpt>
      <trkpt lat="48.22278" lon="-3.16578">
        <ele>202.39999389648</ele>
        <time>2020-10-19T12:38:33.000Z</time>
      </trkpt>
      <trkpt lat="48.22278" lon="-3.16578">
        <ele>202.39999389648</ele>
        <time>2020-10-19T12:38:34.000Z</time>
      </trkpt>
      <trkpt lat="48.22278" lon="-3.16578">
        <ele>202.39999389648</ele>
        <time>2020-10-19T12:38:35.000Z</time>
      </trkpt>
      <trkpt lat="48.22278" lon="-3.16578">
        <ele>202.39999389648</ele>
        <time>2020-10-19T12:38:36.000Z</time>
      </trkpt>
      <trkpt lat="48.22278" lon="-3.16578">
        <ele>202.39999389648</ele>
        <time>2020-10-19T12:38:37.000Z</time>
      </trkpt>
      <trkpt lat="48.22278" lon="-3.16578">
        <ele>202.39999389648</ele>
        <time>2020-10-19T12:38:38.000Z</time>
      </trkpt>
      <trkpt lat="48.22278" lon="-3.16578">
        <ele>202.39999389648</ele>
        <time>2020-10-19T12:38:39.000Z</time>
      </trkpt>
      <trkpt lat="48.22278" lon="-3.16578">
        <ele>202.39999389648</ele>
        <time>2020-10-19T12:38:40.000Z</time>
      </trkpt>
      <trkpt lat="48.22278" lon="-3.16578">
        <ele>202.39999389648</ele>
        <time>2020-10-19T12:38:41.000Z</time>
      </trkpt>
      <trkpt lat="48.22278" lon="-3.16578">
        <ele>202.39999389648</ele>
        <time>2020-10-19T12:38:42.000Z</time>
      </trkpt>
      <trkpt lat="48.22278" lon="-3.16578">
        <ele>202.39999389648</ele>
        <time>2020-10-19T12:38:43.000Z</time>
      </trkpt>
      <trkpt lat="48.22278" lon="-3.16577">
        <ele>202.39999389648</ele>
        <time>2020-10-19T12:38:44.000Z</time>
      </trkpt>
      <trkpt lat="48.22278" lon="-3.16577">
        <ele>202.39999389648</ele>
        <time>2020-10-19T12:38:45.000Z</time>
      </trkpt>
      <trkpt lat="48.22278" lon="-3.16577">
        <ele>202.39999389648</ele>
        <time>2020-10-19T12:38:46.000Z</time>
      </trkpt>
      <trkpt lat="48.22278" lon="-3.16577">
        <ele>202.39999389648</ele>
        <time>2020-10-19T12:38:47.000Z</time>
      </trkpt>
      <trkpt lat="48.22279" lon="-3.16577">
        <ele>202.39999389648</ele>
        <time>2020-10-19T12:38:48.000Z</time>
      </trkpt>
      <trkpt lat="48.22279" lon="-3.16577">
        <ele>202.39999389648</ele>
        <time>2020-10-19T12:38:49.000Z</time>
      </trkpt>
      <trkpt lat="48.22279" lon="-3.16577">
        <ele>202.39999389648</ele>
        <time>2020-10-19T12:38:50.000Z</time>
      </trkpt>
      <trkpt lat="48.22279" lon="-3.16577">
        <ele>202.39999389648</ele>
        <time>2020-10-19T12:38:51.000Z</time>
      </trkpt>
      <trkpt lat="48.22279" lon="-3.16577">
        <ele>202.39999389648</ele>
        <time>2020-10-19T12:38:52.000Z</time>
      </trkpt>
      <trkpt lat="48.22279" lon="-3.16577">
        <ele>202.39999389648</ele>
        <time>2020-10-19T12:38:53.000Z</time>
      </trkpt>
      <trkpt lat="48.22279" lon="-3.16577">
        <ele>202.39999389648</ele>
        <time>2020-10-19T12:38:54.000Z</time>
      </trkpt>
      <trkpt lat="48.22279" lon="-3.16577">
        <ele>202.39999389648</ele>
        <time>2020-10-19T12:38:55.000Z</time>
      </trkpt>
      <trkpt lat="48.22279" lon="-3.16577">
        <ele>202.39999389648</ele>
        <time>2020-10-19T12:38:56.000Z</time>
      </trkpt>
      <trkpt lat="48.22279" lon="-3.16577">
        <ele>202.39999389648</ele>
        <time>2020-10-19T12:38:57.000Z</time>
      </trkpt>
      <trkpt lat="48.22279" lon="-3.16577">
        <ele>202.39999389648</ele>
        <time>2020-10-19T12:38:58.000Z</time>
      </trkpt>
      <trkpt lat="48.22279" lon="-3.16577">
        <ele>202.39999389648</ele>
        <time>2020-10-19T12:38:59.000Z</time>
      </trkpt>
      <trkpt lat="48.22279" lon="-3.16577">
        <ele>202.39999389648</ele>
        <time>2020-10-19T12:39:00.000Z</time>
      </trkpt>
      <trkpt lat="48.22279" lon="-3.16577">
        <ele>202.39999389648</ele>
        <time>2020-10-19T12:39:01.000Z</time>
      </trkpt>
      <trkpt lat="48.22279" lon="-3.16577">
        <ele>202.39999389648</ele>
        <time>2020-10-19T12:39:02.000Z</time>
      </trkpt>
      <trkpt lat="48.22279" lon="-3.16577">
        <ele>202.39999389648</ele>
        <time>2020-10-19T12:39:03.000Z</time>
      </trkpt>
      <trkpt lat="48.22279" lon="-3.16576">
        <ele>202.39999389648</ele>
        <time>2020-10-19T12:39:04.000Z</time>
      </trkpt>
      <trkpt lat="48.2228" lon="-3.16576">
        <ele>202.39999389648</ele>
        <time>2020-10-19T12:39:05.000Z</time>
      </trkpt>
      <trkpt lat="48.2228" lon="-3.16576">
        <ele>202.39999389648</ele>
        <time>2020-10-19T12:39:06.000Z</time>
      </trkpt>
      <trkpt lat="48.2228" lon="-3.16576">
        <ele>202.39999389648</ele>
        <time>2020-10-19T12:39:07.000Z</time>
      </trkpt>
      <trkpt lat="48.2228" lon="-3.16576">
        <ele>202.39999389648</ele>
        <time>2020-10-19T12:39:08.000Z</time>
      </trkpt>
      <trkpt lat="48.2228" lon="-3.16576">
        <ele>202.39999389648</ele>
        <time>2020-10-19T12:39:09.000Z</time>
      </trkpt>
      <trkpt lat="48.2228" lon="-3.16576">
        <ele>202.39999389648</ele>
        <time>2020-10-19T12:39:10.000Z</time>
      </trkpt>
      <trkpt lat="48.2228" lon="-3.16576">
        <ele>202.39999389648</ele>
        <time>2020-10-19T12:39:11.000Z</time>
      </trkpt>
      <trkpt lat="48.2228" lon="-3.16576">
        <ele>202.39999389648</ele>
        <time>2020-10-19T12:39:12.000Z</time>
      </trkpt>
      <trkpt lat="48.2228" lon="-3.16576">
        <ele>202.39999389648</ele>
        <time>2020-10-19T12:39:13.000Z</time>
      </trkpt>
      <trkpt lat="48.2228" lon="-3.16576">
        <ele>202.39999389648</ele>
        <time>2020-10-19T12:39:14.000Z</time>
      </trkpt>
      <trkpt lat="48.2228" lon="-3.16577">
        <ele>202.39999389648</ele>
        <time>2020-10-19T12:39:15.000Z</time>
      </trkpt>
      <trkpt lat="48.2228" lon="-3.16577">
        <ele>202.39999389648</ele>
        <time>2020-10-19T12:39:16.000Z</time>
      </trkpt>
      <trkpt lat="48.2228" lon="-3.16577">
        <ele>202.39999389648</ele>
        <time>2020-10-19T12:39:17.000Z</time>
      </trkpt>
      <trkpt lat="48.2228" lon="-3.16576">
        <ele>202.39999389648</ele>
        <time>2020-10-19T12:39:18.000Z</time>
      </trkpt>
      <trkpt lat="48.2228" lon="-3.16576">
        <ele>202.39999389648</ele>
        <time>2020-10-19T12:39:19.000Z</time>
      </trkpt>
      <trkpt lat="48.2228" lon="-3.16576">
        <ele>202.39999389648</ele>
        <time>2020-10-19T12:39:20.000Z</time>
      </trkpt>
      <trkpt lat="48.2228" lon="-3.16576">
        <ele>202.60000610352</ele>
        <time>2020-10-19T12:39:21.000Z</time>
      </trkpt>
      <trkpt lat="48.2228" lon="-3.16576">
        <ele>202.60000610352</ele>
        <time>2020-10-19T12:39:22.000Z</time>
      </trkpt>
      <trkpt lat="48.22281" lon="-3.16575">
        <ele>202.60000610352</ele>
        <time>2020-10-19T12:39:23.000Z</time>
      </trkpt>
      <trkpt lat="48.22281" lon="-3.16575">
        <ele>202.60000610352</ele>
        <time>2020-10-19T12:39:24.000Z</time>
      </trkpt>
      <trkpt lat="48.22282" lon="-3.16574">
        <ele>202.60000610352</ele>
        <time>2020-10-19T12:39:25.000Z</time>
      </trkpt>
      <trkpt lat="48.22282" lon="-3.16573">
        <ele>202.80000305176</ele>
        <time>2020-10-19T12:39:26.000Z</time>
      </trkpt>
      <trkpt lat="48.22283" lon="-3.16572">
        <ele>202.80000305176</ele>
        <time>2020-10-19T12:39:27.000Z</time>
      </trkpt>
      <trkpt lat="48.22284" lon="-3.16571">
        <ele>202.80000305176</ele>
        <time>2020-10-19T12:39:28.000Z</time>
      </trkpt>
      <trkpt lat="48.22285" lon="-3.1657">
        <ele>202.80000305176</ele>
        <time>2020-10-19T12:39:29.000Z</time>
      </trkpt>
      <trkpt lat="48.22285" lon="-3.16569">
        <ele>203</ele>
        <time>2020-10-19T12:39:30.000Z</time>
      </trkpt>
      <trkpt lat="48.22286" lon="-3.16568">
        <ele>203</ele>
        <time>2020-10-19T12:39:31.000Z</time>
      </trkpt>
      <trkpt lat="48.22287" lon="-3.16567">
        <ele>203</ele>
        <time>2020-10-19T12:39:32.000Z</time>
      </trkpt>
      <trkpt lat="48.22288" lon="-3.16566">
        <ele>203.19999694824</ele>
        <time>2020-10-19T12:39:33.000Z</time>
      </trkpt>
      <trkpt lat="48.22289" lon="-3.16565">
        <ele>203.19999694824</ele>
        <time>2020-10-19T12:39:34.000Z</time>
      </trkpt>
      <trkpt lat="48.22289" lon="-3.16563">
        <ele>203.19999694824</ele>
        <time>2020-10-19T12:39:35.000Z</time>
      </trkpt>
      <trkpt lat="48.2229" lon="-3.16562">
        <ele>203.39999389648</ele>
        <time>2020-10-19T12:39:36.000Z</time>
      </trkpt>
      <trkpt lat="48.22291" lon="-3.16561">
        <ele>203.39999389648</ele>
        <time>2020-10-19T12:39:37.000Z</time>
      </trkpt>
      <trkpt lat="48.22292" lon="-3.16559">
        <ele>203.60000610352</ele>
        <time>2020-10-19T12:39:38.000Z</time>
      </trkpt>
      <trkpt lat="48.22293" lon="-3.16558">
        <ele>203.60000610352</ele>
        <time>2020-10-19T12:39:39.000Z</time>
      </trkpt>
      <trkpt lat="48.22294" lon="-3.16557">
        <ele>203.60000610352</ele>
        <time>2020-10-19T12:39:40.000Z</time>
      </trkpt>
      <trkpt lat="48.22294" lon="-3.16555">
        <ele>203.80000305176</ele>
        <time>2020-10-19T12:39:41.000Z</time>
      </trkpt>
      <trkpt lat="48.22295" lon="-3.16554">
        <ele>203.80000305176</ele>
        <time>2020-10-19T12:39:42.000Z</time>
      </trkpt>
      <trkpt lat="48.22296" lon="-3.16553">
        <ele>203.80000305176</ele>
        <time>2020-10-19T12:39:43.000Z</time>
      </trkpt>
      <trkpt lat="48.22296" lon="-3.16551">
        <ele>203.80000305176</ele>
        <time>2020-10-19T12:39:44.000Z</time>
      </trkpt>
      <trkpt lat="48.22297" lon="-3.16549">
        <ele>204</ele>
        <time>2020-10-19T12:39:45.000Z</time>
      </trkpt>
      <trkpt lat="48.22298" lon="-3.16548">
        <ele>204</ele>
        <time>2020-10-19T12:39:46.000Z</time>
      </trkpt>
      <trkpt lat="48.22298" lon="-3.16546">
        <ele>204</ele>
        <time>2020-10-19T12:39:47.000Z</time>
      </trkpt>
      <trkpt lat="48.22299" lon="-3.16545">
        <ele>204</ele>
        <time>2020-10-19T12:39:48.000Z</time>
      </trkpt>
      <trkpt lat="48.223" lon="-3.16542">
        <ele>204.19999694824</ele>
        <time>2020-10-19T12:39:49.000Z</time>
      </trkpt>
      <trkpt lat="48.223" lon="-3.16542">
        <ele>204.19999694824</ele>
        <time>2020-10-19T12:39:50.000Z</time>
      </trkpt>
      <trkpt lat="48.22301" lon="-3.16541">
        <ele>204.19999694824</ele>
        <time>2020-10-19T12:39:51.000Z</time>
      </trkpt>
      <trkpt lat="48.22301" lon="-3.16539">
        <ele>204.39999389648</ele>
        <time>2020-10-19T12:39:52.000Z</time>
      </trkpt>
      <trkpt lat="48.22302" lon="-3.16537">
        <ele>204.39999389648</ele>
        <time>2020-10-19T12:39:53.000Z</time>
      </trkpt>
      <trkpt lat="48.22303" lon="-3.16536">
        <ele>204.39999389648</ele>
        <time>2020-10-19T12:39:54.000Z</time>
      </trkpt>
      <trkpt lat="48.22304" lon="-3.16535">
        <ele>204.60000610352</ele>
        <time>2020-10-19T12:39:55.000Z</time>
      </trkpt>
      <trkpt lat="48.22305" lon="-3.16534">
        <ele>204.60000610352</ele>
        <time>2020-10-19T12:39:56.000Z</time>
      </trkpt>
      <trkpt lat="48.22306" lon="-3.16533">
        <ele>204.60000610352</ele>
        <time>2020-10-19T12:39:57.000Z</time>
      </trkpt>
      <trkpt lat="48.22307" lon="-3.16531">
        <ele>204.80000305176</ele>
        <time>2020-10-19T12:39:58.000Z</time>
      </trkpt>
      <trkpt lat="48.22307" lon="-3.1653">
        <ele>204.80000305176</ele>
        <time>2020-10-19T12:39:59.000Z</time>
      </trkpt>
      <trkpt lat="48.22308" lon="-3.16529">
        <ele>204.80000305176</ele>
        <time>2020-10-19T12:40:00.000Z</time>
      </trkpt>
      <trkpt lat="48.22309" lon="-3.16528">
        <ele>205</ele>
        <time>2020-10-19T12:40:01.000Z</time>
      </trkpt>
      <trkpt lat="48.2231" lon="-3.16527">
        <ele>205</ele>
        <time>2020-10-19T12:40:02.000Z</time>
      </trkpt>
      <trkpt lat="48.2231" lon="-3.16526">
        <ele>205</ele>
        <time>2020-10-19T12:40:03.000Z</time>
      </trkpt>
      <trkpt lat="48.22311" lon="-3.16525">
        <ele>205.19999694824</ele>
        <time>2020-10-19T12:40:04.000Z</time>
      </trkpt>
      <trkpt lat="48.22312" lon="-3.16524">
        <ele>205.19999694824</ele>
        <time>2020-10-19T12:40:05.000Z</time>
      </trkpt>
      <trkpt lat="48.22314" lon="-3.16523">
        <ele>205.39999389648</ele>
        <time>2020-10-19T12:40:06.000Z</time>
      </trkpt>
      <trkpt lat="48.22315" lon="-3.16523">
        <ele>205.39999389648</ele>
        <time>2020-10-19T12:40:07.000Z</time>
      </trkpt>
      <trkpt lat="48.22315" lon="-3.16521">
        <ele>205.39999389648</ele>
        <time>2020-10-19T12:40:08.000Z</time>
      </trkpt>
      <trkpt lat="48.22315" lon="-3.1652">
        <ele>205.39999389648</ele>
        <time>2020-10-19T12:40:09.000Z</time>
      </trkpt>
      <trkpt lat="48.22316" lon="-3.16519">
        <ele>205.60000610352</ele>
        <time>2020-10-19T12:40:10.000Z</time>
      </trkpt>
      <trkpt lat="48.22317" lon="-3.16518">
        <ele>205.60000610352</ele>
        <time>2020-10-19T12:40:11.000Z</time>
      </trkpt>
      <trkpt lat="48.22318" lon="-3.16516">
        <ele>205.60000610352</ele>
        <time>2020-10-19T12:40:12.000Z</time>
      </trkpt>
      <trkpt lat="48.22319" lon="-3.16514">
        <ele>205.80000305176</ele>
        <time>2020-10-19T12:40:13.000Z</time>
      </trkpt>
      <trkpt lat="48.2232" lon="-3.16513">
        <ele>205.80000305176</ele>
        <time>2020-10-19T12:40:14.000Z</time>
      </trkpt>
      <trkpt lat="48.22321" lon="-3.16512">
        <ele>206</ele>
        <time>2020-10-19T12:40:15.000Z</time>
      </trkpt>
      <trkpt lat="48.22321" lon="-3.16511">
        <ele>206</ele>
        <time>2020-10-19T12:40:16.000Z</time>
      </trkpt>
      <trkpt lat="48.22322" lon="-3.16509">
        <ele>206</ele>
        <time>2020-10-19T12:40:17.000Z</time>
      </trkpt>
      <trkpt lat="48.22323" lon="-3.16508">
        <ele>206</ele>
        <time>2020-10-19T12:40:18.000Z</time>
      </trkpt>
      <trkpt lat="48.22324" lon="-3.16506">
        <ele>206</ele>
        <time>2020-10-19T12:40:19.000Z</time>
      </trkpt>
      <trkpt lat="48.22325" lon="-3.16505">
        <ele>206.19999694824</ele>
        <time>2020-10-19T12:40:20.000Z</time>
      </trkpt>
      <trkpt lat="48.22326" lon="-3.16504">
        <ele>206.19999694824</ele>
        <time>2020-10-19T12:40:21.000Z</time>
      </trkpt>
      <trkpt lat="48.22327" lon="-3.16503">
        <ele>206.19999694824</ele>
        <time>2020-10-19T12:40:22.000Z</time>
      </trkpt>
      <trkpt lat="48.22329" lon="-3.16504">
        <ele>206.39999389648</ele>
        <time>2020-10-19T12:40:23.000Z</time>
      </trkpt>
      <trkpt lat="48.2233" lon="-3.16503">
        <ele>206.60000610352</ele>
        <time>2020-10-19T12:40:24.000Z</time>
      </trkpt>
      <trkpt lat="48.22331" lon="-3.16502">
        <ele>206.60000610352</ele>
        <time>2020-10-19T12:40:25.000Z</time>
      </trkpt>
      <trkpt lat="48.22332" lon="-3.16501">
        <ele>206.60000610352</ele>
        <time>2020-10-19T12:40:26.000Z</time>
      </trkpt>
      <trkpt lat="48.22333" lon="-3.165">
        <ele>206.80000305176</ele>
        <time>2020-10-19T12:40:27.000Z</time>
      </trkpt>
      <trkpt lat="48.22334" lon="-3.16499">
        <ele>206.80000305176</ele>
        <time>2020-10-19T12:40:28.000Z</time>
      </trkpt>
      <trkpt lat="48.22335" lon="-3.16499">
        <ele>206.80000305176</ele>
        <time>2020-10-19T12:40:29.000Z</time>
      </trkpt>
      <trkpt lat="48.22336" lon="-3.16498">
        <ele>207</ele>
        <time>2020-10-19T12:40:30.000Z</time>
      </trkpt>
      <trkpt lat="48.22337" lon="-3.16498">
        <ele>207</ele>
        <time>2020-10-19T12:40:31.000Z</time>
      </trkpt>
      <trkpt lat="48.22338" lon="-3.16497">
        <ele>207</ele>
        <time>2020-10-19T12:40:32.000Z</time>
      </trkpt>
      <trkpt lat="48.22338" lon="-3.16496">
        <ele>207</ele>
        <time>2020-10-19T12:40:33.000Z</time>
      </trkpt>
      <trkpt lat="48.22339" lon="-3.16495">
        <ele>207</ele>
        <time>2020-10-19T12:40:34.000Z</time>
      </trkpt>
      <trkpt lat="48.2234" lon="-3.16495">
        <ele>207.19999694824</ele>
        <time>2020-10-19T12:40:35.000Z</time>
      </trkpt>
      <trkpt lat="48.22341" lon="-3.16494">
        <ele>207.19999694824</ele>
        <time>2020-10-19T12:40:36.000Z</time>
      </trkpt>
      <trkpt lat="48.22342" lon="-3.16494">
        <ele>207.19999694824</ele>
        <time>2020-10-19T12:40:37.000Z</time>
      </trkpt>
      <trkpt lat="48.22343" lon="-3.16494">
        <ele>207.39999389648</ele>
        <time>2020-10-19T12:40:38.000Z</time>
      </trkpt>
      <trkpt lat="48.22344" lon="-3.16493">
        <ele>207.39999389648</ele>
        <time>2020-10-19T12:40:39.000Z</time>
      </trkpt>
      <trkpt lat="48.22345" lon="-3.16493">
        <ele>207.60000610352</ele>
        <time>2020-10-19T12:40:40.000Z</time>
      </trkpt>
      <trkpt lat="48.22346" lon="-3.16493">
        <ele>207.60000610352</ele>
        <time>2020-10-19T12:40:41.000Z</time>
      </trkpt>
      <trkpt lat="48.22347" lon="-3.16492">
        <ele>207.60000610352</ele>
        <time>2020-10-19T12:40:42.000Z</time>
      </trkpt>
      <trkpt lat="48.22348" lon="-3.16492">
        <ele>207.60000610352</ele>
        <time>2020-10-19T12:40:43.000Z</time>
      </trkpt>
      <trkpt lat="48.22349" lon="-3.16491">
        <ele>207.60000610352</ele>
        <time>2020-10-19T12:40:44.000Z</time>
      </trkpt>
      <trkpt lat="48.2235" lon="-3.16491">
        <ele>207.60000610352</ele>
        <time>2020-10-19T12:40:45.000Z</time>
      </trkpt>
      <trkpt lat="48.22351" lon="-3.1649">
        <ele>207.60000610352</ele>
        <time>2020-10-19T12:40:46.000Z</time>
      </trkpt>
      <trkpt lat="48.22352" lon="-3.1649">
        <ele>207.60000610352</ele>
        <time>2020-10-19T12:40:47.000Z</time>
      </trkpt>
      <trkpt lat="48.22354" lon="-3.16489">
        <ele>207.60000610352</ele>
        <time>2020-10-19T12:40:48.000Z</time>
      </trkpt>
      <trkpt lat="48.22354" lon="-3.16489">
        <ele>207.60000610352</ele>
        <time>2020-10-19T12:40:49.000Z</time>
      </trkpt>
      <trkpt lat="48.22356" lon="-3.16489">
        <ele>207.60000610352</ele>
        <time>2020-10-19T12:40:50.000Z</time>
      </trkpt>
      <trkpt lat="48.22357" lon="-3.16488">
        <ele>207.60000610352</ele>
        <time>2020-10-19T12:40:51.000Z</time>
      </trkpt>
      <trkpt lat="48.22358" lon="-3.16488">
        <ele>207.60000610352</ele>
        <time>2020-10-19T12:40:52.000Z</time>
      </trkpt>
      <trkpt lat="48.22359" lon="-3.16487">
        <ele>207.60000610352</ele>
        <time>2020-10-19T12:40:53.000Z</time>
      </trkpt>
      <trkpt lat="48.2236" lon="-3.16486">
        <ele>207.60000610352</ele>
        <time>2020-10-19T12:40:54.000Z</time>
      </trkpt>
      <trkpt lat="48.22361" lon="-3.16485">
        <ele>207.60000610352</ele>
        <time>2020-10-19T12:40:55.000Z</time>
      </trkpt>
      <trkpt lat="48.22362" lon="-3.16483">
        <ele>207.60000610352</ele>
        <time>2020-10-19T12:40:56.000Z</time>
      </trkpt>
      <trkpt lat="48.22363" lon="-3.16482">
        <ele>207.60000610352</ele>
        <time>2020-10-19T12:40:57.000Z</time>
      </trkpt>
      <trkpt lat="48.22364" lon="-3.16481">
        <ele>207.39999389648</ele>
        <time>2020-10-19T12:40:58.000Z</time>
      </trkpt>
      <trkpt lat="48.22365" lon="-3.16479">
        <ele>207.39999389648</ele>
        <time>2020-10-19T12:40:59.000Z</time>
      </trkpt>
      <trkpt lat="48.22367" lon="-3.16478">
        <ele>207.39999389648</ele>
        <time>2020-10-19T12:41:00.000Z</time>
      </trkpt>
      <trkpt lat="48.22367" lon="-3.16478">
        <ele>207.39999389648</ele>
        <time>2020-10-19T12:41:01.000Z</time>
      </trkpt>
      <trkpt lat="48.22368" lon="-3.16476">
        <ele>207.39999389648</ele>
        <time>2020-10-19T12:41:02.000Z</time>
      </trkpt>
      <trkpt lat="48.22369" lon="-3.16475">
        <ele>207.39999389648</ele>
        <time>2020-10-19T12:41:03.000Z</time>
      </trkpt>
      <trkpt lat="48.2237" lon="-3.16474">
        <ele>207.39999389648</ele>
        <time>2020-10-19T12:41:04.000Z</time>
      </trkpt>
      <trkpt lat="48.22371" lon="-3.16473">
        <ele>207.39999389648</ele>
        <time>2020-10-19T12:41:05.000Z</time>
      </trkpt>
      <trkpt lat="48.22371" lon="-3.16472">
        <ele>207.39999389648</ele>
        <time>2020-10-19T12:41:06.000Z</time>
      </trkpt>
      <trkpt lat="48.22372" lon="-3.1647">
        <ele>207.39999389648</ele>
        <time>2020-10-19T12:41:07.000Z</time>
      </trkpt>
      <trkpt lat="48.22373" lon="-3.16469">
        <ele>207.39999389648</ele>
        <time>2020-10-19T12:41:08.000Z</time>
      </trkpt>
      <trkpt lat="48.22373" lon="-3.16468">
        <ele>207.19999694824</ele>
        <time>2020-10-19T12:41:09.000Z</time>
      </trkpt>
      <trkpt lat="48.22374" lon="-3.16466">
        <ele>207.19999694824</ele>
        <time>2020-10-19T12:41:10.000Z</time>
      </trkpt>
      <trkpt lat="48.22375" lon="-3.16465">
        <ele>207.19999694824</ele>
        <time>2020-10-19T12:41:11.000Z</time>
      </trkpt>
      <trkpt lat="48.22375" lon="-3.16463">
        <ele>207.19999694824</ele>
        <time>2020-10-19T12:41:12.000Z</time>
      </trkpt>
      <trkpt lat="48.22376" lon="-3.16462">
        <ele>207.19999694824</ele>
        <time>2020-10-19T12:41:13.000Z</time>
      </trkpt>
      <trkpt lat="48.22377" lon="-3.16461">
        <ele>207.19999694824</ele>
        <time>2020-10-19T12:41:14.000Z</time>
      </trkpt>
      <trkpt lat="48.22378" lon="-3.16459">
        <ele>207.19999694824</ele>
        <time>2020-10-19T12:41:15.000Z</time>
      </trkpt>
      <trkpt lat="48.22378" lon="-3.16457">
        <ele>207.19999694824</ele>
        <time>2020-10-19T12:41:16.000Z</time>
      </trkpt>
      <trkpt lat="48.22379" lon="-3.16456">
        <ele>207</ele>
        <time>2020-10-19T12:41:17.000Z</time>
      </trkpt>
      <trkpt lat="48.2238" lon="-3.16454">
        <ele>207</ele>
        <time>2020-10-19T12:41:18.000Z</time>
      </trkpt>
      <trkpt lat="48.2238" lon="-3.16453">
        <ele>207</ele>
        <time>2020-10-19T12:41:19.000Z</time>
      </trkpt>
      <trkpt lat="48.22381" lon="-3.16451">
        <ele>207</ele>
        <time>2020-10-19T12:41:20.000Z</time>
      </trkpt>
      <trkpt lat="48.22381" lon="-3.16449">
        <ele>207</ele>
        <time>2020-10-19T12:41:21.000Z</time>
      </trkpt>
      <trkpt lat="48.22382" lon="-3.16447">
        <ele>207</ele>
        <time>2020-10-19T12:41:22.000Z</time>
      </trkpt>
      <trkpt lat="48.22382" lon="-3.16446">
        <ele>206.80000305176</ele>
        <time>2020-10-19T12:41:23.000Z</time>
      </trkpt>
      <trkpt lat="48.22383" lon="-3.16444">
        <ele>206.80000305176</ele>
        <time>2020-10-19T12:41:24.000Z</time>
      </trkpt>
      <trkpt lat="48.22383" lon="-3.16442">
        <ele>206.80000305176</ele>
        <time>2020-10-19T12:41:25.000Z</time>
      </trkpt>
      <trkpt lat="48.22384" lon="-3.1644">
        <ele>206.80000305176</ele>
        <time>2020-10-19T12:41:26.000Z</time>
      </trkpt>
      <trkpt lat="48.22384" lon="-3.16438">
        <ele>206.80000305176</ele>
        <time>2020-10-19T12:41:27.000Z</time>
      </trkpt>
      <trkpt lat="48.22384" lon="-3.16437">
        <ele>206.60000610352</ele>
        <time>2020-10-19T12:41:28.000Z</time>
      </trkpt>
      <trkpt lat="48.22385" lon="-3.16435">
        <ele>206.60000610352</ele>
        <time>2020-10-19T12:41:29.000Z</time>
      </trkpt>
      <trkpt lat="48.22386" lon="-3.16433">
        <ele>206.60000610352</ele>
        <time>2020-10-19T12:41:30.000Z</time>
      </trkpt>
      <trkpt lat="48.22386" lon="-3.16432">
        <ele>206.60000610352</ele>
        <time>2020-10-19T12:41:31.000Z</time>
      </trkpt>
      <trkpt lat="48.22387" lon="-3.1643">
        <ele>206.60000610352</ele>
        <time>2020-10-19T12:41:32.000Z</time>
      </trkpt>
      <trkpt lat="48.22387" lon="-3.16428">
        <ele>206.60000610352</ele>
        <time>2020-10-19T12:41:33.000Z</time>
      </trkpt>
      <trkpt lat="48.22387" lon="-3.16426">
        <ele>206.60000610352</ele>
        <time>2020-10-19T12:41:34.000Z</time>
      </trkpt>
      <trkpt lat="48.22388" lon="-3.16425">
        <ele>206.60000610352</ele>
        <time>2020-10-19T12:41:35.000Z</time>
      </trkpt>
      <trkpt lat="48.22389" lon="-3.16423">
        <ele>206.60000610352</ele>
        <time>2020-10-19T12:41:36.000Z</time>
      </trkpt>
      <trkpt lat="48.22389" lon="-3.16421">
        <ele>206.60000610352</ele>
        <time>2020-10-19T12:41:37.000Z</time>
      </trkpt>
      <trkpt lat="48.2239" lon="-3.1642">
        <ele>206.80000305176</ele>
        <time>2020-10-19T12:41:38.000Z</time>
      </trkpt>
      <trkpt lat="48.2239" lon="-3.16418">
        <ele>206.80000305176</ele>
        <time>2020-10-19T12:41:39.000Z</time>
      </trkpt>
      <trkpt lat="48.22391" lon="-3.16416">
        <ele>206.80000305176</ele>
        <time>2020-10-19T12:41:40.000Z</time>
      </trkpt>
      <trkpt lat="48.22391" lon="-3.16415">
        <ele>206.80000305176</ele>
        <time>2020-10-19T12:41:41.000Z</time>
      </trkpt>
      <trkpt lat="48.22392" lon="-3.16413">
        <ele>207</ele>
        <time>2020-10-19T12:41:42.000Z</time>
      </trkpt>
      <trkpt lat="48.22392" lon="-3.16412">
        <ele>207</ele>
        <time>2020-10-19T12:41:43.000Z</time>
      </trkpt>
      <trkpt lat="48.22393" lon="-3.1641">
        <ele>207</ele>
        <time>2020-10-19T12:41:44.000Z</time>
      </trkpt>
      <trkpt lat="48.22393" lon="-3.16409">
        <ele>207</ele>
        <time>2020-10-19T12:41:45.000Z</time>
      </trkpt>
      <trkpt lat="48.22393" lon="-3.16407">
        <ele>207</ele>
        <time>2020-10-19T12:41:46.000Z</time>
      </trkpt>
      <trkpt lat="48.22394" lon="-3.16406">
        <ele>207.19999694824</ele>
        <time>2020-10-19T12:41:47.000Z</time>
      </trkpt>
      <trkpt lat="48.22394" lon="-3.16404">
        <ele>207.19999694824</ele>
        <time>2020-10-19T12:41:48.000Z</time>
      </trkpt>
      <trkpt lat="48.22394" lon="-3.16403">
        <ele>207.19999694824</ele>
        <time>2020-10-19T12:41:49.000Z</time>
      </trkpt>
      <trkpt lat="48.22395" lon="-3.16401">
        <ele>207.19999694824</ele>
        <time>2020-10-19T12:41:50.000Z</time>
      </trkpt>
      <trkpt lat="48.22395" lon="-3.164">
        <ele>207.19999694824</ele>
        <time>2020-10-19T12:41:51.000Z</time>
      </trkpt>
      <trkpt lat="48.22395" lon="-3.16399">
        <ele>207.19999694824</ele>
        <time>2020-10-19T12:41:52.000Z</time>
      </trkpt>
      <trkpt lat="48.22396" lon="-3.16398">
        <ele>207.39999389648</ele>
        <time>2020-10-19T12:41:53.000Z</time>
      </trkpt>
      <trkpt lat="48.22396" lon="-3.16396">
        <ele>207.39999389648</ele>
        <time>2020-10-19T12:41:54.000Z</time>
      </trkpt>
      <trkpt lat="48.22397" lon="-3.16395">
        <ele>207.39999389648</ele>
        <time>2020-10-19T12:41:55.000Z</time>
      </trkpt>
      <trkpt lat="48.22398" lon="-3.16394">
        <ele>207.39999389648</ele>
        <time>2020-10-19T12:41:56.000Z</time>
      </trkpt>
      <trkpt lat="48.22398" lon="-3.16394">
        <ele>207.39999389648</ele>
        <time>2020-10-19T12:41:57.000Z</time>
      </trkpt>
      <trkpt lat="48.22399" lon="-3.16393">
        <ele>207.39999389648</ele>
        <time>2020-10-19T12:41:58.000Z</time>
      </trkpt>
      <trkpt lat="48.224" lon="-3.16392">
        <ele>207.60000610352</ele>
        <time>2020-10-19T12:41:59.000Z</time>
      </trkpt>
      <trkpt lat="48.22401" lon="-3.16392">
        <ele>207.60000610352</ele>
        <time>2020-10-19T12:42:00.000Z</time>
      </trkpt>
      <trkpt lat="48.22402" lon="-3.16391">
        <ele>207.60000610352</ele>
        <time>2020-10-19T12:42:01.000Z</time>
      </trkpt>
      <trkpt lat="48.22403" lon="-3.16391">
        <ele>207.60000610352</ele>
        <time>2020-10-19T12:42:02.000Z</time>
      </trkpt>
      <trkpt lat="48.22404" lon="-3.1639">
        <ele>207.60000610352</ele>
        <time>2020-10-19T12:42:03.000Z</time>
      </trkpt>
      <trkpt lat="48.22405" lon="-3.16389">
        <ele>207.60000610352</ele>
        <time>2020-10-19T12:42:04.000Z</time>
      </trkpt>
      <trkpt lat="48.22406" lon="-3.16388">
        <ele>207.60000610352</ele>
        <time>2020-10-19T12:42:05.000Z</time>
      </trkpt>
      <trkpt lat="48.22406" lon="-3.16388">
        <ele>207.60000610352</ele>
        <time>2020-10-19T12:42:06.000Z</time>
      </trkpt>
      <trkpt lat="48.22407" lon="-3.16387">
        <ele>207.80000305176</ele>
        <time>2020-10-19T12:42:07.000Z</time>
      </trkpt>
      <trkpt lat="48.22409" lon="-3.16387">
        <ele>207.80000305176</ele>
        <time>2020-10-19T12:42:08.000Z</time>
      </trkpt>
      <trkpt lat="48.2241" lon="-3.16387">
        <ele>207.80000305176</ele>
        <time>2020-10-19T12:42:09.000Z</time>
      </trkpt>
      <trkpt lat="48.22411" lon="-3.16386">
        <ele>207.80000305176</ele>
        <time>2020-10-19T12:42:10.000Z</time>
      </trkpt>
      <trkpt lat="48.22414" lon="-3.16386">
        <ele>207.80000305176</ele>
        <time>2020-10-19T12:42:11.000Z</time>
      </trkpt>
      <trkpt lat="48.22414" lon="-3.16386">
        <ele>207.80000305176</ele>
        <time>2020-10-19T12:42:12.000Z</time>
      </trkpt>
      <trkpt lat="48.22415" lon="-3.16387">
        <ele>207.80000305176</ele>
        <time>2020-10-19T12:42:13.000Z</time>
      </trkpt>
      <trkpt lat="48.22417" lon="-3.16387">
        <ele>207.80000305176</ele>
        <time>2020-10-19T12:42:14.000Z</time>
      </trkpt>
      <trkpt lat="48.22418" lon="-3.16387">
        <ele>207.80000305176</ele>
        <time>2020-10-19T12:42:15.000Z</time>
      </trkpt>
      <trkpt lat="48.2242" lon="-3.16387">
        <ele>207.80000305176</ele>
        <time>2020-10-19T12:42:16.000Z</time>
      </trkpt>
      <trkpt lat="48.2242" lon="-3.16387">
        <ele>207.80000305176</ele>
        <time>2020-10-19T12:42:17.000Z</time>
      </trkpt>
      <trkpt lat="48.22421" lon="-3.16387">
        <ele>207.80000305176</ele>
        <time>2020-10-19T12:42:18.000Z</time>
      </trkpt>
      <trkpt lat="48.22422" lon="-3.16387">
        <ele>208</ele>
        <time>2020-10-19T12:42:19.000Z</time>
      </trkpt>
      <trkpt lat="48.22423" lon="-3.16387">
        <ele>208</ele>
        <time>2020-10-19T12:42:20.000Z</time>
      </trkpt>
      <trkpt lat="48.22424" lon="-3.16386">
        <ele>208</ele>
        <time>2020-10-19T12:42:21.000Z</time>
      </trkpt>
      <trkpt lat="48.22425" lon="-3.16386">
        <ele>208</ele>
        <time>2020-10-19T12:42:22.000Z</time>
      </trkpt>
      <trkpt lat="48.22427" lon="-3.16386">
        <ele>208</ele>
        <time>2020-10-19T12:42:23.000Z</time>
      </trkpt>
      <trkpt lat="48.22428" lon="-3.16385">
        <ele>208</ele>
        <time>2020-10-19T12:42:24.000Z</time>
      </trkpt>
      <trkpt lat="48.22429" lon="-3.16385">
        <ele>208</ele>
        <time>2020-10-19T12:42:25.000Z</time>
      </trkpt>
      <trkpt lat="48.2243" lon="-3.16384">
        <ele>208</ele>
        <time>2020-10-19T12:42:26.000Z</time>
      </trkpt>
      <trkpt lat="48.2243" lon="-3.16383">
        <ele>208</ele>
        <time>2020-10-19T12:42:27.000Z</time>
      </trkpt>
      <trkpt lat="48.22431" lon="-3.16383">
        <ele>208</ele>
        <time>2020-10-19T12:42:28.000Z</time>
      </trkpt>
      <trkpt lat="48.22432" lon="-3.16382">
        <ele>207.80000305176</ele>
        <time>2020-10-19T12:42:29.000Z</time>
      </trkpt>
      <trkpt lat="48.22433" lon="-3.1638">
        <ele>207.80000305176</ele>
        <time>2020-10-19T12:42:30.000Z</time>
      </trkpt>
      <trkpt lat="48.22433" lon="-3.16379">
        <ele>207.80000305176</ele>
        <time>2020-10-19T12:42:31.000Z</time>
      </trkpt>
      <trkpt lat="48.22434" lon="-3.16377">
        <ele>207.80000305176</ele>
        <time>2020-10-19T12:42:32.000Z</time>
      </trkpt>
      <trkpt lat="48.22434" lon="-3.16375">
        <ele>207.80000305176</ele>
        <time>2020-10-19T12:42:33.000Z</time>
      </trkpt>
      <trkpt lat="48.22434" lon="-3.16373">
        <ele>208</ele>
        <time>2020-10-19T12:42:34.000Z</time>
      </trkpt>
      <trkpt lat="48.22434" lon="-3.16371">
        <ele>208</ele>
        <time>2020-10-19T12:42:35.000Z</time>
      </trkpt>
      <trkpt lat="48.22435" lon="-3.1637">
        <ele>208</ele>
        <time>2020-10-19T12:42:36.000Z</time>
      </trkpt>
      <trkpt lat="48.22435" lon="-3.16368">
        <ele>208</ele>
        <time>2020-10-19T12:42:37.000Z</time>
      </trkpt>
      <trkpt lat="48.22435" lon="-3.16367">
        <ele>208</ele>
        <time>2020-10-19T12:42:38.000Z</time>
      </trkpt>
      <trkpt lat="48.22435" lon="-3.16365">
        <ele>208</ele>
        <time>2020-10-19T12:42:39.000Z</time>
      </trkpt>
      <trkpt lat="48.22435" lon="-3.16364">
        <ele>208</ele>
        <time>2020-10-19T12:42:40.000Z</time>
      </trkpt>
      <trkpt lat="48.22435" lon="-3.16362">
        <ele>208.19999694824</ele>
        <time>2020-10-19T12:42:41.000Z</time>
      </trkpt>
      <trkpt lat="48.22435" lon="-3.16361">
        <ele>208.19999694824</ele>
        <time>2020-10-19T12:42:42.000Z</time>
      </trkpt>
      <trkpt lat="48.22435" lon="-3.16359">
        <ele>208.19999694824</ele>
        <time>2020-10-19T12:42:43.000Z</time>
      </trkpt>
      <trkpt lat="48.22435" lon="-3.16357">
        <ele>208.19999694824</ele>
        <time>2020-10-19T12:42:44.000Z</time>
      </trkpt>
      <trkpt lat="48.22434" lon="-3.16355">
        <ele>208.39999389648</ele>
        <time>2020-10-19T12:42:45.000Z</time>
      </trkpt>
      <trkpt lat="48.22434" lon="-3.16353">
        <ele>208.39999389648</ele>
        <time>2020-10-19T12:42:46.000Z</time>
      </trkpt>
      <trkpt lat="48.22434" lon="-3.16352">
        <ele>208.39999389648</ele>
        <time>2020-10-19T12:42:47.000Z</time>
      </trkpt>
      <trkpt lat="48.22433" lon="-3.1635">
        <ele>208.60000610352</ele>
        <time>2020-10-19T12:42:48.000Z</time>
      </trkpt>
      <trkpt lat="48.22433" lon="-3.16348">
        <ele>208.60000610352</ele>
        <time>2020-10-19T12:42:49.000Z</time>
      </trkpt>
      <trkpt lat="48.22433" lon="-3.16346">
        <ele>208.60000610352</ele>
        <time>2020-10-19T12:42:50.000Z</time>
      </trkpt>
      <trkpt lat="48.22432" lon="-3.16345">
        <ele>208.80000305176</ele>
        <time>2020-10-19T12:42:51.000Z</time>
      </trkpt>
      <trkpt lat="48.22432" lon="-3.16343">
        <ele>208.80000305176</ele>
        <time>2020-10-19T12:42:52.000Z</time>
      </trkpt>
      <trkpt lat="48.22432" lon="-3.16341">
        <ele>208.80000305176</ele>
        <time>2020-10-19T12:42:53.000Z</time>
      </trkpt>
      <trkpt lat="48.22432" lon="-3.1634">
        <ele>209</ele>
        <time>2020-10-19T12:42:54.000Z</time>
      </trkpt>
      <trkpt lat="48.22432" lon="-3.16338">
        <ele>209</ele>
        <time>2020-10-19T12:42:55.000Z</time>
      </trkpt>
      <trkpt lat="48.22431" lon="-3.16336">
        <ele>209</ele>
        <time>2020-10-19T12:42:56.000Z</time>
      </trkpt>
      <trkpt lat="48.22431" lon="-3.16335">
        <ele>209</ele>
        <time>2020-10-19T12:42:57.000Z</time>
      </trkpt>
      <trkpt lat="48.22431" lon="-3.16333">
        <ele>209</ele>
        <time>2020-10-19T12:42:58.000Z</time>
      </trkpt>
      <trkpt lat="48.2243" lon="-3.16329">
        <ele>209.19999694824</ele>
        <time>2020-10-19T12:42:59.000Z</time>
      </trkpt>
      <trkpt lat="48.2243" lon="-3.16329">
        <ele>209.19999694824</ele>
        <time>2020-10-19T12:43:00.000Z</time>
      </trkpt>
      <trkpt lat="48.2243" lon="-3.16327">
        <ele>209.19999694824</ele>
        <time>2020-10-19T12:43:01.000Z</time>
      </trkpt>
      <trkpt lat="48.2243" lon="-3.16326">
        <ele>209.19999694824</ele>
        <time>2020-10-19T12:43:02.000Z</time>
      </trkpt>
      <trkpt lat="48.2243" lon="-3.16324">
        <ele>209.19999694824</ele>
        <time>2020-10-19T12:43:03.000Z</time>
      </trkpt>
      <trkpt lat="48.22429" lon="-3.16322">
        <ele>209.19999694824</ele>
        <time>2020-10-19T12:43:04.000Z</time>
      </trkpt>
      <trkpt lat="48.22429" lon="-3.1632">
        <ele>209.19999694824</ele>
        <time>2020-10-19T12:43:05.000Z</time>
      </trkpt>
      <trkpt lat="48.22428" lon="-3.16319">
        <ele>209.19999694824</ele>
        <time>2020-10-19T12:43:06.000Z</time>
      </trkpt>
      <trkpt lat="48.22428" lon="-3.16317">
        <ele>209.39999389648</ele>
        <time>2020-10-19T12:43:07.000Z</time>
      </trkpt>
      <trkpt lat="48.22428" lon="-3.16316">
        <ele>209.39999389648</ele>
        <time>2020-10-19T12:43:08.000Z</time>
      </trkpt>
      <trkpt lat="48.22428" lon="-3.16314">
        <ele>209.39999389648</ele>
        <time>2020-10-19T12:43:09.000Z</time>
      </trkpt>
      <trkpt lat="48.22428" lon="-3.16312">
        <ele>209.39999389648</ele>
        <time>2020-10-19T12:43:10.000Z</time>
      </trkpt>
      <trkpt lat="48.22428" lon="-3.1631">
        <ele>209.39999389648</ele>
        <time>2020-10-19T12:43:11.000Z</time>
      </trkpt>
      <trkpt lat="48.22428" lon="-3.16309">
        <ele>209.39999389648</ele>
        <time>2020-10-19T12:43:12.000Z</time>
      </trkpt>
      <trkpt lat="48.22428" lon="-3.16307">
        <ele>209.39999389648</ele>
        <time>2020-10-19T12:43:13.000Z</time>
      </trkpt>
      <trkpt lat="48.22428" lon="-3.16306">
        <ele>209.39999389648</ele>
        <time>2020-10-19T12:43:14.000Z</time>
      </trkpt>
      <trkpt lat="48.22428" lon="-3.16304">
        <ele>209.39999389648</ele>
        <time>2020-10-19T12:43:15.000Z</time>
      </trkpt>
      <trkpt lat="48.22429" lon="-3.16302">
        <ele>209.60000610352</ele>
        <time>2020-10-19T12:43:16.000Z</time>
      </trkpt>
      <trkpt lat="48.22429" lon="-3.16301">
        <ele>209.60000610352</ele>
        <time>2020-10-19T12:43:17.000Z</time>
      </trkpt>
      <trkpt lat="48.22429" lon="-3.16299">
        <ele>209.60000610352</ele>
        <time>2020-10-19T12:43:18.000Z</time>
      </trkpt>
      <trkpt lat="48.22429" lon="-3.16298">
        <ele>209.60000610352</ele>
        <time>2020-10-19T12:43:19.000Z</time>
      </trkpt>
      <trkpt lat="48.22428" lon="-3.16296">
        <ele>209.60000610352</ele>
        <time>2020-10-19T12:43:20.000Z</time>
      </trkpt>
      <trkpt lat="48.22428" lon="-3.16295">
        <ele>209.60000610352</ele>
        <time>2020-10-19T12:43:21.000Z</time>
      </trkpt>
      <trkpt lat="48.22428" lon="-3.16293">
        <ele>209.60000610352</ele>
        <time>2020-10-19T12:43:22.000Z</time>
      </trkpt>
      <trkpt lat="48.22428" lon="-3.16292">
        <ele>209.60000610352</ele>
        <time>2020-10-19T12:43:23.000Z</time>
      </trkpt>
      <trkpt lat="48.22427" lon="-3.1629">
        <ele>209.60000610352</ele>
        <time>2020-10-19T12:43:24.000Z</time>
      </trkpt>
      <trkpt lat="48.22427" lon="-3.16289">
        <ele>209.60000610352</ele>
        <time>2020-10-19T12:43:25.000Z</time>
      </trkpt>
      <trkpt lat="48.22427" lon="-3.16287">
        <ele>209.60000610352</ele>
        <time>2020-10-19T12:43:26.000Z</time>
      </trkpt>
      <trkpt lat="48.22427" lon="-3.16285">
        <ele>209.60000610352</ele>
        <time>2020-10-19T12:43:27.000Z</time>
      </trkpt>
      <trkpt lat="48.22427" lon="-3.16283">
        <ele>209.60000610352</ele>
        <time>2020-10-19T12:43:28.000Z</time>
      </trkpt>
      <trkpt lat="48.22427" lon="-3.16281">
        <ele>209.80000305176</ele>
        <time>2020-10-19T12:43:29.000Z</time>
      </trkpt>
      <trkpt lat="48.22427" lon="-3.16279">
        <ele>209.80000305176</ele>
        <time>2020-10-19T12:43:30.000Z</time>
      </trkpt>
      <trkpt lat="48.22427" lon="-3.16278">
        <ele>209.80000305176</ele>
        <time>2020-10-19T12:43:31.000Z</time>
      </trkpt>
      <trkpt lat="48.22427" lon="-3.16276">
        <ele>209.80000305176</ele>
        <time>2020-10-19T12:43:32.000Z</time>
      </trkpt>
      <trkpt lat="48.22426" lon="-3.16274">
        <ele>209.80000305176</ele>
        <time>2020-10-19T12:43:33.000Z</time>
      </trkpt>
      <trkpt lat="48.22426" lon="-3.16272">
        <ele>209.80000305176</ele>
        <time>2020-10-19T12:43:34.000Z</time>
      </trkpt>
      <trkpt lat="48.22426" lon="-3.1627">
        <ele>209.80000305176</ele>
        <time>2020-10-19T12:43:35.000Z</time>
      </trkpt>
      <trkpt lat="48.22426" lon="-3.16269">
        <ele>209.80000305176</ele>
        <time>2020-10-19T12:43:36.000Z</time>
      </trkpt>
      <trkpt lat="48.22426" lon="-3.16267">
        <ele>209.80000305176</ele>
        <time>2020-10-19T12:43:37.000Z</time>
      </trkpt>
      <trkpt lat="48.22426" lon="-3.16265">
        <ele>209.80000305176</ele>
        <time>2020-10-19T12:43:38.000Z</time>
      </trkpt>
      <trkpt lat="48.22425" lon="-3.16263">
        <ele>209.80000305176</ele>
        <time>2020-10-19T12:43:39.000Z</time>
      </trkpt>
      <trkpt lat="48.22425" lon="-3.16262">
        <ele>209.80000305176</ele>
        <time>2020-10-19T12:43:40.000Z</time>
      </trkpt>
      <trkpt lat="48.22425" lon="-3.1626">
        <ele>209.80000305176</ele>
        <time>2020-10-19T12:43:41.000Z</time>
      </trkpt>
      <trkpt lat="48.22424" lon="-3.16259">
        <ele>209.80000305176</ele>
        <time>2020-10-19T12:43:42.000Z</time>
      </trkpt>
      <trkpt lat="48.22424" lon="-3.16257">
        <ele>209.80000305176</ele>
        <time>2020-10-19T12:43:43.000Z</time>
      </trkpt>
      <trkpt lat="48.22424" lon="-3.16256">
        <ele>209.80000305176</ele>
        <time>2020-10-19T12:43:44.000Z</time>
      </trkpt>
      <trkpt lat="48.22424" lon="-3.16254">
        <ele>209.80000305176</ele>
        <time>2020-10-19T12:43:45.000Z</time>
      </trkpt>
      <trkpt lat="48.22423" lon="-3.16253">
        <ele>209.80000305176</ele>
        <time>2020-10-19T12:43:46.000Z</time>
      </trkpt>
      <trkpt lat="48.22423" lon="-3.16252">
        <ele>209.80000305176</ele>
        <time>2020-10-19T12:43:47.000Z</time>
      </trkpt>
      <trkpt lat="48.22423" lon="-3.1625">
        <ele>209.80000305176</ele>
        <time>2020-10-19T12:43:48.000Z</time>
      </trkpt>
      <trkpt lat="48.22423" lon="-3.16248">
        <ele>209.60000610352</ele>
        <time>2020-10-19T12:43:49.000Z</time>
      </trkpt>
      <trkpt lat="48.22422" lon="-3.16247">
        <ele>209.60000610352</ele>
        <time>2020-10-19T12:43:50.000Z</time>
      </trkpt>
      <trkpt lat="48.22422" lon="-3.16245">
        <ele>209.60000610352</ele>
        <time>2020-10-19T12:43:51.000Z</time>
      </trkpt>
      <trkpt lat="48.22422" lon="-3.16243">
        <ele>209.60000610352</ele>
        <time>2020-10-19T12:43:52.000Z</time>
      </trkpt>
      <trkpt lat="48.22421" lon="-3.16242">
        <ele>209.60000610352</ele>
        <time>2020-10-19T12:43:53.000Z</time>
      </trkpt>
      <trkpt lat="48.22421" lon="-3.1624">
        <ele>209.60000610352</ele>
        <time>2020-10-19T12:43:54.000Z</time>
      </trkpt>
      <trkpt lat="48.22421" lon="-3.16238">
        <ele>209.60000610352</ele>
        <time>2020-10-19T12:43:55.000Z</time>
      </trkpt>
      <trkpt lat="48.2242" lon="-3.16236">
        <ele>209.39999389648</ele>
        <time>2020-10-19T12:43:56.000Z</time>
      </trkpt>
      <trkpt lat="48.2242" lon="-3.16234">
        <ele>209.39999389648</ele>
        <time>2020-10-19T12:43:57.000Z</time>
      </trkpt>
      <trkpt lat="48.2242" lon="-3.16233">
        <ele>209.39999389648</ele>
        <time>2020-10-19T12:43:58.000Z</time>
      </trkpt>
      <trkpt lat="48.2242" lon="-3.16231">
        <ele>209.39999389648</ele>
        <time>2020-10-19T12:43:59.000Z</time>
      </trkpt>
      <trkpt lat="48.2242" lon="-3.16229">
        <ele>209.39999389648</ele>
        <time>2020-10-19T12:44:00.000Z</time>
      </trkpt>
      <trkpt lat="48.2242" lon="-3.16228">
        <ele>209.39999389648</ele>
        <time>2020-10-19T12:44:01.000Z</time>
      </trkpt>
      <trkpt lat="48.2242" lon="-3.16226">
        <ele>209.39999389648</ele>
        <time>2020-10-19T12:44:02.000Z</time>
      </trkpt>
      <trkpt lat="48.2242" lon="-3.16225">
        <ele>209.39999389648</ele>
        <time>2020-10-19T12:44:03.000Z</time>
      </trkpt>
      <trkpt lat="48.22419" lon="-3.16223">
        <ele>209.39999389648</ele>
        <time>2020-10-19T12:44:04.000Z</time>
      </trkpt>
      <trkpt lat="48.22419" lon="-3.16221">
        <ele>209.19999694824</ele>
        <time>2020-10-19T12:44:05.000Z</time>
      </trkpt>
      <trkpt lat="48.22419" lon="-3.1622">
        <ele>209.19999694824</ele>
        <time>2020-10-19T12:44:06.000Z</time>
      </trkpt>
      <trkpt lat="48.22418" lon="-3.16218">
        <ele>209.19999694824</ele>
        <time>2020-10-19T12:44:07.000Z</time>
      </trkpt>
      <trkpt lat="48.22418" lon="-3.16217">
        <ele>209.19999694824</ele>
        <time>2020-10-19T12:44:08.000Z</time>
      </trkpt>
      <trkpt lat="48.22417" lon="-3.16215">
        <ele>209.19999694824</ele>
        <time>2020-10-19T12:44:09.000Z</time>
      </trkpt>
      <trkpt lat="48.22417" lon="-3.16214">
        <ele>209.19999694824</ele>
        <time>2020-10-19T12:44:10.000Z</time>
      </trkpt>
      <trkpt lat="48.22417" lon="-3.16212">
        <ele>209.19999694824</ele>
        <time>2020-10-19T12:44:11.000Z</time>
      </trkpt>
      <trkpt lat="48.22416" lon="-3.1621">
        <ele>209</ele>
        <time>2020-10-19T12:44:12.000Z</time>
      </trkpt>
      <trkpt lat="48.22415" lon="-3.16208">
        <ele>209</ele>
        <time>2020-10-19T12:44:13.000Z</time>
      </trkpt>
      <trkpt lat="48.22415" lon="-3.16208">
        <ele>209</ele>
        <time>2020-10-19T12:44:14.000Z</time>
      </trkpt>
      <trkpt lat="48.22415" lon="-3.16206">
        <ele>209</ele>
        <time>2020-10-19T12:44:15.000Z</time>
      </trkpt>
      <trkpt lat="48.22414" lon="-3.16205">
        <ele>209</ele>
        <time>2020-10-19T12:44:16.000Z</time>
      </trkpt>
      <trkpt lat="48.22414" lon="-3.16204">
        <ele>209</ele>
        <time>2020-10-19T12:44:17.000Z</time>
      </trkpt>
      <trkpt lat="48.22413" lon="-3.16202">
        <ele>209</ele>
        <time>2020-10-19T12:44:18.000Z</time>
      </trkpt>
      <trkpt lat="48.22413" lon="-3.16201">
        <ele>209</ele>
        <time>2020-10-19T12:44:19.000Z</time>
      </trkpt>
      <trkpt lat="48.22412" lon="-3.162">
        <ele>208.80000305176</ele>
        <time>2020-10-19T12:44:20.000Z</time>
      </trkpt>
      <trkpt lat="48.22412" lon="-3.16199">
        <ele>208.80000305176</ele>
        <time>2020-10-19T12:44:21.000Z</time>
      </trkpt>
      <trkpt lat="48.22412" lon="-3.16197">
        <ele>208.80000305176</ele>
        <time>2020-10-19T12:44:22.000Z</time>
      </trkpt>
      <trkpt lat="48.22411" lon="-3.16196">
        <ele>208.80000305176</ele>
        <time>2020-10-19T12:44:23.000Z</time>
      </trkpt>
      <trkpt lat="48.22411" lon="-3.16195">
        <ele>208.80000305176</ele>
        <time>2020-10-19T12:44:24.000Z</time>
      </trkpt>
      <trkpt lat="48.22411" lon="-3.16193">
        <ele>208.80000305176</ele>
        <time>2020-10-19T12:44:25.000Z</time>
      </trkpt>
      <trkpt lat="48.22411" lon="-3.16192">
        <ele>208.60000610352</ele>
        <time>2020-10-19T12:44:26.000Z</time>
      </trkpt>
      <trkpt lat="48.2241" lon="-3.1619">
        <ele>208.60000610352</ele>
        <time>2020-10-19T12:44:27.000Z</time>
      </trkpt>
      <trkpt lat="48.2241" lon="-3.16189">
        <ele>208.60000610352</ele>
        <time>2020-10-19T12:44:28.000Z</time>
      </trkpt>
      <trkpt lat="48.2241" lon="-3.16187">
        <ele>208.60000610352</ele>
        <time>2020-10-19T12:44:29.000Z</time>
      </trkpt>
      <trkpt lat="48.22409" lon="-3.16186">
        <ele>208.60000610352</ele>
        <time>2020-10-19T12:44:30.000Z</time>
      </trkpt>
      <trkpt lat="48.22409" lon="-3.16185">
        <ele>208.39999389648</ele>
        <time>2020-10-19T12:44:31.000Z</time>
      </trkpt>
      <trkpt lat="48.22408" lon="-3.16183">
        <ele>208.39999389648</ele>
        <time>2020-10-19T12:44:32.000Z</time>
      </trkpt>
      <trkpt lat="48.22408" lon="-3.16182">
        <ele>208.39999389648</ele>
        <time>2020-10-19T12:44:33.000Z</time>
      </trkpt>
      <trkpt lat="48.22407" lon="-3.16181">
        <ele>208.19999694824</ele>
        <time>2020-10-19T12:44:34.000Z</time>
      </trkpt>
      <trkpt lat="48.22407" lon="-3.16179">
        <ele>208.19999694824</ele>
        <time>2020-10-19T12:44:35.000Z</time>
      </trkpt>
      <trkpt lat="48.22406" lon="-3.16178">
        <ele>208.19999694824</ele>
        <time>2020-10-19T12:44:36.000Z</time>
      </trkpt>
      <trkpt lat="48.22405" lon="-3.16177">
        <ele>208.19999694824</ele>
        <time>2020-10-19T12:44:37.000Z</time>
      </trkpt>
      <trkpt lat="48.22405" lon="-3.16175">
        <ele>208.19999694824</ele>
        <time>2020-10-19T12:44:38.000Z</time>
      </trkpt>
      <trkpt lat="48.22404" lon="-3.16173">
        <ele>208</ele>
        <time>2020-10-19T12:44:39.000Z</time>
      </trkpt>
      <trkpt lat="48.22404" lon="-3.16172">
        <ele>208</ele>
        <time>2020-10-19T12:44:40.000Z</time>
      </trkpt>
      <trkpt lat="48.22403" lon="-3.16171">
        <ele>208</ele>
        <time>2020-10-19T12:44:41.000Z</time>
      </trkpt>
      <trkpt lat="48.22403" lon="-3.16169">
        <ele>208</ele>
        <time>2020-10-19T12:44:42.000Z</time>
      </trkpt>
      <trkpt lat="48.22402" lon="-3.16168">
        <ele>208</ele>
        <time>2020-10-19T12:44:43.000Z</time>
      </trkpt>
      <trkpt lat="48.22402" lon="-3.16167">
        <ele>208</ele>
        <time>2020-10-19T12:44:44.000Z</time>
      </trkpt>
      <trkpt lat="48.22402" lon="-3.16167">
        <ele>207.80000305176</ele>
        <time>2020-10-19T12:44:45.000Z</time>
      </trkpt>
      <trkpt lat="48.22401" lon="-3.16167">
        <ele>207.80000305176</ele>
        <time>2020-10-19T12:44:46.000Z</time>
      </trkpt>
      <trkpt lat="48.22401" lon="-3.16166">
        <ele>207.80000305176</ele>
        <time>2020-10-19T12:44:47.000Z</time>
      </trkpt>
      <trkpt lat="48.22401" lon="-3.16165">
        <ele>207.80000305176</ele>
        <time>2020-10-19T12:44:48.000Z</time>
      </trkpt>
      <trkpt lat="48.22401" lon="-3.16164">
        <ele>207.80000305176</ele>
        <time>2020-10-19T12:44:49.000Z</time>
      </trkpt>
      <trkpt lat="48.224" lon="-3.16163">
        <ele>207.80000305176</ele>
        <time>2020-10-19T12:44:50.000Z</time>
      </trkpt>
      <trkpt lat="48.224" lon="-3.16163">
        <ele>207.80000305176</ele>
        <time>2020-10-19T12:44:51.000Z</time>
      </trkpt>
      <trkpt lat="48.224" lon="-3.16163">
        <ele>207.80000305176</ele>
        <time>2020-10-19T12:44:52.000Z</time>
      </trkpt>
      <trkpt lat="48.224" lon="-3.16163">
        <ele>207.80000305176</ele>
        <time>2020-10-19T12:44:53.000Z</time>
      </trkpt>
      <trkpt lat="48.22401" lon="-3.16162">
        <ele>207.80000305176</ele>
        <time>2020-10-19T12:44:54.000Z</time>
      </trkpt>
      <trkpt lat="48.22401" lon="-3.16162">
        <ele>207.80000305176</ele>
        <time>2020-10-19T12:44:55.000Z</time>
      </trkpt>
      <trkpt lat="48.22401" lon="-3.16161">
        <ele>207.80000305176</ele>
        <time>2020-10-19T12:44:56.000Z</time>
      </trkpt>
      <trkpt lat="48.22401" lon="-3.16161">
        <ele>207.80000305176</ele>
        <time>2020-10-19T12:44:57.000Z</time>
      </trkpt>
      <trkpt lat="48.224" lon="-3.1616">
        <ele>207.80000305176</ele>
        <time>2020-10-19T12:44:58.000Z</time>
      </trkpt>
      <trkpt lat="48.224" lon="-3.16159">
        <ele>207.80000305176</ele>
        <time>2020-10-19T12:44:59.000Z</time>
      </trkpt>
      <trkpt lat="48.224" lon="-3.16156">
        <ele>207.80000305176</ele>
        <time>2020-10-19T12:45:00.000Z</time>
      </trkpt>
      <trkpt lat="48.224" lon="-3.16156">
        <ele>207.80000305176</ele>
        <time>2020-10-19T12:45:01.000Z</time>
      </trkpt>
      <trkpt lat="48.22399" lon="-3.16155">
        <ele>207.60000610352</ele>
        <time>2020-10-19T12:45:02.000Z</time>
      </trkpt>
      <trkpt lat="48.22399" lon="-3.16154">
        <ele>207.60000610352</ele>
        <time>2020-10-19T12:45:03.000Z</time>
      </trkpt>
      <trkpt lat="48.22399" lon="-3.16152">
        <ele>207.60000610352</ele>
        <time>2020-10-19T12:45:04.000Z</time>
      </trkpt>
      <trkpt lat="48.22398" lon="-3.16151">
        <ele>207.60000610352</ele>
        <time>2020-10-19T12:45:05.000Z</time>
      </trkpt>
      <trkpt lat="48.22398" lon="-3.1615">
        <ele>207.60000610352</ele>
        <time>2020-10-19T12:45:06.000Z</time>
      </trkpt>
      <trkpt lat="48.22397" lon="-3.16149">
        <ele>207.60000610352</ele>
        <time>2020-10-19T12:45:07.000Z</time>
      </trkpt>
      <trkpt lat="48.22397" lon="-3.16148">
        <ele>207.39999389648</ele>
        <time>2020-10-19T12:45:08.000Z</time>
      </trkpt>
      <trkpt lat="48.22396" lon="-3.16147">
        <ele>207.39999389648</ele>
        <time>2020-10-19T12:45:09.000Z</time>
      </trkpt>
      <trkpt lat="48.22396" lon="-3.16145">
        <ele>207.39999389648</ele>
        <time>2020-10-19T12:45:10.000Z</time>
      </trkpt>
      <trkpt lat="48.22396" lon="-3.16144">
        <ele>207.39999389648</ele>
        <time>2020-10-19T12:45:11.000Z</time>
      </trkpt>
      <trkpt lat="48.22395" lon="-3.16143">
        <ele>207.39999389648</ele>
        <time>2020-10-19T12:45:12.000Z</time>
      </trkpt>
      <trkpt lat="48.22395" lon="-3.16141">
        <ele>207.39999389648</ele>
        <time>2020-10-19T12:45:13.000Z</time>
      </trkpt>
      <trkpt lat="48.22395" lon="-3.1614">
        <ele>207.39999389648</ele>
        <time>2020-10-19T12:45:14.000Z</time>
      </trkpt>
      <trkpt lat="48.22394" lon="-3.16138">
        <ele>207.19999694824</ele>
        <time>2020-10-19T12:45:15.000Z</time>
      </trkpt>
      <trkpt lat="48.22393" lon="-3.16137">
        <ele>207.19999694824</ele>
        <time>2020-10-19T12:45:16.000Z</time>
      </trkpt>
      <trkpt lat="48.22393" lon="-3.16135">
        <ele>207.19999694824</ele>
        <time>2020-10-19T12:45:17.000Z</time>
      </trkpt>
      <trkpt lat="48.22392" lon="-3.16134">
        <ele>207.19999694824</ele>
        <time>2020-10-19T12:45:18.000Z</time>
      </trkpt>
      <trkpt lat="48.22392" lon="-3.16133">
        <ele>207.19999694824</ele>
        <time>2020-10-19T12:45:19.000Z</time>
      </trkpt>
      <trkpt lat="48.22391" lon="-3.16131">
        <ele>207</ele>
        <time>2020-10-19T12:45:20.000Z</time>
      </trkpt>
      <trkpt lat="48.22391" lon="-3.1613">
        <ele>207</ele>
        <time>2020-10-19T12:45:21.000Z</time>
      </trkpt>
      <trkpt lat="48.2239" lon="-3.16128">
        <ele>207</ele>
        <time>2020-10-19T12:45:22.000Z</time>
      </trkpt>
      <trkpt lat="48.2239" lon="-3.16126">
        <ele>207</ele>
        <time>2020-10-19T12:45:23.000Z</time>
      </trkpt>
      <trkpt lat="48.22389" lon="-3.16125">
        <ele>206.80000305176</ele>
        <time>2020-10-19T12:45:24.000Z</time>
      </trkpt>
      <trkpt lat="48.22389" lon="-3.16124">
        <ele>206.80000305176</ele>
        <time>2020-10-19T12:45:25.000Z</time>
      </trkpt>
      <trkpt lat="48.22388" lon="-3.16123">
        <ele>206.80000305176</ele>
        <time>2020-10-19T12:45:26.000Z</time>
      </trkpt>
      <trkpt lat="48.22387" lon="-3.16121">
        <ele>206.60000610352</ele>
        <time>2020-10-19T12:45:27.000Z</time>
      </trkpt>
      <trkpt lat="48.22387" lon="-3.1612">
        <ele>206.60000610352</ele>
        <time>2020-10-19T12:45:28.000Z</time>
      </trkpt>
      <trkpt lat="48.22387" lon="-3.16118">
        <ele>206.60000610352</ele>
        <time>2020-10-19T12:45:29.000Z</time>
      </trkpt>
      <trkpt lat="48.22387" lon="-3.16117">
        <ele>206.60000610352</ele>
        <time>2020-10-19T12:45:30.000Z</time>
      </trkpt>
      <trkpt lat="48.22387" lon="-3.16115">
        <ele>206.39999389648</ele>
        <time>2020-10-19T12:45:31.000Z</time>
      </trkpt>
      <trkpt lat="48.22386" lon="-3.16114">
        <ele>206.39999389648</ele>
        <time>2020-10-19T12:45:32.000Z</time>
      </trkpt>
      <trkpt lat="48.22386" lon="-3.16112">
        <ele>206.39999389648</ele>
        <time>2020-10-19T12:45:33.000Z</time>
      </trkpt>
      <trkpt lat="48.22386" lon="-3.16111">
        <ele>206.39999389648</ele>
        <time>2020-10-19T12:45:34.000Z</time>
      </trkpt>
      <trkpt lat="48.22386" lon="-3.16109">
        <ele>206.19999694824</ele>
        <time>2020-10-19T12:45:35.000Z</time>
      </trkpt>
      <trkpt lat="48.22385" lon="-3.16107">
        <ele>206.19999694824</ele>
        <time>2020-10-19T12:45:36.000Z</time>
      </trkpt>
      <trkpt lat="48.22385" lon="-3.16106">
        <ele>206.19999694824</ele>
        <time>2020-10-19T12:45:37.000Z</time>
      </trkpt>
      <trkpt lat="48.22385" lon="-3.16105">
        <ele>206.19999694824</ele>
        <time>2020-10-19T12:45:38.000Z</time>
      </trkpt>
      <trkpt lat="48.22384" lon="-3.16103">
        <ele>206</ele>
        <time>2020-10-19T12:45:39.000Z</time>
      </trkpt>
      <trkpt lat="48.22384" lon="-3.16102">
        <ele>206</ele>
        <time>2020-10-19T12:45:40.000Z</time>
      </trkpt>
      <trkpt lat="48.22384" lon="-3.16101">
        <ele>206</ele>
        <time>2020-10-19T12:45:41.000Z</time>
      </trkpt>
      <trkpt lat="48.22383" lon="-3.16099">
        <ele>206</ele>
        <time>2020-10-19T12:45:42.000Z</time>
      </trkpt>
      <trkpt lat="48.22382" lon="-3.16097">
        <ele>205.80000305176</ele>
        <time>2020-10-19T12:45:43.000Z</time>
      </trkpt>
      <trkpt lat="48.22382" lon="-3.16096">
        <ele>205.80000305176</ele>
        <time>2020-10-19T12:45:44.000Z</time>
      </trkpt>
      <trkpt lat="48.22382" lon="-3.16094">
        <ele>205.80000305176</ele>
        <time>2020-10-19T12:45:45.000Z</time>
      </trkpt>
      <trkpt lat="48.22381" lon="-3.16093">
        <ele>205.80000305176</ele>
        <time>2020-10-19T12:45:46.000Z</time>
      </trkpt>
      <trkpt lat="48.22381" lon="-3.16091">
        <ele>205.60000610352</ele>
        <time>2020-10-19T12:45:47.000Z</time>
      </trkpt>
      <trkpt lat="48.2238" lon="-3.16089">
        <ele>205.60000610352</ele>
        <time>2020-10-19T12:45:48.000Z</time>
      </trkpt>
      <trkpt lat="48.2238" lon="-3.16088">
        <ele>205.60000610352</ele>
        <time>2020-10-19T12:45:49.000Z</time>
      </trkpt>
      <trkpt lat="48.2238" lon="-3.16087">
        <ele>205.60000610352</ele>
        <time>2020-10-19T12:45:50.000Z</time>
      </trkpt>
      <trkpt lat="48.22379" lon="-3.16085">
        <ele>205.60000610352</ele>
        <time>2020-10-19T12:45:51.000Z</time>
      </trkpt>
      <trkpt lat="48.22379" lon="-3.16084">
        <ele>205.39999389648</ele>
        <time>2020-10-19T12:45:52.000Z</time>
      </trkpt>
      <trkpt lat="48.22379" lon="-3.16082">
        <ele>205.39999389648</ele>
        <time>2020-10-19T12:45:53.000Z</time>
      </trkpt>
      <trkpt lat="48.22378" lon="-3.16081">
        <ele>205.39999389648</ele>
        <time>2020-10-19T12:45:54.000Z</time>
      </trkpt>
      <trkpt lat="48.22378" lon="-3.16079">
        <ele>205.39999389648</ele>
        <time>2020-10-19T12:45:55.000Z</time>
      </trkpt>
      <trkpt lat="48.22377" lon="-3.16078">
        <ele>205.39999389648</ele>
        <time>2020-10-19T12:45:56.000Z</time>
      </trkpt>
      <trkpt lat="48.22377" lon="-3.16076">
        <ele>205.39999389648</ele>
        <time>2020-10-19T12:45:57.000Z</time>
      </trkpt>
      <trkpt lat="48.22377" lon="-3.16075">
        <ele>205.19999694824</ele>
        <time>2020-10-19T12:45:58.000Z</time>
      </trkpt>
      <trkpt lat="48.22376" lon="-3.16074">
        <ele>205.19999694824</ele>
        <time>2020-10-19T12:45:59.000Z</time>
      </trkpt>
      <trkpt lat="48.22376" lon="-3.16071">
        <ele>205.19999694824</ele>
        <time>2020-10-19T12:46:00.000Z</time>
      </trkpt>
      <trkpt lat="48.22376" lon="-3.16071">
        <ele>205.19999694824</ele>
        <time>2020-10-19T12:46:01.000Z</time>
      </trkpt>
      <trkpt lat="48.22376" lon="-3.16069">
        <ele>205.19999694824</ele>
        <time>2020-10-19T12:46:02.000Z</time>
      </trkpt>
      <trkpt lat="48.22376" lon="-3.16067">
        <ele>205.19999694824</ele>
        <time>2020-10-19T12:46:03.000Z</time>
      </trkpt>
      <trkpt lat="48.22376" lon="-3.16066">
        <ele>205.19999694824</ele>
        <time>2020-10-19T12:46:04.000Z</time>
      </trkpt>
      <trkpt lat="48.22377" lon="-3.16064">
        <ele>205.19999694824</ele>
        <time>2020-10-19T12:46:05.000Z</time>
      </trkpt>
      <trkpt lat="48.22377" lon="-3.16062">
        <ele>205.19999694824</ele>
        <time>2020-10-19T12:46:06.000Z</time>
      </trkpt>
      <trkpt lat="48.22376" lon="-3.16061">
        <ele>205</ele>
        <time>2020-10-19T12:46:07.000Z</time>
      </trkpt>
      <trkpt lat="48.22376" lon="-3.16059">
        <ele>205</ele>
        <time>2020-10-19T12:46:08.000Z</time>
      </trkpt>
      <trkpt lat="48.22376" lon="-3.16058">
        <ele>205</ele>
        <time>2020-10-19T12:46:09.000Z</time>
      </trkpt>
      <trkpt lat="48.22375" lon="-3.16056">
        <ele>204.80000305176</ele>
        <time>2020-10-19T12:46:10.000Z</time>
      </trkpt>
      <trkpt lat="48.22375" lon="-3.16055">
        <ele>204.80000305176</ele>
        <time>2020-10-19T12:46:11.000Z</time>
      </trkpt>
      <trkpt lat="48.22375" lon="-3.16054">
        <ele>204.80000305176</ele>
        <time>2020-10-19T12:46:12.000Z</time>
      </trkpt>
      <trkpt lat="48.22374" lon="-3.16053">
        <ele>204.80000305176</ele>
        <time>2020-10-19T12:46:13.000Z</time>
      </trkpt>
      <trkpt lat="48.22374" lon="-3.16052">
        <ele>204.60000610352</ele>
        <time>2020-10-19T12:46:14.000Z</time>
      </trkpt>
      <trkpt lat="48.22373" lon="-3.1605">
        <ele>204.60000610352</ele>
        <time>2020-10-19T12:46:15.000Z</time>
      </trkpt>
      <trkpt lat="48.22373" lon="-3.16048">
        <ele>204.60000610352</ele>
        <time>2020-10-19T12:46:16.000Z</time>
      </trkpt>
      <trkpt lat="48.22372" lon="-3.16047">
        <ele>204.39999389648</ele>
        <time>2020-10-19T12:46:17.000Z</time>
      </trkpt>
      <trkpt lat="48.22372" lon="-3.16046">
        <ele>204.39999389648</ele>
        <time>2020-10-19T12:46:18.000Z</time>
      </trkpt>
      <trkpt lat="48.22371" lon="-3.16044">
        <ele>204.39999389648</ele>
        <time>2020-10-19T12:46:19.000Z</time>
      </trkpt>
      <trkpt lat="48.2237" lon="-3.16042">
        <ele>204.19999694824</ele>
        <time>2020-10-19T12:46:20.000Z</time>
      </trkpt>
      <trkpt lat="48.22369" lon="-3.16041">
        <ele>204.19999694824</ele>
        <time>2020-10-19T12:46:21.000Z</time>
      </trkpt>
      <trkpt lat="48.22369" lon="-3.16039">
        <ele>204</ele>
        <time>2020-10-19T12:46:22.000Z</time>
      </trkpt>
      <trkpt lat="48.22368" lon="-3.16037">
        <ele>204</ele>
        <time>2020-10-19T12:46:23.000Z</time>
      </trkpt>
      <trkpt lat="48.22367" lon="-3.16036">
        <ele>204</ele>
        <time>2020-10-19T12:46:24.000Z</time>
      </trkpt>
      <trkpt lat="48.22367" lon="-3.16034">
        <ele>203.80000305176</ele>
        <time>2020-10-19T12:46:25.000Z</time>
      </trkpt>
      <trkpt lat="48.22366" lon="-3.16033">
        <ele>203.80000305176</ele>
        <time>2020-10-19T12:46:26.000Z</time>
      </trkpt>
      <trkpt lat="48.22365" lon="-3.16032">
        <ele>203.60000610352</ele>
        <time>2020-10-19T12:46:27.000Z</time>
      </trkpt>
      <trkpt lat="48.22364" lon="-3.1603">
        <ele>203.60000610352</ele>
        <time>2020-10-19T12:46:28.000Z</time>
      </trkpt>
      <trkpt lat="48.22363" lon="-3.16028">
        <ele>203.39999389648</ele>
        <time>2020-10-19T12:46:29.000Z</time>
      </trkpt>
      <trkpt lat="48.22362" lon="-3.16027">
        <ele>203.39999389648</ele>
        <time>2020-10-19T12:46:30.000Z</time>
      </trkpt>
      <trkpt lat="48.22361" lon="-3.16025">
        <ele>203.19999694824</ele>
        <time>2020-10-19T12:46:31.000Z</time>
      </trkpt>
      <trkpt lat="48.2236" lon="-3.16023">
        <ele>203.19999694824</ele>
        <time>2020-10-19T12:46:32.000Z</time>
      </trkpt>
      <trkpt lat="48.22359" lon="-3.16022">
        <ele>203</ele>
        <time>2020-10-19T12:46:33.000Z</time>
      </trkpt>
      <trkpt lat="48.22358" lon="-3.16021">
        <ele>203</ele>
        <time>2020-10-19T12:46:34.000Z</time>
      </trkpt>
      <trkpt lat="48.22357" lon="-3.1602">
        <ele>202.80000305176</ele>
        <time>2020-10-19T12:46:35.000Z</time>
      </trkpt>
      <trkpt lat="48.22356" lon="-3.16018">
        <ele>202.80000305176</ele>
        <time>2020-10-19T12:46:36.000Z</time>
      </trkpt>
      <trkpt lat="48.22355" lon="-3.16017">
        <ele>202.80000305176</ele>
        <time>2020-10-19T12:46:37.000Z</time>
      </trkpt>
      <trkpt lat="48.22354" lon="-3.16016">
        <ele>202.60000610352</ele>
        <time>2020-10-19T12:46:38.000Z</time>
      </trkpt>
      <trkpt lat="48.22353" lon="-3.16014">
        <ele>202.60000610352</ele>
        <time>2020-10-19T12:46:39.000Z</time>
      </trkpt>
      <trkpt lat="48.22352" lon="-3.16013">
        <ele>202.39999389648</ele>
        <time>2020-10-19T12:46:40.000Z</time>
      </trkpt>
      <trkpt lat="48.22352" lon="-3.16012">
        <ele>202.39999389648</ele>
        <time>2020-10-19T12:46:41.000Z</time>
      </trkpt>
      <trkpt lat="48.22351" lon="-3.16011">
        <ele>202.39999389648</ele>
        <time>2020-10-19T12:46:42.000Z</time>
      </trkpt>
      <trkpt lat="48.2235" lon="-3.1601">
        <ele>202.19999694824</ele>
        <time>2020-10-19T12:46:43.000Z</time>
      </trkpt>
      <trkpt lat="48.22349" lon="-3.16009">
        <ele>202.19999694824</ele>
        <time>2020-10-19T12:46:44.000Z</time>
      </trkpt>
      <trkpt lat="48.22349" lon="-3.16008">
        <ele>202.19999694824</ele>
        <time>2020-10-19T12:46:45.000Z</time>
      </trkpt>
      <trkpt lat="48.22347" lon="-3.16007">
        <ele>202</ele>
        <time>2020-10-19T12:46:46.000Z</time>
      </trkpt>
      <trkpt lat="48.22346" lon="-3.16006">
        <ele>202</ele>
        <time>2020-10-19T12:46:47.000Z</time>
      </trkpt>
      <trkpt lat="48.22346" lon="-3.16005">
        <ele>201.80000305176</ele>
        <time>2020-10-19T12:46:48.000Z</time>
      </trkpt>
      <trkpt lat="48.22345" lon="-3.16004">
        <ele>201.80000305176</ele>
        <time>2020-10-19T12:46:49.000Z</time>
      </trkpt>
      <trkpt lat="48.22344" lon="-3.16003">
        <ele>201.60000610352</ele>
        <time>2020-10-19T12:46:50.000Z</time>
      </trkpt>
      <trkpt lat="48.22343" lon="-3.16003">
        <ele>201.60000610352</ele>
        <time>2020-10-19T12:46:51.000Z</time>
      </trkpt>
      <trkpt lat="48.22342" lon="-3.16002">
        <ele>201.39999389648</ele>
        <time>2020-10-19T12:46:52.000Z</time>
      </trkpt>
      <trkpt lat="48.22341" lon="-3.16001">
        <ele>201.39999389648</ele>
        <time>2020-10-19T12:46:53.000Z</time>
      </trkpt>
      <trkpt lat="48.22341" lon="-3.16">
        <ele>201.39999389648</ele>
        <time>2020-10-19T12:46:54.000Z</time>
      </trkpt>
      <trkpt lat="48.2234" lon="-3.15999">
        <ele>201.19999694824</ele>
        <time>2020-10-19T12:46:55.000Z</time>
      </trkpt>
      <trkpt lat="48.22339" lon="-3.15998">
        <ele>201.19999694824</ele>
        <time>2020-10-19T12:46:56.000Z</time>
      </trkpt>
      <trkpt lat="48.22338" lon="-3.15997">
        <ele>201</ele>
        <time>2020-10-19T12:46:57.000Z</time>
      </trkpt>
      <trkpt lat="48.22338" lon="-3.15997">
        <ele>201</ele>
        <time>2020-10-19T12:46:58.000Z</time>
      </trkpt>
      <trkpt lat="48.22337" lon="-3.15996">
        <ele>200.80000305176</ele>
        <time>2020-10-19T12:46:59.000Z</time>
      </trkpt>
      <trkpt lat="48.22335" lon="-3.15995">
        <ele>200.80000305176</ele>
        <time>2020-10-19T12:47:00.000Z</time>
      </trkpt>
      <trkpt lat="48.22335" lon="-3.15995">
        <ele>200.80000305176</ele>
        <time>2020-10-19T12:47:01.000Z</time>
      </trkpt>
      <trkpt lat="48.22334" lon="-3.15994">
        <ele>200.60000610352</ele>
        <time>2020-10-19T12:47:02.000Z</time>
      </trkpt>
      <trkpt lat="48.22333" lon="-3.15993">
        <ele>200.60000610352</ele>
        <time>2020-10-19T12:47:03.000Z</time>
      </trkpt>
      <trkpt lat="48.22332" lon="-3.15992">
        <ele>200.39999389648</ele>
        <time>2020-10-19T12:47:04.000Z</time>
      </trkpt>
      <trkpt lat="48.22331" lon="-3.15992">
        <ele>200.39999389648</ele>
        <time>2020-10-19T12:47:05.000Z</time>
      </trkpt>
      <trkpt lat="48.22331" lon="-3.15991">
        <ele>200.39999389648</ele>
        <time>2020-10-19T12:47:06.000Z</time>
      </trkpt>
      <trkpt lat="48.2233" lon="-3.15991">
        <ele>200.19999694824</ele>
        <time>2020-10-19T12:47:07.000Z</time>
      </trkpt>
      <trkpt lat="48.22329" lon="-3.1599">
        <ele>200.19999694824</ele>
        <time>2020-10-19T12:47:08.000Z</time>
      </trkpt>
      <trkpt lat="48.22329" lon="-3.15989">
        <ele>200</ele>
        <time>2020-10-19T12:47:09.000Z</time>
      </trkpt>
      <trkpt lat="48.22328" lon="-3.15988">
        <ele>200</ele>
        <time>2020-10-19T12:47:10.000Z</time>
      </trkpt>
      <trkpt lat="48.22327" lon="-3.15987">
        <ele>199.80000305176</ele>
        <time>2020-10-19T12:47:11.000Z</time>
      </trkpt>
      <trkpt lat="48.22326" lon="-3.15986">
        <ele>199.80000305176</ele>
        <time>2020-10-19T12:47:12.000Z</time>
      </trkpt>
      <trkpt lat="48.22325" lon="-3.15985">
        <ele>199.60000610352</ele>
        <time>2020-10-19T12:47:13.000Z</time>
      </trkpt>
      <trkpt lat="48.22324" lon="-3.15985">
        <ele>199.60000610352</ele>
        <time>2020-10-19T12:47:14.000Z</time>
      </trkpt>
      <trkpt lat="48.22323" lon="-3.15984">
        <ele>199.39999389648</ele>
        <time>2020-10-19T12:47:15.000Z</time>
      </trkpt>
      <trkpt lat="48.22322" lon="-3.15983">
        <ele>199.39999389648</ele>
        <time>2020-10-19T12:47:16.000Z</time>
      </trkpt>
      <trkpt lat="48.22322" lon="-3.15981">
        <ele>199.19999694824</ele>
        <time>2020-10-19T12:47:17.000Z</time>
      </trkpt>
      <trkpt lat="48.22321" lon="-3.1598">
        <ele>199.19999694824</ele>
        <time>2020-10-19T12:47:18.000Z</time>
      </trkpt>
      <trkpt lat="48.2232" lon="-3.15979">
        <ele>199.19999694824</ele>
        <time>2020-10-19T12:47:19.000Z</time>
      </trkpt>
      <trkpt lat="48.22319" lon="-3.15978">
        <ele>199</ele>
        <time>2020-10-19T12:47:20.000Z</time>
      </trkpt>
      <trkpt lat="48.22318" lon="-3.15977">
        <ele>199</ele>
        <time>2020-10-19T12:47:21.000Z</time>
      </trkpt>
      <trkpt lat="48.22318" lon="-3.15976">
        <ele>198.80000305176</ele>
        <time>2020-10-19T12:47:22.000Z</time>
      </trkpt>
      <trkpt lat="48.22317" lon="-3.15975">
        <ele>198.80000305176</ele>
        <time>2020-10-19T12:47:23.000Z</time>
      </trkpt>
      <trkpt lat="48.22316" lon="-3.15974">
        <ele>198.60000610352</ele>
        <time>2020-10-19T12:47:24.000Z</time>
      </trkpt>
      <trkpt lat="48.22315" lon="-3.15973">
        <ele>198.60000610352</ele>
        <time>2020-10-19T12:47:25.000Z</time>
      </trkpt>
      <trkpt lat="48.22314" lon="-3.15972">
        <ele>198.39999389648</ele>
        <time>2020-10-19T12:47:26.000Z</time>
      </trkpt>
      <trkpt lat="48.22314" lon="-3.15971">
        <ele>198.39999389648</ele>
        <time>2020-10-19T12:47:27.000Z</time>
      </trkpt>
      <trkpt lat="48.22313" lon="-3.1597">
        <ele>198.19999694824</ele>
        <time>2020-10-19T12:47:28.000Z</time>
      </trkpt>
      <trkpt lat="48.22312" lon="-3.15969">
        <ele>198.19999694824</ele>
        <time>2020-10-19T12:47:29.000Z</time>
      </trkpt>
      <trkpt lat="48.22311" lon="-3.15968">
        <ele>198.19999694824</ele>
        <time>2020-10-19T12:47:30.000Z</time>
      </trkpt>
      <trkpt lat="48.22311" lon="-3.15967">
        <ele>198</ele>
        <time>2020-10-19T12:47:31.000Z</time>
      </trkpt>
      <trkpt lat="48.2231" lon="-3.15966">
        <ele>198</ele>
        <time>2020-10-19T12:47:32.000Z</time>
      </trkpt>
      <trkpt lat="48.22309" lon="-3.15965">
        <ele>197.80000305176</ele>
        <time>2020-10-19T12:47:33.000Z</time>
      </trkpt>
      <trkpt lat="48.22308" lon="-3.15964">
        <ele>197.80000305176</ele>
        <time>2020-10-19T12:47:34.000Z</time>
      </trkpt>
      <trkpt lat="48.22307" lon="-3.15963">
        <ele>197.60000610352</ele>
        <time>2020-10-19T12:47:35.000Z</time>
      </trkpt>
      <trkpt lat="48.22306" lon="-3.15962">
        <ele>197.60000610352</ele>
        <time>2020-10-19T12:47:36.000Z</time>
      </trkpt>
      <trkpt lat="48.22305" lon="-3.15961">
        <ele>197.39999389648</ele>
        <time>2020-10-19T12:47:37.000Z</time>
      </trkpt>
      <trkpt lat="48.22305" lon="-3.15961">
        <ele>197.19999694824</ele>
        <time>2020-10-19T12:47:38.000Z</time>
      </trkpt>
      <trkpt lat="48.22304" lon="-3.1596">
        <ele>197.19999694824</ele>
        <time>2020-10-19T12:47:39.000Z</time>
      </trkpt>
      <trkpt lat="48.22303" lon="-3.15959">
        <ele>197</ele>
        <time>2020-10-19T12:47:40.000Z</time>
      </trkpt>
      <trkpt lat="48.22302" lon="-3.15958">
        <ele>197</ele>
        <time>2020-10-19T12:47:41.000Z</time>
      </trkpt>
      <trkpt lat="48.22301" lon="-3.15957">
        <ele>196.80000305176</ele>
        <time>2020-10-19T12:47:42.000Z</time>
      </trkpt>
      <trkpt lat="48.223" lon="-3.15956">
        <ele>196.60000610352</ele>
        <time>2020-10-19T12:47:43.000Z</time>
      </trkpt>
      <trkpt lat="48.223" lon="-3.15955">
        <ele>196.60000610352</ele>
        <time>2020-10-19T12:47:44.000Z</time>
      </trkpt>
      <trkpt lat="48.22299" lon="-3.15954">
        <ele>196.39999389648</ele>
        <time>2020-10-19T12:47:45.000Z</time>
      </trkpt>
      <trkpt lat="48.22298" lon="-3.15953">
        <ele>196.39999389648</ele>
        <time>2020-10-19T12:47:46.000Z</time>
      </trkpt>
      <trkpt lat="48.22297" lon="-3.15952">
        <ele>196.19999694824</ele>
        <time>2020-10-19T12:47:47.000Z</time>
      </trkpt>
      <trkpt lat="48.22296" lon="-3.15951">
        <ele>196.19999694824</ele>
        <time>2020-10-19T12:47:48.000Z</time>
      </trkpt>
      <trkpt lat="48.22295" lon="-3.1595">
        <ele>196</ele>
        <time>2020-10-19T12:47:49.000Z</time>
      </trkpt>
      <trkpt lat="48.22295" lon="-3.15949">
        <ele>196</ele>
        <time>2020-10-19T12:47:50.000Z</time>
      </trkpt>
      <trkpt lat="48.22294" lon="-3.15948">
        <ele>195.80000305176</ele>
        <time>2020-10-19T12:47:51.000Z</time>
      </trkpt>
      <trkpt lat="48.22293" lon="-3.15947">
        <ele>195.60000610352</ele>
        <time>2020-10-19T12:47:52.000Z</time>
      </trkpt>
      <trkpt lat="48.22292" lon="-3.15947">
        <ele>195.60000610352</ele>
        <time>2020-10-19T12:47:53.000Z</time>
      </trkpt>
      <trkpt lat="48.22291" lon="-3.15946">
        <ele>195.39999389648</ele>
        <time>2020-10-19T12:47:54.000Z</time>
      </trkpt>
      <trkpt lat="48.22291" lon="-3.15944">
        <ele>195.39999389648</ele>
        <time>2020-10-19T12:47:55.000Z</time>
      </trkpt>
      <trkpt lat="48.2229" lon="-3.15943">
        <ele>195.19999694824</ele>
        <time>2020-10-19T12:47:56.000Z</time>
      </trkpt>
      <trkpt lat="48.22289" lon="-3.15942">
        <ele>195</ele>
        <time>2020-10-19T12:47:57.000Z</time>
      </trkpt>
      <trkpt lat="48.22288" lon="-3.15941">
        <ele>195</ele>
        <time>2020-10-19T12:47:58.000Z</time>
      </trkpt>
      <trkpt lat="48.22287" lon="-3.1594">
        <ele>194.80000305176</ele>
        <time>2020-10-19T12:47:59.000Z</time>
      </trkpt>
      <trkpt lat="48.22285" lon="-3.15938">
        <ele>194.60000610352</ele>
        <time>2020-10-19T12:48:00.000Z</time>
      </trkpt>
      <trkpt lat="48.22285" lon="-3.15938">
        <ele>194.60000610352</ele>
        <time>2020-10-19T12:48:01.000Z</time>
      </trkpt>
      <trkpt lat="48.22285" lon="-3.15937">
        <ele>194.60000610352</ele>
        <time>2020-10-19T12:48:02.000Z</time>
      </trkpt>
      <trkpt lat="48.22284" lon="-3.15936">
        <ele>194.39999389648</ele>
        <time>2020-10-19T12:48:03.000Z</time>
      </trkpt>
      <trkpt lat="48.22283" lon="-3.15935">
        <ele>194.19999694824</ele>
        <time>2020-10-19T12:48:04.000Z</time>
      </trkpt>
      <trkpt lat="48.22282" lon="-3.15934">
        <ele>194.19999694824</ele>
        <time>2020-10-19T12:48:05.000Z</time>
      </trkpt>
      <trkpt lat="48.22281" lon="-3.15933">
        <ele>194</ele>
        <time>2020-10-19T12:48:06.000Z</time>
      </trkpt>
      <trkpt lat="48.2228" lon="-3.15933">
        <ele>194</ele>
        <time>2020-10-19T12:48:07.000Z</time>
      </trkpt>
      <trkpt lat="48.2228" lon="-3.15932">
        <ele>193.80000305176</ele>
        <time>2020-10-19T12:48:08.000Z</time>
      </trkpt>
      <trkpt lat="48.22279" lon="-3.1593">
        <ele>193.80000305176</ele>
        <time>2020-10-19T12:48:09.000Z</time>
      </trkpt>
      <trkpt lat="48.22278" lon="-3.15929">
        <ele>193.60000610352</ele>
        <time>2020-10-19T12:48:10.000Z</time>
      </trkpt>
      <trkpt lat="48.22277" lon="-3.15928">
        <ele>193.39999389648</ele>
        <time>2020-10-19T12:48:11.000Z</time>
      </trkpt>
      <trkpt lat="48.22276" lon="-3.15927">
        <ele>193.39999389648</ele>
        <time>2020-10-19T12:48:12.000Z</time>
      </trkpt>
      <trkpt lat="48.22276" lon="-3.15926">
        <ele>193.19999694824</ele>
        <time>2020-10-19T12:48:13.000Z</time>
      </trkpt>
      <trkpt lat="48.22275" lon="-3.15925">
        <ele>193.19999694824</ele>
        <time>2020-10-19T12:48:14.000Z</time>
      </trkpt>
      <trkpt lat="48.22275" lon="-3.15924">
        <ele>193.19999694824</ele>
        <time>2020-10-19T12:48:15.000Z</time>
      </trkpt>
      <trkpt lat="48.22274" lon="-3.15923">
        <ele>193</ele>
        <time>2020-10-19T12:48:16.000Z</time>
      </trkpt>
      <trkpt lat="48.22273" lon="-3.15922">
        <ele>193</ele>
        <time>2020-10-19T12:48:17.000Z</time>
      </trkpt>
      <trkpt lat="48.22272" lon="-3.15921">
        <ele>192.80000305176</ele>
        <time>2020-10-19T12:48:18.000Z</time>
      </trkpt>
      <trkpt lat="48.22271" lon="-3.1592">
        <ele>192.80000305176</ele>
        <time>2020-10-19T12:48:19.000Z</time>
      </trkpt>
      <trkpt lat="48.2227" lon="-3.15919">
        <ele>192.60000610352</ele>
        <time>2020-10-19T12:48:20.000Z</time>
      </trkpt>
      <trkpt lat="48.22269" lon="-3.15918">
        <ele>192.39999389648</ele>
        <time>2020-10-19T12:48:21.000Z</time>
      </trkpt>
      <trkpt lat="48.22268" lon="-3.15917">
        <ele>192.39999389648</ele>
        <time>2020-10-19T12:48:22.000Z</time>
      </trkpt>
      <trkpt lat="48.22266" lon="-3.15915">
        <ele>192</ele>
        <time>2020-10-19T12:48:23.000Z</time>
      </trkpt>
      <trkpt lat="48.22266" lon="-3.15915">
        <ele>192</ele>
        <time>2020-10-19T12:48:24.000Z</time>
      </trkpt>
      <trkpt lat="48.22266" lon="-3.15915">
        <ele>192</ele>
        <time>2020-10-19T12:48:25.000Z</time>
      </trkpt>
      <trkpt lat="48.22265" lon="-3.15914">
        <ele>191.80000305176</ele>
        <time>2020-10-19T12:48:26.000Z</time>
      </trkpt>
      <trkpt lat="48.22264" lon="-3.15913">
        <ele>191.60000610352</ele>
        <time>2020-10-19T12:48:27.000Z</time>
      </trkpt>
      <trkpt lat="48.22263" lon="-3.15912">
        <ele>191.60000610352</ele>
        <time>2020-10-19T12:48:28.000Z</time>
      </trkpt>
      <trkpt lat="48.22262" lon="-3.15911">
        <ele>191.39999389648</ele>
        <time>2020-10-19T12:48:29.000Z</time>
      </trkpt>
      <trkpt lat="48.22261" lon="-3.1591">
        <ele>191.19999694824</ele>
        <time>2020-10-19T12:48:30.000Z</time>
      </trkpt>
      <trkpt lat="48.2226" lon="-3.15909">
        <ele>191</ele>
        <time>2020-10-19T12:48:31.000Z</time>
      </trkpt>
      <trkpt lat="48.2226" lon="-3.15908">
        <ele>191</ele>
        <time>2020-10-19T12:48:32.000Z</time>
      </trkpt>
      <trkpt lat="48.22259" lon="-3.15907">
        <ele>190.80000305176</ele>
        <time>2020-10-19T12:48:33.000Z</time>
      </trkpt>
      <trkpt lat="48.22258" lon="-3.15906">
        <ele>190.60000610352</ele>
        <time>2020-10-19T12:48:34.000Z</time>
      </trkpt>
      <trkpt lat="48.22257" lon="-3.15905">
        <ele>190.60000610352</ele>
        <time>2020-10-19T12:48:35.000Z</time>
      </trkpt>
      <trkpt lat="48.22256" lon="-3.15905">
        <ele>190.39999389648</ele>
        <time>2020-10-19T12:48:36.000Z</time>
      </trkpt>
      <trkpt lat="48.22255" lon="-3.15904">
        <ele>190.19999694824</ele>
        <time>2020-10-19T12:48:37.000Z</time>
      </trkpt>
      <trkpt lat="48.22254" lon="-3.15904">
        <ele>190.19999694824</ele>
        <time>2020-10-19T12:48:38.000Z</time>
      </trkpt>
      <trkpt lat="48.22254" lon="-3.15903">
        <ele>190</ele>
        <time>2020-10-19T12:48:39.000Z</time>
      </trkpt>
      <trkpt lat="48.22253" lon="-3.15902">
        <ele>189.80000305176</ele>
        <time>2020-10-19T12:48:40.000Z</time>
      </trkpt>
      <trkpt lat="48.22252" lon="-3.15901">
        <ele>189.80000305176</ele>
        <time>2020-10-19T12:48:41.000Z</time>
      </trkpt>
      <trkpt lat="48.22251" lon="-3.159">
        <ele>189.60000610352</ele>
        <time>2020-10-19T12:48:42.000Z</time>
      </trkpt>
      <trkpt lat="48.2225" lon="-3.15899">
        <ele>189.39999389648</ele>
        <time>2020-10-19T12:48:43.000Z</time>
      </trkpt>
      <trkpt lat="48.2225" lon="-3.15899">
        <ele>189.39999389648</ele>
        <time>2020-10-19T12:48:44.000Z</time>
      </trkpt>
      <trkpt lat="48.22249" lon="-3.15898">
        <ele>189.19999694824</ele>
        <time>2020-10-19T12:48:45.000Z</time>
      </trkpt>
      <trkpt lat="48.22248" lon="-3.15897">
        <ele>189</ele>
        <time>2020-10-19T12:48:46.000Z</time>
      </trkpt>
      <trkpt lat="48.22247" lon="-3.15896">
        <ele>189</ele>
        <time>2020-10-19T12:48:47.000Z</time>
      </trkpt>
      <trkpt lat="48.22247" lon="-3.15895">
        <ele>188.80000305176</ele>
        <time>2020-10-19T12:48:48.000Z</time>
      </trkpt>
      <trkpt lat="48.22246" lon="-3.15894">
        <ele>188.60000610352</ele>
        <time>2020-10-19T12:48:49.000Z</time>
      </trkpt>
      <trkpt lat="48.22245" lon="-3.15893">
        <ele>188.60000610352</ele>
        <time>2020-10-19T12:48:50.000Z</time>
      </trkpt>
      <trkpt lat="48.22245" lon="-3.15892">
        <ele>188.39999389648</ele>
        <time>2020-10-19T12:48:51.000Z</time>
      </trkpt>
      <trkpt lat="48.22244" lon="-3.15891">
        <ele>188.19999694824</ele>
        <time>2020-10-19T12:48:52.000Z</time>
      </trkpt>
      <trkpt lat="48.22243" lon="-3.1589">
        <ele>188.19999694824</ele>
        <time>2020-10-19T12:48:53.000Z</time>
      </trkpt>
      <trkpt lat="48.22242" lon="-3.15889">
        <ele>188</ele>
        <time>2020-10-19T12:48:54.000Z</time>
      </trkpt>
      <trkpt lat="48.22241" lon="-3.15887">
        <ele>187.80000305176</ele>
        <time>2020-10-19T12:48:55.000Z</time>
      </trkpt>
      <trkpt lat="48.22241" lon="-3.15887">
        <ele>187.60000610352</ele>
        <time>2020-10-19T12:48:56.000Z</time>
      </trkpt>
      <trkpt lat="48.2224" lon="-3.15886">
        <ele>187.60000610352</ele>
        <time>2020-10-19T12:48:57.000Z</time>
      </trkpt>
      <trkpt lat="48.22239" lon="-3.15885">
        <ele>187.39999389648</ele>
        <time>2020-10-19T12:48:58.000Z</time>
      </trkpt>
      <trkpt lat="48.22238" lon="-3.15884">
        <ele>187.19999694824</ele>
        <time>2020-10-19T12:48:59.000Z</time>
      </trkpt>
      <trkpt lat="48.22237" lon="-3.15883">
        <ele>187</ele>
        <time>2020-10-19T12:49:00.000Z</time>
      </trkpt>
      <trkpt lat="48.22237" lon="-3.15883">
        <ele>187</ele>
        <time>2020-10-19T12:49:01.000Z</time>
      </trkpt>
      <trkpt lat="48.22236" lon="-3.15882">
        <ele>186.80000305176</ele>
        <time>2020-10-19T12:49:02.000Z</time>
      </trkpt>
      <trkpt lat="48.22234" lon="-3.15881">
        <ele>186.60000610352</ele>
        <time>2020-10-19T12:49:03.000Z</time>
      </trkpt>
      <trkpt lat="48.22233" lon="-3.1588">
        <ele>186.39999389648</ele>
        <time>2020-10-19T12:49:04.000Z</time>
      </trkpt>
      <trkpt lat="48.22232" lon="-3.15879">
        <ele>186.39999389648</ele>
        <time>2020-10-19T12:49:05.000Z</time>
      </trkpt>
      <trkpt lat="48.22231" lon="-3.15878">
        <ele>186.19999694824</ele>
        <time>2020-10-19T12:49:06.000Z</time>
      </trkpt>
      <trkpt lat="48.2223" lon="-3.15877">
        <ele>186</ele>
        <time>2020-10-19T12:49:07.000Z</time>
      </trkpt>
      <trkpt lat="48.22229" lon="-3.15876">
        <ele>185.80000305176</ele>
        <time>2020-10-19T12:49:08.000Z</time>
      </trkpt>
      <trkpt lat="48.22229" lon="-3.15875">
        <ele>185.60000610352</ele>
        <time>2020-10-19T12:49:09.000Z</time>
      </trkpt>
      <trkpt lat="48.22228" lon="-3.15874">
        <ele>185.60000610352</ele>
        <time>2020-10-19T12:49:10.000Z</time>
      </trkpt>
      <trkpt lat="48.22227" lon="-3.15874">
        <ele>185.39999389648</ele>
        <time>2020-10-19T12:49:11.000Z</time>
      </trkpt>
      <trkpt lat="48.22226" lon="-3.15873">
        <ele>185.19999694824</ele>
        <time>2020-10-19T12:49:12.000Z</time>
      </trkpt>
      <trkpt lat="48.22226" lon="-3.15872">
        <ele>185.19999694824</ele>
        <time>2020-10-19T12:49:13.000Z</time>
      </trkpt>
      <trkpt lat="48.22226" lon="-3.15872">
        <ele>185</ele>
        <time>2020-10-19T12:49:14.000Z</time>
      </trkpt>
      <trkpt lat="48.22225" lon="-3.15871">
        <ele>185</ele>
        <time>2020-10-19T12:49:15.000Z</time>
      </trkpt>
      <trkpt lat="48.22225" lon="-3.1587">
        <ele>184.80000305176</ele>
        <time>2020-10-19T12:49:16.000Z</time>
      </trkpt>
      <trkpt lat="48.22224" lon="-3.1587">
        <ele>184.80000305176</ele>
        <time>2020-10-19T12:49:17.000Z</time>
      </trkpt>
      <trkpt lat="48.22224" lon="-3.15869">
        <ele>184.60000610352</ele>
        <time>2020-10-19T12:49:18.000Z</time>
      </trkpt>
      <trkpt lat="48.22223" lon="-3.15868">
        <ele>184.60000610352</ele>
        <time>2020-10-19T12:49:19.000Z</time>
      </trkpt>
      <trkpt lat="48.22222" lon="-3.15867">
        <ele>184.39999389648</ele>
        <time>2020-10-19T12:49:20.000Z</time>
      </trkpt>
      <trkpt lat="48.22222" lon="-3.15866">
        <ele>184.19999694824</ele>
        <time>2020-10-19T12:49:21.000Z</time>
      </trkpt>
      <trkpt lat="48.22221" lon="-3.15865">
        <ele>184.19999694824</ele>
        <time>2020-10-19T12:49:22.000Z</time>
      </trkpt>
      <trkpt lat="48.22221" lon="-3.15865">
        <ele>184</ele>
        <time>2020-10-19T12:49:23.000Z</time>
      </trkpt>
      <trkpt lat="48.2222" lon="-3.15864">
        <ele>183.80000305176</ele>
        <time>2020-10-19T12:49:24.000Z</time>
      </trkpt>
      <trkpt lat="48.22219" lon="-3.15862">
        <ele>183.60000610352</ele>
        <time>2020-10-19T12:49:25.000Z</time>
      </trkpt>
      <trkpt lat="48.22218" lon="-3.15861">
        <ele>183.39999389648</ele>
        <time>2020-10-19T12:49:26.000Z</time>
      </trkpt>
      <trkpt lat="48.22217" lon="-3.1586">
        <ele>183.39999389648</ele>
        <time>2020-10-19T12:49:27.000Z</time>
      </trkpt>
      <trkpt lat="48.22217" lon="-3.15858">
        <ele>183.19999694824</ele>
        <time>2020-10-19T12:49:28.000Z</time>
      </trkpt>
      <trkpt lat="48.22216" lon="-3.15857">
        <ele>183</ele>
        <time>2020-10-19T12:49:29.000Z</time>
      </trkpt>
      <trkpt lat="48.22215" lon="-3.15856">
        <ele>182.80000305176</ele>
        <time>2020-10-19T12:49:30.000Z</time>
      </trkpt>
      <trkpt lat="48.22214" lon="-3.15855">
        <ele>182.60000610352</ele>
        <time>2020-10-19T12:49:31.000Z</time>
      </trkpt>
      <trkpt lat="48.22213" lon="-3.15854">
        <ele>182.39999389648</ele>
        <time>2020-10-19T12:49:32.000Z</time>
      </trkpt>
      <trkpt lat="48.22211" lon="-3.15853">
        <ele>182.19999694824</ele>
        <time>2020-10-19T12:49:33.000Z</time>
      </trkpt>
      <trkpt lat="48.2221" lon="-3.15852">
        <ele>182</ele>
        <time>2020-10-19T12:49:34.000Z</time>
      </trkpt>
      <trkpt lat="48.22209" lon="-3.15851">
        <ele>181.80000305176</ele>
        <time>2020-10-19T12:49:35.000Z</time>
      </trkpt>
      <trkpt lat="48.22208" lon="-3.1585">
        <ele>181.60000610352</ele>
        <time>2020-10-19T12:49:36.000Z</time>
      </trkpt>
      <trkpt lat="48.22208" lon="-3.1585">
        <ele>181.39999389648</ele>
        <time>2020-10-19T12:49:37.000Z</time>
      </trkpt>
      <trkpt lat="48.22207" lon="-3.15849">
        <ele>181.39999389648</ele>
        <time>2020-10-19T12:49:38.000Z</time>
      </trkpt>
      <trkpt lat="48.22207" lon="-3.15848">
        <ele>181.19999694824</ele>
        <time>2020-10-19T12:49:39.000Z</time>
      </trkpt>
      <trkpt lat="48.22206" lon="-3.15848">
        <ele>181.19999694824</ele>
        <time>2020-10-19T12:49:40.000Z</time>
      </trkpt>
      <trkpt lat="48.22206" lon="-3.15847">
        <ele>181</ele>
        <time>2020-10-19T12:49:41.000Z</time>
      </trkpt>
      <trkpt lat="48.22205" lon="-3.15846">
        <ele>180.80000305176</ele>
        <time>2020-10-19T12:49:42.000Z</time>
      </trkpt>
      <trkpt lat="48.22204" lon="-3.15845">
        <ele>180.80000305176</ele>
        <time>2020-10-19T12:49:43.000Z</time>
      </trkpt>
      <trkpt lat="48.22203" lon="-3.15844">
        <ele>180.60000610352</ele>
        <time>2020-10-19T12:49:44.000Z</time>
      </trkpt>
      <trkpt lat="48.22202" lon="-3.15843">
        <ele>180.39999389648</ele>
        <time>2020-10-19T12:49:45.000Z</time>
      </trkpt>
      <trkpt lat="48.22201" lon="-3.15842">
        <ele>180.19999694824</ele>
        <time>2020-10-19T12:49:46.000Z</time>
      </trkpt>
      <trkpt lat="48.222" lon="-3.15841">
        <ele>180</ele>
        <time>2020-10-19T12:49:47.000Z</time>
      </trkpt>
      <trkpt lat="48.222" lon="-3.1584">
        <ele>179.80000305176</ele>
        <time>2020-10-19T12:49:48.000Z</time>
      </trkpt>
      <trkpt lat="48.22199" lon="-3.15839">
        <ele>179.80000305176</ele>
        <time>2020-10-19T12:49:49.000Z</time>
      </trkpt>
      <trkpt lat="48.22198" lon="-3.15838">
        <ele>179.60000610352</ele>
        <time>2020-10-19T12:49:50.000Z</time>
      </trkpt>
      <trkpt lat="48.22197" lon="-3.15837">
        <ele>179.39999389648</ele>
        <time>2020-10-19T12:49:51.000Z</time>
      </trkpt>
      <trkpt lat="48.22197" lon="-3.15835">
        <ele>179.19999694824</ele>
        <time>2020-10-19T12:49:52.000Z</time>
      </trkpt>
      <trkpt lat="48.22196" lon="-3.15835">
        <ele>179.19999694824</ele>
        <time>2020-10-19T12:49:53.000Z</time>
      </trkpt>
      <trkpt lat="48.22195" lon="-3.15834">
        <ele>179</ele>
        <time>2020-10-19T12:49:54.000Z</time>
      </trkpt>
      <trkpt lat="48.22195" lon="-3.15833">
        <ele>178.80000305176</ele>
        <time>2020-10-19T12:49:55.000Z</time>
      </trkpt>
      <trkpt lat="48.22194" lon="-3.15831">
        <ele>178.80000305176</ele>
        <time>2020-10-19T12:49:56.000Z</time>
      </trkpt>
      <trkpt lat="48.22193" lon="-3.1583">
        <ele>178.60000610352</ele>
        <time>2020-10-19T12:49:57.000Z</time>
      </trkpt>
      <trkpt lat="48.22193" lon="-3.15828">
        <ele>178.39999389648</ele>
        <time>2020-10-19T12:49:58.000Z</time>
      </trkpt>
      <trkpt lat="48.22192" lon="-3.15827">
        <ele>178.19999694824</ele>
        <time>2020-10-19T12:49:59.000Z</time>
      </trkpt>
      <trkpt lat="48.2219" lon="-3.15824">
        <ele>177.80000305176</ele>
        <time>2020-10-19T12:50:00.000Z</time>
      </trkpt>
      <trkpt lat="48.2219" lon="-3.15824">
        <ele>177.80000305176</ele>
        <time>2020-10-19T12:50:01.000Z</time>
      </trkpt>
      <trkpt lat="48.22189" lon="-3.15823">
        <ele>177.80000305176</ele>
        <time>2020-10-19T12:50:02.000Z</time>
      </trkpt>
      <trkpt lat="48.22188" lon="-3.15822">
        <ele>177.60000610352</ele>
        <time>2020-10-19T12:50:03.000Z</time>
      </trkpt>
      <trkpt lat="48.22188" lon="-3.15821">
        <ele>177.39999389648</ele>
        <time>2020-10-19T12:50:04.000Z</time>
      </trkpt>
      <trkpt lat="48.22187" lon="-3.15819">
        <ele>177.19999694824</ele>
        <time>2020-10-19T12:50:05.000Z</time>
      </trkpt>
      <trkpt lat="48.22187" lon="-3.15818">
        <ele>177.19999694824</ele>
        <time>2020-10-19T12:50:06.000Z</time>
      </trkpt>
      <trkpt lat="48.22186" lon="-3.15816">
        <ele>177</ele>
        <time>2020-10-19T12:50:07.000Z</time>
      </trkpt>
      <trkpt lat="48.22186" lon="-3.15815">
        <ele>177</ele>
        <time>2020-10-19T12:50:08.000Z</time>
      </trkpt>
      <trkpt lat="48.22185" lon="-3.15813">
        <ele>176.80000305176</ele>
        <time>2020-10-19T12:50:09.000Z</time>
      </trkpt>
      <trkpt lat="48.22185" lon="-3.15812">
        <ele>176.80000305176</ele>
        <time>2020-10-19T12:50:10.000Z</time>
      </trkpt>
      <trkpt lat="48.22184" lon="-3.15811">
        <ele>176.60000610352</ele>
        <time>2020-10-19T12:50:11.000Z</time>
      </trkpt>
      <trkpt lat="48.22184" lon="-3.15809">
        <ele>176.39999389648</ele>
        <time>2020-10-19T12:50:12.000Z</time>
      </trkpt>
      <trkpt lat="48.22183" lon="-3.15808">
        <ele>176.39999389648</ele>
        <time>2020-10-19T12:50:13.000Z</time>
      </trkpt>
      <trkpt lat="48.22183" lon="-3.15807">
        <ele>176.19999694824</ele>
        <time>2020-10-19T12:50:14.000Z</time>
      </trkpt>
      <trkpt lat="48.22183" lon="-3.15805">
        <ele>176.19999694824</ele>
        <time>2020-10-19T12:50:15.000Z</time>
      </trkpt>
      <trkpt lat="48.22182" lon="-3.15804">
        <ele>176</ele>
        <time>2020-10-19T12:50:16.000Z</time>
      </trkpt>
      <trkpt lat="48.22181" lon="-3.15803">
        <ele>176</ele>
        <time>2020-10-19T12:50:17.000Z</time>
      </trkpt>
      <trkpt lat="48.22181" lon="-3.15801">
        <ele>175.80000305176</ele>
        <time>2020-10-19T12:50:18.000Z</time>
      </trkpt>
      <trkpt lat="48.2218" lon="-3.158">
        <ele>175.60000610352</ele>
        <time>2020-10-19T12:50:19.000Z</time>
      </trkpt>
      <trkpt lat="48.2218" lon="-3.15798">
        <ele>175.39999389648</ele>
        <time>2020-10-19T12:50:20.000Z</time>
      </trkpt>
      <trkpt lat="48.22179" lon="-3.15797">
        <ele>175.39999389648</ele>
        <time>2020-10-19T12:50:21.000Z</time>
      </trkpt>
      <trkpt lat="48.22178" lon="-3.15795">
        <ele>175.19999694824</ele>
        <time>2020-10-19T12:50:22.000Z</time>
      </trkpt>
      <trkpt lat="48.22178" lon="-3.15794">
        <ele>175</ele>
        <time>2020-10-19T12:50:23.000Z</time>
      </trkpt>
      <trkpt lat="48.22177" lon="-3.15793">
        <ele>174.80000305176</ele>
        <time>2020-10-19T12:50:24.000Z</time>
      </trkpt>
      <trkpt lat="48.22177" lon="-3.15791">
        <ele>174.60000610352</ele>
        <time>2020-10-19T12:50:25.000Z</time>
      </trkpt>
      <trkpt lat="48.22176" lon="-3.1579">
        <ele>174.39999389648</ele>
        <time>2020-10-19T12:50:26.000Z</time>
      </trkpt>
      <trkpt lat="48.22175" lon="-3.15789">
        <ele>174.19999694824</ele>
        <time>2020-10-19T12:50:27.000Z</time>
      </trkpt>
      <trkpt lat="48.22174" lon="-3.15787">
        <ele>174</ele>
        <time>2020-10-19T12:50:28.000Z</time>
      </trkpt>
      <trkpt lat="48.22173" lon="-3.15786">
        <ele>173.80000305176</ele>
        <time>2020-10-19T12:50:29.000Z</time>
      </trkpt>
      <trkpt lat="48.22173" lon="-3.15785">
        <ele>173.60000610352</ele>
        <time>2020-10-19T12:50:30.000Z</time>
      </trkpt>
      <trkpt lat="48.22172" lon="-3.15784">
        <ele>173.39999389648</ele>
        <time>2020-10-19T12:50:31.000Z</time>
      </trkpt>
      <trkpt lat="48.22171" lon="-3.15783">
        <ele>173.19999694824</ele>
        <time>2020-10-19T12:50:32.000Z</time>
      </trkpt>
      <trkpt lat="48.22171" lon="-3.15781">
        <ele>173</ele>
        <time>2020-10-19T12:50:33.000Z</time>
      </trkpt>
      <trkpt lat="48.2217" lon="-3.1578">
        <ele>172.80000305176</ele>
        <time>2020-10-19T12:50:34.000Z</time>
      </trkpt>
      <trkpt lat="48.2217" lon="-3.15779">
        <ele>172.60000610352</ele>
        <time>2020-10-19T12:50:35.000Z</time>
      </trkpt>
      <trkpt lat="48.22169" lon="-3.15778">
        <ele>172.60000610352</ele>
        <time>2020-10-19T12:50:36.000Z</time>
      </trkpt>
      <trkpt lat="48.22168" lon="-3.15778">
        <ele>172.39999389648</ele>
        <time>2020-10-19T12:50:37.000Z</time>
      </trkpt>
      <trkpt lat="48.22168" lon="-3.15777">
        <ele>172.19999694824</ele>
        <time>2020-10-19T12:50:38.000Z</time>
      </trkpt>
      <trkpt lat="48.22167" lon="-3.15776">
        <ele>172.19999694824</ele>
        <time>2020-10-19T12:50:39.000Z</time>
      </trkpt>
      <trkpt lat="48.22167" lon="-3.15775">
        <ele>172</ele>
        <time>2020-10-19T12:50:40.000Z</time>
      </trkpt>
      <trkpt lat="48.22167" lon="-3.15774">
        <ele>172</ele>
        <time>2020-10-19T12:50:41.000Z</time>
      </trkpt>
      <trkpt lat="48.22166" lon="-3.15773">
        <ele>171.80000305176</ele>
        <time>2020-10-19T12:50:42.000Z</time>
      </trkpt>
      <trkpt lat="48.22166" lon="-3.15772">
        <ele>171.80000305176</ele>
        <time>2020-10-19T12:50:43.000Z</time>
      </trkpt>
      <trkpt lat="48.22165" lon="-3.15771">
        <ele>171.60000610352</ele>
        <time>2020-10-19T12:50:44.000Z</time>
      </trkpt>
      <trkpt lat="48.22165" lon="-3.1577">
        <ele>171.60000610352</ele>
        <time>2020-10-19T12:50:45.000Z</time>
      </trkpt>
      <trkpt lat="48.22164" lon="-3.15769">
        <ele>171.39999389648</ele>
        <time>2020-10-19T12:50:46.000Z</time>
      </trkpt>
      <trkpt lat="48.22164" lon="-3.15767">
        <ele>171.19999694824</ele>
        <time>2020-10-19T12:50:47.000Z</time>
      </trkpt>
      <trkpt lat="48.22163" lon="-3.15766">
        <ele>171.19999694824</ele>
        <time>2020-10-19T12:50:48.000Z</time>
      </trkpt>
      <trkpt lat="48.22162" lon="-3.15765">
        <ele>171</ele>
        <time>2020-10-19T12:50:49.000Z</time>
      </trkpt>
      <trkpt lat="48.22161" lon="-3.15763">
        <ele>170.80000305176</ele>
        <time>2020-10-19T12:50:50.000Z</time>
      </trkpt>
      <trkpt lat="48.2216" lon="-3.15762">
        <ele>170.80000305176</ele>
        <time>2020-10-19T12:50:51.000Z</time>
      </trkpt>
      <trkpt lat="48.2216" lon="-3.15761">
        <ele>170.60000610352</ele>
        <time>2020-10-19T12:50:52.000Z</time>
      </trkpt>
      <trkpt lat="48.22159" lon="-3.1576">
        <ele>170.39999389648</ele>
        <time>2020-10-19T12:50:53.000Z</time>
      </trkpt>
      <trkpt lat="48.22158" lon="-3.15757">
        <ele>170.19999694824</ele>
        <time>2020-10-19T12:50:54.000Z</time>
      </trkpt>
      <trkpt lat="48.22158" lon="-3.15757">
        <ele>170.19999694824</ele>
        <time>2020-10-19T12:50:55.000Z</time>
      </trkpt>
      <trkpt lat="48.22157" lon="-3.15756">
        <ele>170</ele>
        <time>2020-10-19T12:50:56.000Z</time>
      </trkpt>
      <trkpt lat="48.22157" lon="-3.15753">
        <ele>170</ele>
        <time>2020-10-19T12:50:57.000Z</time>
      </trkpt>
      <trkpt lat="48.22156" lon="-3.15751">
        <ele>169.80000305176</ele>
        <time>2020-10-19T12:50:58.000Z</time>
      </trkpt>
      <trkpt lat="48.22155" lon="-3.15749">
        <ele>169.60000610352</ele>
        <time>2020-10-19T12:50:59.000Z</time>
      </trkpt>
      <trkpt lat="48.22155" lon="-3.15748">
        <ele>169.39999389648</ele>
        <time>2020-10-19T12:51:00.000Z</time>
      </trkpt>
      <trkpt lat="48.22154" lon="-3.15747">
        <ele>169.39999389648</ele>
        <time>2020-10-19T12:51:01.000Z</time>
      </trkpt>
      <trkpt lat="48.22154" lon="-3.15746">
        <ele>169.39999389648</ele>
        <time>2020-10-19T12:51:02.000Z</time>
      </trkpt>
      <trkpt lat="48.22154" lon="-3.15745">
        <ele>169.19999694824</ele>
        <time>2020-10-19T12:51:03.000Z</time>
      </trkpt>
      <trkpt lat="48.22153" lon="-3.15744">
        <ele>169.19999694824</ele>
        <time>2020-10-19T12:51:04.000Z</time>
      </trkpt>
      <trkpt lat="48.22153" lon="-3.15743">
        <ele>169.19999694824</ele>
        <time>2020-10-19T12:51:05.000Z</time>
      </trkpt>
      <trkpt lat="48.22153" lon="-3.15743">
        <ele>169.19999694824</ele>
        <time>2020-10-19T12:51:06.000Z</time>
      </trkpt>
      <trkpt lat="48.22153" lon="-3.15742">
        <ele>169</ele>
        <time>2020-10-19T12:51:07.000Z</time>
      </trkpt>
      <trkpt lat="48.22153" lon="-3.15742">
        <ele>169</ele>
        <time>2020-10-19T12:51:08.000Z</time>
      </trkpt>
      <trkpt lat="48.22152" lon="-3.15742">
        <ele>169</ele>
        <time>2020-10-19T12:51:09.000Z</time>
      </trkpt>
      <trkpt lat="48.22152" lon="-3.15742">
        <ele>169</ele>
        <time>2020-10-19T12:51:10.000Z</time>
      </trkpt>
      <trkpt lat="48.22152" lon="-3.15741">
        <ele>169</ele>
        <time>2020-10-19T12:51:11.000Z</time>
      </trkpt>
      <trkpt lat="48.22152" lon="-3.15741">
        <ele>169</ele>
        <time>2020-10-19T12:51:12.000Z</time>
      </trkpt>
      <trkpt lat="48.22151" lon="-3.15741">
        <ele>168.80000305176</ele>
        <time>2020-10-19T12:51:13.000Z</time>
      </trkpt>
      <trkpt lat="48.22152" lon="-3.1574">
        <ele>168.80000305176</ele>
        <time>2020-10-19T12:51:14.000Z</time>
      </trkpt>
      <trkpt lat="48.22151" lon="-3.1574">
        <ele>168.80000305176</ele>
        <time>2020-10-19T12:51:15.000Z</time>
      </trkpt>
      <trkpt lat="48.22152" lon="-3.15739">
        <ele>168.80000305176</ele>
        <time>2020-10-19T12:51:16.000Z</time>
      </trkpt>
      <trkpt lat="48.22152" lon="-3.15739">
        <ele>168.80000305176</ele>
        <time>2020-10-19T12:51:17.000Z</time>
      </trkpt>
      <trkpt lat="48.22151" lon="-3.15738">
        <ele>168.80000305176</ele>
        <time>2020-10-19T12:51:18.000Z</time>
      </trkpt>
      <trkpt lat="48.22151" lon="-3.15737">
        <ele>168.80000305176</ele>
        <time>2020-10-19T12:51:19.000Z</time>
      </trkpt>
      <trkpt lat="48.22151" lon="-3.15737">
        <ele>168.80000305176</ele>
        <time>2020-10-19T12:51:20.000Z</time>
      </trkpt>
      <trkpt lat="48.22151" lon="-3.15736">
        <ele>168.80000305176</ele>
        <time>2020-10-19T12:51:21.000Z</time>
      </trkpt>
      <trkpt lat="48.22151" lon="-3.15736">
        <ele>168.80000305176</ele>
        <time>2020-10-19T12:51:22.000Z</time>
      </trkpt>
      <trkpt lat="48.22151" lon="-3.15736">
        <ele>168.80000305176</ele>
        <time>2020-10-19T12:51:23.000Z</time>
      </trkpt>
      <trkpt lat="48.22151" lon="-3.15735">
        <ele>168.60000610352</ele>
        <time>2020-10-19T12:51:24.000Z</time>
      </trkpt>
      <trkpt lat="48.22151" lon="-3.15735">
        <ele>168.60000610352</ele>
        <time>2020-10-19T12:51:25.000Z</time>
      </trkpt>
      <trkpt lat="48.22151" lon="-3.15733">
        <ele>168.60000610352</ele>
        <time>2020-10-19T12:51:26.000Z</time>
      </trkpt>
      <trkpt lat="48.2215" lon="-3.15732">
        <ele>168.39999389648</ele>
        <time>2020-10-19T12:51:27.000Z</time>
      </trkpt>
      <trkpt lat="48.2215" lon="-3.15731">
        <ele>168.39999389648</ele>
        <time>2020-10-19T12:51:28.000Z</time>
      </trkpt>
      <trkpt lat="48.22149" lon="-3.15731">
        <ele>168.39999389648</ele>
        <time>2020-10-19T12:51:29.000Z</time>
      </trkpt>
      <trkpt lat="48.22149" lon="-3.1573">
        <ele>168.19999694824</ele>
        <time>2020-10-19T12:51:30.000Z</time>
      </trkpt>
      <trkpt lat="48.22149" lon="-3.15728">
        <ele>168.19999694824</ele>
        <time>2020-10-19T12:51:31.000Z</time>
      </trkpt>
      <trkpt lat="48.22148" lon="-3.15727">
        <ele>168</ele>
        <time>2020-10-19T12:51:32.000Z</time>
      </trkpt>
      <trkpt lat="48.22147" lon="-3.15726">
        <ele>167.80000305176</ele>
        <time>2020-10-19T12:51:33.000Z</time>
      </trkpt>
      <trkpt lat="48.22147" lon="-3.15724">
        <ele>167.80000305176</ele>
        <time>2020-10-19T12:51:34.000Z</time>
      </trkpt>
      <trkpt lat="48.22146" lon="-3.15722">
        <ele>167.60000610352</ele>
        <time>2020-10-19T12:51:35.000Z</time>
      </trkpt>
      <trkpt lat="48.22145" lon="-3.15721">
        <ele>167.39999389648</ele>
        <time>2020-10-19T12:51:36.000Z</time>
      </trkpt>
      <trkpt lat="48.22145" lon="-3.1572">
        <ele>167.39999389648</ele>
        <time>2020-10-19T12:51:37.000Z</time>
      </trkpt>
      <trkpt lat="48.22144" lon="-3.15719">
        <ele>167.19999694824</ele>
        <time>2020-10-19T12:51:38.000Z</time>
      </trkpt>
      <trkpt lat="48.22143" lon="-3.15718">
        <ele>167</ele>
        <time>2020-10-19T12:51:39.000Z</time>
      </trkpt>
      <trkpt lat="48.22142" lon="-3.15718">
        <ele>167</ele>
        <time>2020-10-19T12:51:40.000Z</time>
      </trkpt>
      <trkpt lat="48.22141" lon="-3.15718">
        <ele>166.80000305176</ele>
        <time>2020-10-19T12:51:41.000Z</time>
      </trkpt>
      <trkpt lat="48.2214" lon="-3.15718">
        <ele>166.60000610352</ele>
        <time>2020-10-19T12:51:42.000Z</time>
      </trkpt>
      <trkpt lat="48.22139" lon="-3.15718">
        <ele>166.39999389648</ele>
        <time>2020-10-19T12:51:43.000Z</time>
      </trkpt>
      <trkpt lat="48.22139" lon="-3.15718">
        <ele>166.19999694824</ele>
        <time>2020-10-19T12:51:44.000Z</time>
      </trkpt>
      <trkpt lat="48.22138" lon="-3.15717">
        <ele>166.19999694824</ele>
        <time>2020-10-19T12:51:45.000Z</time>
      </trkpt>
      <trkpt lat="48.22137" lon="-3.15716">
        <ele>166.19999694824</ele>
        <time>2020-10-19T12:51:46.000Z</time>
      </trkpt>
      <trkpt lat="48.22137" lon="-3.15715">
        <ele>166.19999694824</ele>
        <time>2020-10-19T12:51:47.000Z</time>
      </trkpt>
      <trkpt lat="48.22137" lon="-3.15713">
        <ele>166.19999694824</ele>
        <time>2020-10-19T12:51:48.000Z</time>
      </trkpt>
      <trkpt lat="48.22136" lon="-3.15712">
        <ele>166.19999694824</ele>
        <time>2020-10-19T12:51:49.000Z</time>
      </trkpt>
      <trkpt lat="48.22135" lon="-3.15711">
        <ele>166.19999694824</ele>
        <time>2020-10-19T12:51:50.000Z</time>
      </trkpt>
      <trkpt lat="48.22135" lon="-3.1571">
        <ele>166.19999694824</ele>
        <time>2020-10-19T12:51:51.000Z</time>
      </trkpt>
      <trkpt lat="48.22134" lon="-3.15709">
        <ele>166.19999694824</ele>
        <time>2020-10-19T12:51:52.000Z</time>
      </trkpt>
      <trkpt lat="48.22134" lon="-3.15708">
        <ele>166.19999694824</ele>
        <time>2020-10-19T12:51:53.000Z</time>
      </trkpt>
      <trkpt lat="48.22134" lon="-3.15707">
        <ele>166.19999694824</ele>
        <time>2020-10-19T12:51:54.000Z</time>
      </trkpt>
      <trkpt lat="48.22133" lon="-3.15707">
        <ele>166.19999694824</ele>
        <time>2020-10-19T12:51:55.000Z</time>
      </trkpt>
      <trkpt lat="48.22133" lon="-3.15706">
        <ele>166.19999694824</ele>
        <time>2020-10-19T12:51:56.000Z</time>
      </trkpt>
      <trkpt lat="48.22132" lon="-3.15704">
        <ele>166.19999694824</ele>
        <time>2020-10-19T12:51:57.000Z</time>
      </trkpt>
      <trkpt lat="48.22132" lon="-3.15703">
        <ele>166.19999694824</ele>
        <time>2020-10-19T12:51:58.000Z</time>
      </trkpt>
      <trkpt lat="48.22131" lon="-3.15703">
        <ele>166.19999694824</ele>
        <time>2020-10-19T12:51:59.000Z</time>
      </trkpt>
      <trkpt lat="48.22131" lon="-3.15699">
        <ele>166.19999694824</ele>
        <time>2020-10-19T12:52:00.000Z</time>
      </trkpt>
      <trkpt lat="48.22131" lon="-3.15699">
        <ele>166.19999694824</ele>
        <time>2020-10-19T12:52:01.000Z</time>
      </trkpt>
      <trkpt lat="48.2213" lon="-3.15698">
        <ele>166.19999694824</ele>
        <time>2020-10-19T12:52:02.000Z</time>
      </trkpt>
      <trkpt lat="48.2213" lon="-3.15696">
        <ele>166.19999694824</ele>
        <time>2020-10-19T12:52:03.000Z</time>
      </trkpt>
      <trkpt lat="48.2213" lon="-3.15695">
        <ele>166.19999694824</ele>
        <time>2020-10-19T12:52:04.000Z</time>
      </trkpt>
      <trkpt lat="48.22129" lon="-3.15693">
        <ele>166.39999389648</ele>
        <time>2020-10-19T12:52:05.000Z</time>
      </trkpt>
      <trkpt lat="48.22129" lon="-3.15692">
        <ele>166.39999389648</ele>
        <time>2020-10-19T12:52:06.000Z</time>
      </trkpt>
      <trkpt lat="48.22129" lon="-3.15691">
        <ele>166.39999389648</ele>
        <time>2020-10-19T12:52:07.000Z</time>
      </trkpt>
      <trkpt lat="48.2213" lon="-3.15689">
        <ele>166.60000610352</ele>
        <time>2020-10-19T12:52:08.000Z</time>
      </trkpt>
      <trkpt lat="48.2213" lon="-3.15688">
        <ele>166.60000610352</ele>
        <time>2020-10-19T12:52:09.000Z</time>
      </trkpt>
      <trkpt lat="48.2213" lon="-3.15687">
        <ele>166.60000610352</ele>
        <time>2020-10-19T12:52:10.000Z</time>
      </trkpt>
      <trkpt lat="48.2213" lon="-3.15686">
        <ele>166.60000610352</ele>
        <time>2020-10-19T12:52:11.000Z</time>
      </trkpt>
      <trkpt lat="48.22129" lon="-3.15685">
        <ele>166.80000305176</ele>
        <time>2020-10-19T12:52:12.000Z</time>
      </trkpt>
      <trkpt lat="48.22129" lon="-3.15684">
        <ele>166.80000305176</ele>
        <time>2020-10-19T12:52:13.000Z</time>
      </trkpt>
      <trkpt lat="48.22129" lon="-3.15683">
        <ele>166.80000305176</ele>
        <time>2020-10-19T12:52:14.000Z</time>
      </trkpt>
      <trkpt lat="48.22129" lon="-3.15682">
        <ele>166.80000305176</ele>
        <time>2020-10-19T12:52:15.000Z</time>
      </trkpt>
      <trkpt lat="48.22129" lon="-3.15681">
        <ele>166.80000305176</ele>
        <time>2020-10-19T12:52:16.000Z</time>
      </trkpt>
      <trkpt lat="48.22129" lon="-3.15681">
        <ele>166.80000305176</ele>
        <time>2020-10-19T12:52:17.000Z</time>
      </trkpt>
      <trkpt lat="48.22128" lon="-3.15679">
        <ele>166.80000305176</ele>
        <time>2020-10-19T12:52:18.000Z</time>
      </trkpt>
      <trkpt lat="48.22127" lon="-3.15679">
        <ele>166.80000305176</ele>
        <time>2020-10-19T12:52:19.000Z</time>
      </trkpt>
      <trkpt lat="48.22126" lon="-3.15678">
        <ele>166.60000610352</ele>
        <time>2020-10-19T12:52:20.000Z</time>
      </trkpt>
      <trkpt lat="48.22125" lon="-3.15675">
        <ele>166.39999389648</ele>
        <time>2020-10-19T12:52:21.000Z</time>
      </trkpt>
      <trkpt lat="48.22125" lon="-3.15675">
        <ele>166.39999389648</ele>
        <time>2020-10-19T12:52:22.000Z</time>
      </trkpt>
      <trkpt lat="48.22125" lon="-3.15673">
        <ele>166.39999389648</ele>
        <time>2020-10-19T12:52:23.000Z</time>
      </trkpt>
      <trkpt lat="48.22124" lon="-3.15672">
        <ele>166.19999694824</ele>
        <time>2020-10-19T12:52:24.000Z</time>
      </trkpt>
      <trkpt lat="48.22123" lon="-3.15669">
        <ele>165.80000305176</ele>
        <time>2020-10-19T12:52:25.000Z</time>
      </trkpt>
      <trkpt lat="48.22122" lon="-3.15667">
        <ele>165.80000305176</ele>
        <time>2020-10-19T12:52:26.000Z</time>
      </trkpt>
      <trkpt lat="48.22122" lon="-3.15664">
        <ele>165.60000610352</ele>
        <time>2020-10-19T12:52:27.000Z</time>
      </trkpt>
      <trkpt lat="48.22121" lon="-3.15663">
        <ele>165.39999389648</ele>
        <time>2020-10-19T12:52:28.000Z</time>
      </trkpt>
      <trkpt lat="48.22121" lon="-3.15661">
        <ele>165.19999694824</ele>
        <time>2020-10-19T12:52:29.000Z</time>
      </trkpt>
      <trkpt lat="48.2212" lon="-3.1566">
        <ele>165.19999694824</ele>
        <time>2020-10-19T12:52:30.000Z</time>
      </trkpt>
      <trkpt lat="48.2212" lon="-3.15659">
        <ele>165</ele>
        <time>2020-10-19T12:52:31.000Z</time>
      </trkpt>
      <trkpt lat="48.22119" lon="-3.15657">
        <ele>165</ele>
        <time>2020-10-19T12:52:32.000Z</time>
      </trkpt>
      <trkpt lat="48.22119" lon="-3.15656">
        <ele>164.80000305176</ele>
        <time>2020-10-19T12:52:33.000Z</time>
      </trkpt>
      <trkpt lat="48.22118" lon="-3.15654">
        <ele>164.60000610352</ele>
        <time>2020-10-19T12:52:34.000Z</time>
      </trkpt>
      <trkpt lat="48.22118" lon="-3.15653">
        <ele>164.80000305176</ele>
        <time>2020-10-19T12:52:35.000Z</time>
      </trkpt>
      <trkpt lat="48.22118" lon="-3.15652">
        <ele>164.80000305176</ele>
        <time>2020-10-19T12:52:36.000Z</time>
      </trkpt>
      <trkpt lat="48.22118" lon="-3.15651">
        <ele>164.80000305176</ele>
        <time>2020-10-19T12:52:37.000Z</time>
      </trkpt>
      <trkpt lat="48.22118" lon="-3.1565">
        <ele>164.80000305176</ele>
        <time>2020-10-19T12:52:38.000Z</time>
      </trkpt>
      <trkpt lat="48.22118" lon="-3.15648">
        <ele>165</ele>
        <time>2020-10-19T12:52:39.000Z</time>
      </trkpt>
      <trkpt lat="48.22118" lon="-3.15646">
        <ele>165</ele>
        <time>2020-10-19T12:52:40.000Z</time>
      </trkpt>
      <trkpt lat="48.22118" lon="-3.15645">
        <ele>165</ele>
        <time>2020-10-19T12:52:41.000Z</time>
      </trkpt>
      <trkpt lat="48.22118" lon="-3.15644">
        <ele>165.19999694824</ele>
        <time>2020-10-19T12:52:42.000Z</time>
      </trkpt>
      <trkpt lat="48.22118" lon="-3.15642">
        <ele>165.19999694824</ele>
        <time>2020-10-19T12:52:43.000Z</time>
      </trkpt>
      <trkpt lat="48.22118" lon="-3.15641">
        <ele>165.19999694824</ele>
        <time>2020-10-19T12:52:44.000Z</time>
      </trkpt>
      <trkpt lat="48.22118" lon="-3.15639">
        <ele>165.39999389648</ele>
        <time>2020-10-19T12:52:45.000Z</time>
      </trkpt>
      <trkpt lat="48.22117" lon="-3.15636">
        <ele>165.60000610352</ele>
        <time>2020-10-19T12:52:46.000Z</time>
      </trkpt>
      <trkpt lat="48.22116" lon="-3.15633">
        <ele>165.60000610352</ele>
        <time>2020-10-19T12:52:47.000Z</time>
      </trkpt>
      <trkpt lat="48.22116" lon="-3.15631">
        <ele>165.80000305176</ele>
        <time>2020-10-19T12:52:48.000Z</time>
      </trkpt>
      <trkpt lat="48.22116" lon="-3.1563">
        <ele>165.80000305176</ele>
        <time>2020-10-19T12:52:49.000Z</time>
      </trkpt>
      <trkpt lat="48.22116" lon="-3.15628">
        <ele>165.80000305176</ele>
        <time>2020-10-19T12:52:50.000Z</time>
      </trkpt>
      <trkpt lat="48.22116" lon="-3.15627">
        <ele>166</ele>
        <time>2020-10-19T12:52:51.000Z</time>
      </trkpt>
      <trkpt lat="48.22116" lon="-3.15626">
        <ele>166</ele>
        <time>2020-10-19T12:52:52.000Z</time>
      </trkpt>
      <trkpt lat="48.22116" lon="-3.15624">
        <ele>166</ele>
        <time>2020-10-19T12:52:53.000Z</time>
      </trkpt>
      <trkpt lat="48.22117" lon="-3.15622">
        <ele>166.19999694824</ele>
        <time>2020-10-19T12:52:54.000Z</time>
      </trkpt>
      <trkpt lat="48.22117" lon="-3.15621">
        <ele>166.19999694824</ele>
        <time>2020-10-19T12:52:55.000Z</time>
      </trkpt>
      <trkpt lat="48.22117" lon="-3.15619">
        <ele>166.39999389648</ele>
        <time>2020-10-19T12:52:56.000Z</time>
      </trkpt>
      <trkpt lat="48.22118" lon="-3.15618">
        <ele>166.39999389648</ele>
        <time>2020-10-19T12:52:57.000Z</time>
      </trkpt>
      <trkpt lat="48.22118" lon="-3.15617">
        <ele>166.39999389648</ele>
        <time>2020-10-19T12:52:58.000Z</time>
      </trkpt>
      <trkpt lat="48.22118" lon="-3.15616">
        <ele>166.39999389648</ele>
        <time>2020-10-19T12:52:59.000Z</time>
      </trkpt>
      <trkpt lat="48.22118" lon="-3.15615">
        <ele>166.60000610352</ele>
        <time>2020-10-19T12:53:00.000Z</time>
      </trkpt>
      <trkpt lat="48.22118" lon="-3.15614">
        <ele>166.60000610352</ele>
        <time>2020-10-19T12:53:01.000Z</time>
      </trkpt>
      <trkpt lat="48.22119" lon="-3.15613">
        <ele>166.60000610352</ele>
        <time>2020-10-19T12:53:02.000Z</time>
      </trkpt>
      <trkpt lat="48.22119" lon="-3.15611">
        <ele>166.80000305176</ele>
        <time>2020-10-19T12:53:03.000Z</time>
      </trkpt>
      <trkpt lat="48.22118" lon="-3.1561">
        <ele>166.80000305176</ele>
        <time>2020-10-19T12:53:04.000Z</time>
      </trkpt>
      <trkpt lat="48.22118" lon="-3.15608">
        <ele>166.80000305176</ele>
        <time>2020-10-19T12:53:05.000Z</time>
      </trkpt>
      <trkpt lat="48.22119" lon="-3.15606">
        <ele>167</ele>
        <time>2020-10-19T12:53:06.000Z</time>
      </trkpt>
      <trkpt lat="48.22119" lon="-3.15605">
        <ele>167</ele>
        <time>2020-10-19T12:53:07.000Z</time>
      </trkpt>
      <trkpt lat="48.22119" lon="-3.15604">
        <ele>167.19999694824</ele>
        <time>2020-10-19T12:53:08.000Z</time>
      </trkpt>
      <trkpt lat="48.2212" lon="-3.15602">
        <ele>167.19999694824</ele>
        <time>2020-10-19T12:53:09.000Z</time>
      </trkpt>
      <trkpt lat="48.2212" lon="-3.15601">
        <ele>167.19999694824</ele>
        <time>2020-10-19T12:53:10.000Z</time>
      </trkpt>
      <trkpt lat="48.22121" lon="-3.15599">
        <ele>167.39999389648</ele>
        <time>2020-10-19T12:53:11.000Z</time>
      </trkpt>
      <trkpt lat="48.22121" lon="-3.15597">
        <ele>167.39999389648</ele>
        <time>2020-10-19T12:53:12.000Z</time>
      </trkpt>
      <trkpt lat="48.22122" lon="-3.15596">
        <ele>167.60000610352</ele>
        <time>2020-10-19T12:53:13.000Z</time>
      </trkpt>
      <trkpt lat="48.22122" lon="-3.15595">
        <ele>167.60000610352</ele>
        <time>2020-10-19T12:53:14.000Z</time>
      </trkpt>
      <trkpt lat="48.22123" lon="-3.15593">
        <ele>167.60000610352</ele>
        <time>2020-10-19T12:53:15.000Z</time>
      </trkpt>
      <trkpt lat="48.22124" lon="-3.15591">
        <ele>167.80000305176</ele>
        <time>2020-10-19T12:53:16.000Z</time>
      </trkpt>
      <trkpt lat="48.22124" lon="-3.15588">
        <ele>167.80000305176</ele>
        <time>2020-10-19T12:53:17.000Z</time>
      </trkpt>
      <trkpt lat="48.22124" lon="-3.15586">
        <ele>167.80000305176</ele>
        <time>2020-10-19T12:53:18.000Z</time>
      </trkpt>
      <trkpt lat="48.22125" lon="-3.15584">
        <ele>167.80000305176</ele>
        <time>2020-10-19T12:53:19.000Z</time>
      </trkpt>
      <trkpt lat="48.22125" lon="-3.15583">
        <ele>167.80000305176</ele>
        <time>2020-10-19T12:53:20.000Z</time>
      </trkpt>
      <trkpt lat="48.22126" lon="-3.1558">
        <ele>168</ele>
        <time>2020-10-19T12:53:21.000Z</time>
      </trkpt>
      <trkpt lat="48.22127" lon="-3.15579">
        <ele>168</ele>
        <time>2020-10-19T12:53:22.000Z</time>
      </trkpt>
      <trkpt lat="48.22126" lon="-3.15576">
        <ele>168</ele>
        <time>2020-10-19T12:53:23.000Z</time>
      </trkpt>
      <trkpt lat="48.22128" lon="-3.15575">
        <ele>168</ele>
        <time>2020-10-19T12:53:24.000Z</time>
      </trkpt>
      <trkpt lat="48.22128" lon="-3.15573">
        <ele>168</ele>
        <time>2020-10-19T12:53:25.000Z</time>
      </trkpt>
      <trkpt lat="48.22129" lon="-3.15571">
        <ele>168</ele>
        <time>2020-10-19T12:53:26.000Z</time>
      </trkpt>
      <trkpt lat="48.2213" lon="-3.1557">
        <ele>168.19999694824</ele>
        <time>2020-10-19T12:53:27.000Z</time>
      </trkpt>
      <trkpt lat="48.22129" lon="-3.15569">
        <ele>168.19999694824</ele>
        <time>2020-10-19T12:53:28.000Z</time>
      </trkpt>
      <trkpt lat="48.22129" lon="-3.1557">
        <ele>168.19999694824</ele>
        <time>2020-10-19T12:53:29.000Z</time>
      </trkpt>
      <trkpt lat="48.22128" lon="-3.15568">
        <ele>168.19999694824</ele>
        <time>2020-10-19T12:53:30.000Z</time>
      </trkpt>
      <trkpt lat="48.22128" lon="-3.15567">
        <ele>168.19999694824</ele>
        <time>2020-10-19T12:53:31.000Z</time>
      </trkpt>
      <trkpt lat="48.22127" lon="-3.15564">
        <ele>168.19999694824</ele>
        <time>2020-10-19T12:53:32.000Z</time>
      </trkpt>
      <trkpt lat="48.22126" lon="-3.15562">
        <ele>168.19999694824</ele>
        <time>2020-10-19T12:53:33.000Z</time>
      </trkpt>
      <trkpt lat="48.22124" lon="-3.15561">
        <ele>168.19999694824</ele>
        <time>2020-10-19T12:53:34.000Z</time>
      </trkpt>
      <trkpt lat="48.22123" lon="-3.1556">
        <ele>168.39999389648</ele>
        <time>2020-10-19T12:53:35.000Z</time>
      </trkpt>
      <trkpt lat="48.22123" lon="-3.15559">
        <ele>168.39999389648</ele>
        <time>2020-10-19T12:53:36.000Z</time>
      </trkpt>
      <trkpt lat="48.22122" lon="-3.15559">
        <ele>168.39999389648</ele>
        <time>2020-10-19T12:53:37.000Z</time>
      </trkpt>
      <trkpt lat="48.22121" lon="-3.15558">
        <ele>168.60000610352</ele>
        <time>2020-10-19T12:53:38.000Z</time>
      </trkpt>
      <trkpt lat="48.22121" lon="-3.15559">
        <ele>168.60000610352</ele>
        <time>2020-10-19T12:53:39.000Z</time>
      </trkpt>
      <trkpt lat="48.22121" lon="-3.15559">
        <ele>168.60000610352</ele>
        <time>2020-10-19T12:53:40.000Z</time>
      </trkpt>
      <trkpt lat="48.22121" lon="-3.15558">
        <ele>168.60000610352</ele>
        <time>2020-10-19T12:53:41.000Z</time>
      </trkpt>
      <trkpt lat="48.2212" lon="-3.15558">
        <ele>168.60000610352</ele>
        <time>2020-10-19T12:53:42.000Z</time>
      </trkpt>
      <trkpt lat="48.2212" lon="-3.15559">
        <ele>168.60000610352</ele>
        <time>2020-10-19T12:53:43.000Z</time>
      </trkpt>
      <trkpt lat="48.22121" lon="-3.15559">
        <ele>168.60000610352</ele>
        <time>2020-10-19T12:53:44.000Z</time>
      </trkpt>
      <trkpt lat="48.22121" lon="-3.15559">
        <ele>168.60000610352</ele>
        <time>2020-10-19T12:53:45.000Z</time>
      </trkpt>
      <trkpt lat="48.22121" lon="-3.1556">
        <ele>168.39999389648</ele>
        <time>2020-10-19T12:53:46.000Z</time>
      </trkpt>
      <trkpt lat="48.2212" lon="-3.1556">
        <ele>168.39999389648</ele>
        <time>2020-10-19T12:53:47.000Z</time>
      </trkpt>
      <trkpt lat="48.2212" lon="-3.15561">
        <ele>168.39999389648</ele>
        <time>2020-10-19T12:53:48.000Z</time>
      </trkpt>
      <trkpt lat="48.22119" lon="-3.15561">
        <ele>168.39999389648</ele>
        <time>2020-10-19T12:53:49.000Z</time>
      </trkpt>
      <trkpt lat="48.22119" lon="-3.15561">
        <ele>168.39999389648</ele>
        <time>2020-10-19T12:53:50.000Z</time>
      </trkpt>
      <trkpt lat="48.22119" lon="-3.15561">
        <ele>168.39999389648</ele>
        <time>2020-10-19T12:53:51.000Z</time>
      </trkpt>
      <trkpt lat="48.22118" lon="-3.15561">
        <ele>168.39999389648</ele>
        <time>2020-10-19T12:53:52.000Z</time>
      </trkpt>
      <trkpt lat="48.22117" lon="-3.15561">
        <ele>168.39999389648</ele>
        <time>2020-10-19T12:53:53.000Z</time>
      </trkpt>
      <trkpt lat="48.22117" lon="-3.15561">
        <ele>168.39999389648</ele>
        <time>2020-10-19T12:53:54.000Z</time>
      </trkpt>
      <trkpt lat="48.22116" lon="-3.15561">
        <ele>168.39999389648</ele>
        <time>2020-10-19T12:53:55.000Z</time>
      </trkpt>
      <trkpt lat="48.22116" lon="-3.1556">
        <ele>168.60000610352</ele>
        <time>2020-10-19T12:53:56.000Z</time>
      </trkpt>
      <trkpt lat="48.22115" lon="-3.1556">
        <ele>168.60000610352</ele>
        <time>2020-10-19T12:53:57.000Z</time>
      </trkpt>
      <trkpt lat="48.22114" lon="-3.15559">
        <ele>168.60000610352</ele>
        <time>2020-10-19T12:53:58.000Z</time>
      </trkpt>
      <trkpt lat="48.22114" lon="-3.15559">
        <ele>168.60000610352</ele>
        <time>2020-10-19T12:53:59.000Z</time>
      </trkpt>
      <trkpt lat="48.22114" lon="-3.15559">
        <ele>168.60000610352</ele>
        <time>2020-10-19T12:54:00.000Z</time>
      </trkpt>
      <trkpt lat="48.22113" lon="-3.15558">
        <ele>168.80000305176</ele>
        <time>2020-10-19T12:54:01.000Z</time>
      </trkpt>
      <trkpt lat="48.22113" lon="-3.15558">
        <ele>168.80000305176</ele>
        <time>2020-10-19T12:54:02.000Z</time>
      </trkpt>
      <trkpt lat="48.22112" lon="-3.15557">
        <ele>168.80000305176</ele>
        <time>2020-10-19T12:54:03.000Z</time>
      </trkpt>
      <trkpt lat="48.22112" lon="-3.15557">
        <ele>168.80000305176</ele>
        <time>2020-10-19T12:54:04.000Z</time>
      </trkpt>
      <trkpt lat="48.22111" lon="-3.15556">
        <ele>168.80000305176</ele>
        <time>2020-10-19T12:54:05.000Z</time>
      </trkpt>
      <trkpt lat="48.22111" lon="-3.15556">
        <ele>169</ele>
        <time>2020-10-19T12:54:06.000Z</time>
      </trkpt>
      <trkpt lat="48.2211" lon="-3.15556">
        <ele>169</ele>
        <time>2020-10-19T12:54:07.000Z</time>
      </trkpt>
      <trkpt lat="48.22109" lon="-3.15557">
        <ele>169</ele>
        <time>2020-10-19T12:54:08.000Z</time>
      </trkpt>
      <trkpt lat="48.22108" lon="-3.15557">
        <ele>169</ele>
        <time>2020-10-19T12:54:09.000Z</time>
      </trkpt>
      <trkpt lat="48.22107" lon="-3.15557">
        <ele>169</ele>
        <time>2020-10-19T12:54:10.000Z</time>
      </trkpt>
      <trkpt lat="48.22107" lon="-3.15556">
        <ele>169</ele>
        <time>2020-10-19T12:54:11.000Z</time>
      </trkpt>
      <trkpt lat="48.22106" lon="-3.15556">
        <ele>169</ele>
        <time>2020-10-19T12:54:12.000Z</time>
      </trkpt>
      <trkpt lat="48.22105" lon="-3.15555">
        <ele>169.19999694824</ele>
        <time>2020-10-19T12:54:13.000Z</time>
      </trkpt>
      <trkpt lat="48.22104" lon="-3.15555">
        <ele>169.19999694824</ele>
        <time>2020-10-19T12:54:14.000Z</time>
      </trkpt>
      <trkpt lat="48.22103" lon="-3.15555">
        <ele>169.19999694824</ele>
        <time>2020-10-19T12:54:15.000Z</time>
      </trkpt>
      <trkpt lat="48.22103" lon="-3.15555">
        <ele>169.19999694824</ele>
        <time>2020-10-19T12:54:16.000Z</time>
      </trkpt>
      <trkpt lat="48.22102" lon="-3.15554">
        <ele>169.19999694824</ele>
        <time>2020-10-19T12:54:17.000Z</time>
      </trkpt>
      <trkpt lat="48.22101" lon="-3.15554">
        <ele>169.19999694824</ele>
        <time>2020-10-19T12:54:18.000Z</time>
      </trkpt>
      <trkpt lat="48.221" lon="-3.15555">
        <ele>169.19999694824</ele>
        <time>2020-10-19T12:54:19.000Z</time>
      </trkpt>
      <trkpt lat="48.22099" lon="-3.15556">
        <ele>169.19999694824</ele>
        <time>2020-10-19T12:54:20.000Z</time>
      </trkpt>
      <trkpt lat="48.22098" lon="-3.15557">
        <ele>169.19999694824</ele>
        <time>2020-10-19T12:54:21.000Z</time>
      </trkpt>
      <trkpt lat="48.22097" lon="-3.15557">
        <ele>169.19999694824</ele>
        <time>2020-10-19T12:54:22.000Z</time>
      </trkpt>
      <trkpt lat="48.22096" lon="-3.15559">
        <ele>169.19999694824</ele>
        <time>2020-10-19T12:54:23.000Z</time>
      </trkpt>
      <trkpt lat="48.22096" lon="-3.15559">
        <ele>169.19999694824</ele>
        <time>2020-10-19T12:54:24.000Z</time>
      </trkpt>
      <trkpt lat="48.22095" lon="-3.15559">
        <ele>169.19999694824</ele>
        <time>2020-10-19T12:54:25.000Z</time>
      </trkpt>
      <trkpt lat="48.22095" lon="-3.15559">
        <ele>169.19999694824</ele>
        <time>2020-10-19T12:54:26.000Z</time>
      </trkpt>
      <trkpt lat="48.22094" lon="-3.15559">
        <ele>169.39999389648</ele>
        <time>2020-10-19T12:54:27.000Z</time>
      </trkpt>
      <trkpt lat="48.22093" lon="-3.15559">
        <ele>169.39999389648</ele>
        <time>2020-10-19T12:54:28.000Z</time>
      </trkpt>
      <trkpt lat="48.22093" lon="-3.15559">
        <ele>169.60000610352</ele>
        <time>2020-10-19T12:54:29.000Z</time>
      </trkpt>
      <trkpt lat="48.22092" lon="-3.15558">
        <ele>169.60000610352</ele>
        <time>2020-10-19T12:54:30.000Z</time>
      </trkpt>
      <trkpt lat="48.22091" lon="-3.15558">
        <ele>169.80000305176</ele>
        <time>2020-10-19T12:54:31.000Z</time>
      </trkpt>
      <trkpt lat="48.2209" lon="-3.15559">
        <ele>169.80000305176</ele>
        <time>2020-10-19T12:54:32.000Z</time>
      </trkpt>
      <trkpt lat="48.2209" lon="-3.15559">
        <ele>170</ele>
        <time>2020-10-19T12:54:33.000Z</time>
      </trkpt>
      <trkpt lat="48.22089" lon="-3.15559">
        <ele>170</ele>
        <time>2020-10-19T12:54:34.000Z</time>
      </trkpt>
      <trkpt lat="48.22088" lon="-3.15559">
        <ele>170.19999694824</ele>
        <time>2020-10-19T12:54:35.000Z</time>
      </trkpt>
      <trkpt lat="48.22087" lon="-3.1556">
        <ele>170.19999694824</ele>
        <time>2020-10-19T12:54:36.000Z</time>
      </trkpt>
      <trkpt lat="48.22086" lon="-3.1556">
        <ele>170.39999389648</ele>
        <time>2020-10-19T12:54:37.000Z</time>
      </trkpt>
      <trkpt lat="48.22086" lon="-3.1556">
        <ele>170.39999389648</ele>
        <time>2020-10-19T12:54:38.000Z</time>
      </trkpt>
      <trkpt lat="48.22084" lon="-3.1556">
        <ele>170.60000610352</ele>
        <time>2020-10-19T12:54:39.000Z</time>
      </trkpt>
      <trkpt lat="48.22083" lon="-3.15561">
        <ele>170.80000305176</ele>
        <time>2020-10-19T12:54:40.000Z</time>
      </trkpt>
      <trkpt lat="48.22082" lon="-3.15561">
        <ele>170.80000305176</ele>
        <time>2020-10-19T12:54:41.000Z</time>
      </trkpt>
      <trkpt lat="48.22082" lon="-3.15561">
        <ele>171</ele>
        <time>2020-10-19T12:54:42.000Z</time>
      </trkpt>
      <trkpt lat="48.22081" lon="-3.15562">
        <ele>171</ele>
        <time>2020-10-19T12:54:43.000Z</time>
      </trkpt>
      <trkpt lat="48.2208" lon="-3.15562">
        <ele>171.19999694824</ele>
        <time>2020-10-19T12:54:44.000Z</time>
      </trkpt>
      <trkpt lat="48.22079" lon="-3.15563">
        <ele>171.19999694824</ele>
        <time>2020-10-19T12:54:45.000Z</time>
      </trkpt>
      <trkpt lat="48.22078" lon="-3.15564">
        <ele>171.39999389648</ele>
        <time>2020-10-19T12:54:46.000Z</time>
      </trkpt>
      <trkpt lat="48.22078" lon="-3.15564">
        <ele>171.39999389648</ele>
        <time>2020-10-19T12:54:47.000Z</time>
      </trkpt>
      <trkpt lat="48.22077" lon="-3.15565">
        <ele>171.39999389648</ele>
        <time>2020-10-19T12:54:48.000Z</time>
      </trkpt>
      <trkpt lat="48.22076" lon="-3.15566">
        <ele>171.39999389648</ele>
        <time>2020-10-19T12:54:49.000Z</time>
      </trkpt>
      <trkpt lat="48.22076" lon="-3.15567">
        <ele>171.39999389648</ele>
        <time>2020-10-19T12:54:50.000Z</time>
      </trkpt>
      <trkpt lat="48.22075" lon="-3.15567">
        <ele>171.39999389648</ele>
        <time>2020-10-19T12:54:51.000Z</time>
      </trkpt>
      <trkpt lat="48.22074" lon="-3.15568">
        <ele>171.60000610352</ele>
        <time>2020-10-19T12:54:52.000Z</time>
      </trkpt>
      <trkpt lat="48.22073" lon="-3.15569">
        <ele>171.80000305176</ele>
        <time>2020-10-19T12:54:53.000Z</time>
      </trkpt>
      <trkpt lat="48.22073" lon="-3.1557">
        <ele>171.80000305176</ele>
        <time>2020-10-19T12:54:54.000Z</time>
      </trkpt>
      <trkpt lat="48.22072" lon="-3.15572">
        <ele>171.80000305176</ele>
        <time>2020-10-19T12:54:55.000Z</time>
      </trkpt>
      <trkpt lat="48.22071" lon="-3.15573">
        <ele>171.80000305176</ele>
        <time>2020-10-19T12:54:56.000Z</time>
      </trkpt>
      <trkpt lat="48.2207" lon="-3.15574">
        <ele>171.80000305176</ele>
        <time>2020-10-19T12:54:57.000Z</time>
      </trkpt>
      <trkpt lat="48.2207" lon="-3.15576">
        <ele>171.80000305176</ele>
        <time>2020-10-19T12:54:58.000Z</time>
      </trkpt>
      <trkpt lat="48.22069" lon="-3.15577">
        <ele>171.80000305176</ele>
        <time>2020-10-19T12:54:59.000Z</time>
      </trkpt>
      <trkpt lat="48.22068" lon="-3.15578">
        <ele>171.80000305176</ele>
        <time>2020-10-19T12:55:00.000Z</time>
      </trkpt>
      <trkpt lat="48.22068" lon="-3.1558">
        <ele>171.80000305176</ele>
        <time>2020-10-19T12:55:01.000Z</time>
      </trkpt>
      <trkpt lat="48.22067" lon="-3.15582">
        <ele>171.80000305176</ele>
        <time>2020-10-19T12:55:02.000Z</time>
      </trkpt>
      <trkpt lat="48.22067" lon="-3.15583">
        <ele>171.80000305176</ele>
        <time>2020-10-19T12:55:03.000Z</time>
      </trkpt>
      <trkpt lat="48.22066" lon="-3.15584">
        <ele>171.80000305176</ele>
        <time>2020-10-19T12:55:04.000Z</time>
      </trkpt>
      <trkpt lat="48.22066" lon="-3.15586">
        <ele>171.80000305176</ele>
        <time>2020-10-19T12:55:05.000Z</time>
      </trkpt>
      <trkpt lat="48.22065" lon="-3.15588">
        <ele>171.80000305176</ele>
        <time>2020-10-19T12:55:06.000Z</time>
      </trkpt>
      <trkpt lat="48.22065" lon="-3.15589">
        <ele>171.80000305176</ele>
        <time>2020-10-19T12:55:07.000Z</time>
      </trkpt>
      <trkpt lat="48.22064" lon="-3.1559">
        <ele>171.80000305176</ele>
        <time>2020-10-19T12:55:08.000Z</time>
      </trkpt>
      <trkpt lat="48.22064" lon="-3.15591">
        <ele>171.60000610352</ele>
        <time>2020-10-19T12:55:09.000Z</time>
      </trkpt>
      <trkpt lat="48.22064" lon="-3.15592">
        <ele>171.60000610352</ele>
        <time>2020-10-19T12:55:10.000Z</time>
      </trkpt>
      <trkpt lat="48.22064" lon="-3.15593">
        <ele>171.39999389648</ele>
        <time>2020-10-19T12:55:11.000Z</time>
      </trkpt>
      <trkpt lat="48.22064" lon="-3.15595">
        <ele>171.39999389648</ele>
        <time>2020-10-19T12:55:12.000Z</time>
      </trkpt>
      <trkpt lat="48.22063" lon="-3.15597">
        <ele>171.39999389648</ele>
        <time>2020-10-19T12:55:13.000Z</time>
      </trkpt>
      <trkpt lat="48.22063" lon="-3.15598">
        <ele>171.39999389648</ele>
        <time>2020-10-19T12:55:14.000Z</time>
      </trkpt>
      <trkpt lat="48.22062" lon="-3.15599">
        <ele>171.39999389648</ele>
        <time>2020-10-19T12:55:15.000Z</time>
      </trkpt>
      <trkpt lat="48.22059" lon="-3.15602">
        <ele>171.60000610352</ele>
        <time>2020-10-19T12:55:16.000Z</time>
      </trkpt>
      <trkpt lat="48.22058" lon="-3.15603">
        <ele>171.60000610352</ele>
        <time>2020-10-19T12:55:17.000Z</time>
      </trkpt>
      <trkpt lat="48.22057" lon="-3.15605">
        <ele>171.60000610352</ele>
        <time>2020-10-19T12:55:18.000Z</time>
      </trkpt>
      <trkpt lat="48.22056" lon="-3.15607">
        <ele>171.60000610352</ele>
        <time>2020-10-19T12:55:19.000Z</time>
      </trkpt>
      <trkpt lat="48.22056" lon="-3.15608">
        <ele>171.60000610352</ele>
        <time>2020-10-19T12:55:20.000Z</time>
      </trkpt>
      <trkpt lat="48.22055" lon="-3.1561">
        <ele>171.39999389648</ele>
        <time>2020-10-19T12:55:21.000Z</time>
      </trkpt>
      <trkpt lat="48.22055" lon="-3.15611">
        <ele>171.39999389648</ele>
        <time>2020-10-19T12:55:22.000Z</time>
      </trkpt>
      <trkpt lat="48.22055" lon="-3.15613">
        <ele>171.19999694824</ele>
        <time>2020-10-19T12:55:23.000Z</time>
      </trkpt>
      <trkpt lat="48.22055" lon="-3.15614">
        <ele>171.19999694824</ele>
        <time>2020-10-19T12:55:24.000Z</time>
      </trkpt>
      <trkpt lat="48.22054" lon="-3.15616">
        <ele>171.19999694824</ele>
        <time>2020-10-19T12:55:25.000Z</time>
      </trkpt>
      <trkpt lat="48.22054" lon="-3.15617">
        <ele>171</ele>
        <time>2020-10-19T12:55:26.000Z</time>
      </trkpt>
      <trkpt lat="48.22053" lon="-3.15619">
        <ele>171</ele>
        <time>2020-10-19T12:55:27.000Z</time>
      </trkpt>
      <trkpt lat="48.22053" lon="-3.1562">
        <ele>170.80000305176</ele>
        <time>2020-10-19T12:55:28.000Z</time>
      </trkpt>
      <trkpt lat="48.22053" lon="-3.15622">
        <ele>170.80000305176</ele>
        <time>2020-10-19T12:55:29.000Z</time>
      </trkpt>
      <trkpt lat="48.22053" lon="-3.15623">
        <ele>170.60000610352</ele>
        <time>2020-10-19T12:55:30.000Z</time>
      </trkpt>
      <trkpt lat="48.22053" lon="-3.15624">
        <ele>170.60000610352</ele>
        <time>2020-10-19T12:55:31.000Z</time>
      </trkpt>
      <trkpt lat="48.22053" lon="-3.15626">
        <ele>170.60000610352</ele>
        <time>2020-10-19T12:55:32.000Z</time>
      </trkpt>
      <trkpt lat="48.22052" lon="-3.15627">
        <ele>170.39999389648</ele>
        <time>2020-10-19T12:55:33.000Z</time>
      </trkpt>
      <trkpt lat="48.22052" lon="-3.15628">
        <ele>170.39999389648</ele>
        <time>2020-10-19T12:55:34.000Z</time>
      </trkpt>
      <trkpt lat="48.22052" lon="-3.1563">
        <ele>170.19999694824</ele>
        <time>2020-10-19T12:55:35.000Z</time>
      </trkpt>
      <trkpt lat="48.22052" lon="-3.15631">
        <ele>170.19999694824</ele>
        <time>2020-10-19T12:55:36.000Z</time>
      </trkpt>
      <trkpt lat="48.22051" lon="-3.15633">
        <ele>170.19999694824</ele>
        <time>2020-10-19T12:55:37.000Z</time>
      </trkpt>
      <trkpt lat="48.22051" lon="-3.15635">
        <ele>170</ele>
        <time>2020-10-19T12:55:38.000Z</time>
      </trkpt>
      <trkpt lat="48.2205" lon="-3.15637">
        <ele>170</ele>
        <time>2020-10-19T12:55:39.000Z</time>
      </trkpt>
      <trkpt lat="48.2205" lon="-3.15638">
        <ele>169.80000305176</ele>
        <time>2020-10-19T12:55:40.000Z</time>
      </trkpt>
      <trkpt lat="48.2205" lon="-3.1564">
        <ele>169.60000610352</ele>
        <time>2020-10-19T12:55:41.000Z</time>
      </trkpt>
      <trkpt lat="48.2205" lon="-3.15642">
        <ele>169.60000610352</ele>
        <time>2020-10-19T12:55:42.000Z</time>
      </trkpt>
      <trkpt lat="48.2205" lon="-3.15644">
        <ele>169.60000610352</ele>
        <time>2020-10-19T12:55:43.000Z</time>
      </trkpt>
      <trkpt lat="48.22049" lon="-3.15646">
        <ele>169.60000610352</ele>
        <time>2020-10-19T12:55:44.000Z</time>
      </trkpt>
      <trkpt lat="48.22048" lon="-3.15648">
        <ele>169.60000610352</ele>
        <time>2020-10-19T12:55:45.000Z</time>
      </trkpt>
      <trkpt lat="48.22048" lon="-3.15649">
        <ele>169.39999389648</ele>
        <time>2020-10-19T12:55:46.000Z</time>
      </trkpt>
      <trkpt lat="48.22048" lon="-3.15651">
        <ele>169.39999389648</ele>
        <time>2020-10-19T12:55:47.000Z</time>
      </trkpt>
      <trkpt lat="48.22048" lon="-3.15653">
        <ele>169.19999694824</ele>
        <time>2020-10-19T12:55:48.000Z</time>
      </trkpt>
      <trkpt lat="48.22048" lon="-3.15655">
        <ele>169.19999694824</ele>
        <time>2020-10-19T12:55:49.000Z</time>
      </trkpt>
      <trkpt lat="48.22048" lon="-3.15657">
        <ele>169.19999694824</ele>
        <time>2020-10-19T12:55:50.000Z</time>
      </trkpt>
      <trkpt lat="48.22048" lon="-3.15659">
        <ele>169</ele>
        <time>2020-10-19T12:55:51.000Z</time>
      </trkpt>
      <trkpt lat="48.22048" lon="-3.1566">
        <ele>169</ele>
        <time>2020-10-19T12:55:52.000Z</time>
      </trkpt>
      <trkpt lat="48.22048" lon="-3.15662">
        <ele>169</ele>
        <time>2020-10-19T12:55:53.000Z</time>
      </trkpt>
      <trkpt lat="48.22048" lon="-3.15663">
        <ele>168.80000305176</ele>
        <time>2020-10-19T12:55:54.000Z</time>
      </trkpt>
      <trkpt lat="48.22048" lon="-3.15665">
        <ele>168.80000305176</ele>
        <time>2020-10-19T12:55:55.000Z</time>
      </trkpt>
      <trkpt lat="48.22047" lon="-3.15666">
        <ele>168.80000305176</ele>
        <time>2020-10-19T12:55:56.000Z</time>
      </trkpt>
      <trkpt lat="48.22047" lon="-3.15667">
        <ele>168.60000610352</ele>
        <time>2020-10-19T12:55:57.000Z</time>
      </trkpt>
      <trkpt lat="48.22047" lon="-3.15669">
        <ele>168.60000610352</ele>
        <time>2020-10-19T12:55:58.000Z</time>
      </trkpt>
      <trkpt lat="48.22047" lon="-3.1567">
        <ele>168.60000610352</ele>
        <time>2020-10-19T12:55:59.000Z</time>
      </trkpt>
      <trkpt lat="48.22047" lon="-3.15671">
        <ele>168.60000610352</ele>
        <time>2020-10-19T12:56:00.000Z</time>
      </trkpt>
      <trkpt lat="48.22047" lon="-3.15672">
        <ele>168.60000610352</ele>
        <time>2020-10-19T12:56:01.000Z</time>
      </trkpt>
      <trkpt lat="48.22046" lon="-3.15674">
        <ele>168.39999389648</ele>
        <time>2020-10-19T12:56:02.000Z</time>
      </trkpt>
      <trkpt lat="48.22046" lon="-3.15676">
        <ele>168.39999389648</ele>
        <time>2020-10-19T12:56:03.000Z</time>
      </trkpt>
      <trkpt lat="48.22045" lon="-3.15677">
        <ele>168.39999389648</ele>
        <time>2020-10-19T12:56:04.000Z</time>
      </trkpt>
      <trkpt lat="48.22045" lon="-3.15679">
        <ele>168.19999694824</ele>
        <time>2020-10-19T12:56:05.000Z</time>
      </trkpt>
      <trkpt lat="48.22045" lon="-3.1568">
        <ele>168.19999694824</ele>
        <time>2020-10-19T12:56:06.000Z</time>
      </trkpt>
      <trkpt lat="48.22045" lon="-3.15682">
        <ele>168</ele>
        <time>2020-10-19T12:56:07.000Z</time>
      </trkpt>
      <trkpt lat="48.22044" lon="-3.15684">
        <ele>167.80000305176</ele>
        <time>2020-10-19T12:56:08.000Z</time>
      </trkpt>
      <trkpt lat="48.22044" lon="-3.15686">
        <ele>167.60000610352</ele>
        <time>2020-10-19T12:56:09.000Z</time>
      </trkpt>
      <trkpt lat="48.22043" lon="-3.15688">
        <ele>167.39999389648</ele>
        <time>2020-10-19T12:56:10.000Z</time>
      </trkpt>
      <trkpt lat="48.22043" lon="-3.1569">
        <ele>167.39999389648</ele>
        <time>2020-10-19T12:56:11.000Z</time>
      </trkpt>
      <trkpt lat="48.22042" lon="-3.15692">
        <ele>167.19999694824</ele>
        <time>2020-10-19T12:56:12.000Z</time>
      </trkpt>
      <trkpt lat="48.22041" lon="-3.15694">
        <ele>167</ele>
        <time>2020-10-19T12:56:13.000Z</time>
      </trkpt>
      <trkpt lat="48.22041" lon="-3.15696">
        <ele>166.80000305176</ele>
        <time>2020-10-19T12:56:14.000Z</time>
      </trkpt>
      <trkpt lat="48.22041" lon="-3.15697">
        <ele>166.80000305176</ele>
        <time>2020-10-19T12:56:15.000Z</time>
      </trkpt>
      <trkpt lat="48.2204" lon="-3.15699">
        <ele>166.60000610352</ele>
        <time>2020-10-19T12:56:16.000Z</time>
      </trkpt>
      <trkpt lat="48.22039" lon="-3.15701">
        <ele>166.60000610352</ele>
        <time>2020-10-19T12:56:17.000Z</time>
      </trkpt>
      <trkpt lat="48.22038" lon="-3.15702">
        <ele>166.39999389648</ele>
        <time>2020-10-19T12:56:18.000Z</time>
      </trkpt>
      <trkpt lat="48.22037" lon="-3.15705">
        <ele>166.39999389648</ele>
        <time>2020-10-19T12:56:19.000Z</time>
      </trkpt>
      <trkpt lat="48.22036" lon="-3.15707">
        <ele>166.19999694824</ele>
        <time>2020-10-19T12:56:20.000Z</time>
      </trkpt>
      <trkpt lat="48.22035" lon="-3.15709">
        <ele>166.19999694824</ele>
        <time>2020-10-19T12:56:21.000Z</time>
      </trkpt>
      <trkpt lat="48.22035" lon="-3.1571">
        <ele>166</ele>
        <time>2020-10-19T12:56:22.000Z</time>
      </trkpt>
      <trkpt lat="48.22034" lon="-3.15712">
        <ele>165.80000305176</ele>
        <time>2020-10-19T12:56:23.000Z</time>
      </trkpt>
      <trkpt lat="48.22034" lon="-3.15713">
        <ele>165.80000305176</ele>
        <time>2020-10-19T12:56:24.000Z</time>
      </trkpt>
      <trkpt lat="48.22033" lon="-3.15714">
        <ele>165.80000305176</ele>
        <time>2020-10-19T12:56:25.000Z</time>
      </trkpt>
      <trkpt lat="48.22033" lon="-3.15716">
        <ele>165.60000610352</ele>
        <time>2020-10-19T12:56:26.000Z</time>
      </trkpt>
      <trkpt lat="48.22032" lon="-3.15717">
        <ele>165.60000610352</ele>
        <time>2020-10-19T12:56:27.000Z</time>
      </trkpt>
      <trkpt lat="48.22032" lon="-3.15718">
        <ele>165.60000610352</ele>
        <time>2020-10-19T12:56:28.000Z</time>
      </trkpt>
      <trkpt lat="48.22031" lon="-3.15719">
        <ele>165.39999389648</ele>
        <time>2020-10-19T12:56:29.000Z</time>
      </trkpt>
      <trkpt lat="48.22031" lon="-3.15721">
        <ele>165.39999389648</ele>
        <time>2020-10-19T12:56:30.000Z</time>
      </trkpt>
      <trkpt lat="48.2203" lon="-3.15722">
        <ele>165.19999694824</ele>
        <time>2020-10-19T12:56:31.000Z</time>
      </trkpt>
      <trkpt lat="48.2203" lon="-3.15723">
        <ele>165.19999694824</ele>
        <time>2020-10-19T12:56:32.000Z</time>
      </trkpt>
      <trkpt lat="48.22029" lon="-3.15724">
        <ele>165.19999694824</ele>
        <time>2020-10-19T12:56:33.000Z</time>
      </trkpt>
      <trkpt lat="48.22029" lon="-3.15725">
        <ele>165</ele>
        <time>2020-10-19T12:56:34.000Z</time>
      </trkpt>
      <trkpt lat="48.22029" lon="-3.15727">
        <ele>164.80000305176</ele>
        <time>2020-10-19T12:56:35.000Z</time>
      </trkpt>
      <trkpt lat="48.22028" lon="-3.1573">
        <ele>164.60000610352</ele>
        <time>2020-10-19T12:56:36.000Z</time>
      </trkpt>
      <trkpt lat="48.22028" lon="-3.15731">
        <ele>164.39999389648</ele>
        <time>2020-10-19T12:56:37.000Z</time>
      </trkpt>
      <trkpt lat="48.22028" lon="-3.15733">
        <ele>164.39999389648</ele>
        <time>2020-10-19T12:56:38.000Z</time>
      </trkpt>
      <trkpt lat="48.22027" lon="-3.15734">
        <ele>164.19999694824</ele>
        <time>2020-10-19T12:56:39.000Z</time>
      </trkpt>
      <trkpt lat="48.22027" lon="-3.15735">
        <ele>164.19999694824</ele>
        <time>2020-10-19T12:56:40.000Z</time>
      </trkpt>
      <trkpt lat="48.22027" lon="-3.15736">
        <ele>164.19999694824</ele>
        <time>2020-10-19T12:56:41.000Z</time>
      </trkpt>
      <trkpt lat="48.22026" lon="-3.15737">
        <ele>164</ele>
        <time>2020-10-19T12:56:42.000Z</time>
      </trkpt>
      <trkpt lat="48.22026" lon="-3.15738">
        <ele>164</ele>
        <time>2020-10-19T12:56:43.000Z</time>
      </trkpt>
      <trkpt lat="48.22026" lon="-3.15739">
        <ele>163.80000305176</ele>
        <time>2020-10-19T12:56:44.000Z</time>
      </trkpt>
      <trkpt lat="48.22025" lon="-3.1574">
        <ele>163.80000305176</ele>
        <time>2020-10-19T12:56:45.000Z</time>
      </trkpt>
      <trkpt lat="48.22025" lon="-3.15741">
        <ele>163.80000305176</ele>
        <time>2020-10-19T12:56:46.000Z</time>
      </trkpt>
      <trkpt lat="48.22025" lon="-3.15742">
        <ele>163.60000610352</ele>
        <time>2020-10-19T12:56:47.000Z</time>
      </trkpt>
      <trkpt lat="48.22025" lon="-3.15743">
        <ele>163.60000610352</ele>
        <time>2020-10-19T12:56:48.000Z</time>
      </trkpt>
      <trkpt lat="48.22025" lon="-3.15744">
        <ele>163.39999389648</ele>
        <time>2020-10-19T12:56:49.000Z</time>
      </trkpt>
      <trkpt lat="48.22024" lon="-3.15745">
        <ele>163.39999389648</ele>
        <time>2020-10-19T12:56:50.000Z</time>
      </trkpt>
      <trkpt lat="48.22024" lon="-3.15747">
        <ele>163.19999694824</ele>
        <time>2020-10-19T12:56:51.000Z</time>
      </trkpt>
      <trkpt lat="48.22024" lon="-3.15748">
        <ele>163.19999694824</ele>
        <time>2020-10-19T12:56:52.000Z</time>
      </trkpt>
      <trkpt lat="48.22023" lon="-3.1575">
        <ele>163</ele>
        <time>2020-10-19T12:56:53.000Z</time>
      </trkpt>
      <trkpt lat="48.22022" lon="-3.15752">
        <ele>163</ele>
        <time>2020-10-19T12:56:54.000Z</time>
      </trkpt>
      <trkpt lat="48.22022" lon="-3.15754">
        <ele>162.80000305176</ele>
        <time>2020-10-19T12:56:55.000Z</time>
      </trkpt>
      <trkpt lat="48.22021" lon="-3.15755">
        <ele>162.80000305176</ele>
        <time>2020-10-19T12:56:56.000Z</time>
      </trkpt>
      <trkpt lat="48.22021" lon="-3.15756">
        <ele>162.80000305176</ele>
        <time>2020-10-19T12:56:57.000Z</time>
      </trkpt>
      <trkpt lat="48.2202" lon="-3.15757">
        <ele>162.80000305176</ele>
        <time>2020-10-19T12:56:58.000Z</time>
      </trkpt>
      <trkpt lat="48.2202" lon="-3.15759">
        <ele>162.80000305176</ele>
        <time>2020-10-19T12:56:59.000Z</time>
      </trkpt>
      <trkpt lat="48.2202" lon="-3.1576">
        <ele>162.60000610352</ele>
        <time>2020-10-19T12:57:00.000Z</time>
      </trkpt>
      <trkpt lat="48.22019" lon="-3.15762">
        <ele>162.60000610352</ele>
        <time>2020-10-19T12:57:01.000Z</time>
      </trkpt>
      <trkpt lat="48.22019" lon="-3.15763">
        <ele>162.39999389648</ele>
        <time>2020-10-19T12:57:02.000Z</time>
      </trkpt>
      <trkpt lat="48.22018" lon="-3.15764">
        <ele>162.39999389648</ele>
        <time>2020-10-19T12:57:03.000Z</time>
      </trkpt>
      <trkpt lat="48.22018" lon="-3.15765">
        <ele>162.19999694824</ele>
        <time>2020-10-19T12:57:04.000Z</time>
      </trkpt>
      <trkpt lat="48.22017" lon="-3.15767">
        <ele>162.19999694824</ele>
        <time>2020-10-19T12:57:05.000Z</time>
      </trkpt>
      <trkpt lat="48.22017" lon="-3.15768">
        <ele>162</ele>
        <time>2020-10-19T12:57:06.000Z</time>
      </trkpt>
      <trkpt lat="48.22017" lon="-3.15769">
        <ele>162</ele>
        <time>2020-10-19T12:57:07.000Z</time>
      </trkpt>
      <trkpt lat="48.22016" lon="-3.1577">
        <ele>161.80000305176</ele>
        <time>2020-10-19T12:57:08.000Z</time>
      </trkpt>
      <trkpt lat="48.22016" lon="-3.15772">
        <ele>161.60000610352</ele>
        <time>2020-10-19T12:57:09.000Z</time>
      </trkpt>
      <trkpt lat="48.22015" lon="-3.15774">
        <ele>161.39999389648</ele>
        <time>2020-10-19T12:57:10.000Z</time>
      </trkpt>
      <trkpt lat="48.22015" lon="-3.15775">
        <ele>161.39999389648</ele>
        <time>2020-10-19T12:57:11.000Z</time>
      </trkpt>
      <trkpt lat="48.22015" lon="-3.15776">
        <ele>161.19999694824</ele>
        <time>2020-10-19T12:57:12.000Z</time>
      </trkpt>
      <trkpt lat="48.22015" lon="-3.15778">
        <ele>161</ele>
        <time>2020-10-19T12:57:13.000Z</time>
      </trkpt>
      <trkpt lat="48.22014" lon="-3.1578">
        <ele>160.80000305176</ele>
        <time>2020-10-19T12:57:14.000Z</time>
      </trkpt>
      <trkpt lat="48.22014" lon="-3.15781">
        <ele>160.60000610352</ele>
        <time>2020-10-19T12:57:15.000Z</time>
      </trkpt>
      <trkpt lat="48.22014" lon="-3.15783">
        <ele>160.60000610352</ele>
        <time>2020-10-19T12:57:16.000Z</time>
      </trkpt>
      <trkpt lat="48.22014" lon="-3.15785">
        <ele>160.39999389648</ele>
        <time>2020-10-19T12:57:17.000Z</time>
      </trkpt>
      <trkpt lat="48.22014" lon="-3.15787">
        <ele>160.19999694824</ele>
        <time>2020-10-19T12:57:18.000Z</time>
      </trkpt>
      <trkpt lat="48.22014" lon="-3.15788">
        <ele>160</ele>
        <time>2020-10-19T12:57:19.000Z</time>
      </trkpt>
      <trkpt lat="48.22015" lon="-3.1579">
        <ele>159.80000305176</ele>
        <time>2020-10-19T12:57:20.000Z</time>
      </trkpt>
      <trkpt lat="48.22015" lon="-3.1579">
        <ele>159.60000610352</ele>
        <time>2020-10-19T12:57:21.000Z</time>
      </trkpt>
      <trkpt lat="48.22014" lon="-3.15792">
        <ele>159.60000610352</ele>
        <time>2020-10-19T12:57:22.000Z</time>
      </trkpt>
      <trkpt lat="48.22014" lon="-3.15794">
        <ele>159.39999389648</ele>
        <time>2020-10-19T12:57:23.000Z</time>
      </trkpt>
      <trkpt lat="48.22013" lon="-3.15796">
        <ele>159.19999694824</ele>
        <time>2020-10-19T12:57:24.000Z</time>
      </trkpt>
      <trkpt lat="48.22013" lon="-3.15797">
        <ele>159</ele>
        <time>2020-10-19T12:57:25.000Z</time>
      </trkpt>
      <trkpt lat="48.22013" lon="-3.15799">
        <ele>159</ele>
        <time>2020-10-19T12:57:26.000Z</time>
      </trkpt>
      <trkpt lat="48.22012" lon="-3.158">
        <ele>158.80000305176</ele>
        <time>2020-10-19T12:57:27.000Z</time>
      </trkpt>
      <trkpt lat="48.22012" lon="-3.15801">
        <ele>158.60000610352</ele>
        <time>2020-10-19T12:57:28.000Z</time>
      </trkpt>
      <trkpt lat="48.22012" lon="-3.15803">
        <ele>158.39999389648</ele>
        <time>2020-10-19T12:57:29.000Z</time>
      </trkpt>
      <trkpt lat="48.22011" lon="-3.15804">
        <ele>158.39999389648</ele>
        <time>2020-10-19T12:57:30.000Z</time>
      </trkpt>
      <trkpt lat="48.2201" lon="-3.15806">
        <ele>158.19999694824</ele>
        <time>2020-10-19T12:57:31.000Z</time>
      </trkpt>
      <trkpt lat="48.2201" lon="-3.15807">
        <ele>158</ele>
        <time>2020-10-19T12:57:32.000Z</time>
      </trkpt>
      <trkpt lat="48.2201" lon="-3.15808">
        <ele>158</ele>
        <time>2020-10-19T12:57:33.000Z</time>
      </trkpt>
      <trkpt lat="48.22009" lon="-3.1581">
        <ele>157.80000305176</ele>
        <time>2020-10-19T12:57:34.000Z</time>
      </trkpt>
      <trkpt lat="48.22009" lon="-3.15811">
        <ele>157.80000305176</ele>
        <time>2020-10-19T12:57:35.000Z</time>
      </trkpt>
      <trkpt lat="48.22009" lon="-3.15812">
        <ele>157.60000610352</ele>
        <time>2020-10-19T12:57:36.000Z</time>
      </trkpt>
      <trkpt lat="48.22009" lon="-3.15813">
        <ele>157.60000610352</ele>
        <time>2020-10-19T12:57:37.000Z</time>
      </trkpt>
      <trkpt lat="48.22009" lon="-3.15813">
        <ele>157.39999389648</ele>
        <time>2020-10-19T12:57:38.000Z</time>
      </trkpt>
      <trkpt lat="48.22008" lon="-3.15814">
        <ele>157.39999389648</ele>
        <time>2020-10-19T12:57:39.000Z</time>
      </trkpt>
      <trkpt lat="48.22008" lon="-3.15815">
        <ele>157.39999389648</ele>
        <time>2020-10-19T12:57:40.000Z</time>
      </trkpt>
      <trkpt lat="48.22008" lon="-3.15815">
        <ele>157.19999694824</ele>
        <time>2020-10-19T12:57:41.000Z</time>
      </trkpt>
      <trkpt lat="48.22008" lon="-3.15815">
        <ele>157.19999694824</ele>
        <time>2020-10-19T12:57:42.000Z</time>
      </trkpt>
      <trkpt lat="48.22008" lon="-3.15815">
        <ele>157.19999694824</ele>
        <time>2020-10-19T12:57:43.000Z</time>
      </trkpt>
      <trkpt lat="48.22008" lon="-3.15815">
        <ele>157.19999694824</ele>
        <time>2020-10-19T12:57:44.000Z</time>
      </trkpt>
      <trkpt lat="48.22008" lon="-3.15815">
        <ele>157.19999694824</ele>
        <time>2020-10-19T12:57:45.000Z</time>
      </trkpt>
      <trkpt lat="48.22009" lon="-3.15814">
        <ele>157.39999389648</ele>
        <time>2020-10-19T12:57:46.000Z</time>
      </trkpt>
      <trkpt lat="48.22009" lon="-3.15813">
        <ele>157.39999389648</ele>
        <time>2020-10-19T12:57:47.000Z</time>
      </trkpt>
      <trkpt lat="48.22009" lon="-3.15813">
        <ele>157.39999389648</ele>
        <time>2020-10-19T12:57:48.000Z</time>
      </trkpt>
      <trkpt lat="48.2201" lon="-3.15812">
        <ele>157.60000610352</ele>
        <time>2020-10-19T12:57:49.000Z</time>
      </trkpt>
      <trkpt lat="48.2201" lon="-3.15811">
        <ele>157.60000610352</ele>
        <time>2020-10-19T12:57:50.000Z</time>
      </trkpt>
      <trkpt lat="48.2201" lon="-3.15809">
        <ele>157.80000305176</ele>
        <time>2020-10-19T12:57:51.000Z</time>
      </trkpt>
      <trkpt lat="48.2201" lon="-3.15809">
        <ele>158</ele>
        <time>2020-10-19T12:57:52.000Z</time>
      </trkpt>
      <trkpt lat="48.22011" lon="-3.15808">
        <ele>158</ele>
        <time>2020-10-19T12:57:53.000Z</time>
      </trkpt>
      <trkpt lat="48.22011" lon="-3.15807">
        <ele>158</ele>
        <time>2020-10-19T12:57:54.000Z</time>
      </trkpt>
      <trkpt lat="48.22011" lon="-3.15806">
        <ele>158.19999694824</ele>
        <time>2020-10-19T12:57:55.000Z</time>
      </trkpt>
      <trkpt lat="48.22011" lon="-3.15806">
        <ele>158.19999694824</ele>
        <time>2020-10-19T12:57:56.000Z</time>
      </trkpt>
      <trkpt lat="48.22011" lon="-3.15806">
        <ele>158.19999694824</ele>
        <time>2020-10-19T12:57:57.000Z</time>
      </trkpt>
      <trkpt lat="48.22011" lon="-3.15806">
        <ele>158.19999694824</ele>
        <time>2020-10-19T12:57:58.000Z</time>
      </trkpt>
      <trkpt lat="48.22011" lon="-3.15806">
        <ele>158.19999694824</ele>
        <time>2020-10-19T12:57:59.000Z</time>
      </trkpt>
      <trkpt lat="48.22011" lon="-3.15806">
        <ele>158.19999694824</ele>
        <time>2020-10-19T12:58:00.000Z</time>
      </trkpt>
      <trkpt lat="48.22011" lon="-3.15806">
        <ele>158.19999694824</ele>
        <time>2020-10-19T12:58:01.000Z</time>
      </trkpt>
      <trkpt lat="48.22011" lon="-3.15806">
        <ele>158.19999694824</ele>
        <time>2020-10-19T12:58:02.000Z</time>
      </trkpt>
      <trkpt lat="48.22011" lon="-3.15805">
        <ele>158.19999694824</ele>
        <time>2020-10-19T12:58:03.000Z</time>
      </trkpt>
      <trkpt lat="48.22012" lon="-3.15805">
        <ele>158.19999694824</ele>
        <time>2020-10-19T12:58:04.000Z</time>
      </trkpt>
      <trkpt lat="48.22011" lon="-3.15805">
        <ele>158.19999694824</ele>
        <time>2020-10-19T12:58:05.000Z</time>
      </trkpt>
      <trkpt lat="48.22012" lon="-3.15805">
        <ele>158.19999694824</ele>
        <time>2020-10-19T12:58:06.000Z</time>
      </trkpt>
      <trkpt lat="48.22012" lon="-3.15805">
        <ele>158.19999694824</ele>
        <time>2020-10-19T12:58:07.000Z</time>
      </trkpt>
      <trkpt lat="48.22012" lon="-3.15805">
        <ele>158.19999694824</ele>
        <time>2020-10-19T12:58:08.000Z</time>
      </trkpt>
      <trkpt lat="48.22012" lon="-3.15805">
        <ele>158.19999694824</ele>
        <time>2020-10-19T12:58:09.000Z</time>
      </trkpt>
      <trkpt lat="48.22012" lon="-3.15805">
        <ele>158.19999694824</ele>
        <time>2020-10-19T12:58:10.000Z</time>
      </trkpt>
      <trkpt lat="48.22012" lon="-3.15805">
        <ele>158.19999694824</ele>
        <time>2020-10-19T12:58:11.000Z</time>
      </trkpt>
      <trkpt lat="48.22012" lon="-3.15805">
        <ele>158.19999694824</ele>
        <time>2020-10-19T12:58:12.000Z</time>
      </trkpt>
      <trkpt lat="48.22012" lon="-3.15805">
        <ele>158.19999694824</ele>
        <time>2020-10-19T12:58:13.000Z</time>
      </trkpt>
      <trkpt lat="48.22012" lon="-3.15805">
        <ele>158.19999694824</ele>
        <time>2020-10-19T12:58:14.000Z</time>
      </trkpt>
      <trkpt lat="48.22012" lon="-3.15804">
        <ele>158.19999694824</ele>
        <time>2020-10-19T12:58:15.000Z</time>
      </trkpt>
      <trkpt lat="48.22012" lon="-3.15804">
        <ele>158.39999389648</ele>
        <time>2020-10-19T12:58:16.000Z</time>
      </trkpt>
      <trkpt lat="48.22013" lon="-3.15804">
        <ele>158.39999389648</ele>
        <time>2020-10-19T12:58:17.000Z</time>
      </trkpt>
      <trkpt lat="48.22013" lon="-3.15804">
        <ele>158.19999694824</ele>
        <time>2020-10-19T12:58:18.000Z</time>
      </trkpt>
      <trkpt lat="48.22013" lon="-3.15804">
        <ele>158.19999694824</ele>
        <time>2020-10-19T12:58:19.000Z</time>
      </trkpt>
      <trkpt lat="48.22013" lon="-3.15804">
        <ele>158.19999694824</ele>
        <time>2020-10-19T12:58:20.000Z</time>
      </trkpt>
      <trkpt lat="48.22013" lon="-3.15804">
        <ele>158.39999389648</ele>
        <time>2020-10-19T12:58:21.000Z</time>
      </trkpt>
      <trkpt lat="48.22013" lon="-3.15804">
        <ele>158.39999389648</ele>
        <time>2020-10-19T12:58:22.000Z</time>
      </trkpt>
      <trkpt lat="48.22013" lon="-3.15803">
        <ele>158.39999389648</ele>
        <time>2020-10-19T12:58:23.000Z</time>
      </trkpt>
      <trkpt lat="48.22013" lon="-3.15803">
        <ele>158.39999389648</ele>
        <time>2020-10-19T12:58:24.000Z</time>
      </trkpt>
      <trkpt lat="48.22013" lon="-3.15803">
        <ele>158.39999389648</ele>
        <time>2020-10-19T12:58:25.000Z</time>
      </trkpt>
      <trkpt lat="48.22013" lon="-3.15802">
        <ele>158.60000610352</ele>
        <time>2020-10-19T12:58:26.000Z</time>
      </trkpt>
      <trkpt lat="48.22013" lon="-3.15802">
        <ele>158.60000610352</ele>
        <time>2020-10-19T12:58:27.000Z</time>
      </trkpt>
      <trkpt lat="48.22013" lon="-3.15801">
        <ele>158.60000610352</ele>
        <time>2020-10-19T12:58:28.000Z</time>
      </trkpt>
      <trkpt lat="48.22013" lon="-3.15801">
        <ele>158.60000610352</ele>
        <time>2020-10-19T12:58:29.000Z</time>
      </trkpt>
      <trkpt lat="48.22013" lon="-3.158">
        <ele>158.80000305176</ele>
        <time>2020-10-19T12:58:30.000Z</time>
      </trkpt>
      <trkpt lat="48.22013" lon="-3.158">
        <ele>158.80000305176</ele>
        <time>2020-10-19T12:58:31.000Z</time>
      </trkpt>
      <trkpt lat="48.22013" lon="-3.15799">
        <ele>158.80000305176</ele>
        <time>2020-10-19T12:58:32.000Z</time>
      </trkpt>
      <trkpt lat="48.22013" lon="-3.15799">
        <ele>158.80000305176</ele>
        <time>2020-10-19T12:58:33.000Z</time>
      </trkpt>
      <trkpt lat="48.22013" lon="-3.15799">
        <ele>158.80000305176</ele>
        <time>2020-10-19T12:58:34.000Z</time>
      </trkpt>
      <trkpt lat="48.22013" lon="-3.15798">
        <ele>159</ele>
        <time>2020-10-19T12:58:35.000Z</time>
      </trkpt>
      <trkpt lat="48.22013" lon="-3.15797">
        <ele>159</ele>
        <time>2020-10-19T12:58:36.000Z</time>
      </trkpt>
      <trkpt lat="48.22012" lon="-3.15796">
        <ele>159.19999694824</ele>
        <time>2020-10-19T12:58:37.000Z</time>
      </trkpt>
      <trkpt lat="48.22012" lon="-3.15796">
        <ele>159.19999694824</ele>
        <time>2020-10-19T12:58:38.000Z</time>
      </trkpt>
      <trkpt lat="48.22013" lon="-3.15796">
        <ele>159.19999694824</ele>
        <time>2020-10-19T12:58:39.000Z</time>
      </trkpt>
      <trkpt lat="48.22013" lon="-3.15796">
        <ele>159.19999694824</ele>
        <time>2020-10-19T12:58:40.000Z</time>
      </trkpt>
      <trkpt lat="48.22013" lon="-3.15796">
        <ele>159.19999694824</ele>
        <time>2020-10-19T12:58:41.000Z</time>
      </trkpt>
      <trkpt lat="48.22013" lon="-3.15796">
        <ele>159.19999694824</ele>
        <time>2020-10-19T12:58:42.000Z</time>
      </trkpt>
      <trkpt lat="48.22013" lon="-3.15796">
        <ele>159.19999694824</ele>
        <time>2020-10-19T12:58:43.000Z</time>
      </trkpt>
      <trkpt lat="48.22013" lon="-3.15796">
        <ele>159.19999694824</ele>
        <time>2020-10-19T12:58:44.000Z</time>
      </trkpt>
      <trkpt lat="48.22013" lon="-3.15796">
        <ele>159.19999694824</ele>
        <time>2020-10-19T12:58:45.000Z</time>
      </trkpt>
      <trkpt lat="48.22013" lon="-3.15796">
        <ele>159.19999694824</ele>
        <time>2020-10-19T12:58:46.000Z</time>
      </trkpt>
      <trkpt lat="48.22013" lon="-3.15796">
        <ele>159.19999694824</ele>
        <time>2020-10-19T12:58:47.000Z</time>
      </trkpt>
      <trkpt lat="48.22013" lon="-3.15796">
        <ele>159.19999694824</ele>
        <time>2020-10-19T12:58:48.000Z</time>
      </trkpt>
      <trkpt lat="48.22013" lon="-3.15796">
        <ele>159.19999694824</ele>
        <time>2020-10-19T12:58:49.000Z</time>
      </trkpt>
      <trkpt lat="48.22014" lon="-3.15795">
        <ele>159.19999694824</ele>
        <time>2020-10-19T12:58:50.000Z</time>
      </trkpt>
      <trkpt lat="48.22014" lon="-3.15795">
        <ele>159.19999694824</ele>
        <time>2020-10-19T12:58:51.000Z</time>
      </trkpt>
      <trkpt lat="48.22013" lon="-3.15795">
        <ele>159.19999694824</ele>
        <time>2020-10-19T12:58:52.000Z</time>
      </trkpt>
      <trkpt lat="48.22013" lon="-3.15795">
        <ele>159.19999694824</ele>
        <time>2020-10-19T12:58:53.000Z</time>
      </trkpt>
      <trkpt lat="48.22013" lon="-3.15795">
        <ele>159.19999694824</ele>
        <time>2020-10-19T12:58:54.000Z</time>
      </trkpt>
      <trkpt lat="48.22013" lon="-3.15795">
        <ele>159.19999694824</ele>
        <time>2020-10-19T12:58:55.000Z</time>
      </trkpt>
      <trkpt lat="48.22013" lon="-3.15796">
        <ele>159.19999694824</ele>
        <time>2020-10-19T12:58:56.000Z</time>
      </trkpt>
      <trkpt lat="48.22013" lon="-3.15796">
        <ele>159.19999694824</ele>
        <time>2020-10-19T12:58:57.000Z</time>
      </trkpt>
      <trkpt lat="48.22013" lon="-3.15796">
        <ele>159.19999694824</ele>
        <time>2020-10-19T12:58:58.000Z</time>
      </trkpt>
      <trkpt lat="48.22012" lon="-3.15797">
        <ele>159</ele>
        <time>2020-10-19T12:58:59.000Z</time>
      </trkpt>
      <trkpt lat="48.22012" lon="-3.15796">
        <ele>159.19999694824</ele>
        <time>2020-10-19T12:59:00.000Z</time>
      </trkpt>
      <trkpt lat="48.22011" lon="-3.15797">
        <ele>159.19999694824</ele>
        <time>2020-10-19T12:59:01.000Z</time>
      </trkpt>
      <trkpt lat="48.2201" lon="-3.15798">
        <ele>159</ele>
        <time>2020-10-19T12:59:02.000Z</time>
      </trkpt>
      <trkpt lat="48.2201" lon="-3.15798">
        <ele>159</ele>
        <time>2020-10-19T12:59:03.000Z</time>
      </trkpt>
      <trkpt lat="48.2201" lon="-3.15798">
        <ele>159</ele>
        <time>2020-10-19T12:59:04.000Z</time>
      </trkpt>
      <trkpt lat="48.2201" lon="-3.15798">
        <ele>159</ele>
        <time>2020-10-19T12:59:05.000Z</time>
      </trkpt>
      <trkpt lat="48.2201" lon="-3.15798">
        <ele>159</ele>
        <time>2020-10-19T12:59:06.000Z</time>
      </trkpt>
      <trkpt lat="48.2201" lon="-3.15798">
        <ele>159</ele>
        <time>2020-10-19T12:59:07.000Z</time>
      </trkpt>
      <trkpt lat="48.2201" lon="-3.15798">
        <ele>159</ele>
        <time>2020-10-19T12:59:08.000Z</time>
      </trkpt>
      <trkpt lat="48.2201" lon="-3.15798">
        <ele>159</ele>
        <time>2020-10-19T12:59:09.000Z</time>
      </trkpt>
      <trkpt lat="48.2201" lon="-3.15798">
        <ele>159</ele>
        <time>2020-10-19T12:59:10.000Z</time>
      </trkpt>
      <trkpt lat="48.2201" lon="-3.15798">
        <ele>159</ele>
        <time>2020-10-19T12:59:11.000Z</time>
      </trkpt>
      <trkpt lat="48.2201" lon="-3.15798">
        <ele>159</ele>
        <time>2020-10-19T12:59:12.000Z</time>
      </trkpt>
      <trkpt lat="48.2201" lon="-3.15798">
        <ele>159</ele>
        <time>2020-10-19T12:59:13.000Z</time>
      </trkpt>
      <trkpt lat="48.2201" lon="-3.15798">
        <ele>159</ele>
        <time>2020-10-19T12:59:14.000Z</time>
      </trkpt>
      <trkpt lat="48.2201" lon="-3.15798">
        <ele>159</ele>
        <time>2020-10-19T12:59:15.000Z</time>
      </trkpt>
      <trkpt lat="48.22009" lon="-3.15798">
        <ele>159</ele>
        <time>2020-10-19T12:59:16.000Z</time>
      </trkpt>
      <trkpt lat="48.22009" lon="-3.15798">
        <ele>159.19999694824</ele>
        <time>2020-10-19T12:59:17.000Z</time>
      </trkpt>
      <trkpt lat="48.22009" lon="-3.15798">
        <ele>159.19999694824</ele>
        <time>2020-10-19T12:59:18.000Z</time>
      </trkpt>
      <trkpt lat="48.22009" lon="-3.15798">
        <ele>159.19999694824</ele>
        <time>2020-10-19T12:59:19.000Z</time>
      </trkpt>
      <trkpt lat="48.22009" lon="-3.15798">
        <ele>159.19999694824</ele>
        <time>2020-10-19T12:59:20.000Z</time>
      </trkpt>
      <trkpt lat="48.22009" lon="-3.15798">
        <ele>159.19999694824</ele>
        <time>2020-10-19T12:59:21.000Z</time>
      </trkpt>
      <trkpt lat="48.22009" lon="-3.15798">
        <ele>159.19999694824</ele>
        <time>2020-10-19T12:59:22.000Z</time>
      </trkpt>
      <trkpt lat="48.22009" lon="-3.15798">
        <ele>159.19999694824</ele>
        <time>2020-10-19T12:59:23.000Z</time>
      </trkpt>
      <trkpt lat="48.22009" lon="-3.15798">
        <ele>159.19999694824</ele>
        <time>2020-10-19T12:59:24.000Z</time>
      </trkpt>
      <trkpt lat="48.22009" lon="-3.15798">
        <ele>159.19999694824</ele>
        <time>2020-10-19T12:59:25.000Z</time>
      </trkpt>
      <trkpt lat="48.22009" lon="-3.15798">
        <ele>159.19999694824</ele>
        <time>2020-10-19T12:59:26.000Z</time>
      </trkpt>
      <trkpt lat="48.22009" lon="-3.15798">
        <ele>159</ele>
        <time>2020-10-19T12:59:27.000Z</time>
      </trkpt>
      <trkpt lat="48.22009" lon="-3.15798">
        <ele>159</ele>
        <time>2020-10-19T12:59:28.000Z</time>
      </trkpt>
      <trkpt lat="48.22009" lon="-3.15798">
        <ele>159</ele>
        <time>2020-10-19T12:59:29.000Z</time>
      </trkpt>
      <trkpt lat="48.22008" lon="-3.15798">
        <ele>159</ele>
        <time>2020-10-19T12:59:30.000Z</time>
      </trkpt>
      <trkpt lat="48.22009" lon="-3.15798">
        <ele>159.19999694824</ele>
        <time>2020-10-19T12:59:31.000Z</time>
      </trkpt>
      <trkpt lat="48.22009" lon="-3.15798">
        <ele>159.19999694824</ele>
        <time>2020-10-19T12:59:32.000Z</time>
      </trkpt>
      <trkpt lat="48.22009" lon="-3.15798">
        <ele>159.19999694824</ele>
        <time>2020-10-19T12:59:33.000Z</time>
      </trkpt>
      <trkpt lat="48.22009" lon="-3.15798">
        <ele>159.19999694824</ele>
        <time>2020-10-19T12:59:34.000Z</time>
      </trkpt>
      <trkpt lat="48.22009" lon="-3.15797">
        <ele>159.19999694824</ele>
        <time>2020-10-19T12:59:35.000Z</time>
      </trkpt>
      <trkpt lat="48.22009" lon="-3.15797">
        <ele>159.19999694824</ele>
        <time>2020-10-19T12:59:36.000Z</time>
      </trkpt>
      <trkpt lat="48.22009" lon="-3.15796">
        <ele>159.19999694824</ele>
        <time>2020-10-19T12:59:37.000Z</time>
      </trkpt>
      <trkpt lat="48.2201" lon="-3.15796">
        <ele>159.39999389648</ele>
        <time>2020-10-19T12:59:38.000Z</time>
      </trkpt>
      <trkpt lat="48.2201" lon="-3.15796">
        <ele>159.39999389648</ele>
        <time>2020-10-19T12:59:39.000Z</time>
      </trkpt>
      <trkpt lat="48.2201" lon="-3.15795">
        <ele>159.39999389648</ele>
        <time>2020-10-19T12:59:40.000Z</time>
      </trkpt>
      <trkpt lat="48.2201" lon="-3.15795">
        <ele>159.39999389648</ele>
        <time>2020-10-19T12:59:41.000Z</time>
      </trkpt>
      <trkpt lat="48.2201" lon="-3.15795">
        <ele>159.39999389648</ele>
        <time>2020-10-19T12:59:42.000Z</time>
      </trkpt>
      <trkpt lat="48.2201" lon="-3.15795">
        <ele>159.39999389648</ele>
        <time>2020-10-19T12:59:43.000Z</time>
      </trkpt>
      <trkpt lat="48.2201" lon="-3.15795">
        <ele>159.39999389648</ele>
        <time>2020-10-19T12:59:44.000Z</time>
      </trkpt>
      <trkpt lat="48.2201" lon="-3.15796">
        <ele>159.19999694824</ele>
        <time>2020-10-19T12:59:45.000Z</time>
      </trkpt>
      <trkpt lat="48.2201" lon="-3.15797">
        <ele>159.19999694824</ele>
        <time>2020-10-19T12:59:46.000Z</time>
      </trkpt>
      <trkpt lat="48.2201" lon="-3.15797">
        <ele>159.19999694824</ele>
        <time>2020-10-19T12:59:47.000Z</time>
      </trkpt>
      <trkpt lat="48.2201" lon="-3.15797">
        <ele>159.19999694824</ele>
        <time>2020-10-19T12:59:48.000Z</time>
      </trkpt>
      <trkpt lat="48.22011" lon="-3.15798">
        <ele>159</ele>
        <time>2020-10-19T12:59:49.000Z</time>
      </trkpt>
      <trkpt lat="48.22011" lon="-3.15799">
        <ele>159</ele>
        <time>2020-10-19T12:59:50.000Z</time>
      </trkpt>
      <trkpt lat="48.22011" lon="-3.158">
        <ele>158.80000305176</ele>
        <time>2020-10-19T12:59:51.000Z</time>
      </trkpt>
      <trkpt lat="48.22011" lon="-3.15801">
        <ele>158.80000305176</ele>
        <time>2020-10-19T12:59:52.000Z</time>
      </trkpt>
      <trkpt lat="48.22011" lon="-3.15802">
        <ele>158.60000610352</ele>
        <time>2020-10-19T12:59:53.000Z</time>
      </trkpt>
      <trkpt lat="48.22011" lon="-3.15803">
        <ele>158.60000610352</ele>
        <time>2020-10-19T12:59:54.000Z</time>
      </trkpt>
      <trkpt lat="48.22011" lon="-3.15803">
        <ele>158.39999389648</ele>
        <time>2020-10-19T12:59:55.000Z</time>
      </trkpt>
      <trkpt lat="48.22011" lon="-3.15804">
        <ele>158.39999389648</ele>
        <time>2020-10-19T12:59:56.000Z</time>
      </trkpt>
      <trkpt lat="48.22011" lon="-3.15806">
        <ele>158.19999694824</ele>
        <time>2020-10-19T12:59:57.000Z</time>
      </trkpt>
      <trkpt lat="48.22011" lon="-3.15807">
        <ele>158</ele>
        <time>2020-10-19T12:59:58.000Z</time>
      </trkpt>
      <trkpt lat="48.22012" lon="-3.15808">
        <ele>158</ele>
        <time>2020-10-19T12:59:59.000Z</time>
      </trkpt>
      <trkpt lat="48.22012" lon="-3.15809">
        <ele>157.80000305176</ele>
        <time>2020-10-19T13:00:00.000Z</time>
      </trkpt>
      <trkpt lat="48.22012" lon="-3.1581">
        <ele>157.60000610352</ele>
        <time>2020-10-19T13:00:01.000Z</time>
      </trkpt>
      <trkpt lat="48.22011" lon="-3.15812">
        <ele>157.60000610352</ele>
        <time>2020-10-19T13:00:02.000Z</time>
      </trkpt>
      <trkpt lat="48.22011" lon="-3.15813">
        <ele>157.39999389648</ele>
        <time>2020-10-19T13:00:03.000Z</time>
      </trkpt>
      <trkpt lat="48.22011" lon="-3.15816">
        <ele>157</ele>
        <time>2020-10-19T13:00:04.000Z</time>
      </trkpt>
      <trkpt lat="48.22011" lon="-3.15816">
        <ele>157</ele>
        <time>2020-10-19T13:00:05.000Z</time>
      </trkpt>
      <trkpt lat="48.22011" lon="-3.15818">
        <ele>157</ele>
        <time>2020-10-19T13:00:06.000Z</time>
      </trkpt>
      <trkpt lat="48.2201" lon="-3.15819">
        <ele>156.80000305176</ele>
        <time>2020-10-19T13:00:07.000Z</time>
      </trkpt>
      <trkpt lat="48.22009" lon="-3.1582">
        <ele>156.60000610352</ele>
        <time>2020-10-19T13:00:08.000Z</time>
      </trkpt>
      <trkpt lat="48.22009" lon="-3.15821">
        <ele>156.60000610352</ele>
        <time>2020-10-19T13:00:09.000Z</time>
      </trkpt>
      <trkpt lat="48.22009" lon="-3.15823">
        <ele>156.39999389648</ele>
        <time>2020-10-19T13:00:10.000Z</time>
      </trkpt>
      <trkpt lat="48.22008" lon="-3.15824">
        <ele>156.19999694824</ele>
        <time>2020-10-19T13:00:11.000Z</time>
      </trkpt>
      <trkpt lat="48.22008" lon="-3.15826">
        <ele>156.19999694824</ele>
        <time>2020-10-19T13:00:12.000Z</time>
      </trkpt>
      <trkpt lat="48.22008" lon="-3.15828">
        <ele>156</ele>
        <time>2020-10-19T13:00:13.000Z</time>
      </trkpt>
      <trkpt lat="48.22008" lon="-3.15829">
        <ele>155.80000305176</ele>
        <time>2020-10-19T13:00:14.000Z</time>
      </trkpt>
      <trkpt lat="48.22007" lon="-3.1583">
        <ele>155.60000610352</ele>
        <time>2020-10-19T13:00:15.000Z</time>
      </trkpt>
      <trkpt lat="48.22007" lon="-3.15832">
        <ele>155.60000610352</ele>
        <time>2020-10-19T13:00:16.000Z</time>
      </trkpt>
      <trkpt lat="48.22007" lon="-3.15833">
        <ele>155.39999389648</ele>
        <time>2020-10-19T13:00:17.000Z</time>
      </trkpt>
      <trkpt lat="48.22007" lon="-3.15835">
        <ele>155.19999694824</ele>
        <time>2020-10-19T13:00:18.000Z</time>
      </trkpt>
      <trkpt lat="48.22006" lon="-3.15837">
        <ele>155</ele>
        <time>2020-10-19T13:00:19.000Z</time>
      </trkpt>
      <trkpt lat="48.22006" lon="-3.15839">
        <ele>154.80000305176</ele>
        <time>2020-10-19T13:00:20.000Z</time>
      </trkpt>
      <trkpt lat="48.22005" lon="-3.15841">
        <ele>154.60000610352</ele>
        <time>2020-10-19T13:00:21.000Z</time>
      </trkpt>
      <trkpt lat="48.22005" lon="-3.15843">
        <ele>154.39999389648</ele>
        <time>2020-10-19T13:00:22.000Z</time>
      </trkpt>
      <trkpt lat="48.22005" lon="-3.15844">
        <ele>154.19999694824</ele>
        <time>2020-10-19T13:00:23.000Z</time>
      </trkpt>
      <trkpt lat="48.22004" lon="-3.15845">
        <ele>154.19999694824</ele>
        <time>2020-10-19T13:00:24.000Z</time>
      </trkpt>
      <trkpt lat="48.22004" lon="-3.15846">
        <ele>154</ele>
        <time>2020-10-19T13:00:25.000Z</time>
      </trkpt>
      <trkpt lat="48.22003" lon="-3.15848">
        <ele>153.60000610352</ele>
        <time>2020-10-19T13:00:26.000Z</time>
      </trkpt>
      <trkpt lat="48.22002" lon="-3.1585">
        <ele>153.39999389648</ele>
        <time>2020-10-19T13:00:27.000Z</time>
      </trkpt>
      <trkpt lat="48.22001" lon="-3.15852">
        <ele>153.19999694824</ele>
        <time>2020-10-19T13:00:28.000Z</time>
      </trkpt>
      <trkpt lat="48.22001" lon="-3.15853">
        <ele>153</ele>
        <time>2020-10-19T13:00:29.000Z</time>
      </trkpt>
      <trkpt lat="48.22" lon="-3.15855">
        <ele>152.60000610352</ele>
        <time>2020-10-19T13:00:30.000Z</time>
      </trkpt>
      <trkpt lat="48.22" lon="-3.15857">
        <ele>152.39999389648</ele>
        <time>2020-10-19T13:00:31.000Z</time>
      </trkpt>
      <trkpt lat="48.22" lon="-3.15858">
        <ele>152.19999694824</ele>
        <time>2020-10-19T13:00:32.000Z</time>
      </trkpt>
      <trkpt lat="48.21999" lon="-3.15859">
        <ele>152.19999694824</ele>
        <time>2020-10-19T13:00:33.000Z</time>
      </trkpt>
      <trkpt lat="48.21999" lon="-3.1586">
        <ele>152</ele>
        <time>2020-10-19T13:00:34.000Z</time>
      </trkpt>
      <trkpt lat="48.21999" lon="-3.15861">
        <ele>152</ele>
        <time>2020-10-19T13:00:35.000Z</time>
      </trkpt>
      <trkpt lat="48.21998" lon="-3.15863">
        <ele>151.80000305176</ele>
        <time>2020-10-19T13:00:36.000Z</time>
      </trkpt>
      <trkpt lat="48.21997" lon="-3.15864">
        <ele>151.60000610352</ele>
        <time>2020-10-19T13:00:37.000Z</time>
      </trkpt>
      <trkpt lat="48.21997" lon="-3.15866">
        <ele>151.39999389648</ele>
        <time>2020-10-19T13:00:38.000Z</time>
      </trkpt>
      <trkpt lat="48.21996" lon="-3.15867">
        <ele>151.39999389648</ele>
        <time>2020-10-19T13:00:39.000Z</time>
      </trkpt>
      <trkpt lat="48.21996" lon="-3.15868">
        <ele>151.19999694824</ele>
        <time>2020-10-19T13:00:40.000Z</time>
      </trkpt>
      <trkpt lat="48.21996" lon="-3.15869">
        <ele>151.19999694824</ele>
        <time>2020-10-19T13:00:41.000Z</time>
      </trkpt>
      <trkpt lat="48.21995" lon="-3.1587">
        <ele>151</ele>
        <time>2020-10-19T13:00:42.000Z</time>
      </trkpt>
      <trkpt lat="48.21995" lon="-3.15872">
        <ele>150.80000305176</ele>
        <time>2020-10-19T13:00:43.000Z</time>
      </trkpt>
      <trkpt lat="48.21995" lon="-3.15873">
        <ele>150.80000305176</ele>
        <time>2020-10-19T13:00:44.000Z</time>
      </trkpt>
      <trkpt lat="48.21995" lon="-3.15875">
        <ele>150.60000610352</ele>
        <time>2020-10-19T13:00:45.000Z</time>
      </trkpt>
      <trkpt lat="48.21995" lon="-3.15876">
        <ele>150.60000610352</ele>
        <time>2020-10-19T13:00:46.000Z</time>
      </trkpt>
      <trkpt lat="48.21995" lon="-3.15877">
        <ele>150.39999389648</ele>
        <time>2020-10-19T13:00:47.000Z</time>
      </trkpt>
      <trkpt lat="48.21995" lon="-3.15879">
        <ele>150.19999694824</ele>
        <time>2020-10-19T13:00:48.000Z</time>
      </trkpt>
      <trkpt lat="48.21994" lon="-3.15881">
        <ele>150</ele>
        <time>2020-10-19T13:00:49.000Z</time>
      </trkpt>
      <trkpt lat="48.21994" lon="-3.15883">
        <ele>150</ele>
        <time>2020-10-19T13:00:50.000Z</time>
      </trkpt>
      <trkpt lat="48.21994" lon="-3.15884">
        <ele>149.80000305176</ele>
        <time>2020-10-19T13:00:51.000Z</time>
      </trkpt>
      <trkpt lat="48.21994" lon="-3.15886">
        <ele>149.60000610352</ele>
        <time>2020-10-19T13:00:52.000Z</time>
      </trkpt>
      <trkpt lat="48.21993" lon="-3.15887">
        <ele>149.39999389648</ele>
        <time>2020-10-19T13:00:53.000Z</time>
      </trkpt>
      <trkpt lat="48.21993" lon="-3.15889">
        <ele>149.39999389648</ele>
        <time>2020-10-19T13:00:54.000Z</time>
      </trkpt>
      <trkpt lat="48.21994" lon="-3.15891">
        <ele>149.19999694824</ele>
        <time>2020-10-19T13:00:55.000Z</time>
      </trkpt>
      <trkpt lat="48.21994" lon="-3.15893">
        <ele>149</ele>
        <time>2020-10-19T13:00:56.000Z</time>
      </trkpt>
      <trkpt lat="48.21993" lon="-3.15895">
        <ele>148.80000305176</ele>
        <time>2020-10-19T13:00:57.000Z</time>
      </trkpt>
      <trkpt lat="48.21993" lon="-3.15896">
        <ele>148.80000305176</ele>
        <time>2020-10-19T13:00:58.000Z</time>
      </trkpt>
      <trkpt lat="48.21992" lon="-3.15897">
        <ele>148.60000610352</ele>
        <time>2020-10-19T13:00:59.000Z</time>
      </trkpt>
      <trkpt lat="48.21991" lon="-3.15899">
        <ele>148.39999389648</ele>
        <time>2020-10-19T13:01:00.000Z</time>
      </trkpt>
      <trkpt lat="48.21991" lon="-3.159">
        <ele>148.39999389648</ele>
        <time>2020-10-19T13:01:01.000Z</time>
      </trkpt>
      <trkpt lat="48.21991" lon="-3.15902">
        <ele>148.19999694824</ele>
        <time>2020-10-19T13:01:02.000Z</time>
      </trkpt>
      <trkpt lat="48.2199" lon="-3.15903">
        <ele>148</ele>
        <time>2020-10-19T13:01:03.000Z</time>
      </trkpt>
      <trkpt lat="48.2199" lon="-3.15905">
        <ele>147.80000305176</ele>
        <time>2020-10-19T13:01:04.000Z</time>
      </trkpt>
      <trkpt lat="48.21989" lon="-3.15906">
        <ele>147.80000305176</ele>
        <time>2020-10-19T13:01:05.000Z</time>
      </trkpt>
      <trkpt lat="48.21989" lon="-3.15908">
        <ele>147.60000610352</ele>
        <time>2020-10-19T13:01:06.000Z</time>
      </trkpt>
      <trkpt lat="48.21988" lon="-3.15909">
        <ele>147.39999389648</ele>
        <time>2020-10-19T13:01:07.000Z</time>
      </trkpt>
      <trkpt lat="48.21988" lon="-3.1591">
        <ele>147.19999694824</ele>
        <time>2020-10-19T13:01:08.000Z</time>
      </trkpt>
      <trkpt lat="48.21987" lon="-3.15912">
        <ele>147.19999694824</ele>
        <time>2020-10-19T13:01:09.000Z</time>
      </trkpt>
      <trkpt lat="48.21987" lon="-3.15913">
        <ele>147</ele>
        <time>2020-10-19T13:01:10.000Z</time>
      </trkpt>
      <trkpt lat="48.21986" lon="-3.15914">
        <ele>146.80000305176</ele>
        <time>2020-10-19T13:01:11.000Z</time>
      </trkpt>
      <trkpt lat="48.21986" lon="-3.15916">
        <ele>146.80000305176</ele>
        <time>2020-10-19T13:01:12.000Z</time>
      </trkpt>
      <trkpt lat="48.21986" lon="-3.15917">
        <ele>146.60000610352</ele>
        <time>2020-10-19T13:01:13.000Z</time>
      </trkpt>
      <trkpt lat="48.21985" lon="-3.15918">
        <ele>146.60000610352</ele>
        <time>2020-10-19T13:01:14.000Z</time>
      </trkpt>
      <trkpt lat="48.21985" lon="-3.15919">
        <ele>146.39999389648</ele>
        <time>2020-10-19T13:01:15.000Z</time>
      </trkpt>
      <trkpt lat="48.21984" lon="-3.1592">
        <ele>146.39999389648</ele>
        <time>2020-10-19T13:01:16.000Z</time>
      </trkpt>
      <trkpt lat="48.21983" lon="-3.15921">
        <ele>146.19999694824</ele>
        <time>2020-10-19T13:01:17.000Z</time>
      </trkpt>
      <trkpt lat="48.21982" lon="-3.15922">
        <ele>146</ele>
        <time>2020-10-19T13:01:18.000Z</time>
      </trkpt>
      <trkpt lat="48.21982" lon="-3.15924">
        <ele>145.80000305176</ele>
        <time>2020-10-19T13:01:19.000Z</time>
      </trkpt>
      <trkpt lat="48.21981" lon="-3.15925">
        <ele>145.80000305176</ele>
        <time>2020-10-19T13:01:20.000Z</time>
      </trkpt>
      <trkpt lat="48.21981" lon="-3.15926">
        <ele>145.60000610352</ele>
        <time>2020-10-19T13:01:21.000Z</time>
      </trkpt>
      <trkpt lat="48.21981" lon="-3.15927">
        <ele>145.60000610352</ele>
        <time>2020-10-19T13:01:22.000Z</time>
      </trkpt>
      <trkpt lat="48.21981" lon="-3.15929">
        <ele>145.39999389648</ele>
        <time>2020-10-19T13:01:23.000Z</time>
      </trkpt>
      <trkpt lat="48.21981" lon="-3.1593">
        <ele>145.39999389648</ele>
        <time>2020-10-19T13:01:24.000Z</time>
      </trkpt>
      <trkpt lat="48.21981" lon="-3.15932">
        <ele>145.19999694824</ele>
        <time>2020-10-19T13:01:25.000Z</time>
      </trkpt>
      <trkpt lat="48.2198" lon="-3.15933">
        <ele>145</ele>
        <time>2020-10-19T13:01:26.000Z</time>
      </trkpt>
      <trkpt lat="48.2198" lon="-3.15934">
        <ele>145</ele>
        <time>2020-10-19T13:01:27.000Z</time>
      </trkpt>
      <trkpt lat="48.2198" lon="-3.15934">
        <ele>145</ele>
        <time>2020-10-19T13:01:28.000Z</time>
      </trkpt>
      <trkpt lat="48.2198" lon="-3.15935">
        <ele>144.80000305176</ele>
        <time>2020-10-19T13:01:29.000Z</time>
      </trkpt>
      <trkpt lat="48.2198" lon="-3.15935">
        <ele>144.80000305176</ele>
        <time>2020-10-19T13:01:30.000Z</time>
      </trkpt>
      <trkpt lat="48.21979" lon="-3.15935">
        <ele>144.80000305176</ele>
        <time>2020-10-19T13:01:31.000Z</time>
      </trkpt>
      <trkpt lat="48.21979" lon="-3.15935">
        <ele>144.80000305176</ele>
        <time>2020-10-19T13:01:32.000Z</time>
      </trkpt>
      <trkpt lat="48.21979" lon="-3.15935">
        <ele>144.80000305176</ele>
        <time>2020-10-19T13:01:33.000Z</time>
      </trkpt>
      <trkpt lat="48.21979" lon="-3.15936">
        <ele>144.80000305176</ele>
        <time>2020-10-19T13:01:34.000Z</time>
      </trkpt>
      <trkpt lat="48.21979" lon="-3.15936">
        <ele>144.60000610352</ele>
        <time>2020-10-19T13:01:35.000Z</time>
      </trkpt>
      <trkpt lat="48.21978" lon="-3.15936">
        <ele>144.60000610352</ele>
        <time>2020-10-19T13:01:36.000Z</time>
      </trkpt>
      <trkpt lat="48.21978" lon="-3.15937">
        <ele>144.60000610352</ele>
        <time>2020-10-19T13:01:37.000Z</time>
      </trkpt>
      <trkpt lat="48.21977" lon="-3.15937">
        <ele>144.60000610352</ele>
        <time>2020-10-19T13:01:38.000Z</time>
      </trkpt>
      <trkpt lat="48.21977" lon="-3.15937">
        <ele>144.39999389648</ele>
        <time>2020-10-19T13:01:39.000Z</time>
      </trkpt>
      <trkpt lat="48.21977" lon="-3.15937">
        <ele>144.39999389648</ele>
        <time>2020-10-19T13:01:40.000Z</time>
      </trkpt>
      <trkpt lat="48.21977" lon="-3.15938">
        <ele>144.39999389648</ele>
        <time>2020-10-19T13:01:41.000Z</time>
      </trkpt>
      <trkpt lat="48.21977" lon="-3.15938">
        <ele>144.39999389648</ele>
        <time>2020-10-19T13:01:42.000Z</time>
      </trkpt>
      <trkpt lat="48.21977" lon="-3.15938">
        <ele>144.39999389648</ele>
        <time>2020-10-19T13:01:43.000Z</time>
      </trkpt>
      <trkpt lat="48.21976" lon="-3.15938">
        <ele>144.39999389648</ele>
        <time>2020-10-19T13:01:44.000Z</time>
      </trkpt>
      <trkpt lat="48.21976" lon="-3.15938">
        <ele>144.39999389648</ele>
        <time>2020-10-19T13:01:45.000Z</time>
      </trkpt>
      <trkpt lat="48.21976" lon="-3.15938">
        <ele>144.39999389648</ele>
        <time>2020-10-19T13:01:46.000Z</time>
      </trkpt>
      <trkpt lat="48.21976" lon="-3.15938">
        <ele>144.39999389648</ele>
        <time>2020-10-19T13:01:47.000Z</time>
      </trkpt>
      <trkpt lat="48.21976" lon="-3.15939">
        <ele>144.39999389648</ele>
        <time>2020-10-19T13:01:48.000Z</time>
      </trkpt>
      <trkpt lat="48.21975" lon="-3.15938">
        <ele>144.39999389648</ele>
        <time>2020-10-19T13:01:49.000Z</time>
      </trkpt>
      <trkpt lat="48.21976" lon="-3.15937">
        <ele>144.39999389648</ele>
        <time>2020-10-19T13:01:50.000Z</time>
      </trkpt>
      <trkpt lat="48.21977" lon="-3.15937">
        <ele>144.60000610352</ele>
        <time>2020-10-19T13:01:51.000Z</time>
      </trkpt>
      <trkpt lat="48.21977" lon="-3.15937">
        <ele>144.60000610352</ele>
        <time>2020-10-19T13:01:52.000Z</time>
      </trkpt>
      <trkpt lat="48.21977" lon="-3.15937">
        <ele>144.60000610352</ele>
        <time>2020-10-19T13:01:53.000Z</time>
      </trkpt>
      <trkpt lat="48.21978" lon="-3.15937">
        <ele>144.60000610352</ele>
        <time>2020-10-19T13:01:54.000Z</time>
      </trkpt>
      <trkpt lat="48.21978" lon="-3.15936">
        <ele>144.60000610352</ele>
        <time>2020-10-19T13:01:55.000Z</time>
      </trkpt>
      <trkpt lat="48.21979" lon="-3.15937">
        <ele>144.60000610352</ele>
        <time>2020-10-19T13:01:56.000Z</time>
      </trkpt>
      <trkpt lat="48.21979" lon="-3.15937">
        <ele>144.60000610352</ele>
        <time>2020-10-19T13:01:57.000Z</time>
      </trkpt>
      <trkpt lat="48.2198" lon="-3.15937">
        <ele>144.60000610352</ele>
        <time>2020-10-19T13:01:58.000Z</time>
      </trkpt>
      <trkpt lat="48.2198" lon="-3.15938">
        <ele>144.60000610352</ele>
        <time>2020-10-19T13:01:59.000Z</time>
      </trkpt>
      <trkpt lat="48.2198" lon="-3.15938">
        <ele>144.60000610352</ele>
        <time>2020-10-19T13:02:00.000Z</time>
      </trkpt>
      <trkpt lat="48.21981" lon="-3.15938">
        <ele>144.60000610352</ele>
        <time>2020-10-19T13:02:01.000Z</time>
      </trkpt>
      <trkpt lat="48.21981" lon="-3.15938">
        <ele>144.60000610352</ele>
        <time>2020-10-19T13:02:02.000Z</time>
      </trkpt>
      <trkpt lat="48.21981" lon="-3.15938">
        <ele>144.60000610352</ele>
        <time>2020-10-19T13:02:03.000Z</time>
      </trkpt>
      <trkpt lat="48.21981" lon="-3.15938">
        <ele>144.60000610352</ele>
        <time>2020-10-19T13:02:04.000Z</time>
      </trkpt>
      <trkpt lat="48.21981" lon="-3.15938">
        <ele>144.60000610352</ele>
        <time>2020-10-19T13:02:05.000Z</time>
      </trkpt>
      <trkpt lat="48.21981" lon="-3.15938">
        <ele>144.60000610352</ele>
        <time>2020-10-19T13:02:06.000Z</time>
      </trkpt>
      <trkpt lat="48.21981" lon="-3.15939">
        <ele>144.60000610352</ele>
        <time>2020-10-19T13:02:07.000Z</time>
      </trkpt>
      <trkpt lat="48.21981" lon="-3.15939">
        <ele>144.60000610352</ele>
        <time>2020-10-19T13:02:08.000Z</time>
      </trkpt>
      <trkpt lat="48.21981" lon="-3.15939">
        <ele>144.60000610352</ele>
        <time>2020-10-19T13:02:09.000Z</time>
      </trkpt>
      <trkpt lat="48.21982" lon="-3.15939">
        <ele>144.60000610352</ele>
        <time>2020-10-19T13:02:10.000Z</time>
      </trkpt>
      <trkpt lat="48.21982" lon="-3.15938">
        <ele>144.60000610352</ele>
        <time>2020-10-19T13:02:11.000Z</time>
      </trkpt>
      <trkpt lat="48.21982" lon="-3.15938">
        <ele>144.80000305176</ele>
        <time>2020-10-19T13:02:12.000Z</time>
      </trkpt>
      <trkpt lat="48.21983" lon="-3.15937">
        <ele>144.80000305176</ele>
        <time>2020-10-19T13:02:13.000Z</time>
      </trkpt>
      <trkpt lat="48.21984" lon="-3.15935">
        <ele>145</ele>
        <time>2020-10-19T13:02:14.000Z</time>
      </trkpt>
      <trkpt lat="48.21985" lon="-3.15933">
        <ele>145.19999694824</ele>
        <time>2020-10-19T13:02:15.000Z</time>
      </trkpt>
      <trkpt lat="48.21986" lon="-3.15932">
        <ele>145.39999389648</ele>
        <time>2020-10-19T13:02:16.000Z</time>
      </trkpt>
      <trkpt lat="48.21986" lon="-3.15931">
        <ele>145.60000610352</ele>
        <time>2020-10-19T13:02:17.000Z</time>
      </trkpt>
      <trkpt lat="48.21987" lon="-3.1593">
        <ele>145.60000610352</ele>
        <time>2020-10-19T13:02:18.000Z</time>
      </trkpt>
      <trkpt lat="48.21988" lon="-3.1593">
        <ele>145.60000610352</ele>
        <time>2020-10-19T13:02:19.000Z</time>
      </trkpt>
      <trkpt lat="48.21988" lon="-3.1593">
        <ele>145.60000610352</ele>
        <time>2020-10-19T13:02:20.000Z</time>
      </trkpt>
      <trkpt lat="48.21987" lon="-3.1593">
        <ele>145.60000610352</ele>
        <time>2020-10-19T13:02:21.000Z</time>
      </trkpt>
      <trkpt lat="48.21987" lon="-3.1593">
        <ele>145.60000610352</ele>
        <time>2020-10-19T13:02:22.000Z</time>
      </trkpt>
      <trkpt lat="48.21987" lon="-3.1593">
        <ele>145.60000610352</ele>
        <time>2020-10-19T13:02:23.000Z</time>
      </trkpt>
      <trkpt lat="48.21987" lon="-3.1593">
        <ele>145.60000610352</ele>
        <time>2020-10-19T13:02:24.000Z</time>
      </trkpt>
      <trkpt lat="48.21986" lon="-3.15931">
        <ele>145.39999389648</ele>
        <time>2020-10-19T13:02:25.000Z</time>
      </trkpt>
      <trkpt lat="48.21986" lon="-3.15932">
        <ele>145.39999389648</ele>
        <time>2020-10-19T13:02:26.000Z</time>
      </trkpt>
      <trkpt lat="48.21986" lon="-3.15931">
        <ele>145.39999389648</ele>
        <time>2020-10-19T13:02:27.000Z</time>
      </trkpt>
      <trkpt lat="48.21986" lon="-3.15931">
        <ele>145.39999389648</ele>
        <time>2020-10-19T13:02:28.000Z</time>
      </trkpt>
      <trkpt lat="48.21985" lon="-3.15932">
        <ele>145.39999389648</ele>
        <time>2020-10-19T13:02:29.000Z</time>
      </trkpt>
      <trkpt lat="48.21985" lon="-3.15932">
        <ele>145.19999694824</ele>
        <time>2020-10-19T13:02:30.000Z</time>
      </trkpt>
      <trkpt lat="48.21985" lon="-3.15933">
        <ele>145.19999694824</ele>
        <time>2020-10-19T13:02:31.000Z</time>
      </trkpt>
      <trkpt lat="48.21985" lon="-3.15933">
        <ele>145.19999694824</ele>
        <time>2020-10-19T13:02:32.000Z</time>
      </trkpt>
      <trkpt lat="48.21984" lon="-3.15933">
        <ele>145.19999694824</ele>
        <time>2020-10-19T13:02:33.000Z</time>
      </trkpt>
      <trkpt lat="48.21984" lon="-3.15935">
        <ele>145</ele>
        <time>2020-10-19T13:02:34.000Z</time>
      </trkpt>
      <trkpt lat="48.21983" lon="-3.15936">
        <ele>145</ele>
        <time>2020-10-19T13:02:35.000Z</time>
      </trkpt>
      <trkpt lat="48.21982" lon="-3.15936">
        <ele>144.80000305176</ele>
        <time>2020-10-19T13:02:36.000Z</time>
      </trkpt>
      <trkpt lat="48.21982" lon="-3.15936">
        <ele>144.80000305176</ele>
        <time>2020-10-19T13:02:37.000Z</time>
      </trkpt>
      <trkpt lat="48.21982" lon="-3.15937">
        <ele>144.80000305176</ele>
        <time>2020-10-19T13:02:38.000Z</time>
      </trkpt>
      <trkpt lat="48.21981" lon="-3.15937">
        <ele>144.80000305176</ele>
        <time>2020-10-19T13:02:39.000Z</time>
      </trkpt>
      <trkpt lat="48.2198" lon="-3.15936">
        <ele>144.80000305176</ele>
        <time>2020-10-19T13:02:40.000Z</time>
      </trkpt>
      <trkpt lat="48.21981" lon="-3.15935">
        <ele>144.80000305176</ele>
        <time>2020-10-19T13:02:41.000Z</time>
      </trkpt>
      <trkpt lat="48.21981" lon="-3.15935">
        <ele>144.80000305176</ele>
        <time>2020-10-19T13:02:42.000Z</time>
      </trkpt>
      <trkpt lat="48.2198" lon="-3.15934">
        <ele>145</ele>
        <time>2020-10-19T13:02:43.000Z</time>
      </trkpt>
      <trkpt lat="48.2198" lon="-3.15933">
        <ele>145</ele>
        <time>2020-10-19T13:02:44.000Z</time>
      </trkpt>
      <trkpt lat="48.2198" lon="-3.15933">
        <ele>145</ele>
        <time>2020-10-19T13:02:45.000Z</time>
      </trkpt>
      <trkpt lat="48.2198" lon="-3.15933">
        <ele>145</ele>
        <time>2020-10-19T13:02:46.000Z</time>
      </trkpt>
      <trkpt lat="48.2198" lon="-3.15933">
        <ele>145</ele>
        <time>2020-10-19T13:02:47.000Z</time>
      </trkpt>
      <trkpt lat="48.2198" lon="-3.15934">
        <ele>145</ele>
        <time>2020-10-19T13:02:48.000Z</time>
      </trkpt>
      <trkpt lat="48.21979" lon="-3.15934">
        <ele>145</ele>
        <time>2020-10-19T13:02:49.000Z</time>
      </trkpt>
      <trkpt lat="48.21979" lon="-3.15935">
        <ele>144.80000305176</ele>
        <time>2020-10-19T13:02:50.000Z</time>
      </trkpt>
      <trkpt lat="48.21978" lon="-3.15935">
        <ele>144.80000305176</ele>
        <time>2020-10-19T13:02:51.000Z</time>
      </trkpt>
      <trkpt lat="48.21977" lon="-3.15937">
        <ele>144.60000610352</ele>
        <time>2020-10-19T13:02:52.000Z</time>
      </trkpt>
      <trkpt lat="48.21977" lon="-3.15938">
        <ele>144.39999389648</ele>
        <time>2020-10-19T13:02:53.000Z</time>
      </trkpt>
      <trkpt lat="48.21976" lon="-3.15938">
        <ele>144.39999389648</ele>
        <time>2020-10-19T13:02:54.000Z</time>
      </trkpt>
      <trkpt lat="48.21976" lon="-3.15939">
        <ele>144.39999389648</ele>
        <time>2020-10-19T13:02:55.000Z</time>
      </trkpt>
      <trkpt lat="48.21976" lon="-3.15939">
        <ele>144.39999389648</ele>
        <time>2020-10-19T13:02:56.000Z</time>
      </trkpt>
      <trkpt lat="48.21976" lon="-3.15939">
        <ele>144.39999389648</ele>
        <time>2020-10-19T13:02:57.000Z</time>
      </trkpt>
      <trkpt lat="48.21976" lon="-3.15939">
        <ele>144.39999389648</ele>
        <time>2020-10-19T13:02:58.000Z</time>
      </trkpt>
      <trkpt lat="48.21975" lon="-3.15939">
        <ele>144.39999389648</ele>
        <time>2020-10-19T13:02:59.000Z</time>
      </trkpt>
      <trkpt lat="48.21976" lon="-3.15939">
        <ele>144.39999389648</ele>
        <time>2020-10-19T13:03:00.000Z</time>
      </trkpt>
      <trkpt lat="48.21976" lon="-3.15939">
        <ele>144.39999389648</ele>
        <time>2020-10-19T13:03:01.000Z</time>
      </trkpt>
      <trkpt lat="48.21976" lon="-3.15939">
        <ele>144.39999389648</ele>
        <time>2020-10-19T13:03:02.000Z</time>
      </trkpt>
      <trkpt lat="48.21975" lon="-3.15938">
        <ele>144.39999389648</ele>
        <time>2020-10-19T13:03:03.000Z</time>
      </trkpt>
      <trkpt lat="48.21975" lon="-3.15938">
        <ele>144.39999389648</ele>
        <time>2020-10-19T13:03:04.000Z</time>
      </trkpt>
      <trkpt lat="48.21975" lon="-3.15938">
        <ele>144.39999389648</ele>
        <time>2020-10-19T13:03:05.000Z</time>
      </trkpt>
      <trkpt lat="48.21975" lon="-3.15938">
        <ele>144.39999389648</ele>
        <time>2020-10-19T13:03:06.000Z</time>
      </trkpt>
      <trkpt lat="48.21974" lon="-3.15938">
        <ele>144.39999389648</ele>
        <time>2020-10-19T13:03:07.000Z</time>
      </trkpt>
      <trkpt lat="48.21974" lon="-3.15937">
        <ele>144.39999389648</ele>
        <time>2020-10-19T13:03:08.000Z</time>
      </trkpt>
      <trkpt lat="48.21974" lon="-3.15937">
        <ele>144.39999389648</ele>
        <time>2020-10-19T13:03:09.000Z</time>
      </trkpt>
      <trkpt lat="48.21973" lon="-3.15937">
        <ele>144.39999389648</ele>
        <time>2020-10-19T13:03:10.000Z</time>
      </trkpt>
      <trkpt lat="48.21973" lon="-3.15936">
        <ele>144.39999389648</ele>
        <time>2020-10-19T13:03:11.000Z</time>
      </trkpt>
      <trkpt lat="48.21972" lon="-3.15935">
        <ele>144.39999389648</ele>
        <time>2020-10-19T13:03:12.000Z</time>
      </trkpt>
      <trkpt lat="48.21972" lon="-3.15935">
        <ele>144.39999389648</ele>
        <time>2020-10-19T13:03:13.000Z</time>
      </trkpt>
      <trkpt lat="48.21972" lon="-3.15934">
        <ele>144.60000610352</ele>
        <time>2020-10-19T13:03:14.000Z</time>
      </trkpt>
      <trkpt lat="48.21971" lon="-3.15933">
        <ele>144.60000610352</ele>
        <time>2020-10-19T13:03:15.000Z</time>
      </trkpt>
      <trkpt lat="48.21971" lon="-3.15932">
        <ele>144.60000610352</ele>
        <time>2020-10-19T13:03:16.000Z</time>
      </trkpt>
      <trkpt lat="48.21971" lon="-3.15932">
        <ele>144.60000610352</ele>
        <time>2020-10-19T13:03:17.000Z</time>
      </trkpt>
      <trkpt lat="48.21971" lon="-3.15931">
        <ele>144.80000305176</ele>
        <time>2020-10-19T13:03:18.000Z</time>
      </trkpt>
      <trkpt lat="48.2197" lon="-3.1593">
        <ele>144.80000305176</ele>
        <time>2020-10-19T13:03:19.000Z</time>
      </trkpt>
      <trkpt lat="48.2197" lon="-3.15929">
        <ele>144.80000305176</ele>
        <time>2020-10-19T13:03:20.000Z</time>
      </trkpt>
      <trkpt lat="48.2197" lon="-3.15929">
        <ele>144.80000305176</ele>
        <time>2020-10-19T13:03:21.000Z</time>
      </trkpt>
      <trkpt lat="48.2197" lon="-3.15928">
        <ele>145</ele>
        <time>2020-10-19T13:03:22.000Z</time>
      </trkpt>
      <trkpt lat="48.2197" lon="-3.15927">
        <ele>145</ele>
        <time>2020-10-19T13:03:23.000Z</time>
      </trkpt>
      <trkpt lat="48.2197" lon="-3.15928">
        <ele>145</ele>
        <time>2020-10-19T13:03:24.000Z</time>
      </trkpt>
      <trkpt lat="48.21971" lon="-3.15928">
        <ele>145</ele>
        <time>2020-10-19T13:03:25.000Z</time>
      </trkpt>
      <trkpt lat="48.21971" lon="-3.15928">
        <ele>145</ele>
        <time>2020-10-19T13:03:26.000Z</time>
      </trkpt>
      <trkpt lat="48.21972" lon="-3.15928">
        <ele>145</ele>
        <time>2020-10-19T13:03:27.000Z</time>
      </trkpt>
      <trkpt lat="48.21971" lon="-3.15929">
        <ele>145</ele>
        <time>2020-10-19T13:03:28.000Z</time>
      </trkpt>
      <trkpt lat="48.21972" lon="-3.15929">
        <ele>144.80000305176</ele>
        <time>2020-10-19T13:03:29.000Z</time>
      </trkpt>
      <trkpt lat="48.21971" lon="-3.1593">
        <ele>144.80000305176</ele>
        <time>2020-10-19T13:03:30.000Z</time>
      </trkpt>
      <trkpt lat="48.21971" lon="-3.1593">
        <ele>144.80000305176</ele>
        <time>2020-10-19T13:03:31.000Z</time>
      </trkpt>
      <trkpt lat="48.21971" lon="-3.15929">
        <ele>144.80000305176</ele>
        <time>2020-10-19T13:03:32.000Z</time>
      </trkpt>
      <trkpt lat="48.2197" lon="-3.15929">
        <ele>144.80000305176</ele>
        <time>2020-10-19T13:03:33.000Z</time>
      </trkpt>
      <trkpt lat="48.2197" lon="-3.15929">
        <ele>145</ele>
        <time>2020-10-19T13:03:34.000Z</time>
      </trkpt>
      <trkpt lat="48.21971" lon="-3.15929">
        <ele>144.80000305176</ele>
        <time>2020-10-19T13:03:35.000Z</time>
      </trkpt>
      <trkpt lat="48.2197" lon="-3.15928">
        <ele>145</ele>
        <time>2020-10-19T13:03:36.000Z</time>
      </trkpt>
      <trkpt lat="48.2197" lon="-3.15927">
        <ele>145</ele>
        <time>2020-10-19T13:03:37.000Z</time>
      </trkpt>
      <trkpt lat="48.2197" lon="-3.15926">
        <ele>145</ele>
        <time>2020-10-19T13:03:38.000Z</time>
      </trkpt>
      <trkpt lat="48.2197" lon="-3.15925">
        <ele>145.19999694824</ele>
        <time>2020-10-19T13:03:39.000Z</time>
      </trkpt>
      <trkpt lat="48.2197" lon="-3.15924">
        <ele>145.19999694824</ele>
        <time>2020-10-19T13:03:40.000Z</time>
      </trkpt>
      <trkpt lat="48.21969" lon="-3.15923">
        <ele>145.39999389648</ele>
        <time>2020-10-19T13:03:41.000Z</time>
      </trkpt>
      <trkpt lat="48.2197" lon="-3.15922">
        <ele>145.39999389648</ele>
        <time>2020-10-19T13:03:42.000Z</time>
      </trkpt>
      <trkpt lat="48.2197" lon="-3.15921">
        <ele>145.60000610352</ele>
        <time>2020-10-19T13:03:43.000Z</time>
      </trkpt>
      <trkpt lat="48.21969" lon="-3.15919">
        <ele>145.60000610352</ele>
        <time>2020-10-19T13:03:44.000Z</time>
      </trkpt>
      <trkpt lat="48.21968" lon="-3.15918">
        <ele>145.60000610352</ele>
        <time>2020-10-19T13:03:45.000Z</time>
      </trkpt>
      <trkpt lat="48.21968" lon="-3.15917">
        <ele>145.80000305176</ele>
        <time>2020-10-19T13:03:46.000Z</time>
      </trkpt>
      <trkpt lat="48.21968" lon="-3.15916">
        <ele>145.80000305176</ele>
        <time>2020-10-19T13:03:47.000Z</time>
      </trkpt>
      <trkpt lat="48.21968" lon="-3.15915">
        <ele>146</ele>
        <time>2020-10-19T13:03:48.000Z</time>
      </trkpt>
      <trkpt lat="48.21967" lon="-3.15915">
        <ele>146</ele>
        <time>2020-10-19T13:03:49.000Z</time>
      </trkpt>
      <trkpt lat="48.21968" lon="-3.15914">
        <ele>146</ele>
        <time>2020-10-19T13:03:50.000Z</time>
      </trkpt>
      <trkpt lat="48.21967" lon="-3.15912">
        <ele>146.19999694824</ele>
        <time>2020-10-19T13:03:51.000Z</time>
      </trkpt>
      <trkpt lat="48.21967" lon="-3.15911">
        <ele>146.19999694824</ele>
        <time>2020-10-19T13:03:52.000Z</time>
      </trkpt>
      <trkpt lat="48.21967" lon="-3.1591">
        <ele>146.39999389648</ele>
        <time>2020-10-19T13:03:53.000Z</time>
      </trkpt>
      <trkpt lat="48.21968" lon="-3.15909">
        <ele>146.39999389648</ele>
        <time>2020-10-19T13:03:54.000Z</time>
      </trkpt>
      <trkpt lat="48.21968" lon="-3.15907">
        <ele>146.60000610352</ele>
        <time>2020-10-19T13:03:55.000Z</time>
      </trkpt>
      <trkpt lat="48.21968" lon="-3.15906">
        <ele>146.60000610352</ele>
        <time>2020-10-19T13:03:56.000Z</time>
      </trkpt>
      <trkpt lat="48.21968" lon="-3.15905">
        <ele>146.80000305176</ele>
        <time>2020-10-19T13:03:57.000Z</time>
      </trkpt>
      <trkpt lat="48.21968" lon="-3.15903">
        <ele>147</ele>
        <time>2020-10-19T13:03:58.000Z</time>
      </trkpt>
      <trkpt lat="48.21968" lon="-3.15903">
        <ele>147</ele>
        <time>2020-10-19T13:03:59.000Z</time>
      </trkpt>
      <trkpt lat="48.21969" lon="-3.15901">
        <ele>147.19999694824</ele>
        <time>2020-10-19T13:04:00.000Z</time>
      </trkpt>
      <trkpt lat="48.21969" lon="-3.15899">
        <ele>147.39999389648</ele>
        <time>2020-10-19T13:04:01.000Z</time>
      </trkpt>
      <trkpt lat="48.21969" lon="-3.15898">
        <ele>147.39999389648</ele>
        <time>2020-10-19T13:04:02.000Z</time>
      </trkpt>
      <trkpt lat="48.21968" lon="-3.15896">
        <ele>147.60000610352</ele>
        <time>2020-10-19T13:04:03.000Z</time>
      </trkpt>
      <trkpt lat="48.21969" lon="-3.15895">
        <ele>147.60000610352</ele>
        <time>2020-10-19T13:04:04.000Z</time>
      </trkpt>
      <trkpt lat="48.21969" lon="-3.15893">
        <ele>147.80000305176</ele>
        <time>2020-10-19T13:04:05.000Z</time>
      </trkpt>
      <trkpt lat="48.21969" lon="-3.15891">
        <ele>148</ele>
        <time>2020-10-19T13:04:06.000Z</time>
      </trkpt>
      <trkpt lat="48.21969" lon="-3.15889">
        <ele>148.19999694824</ele>
        <time>2020-10-19T13:04:07.000Z</time>
      </trkpt>
      <trkpt lat="48.21969" lon="-3.15888">
        <ele>148.19999694824</ele>
        <time>2020-10-19T13:04:08.000Z</time>
      </trkpt>
      <trkpt lat="48.21969" lon="-3.15887">
        <ele>148.39999389648</ele>
        <time>2020-10-19T13:04:09.000Z</time>
      </trkpt>
      <trkpt lat="48.21969" lon="-3.15885">
        <ele>148.60000610352</ele>
        <time>2020-10-19T13:04:10.000Z</time>
      </trkpt>
      <trkpt lat="48.21969" lon="-3.15884">
        <ele>148.80000305176</ele>
        <time>2020-10-19T13:04:11.000Z</time>
      </trkpt>
      <trkpt lat="48.21969" lon="-3.15883">
        <ele>149</ele>
        <time>2020-10-19T13:04:12.000Z</time>
      </trkpt>
      <trkpt lat="48.21968" lon="-3.15882">
        <ele>149.19999694824</ele>
        <time>2020-10-19T13:04:13.000Z</time>
      </trkpt>
      <trkpt lat="48.21968" lon="-3.15881">
        <ele>149.39999389648</ele>
        <time>2020-10-19T13:04:14.000Z</time>
      </trkpt>
      <trkpt lat="48.21967" lon="-3.1588">
        <ele>149.60000610352</ele>
        <time>2020-10-19T13:04:15.000Z</time>
      </trkpt>
      <trkpt lat="48.21967" lon="-3.15879">
        <ele>149.80000305176</ele>
        <time>2020-10-19T13:04:16.000Z</time>
      </trkpt>
      <trkpt lat="48.21966" lon="-3.15878">
        <ele>150</ele>
        <time>2020-10-19T13:04:17.000Z</time>
      </trkpt>
      <trkpt lat="48.21966" lon="-3.15877">
        <ele>150.19999694824</ele>
        <time>2020-10-19T13:04:18.000Z</time>
      </trkpt>
      <trkpt lat="48.21965" lon="-3.15877">
        <ele>150.19999694824</ele>
        <time>2020-10-19T13:04:19.000Z</time>
      </trkpt>
      <trkpt lat="48.21965" lon="-3.15876">
        <ele>150.39999389648</ele>
        <time>2020-10-19T13:04:20.000Z</time>
      </trkpt>
      <trkpt lat="48.21964" lon="-3.15876">
        <ele>150.39999389648</ele>
        <time>2020-10-19T13:04:21.000Z</time>
      </trkpt>
      <trkpt lat="48.21963" lon="-3.15875">
        <ele>150.60000610352</ele>
        <time>2020-10-19T13:04:22.000Z</time>
      </trkpt>
      <trkpt lat="48.21963" lon="-3.15875">
        <ele>150.60000610352</ele>
        <time>2020-10-19T13:04:23.000Z</time>
      </trkpt>
      <trkpt lat="48.21961" lon="-3.15873">
        <ele>151</ele>
        <time>2020-10-19T13:04:24.000Z</time>
      </trkpt>
      <trkpt lat="48.21961" lon="-3.15873">
        <ele>151</ele>
        <time>2020-10-19T13:04:25.000Z</time>
      </trkpt>
      <trkpt lat="48.2196" lon="-3.15873">
        <ele>151.19999694824</ele>
        <time>2020-10-19T13:04:26.000Z</time>
      </trkpt>
      <trkpt lat="48.2196" lon="-3.15872">
        <ele>151.19999694824</ele>
        <time>2020-10-19T13:04:27.000Z</time>
      </trkpt>
      <trkpt lat="48.21959" lon="-3.15871">
        <ele>151.39999389648</ele>
        <time>2020-10-19T13:04:28.000Z</time>
      </trkpt>
      <trkpt lat="48.21959" lon="-3.1587">
        <ele>151.60000610352</ele>
        <time>2020-10-19T13:04:29.000Z</time>
      </trkpt>
      <trkpt lat="48.21958" lon="-3.15868">
        <ele>152</ele>
        <time>2020-10-19T13:04:30.000Z</time>
      </trkpt>
      <trkpt lat="48.21957" lon="-3.15867">
        <ele>152.19999694824</ele>
        <time>2020-10-19T13:04:31.000Z</time>
      </trkpt>
      <trkpt lat="48.21957" lon="-3.15866">
        <ele>152.39999389648</ele>
        <time>2020-10-19T13:04:32.000Z</time>
      </trkpt>
      <trkpt lat="48.21956" lon="-3.15865">
        <ele>152.39999389648</ele>
        <time>2020-10-19T13:04:33.000Z</time>
      </trkpt>
      <trkpt lat="48.21956" lon="-3.15864">
        <ele>152.60000610352</ele>
        <time>2020-10-19T13:04:34.000Z</time>
      </trkpt>
      <trkpt lat="48.21956" lon="-3.15863">
        <ele>152.80000305176</ele>
        <time>2020-10-19T13:04:35.000Z</time>
      </trkpt>
      <trkpt lat="48.21955" lon="-3.15862">
        <ele>153</ele>
        <time>2020-10-19T13:04:36.000Z</time>
      </trkpt>
      <trkpt lat="48.21955" lon="-3.15862">
        <ele>153.19999694824</ele>
        <time>2020-10-19T13:04:37.000Z</time>
      </trkpt>
      <trkpt lat="48.21955" lon="-3.15861">
        <ele>153.19999694824</ele>
        <time>2020-10-19T13:04:38.000Z</time>
      </trkpt>
      <trkpt lat="48.21955" lon="-3.1586">
        <ele>153.39999389648</ele>
        <time>2020-10-19T13:04:39.000Z</time>
      </trkpt>
      <trkpt lat="48.21954" lon="-3.1586">
        <ele>153.39999389648</ele>
        <time>2020-10-19T13:04:40.000Z</time>
      </trkpt>
      <trkpt lat="48.21954" lon="-3.15859">
        <ele>153.60000610352</ele>
        <time>2020-10-19T13:04:41.000Z</time>
      </trkpt>
      <trkpt lat="48.21953" lon="-3.15858">
        <ele>153.80000305176</ele>
        <time>2020-10-19T13:04:42.000Z</time>
      </trkpt>
      <trkpt lat="48.21953" lon="-3.15857">
        <ele>154</ele>
        <time>2020-10-19T13:04:43.000Z</time>
      </trkpt>
      <trkpt lat="48.21953" lon="-3.15856">
        <ele>154.19999694824</ele>
        <time>2020-10-19T13:04:44.000Z</time>
      </trkpt>
      <trkpt lat="48.21953" lon="-3.15856">
        <ele>154.19999694824</ele>
        <time>2020-10-19T13:04:45.000Z</time>
      </trkpt>
      <trkpt lat="48.21952" lon="-3.15855">
        <ele>154.39999389648</ele>
        <time>2020-10-19T13:04:46.000Z</time>
      </trkpt>
      <trkpt lat="48.21952" lon="-3.15854">
        <ele>154.60000610352</ele>
        <time>2020-10-19T13:04:47.000Z</time>
      </trkpt>
      <trkpt lat="48.21952" lon="-3.15853">
        <ele>154.80000305176</ele>
        <time>2020-10-19T13:04:48.000Z</time>
      </trkpt>
      <trkpt lat="48.21952" lon="-3.15852">
        <ele>155</ele>
        <time>2020-10-19T13:04:49.000Z</time>
      </trkpt>
      <trkpt lat="48.21952" lon="-3.1585">
        <ele>155.19999694824</ele>
        <time>2020-10-19T13:04:50.000Z</time>
      </trkpt>
      <trkpt lat="48.21952" lon="-3.15849">
        <ele>155.39999389648</ele>
        <time>2020-10-19T13:04:51.000Z</time>
      </trkpt>
      <trkpt lat="48.21952" lon="-3.15848">
        <ele>155.39999389648</ele>
        <time>2020-10-19T13:04:52.000Z</time>
      </trkpt>
      <trkpt lat="48.21951" lon="-3.15847">
        <ele>155.60000610352</ele>
        <time>2020-10-19T13:04:53.000Z</time>
      </trkpt>
      <trkpt lat="48.21951" lon="-3.15846">
        <ele>156</ele>
        <time>2020-10-19T13:04:54.000Z</time>
      </trkpt>
      <trkpt lat="48.21951" lon="-3.15845">
        <ele>156.19999694824</ele>
        <time>2020-10-19T13:04:55.000Z</time>
      </trkpt>
      <trkpt lat="48.21951" lon="-3.15844">
        <ele>156.19999694824</ele>
        <time>2020-10-19T13:04:56.000Z</time>
      </trkpt>
      <trkpt lat="48.2195" lon="-3.15843">
        <ele>156.39999389648</ele>
        <time>2020-10-19T13:04:57.000Z</time>
      </trkpt>
      <trkpt lat="48.2195" lon="-3.15843">
        <ele>156.39999389648</ele>
        <time>2020-10-19T13:04:58.000Z</time>
      </trkpt>
      <trkpt lat="48.21949" lon="-3.15842">
        <ele>156.60000610352</ele>
        <time>2020-10-19T13:04:59.000Z</time>
      </trkpt>
      <trkpt lat="48.21949" lon="-3.15841">
        <ele>156.60000610352</ele>
        <time>2020-10-19T13:05:00.000Z</time>
      </trkpt>
      <trkpt lat="48.21948" lon="-3.1584">
        <ele>156.80000305176</ele>
        <time>2020-10-19T13:05:01.000Z</time>
      </trkpt>
      <trkpt lat="48.21947" lon="-3.15839">
        <ele>157</ele>
        <time>2020-10-19T13:05:02.000Z</time>
      </trkpt>
      <trkpt lat="48.21947" lon="-3.15838">
        <ele>157</ele>
        <time>2020-10-19T13:05:03.000Z</time>
      </trkpt>
      <trkpt lat="48.21946" lon="-3.15837">
        <ele>157.19999694824</ele>
        <time>2020-10-19T13:05:04.000Z</time>
      </trkpt>
      <trkpt lat="48.21946" lon="-3.15837">
        <ele>157.19999694824</ele>
        <time>2020-10-19T13:05:05.000Z</time>
      </trkpt>
      <trkpt lat="48.21945" lon="-3.15836">
        <ele>157.39999389648</ele>
        <time>2020-10-19T13:05:06.000Z</time>
      </trkpt>
      <trkpt lat="48.21944" lon="-3.15836">
        <ele>157.39999389648</ele>
        <time>2020-10-19T13:05:07.000Z</time>
      </trkpt>
      <trkpt lat="48.21943" lon="-3.15835">
        <ele>157.39999389648</ele>
        <time>2020-10-19T13:05:08.000Z</time>
      </trkpt>
      <trkpt lat="48.21943" lon="-3.15835">
        <ele>157.39999389648</ele>
        <time>2020-10-19T13:05:09.000Z</time>
      </trkpt>
      <trkpt lat="48.21942" lon="-3.15835">
        <ele>157.60000610352</ele>
        <time>2020-10-19T13:05:10.000Z</time>
      </trkpt>
      <trkpt lat="48.21941" lon="-3.15835">
        <ele>157.60000610352</ele>
        <time>2020-10-19T13:05:11.000Z</time>
      </trkpt>
      <trkpt lat="48.2194" lon="-3.15834">
        <ele>157.80000305176</ele>
        <time>2020-10-19T13:05:12.000Z</time>
      </trkpt>
      <trkpt lat="48.2194" lon="-3.15834">
        <ele>157.80000305176</ele>
        <time>2020-10-19T13:05:13.000Z</time>
      </trkpt>
      <trkpt lat="48.21939" lon="-3.15833">
        <ele>157.80000305176</ele>
        <time>2020-10-19T13:05:14.000Z</time>
      </trkpt>
      <trkpt lat="48.21939" lon="-3.15832">
        <ele>158</ele>
        <time>2020-10-19T13:05:15.000Z</time>
      </trkpt>
      <trkpt lat="48.21938" lon="-3.15832">
        <ele>158.19999694824</ele>
        <time>2020-10-19T13:05:16.000Z</time>
      </trkpt>
      <trkpt lat="48.21938" lon="-3.15831">
        <ele>158.19999694824</ele>
        <time>2020-10-19T13:05:17.000Z</time>
      </trkpt>
      <trkpt lat="48.21938" lon="-3.1583">
        <ele>158.39999389648</ele>
        <time>2020-10-19T13:05:18.000Z</time>
      </trkpt>
      <trkpt lat="48.21938" lon="-3.15829">
        <ele>158.39999389648</ele>
        <time>2020-10-19T13:05:19.000Z</time>
      </trkpt>
      <trkpt lat="48.21937" lon="-3.15829">
        <ele>158.60000610352</ele>
        <time>2020-10-19T13:05:20.000Z</time>
      </trkpt>
      <trkpt lat="48.21937" lon="-3.15827">
        <ele>158.80000305176</ele>
        <time>2020-10-19T13:05:21.000Z</time>
      </trkpt>
      <trkpt lat="48.21937" lon="-3.15826">
        <ele>159</ele>
        <time>2020-10-19T13:05:22.000Z</time>
      </trkpt>
      <trkpt lat="48.21937" lon="-3.15825">
        <ele>159.19999694824</ele>
        <time>2020-10-19T13:05:23.000Z</time>
      </trkpt>
      <trkpt lat="48.21936" lon="-3.15824">
        <ele>159.19999694824</ele>
        <time>2020-10-19T13:05:24.000Z</time>
      </trkpt>
      <trkpt lat="48.21936" lon="-3.15824">
        <ele>159.39999389648</ele>
        <time>2020-10-19T13:05:25.000Z</time>
      </trkpt>
      <trkpt lat="48.21936" lon="-3.15823">
        <ele>159.60000610352</ele>
        <time>2020-10-19T13:05:26.000Z</time>
      </trkpt>
      <trkpt lat="48.21935" lon="-3.15822">
        <ele>159.60000610352</ele>
        <time>2020-10-19T13:05:27.000Z</time>
      </trkpt>
      <trkpt lat="48.21935" lon="-3.15822">
        <ele>159.80000305176</ele>
        <time>2020-10-19T13:05:28.000Z</time>
      </trkpt>
      <trkpt lat="48.21935" lon="-3.15821">
        <ele>159.80000305176</ele>
        <time>2020-10-19T13:05:29.000Z</time>
      </trkpt>
      <trkpt lat="48.21935" lon="-3.15821">
        <ele>160</ele>
        <time>2020-10-19T13:05:30.000Z</time>
      </trkpt>
      <trkpt lat="48.21934" lon="-3.1582">
        <ele>160</ele>
        <time>2020-10-19T13:05:31.000Z</time>
      </trkpt>
      <trkpt lat="48.21934" lon="-3.1582">
        <ele>160.19999694824</ele>
        <time>2020-10-19T13:05:32.000Z</time>
      </trkpt>
      <trkpt lat="48.21933" lon="-3.15819">
        <ele>160.19999694824</ele>
        <time>2020-10-19T13:05:33.000Z</time>
      </trkpt>
      <trkpt lat="48.21933" lon="-3.15819">
        <ele>160.39999389648</ele>
        <time>2020-10-19T13:05:34.000Z</time>
      </trkpt>
      <trkpt lat="48.21932" lon="-3.15819">
        <ele>160.39999389648</ele>
        <time>2020-10-19T13:05:35.000Z</time>
      </trkpt>
      <trkpt lat="48.21932" lon="-3.15818">
        <ele>160.39999389648</ele>
        <time>2020-10-19T13:05:36.000Z</time>
      </trkpt>
      <trkpt lat="48.21931" lon="-3.15818">
        <ele>160.60000610352</ele>
        <time>2020-10-19T13:05:37.000Z</time>
      </trkpt>
      <trkpt lat="48.2193" lon="-3.15818">
        <ele>160.60000610352</ele>
        <time>2020-10-19T13:05:38.000Z</time>
      </trkpt>
      <trkpt lat="48.2193" lon="-3.15817">
        <ele>160.80000305176</ele>
        <time>2020-10-19T13:05:39.000Z</time>
      </trkpt>
      <trkpt lat="48.21929" lon="-3.15817">
        <ele>160.80000305176</ele>
        <time>2020-10-19T13:05:40.000Z</time>
      </trkpt>
      <trkpt lat="48.21929" lon="-3.15816">
        <ele>161</ele>
        <time>2020-10-19T13:05:41.000Z</time>
      </trkpt>
      <trkpt lat="48.21928" lon="-3.15816">
        <ele>161.19999694824</ele>
        <time>2020-10-19T13:05:42.000Z</time>
      </trkpt>
      <trkpt lat="48.21928" lon="-3.15815">
        <ele>161.39999389648</ele>
        <time>2020-10-19T13:05:43.000Z</time>
      </trkpt>
      <trkpt lat="48.21928" lon="-3.15815">
        <ele>161.60000610352</ele>
        <time>2020-10-19T13:05:44.000Z</time>
      </trkpt>
      <trkpt lat="48.21927" lon="-3.15814">
        <ele>161.60000610352</ele>
        <time>2020-10-19T13:05:45.000Z</time>
      </trkpt>
      <trkpt lat="48.21926" lon="-3.15813">
        <ele>162</ele>
        <time>2020-10-19T13:05:46.000Z</time>
      </trkpt>
      <trkpt lat="48.21926" lon="-3.15812">
        <ele>162.19999694824</ele>
        <time>2020-10-19T13:05:47.000Z</time>
      </trkpt>
      <trkpt lat="48.21925" lon="-3.15811">
        <ele>162.39999389648</ele>
        <time>2020-10-19T13:05:48.000Z</time>
      </trkpt>
      <trkpt lat="48.21924" lon="-3.15811">
        <ele>162.80000305176</ele>
        <time>2020-10-19T13:05:49.000Z</time>
      </trkpt>
      <trkpt lat="48.21924" lon="-3.1581">
        <ele>163</ele>
        <time>2020-10-19T13:05:50.000Z</time>
      </trkpt>
      <trkpt lat="48.21923" lon="-3.1581">
        <ele>163</ele>
        <time>2020-10-19T13:05:51.000Z</time>
      </trkpt>
      <trkpt lat="48.21923" lon="-3.15809">
        <ele>163.19999694824</ele>
        <time>2020-10-19T13:05:52.000Z</time>
      </trkpt>
      <trkpt lat="48.21922" lon="-3.15808">
        <ele>163.60000610352</ele>
        <time>2020-10-19T13:05:53.000Z</time>
      </trkpt>
      <trkpt lat="48.21921" lon="-3.15807">
        <ele>164</ele>
        <time>2020-10-19T13:05:54.000Z</time>
      </trkpt>
      <trkpt lat="48.21921" lon="-3.15807">
        <ele>164</ele>
        <time>2020-10-19T13:05:55.000Z</time>
      </trkpt>
      <trkpt lat="48.21921" lon="-3.15806">
        <ele>164</ele>
        <time>2020-10-19T13:05:56.000Z</time>
      </trkpt>
      <trkpt lat="48.2192" lon="-3.15805">
        <ele>164.19999694824</ele>
        <time>2020-10-19T13:05:57.000Z</time>
      </trkpt>
      <trkpt lat="48.2192" lon="-3.15805">
        <ele>164.60000610352</ele>
        <time>2020-10-19T13:05:58.000Z</time>
      </trkpt>
      <trkpt lat="48.21919" lon="-3.15804">
        <ele>164.80000305176</ele>
        <time>2020-10-19T13:05:59.000Z</time>
      </trkpt>
      <trkpt lat="48.21919" lon="-3.15804">
        <ele>164.80000305176</ele>
        <time>2020-10-19T13:06:00.000Z</time>
      </trkpt>
      <trkpt lat="48.21918" lon="-3.15803">
        <ele>165</ele>
        <time>2020-10-19T13:06:01.000Z</time>
      </trkpt>
      <trkpt lat="48.21917" lon="-3.15803">
        <ele>165.19999694824</ele>
        <time>2020-10-19T13:06:02.000Z</time>
      </trkpt>
      <trkpt lat="48.21917" lon="-3.15803">
        <ele>165.39999389648</ele>
        <time>2020-10-19T13:06:03.000Z</time>
      </trkpt>
      <trkpt lat="48.21916" lon="-3.15802">
        <ele>165.60000610352</ele>
        <time>2020-10-19T13:06:04.000Z</time>
      </trkpt>
      <trkpt lat="48.21915" lon="-3.15802">
        <ele>165.80000305176</ele>
        <time>2020-10-19T13:06:05.000Z</time>
      </trkpt>
      <trkpt lat="48.21915" lon="-3.15802">
        <ele>166</ele>
        <time>2020-10-19T13:06:06.000Z</time>
      </trkpt>
      <trkpt lat="48.21914" lon="-3.15801">
        <ele>166.19999694824</ele>
        <time>2020-10-19T13:06:07.000Z</time>
      </trkpt>
      <trkpt lat="48.21913" lon="-3.158">
        <ele>166.39999389648</ele>
        <time>2020-10-19T13:06:08.000Z</time>
      </trkpt>
      <trkpt lat="48.21913" lon="-3.15799">
        <ele>166.80000305176</ele>
        <time>2020-10-19T13:06:09.000Z</time>
      </trkpt>
      <trkpt lat="48.21912" lon="-3.15799">
        <ele>167</ele>
        <time>2020-10-19T13:06:10.000Z</time>
      </trkpt>
      <trkpt lat="48.21911" lon="-3.15799">
        <ele>167</ele>
        <time>2020-10-19T13:06:11.000Z</time>
      </trkpt>
      <trkpt lat="48.21911" lon="-3.15799">
        <ele>167.19999694824</ele>
        <time>2020-10-19T13:06:12.000Z</time>
      </trkpt>
      <trkpt lat="48.21911" lon="-3.15798">
        <ele>167.39999389648</ele>
        <time>2020-10-19T13:06:13.000Z</time>
      </trkpt>
      <trkpt lat="48.2191" lon="-3.15798">
        <ele>167.60000610352</ele>
        <time>2020-10-19T13:06:14.000Z</time>
      </trkpt>
      <trkpt lat="48.21909" lon="-3.15797">
        <ele>167.60000610352</ele>
        <time>2020-10-19T13:06:15.000Z</time>
      </trkpt>
      <trkpt lat="48.21909" lon="-3.15797">
        <ele>167.80000305176</ele>
        <time>2020-10-19T13:06:16.000Z</time>
      </trkpt>
      <trkpt lat="48.21908" lon="-3.15797">
        <ele>168</ele>
        <time>2020-10-19T13:06:17.000Z</time>
      </trkpt>
      <trkpt lat="48.21907" lon="-3.15796">
        <ele>168.39999389648</ele>
        <time>2020-10-19T13:06:18.000Z</time>
      </trkpt>
      <trkpt lat="48.21907" lon="-3.15795">
        <ele>168.60000610352</ele>
        <time>2020-10-19T13:06:19.000Z</time>
      </trkpt>
      <trkpt lat="48.21906" lon="-3.15795">
        <ele>168.80000305176</ele>
        <time>2020-10-19T13:06:20.000Z</time>
      </trkpt>
      <trkpt lat="48.21905" lon="-3.15794">
        <ele>169</ele>
        <time>2020-10-19T13:06:21.000Z</time>
      </trkpt>
      <trkpt lat="48.21905" lon="-3.15793">
        <ele>169.19999694824</ele>
        <time>2020-10-19T13:06:22.000Z</time>
      </trkpt>
      <trkpt lat="48.21904" lon="-3.15793">
        <ele>169.39999389648</ele>
        <time>2020-10-19T13:06:23.000Z</time>
      </trkpt>
      <trkpt lat="48.21903" lon="-3.15791">
        <ele>169.80000305176</ele>
        <time>2020-10-19T13:06:24.000Z</time>
      </trkpt>
      <trkpt lat="48.21903" lon="-3.15791">
        <ele>169.80000305176</ele>
        <time>2020-10-19T13:06:25.000Z</time>
      </trkpt>
      <trkpt lat="48.21902" lon="-3.15791">
        <ele>170.19999694824</ele>
        <time>2020-10-19T13:06:26.000Z</time>
      </trkpt>
      <trkpt lat="48.21902" lon="-3.1579">
        <ele>170.39999389648</ele>
        <time>2020-10-19T13:06:27.000Z</time>
      </trkpt>
      <trkpt lat="48.21901" lon="-3.1579">
        <ele>170.60000610352</ele>
        <time>2020-10-19T13:06:28.000Z</time>
      </trkpt>
      <trkpt lat="48.219" lon="-3.15789">
        <ele>170.60000610352</ele>
        <time>2020-10-19T13:06:29.000Z</time>
      </trkpt>
      <trkpt lat="48.219" lon="-3.15789">
        <ele>170.80000305176</ele>
        <time>2020-10-19T13:06:30.000Z</time>
      </trkpt>
      <trkpt lat="48.219" lon="-3.15789">
        <ele>171</ele>
        <time>2020-10-19T13:06:31.000Z</time>
      </trkpt>
      <trkpt lat="48.21899" lon="-3.15788">
        <ele>171</ele>
        <time>2020-10-19T13:06:32.000Z</time>
      </trkpt>
      <trkpt lat="48.21899" lon="-3.15788">
        <ele>171.19999694824</ele>
        <time>2020-10-19T13:06:33.000Z</time>
      </trkpt>
      <trkpt lat="48.21898" lon="-3.15788">
        <ele>171.39999389648</ele>
        <time>2020-10-19T13:06:34.000Z</time>
      </trkpt>
      <trkpt lat="48.21897" lon="-3.15788">
        <ele>171.39999389648</ele>
        <time>2020-10-19T13:06:35.000Z</time>
      </trkpt>
      <trkpt lat="48.21897" lon="-3.15787">
        <ele>171.60000610352</ele>
        <time>2020-10-19T13:06:36.000Z</time>
      </trkpt>
      <trkpt lat="48.21896" lon="-3.15787">
        <ele>171.80000305176</ele>
        <time>2020-10-19T13:06:37.000Z</time>
      </trkpt>
      <trkpt lat="48.21896" lon="-3.15787">
        <ele>171.80000305176</ele>
        <time>2020-10-19T13:06:38.000Z</time>
      </trkpt>
      <trkpt lat="48.21895" lon="-3.15786">
        <ele>172</ele>
        <time>2020-10-19T13:06:39.000Z</time>
      </trkpt>
      <trkpt lat="48.21895" lon="-3.15786">
        <ele>172.19999694824</ele>
        <time>2020-10-19T13:06:40.000Z</time>
      </trkpt>
      <trkpt lat="48.21894" lon="-3.15785">
        <ele>172.39999389648</ele>
        <time>2020-10-19T13:06:41.000Z</time>
      </trkpt>
      <trkpt lat="48.21893" lon="-3.15785">
        <ele>172.60000610352</ele>
        <time>2020-10-19T13:06:42.000Z</time>
      </trkpt>
      <trkpt lat="48.21893" lon="-3.15784">
        <ele>172.80000305176</ele>
        <time>2020-10-19T13:06:43.000Z</time>
      </trkpt>
      <trkpt lat="48.21892" lon="-3.15784">
        <ele>173</ele>
        <time>2020-10-19T13:06:44.000Z</time>
      </trkpt>
      <trkpt lat="48.21891" lon="-3.15783">
        <ele>173.19999694824</ele>
        <time>2020-10-19T13:06:45.000Z</time>
      </trkpt>
      <trkpt lat="48.21891" lon="-3.15783">
        <ele>173.39999389648</ele>
        <time>2020-10-19T13:06:46.000Z</time>
      </trkpt>
      <trkpt lat="48.2189" lon="-3.15782">
        <ele>173.60000610352</ele>
        <time>2020-10-19T13:06:47.000Z</time>
      </trkpt>
      <trkpt lat="48.2189" lon="-3.15782">
        <ele>173.80000305176</ele>
        <time>2020-10-19T13:06:48.000Z</time>
      </trkpt>
      <trkpt lat="48.21889" lon="-3.15781">
        <ele>173.80000305176</ele>
        <time>2020-10-19T13:06:49.000Z</time>
      </trkpt>
      <trkpt lat="48.21889" lon="-3.15781">
        <ele>174</ele>
        <time>2020-10-19T13:06:50.000Z</time>
      </trkpt>
      <trkpt lat="48.21888" lon="-3.15781">
        <ele>174.19999694824</ele>
        <time>2020-10-19T13:06:51.000Z</time>
      </trkpt>
      <trkpt lat="48.21888" lon="-3.1578">
        <ele>174.39999389648</ele>
        <time>2020-10-19T13:06:52.000Z</time>
      </trkpt>
      <trkpt lat="48.21887" lon="-3.1578">
        <ele>174.60000610352</ele>
        <time>2020-10-19T13:06:53.000Z</time>
      </trkpt>
      <trkpt lat="48.21886" lon="-3.15779">
        <ele>174.60000610352</ele>
        <time>2020-10-19T13:06:54.000Z</time>
      </trkpt>
      <trkpt lat="48.21886" lon="-3.15779">
        <ele>174.80000305176</ele>
        <time>2020-10-19T13:06:55.000Z</time>
      </trkpt>
      <trkpt lat="48.21885" lon="-3.15779">
        <ele>175</ele>
        <time>2020-10-19T13:06:56.000Z</time>
      </trkpt>
      <trkpt lat="48.21884" lon="-3.15778">
        <ele>175.19999694824</ele>
        <time>2020-10-19T13:06:57.000Z</time>
      </trkpt>
      <trkpt lat="48.21883" lon="-3.15778">
        <ele>175.60000610352</ele>
        <time>2020-10-19T13:06:58.000Z</time>
      </trkpt>
      <trkpt lat="48.21883" lon="-3.15777">
        <ele>175.80000305176</ele>
        <time>2020-10-19T13:06:59.000Z</time>
      </trkpt>
      <trkpt lat="48.21882" lon="-3.15777">
        <ele>176</ele>
        <time>2020-10-19T13:07:00.000Z</time>
      </trkpt>
      <trkpt lat="48.21881" lon="-3.15776">
        <ele>176</ele>
        <time>2020-10-19T13:07:01.000Z</time>
      </trkpt>
      <trkpt lat="48.21881" lon="-3.15776">
        <ele>176.19999694824</ele>
        <time>2020-10-19T13:07:02.000Z</time>
      </trkpt>
      <trkpt lat="48.2188" lon="-3.15776">
        <ele>176.39999389648</ele>
        <time>2020-10-19T13:07:03.000Z</time>
      </trkpt>
      <trkpt lat="48.2188" lon="-3.15775">
        <ele>176.39999389648</ele>
        <time>2020-10-19T13:07:04.000Z</time>
      </trkpt>
      <trkpt lat="48.21879" lon="-3.15775">
        <ele>176.60000610352</ele>
        <time>2020-10-19T13:07:05.000Z</time>
      </trkpt>
      <trkpt lat="48.21879" lon="-3.15774">
        <ele>176.80000305176</ele>
        <time>2020-10-19T13:07:06.000Z</time>
      </trkpt>
      <trkpt lat="48.21878" lon="-3.15774">
        <ele>177</ele>
        <time>2020-10-19T13:07:07.000Z</time>
      </trkpt>
      <trkpt lat="48.21878" lon="-3.15773">
        <ele>177.19999694824</ele>
        <time>2020-10-19T13:07:08.000Z</time>
      </trkpt>
      <trkpt lat="48.21877" lon="-3.15773">
        <ele>177.39999389648</ele>
        <time>2020-10-19T13:07:09.000Z</time>
      </trkpt>
      <trkpt lat="48.21877" lon="-3.15773">
        <ele>177.39999389648</ele>
        <time>2020-10-19T13:07:10.000Z</time>
      </trkpt>
      <trkpt lat="48.21876" lon="-3.15772">
        <ele>177.60000610352</ele>
        <time>2020-10-19T13:07:11.000Z</time>
      </trkpt>
      <trkpt lat="48.21875" lon="-3.15772">
        <ele>177.80000305176</ele>
        <time>2020-10-19T13:07:12.000Z</time>
      </trkpt>
      <trkpt lat="48.21875" lon="-3.15772">
        <ele>177.80000305176</ele>
        <time>2020-10-19T13:07:13.000Z</time>
      </trkpt>
      <trkpt lat="48.21875" lon="-3.15772">
        <ele>178</ele>
        <time>2020-10-19T13:07:14.000Z</time>
      </trkpt>
      <trkpt lat="48.21874" lon="-3.15771">
        <ele>178.19999694824</ele>
        <time>2020-10-19T13:07:15.000Z</time>
      </trkpt>
      <trkpt lat="48.21873" lon="-3.15771">
        <ele>178.19999694824</ele>
        <time>2020-10-19T13:07:16.000Z</time>
      </trkpt>
      <trkpt lat="48.21873" lon="-3.1577">
        <ele>178.39999389648</ele>
        <time>2020-10-19T13:07:17.000Z</time>
      </trkpt>
      <trkpt lat="48.21873" lon="-3.1577">
        <ele>178.60000610352</ele>
        <time>2020-10-19T13:07:18.000Z</time>
      </trkpt>
      <trkpt lat="48.21872" lon="-3.1577">
        <ele>178.60000610352</ele>
        <time>2020-10-19T13:07:19.000Z</time>
      </trkpt>
      <trkpt lat="48.21872" lon="-3.15769">
        <ele>178.80000305176</ele>
        <time>2020-10-19T13:07:20.000Z</time>
      </trkpt>
      <trkpt lat="48.21872" lon="-3.15769">
        <ele>178.80000305176</ele>
        <time>2020-10-19T13:07:21.000Z</time>
      </trkpt>
      <trkpt lat="48.21871" lon="-3.15769">
        <ele>179</ele>
        <time>2020-10-19T13:07:22.000Z</time>
      </trkpt>
      <trkpt lat="48.2187" lon="-3.15768">
        <ele>179.19999694824</ele>
        <time>2020-10-19T13:07:23.000Z</time>
      </trkpt>
      <trkpt lat="48.2187" lon="-3.15768">
        <ele>179.39999389648</ele>
        <time>2020-10-19T13:07:24.000Z</time>
      </trkpt>
      <trkpt lat="48.21869" lon="-3.15767">
        <ele>179.60000610352</ele>
        <time>2020-10-19T13:07:25.000Z</time>
      </trkpt>
      <trkpt lat="48.21869" lon="-3.15767">
        <ele>179.80000305176</ele>
        <time>2020-10-19T13:07:26.000Z</time>
      </trkpt>
      <trkpt lat="48.21868" lon="-3.15766">
        <ele>179.80000305176</ele>
        <time>2020-10-19T13:07:27.000Z</time>
      </trkpt>
      <trkpt lat="48.21868" lon="-3.15766">
        <ele>180</ele>
        <time>2020-10-19T13:07:28.000Z</time>
      </trkpt>
      <trkpt lat="48.21867" lon="-3.15765">
        <ele>180.19999694824</ele>
        <time>2020-10-19T13:07:29.000Z</time>
      </trkpt>
      <trkpt lat="48.21867" lon="-3.15765">
        <ele>180.39999389648</ele>
        <time>2020-10-19T13:07:30.000Z</time>
      </trkpt>
      <trkpt lat="48.21866" lon="-3.15765">
        <ele>180.39999389648</ele>
        <time>2020-10-19T13:07:31.000Z</time>
      </trkpt>
      <trkpt lat="48.21866" lon="-3.15765">
        <ele>180.60000610352</ele>
        <time>2020-10-19T13:07:32.000Z</time>
      </trkpt>
      <trkpt lat="48.21865" lon="-3.15764">
        <ele>180.80000305176</ele>
        <time>2020-10-19T13:07:33.000Z</time>
      </trkpt>
      <trkpt lat="48.21865" lon="-3.15764">
        <ele>181</ele>
        <time>2020-10-19T13:07:34.000Z</time>
      </trkpt>
      <trkpt lat="48.21864" lon="-3.15763">
        <ele>181</ele>
        <time>2020-10-19T13:07:35.000Z</time>
      </trkpt>
      <trkpt lat="48.21864" lon="-3.15763">
        <ele>181.19999694824</ele>
        <time>2020-10-19T13:07:36.000Z</time>
      </trkpt>
      <trkpt lat="48.21864" lon="-3.15763">
        <ele>181.19999694824</ele>
        <time>2020-10-19T13:07:37.000Z</time>
      </trkpt>
      <trkpt lat="48.21863" lon="-3.15763">
        <ele>181.39999389648</ele>
        <time>2020-10-19T13:07:38.000Z</time>
      </trkpt>
      <trkpt lat="48.21863" lon="-3.15763">
        <ele>181.39999389648</ele>
        <time>2020-10-19T13:07:39.000Z</time>
      </trkpt>
      <trkpt lat="48.21863" lon="-3.15762">
        <ele>181.39999389648</ele>
        <time>2020-10-19T13:07:40.000Z</time>
      </trkpt>
      <trkpt lat="48.21862" lon="-3.15763">
        <ele>181.60000610352</ele>
        <time>2020-10-19T13:07:41.000Z</time>
      </trkpt>
      <trkpt lat="48.21862" lon="-3.15763">
        <ele>181.60000610352</ele>
        <time>2020-10-19T13:07:42.000Z</time>
      </trkpt>
      <trkpt lat="48.21861" lon="-3.15763">
        <ele>181.80000305176</ele>
        <time>2020-10-19T13:07:43.000Z</time>
      </trkpt>
      <trkpt lat="48.21861" lon="-3.15763">
        <ele>181.80000305176</ele>
        <time>2020-10-19T13:07:44.000Z</time>
      </trkpt>
      <trkpt lat="48.2186" lon="-3.15762">
        <ele>182</ele>
        <time>2020-10-19T13:07:45.000Z</time>
      </trkpt>
      <trkpt lat="48.21861" lon="-3.15762">
        <ele>182</ele>
        <time>2020-10-19T13:07:46.000Z</time>
      </trkpt>
      <trkpt lat="48.21861" lon="-3.15761">
        <ele>182</ele>
        <time>2020-10-19T13:07:47.000Z</time>
      </trkpt>
      <trkpt lat="48.21861" lon="-3.1576">
        <ele>182.19999694824</ele>
        <time>2020-10-19T13:07:48.000Z</time>
      </trkpt>
      <trkpt lat="48.2186" lon="-3.1576">
        <ele>182.19999694824</ele>
        <time>2020-10-19T13:07:49.000Z</time>
      </trkpt>
      <trkpt lat="48.2186" lon="-3.1576">
        <ele>182.19999694824</ele>
        <time>2020-10-19T13:07:50.000Z</time>
      </trkpt>
      <trkpt lat="48.21861" lon="-3.1576">
        <ele>182.19999694824</ele>
        <time>2020-10-19T13:07:51.000Z</time>
      </trkpt>
      <trkpt lat="48.2186" lon="-3.1576">
        <ele>182.19999694824</ele>
        <time>2020-10-19T13:07:52.000Z</time>
      </trkpt>
      <trkpt lat="48.2186" lon="-3.15759">
        <ele>182.19999694824</ele>
        <time>2020-10-19T13:07:53.000Z</time>
      </trkpt>
      <trkpt lat="48.21861" lon="-3.15759">
        <ele>182.19999694824</ele>
        <time>2020-10-19T13:07:54.000Z</time>
      </trkpt>
      <trkpt lat="48.21861" lon="-3.15759">
        <ele>182.19999694824</ele>
        <time>2020-10-19T13:07:55.000Z</time>
      </trkpt>
      <trkpt lat="48.21861" lon="-3.1576">
        <ele>182.19999694824</ele>
        <time>2020-10-19T13:07:56.000Z</time>
      </trkpt>
      <trkpt lat="48.21861" lon="-3.1576">
        <ele>182.19999694824</ele>
        <time>2020-10-19T13:07:57.000Z</time>
      </trkpt>
      <trkpt lat="48.21861" lon="-3.1576">
        <ele>182.19999694824</ele>
        <time>2020-10-19T13:07:58.000Z</time>
      </trkpt>
      <trkpt lat="48.21861" lon="-3.1576">
        <ele>182</ele>
        <time>2020-10-19T13:07:59.000Z</time>
      </trkpt>
      <trkpt lat="48.21861" lon="-3.15761">
        <ele>182</ele>
        <time>2020-10-19T13:08:00.000Z</time>
      </trkpt>
      <trkpt lat="48.21861" lon="-3.15761">
        <ele>182</ele>
        <time>2020-10-19T13:08:01.000Z</time>
      </trkpt>
      <trkpt lat="48.21861" lon="-3.15762">
        <ele>182</ele>
        <time>2020-10-19T13:08:02.000Z</time>
      </trkpt>
      <trkpt lat="48.21861" lon="-3.15762">
        <ele>182</ele>
        <time>2020-10-19T13:08:03.000Z</time>
      </trkpt>
      <trkpt lat="48.21861" lon="-3.15762">
        <ele>181.80000305176</ele>
        <time>2020-10-19T13:08:04.000Z</time>
      </trkpt>
      <trkpt lat="48.21861" lon="-3.15762">
        <ele>181.80000305176</ele>
        <time>2020-10-19T13:08:05.000Z</time>
      </trkpt>
      <trkpt lat="48.21861" lon="-3.15763">
        <ele>181.80000305176</ele>
        <time>2020-10-19T13:08:06.000Z</time>
      </trkpt>
      <trkpt lat="48.21861" lon="-3.15763">
        <ele>181.60000610352</ele>
        <time>2020-10-19T13:08:07.000Z</time>
      </trkpt>
      <trkpt lat="48.21861" lon="-3.15764">
        <ele>181.60000610352</ele>
        <time>2020-10-19T13:08:08.000Z</time>
      </trkpt>
      <trkpt lat="48.21861" lon="-3.15764">
        <ele>181.60000610352</ele>
        <time>2020-10-19T13:08:09.000Z</time>
      </trkpt>
      <trkpt lat="48.21861" lon="-3.15764">
        <ele>181.60000610352</ele>
        <time>2020-10-19T13:08:10.000Z</time>
      </trkpt>
      <trkpt lat="48.21861" lon="-3.15764">
        <ele>181.60000610352</ele>
        <time>2020-10-19T13:08:11.000Z</time>
      </trkpt>
      <trkpt lat="48.21861" lon="-3.15764">
        <ele>181.60000610352</ele>
        <time>2020-10-19T13:08:12.000Z</time>
      </trkpt>
      <trkpt lat="48.21861" lon="-3.15764">
        <ele>181.60000610352</ele>
        <time>2020-10-19T13:08:13.000Z</time>
      </trkpt>
      <trkpt lat="48.21861" lon="-3.15764">
        <ele>181.60000610352</ele>
        <time>2020-10-19T13:08:14.000Z</time>
      </trkpt>
      <trkpt lat="48.21861" lon="-3.15764">
        <ele>181.60000610352</ele>
        <time>2020-10-19T13:08:15.000Z</time>
      </trkpt>
      <trkpt lat="48.21861" lon="-3.15764">
        <ele>181.60000610352</ele>
        <time>2020-10-19T13:08:16.000Z</time>
      </trkpt>
      <trkpt lat="48.21861" lon="-3.15764">
        <ele>181.60000610352</ele>
        <time>2020-10-19T13:08:17.000Z</time>
      </trkpt>
      <trkpt lat="48.21861" lon="-3.15764">
        <ele>181.60000610352</ele>
        <time>2020-10-19T13:08:18.000Z</time>
      </trkpt>
      <trkpt lat="48.21861" lon="-3.15764">
        <ele>181.60000610352</ele>
        <time>2020-10-19T13:08:19.000Z</time>
      </trkpt>
      <trkpt lat="48.21861" lon="-3.15764">
        <ele>181.60000610352</ele>
        <time>2020-10-19T13:08:20.000Z</time>
      </trkpt>
      <trkpt lat="48.2186" lon="-3.15764">
        <ele>181.80000305176</ele>
        <time>2020-10-19T13:08:21.000Z</time>
      </trkpt>
      <trkpt lat="48.2186" lon="-3.15763">
        <ele>181.80000305176</ele>
        <time>2020-10-19T13:08:22.000Z</time>
      </trkpt>
      <trkpt lat="48.2186" lon="-3.15762">
        <ele>182</ele>
        <time>2020-10-19T13:08:23.000Z</time>
      </trkpt>
      <trkpt lat="48.2186" lon="-3.15761">
        <ele>182.19999694824</ele>
        <time>2020-10-19T13:08:24.000Z</time>
      </trkpt>
      <trkpt lat="48.2186" lon="-3.15761">
        <ele>182.19999694824</ele>
        <time>2020-10-19T13:08:25.000Z</time>
      </trkpt>
      <trkpt lat="48.2186" lon="-3.1576">
        <ele>182.19999694824</ele>
        <time>2020-10-19T13:08:26.000Z</time>
      </trkpt>
      <trkpt lat="48.2186" lon="-3.1576">
        <ele>182.39999389648</ele>
        <time>2020-10-19T13:08:27.000Z</time>
      </trkpt>
      <trkpt lat="48.2186" lon="-3.15759">
        <ele>182.39999389648</ele>
        <time>2020-10-19T13:08:28.000Z</time>
      </trkpt>
      <trkpt lat="48.21859" lon="-3.15759">
        <ele>182.60000610352</ele>
        <time>2020-10-19T13:08:29.000Z</time>
      </trkpt>
      <trkpt lat="48.21859" lon="-3.15758">
        <ele>182.60000610352</ele>
        <time>2020-10-19T13:08:30.000Z</time>
      </trkpt>
      <trkpt lat="48.21859" lon="-3.15758">
        <ele>182.80000305176</ele>
        <time>2020-10-19T13:08:31.000Z</time>
      </trkpt>
      <trkpt lat="48.21858" lon="-3.15757">
        <ele>183</ele>
        <time>2020-10-19T13:08:32.000Z</time>
      </trkpt>
      <trkpt lat="48.21858" lon="-3.15756">
        <ele>183</ele>
        <time>2020-10-19T13:08:33.000Z</time>
      </trkpt>
      <trkpt lat="48.21858" lon="-3.15755">
        <ele>183.19999694824</ele>
        <time>2020-10-19T13:08:34.000Z</time>
      </trkpt>
      <trkpt lat="48.21858" lon="-3.15755">
        <ele>183.19999694824</ele>
        <time>2020-10-19T13:08:35.000Z</time>
      </trkpt>
      <trkpt lat="48.21858" lon="-3.15754">
        <ele>183.39999389648</ele>
        <time>2020-10-19T13:08:36.000Z</time>
      </trkpt>
      <trkpt lat="48.21857" lon="-3.15753">
        <ele>183.60000610352</ele>
        <time>2020-10-19T13:08:37.000Z</time>
      </trkpt>
      <trkpt lat="48.21857" lon="-3.15753">
        <ele>183.60000610352</ele>
        <time>2020-10-19T13:08:38.000Z</time>
      </trkpt>
      <trkpt lat="48.21857" lon="-3.15753">
        <ele>183.80000305176</ele>
        <time>2020-10-19T13:08:39.000Z</time>
      </trkpt>
      <trkpt lat="48.21856" lon="-3.15752">
        <ele>184</ele>
        <time>2020-10-19T13:08:40.000Z</time>
      </trkpt>
      <trkpt lat="48.21856" lon="-3.15752">
        <ele>184.19999694824</ele>
        <time>2020-10-19T13:08:41.000Z</time>
      </trkpt>
      <trkpt lat="48.21855" lon="-3.15751">
        <ele>184.39999389648</ele>
        <time>2020-10-19T13:08:42.000Z</time>
      </trkpt>
      <trkpt lat="48.21855" lon="-3.15751">
        <ele>184.39999389648</ele>
        <time>2020-10-19T13:08:43.000Z</time>
      </trkpt>
      <trkpt lat="48.21854" lon="-3.15749">
        <ele>184.60000610352</ele>
        <time>2020-10-19T13:08:44.000Z</time>
      </trkpt>
      <trkpt lat="48.21853" lon="-3.15749">
        <ele>184.60000610352</ele>
        <time>2020-10-19T13:08:45.000Z</time>
      </trkpt>
      <trkpt lat="48.21853" lon="-3.15748">
        <ele>184.80000305176</ele>
        <time>2020-10-19T13:08:46.000Z</time>
      </trkpt>
      <trkpt lat="48.21852" lon="-3.15747">
        <ele>185</ele>
        <time>2020-10-19T13:08:47.000Z</time>
      </trkpt>
      <trkpt lat="48.21851" lon="-3.15746">
        <ele>185</ele>
        <time>2020-10-19T13:08:48.000Z</time>
      </trkpt>
      <trkpt lat="48.21851" lon="-3.15746">
        <ele>185.19999694824</ele>
        <time>2020-10-19T13:08:49.000Z</time>
      </trkpt>
      <trkpt lat="48.2185" lon="-3.15745">
        <ele>185.39999389648</ele>
        <time>2020-10-19T13:08:50.000Z</time>
      </trkpt>
      <trkpt lat="48.21849" lon="-3.15744">
        <ele>185.39999389648</ele>
        <time>2020-10-19T13:08:51.000Z</time>
      </trkpt>
      <trkpt lat="48.21849" lon="-3.15744">
        <ele>185.60000610352</ele>
        <time>2020-10-19T13:08:52.000Z</time>
      </trkpt>
      <trkpt lat="48.21848" lon="-3.15743">
        <ele>185.60000610352</ele>
        <time>2020-10-19T13:08:53.000Z</time>
      </trkpt>
      <trkpt lat="48.21848" lon="-3.15743">
        <ele>185.60000610352</ele>
        <time>2020-10-19T13:08:54.000Z</time>
      </trkpt>
      <trkpt lat="48.21848" lon="-3.15742">
        <ele>185.80000305176</ele>
        <time>2020-10-19T13:08:55.000Z</time>
      </trkpt>
      <trkpt lat="48.21847" lon="-3.15741">
        <ele>186</ele>
        <time>2020-10-19T13:08:56.000Z</time>
      </trkpt>
      <trkpt lat="48.21847" lon="-3.1574">
        <ele>186</ele>
        <time>2020-10-19T13:08:57.000Z</time>
      </trkpt>
      <trkpt lat="48.21846" lon="-3.15739">
        <ele>186.19999694824</ele>
        <time>2020-10-19T13:08:58.000Z</time>
      </trkpt>
      <trkpt lat="48.21845" lon="-3.15739">
        <ele>186.39999389648</ele>
        <time>2020-10-19T13:08:59.000Z</time>
      </trkpt>
      <trkpt lat="48.21845" lon="-3.15738">
        <ele>186.39999389648</ele>
        <time>2020-10-19T13:09:00.000Z</time>
      </trkpt>
      <trkpt lat="48.21844" lon="-3.15738">
        <ele>186.60000610352</ele>
        <time>2020-10-19T13:09:01.000Z</time>
      </trkpt>
      <trkpt lat="48.21844" lon="-3.15737">
        <ele>186.60000610352</ele>
        <time>2020-10-19T13:09:02.000Z</time>
      </trkpt>
      <trkpt lat="48.21843" lon="-3.15737">
        <ele>186.80000305176</ele>
        <time>2020-10-19T13:09:03.000Z</time>
      </trkpt>
      <trkpt lat="48.21843" lon="-3.15736">
        <ele>186.80000305176</ele>
        <time>2020-10-19T13:09:04.000Z</time>
      </trkpt>
      <trkpt lat="48.21843" lon="-3.15736">
        <ele>187</ele>
        <time>2020-10-19T13:09:05.000Z</time>
      </trkpt>
      <trkpt lat="48.21843" lon="-3.15735">
        <ele>187</ele>
        <time>2020-10-19T13:09:06.000Z</time>
      </trkpt>
      <trkpt lat="48.21842" lon="-3.15734">
        <ele>187.19999694824</ele>
        <time>2020-10-19T13:09:07.000Z</time>
      </trkpt>
      <trkpt lat="48.21842" lon="-3.15733">
        <ele>187.19999694824</ele>
        <time>2020-10-19T13:09:08.000Z</time>
      </trkpt>
      <trkpt lat="48.21842" lon="-3.15733">
        <ele>187.39999389648</ele>
        <time>2020-10-19T13:09:09.000Z</time>
      </trkpt>
      <trkpt lat="48.21841" lon="-3.15732">
        <ele>187.39999389648</ele>
        <time>2020-10-19T13:09:10.000Z</time>
      </trkpt>
      <trkpt lat="48.21841" lon="-3.15732">
        <ele>187.60000610352</ele>
        <time>2020-10-19T13:09:11.000Z</time>
      </trkpt>
      <trkpt lat="48.2184" lon="-3.15732">
        <ele>187.60000610352</ele>
        <time>2020-10-19T13:09:12.000Z</time>
      </trkpt>
      <trkpt lat="48.2184" lon="-3.15732">
        <ele>187.80000305176</ele>
        <time>2020-10-19T13:09:13.000Z</time>
      </trkpt>
      <trkpt lat="48.2184" lon="-3.15732">
        <ele>187.80000305176</ele>
        <time>2020-10-19T13:09:14.000Z</time>
      </trkpt>
      <trkpt lat="48.21839" lon="-3.15731">
        <ele>187.80000305176</ele>
        <time>2020-10-19T13:09:15.000Z</time>
      </trkpt>
      <trkpt lat="48.21839" lon="-3.15731">
        <ele>188</ele>
        <time>2020-10-19T13:09:16.000Z</time>
      </trkpt>
      <trkpt lat="48.21839" lon="-3.15731">
        <ele>188</ele>
        <time>2020-10-19T13:09:17.000Z</time>
      </trkpt>
      <trkpt lat="48.21839" lon="-3.1573">
        <ele>188</ele>
        <time>2020-10-19T13:09:18.000Z</time>
      </trkpt>
      <trkpt lat="48.21838" lon="-3.1573">
        <ele>188.19999694824</ele>
        <time>2020-10-19T13:09:19.000Z</time>
      </trkpt>
      <trkpt lat="48.21838" lon="-3.15729">
        <ele>188.19999694824</ele>
        <time>2020-10-19T13:09:20.000Z</time>
      </trkpt>
      <trkpt lat="48.21837" lon="-3.15728">
        <ele>188.39999389648</ele>
        <time>2020-10-19T13:09:21.000Z</time>
      </trkpt>
      <trkpt lat="48.21837" lon="-3.15728">
        <ele>188.39999389648</ele>
        <time>2020-10-19T13:09:22.000Z</time>
      </trkpt>
      <trkpt lat="48.21836" lon="-3.15728">
        <ele>188.60000610352</ele>
        <time>2020-10-19T13:09:23.000Z</time>
      </trkpt>
      <trkpt lat="48.21836" lon="-3.15727">
        <ele>188.80000305176</ele>
        <time>2020-10-19T13:09:24.000Z</time>
      </trkpt>
      <trkpt lat="48.21835" lon="-3.15727">
        <ele>188.80000305176</ele>
        <time>2020-10-19T13:09:25.000Z</time>
      </trkpt>
      <trkpt lat="48.21834" lon="-3.15727">
        <ele>189</ele>
        <time>2020-10-19T13:09:26.000Z</time>
      </trkpt>
      <trkpt lat="48.21834" lon="-3.15727">
        <ele>189.19999694824</ele>
        <time>2020-10-19T13:09:27.000Z</time>
      </trkpt>
      <trkpt lat="48.21833" lon="-3.15727">
        <ele>189.19999694824</ele>
        <time>2020-10-19T13:09:28.000Z</time>
      </trkpt>
      <trkpt lat="48.21832" lon="-3.15727">
        <ele>189.39999389648</ele>
        <time>2020-10-19T13:09:29.000Z</time>
      </trkpt>
      <trkpt lat="48.21832" lon="-3.15727">
        <ele>189.39999389648</ele>
        <time>2020-10-19T13:09:30.000Z</time>
      </trkpt>
      <trkpt lat="48.21831" lon="-3.15727">
        <ele>189.60000610352</ele>
        <time>2020-10-19T13:09:31.000Z</time>
      </trkpt>
      <trkpt lat="48.2183" lon="-3.15727">
        <ele>189.80000305176</ele>
        <time>2020-10-19T13:09:32.000Z</time>
      </trkpt>
      <trkpt lat="48.2183" lon="-3.15727">
        <ele>189.80000305176</ele>
        <time>2020-10-19T13:09:33.000Z</time>
      </trkpt>
      <trkpt lat="48.21829" lon="-3.15727">
        <ele>190</ele>
        <time>2020-10-19T13:09:34.000Z</time>
      </trkpt>
      <trkpt lat="48.21828" lon="-3.15727">
        <ele>190.19999694824</ele>
        <time>2020-10-19T13:09:35.000Z</time>
      </trkpt>
      <trkpt lat="48.21827" lon="-3.15726">
        <ele>190.39999389648</ele>
        <time>2020-10-19T13:09:36.000Z</time>
      </trkpt>
      <trkpt lat="48.21827" lon="-3.15726">
        <ele>190.39999389648</ele>
        <time>2020-10-19T13:09:37.000Z</time>
      </trkpt>
      <trkpt lat="48.21826" lon="-3.15726">
        <ele>190.60000610352</ele>
        <time>2020-10-19T13:09:38.000Z</time>
      </trkpt>
      <trkpt lat="48.21826" lon="-3.15726">
        <ele>190.60000610352</ele>
        <time>2020-10-19T13:09:39.000Z</time>
      </trkpt>
      <trkpt lat="48.21825" lon="-3.15726">
        <ele>190.60000610352</ele>
        <time>2020-10-19T13:09:40.000Z</time>
      </trkpt>
      <trkpt lat="48.21825" lon="-3.15726">
        <ele>190.60000610352</ele>
        <time>2020-10-19T13:09:41.000Z</time>
      </trkpt>
      <trkpt lat="48.21825" lon="-3.15727">
        <ele>190.60000610352</ele>
        <time>2020-10-19T13:09:42.000Z</time>
      </trkpt>
      <trkpt lat="48.21825" lon="-3.15727">
        <ele>190.60000610352</ele>
        <time>2020-10-19T13:09:43.000Z</time>
      </trkpt>
      <trkpt lat="48.21825" lon="-3.15727">
        <ele>190.60000610352</ele>
        <time>2020-10-19T13:09:44.000Z</time>
      </trkpt>
      <trkpt lat="48.21825" lon="-3.15727">
        <ele>190.60000610352</ele>
        <time>2020-10-19T13:09:45.000Z</time>
      </trkpt>
      <trkpt lat="48.21825" lon="-3.15727">
        <ele>190.60000610352</ele>
        <time>2020-10-19T13:09:46.000Z</time>
      </trkpt>
      <trkpt lat="48.21825" lon="-3.15728">
        <ele>190.60000610352</ele>
        <time>2020-10-19T13:09:47.000Z</time>
      </trkpt>
      <trkpt lat="48.21825" lon="-3.15728">
        <ele>190.60000610352</ele>
        <time>2020-10-19T13:09:48.000Z</time>
      </trkpt>
      <trkpt lat="48.21825" lon="-3.15728">
        <ele>190.60000610352</ele>
        <time>2020-10-19T13:09:49.000Z</time>
      </trkpt>
      <trkpt lat="48.21825" lon="-3.15728">
        <ele>190.60000610352</ele>
        <time>2020-10-19T13:09:50.000Z</time>
      </trkpt>
      <trkpt lat="48.21825" lon="-3.15728">
        <ele>190.60000610352</ele>
        <time>2020-10-19T13:09:51.000Z</time>
      </trkpt>
      <trkpt lat="48.21825" lon="-3.15728">
        <ele>190.60000610352</ele>
        <time>2020-10-19T13:09:52.000Z</time>
      </trkpt>
      <trkpt lat="48.21825" lon="-3.15728">
        <ele>190.60000610352</ele>
        <time>2020-10-19T13:09:53.000Z</time>
      </trkpt>
      <trkpt lat="48.21825" lon="-3.15728">
        <ele>190.60000610352</ele>
        <time>2020-10-19T13:09:54.000Z</time>
      </trkpt>
      <trkpt lat="48.21825" lon="-3.15728">
        <ele>190.60000610352</ele>
        <time>2020-10-19T13:09:55.000Z</time>
      </trkpt>
      <trkpt lat="48.21825" lon="-3.15728">
        <ele>190.60000610352</ele>
        <time>2020-10-19T13:09:56.000Z</time>
      </trkpt>
      <trkpt lat="48.21825" lon="-3.15728">
        <ele>190.60000610352</ele>
        <time>2020-10-19T13:09:57.000Z</time>
      </trkpt>
      <trkpt lat="48.21825" lon="-3.15728">
        <ele>190.60000610352</ele>
        <time>2020-10-19T13:09:58.000Z</time>
      </trkpt>
      <trkpt lat="48.21825" lon="-3.15728">
        <ele>190.60000610352</ele>
        <time>2020-10-19T13:09:59.000Z</time>
      </trkpt>
      <trkpt lat="48.21825" lon="-3.15728">
        <ele>190.60000610352</ele>
        <time>2020-10-19T13:10:00.000Z</time>
      </trkpt>
      <trkpt lat="48.21825" lon="-3.15728">
        <ele>190.60000610352</ele>
        <time>2020-10-19T13:10:01.000Z</time>
      </trkpt>
      <trkpt lat="48.21825" lon="-3.15728">
        <ele>190.60000610352</ele>
        <time>2020-10-19T13:10:02.000Z</time>
      </trkpt>
      <trkpt lat="48.21825" lon="-3.15728">
        <ele>190.60000610352</ele>
        <time>2020-10-19T13:10:03.000Z</time>
      </trkpt>
      <trkpt lat="48.21825" lon="-3.15728">
        <ele>190.60000610352</ele>
        <time>2020-10-19T13:10:04.000Z</time>
      </trkpt>
      <trkpt lat="48.21825" lon="-3.15728">
        <ele>190.60000610352</ele>
        <time>2020-10-19T13:10:05.000Z</time>
      </trkpt>
      <trkpt lat="48.21825" lon="-3.15728">
        <ele>190.60000610352</ele>
        <time>2020-10-19T13:10:06.000Z</time>
      </trkpt>
      <trkpt lat="48.21825" lon="-3.15728">
        <ele>190.60000610352</ele>
        <time>2020-10-19T13:10:07.000Z</time>
      </trkpt>
      <trkpt lat="48.21825" lon="-3.15728">
        <ele>190.60000610352</ele>
        <time>2020-10-19T13:10:08.000Z</time>
      </trkpt>
      <trkpt lat="48.21825" lon="-3.15728">
        <ele>190.60000610352</ele>
        <time>2020-10-19T13:10:09.000Z</time>
      </trkpt>
      <trkpt lat="48.21825" lon="-3.15728">
        <ele>190.60000610352</ele>
        <time>2020-10-19T13:10:10.000Z</time>
      </trkpt>
      <trkpt lat="48.21825" lon="-3.15728">
        <ele>190.60000610352</ele>
        <time>2020-10-19T13:10:11.000Z</time>
      </trkpt>
      <trkpt lat="48.21825" lon="-3.15728">
        <ele>190.60000610352</ele>
        <time>2020-10-19T13:10:12.000Z</time>
      </trkpt>
      <trkpt lat="48.21825" lon="-3.15728">
        <ele>190.60000610352</ele>
        <time>2020-10-19T13:10:13.000Z</time>
      </trkpt>
      <trkpt lat="48.21825" lon="-3.15728">
        <ele>190.60000610352</ele>
        <time>2020-10-19T13:10:14.000Z</time>
      </trkpt>
      <trkpt lat="48.21825" lon="-3.15728">
        <ele>190.60000610352</ele>
        <time>2020-10-19T13:10:15.000Z</time>
      </trkpt>
      <trkpt lat="48.21825" lon="-3.15728">
        <ele>190.60000610352</ele>
        <time>2020-10-19T13:10:16.000Z</time>
      </trkpt>
      <trkpt lat="48.21826" lon="-3.15728">
        <ele>190.60000610352</ele>
        <time>2020-10-19T13:10:17.000Z</time>
      </trkpt>
      <trkpt lat="48.21826" lon="-3.15728">
        <ele>190.39999389648</ele>
        <time>2020-10-19T13:10:18.000Z</time>
      </trkpt>
      <trkpt lat="48.21826" lon="-3.15729">
        <ele>190.39999389648</ele>
        <time>2020-10-19T13:10:19.000Z</time>
      </trkpt>
      <trkpt lat="48.21826" lon="-3.15729">
        <ele>190.39999389648</ele>
        <time>2020-10-19T13:10:20.000Z</time>
      </trkpt>
      <trkpt lat="48.21826" lon="-3.15729">
        <ele>190.39999389648</ele>
        <time>2020-10-19T13:10:21.000Z</time>
      </trkpt>
      <trkpt lat="48.21826" lon="-3.15729">
        <ele>190.39999389648</ele>
        <time>2020-10-19T13:10:22.000Z</time>
      </trkpt>
      <trkpt lat="48.21826" lon="-3.15729">
        <ele>190.39999389648</ele>
        <time>2020-10-19T13:10:23.000Z</time>
      </trkpt>
      <trkpt lat="48.21826" lon="-3.15729">
        <ele>190.39999389648</ele>
        <time>2020-10-19T13:10:24.000Z</time>
      </trkpt>
      <trkpt lat="48.21826" lon="-3.15729">
        <ele>190.39999389648</ele>
        <time>2020-10-19T13:10:25.000Z</time>
      </trkpt>
      <trkpt lat="48.21826" lon="-3.15729">
        <ele>190.39999389648</ele>
        <time>2020-10-19T13:10:26.000Z</time>
      </trkpt>
      <trkpt lat="48.21826" lon="-3.15729">
        <ele>190.39999389648</ele>
        <time>2020-10-19T13:10:27.000Z</time>
      </trkpt>
      <trkpt lat="48.21826" lon="-3.15729">
        <ele>190.39999389648</ele>
        <time>2020-10-19T13:10:28.000Z</time>
      </trkpt>
      <trkpt lat="48.21826" lon="-3.15729">
        <ele>190.39999389648</ele>
        <time>2020-10-19T13:10:29.000Z</time>
      </trkpt>
      <trkpt lat="48.21826" lon="-3.15729">
        <ele>190.39999389648</ele>
        <time>2020-10-19T13:10:30.000Z</time>
      </trkpt>
      <trkpt lat="48.21826" lon="-3.15729">
        <ele>190.39999389648</ele>
        <time>2020-10-19T13:10:31.000Z</time>
      </trkpt>
      <trkpt lat="48.21826" lon="-3.15729">
        <ele>190.39999389648</ele>
        <time>2020-10-19T13:10:32.000Z</time>
      </trkpt>
      <trkpt lat="48.21826" lon="-3.15729">
        <ele>190.39999389648</ele>
        <time>2020-10-19T13:10:33.000Z</time>
      </trkpt>
      <trkpt lat="48.21826" lon="-3.15729">
        <ele>190.39999389648</ele>
        <time>2020-10-19T13:10:34.000Z</time>
      </trkpt>
      <trkpt lat="48.21826" lon="-3.15729">
        <ele>190.39999389648</ele>
        <time>2020-10-19T13:10:35.000Z</time>
      </trkpt>
      <trkpt lat="48.21826" lon="-3.15729">
        <ele>190.39999389648</ele>
        <time>2020-10-19T13:10:36.000Z</time>
      </trkpt>
      <trkpt lat="48.21826" lon="-3.15729">
        <ele>190.39999389648</ele>
        <time>2020-10-19T13:10:37.000Z</time>
      </trkpt>
      <trkpt lat="48.21826" lon="-3.15729">
        <ele>190.39999389648</ele>
        <time>2020-10-19T13:10:38.000Z</time>
      </trkpt>
      <trkpt lat="48.21826" lon="-3.15729">
        <ele>190.39999389648</ele>
        <time>2020-10-19T13:10:39.000Z</time>
      </trkpt>
      <trkpt lat="48.21826" lon="-3.15729">
        <ele>190.39999389648</ele>
        <time>2020-10-19T13:10:40.000Z</time>
      </trkpt>
      <trkpt lat="48.21826" lon="-3.15729">
        <ele>190.39999389648</ele>
        <time>2020-10-19T13:10:41.000Z</time>
      </trkpt>
      <trkpt lat="48.21826" lon="-3.15729">
        <ele>190.39999389648</ele>
        <time>2020-10-19T13:10:42.000Z</time>
      </trkpt>
      <trkpt lat="48.21826" lon="-3.15729">
        <ele>190.39999389648</ele>
        <time>2020-10-19T13:10:43.000Z</time>
      </trkpt>
      <trkpt lat="48.21826" lon="-3.15729">
        <ele>190.39999389648</ele>
        <time>2020-10-19T13:10:44.000Z</time>
      </trkpt>
      <trkpt lat="48.21826" lon="-3.15729">
        <ele>190.39999389648</ele>
        <time>2020-10-19T13:10:45.000Z</time>
      </trkpt>
      <trkpt lat="48.21826" lon="-3.15729">
        <ele>190.39999389648</ele>
        <time>2020-10-19T13:10:46.000Z</time>
      </trkpt>
      <trkpt lat="48.21826" lon="-3.15729">
        <ele>190.39999389648</ele>
        <time>2020-10-19T13:10:47.000Z</time>
      </trkpt>
      <trkpt lat="48.21826" lon="-3.15729">
        <ele>190.39999389648</ele>
        <time>2020-10-19T13:10:48.000Z</time>
      </trkpt>
      <trkpt lat="48.21826" lon="-3.15729">
        <ele>190.39999389648</ele>
        <time>2020-10-19T13:10:49.000Z</time>
      </trkpt>
      <trkpt lat="48.21826" lon="-3.15729">
        <ele>190.39999389648</ele>
        <time>2020-10-19T13:10:50.000Z</time>
      </trkpt>
      <trkpt lat="48.21826" lon="-3.15729">
        <ele>190.39999389648</ele>
        <time>2020-10-19T13:10:51.000Z</time>
      </trkpt>
      <trkpt lat="48.21826" lon="-3.15729">
        <ele>190.39999389648</ele>
        <time>2020-10-19T13:10:52.000Z</time>
      </trkpt>
      <trkpt lat="48.21826" lon="-3.15729">
        <ele>190.39999389648</ele>
        <time>2020-10-19T13:10:53.000Z</time>
      </trkpt>
      <trkpt lat="48.21826" lon="-3.15729">
        <ele>190.39999389648</ele>
        <time>2020-10-19T13:10:54.000Z</time>
      </trkpt>
      <trkpt lat="48.21826" lon="-3.15729">
        <ele>190.39999389648</ele>
        <time>2020-10-19T13:10:55.000Z</time>
      </trkpt>
      <trkpt lat="48.21826" lon="-3.15729">
        <ele>190.39999389648</ele>
        <time>2020-10-19T13:10:56.000Z</time>
      </trkpt>
      <trkpt lat="48.21826" lon="-3.15729">
        <ele>190.39999389648</ele>
        <time>2020-10-19T13:10:57.000Z</time>
      </trkpt>
      <trkpt lat="48.21826" lon="-3.15729">
        <ele>190.39999389648</ele>
        <time>2020-10-19T13:10:58.000Z</time>
      </trkpt>
      <trkpt lat="48.21826" lon="-3.15729">
        <ele>190.39999389648</ele>
        <time>2020-10-19T13:10:59.000Z</time>
      </trkpt>
      <trkpt lat="48.21826" lon="-3.15729">
        <ele>190.39999389648</ele>
        <time>2020-10-19T13:11:00.000Z</time>
      </trkpt>
      <trkpt lat="48.21826" lon="-3.15729">
        <ele>190.39999389648</ele>
        <time>2020-10-19T13:11:01.000Z</time>
      </trkpt>
      <trkpt lat="48.21826" lon="-3.15729">
        <ele>190.39999389648</ele>
        <time>2020-10-19T13:11:02.000Z</time>
      </trkpt>
      <trkpt lat="48.21826" lon="-3.15729">
        <ele>190.39999389648</ele>
        <time>2020-10-19T13:11:03.000Z</time>
      </trkpt>
      <trkpt lat="48.21826" lon="-3.15729">
        <ele>190.39999389648</ele>
        <time>2020-10-19T13:11:04.000Z</time>
      </trkpt>
      <trkpt lat="48.21826" lon="-3.15729">
        <ele>190.39999389648</ele>
        <time>2020-10-19T13:11:05.000Z</time>
      </trkpt>
      <trkpt lat="48.21826" lon="-3.15729">
        <ele>190.39999389648</ele>
        <time>2020-10-19T13:11:06.000Z</time>
      </trkpt>
      <trkpt lat="48.21826" lon="-3.15729">
        <ele>190.39999389648</ele>
        <time>2020-10-19T13:11:07.000Z</time>
      </trkpt>
      <trkpt lat="48.21826" lon="-3.15729">
        <ele>190.39999389648</ele>
        <time>2020-10-19T13:11:08.000Z</time>
      </trkpt>
      <trkpt lat="48.21826" lon="-3.15729">
        <ele>190.39999389648</ele>
        <time>2020-10-19T13:11:09.000Z</time>
      </trkpt>
      <trkpt lat="48.21826" lon="-3.15729">
        <ele>190.39999389648</ele>
        <time>2020-10-19T13:11:10.000Z</time>
      </trkpt>
      <trkpt lat="48.21826" lon="-3.15729">
        <ele>190.39999389648</ele>
        <time>2020-10-19T13:11:11.000Z</time>
      </trkpt>
      <trkpt lat="48.21826" lon="-3.15729">
        <ele>190.39999389648</ele>
        <time>2020-10-19T13:11:12.000Z</time>
      </trkpt>
      <trkpt lat="48.21826" lon="-3.15729">
        <ele>190.39999389648</ele>
        <time>2020-10-19T13:11:13.000Z</time>
      </trkpt>
      <trkpt lat="48.21826" lon="-3.15729">
        <ele>190.39999389648</ele>
        <time>2020-10-19T13:11:14.000Z</time>
      </trkpt>
      <trkpt lat="48.21826" lon="-3.15729">
        <ele>190.39999389648</ele>
        <time>2020-10-19T13:11:15.000Z</time>
      </trkpt>
      <trkpt lat="48.21826" lon="-3.15729">
        <ele>190.39999389648</ele>
        <time>2020-10-19T13:11:16.000Z</time>
      </trkpt>
      <trkpt lat="48.21826" lon="-3.15729">
        <ele>190.39999389648</ele>
        <time>2020-10-19T13:11:17.000Z</time>
      </trkpt>
      <trkpt lat="48.21826" lon="-3.15729">
        <ele>190.39999389648</ele>
        <time>2020-10-19T13:11:18.000Z</time>
      </trkpt>
      <trkpt lat="48.21826" lon="-3.15729">
        <ele>190.39999389648</ele>
        <time>2020-10-19T13:11:19.000Z</time>
      </trkpt>
      <trkpt lat="48.21826" lon="-3.15729">
        <ele>190.39999389648</ele>
        <time>2020-10-19T13:11:20.000Z</time>
      </trkpt>
      <trkpt lat="48.21826" lon="-3.15728">
        <ele>190.60000610352</ele>
        <time>2020-10-19T13:11:21.000Z</time>
      </trkpt>
      <trkpt lat="48.21826" lon="-3.15728">
        <ele>190.60000610352</ele>
        <time>2020-10-19T13:11:22.000Z</time>
      </trkpt>
      <trkpt lat="48.21826" lon="-3.15728">
        <ele>190.60000610352</ele>
        <time>2020-10-19T13:11:23.000Z</time>
      </trkpt>
      <trkpt lat="48.21826" lon="-3.15728">
        <ele>190.60000610352</ele>
        <time>2020-10-19T13:11:24.000Z</time>
      </trkpt>
      <trkpt lat="48.21826" lon="-3.15728">
        <ele>190.39999389648</ele>
        <time>2020-10-19T13:11:25.000Z</time>
      </trkpt>
      <trkpt lat="48.21826" lon="-3.15728">
        <ele>190.60000610352</ele>
        <time>2020-10-19T13:11:26.000Z</time>
      </trkpt>
      <trkpt lat="48.21826" lon="-3.15728">
        <ele>190.60000610352</ele>
        <time>2020-10-19T13:11:27.000Z</time>
      </trkpt>
      <trkpt lat="48.21826" lon="-3.15728">
        <ele>190.60000610352</ele>
        <time>2020-10-19T13:11:28.000Z</time>
      </trkpt>
      <trkpt lat="48.21826" lon="-3.15728">
        <ele>190.60000610352</ele>
        <time>2020-10-19T13:11:29.000Z</time>
      </trkpt>
      <trkpt lat="48.21826" lon="-3.15728">
        <ele>190.60000610352</ele>
        <time>2020-10-19T13:11:30.000Z</time>
      </trkpt>
      <trkpt lat="48.21826" lon="-3.15728">
        <ele>190.60000610352</ele>
        <time>2020-10-19T13:11:31.000Z</time>
      </trkpt>
      <trkpt lat="48.21826" lon="-3.15728">
        <ele>190.39999389648</ele>
        <time>2020-10-19T13:11:32.000Z</time>
      </trkpt>
      <trkpt lat="48.21826" lon="-3.15728">
        <ele>190.39999389648</ele>
        <time>2020-10-19T13:11:33.000Z</time>
      </trkpt>
      <trkpt lat="48.21826" lon="-3.15728">
        <ele>190.60000610352</ele>
        <time>2020-10-19T13:11:34.000Z</time>
      </trkpt>
      <trkpt lat="48.21826" lon="-3.15728">
        <ele>190.60000610352</ele>
        <time>2020-10-19T13:11:35.000Z</time>
      </trkpt>
      <trkpt lat="48.21826" lon="-3.15728">
        <ele>190.60000610352</ele>
        <time>2020-10-19T13:11:36.000Z</time>
      </trkpt>
      <trkpt lat="48.21826" lon="-3.15728">
        <ele>190.60000610352</ele>
        <time>2020-10-19T13:11:37.000Z</time>
      </trkpt>
      <trkpt lat="48.21826" lon="-3.15728">
        <ele>190.60000610352</ele>
        <time>2020-10-19T13:11:38.000Z</time>
      </trkpt>
      <trkpt lat="48.21826" lon="-3.15728">
        <ele>190.60000610352</ele>
        <time>2020-10-19T13:11:39.000Z</time>
      </trkpt>
      <trkpt lat="48.21826" lon="-3.15728">
        <ele>190.60000610352</ele>
        <time>2020-10-19T13:11:40.000Z</time>
      </trkpt>
      <trkpt lat="48.21826" lon="-3.15728">
        <ele>190.60000610352</ele>
        <time>2020-10-19T13:11:41.000Z</time>
      </trkpt>
      <trkpt lat="48.21826" lon="-3.15728">
        <ele>190.60000610352</ele>
        <time>2020-10-19T13:11:42.000Z</time>
      </trkpt>
      <trkpt lat="48.21826" lon="-3.15728">
        <ele>190.60000610352</ele>
        <time>2020-10-19T13:11:43.000Z</time>
      </trkpt>
      <trkpt lat="48.21826" lon="-3.15728">
        <ele>190.60000610352</ele>
        <time>2020-10-19T13:11:44.000Z</time>
      </trkpt>
      <trkpt lat="48.21826" lon="-3.15728">
        <ele>190.60000610352</ele>
        <time>2020-10-19T13:11:45.000Z</time>
      </trkpt>
      <trkpt lat="48.21826" lon="-3.15728">
        <ele>190.60000610352</ele>
        <time>2020-10-19T13:11:46.000Z</time>
      </trkpt>
      <trkpt lat="48.21826" lon="-3.15728">
        <ele>190.60000610352</ele>
        <time>2020-10-19T13:11:47.000Z</time>
      </trkpt>
      <trkpt lat="48.21826" lon="-3.15728">
        <ele>190.60000610352</ele>
        <time>2020-10-19T13:11:48.000Z</time>
      </trkpt>
      <trkpt lat="48.21826" lon="-3.15728">
        <ele>190.60000610352</ele>
        <time>2020-10-19T13:11:49.000Z</time>
      </trkpt>
      <trkpt lat="48.21826" lon="-3.15728">
        <ele>190.60000610352</ele>
        <time>2020-10-19T13:11:50.000Z</time>
      </trkpt>
      <trkpt lat="48.21826" lon="-3.15728">
        <ele>190.60000610352</ele>
        <time>2020-10-19T13:11:51.000Z</time>
      </trkpt>
      <trkpt lat="48.21826" lon="-3.15728">
        <ele>190.60000610352</ele>
        <time>2020-10-19T13:11:52.000Z</time>
      </trkpt>
      <trkpt lat="48.21826" lon="-3.15728">
        <ele>190.60000610352</ele>
        <time>2020-10-19T13:11:53.000Z</time>
      </trkpt>
      <trkpt lat="48.21826" lon="-3.15728">
        <ele>190.60000610352</ele>
        <time>2020-10-19T13:11:54.000Z</time>
      </trkpt>
      <trkpt lat="48.21826" lon="-3.15728">
        <ele>190.60000610352</ele>
        <time>2020-10-19T13:11:55.000Z</time>
      </trkpt>
      <trkpt lat="48.21826" lon="-3.15728">
        <ele>190.39999389648</ele>
        <time>2020-10-19T13:11:56.000Z</time>
      </trkpt>
      <trkpt lat="48.21826" lon="-3.15728">
        <ele>190.39999389648</ele>
        <time>2020-10-19T13:11:57.000Z</time>
      </trkpt>
      <trkpt lat="48.21826" lon="-3.15729">
        <ele>190.39999389648</ele>
        <time>2020-10-19T13:11:58.000Z</time>
      </trkpt>
      <trkpt lat="48.21826" lon="-3.15729">
        <ele>190.39999389648</ele>
        <time>2020-10-19T13:11:59.000Z</time>
      </trkpt>
      <trkpt lat="48.21826" lon="-3.15729">
        <ele>190.39999389648</ele>
        <time>2020-10-19T13:12:00.000Z</time>
      </trkpt>
      <trkpt lat="48.21826" lon="-3.15729">
        <ele>190.39999389648</ele>
        <time>2020-10-19T13:12:01.000Z</time>
      </trkpt>
      <trkpt lat="48.21826" lon="-3.15729">
        <ele>190.39999389648</ele>
        <time>2020-10-19T13:12:02.000Z</time>
      </trkpt>
      <trkpt lat="48.21826" lon="-3.15729">
        <ele>190.39999389648</ele>
        <time>2020-10-19T13:12:03.000Z</time>
      </trkpt>
      <trkpt lat="48.21826" lon="-3.15729">
        <ele>190.39999389648</ele>
        <time>2020-10-19T13:12:04.000Z</time>
      </trkpt>
      <trkpt lat="48.21826" lon="-3.15729">
        <ele>190.39999389648</ele>
        <time>2020-10-19T13:12:05.000Z</time>
      </trkpt>
      <trkpt lat="48.21826" lon="-3.15729">
        <ele>190.39999389648</ele>
        <time>2020-10-19T13:12:06.000Z</time>
      </trkpt>
      <trkpt lat="48.21826" lon="-3.15729">
        <ele>190.39999389648</ele>
        <time>2020-10-19T13:12:07.000Z</time>
      </trkpt>
      <trkpt lat="48.21826" lon="-3.15729">
        <ele>190.39999389648</ele>
        <time>2020-10-19T13:12:08.000Z</time>
      </trkpt>
      <trkpt lat="48.21826" lon="-3.15729">
        <ele>190.39999389648</ele>
        <time>2020-10-19T13:12:09.000Z</time>
      </trkpt>
      <trkpt lat="48.21826" lon="-3.15729">
        <ele>190.39999389648</ele>
        <time>2020-10-19T13:12:10.000Z</time>
      </trkpt>
      <trkpt lat="48.21825" lon="-3.15729">
        <ele>190.39999389648</ele>
        <time>2020-10-19T13:12:11.000Z</time>
      </trkpt>
      <trkpt lat="48.21825" lon="-3.15729">
        <ele>190.39999389648</ele>
        <time>2020-10-19T13:12:12.000Z</time>
      </trkpt>
      <trkpt lat="48.21825" lon="-3.15729">
        <ele>190.60000610352</ele>
        <time>2020-10-19T13:12:13.000Z</time>
      </trkpt>
      <trkpt lat="48.21825" lon="-3.15729">
        <ele>190.60000610352</ele>
        <time>2020-10-19T13:12:14.000Z</time>
      </trkpt>
      <trkpt lat="48.21825" lon="-3.15729">
        <ele>190.60000610352</ele>
        <time>2020-10-19T13:12:15.000Z</time>
      </trkpt>
      <trkpt lat="48.21825" lon="-3.15729">
        <ele>190.60000610352</ele>
        <time>2020-10-19T13:12:16.000Z</time>
      </trkpt>
      <trkpt lat="48.21825" lon="-3.15729">
        <ele>190.60000610352</ele>
        <time>2020-10-19T13:12:17.000Z</time>
      </trkpt>
      <trkpt lat="48.21825" lon="-3.15729">
        <ele>190.60000610352</ele>
        <time>2020-10-19T13:12:18.000Z</time>
      </trkpt>
      <trkpt lat="48.21824" lon="-3.15729">
        <ele>190.60000610352</ele>
        <time>2020-10-19T13:12:19.000Z</time>
      </trkpt>
      <trkpt lat="48.21824" lon="-3.15729">
        <ele>190.60000610352</ele>
        <time>2020-10-19T13:12:20.000Z</time>
      </trkpt>
      <trkpt lat="48.21824" lon="-3.15729">
        <ele>190.60000610352</ele>
        <time>2020-10-19T13:12:21.000Z</time>
      </trkpt>
      <trkpt lat="48.21824" lon="-3.15729">
        <ele>190.60000610352</ele>
        <time>2020-10-19T13:12:22.000Z</time>
      </trkpt>
      <trkpt lat="48.21824" lon="-3.15729">
        <ele>190.60000610352</ele>
        <time>2020-10-19T13:12:23.000Z</time>
      </trkpt>
      <trkpt lat="48.21824" lon="-3.15729">
        <ele>190.60000610352</ele>
        <time>2020-10-19T13:12:24.000Z</time>
      </trkpt>
      <trkpt lat="48.21824" lon="-3.15729">
        <ele>190.80000305176</ele>
        <time>2020-10-19T13:12:25.000Z</time>
      </trkpt>
      <trkpt lat="48.21824" lon="-3.15729">
        <ele>190.80000305176</ele>
        <time>2020-10-19T13:12:26.000Z</time>
      </trkpt>
      <trkpt lat="48.21824" lon="-3.15729">
        <ele>190.80000305176</ele>
        <time>2020-10-19T13:12:27.000Z</time>
      </trkpt>
      <trkpt lat="48.21824" lon="-3.15729">
        <ele>190.80000305176</ele>
        <time>2020-10-19T13:12:28.000Z</time>
      </trkpt>
      <trkpt lat="48.21824" lon="-3.15729">
        <ele>190.80000305176</ele>
        <time>2020-10-19T13:12:29.000Z</time>
      </trkpt>
      <trkpt lat="48.21824" lon="-3.15729">
        <ele>190.80000305176</ele>
        <time>2020-10-19T13:12:30.000Z</time>
      </trkpt>
      <trkpt lat="48.21824" lon="-3.15729">
        <ele>190.80000305176</ele>
        <time>2020-10-19T13:12:31.000Z</time>
      </trkpt>
      <trkpt lat="48.21824" lon="-3.15729">
        <ele>190.80000305176</ele>
        <time>2020-10-19T13:12:32.000Z</time>
      </trkpt>
      <trkpt lat="48.21824" lon="-3.15729">
        <ele>190.80000305176</ele>
        <time>2020-10-19T13:12:33.000Z</time>
      </trkpt>
      <trkpt lat="48.21824" lon="-3.15729">
        <ele>190.80000305176</ele>
        <time>2020-10-19T13:12:34.000Z</time>
      </trkpt>
      <trkpt lat="48.21824" lon="-3.15729">
        <ele>190.80000305176</ele>
        <time>2020-10-19T13:12:35.000Z</time>
      </trkpt>
      <trkpt lat="48.21823" lon="-3.15729">
        <ele>190.80000305176</ele>
        <time>2020-10-19T13:12:36.000Z</time>
      </trkpt>
      <trkpt lat="48.21823" lon="-3.15728">
        <ele>191</ele>
        <time>2020-10-19T13:12:37.000Z</time>
      </trkpt>
      <trkpt lat="48.21823" lon="-3.15728">
        <ele>191</ele>
        <time>2020-10-19T13:12:38.000Z</time>
      </trkpt>
      <trkpt lat="48.21822" lon="-3.15728">
        <ele>191.19999694824</ele>
        <time>2020-10-19T13:12:39.000Z</time>
      </trkpt>
      <trkpt lat="48.21821" lon="-3.15728">
        <ele>191.19999694824</ele>
        <time>2020-10-19T13:12:40.000Z</time>
      </trkpt>
      <trkpt lat="48.21821" lon="-3.15728">
        <ele>191.39999389648</ele>
        <time>2020-10-19T13:12:41.000Z</time>
      </trkpt>
      <trkpt lat="48.2182" lon="-3.15728">
        <ele>191.39999389648</ele>
        <time>2020-10-19T13:12:42.000Z</time>
      </trkpt>
      <trkpt lat="48.21819" lon="-3.15728">
        <ele>191.60000610352</ele>
        <time>2020-10-19T13:12:43.000Z</time>
      </trkpt>
      <trkpt lat="48.21819" lon="-3.15729">
        <ele>191.80000305176</ele>
        <time>2020-10-19T13:12:44.000Z</time>
      </trkpt>
      <trkpt lat="48.21818" lon="-3.15729">
        <ele>191.80000305176</ele>
        <time>2020-10-19T13:12:45.000Z</time>
      </trkpt>
      <trkpt lat="48.21817" lon="-3.15729">
        <ele>192</ele>
        <time>2020-10-19T13:12:46.000Z</time>
      </trkpt>
      <trkpt lat="48.21817" lon="-3.15729">
        <ele>192</ele>
        <time>2020-10-19T13:12:47.000Z</time>
      </trkpt>
      <trkpt lat="48.21816" lon="-3.15729">
        <ele>192.19999694824</ele>
        <time>2020-10-19T13:12:48.000Z</time>
      </trkpt>
      <trkpt lat="48.21815" lon="-3.15729">
        <ele>192.39999389648</ele>
        <time>2020-10-19T13:12:49.000Z</time>
      </trkpt>
      <trkpt lat="48.21814" lon="-3.15729">
        <ele>192.39999389648</ele>
        <time>2020-10-19T13:12:50.000Z</time>
      </trkpt>
      <trkpt lat="48.21814" lon="-3.15729">
        <ele>192.60000610352</ele>
        <time>2020-10-19T13:12:51.000Z</time>
      </trkpt>
      <trkpt lat="48.21813" lon="-3.15729">
        <ele>192.80000305176</ele>
        <time>2020-10-19T13:12:52.000Z</time>
      </trkpt>
      <trkpt lat="48.21812" lon="-3.15729">
        <ele>193</ele>
        <time>2020-10-19T13:12:53.000Z</time>
      </trkpt>
      <trkpt lat="48.21811" lon="-3.15729">
        <ele>193</ele>
        <time>2020-10-19T13:12:54.000Z</time>
      </trkpt>
      <trkpt lat="48.2181" lon="-3.15728">
        <ele>193.19999694824</ele>
        <time>2020-10-19T13:12:55.000Z</time>
      </trkpt>
      <trkpt lat="48.2181" lon="-3.15728">
        <ele>193.39999389648</ele>
        <time>2020-10-19T13:12:56.000Z</time>
      </trkpt>
      <trkpt lat="48.21809" lon="-3.15728">
        <ele>193.60000610352</ele>
        <time>2020-10-19T13:12:57.000Z</time>
      </trkpt>
      <trkpt lat="48.21808" lon="-3.15727">
        <ele>193.80000305176</ele>
        <time>2020-10-19T13:12:58.000Z</time>
      </trkpt>
      <trkpt lat="48.21807" lon="-3.15727">
        <ele>194</ele>
        <time>2020-10-19T13:12:59.000Z</time>
      </trkpt>
      <trkpt lat="48.21806" lon="-3.15726">
        <ele>194.19999694824</ele>
        <time>2020-10-19T13:13:00.000Z</time>
      </trkpt>
      <trkpt lat="48.21805" lon="-3.15726">
        <ele>194.19999694824</ele>
        <time>2020-10-19T13:13:01.000Z</time>
      </trkpt>
      <trkpt lat="48.21805" lon="-3.15726">
        <ele>194.39999389648</ele>
        <time>2020-10-19T13:13:02.000Z</time>
      </trkpt>
      <trkpt lat="48.21804" lon="-3.15726">
        <ele>194.60000610352</ele>
        <time>2020-10-19T13:13:03.000Z</time>
      </trkpt>
      <trkpt lat="48.21803" lon="-3.15726">
        <ele>194.80000305176</ele>
        <time>2020-10-19T13:13:04.000Z</time>
      </trkpt>
      <trkpt lat="48.21802" lon="-3.15726">
        <ele>195</ele>
        <time>2020-10-19T13:13:05.000Z</time>
      </trkpt>
      <trkpt lat="48.21801" lon="-3.15726">
        <ele>195</ele>
        <time>2020-10-19T13:13:06.000Z</time>
      </trkpt>
      <trkpt lat="48.218" lon="-3.15727">
        <ele>195.19999694824</ele>
        <time>2020-10-19T13:13:07.000Z</time>
      </trkpt>
      <trkpt lat="48.218" lon="-3.15727">
        <ele>195.19999694824</ele>
        <time>2020-10-19T13:13:08.000Z</time>
      </trkpt>
      <trkpt lat="48.21799" lon="-3.15727">
        <ele>195.39999389648</ele>
        <time>2020-10-19T13:13:09.000Z</time>
      </trkpt>
      <trkpt lat="48.21798" lon="-3.15727">
        <ele>195.60000610352</ele>
        <time>2020-10-19T13:13:10.000Z</time>
      </trkpt>
      <trkpt lat="48.21797" lon="-3.15727">
        <ele>195.80000305176</ele>
        <time>2020-10-19T13:13:11.000Z</time>
      </trkpt>
      <trkpt lat="48.21796" lon="-3.15727">
        <ele>195.80000305176</ele>
        <time>2020-10-19T13:13:12.000Z</time>
      </trkpt>
      <trkpt lat="48.21796" lon="-3.15727">
        <ele>196</ele>
        <time>2020-10-19T13:13:13.000Z</time>
      </trkpt>
      <trkpt lat="48.21795" lon="-3.15727">
        <ele>196.19999694824</ele>
        <time>2020-10-19T13:13:14.000Z</time>
      </trkpt>
      <trkpt lat="48.21794" lon="-3.15727">
        <ele>196.19999694824</ele>
        <time>2020-10-19T13:13:15.000Z</time>
      </trkpt>
      <trkpt lat="48.21793" lon="-3.15727">
        <ele>196.39999389648</ele>
        <time>2020-10-19T13:13:16.000Z</time>
      </trkpt>
      <trkpt lat="48.21793" lon="-3.15727">
        <ele>196.60000610352</ele>
        <time>2020-10-19T13:13:17.000Z</time>
      </trkpt>
      <trkpt lat="48.21792" lon="-3.15728">
        <ele>196.60000610352</ele>
        <time>2020-10-19T13:13:18.000Z</time>
      </trkpt>
      <trkpt lat="48.21791" lon="-3.15728">
        <ele>196.80000305176</ele>
        <time>2020-10-19T13:13:19.000Z</time>
      </trkpt>
      <trkpt lat="48.21791" lon="-3.15728">
        <ele>196.80000305176</ele>
        <time>2020-10-19T13:13:20.000Z</time>
      </trkpt>
      <trkpt lat="48.2179" lon="-3.15729">
        <ele>197</ele>
        <time>2020-10-19T13:13:21.000Z</time>
      </trkpt>
      <trkpt lat="48.2179" lon="-3.15729">
        <ele>197</ele>
        <time>2020-10-19T13:13:22.000Z</time>
      </trkpt>
      <trkpt lat="48.21789" lon="-3.1573">
        <ele>197.19999694824</ele>
        <time>2020-10-19T13:13:23.000Z</time>
      </trkpt>
      <trkpt lat="48.21788" lon="-3.15731">
        <ele>197.19999694824</ele>
        <time>2020-10-19T13:13:24.000Z</time>
      </trkpt>
      <trkpt lat="48.21787" lon="-3.15731">
        <ele>197.19999694824</ele>
        <time>2020-10-19T13:13:25.000Z</time>
      </trkpt>
      <trkpt lat="48.21787" lon="-3.15732">
        <ele>197.39999389648</ele>
        <time>2020-10-19T13:13:26.000Z</time>
      </trkpt>
      <trkpt lat="48.21786" lon="-3.15732">
        <ele>197.39999389648</ele>
        <time>2020-10-19T13:13:27.000Z</time>
      </trkpt>
      <trkpt lat="48.21785" lon="-3.15733">
        <ele>197.60000610352</ele>
        <time>2020-10-19T13:13:28.000Z</time>
      </trkpt>
      <trkpt lat="48.21784" lon="-3.15734">
        <ele>197.80000305176</ele>
        <time>2020-10-19T13:13:29.000Z</time>
      </trkpt>
      <trkpt lat="48.21783" lon="-3.15734">
        <ele>197.80000305176</ele>
        <time>2020-10-19T13:13:30.000Z</time>
      </trkpt>
      <trkpt lat="48.21783" lon="-3.15735">
        <ele>198</ele>
        <time>2020-10-19T13:13:31.000Z</time>
      </trkpt>
      <trkpt lat="48.21782" lon="-3.15735">
        <ele>198</ele>
        <time>2020-10-19T13:13:32.000Z</time>
      </trkpt>
      <trkpt lat="48.21781" lon="-3.15736">
        <ele>198.19999694824</ele>
        <time>2020-10-19T13:13:33.000Z</time>
      </trkpt>
      <trkpt lat="48.2178" lon="-3.15736">
        <ele>198.39999389648</ele>
        <time>2020-10-19T13:13:34.000Z</time>
      </trkpt>
      <trkpt lat="48.21779" lon="-3.15737">
        <ele>198.39999389648</ele>
        <time>2020-10-19T13:13:35.000Z</time>
      </trkpt>
      <trkpt lat="48.21778" lon="-3.15737">
        <ele>198.60000610352</ele>
        <time>2020-10-19T13:13:36.000Z</time>
      </trkpt>
      <trkpt lat="48.21777" lon="-3.15738">
        <ele>198.60000610352</ele>
        <time>2020-10-19T13:13:37.000Z</time>
      </trkpt>
      <trkpt lat="48.21777" lon="-3.15738">
        <ele>198.80000305176</ele>
        <time>2020-10-19T13:13:38.000Z</time>
      </trkpt>
      <trkpt lat="48.21776" lon="-3.15739">
        <ele>199</ele>
        <time>2020-10-19T13:13:39.000Z</time>
      </trkpt>
      <trkpt lat="48.21775" lon="-3.15739">
        <ele>199</ele>
        <time>2020-10-19T13:13:40.000Z</time>
      </trkpt>
      <trkpt lat="48.21774" lon="-3.15739">
        <ele>199.19999694824</ele>
        <time>2020-10-19T13:13:41.000Z</time>
      </trkpt>
      <trkpt lat="48.21773" lon="-3.1574">
        <ele>199.39999389648</ele>
        <time>2020-10-19T13:13:42.000Z</time>
      </trkpt>
      <trkpt lat="48.21772" lon="-3.1574">
        <ele>199.60000610352</ele>
        <time>2020-10-19T13:13:43.000Z</time>
      </trkpt>
      <trkpt lat="48.21772" lon="-3.1574">
        <ele>199.60000610352</ele>
        <time>2020-10-19T13:13:44.000Z</time>
      </trkpt>
      <trkpt lat="48.21771" lon="-3.15741">
        <ele>199.80000305176</ele>
        <time>2020-10-19T13:13:45.000Z</time>
      </trkpt>
      <trkpt lat="48.2177" lon="-3.15741">
        <ele>200</ele>
        <time>2020-10-19T13:13:46.000Z</time>
      </trkpt>
      <trkpt lat="48.21769" lon="-3.15742">
        <ele>200</ele>
        <time>2020-10-19T13:13:47.000Z</time>
      </trkpt>
      <trkpt lat="48.21768" lon="-3.15742">
        <ele>200.19999694824</ele>
        <time>2020-10-19T13:13:48.000Z</time>
      </trkpt>
      <trkpt lat="48.21767" lon="-3.15743">
        <ele>200.19999694824</ele>
        <time>2020-10-19T13:13:49.000Z</time>
      </trkpt>
      <trkpt lat="48.21766" lon="-3.15743">
        <ele>200.39999389648</ele>
        <time>2020-10-19T13:13:50.000Z</time>
      </trkpt>
      <trkpt lat="48.21766" lon="-3.15743">
        <ele>200.60000610352</ele>
        <time>2020-10-19T13:13:51.000Z</time>
      </trkpt>
      <trkpt lat="48.21765" lon="-3.15743">
        <ele>200.60000610352</ele>
        <time>2020-10-19T13:13:52.000Z</time>
      </trkpt>
      <trkpt lat="48.21764" lon="-3.15743">
        <ele>200.80000305176</ele>
        <time>2020-10-19T13:13:53.000Z</time>
      </trkpt>
      <trkpt lat="48.21763" lon="-3.15744">
        <ele>201.19999694824</ele>
        <time>2020-10-19T13:13:54.000Z</time>
      </trkpt>
      <trkpt lat="48.21763" lon="-3.15744">
        <ele>201.19999694824</ele>
        <time>2020-10-19T13:13:55.000Z</time>
      </trkpt>
      <trkpt lat="48.21762" lon="-3.15744">
        <ele>201.19999694824</ele>
        <time>2020-10-19T13:13:56.000Z</time>
      </trkpt>
      <trkpt lat="48.21761" lon="-3.15744">
        <ele>201.19999694824</ele>
        <time>2020-10-19T13:13:57.000Z</time>
      </trkpt>
      <trkpt lat="48.2176" lon="-3.15744">
        <ele>201.19999694824</ele>
        <time>2020-10-19T13:13:58.000Z</time>
      </trkpt>
      <trkpt lat="48.21759" lon="-3.15745">
        <ele>201</ele>
        <time>2020-10-19T13:13:59.000Z</time>
      </trkpt>
      <trkpt lat="48.21758" lon="-3.15745">
        <ele>201</ele>
        <time>2020-10-19T13:14:00.000Z</time>
      </trkpt>
      <trkpt lat="48.21758" lon="-3.15745">
        <ele>201</ele>
        <time>2020-10-19T13:14:01.000Z</time>
      </trkpt>
      <trkpt lat="48.21757" lon="-3.15746">
        <ele>201</ele>
        <time>2020-10-19T13:14:02.000Z</time>
      </trkpt>
      <trkpt lat="48.21756" lon="-3.15746">
        <ele>201</ele>
        <time>2020-10-19T13:14:03.000Z</time>
      </trkpt>
      <trkpt lat="48.21755" lon="-3.15746">
        <ele>201</ele>
        <time>2020-10-19T13:14:04.000Z</time>
      </trkpt>
      <trkpt lat="48.21754" lon="-3.15746">
        <ele>201</ele>
        <time>2020-10-19T13:14:05.000Z</time>
      </trkpt>
      <trkpt lat="48.21753" lon="-3.15746">
        <ele>200.80000305176</ele>
        <time>2020-10-19T13:14:06.000Z</time>
      </trkpt>
      <trkpt lat="48.21753" lon="-3.15746">
        <ele>200.80000305176</ele>
        <time>2020-10-19T13:14:07.000Z</time>
      </trkpt>
      <trkpt lat="48.21752" lon="-3.15746">
        <ele>200.80000305176</ele>
        <time>2020-10-19T13:14:08.000Z</time>
      </trkpt>
      <trkpt lat="48.21751" lon="-3.15746">
        <ele>200.80000305176</ele>
        <time>2020-10-19T13:14:09.000Z</time>
      </trkpt>
      <trkpt lat="48.2175" lon="-3.15746">
        <ele>200.80000305176</ele>
        <time>2020-10-19T13:14:10.000Z</time>
      </trkpt>
      <trkpt lat="48.21749" lon="-3.15746">
        <ele>200.80000305176</ele>
        <time>2020-10-19T13:14:11.000Z</time>
      </trkpt>
      <trkpt lat="48.21748" lon="-3.15746">
        <ele>200.80000305176</ele>
        <time>2020-10-19T13:14:12.000Z</time>
      </trkpt>
      <trkpt lat="48.21747" lon="-3.15746">
        <ele>200.60000610352</ele>
        <time>2020-10-19T13:14:13.000Z</time>
      </trkpt>
      <trkpt lat="48.21746" lon="-3.15747">
        <ele>200.60000610352</ele>
        <time>2020-10-19T13:14:14.000Z</time>
      </trkpt>
      <trkpt lat="48.21745" lon="-3.15748">
        <ele>200.60000610352</ele>
        <time>2020-10-19T13:14:15.000Z</time>
      </trkpt>
      <trkpt lat="48.21744" lon="-3.15748">
        <ele>200.39999389648</ele>
        <time>2020-10-19T13:14:16.000Z</time>
      </trkpt>
      <trkpt lat="48.21743" lon="-3.15748">
        <ele>200.39999389648</ele>
        <time>2020-10-19T13:14:17.000Z</time>
      </trkpt>
      <trkpt lat="48.21742" lon="-3.15749">
        <ele>200.39999389648</ele>
        <time>2020-10-19T13:14:18.000Z</time>
      </trkpt>
      <trkpt lat="48.21741" lon="-3.15749">
        <ele>200.39999389648</ele>
        <time>2020-10-19T13:14:19.000Z</time>
      </trkpt>
      <trkpt lat="48.2174" lon="-3.15749">
        <ele>200.39999389648</ele>
        <time>2020-10-19T13:14:20.000Z</time>
      </trkpt>
      <trkpt lat="48.21739" lon="-3.15749">
        <ele>200.39999389648</ele>
        <time>2020-10-19T13:14:21.000Z</time>
      </trkpt>
      <trkpt lat="48.21738" lon="-3.15749">
        <ele>200.19999694824</ele>
        <time>2020-10-19T13:14:22.000Z</time>
      </trkpt>
      <trkpt lat="48.21737" lon="-3.15749">
        <ele>200.19999694824</ele>
        <time>2020-10-19T13:14:23.000Z</time>
      </trkpt>
      <trkpt lat="48.21737" lon="-3.15749">
        <ele>200.19999694824</ele>
        <time>2020-10-19T13:14:24.000Z</time>
      </trkpt>
      <trkpt lat="48.21736" lon="-3.1575">
        <ele>200.19999694824</ele>
        <time>2020-10-19T13:14:25.000Z</time>
      </trkpt>
      <trkpt lat="48.21735" lon="-3.1575">
        <ele>200.19999694824</ele>
        <time>2020-10-19T13:14:26.000Z</time>
      </trkpt>
      <trkpt lat="48.21734" lon="-3.15751">
        <ele>200</ele>
        <time>2020-10-19T13:14:27.000Z</time>
      </trkpt>
      <trkpt lat="48.21733" lon="-3.15751">
        <ele>200</ele>
        <time>2020-10-19T13:14:28.000Z</time>
      </trkpt>
      <trkpt lat="48.21732" lon="-3.15752">
        <ele>200</ele>
        <time>2020-10-19T13:14:29.000Z</time>
      </trkpt>
      <trkpt lat="48.21731" lon="-3.15752">
        <ele>200</ele>
        <time>2020-10-19T13:14:30.000Z</time>
      </trkpt>
      <trkpt lat="48.21731" lon="-3.15752">
        <ele>199.80000305176</ele>
        <time>2020-10-19T13:14:31.000Z</time>
      </trkpt>
      <trkpt lat="48.2173" lon="-3.15752">
        <ele>199.80000305176</ele>
        <time>2020-10-19T13:14:32.000Z</time>
      </trkpt>
      <trkpt lat="48.21729" lon="-3.15753">
        <ele>199.80000305176</ele>
        <time>2020-10-19T13:14:33.000Z</time>
      </trkpt>
      <trkpt lat="48.21728" lon="-3.15753">
        <ele>199.80000305176</ele>
        <time>2020-10-19T13:14:34.000Z</time>
      </trkpt>
      <trkpt lat="48.21728" lon="-3.15754">
        <ele>199.80000305176</ele>
        <time>2020-10-19T13:14:35.000Z</time>
      </trkpt>
      <trkpt lat="48.21727" lon="-3.15754">
        <ele>199.60000610352</ele>
        <time>2020-10-19T13:14:36.000Z</time>
      </trkpt>
      <trkpt lat="48.21726" lon="-3.15755">
        <ele>199.60000610352</ele>
        <time>2020-10-19T13:14:37.000Z</time>
      </trkpt>
      <trkpt lat="48.21725" lon="-3.15755">
        <ele>199.60000610352</ele>
        <time>2020-10-19T13:14:38.000Z</time>
      </trkpt>
      <trkpt lat="48.21724" lon="-3.15756">
        <ele>199.39999389648</ele>
        <time>2020-10-19T13:14:39.000Z</time>
      </trkpt>
      <trkpt lat="48.21724" lon="-3.15757">
        <ele>199.39999389648</ele>
        <time>2020-10-19T13:14:40.000Z</time>
      </trkpt>
      <trkpt lat="48.21723" lon="-3.15758">
        <ele>199.19999694824</ele>
        <time>2020-10-19T13:14:41.000Z</time>
      </trkpt>
      <trkpt lat="48.21722" lon="-3.15758">
        <ele>199.19999694824</ele>
        <time>2020-10-19T13:14:42.000Z</time>
      </trkpt>
      <trkpt lat="48.21721" lon="-3.15759">
        <ele>199.19999694824</ele>
        <time>2020-10-19T13:14:43.000Z</time>
      </trkpt>
      <trkpt lat="48.2172" lon="-3.1576">
        <ele>199</ele>
        <time>2020-10-19T13:14:44.000Z</time>
      </trkpt>
      <trkpt lat="48.21719" lon="-3.15761">
        <ele>199</ele>
        <time>2020-10-19T13:14:45.000Z</time>
      </trkpt>
      <trkpt lat="48.21718" lon="-3.15762">
        <ele>199</ele>
        <time>2020-10-19T13:14:46.000Z</time>
      </trkpt>
      <trkpt lat="48.21718" lon="-3.15762">
        <ele>198.80000305176</ele>
        <time>2020-10-19T13:14:47.000Z</time>
      </trkpt>
      <trkpt lat="48.21717" lon="-3.15763">
        <ele>198.80000305176</ele>
        <time>2020-10-19T13:14:48.000Z</time>
      </trkpt>
      <trkpt lat="48.21716" lon="-3.15764">
        <ele>198.60000610352</ele>
        <time>2020-10-19T13:14:49.000Z</time>
      </trkpt>
      <trkpt lat="48.21715" lon="-3.15765">
        <ele>198.60000610352</ele>
        <time>2020-10-19T13:14:50.000Z</time>
      </trkpt>
      <trkpt lat="48.21714" lon="-3.15766">
        <ele>198.39999389648</ele>
        <time>2020-10-19T13:14:51.000Z</time>
      </trkpt>
      <trkpt lat="48.21714" lon="-3.15766">
        <ele>198.39999389648</ele>
        <time>2020-10-19T13:14:52.000Z</time>
      </trkpt>
      <trkpt lat="48.21713" lon="-3.15767">
        <ele>198.19999694824</ele>
        <time>2020-10-19T13:14:53.000Z</time>
      </trkpt>
      <trkpt lat="48.21712" lon="-3.15768">
        <ele>198.19999694824</ele>
        <time>2020-10-19T13:14:54.000Z</time>
      </trkpt>
      <trkpt lat="48.21711" lon="-3.15769">
        <ele>198</ele>
        <time>2020-10-19T13:14:55.000Z</time>
      </trkpt>
      <trkpt lat="48.2171" lon="-3.1577">
        <ele>198</ele>
        <time>2020-10-19T13:14:56.000Z</time>
      </trkpt>
      <trkpt lat="48.21709" lon="-3.15771">
        <ele>197.80000305176</ele>
        <time>2020-10-19T13:14:57.000Z</time>
      </trkpt>
      <trkpt lat="48.21708" lon="-3.15772">
        <ele>197.80000305176</ele>
        <time>2020-10-19T13:14:58.000Z</time>
      </trkpt>
      <trkpt lat="48.21707" lon="-3.15774">
        <ele>197.60000610352</ele>
        <time>2020-10-19T13:14:59.000Z</time>
      </trkpt>
      <trkpt lat="48.21707" lon="-3.15774">
        <ele>197.60000610352</ele>
        <time>2020-10-19T13:15:00.000Z</time>
      </trkpt>
      <trkpt lat="48.21706" lon="-3.15774">
        <ele>197.60000610352</ele>
        <time>2020-10-19T13:15:01.000Z</time>
      </trkpt>
      <trkpt lat="48.21706" lon="-3.15775">
        <ele>197.39999389648</ele>
        <time>2020-10-19T13:15:02.000Z</time>
      </trkpt>
      <trkpt lat="48.21705" lon="-3.15776">
        <ele>197.39999389648</ele>
        <time>2020-10-19T13:15:03.000Z</time>
      </trkpt>
      <trkpt lat="48.21705" lon="-3.15777">
        <ele>197.19999694824</ele>
        <time>2020-10-19T13:15:04.000Z</time>
      </trkpt>
      <trkpt lat="48.21704" lon="-3.15778">
        <ele>197.19999694824</ele>
        <time>2020-10-19T13:15:05.000Z</time>
      </trkpt>
      <trkpt lat="48.21703" lon="-3.15778">
        <ele>197.19999694824</ele>
        <time>2020-10-19T13:15:06.000Z</time>
      </trkpt>
      <trkpt lat="48.21703" lon="-3.15779">
        <ele>197</ele>
        <time>2020-10-19T13:15:07.000Z</time>
      </trkpt>
      <trkpt lat="48.21703" lon="-3.15779">
        <ele>197</ele>
        <time>2020-10-19T13:15:08.000Z</time>
      </trkpt>
      <trkpt lat="48.21702" lon="-3.15779">
        <ele>197</ele>
        <time>2020-10-19T13:15:09.000Z</time>
      </trkpt>
      <trkpt lat="48.21702" lon="-3.15779">
        <ele>197</ele>
        <time>2020-10-19T13:15:10.000Z</time>
      </trkpt>
      <trkpt lat="48.21701" lon="-3.15779">
        <ele>197</ele>
        <time>2020-10-19T13:15:11.000Z</time>
      </trkpt>
      <trkpt lat="48.21701" lon="-3.15779">
        <ele>197</ele>
        <time>2020-10-19T13:15:12.000Z</time>
      </trkpt>
      <trkpt lat="48.21701" lon="-3.15779">
        <ele>197</ele>
        <time>2020-10-19T13:15:13.000Z</time>
      </trkpt>
      <trkpt lat="48.21701" lon="-3.15779">
        <ele>197</ele>
        <time>2020-10-19T13:15:14.000Z</time>
      </trkpt>
      <trkpt lat="48.21701" lon="-3.15779">
        <ele>197</ele>
        <time>2020-10-19T13:15:15.000Z</time>
      </trkpt>
      <trkpt lat="48.21701" lon="-3.15779">
        <ele>197</ele>
        <time>2020-10-19T13:15:16.000Z</time>
      </trkpt>
      <trkpt lat="48.21701" lon="-3.15779">
        <ele>197</ele>
        <time>2020-10-19T13:15:17.000Z</time>
      </trkpt>
      <trkpt lat="48.21701" lon="-3.15779">
        <ele>197</ele>
        <time>2020-10-19T13:15:18.000Z</time>
      </trkpt>
      <trkpt lat="48.21701" lon="-3.15779">
        <ele>197</ele>
        <time>2020-10-19T13:15:19.000Z</time>
      </trkpt>
      <trkpt lat="48.21701" lon="-3.15779">
        <ele>197</ele>
        <time>2020-10-19T13:15:20.000Z</time>
      </trkpt>
      <trkpt lat="48.21701" lon="-3.15779">
        <ele>197</ele>
        <time>2020-10-19T13:15:21.000Z</time>
      </trkpt>
      <trkpt lat="48.21701" lon="-3.15779">
        <ele>197</ele>
        <time>2020-10-19T13:15:22.000Z</time>
      </trkpt>
      <trkpt lat="48.21701" lon="-3.15779">
        <ele>197</ele>
        <time>2020-10-19T13:15:23.000Z</time>
      </trkpt>
      <trkpt lat="48.21701" lon="-3.15779">
        <ele>197</ele>
        <time>2020-10-19T13:15:24.000Z</time>
      </trkpt>
      <trkpt lat="48.21701" lon="-3.15779">
        <ele>197</ele>
        <time>2020-10-19T13:15:25.000Z</time>
      </trkpt>
      <trkpt lat="48.21701" lon="-3.15779">
        <ele>197</ele>
        <time>2020-10-19T13:15:26.000Z</time>
      </trkpt>
      <trkpt lat="48.217" lon="-3.15779">
        <ele>197</ele>
        <time>2020-10-19T13:15:27.000Z</time>
      </trkpt>
      <trkpt lat="48.21701" lon="-3.15779">
        <ele>197</ele>
        <time>2020-10-19T13:15:28.000Z</time>
      </trkpt>
      <trkpt lat="48.21701" lon="-3.1578">
        <ele>197</ele>
        <time>2020-10-19T13:15:29.000Z</time>
      </trkpt>
      <trkpt lat="48.217" lon="-3.1578">
        <ele>197</ele>
        <time>2020-10-19T13:15:30.000Z</time>
      </trkpt>
      <trkpt lat="48.217" lon="-3.1578">
        <ele>197</ele>
        <time>2020-10-19T13:15:31.000Z</time>
      </trkpt>
      <trkpt lat="48.217" lon="-3.1578">
        <ele>197</ele>
        <time>2020-10-19T13:15:32.000Z</time>
      </trkpt>
      <trkpt lat="48.21701" lon="-3.15779">
        <ele>197</ele>
        <time>2020-10-19T13:15:33.000Z</time>
      </trkpt>
      <trkpt lat="48.21701" lon="-3.15779">
        <ele>197</ele>
        <time>2020-10-19T13:15:34.000Z</time>
      </trkpt>
      <trkpt lat="48.21701" lon="-3.15779">
        <ele>197</ele>
        <time>2020-10-19T13:15:35.000Z</time>
      </trkpt>
      <trkpt lat="48.21701" lon="-3.15779">
        <ele>197</ele>
        <time>2020-10-19T13:15:36.000Z</time>
      </trkpt>
      <trkpt lat="48.21701" lon="-3.15779">
        <ele>197</ele>
        <time>2020-10-19T13:15:37.000Z</time>
      </trkpt>
      <trkpt lat="48.21701" lon="-3.15779">
        <ele>197</ele>
        <time>2020-10-19T13:15:38.000Z</time>
      </trkpt>
      <trkpt lat="48.21701" lon="-3.15779">
        <ele>197</ele>
        <time>2020-10-19T13:15:39.000Z</time>
      </trkpt>
      <trkpt lat="48.21701" lon="-3.15779">
        <ele>197</ele>
        <time>2020-10-19T13:15:40.000Z</time>
      </trkpt>
      <trkpt lat="48.21701" lon="-3.15779">
        <ele>197</ele>
        <time>2020-10-19T13:15:41.000Z</time>
      </trkpt>
      <trkpt lat="48.21701" lon="-3.15779">
        <ele>197</ele>
        <time>2020-10-19T13:15:42.000Z</time>
      </trkpt>
      <trkpt lat="48.21701" lon="-3.15779">
        <ele>197</ele>
        <time>2020-10-19T13:15:43.000Z</time>
      </trkpt>
      <trkpt lat="48.21701" lon="-3.15779">
        <ele>197</ele>
        <time>2020-10-19T13:15:44.000Z</time>
      </trkpt>
      <trkpt lat="48.21701" lon="-3.15779">
        <ele>197</ele>
        <time>2020-10-19T13:15:45.000Z</time>
      </trkpt>
      <trkpt lat="48.21701" lon="-3.15778">
        <ele>197</ele>
        <time>2020-10-19T13:15:46.000Z</time>
      </trkpt>
      <trkpt lat="48.21701" lon="-3.15778">
        <ele>197</ele>
        <time>2020-10-19T13:15:47.000Z</time>
      </trkpt>
      <trkpt lat="48.21701" lon="-3.15778">
        <ele>197</ele>
        <time>2020-10-19T13:15:48.000Z</time>
      </trkpt>
      <trkpt lat="48.21701" lon="-3.15778">
        <ele>197</ele>
        <time>2020-10-19T13:15:49.000Z</time>
      </trkpt>
      <trkpt lat="48.21701" lon="-3.15778">
        <ele>197</ele>
        <time>2020-10-19T13:15:50.000Z</time>
      </trkpt>
      <trkpt lat="48.21701" lon="-3.15778">
        <ele>197</ele>
        <time>2020-10-19T13:15:51.000Z</time>
      </trkpt>
      <trkpt lat="48.21701" lon="-3.15778">
        <ele>197</ele>
        <time>2020-10-19T13:15:52.000Z</time>
      </trkpt>
      <trkpt lat="48.21701" lon="-3.15778">
        <ele>197</ele>
        <time>2020-10-19T13:15:53.000Z</time>
      </trkpt>
      <trkpt lat="48.21701" lon="-3.15778">
        <ele>197</ele>
        <time>2020-10-19T13:15:54.000Z</time>
      </trkpt>
      <trkpt lat="48.21701" lon="-3.15778">
        <ele>197</ele>
        <time>2020-10-19T13:15:55.000Z</time>
      </trkpt>
      <trkpt lat="48.21701" lon="-3.15778">
        <ele>197</ele>
        <time>2020-10-19T13:15:56.000Z</time>
      </trkpt>
      <trkpt lat="48.21701" lon="-3.15778">
        <ele>197</ele>
        <time>2020-10-19T13:15:57.000Z</time>
      </trkpt>
      <trkpt lat="48.21701" lon="-3.15778">
        <ele>197</ele>
        <time>2020-10-19T13:15:58.000Z</time>
      </trkpt>
      <trkpt lat="48.21701" lon="-3.15778">
        <ele>197</ele>
        <time>2020-10-19T13:15:59.000Z</time>
      </trkpt>
      <trkpt lat="48.21701" lon="-3.15778">
        <ele>197</ele>
        <time>2020-10-19T13:16:00.000Z</time>
      </trkpt>
      <trkpt lat="48.21701" lon="-3.15778">
        <ele>197</ele>
        <time>2020-10-19T13:16:01.000Z</time>
      </trkpt>
      <trkpt lat="48.21701" lon="-3.15778">
        <ele>197</ele>
        <time>2020-10-19T13:16:02.000Z</time>
      </trkpt>
      <trkpt lat="48.21701" lon="-3.15778">
        <ele>197</ele>
        <time>2020-10-19T13:16:03.000Z</time>
      </trkpt>
      <trkpt lat="48.21701" lon="-3.15778">
        <ele>197</ele>
        <time>2020-10-19T13:16:04.000Z</time>
      </trkpt>
      <trkpt lat="48.21701" lon="-3.15778">
        <ele>197.19999694824</ele>
        <time>2020-10-19T13:16:05.000Z</time>
      </trkpt>
      <trkpt lat="48.21701" lon="-3.15778">
        <ele>197.19999694824</ele>
        <time>2020-10-19T13:16:06.000Z</time>
      </trkpt>
      <trkpt lat="48.21701" lon="-3.15778">
        <ele>197.19999694824</ele>
        <time>2020-10-19T13:16:07.000Z</time>
      </trkpt>
      <trkpt lat="48.21701" lon="-3.15778">
        <ele>197.19999694824</ele>
        <time>2020-10-19T13:16:08.000Z</time>
      </trkpt>
      <trkpt lat="48.21701" lon="-3.15778">
        <ele>197.19999694824</ele>
        <time>2020-10-19T13:16:09.000Z</time>
      </trkpt>
      <trkpt lat="48.21701" lon="-3.15778">
        <ele>197.19999694824</ele>
        <time>2020-10-19T13:16:10.000Z</time>
      </trkpt>
      <trkpt lat="48.21701" lon="-3.15778">
        <ele>197.19999694824</ele>
        <time>2020-10-19T13:16:11.000Z</time>
      </trkpt>
      <trkpt lat="48.21701" lon="-3.15778">
        <ele>197.19999694824</ele>
        <time>2020-10-19T13:16:12.000Z</time>
      </trkpt>
      <trkpt lat="48.21701" lon="-3.15778">
        <ele>197.19999694824</ele>
        <time>2020-10-19T13:16:13.000Z</time>
      </trkpt>
      <trkpt lat="48.21701" lon="-3.15778">
        <ele>197.19999694824</ele>
        <time>2020-10-19T13:16:14.000Z</time>
      </trkpt>
      <trkpt lat="48.21701" lon="-3.15778">
        <ele>197.19999694824</ele>
        <time>2020-10-19T13:16:15.000Z</time>
      </trkpt>
      <trkpt lat="48.21701" lon="-3.15778">
        <ele>197.19999694824</ele>
        <time>2020-10-19T13:16:16.000Z</time>
      </trkpt>
      <trkpt lat="48.21701" lon="-3.15778">
        <ele>197.19999694824</ele>
        <time>2020-10-19T13:16:17.000Z</time>
      </trkpt>
      <trkpt lat="48.21701" lon="-3.15778">
        <ele>197.19999694824</ele>
        <time>2020-10-19T13:16:18.000Z</time>
      </trkpt>
      <trkpt lat="48.21701" lon="-3.15778">
        <ele>197.19999694824</ele>
        <time>2020-10-19T13:16:19.000Z</time>
      </trkpt>
      <trkpt lat="48.21701" lon="-3.15778">
        <ele>197.19999694824</ele>
        <time>2020-10-19T13:16:20.000Z</time>
      </trkpt>
      <trkpt lat="48.21701" lon="-3.15778">
        <ele>197.19999694824</ele>
        <time>2020-10-19T13:16:21.000Z</time>
      </trkpt>
      <trkpt lat="48.21701" lon="-3.15778">
        <ele>197</ele>
        <time>2020-10-19T13:16:22.000Z</time>
      </trkpt>
      <trkpt lat="48.21701" lon="-3.15778">
        <ele>197</ele>
        <time>2020-10-19T13:16:23.000Z</time>
      </trkpt>
      <trkpt lat="48.21701" lon="-3.15778">
        <ele>197</ele>
        <time>2020-10-19T13:16:24.000Z</time>
      </trkpt>
      <trkpt lat="48.21701" lon="-3.15778">
        <ele>197.19999694824</ele>
        <time>2020-10-19T13:16:25.000Z</time>
      </trkpt>
      <trkpt lat="48.21701" lon="-3.15778">
        <ele>197.19999694824</ele>
        <time>2020-10-19T13:16:26.000Z</time>
      </trkpt>
      <trkpt lat="48.21701" lon="-3.15778">
        <ele>197.19999694824</ele>
        <time>2020-10-19T13:16:27.000Z</time>
      </trkpt>
      <trkpt lat="48.217" lon="-3.15778">
        <ele>197.19999694824</ele>
        <time>2020-10-19T13:16:28.000Z</time>
      </trkpt>
      <trkpt lat="48.217" lon="-3.15778">
        <ele>197.19999694824</ele>
        <time>2020-10-19T13:16:29.000Z</time>
      </trkpt>
      <trkpt lat="48.21701" lon="-3.15778">
        <ele>197.19999694824</ele>
        <time>2020-10-19T13:16:30.000Z</time>
      </trkpt>
      <trkpt lat="48.21701" lon="-3.15778">
        <ele>197.19999694824</ele>
        <time>2020-10-19T13:16:31.000Z</time>
      </trkpt>
      <trkpt lat="48.21701" lon="-3.15778">
        <ele>197.19999694824</ele>
        <time>2020-10-19T13:16:32.000Z</time>
      </trkpt>
      <trkpt lat="48.21701" lon="-3.15777">
        <ele>197.19999694824</ele>
        <time>2020-10-19T13:16:33.000Z</time>
      </trkpt>
      <trkpt lat="48.21701" lon="-3.15778">
        <ele>197.19999694824</ele>
        <time>2020-10-19T13:16:34.000Z</time>
      </trkpt>
      <trkpt lat="48.21701" lon="-3.15778">
        <ele>197.19999694824</ele>
        <time>2020-10-19T13:16:35.000Z</time>
      </trkpt>
      <trkpt lat="48.21701" lon="-3.15778">
        <ele>197.19999694824</ele>
        <time>2020-10-19T13:16:36.000Z</time>
      </trkpt>
      <trkpt lat="48.21701" lon="-3.15778">
        <ele>197.19999694824</ele>
        <time>2020-10-19T13:16:37.000Z</time>
      </trkpt>
      <trkpt lat="48.21701" lon="-3.15777">
        <ele>197.19999694824</ele>
        <time>2020-10-19T13:16:38.000Z</time>
      </trkpt>
      <trkpt lat="48.21701" lon="-3.15777">
        <ele>197.19999694824</ele>
        <time>2020-10-19T13:16:39.000Z</time>
      </trkpt>
      <trkpt lat="48.21701" lon="-3.15777">
        <ele>197.19999694824</ele>
        <time>2020-10-19T13:16:40.000Z</time>
      </trkpt>
      <trkpt lat="48.21701" lon="-3.15777">
        <ele>197.19999694824</ele>
        <time>2020-10-19T13:16:41.000Z</time>
      </trkpt>
      <trkpt lat="48.21701" lon="-3.15777">
        <ele>197.19999694824</ele>
        <time>2020-10-19T13:16:42.000Z</time>
      </trkpt>
      <trkpt lat="48.21701" lon="-3.15777">
        <ele>197.19999694824</ele>
        <time>2020-10-19T13:16:43.000Z</time>
      </trkpt>
      <trkpt lat="48.21701" lon="-3.15777">
        <ele>197.19999694824</ele>
        <time>2020-10-19T13:16:44.000Z</time>
      </trkpt>
      <trkpt lat="48.21701" lon="-3.15777">
        <ele>197.19999694824</ele>
        <time>2020-10-19T13:16:45.000Z</time>
      </trkpt>
      <trkpt lat="48.21701" lon="-3.15777">
        <ele>197.19999694824</ele>
        <time>2020-10-19T13:16:46.000Z</time>
      </trkpt>
      <trkpt lat="48.21701" lon="-3.15777">
        <ele>197.19999694824</ele>
        <time>2020-10-19T13:16:47.000Z</time>
      </trkpt>
      <trkpt lat="48.21701" lon="-3.15777">
        <ele>197.19999694824</ele>
        <time>2020-10-19T13:16:48.000Z</time>
      </trkpt>
      <trkpt lat="48.21701" lon="-3.15777">
        <ele>197.19999694824</ele>
        <time>2020-10-19T13:16:49.000Z</time>
      </trkpt>
      <trkpt lat="48.21701" lon="-3.15777">
        <ele>197.19999694824</ele>
        <time>2020-10-19T13:16:50.000Z</time>
      </trkpt>
      <trkpt lat="48.21701" lon="-3.15777">
        <ele>197.19999694824</ele>
        <time>2020-10-19T13:16:51.000Z</time>
      </trkpt>
      <trkpt lat="48.21701" lon="-3.15776">
        <ele>197.19999694824</ele>
        <time>2020-10-19T13:16:52.000Z</time>
      </trkpt>
      <trkpt lat="48.21701" lon="-3.15776">
        <ele>197.19999694824</ele>
        <time>2020-10-19T13:16:53.000Z</time>
      </trkpt>
      <trkpt lat="48.21701" lon="-3.15776">
        <ele>197.19999694824</ele>
        <time>2020-10-19T13:16:54.000Z</time>
      </trkpt>
      <trkpt lat="48.217" lon="-3.15776">
        <ele>197.19999694824</ele>
        <time>2020-10-19T13:16:55.000Z</time>
      </trkpt>
      <trkpt lat="48.217" lon="-3.15775">
        <ele>197.19999694824</ele>
        <time>2020-10-19T13:16:56.000Z</time>
      </trkpt>
      <trkpt lat="48.217" lon="-3.15775">
        <ele>197.39999389648</ele>
        <time>2020-10-19T13:16:57.000Z</time>
      </trkpt>
      <trkpt lat="48.217" lon="-3.15774">
        <ele>197.39999389648</ele>
        <time>2020-10-19T13:16:58.000Z</time>
      </trkpt>
      <trkpt lat="48.217" lon="-3.15772">
        <ele>197.60000610352</ele>
        <time>2020-10-19T13:16:59.000Z</time>
      </trkpt>
      <trkpt lat="48.217" lon="-3.1577">
        <ele>197.80000305176</ele>
        <time>2020-10-19T13:17:00.000Z</time>
      </trkpt>
      <trkpt lat="48.217" lon="-3.1577">
        <ele>197.80000305176</ele>
        <time>2020-10-19T13:17:01.000Z</time>
      </trkpt>
      <trkpt lat="48.217" lon="-3.15769">
        <ele>197.80000305176</ele>
        <time>2020-10-19T13:17:02.000Z</time>
      </trkpt>
      <trkpt lat="48.217" lon="-3.15768">
        <ele>198</ele>
        <time>2020-10-19T13:17:03.000Z</time>
      </trkpt>
      <trkpt lat="48.217" lon="-3.15767">
        <ele>198</ele>
        <time>2020-10-19T13:17:04.000Z</time>
      </trkpt>
      <trkpt lat="48.21699" lon="-3.15766">
        <ele>198</ele>
        <time>2020-10-19T13:17:05.000Z</time>
      </trkpt>
      <trkpt lat="48.21699" lon="-3.15765">
        <ele>198.19999694824</ele>
        <time>2020-10-19T13:17:06.000Z</time>
      </trkpt>
      <trkpt lat="48.21699" lon="-3.15765">
        <ele>198.19999694824</ele>
        <time>2020-10-19T13:17:07.000Z</time>
      </trkpt>
      <trkpt lat="48.21699" lon="-3.15763">
        <ele>198.19999694824</ele>
        <time>2020-10-19T13:17:08.000Z</time>
      </trkpt>
      <trkpt lat="48.21698" lon="-3.15762">
        <ele>198.39999389648</ele>
        <time>2020-10-19T13:17:09.000Z</time>
      </trkpt>
      <trkpt lat="48.21698" lon="-3.15761">
        <ele>198.39999389648</ele>
        <time>2020-10-19T13:17:10.000Z</time>
      </trkpt>
      <trkpt lat="48.21697" lon="-3.1576">
        <ele>198.39999389648</ele>
        <time>2020-10-19T13:17:11.000Z</time>
      </trkpt>
      <trkpt lat="48.21697" lon="-3.1576">
        <ele>198.60000610352</ele>
        <time>2020-10-19T13:17:12.000Z</time>
      </trkpt>
      <trkpt lat="48.21697" lon="-3.15758">
        <ele>198.60000610352</ele>
        <time>2020-10-19T13:17:13.000Z</time>
      </trkpt>
      <trkpt lat="48.21696" lon="-3.15757">
        <ele>198.80000305176</ele>
        <time>2020-10-19T13:17:14.000Z</time>
      </trkpt>
      <trkpt lat="48.21696" lon="-3.15756">
        <ele>198.80000305176</ele>
        <time>2020-10-19T13:17:15.000Z</time>
      </trkpt>
      <trkpt lat="48.21695" lon="-3.15754">
        <ele>198.80000305176</ele>
        <time>2020-10-19T13:17:16.000Z</time>
      </trkpt>
      <trkpt lat="48.21694" lon="-3.15753">
        <ele>199</ele>
        <time>2020-10-19T13:17:17.000Z</time>
      </trkpt>
      <trkpt lat="48.21694" lon="-3.15752">
        <ele>199</ele>
        <time>2020-10-19T13:17:18.000Z</time>
      </trkpt>
      <trkpt lat="48.21693" lon="-3.1575">
        <ele>199.19999694824</ele>
        <time>2020-10-19T13:17:19.000Z</time>
      </trkpt>
      <trkpt lat="48.21693" lon="-3.15749">
        <ele>199.19999694824</ele>
        <time>2020-10-19T13:17:20.000Z</time>
      </trkpt>
      <trkpt lat="48.21692" lon="-3.15747">
        <ele>199.39999389648</ele>
        <time>2020-10-19T13:17:21.000Z</time>
      </trkpt>
      <trkpt lat="48.21691" lon="-3.15746">
        <ele>199.39999389648</ele>
        <time>2020-10-19T13:17:22.000Z</time>
      </trkpt>
      <trkpt lat="48.21691" lon="-3.15745">
        <ele>199.39999389648</ele>
        <time>2020-10-19T13:17:23.000Z</time>
      </trkpt>
      <trkpt lat="48.21691" lon="-3.15743">
        <ele>199.60000610352</ele>
        <time>2020-10-19T13:17:24.000Z</time>
      </trkpt>
      <trkpt lat="48.2169" lon="-3.15742">
        <ele>199.60000610352</ele>
        <time>2020-10-19T13:17:25.000Z</time>
      </trkpt>
      <trkpt lat="48.2169" lon="-3.15741">
        <ele>199.80000305176</ele>
        <time>2020-10-19T13:17:26.000Z</time>
      </trkpt>
      <trkpt lat="48.21689" lon="-3.15739">
        <ele>199.80000305176</ele>
        <time>2020-10-19T13:17:27.000Z</time>
      </trkpt>
      <trkpt lat="48.21689" lon="-3.15738">
        <ele>200</ele>
        <time>2020-10-19T13:17:28.000Z</time>
      </trkpt>
      <trkpt lat="48.21689" lon="-3.15737">
        <ele>200</ele>
        <time>2020-10-19T13:17:29.000Z</time>
      </trkpt>
      <trkpt lat="48.21689" lon="-3.15736">
        <ele>200</ele>
        <time>2020-10-19T13:17:30.000Z</time>
      </trkpt>
      <trkpt lat="48.21688" lon="-3.15734">
        <ele>200.19999694824</ele>
        <time>2020-10-19T13:17:31.000Z</time>
      </trkpt>
      <trkpt lat="48.21687" lon="-3.15733">
        <ele>200.19999694824</ele>
        <time>2020-10-19T13:17:32.000Z</time>
      </trkpt>
      <trkpt lat="48.21687" lon="-3.15732">
        <ele>200.19999694824</ele>
        <time>2020-10-19T13:17:33.000Z</time>
      </trkpt>
      <trkpt lat="48.21686" lon="-3.1573">
        <ele>200.39999389648</ele>
        <time>2020-10-19T13:17:34.000Z</time>
      </trkpt>
      <trkpt lat="48.21685" lon="-3.15729">
        <ele>200.39999389648</ele>
        <time>2020-10-19T13:17:35.000Z</time>
      </trkpt>
      <trkpt lat="48.21685" lon="-3.15728">
        <ele>200.60000610352</ele>
        <time>2020-10-19T13:17:36.000Z</time>
      </trkpt>
      <trkpt lat="48.21684" lon="-3.15726">
        <ele>200.60000610352</ele>
        <time>2020-10-19T13:17:37.000Z</time>
      </trkpt>
      <trkpt lat="48.21684" lon="-3.15725">
        <ele>200.80000305176</ele>
        <time>2020-10-19T13:17:38.000Z</time>
      </trkpt>
      <trkpt lat="48.21683" lon="-3.15723">
        <ele>200.80000305176</ele>
        <time>2020-10-19T13:17:39.000Z</time>
      </trkpt>
      <trkpt lat="48.21682" lon="-3.15722">
        <ele>200.80000305176</ele>
        <time>2020-10-19T13:17:40.000Z</time>
      </trkpt>
      <trkpt lat="48.21682" lon="-3.15721">
        <ele>201</ele>
        <time>2020-10-19T13:17:41.000Z</time>
      </trkpt>
      <trkpt lat="48.21682" lon="-3.1572">
        <ele>201</ele>
        <time>2020-10-19T13:17:42.000Z</time>
      </trkpt>
      <trkpt lat="48.21681" lon="-3.15718">
        <ele>201.19999694824</ele>
        <time>2020-10-19T13:17:43.000Z</time>
      </trkpt>
      <trkpt lat="48.21681" lon="-3.15717">
        <ele>201.19999694824</ele>
        <time>2020-10-19T13:17:44.000Z</time>
      </trkpt>
      <trkpt lat="48.2168" lon="-3.15716">
        <ele>201.19999694824</ele>
        <time>2020-10-19T13:17:45.000Z</time>
      </trkpt>
      <trkpt lat="48.2168" lon="-3.15715">
        <ele>201.39999389648</ele>
        <time>2020-10-19T13:17:46.000Z</time>
      </trkpt>
      <trkpt lat="48.21679" lon="-3.15713">
        <ele>201.39999389648</ele>
        <time>2020-10-19T13:17:47.000Z</time>
      </trkpt>
      <trkpt lat="48.21679" lon="-3.15712">
        <ele>201.60000610352</ele>
        <time>2020-10-19T13:17:48.000Z</time>
      </trkpt>
      <trkpt lat="48.21678" lon="-3.15711">
        <ele>201.39999389648</ele>
        <time>2020-10-19T13:17:49.000Z</time>
      </trkpt>
      <trkpt lat="48.21677" lon="-3.1571">
        <ele>201.39999389648</ele>
        <time>2020-10-19T13:17:50.000Z</time>
      </trkpt>
      <trkpt lat="48.21676" lon="-3.15709">
        <ele>201.19999694824</ele>
        <time>2020-10-19T13:17:51.000Z</time>
      </trkpt>
      <trkpt lat="48.21676" lon="-3.15708">
        <ele>201.19999694824</ele>
        <time>2020-10-19T13:17:52.000Z</time>
      </trkpt>
      <trkpt lat="48.21675" lon="-3.15707">
        <ele>201</ele>
        <time>2020-10-19T13:17:53.000Z</time>
      </trkpt>
      <trkpt lat="48.21674" lon="-3.15706">
        <ele>201</ele>
        <time>2020-10-19T13:17:54.000Z</time>
      </trkpt>
      <trkpt lat="48.21673" lon="-3.15704">
        <ele>201</ele>
        <time>2020-10-19T13:17:55.000Z</time>
      </trkpt>
      <trkpt lat="48.21673" lon="-3.15703">
        <ele>200.80000305176</ele>
        <time>2020-10-19T13:17:56.000Z</time>
      </trkpt>
      <trkpt lat="48.21671" lon="-3.15701">
        <ele>200.60000610352</ele>
        <time>2020-10-19T13:17:57.000Z</time>
      </trkpt>
      <trkpt lat="48.21671" lon="-3.15701">
        <ele>200.60000610352</ele>
        <time>2020-10-19T13:17:58.000Z</time>
      </trkpt>
      <trkpt lat="48.21671" lon="-3.157">
        <ele>200.60000610352</ele>
        <time>2020-10-19T13:17:59.000Z</time>
      </trkpt>
      <trkpt lat="48.21671" lon="-3.15699">
        <ele>200.60000610352</ele>
        <time>2020-10-19T13:18:00.000Z</time>
      </trkpt>
      <trkpt lat="48.2167" lon="-3.15698">
        <ele>200.60000610352</ele>
        <time>2020-10-19T13:18:01.000Z</time>
      </trkpt>
      <trkpt lat="48.2167" lon="-3.15697">
        <ele>200.60000610352</ele>
        <time>2020-10-19T13:18:02.000Z</time>
      </trkpt>
      <trkpt lat="48.21669" lon="-3.15695">
        <ele>200.60000610352</ele>
        <time>2020-10-19T13:18:03.000Z</time>
      </trkpt>
      <trkpt lat="48.21669" lon="-3.15694">
        <ele>200.60000610352</ele>
        <time>2020-10-19T13:18:04.000Z</time>
      </trkpt>
      <trkpt lat="48.21669" lon="-3.15692">
        <ele>200.60000610352</ele>
        <time>2020-10-19T13:18:05.000Z</time>
      </trkpt>
      <trkpt lat="48.21669" lon="-3.15691">
        <ele>200.80000305176</ele>
        <time>2020-10-19T13:18:06.000Z</time>
      </trkpt>
      <trkpt lat="48.21669" lon="-3.15689">
        <ele>200.80000305176</ele>
        <time>2020-10-19T13:18:07.000Z</time>
      </trkpt>
      <trkpt lat="48.21669" lon="-3.15688">
        <ele>201</ele>
        <time>2020-10-19T13:18:08.000Z</time>
      </trkpt>
      <trkpt lat="48.21669" lon="-3.15687">
        <ele>201</ele>
        <time>2020-10-19T13:18:09.000Z</time>
      </trkpt>
      <trkpt lat="48.21669" lon="-3.15686">
        <ele>201</ele>
        <time>2020-10-19T13:18:10.000Z</time>
      </trkpt>
      <trkpt lat="48.21669" lon="-3.15684">
        <ele>201</ele>
        <time>2020-10-19T13:18:11.000Z</time>
      </trkpt>
      <trkpt lat="48.21669" lon="-3.15683">
        <ele>201</ele>
        <time>2020-10-19T13:18:12.000Z</time>
      </trkpt>
      <trkpt lat="48.21669" lon="-3.15682">
        <ele>201.19999694824</ele>
        <time>2020-10-19T13:18:13.000Z</time>
      </trkpt>
      <trkpt lat="48.21668" lon="-3.1568">
        <ele>201.19999694824</ele>
        <time>2020-10-19T13:18:14.000Z</time>
      </trkpt>
      <trkpt lat="48.21669" lon="-3.15679">
        <ele>201.19999694824</ele>
        <time>2020-10-19T13:18:15.000Z</time>
      </trkpt>
      <trkpt lat="48.21669" lon="-3.15678">
        <ele>201.19999694824</ele>
        <time>2020-10-19T13:18:16.000Z</time>
      </trkpt>
      <trkpt lat="48.21669" lon="-3.15676">
        <ele>201.19999694824</ele>
        <time>2020-10-19T13:18:17.000Z</time>
      </trkpt>
      <trkpt lat="48.21669" lon="-3.15675">
        <ele>201.39999389648</ele>
        <time>2020-10-19T13:18:18.000Z</time>
      </trkpt>
      <trkpt lat="48.21669" lon="-3.15673">
        <ele>201.19999694824</ele>
        <time>2020-10-19T13:18:19.000Z</time>
      </trkpt>
      <trkpt lat="48.21669" lon="-3.15672">
        <ele>201.19999694824</ele>
        <time>2020-10-19T13:18:20.000Z</time>
      </trkpt>
      <trkpt lat="48.21669" lon="-3.1567">
        <ele>201.39999389648</ele>
        <time>2020-10-19T13:18:21.000Z</time>
      </trkpt>
      <trkpt lat="48.21669" lon="-3.15669">
        <ele>201.39999389648</ele>
        <time>2020-10-19T13:18:22.000Z</time>
      </trkpt>
      <trkpt lat="48.2167" lon="-3.15667">
        <ele>201.60000610352</ele>
        <time>2020-10-19T13:18:23.000Z</time>
      </trkpt>
      <trkpt lat="48.2167" lon="-3.15666">
        <ele>201.60000610352</ele>
        <time>2020-10-19T13:18:24.000Z</time>
      </trkpt>
      <trkpt lat="48.2167" lon="-3.15664">
        <ele>201.60000610352</ele>
        <time>2020-10-19T13:18:25.000Z</time>
      </trkpt>
      <trkpt lat="48.2167" lon="-3.15663">
        <ele>201.60000610352</ele>
        <time>2020-10-19T13:18:26.000Z</time>
      </trkpt>
      <trkpt lat="48.2167" lon="-3.15662">
        <ele>201.60000610352</ele>
        <time>2020-10-19T13:18:27.000Z</time>
      </trkpt>
      <trkpt lat="48.2167" lon="-3.1566">
        <ele>201.60000610352</ele>
        <time>2020-10-19T13:18:28.000Z</time>
      </trkpt>
      <trkpt lat="48.2167" lon="-3.15659">
        <ele>201.60000610352</ele>
        <time>2020-10-19T13:18:29.000Z</time>
      </trkpt>
      <trkpt lat="48.2167" lon="-3.15658">
        <ele>201.60000610352</ele>
        <time>2020-10-19T13:18:30.000Z</time>
      </trkpt>
      <trkpt lat="48.2167" lon="-3.15657">
        <ele>201.60000610352</ele>
        <time>2020-10-19T13:18:31.000Z</time>
      </trkpt>
      <trkpt lat="48.2167" lon="-3.15656">
        <ele>201.80000305176</ele>
        <time>2020-10-19T13:18:32.000Z</time>
      </trkpt>
      <trkpt lat="48.21671" lon="-3.15654">
        <ele>201.80000305176</ele>
        <time>2020-10-19T13:18:33.000Z</time>
      </trkpt>
      <trkpt lat="48.21671" lon="-3.15653">
        <ele>201.80000305176</ele>
        <time>2020-10-19T13:18:34.000Z</time>
      </trkpt>
      <trkpt lat="48.21671" lon="-3.15652">
        <ele>202</ele>
        <time>2020-10-19T13:18:35.000Z</time>
      </trkpt>
      <trkpt lat="48.21671" lon="-3.1565">
        <ele>202</ele>
        <time>2020-10-19T13:18:36.000Z</time>
      </trkpt>
      <trkpt lat="48.21672" lon="-3.15649">
        <ele>202</ele>
        <time>2020-10-19T13:18:37.000Z</time>
      </trkpt>
      <trkpt lat="48.21672" lon="-3.15648">
        <ele>202.19999694824</ele>
        <time>2020-10-19T13:18:38.000Z</time>
      </trkpt>
      <trkpt lat="48.21673" lon="-3.15646">
        <ele>202.39999389648</ele>
        <time>2020-10-19T13:18:39.000Z</time>
      </trkpt>
      <trkpt lat="48.21673" lon="-3.15645">
        <ele>202.60000610352</ele>
        <time>2020-10-19T13:18:40.000Z</time>
      </trkpt>
      <trkpt lat="48.21674" lon="-3.15643">
        <ele>202.60000610352</ele>
        <time>2020-10-19T13:18:41.000Z</time>
      </trkpt>
      <trkpt lat="48.21674" lon="-3.15642">
        <ele>202.80000305176</ele>
        <time>2020-10-19T13:18:42.000Z</time>
      </trkpt>
      <trkpt lat="48.21675" lon="-3.15641">
        <ele>203</ele>
        <time>2020-10-19T13:18:43.000Z</time>
      </trkpt>
      <trkpt lat="48.21675" lon="-3.1564">
        <ele>203.19999694824</ele>
        <time>2020-10-19T13:18:44.000Z</time>
      </trkpt>
      <trkpt lat="48.21676" lon="-3.15638">
        <ele>203.19999694824</ele>
        <time>2020-10-19T13:18:45.000Z</time>
      </trkpt>
      <trkpt lat="48.21676" lon="-3.15637">
        <ele>203.19999694824</ele>
        <time>2020-10-19T13:18:46.000Z</time>
      </trkpt>
      <trkpt lat="48.21676" lon="-3.15636">
        <ele>203.19999694824</ele>
        <time>2020-10-19T13:18:47.000Z</time>
      </trkpt>
      <trkpt lat="48.21676" lon="-3.15635">
        <ele>203.39999389648</ele>
        <time>2020-10-19T13:18:48.000Z</time>
      </trkpt>
      <trkpt lat="48.21676" lon="-3.15633">
        <ele>203.39999389648</ele>
        <time>2020-10-19T13:18:49.000Z</time>
      </trkpt>
      <trkpt lat="48.21676" lon="-3.15632">
        <ele>203.39999389648</ele>
        <time>2020-10-19T13:18:50.000Z</time>
      </trkpt>
      <trkpt lat="48.21677" lon="-3.15631">
        <ele>203.39999389648</ele>
        <time>2020-10-19T13:18:51.000Z</time>
      </trkpt>
      <trkpt lat="48.21677" lon="-3.1563">
        <ele>203.60000610352</ele>
        <time>2020-10-19T13:18:52.000Z</time>
      </trkpt>
      <trkpt lat="48.21678" lon="-3.15628">
        <ele>203.80000305176</ele>
        <time>2020-10-19T13:18:53.000Z</time>
      </trkpt>
      <trkpt lat="48.21678" lon="-3.15627">
        <ele>203.80000305176</ele>
        <time>2020-10-19T13:18:54.000Z</time>
      </trkpt>
      <trkpt lat="48.21678" lon="-3.15626">
        <ele>203.80000305176</ele>
        <time>2020-10-19T13:18:55.000Z</time>
      </trkpt>
      <trkpt lat="48.21679" lon="-3.15625">
        <ele>204</ele>
        <time>2020-10-19T13:18:56.000Z</time>
      </trkpt>
      <trkpt lat="48.21679" lon="-3.15623">
        <ele>204</ele>
        <time>2020-10-19T13:18:57.000Z</time>
      </trkpt>
      <trkpt lat="48.21679" lon="-3.15622">
        <ele>204</ele>
        <time>2020-10-19T13:18:58.000Z</time>
      </trkpt>
      <trkpt lat="48.2168" lon="-3.1562">
        <ele>204.19999694824</ele>
        <time>2020-10-19T13:18:59.000Z</time>
      </trkpt>
      <trkpt lat="48.2168" lon="-3.15619">
        <ele>204</ele>
        <time>2020-10-19T13:19:00.000Z</time>
      </trkpt>
      <trkpt lat="48.2168" lon="-3.15618">
        <ele>204.19999694824</ele>
        <time>2020-10-19T13:19:01.000Z</time>
      </trkpt>
      <trkpt lat="48.2168" lon="-3.15616">
        <ele>204.19999694824</ele>
        <time>2020-10-19T13:19:02.000Z</time>
      </trkpt>
      <trkpt lat="48.2168" lon="-3.15615">
        <ele>204.19999694824</ele>
        <time>2020-10-19T13:19:03.000Z</time>
      </trkpt>
      <trkpt lat="48.21681" lon="-3.15613">
        <ele>204.19999694824</ele>
        <time>2020-10-19T13:19:04.000Z</time>
      </trkpt>
      <trkpt lat="48.21681" lon="-3.15612">
        <ele>204.19999694824</ele>
        <time>2020-10-19T13:19:05.000Z</time>
      </trkpt>
      <trkpt lat="48.21682" lon="-3.15611">
        <ele>204.19999694824</ele>
        <time>2020-10-19T13:19:06.000Z</time>
      </trkpt>
      <trkpt lat="48.21682" lon="-3.1561">
        <ele>204.19999694824</ele>
        <time>2020-10-19T13:19:07.000Z</time>
      </trkpt>
      <trkpt lat="48.21682" lon="-3.15609">
        <ele>204.39999389648</ele>
        <time>2020-10-19T13:19:08.000Z</time>
      </trkpt>
      <trkpt lat="48.21683" lon="-3.15607">
        <ele>204.39999389648</ele>
        <time>2020-10-19T13:19:09.000Z</time>
      </trkpt>
      <trkpt lat="48.21683" lon="-3.15606">
        <ele>204.39999389648</ele>
        <time>2020-10-19T13:19:10.000Z</time>
      </trkpt>
      <trkpt lat="48.21684" lon="-3.15605">
        <ele>204.39999389648</ele>
        <time>2020-10-19T13:19:11.000Z</time>
      </trkpt>
      <trkpt lat="48.21684" lon="-3.15603">
        <ele>204.39999389648</ele>
        <time>2020-10-19T13:19:12.000Z</time>
      </trkpt>
      <trkpt lat="48.21685" lon="-3.15602">
        <ele>204.60000610352</ele>
        <time>2020-10-19T13:19:13.000Z</time>
      </trkpt>
      <trkpt lat="48.21685" lon="-3.15601">
        <ele>204.60000610352</ele>
        <time>2020-10-19T13:19:14.000Z</time>
      </trkpt>
      <trkpt lat="48.21686" lon="-3.15599">
        <ele>204.60000610352</ele>
        <time>2020-10-19T13:19:15.000Z</time>
      </trkpt>
      <trkpt lat="48.21686" lon="-3.15598">
        <ele>204.60000610352</ele>
        <time>2020-10-19T13:19:16.000Z</time>
      </trkpt>
      <trkpt lat="48.21687" lon="-3.15596">
        <ele>204.80000305176</ele>
        <time>2020-10-19T13:19:17.000Z</time>
      </trkpt>
      <trkpt lat="48.21688" lon="-3.15595">
        <ele>204.80000305176</ele>
        <time>2020-10-19T13:19:18.000Z</time>
      </trkpt>
      <trkpt lat="48.21688" lon="-3.15593">
        <ele>204.80000305176</ele>
        <time>2020-10-19T13:19:19.000Z</time>
      </trkpt>
      <trkpt lat="48.21688" lon="-3.15591">
        <ele>205</ele>
        <time>2020-10-19T13:19:20.000Z</time>
      </trkpt>
      <trkpt lat="48.21688" lon="-3.1559">
        <ele>205</ele>
        <time>2020-10-19T13:19:21.000Z</time>
      </trkpt>
      <trkpt lat="48.21688" lon="-3.15589">
        <ele>205.19999694824</ele>
        <time>2020-10-19T13:19:22.000Z</time>
      </trkpt>
      <trkpt lat="48.21689" lon="-3.15587">
        <ele>205.39999389648</ele>
        <time>2020-10-19T13:19:23.000Z</time>
      </trkpt>
      <trkpt lat="48.21689" lon="-3.15585">
        <ele>205.60000610352</ele>
        <time>2020-10-19T13:19:24.000Z</time>
      </trkpt>
      <trkpt lat="48.2169" lon="-3.15584">
        <ele>205.80000305176</ele>
        <time>2020-10-19T13:19:25.000Z</time>
      </trkpt>
      <trkpt lat="48.2169" lon="-3.15582">
        <ele>205.80000305176</ele>
        <time>2020-10-19T13:19:26.000Z</time>
      </trkpt>
      <trkpt lat="48.21691" lon="-3.15581">
        <ele>205.80000305176</ele>
        <time>2020-10-19T13:19:27.000Z</time>
      </trkpt>
      <trkpt lat="48.21691" lon="-3.15579">
        <ele>206</ele>
        <time>2020-10-19T13:19:28.000Z</time>
      </trkpt>
      <trkpt lat="48.21692" lon="-3.15578">
        <ele>206</ele>
        <time>2020-10-19T13:19:29.000Z</time>
      </trkpt>
      <trkpt lat="48.21692" lon="-3.15577">
        <ele>206</ele>
        <time>2020-10-19T13:19:30.000Z</time>
      </trkpt>
      <trkpt lat="48.21693" lon="-3.15575">
        <ele>206.19999694824</ele>
        <time>2020-10-19T13:19:31.000Z</time>
      </trkpt>
      <trkpt lat="48.21693" lon="-3.15574">
        <ele>206.19999694824</ele>
        <time>2020-10-19T13:19:32.000Z</time>
      </trkpt>
      <trkpt lat="48.21694" lon="-3.15573">
        <ele>206.19999694824</ele>
        <time>2020-10-19T13:19:33.000Z</time>
      </trkpt>
      <trkpt lat="48.21694" lon="-3.15571">
        <ele>206.39999389648</ele>
        <time>2020-10-19T13:19:34.000Z</time>
      </trkpt>
      <trkpt lat="48.21694" lon="-3.1557">
        <ele>206.39999389648</ele>
        <time>2020-10-19T13:19:35.000Z</time>
      </trkpt>
      <trkpt lat="48.21694" lon="-3.15568">
        <ele>206.39999389648</ele>
        <time>2020-10-19T13:19:36.000Z</time>
      </trkpt>
      <trkpt lat="48.21695" lon="-3.15567">
        <ele>206.39999389648</ele>
        <time>2020-10-19T13:19:37.000Z</time>
      </trkpt>
      <trkpt lat="48.21695" lon="-3.15566">
        <ele>206.39999389648</ele>
        <time>2020-10-19T13:19:38.000Z</time>
      </trkpt>
      <trkpt lat="48.21695" lon="-3.15564">
        <ele>206.39999389648</ele>
        <time>2020-10-19T13:19:39.000Z</time>
      </trkpt>
      <trkpt lat="48.21696" lon="-3.15563">
        <ele>206.60000610352</ele>
        <time>2020-10-19T13:19:40.000Z</time>
      </trkpt>
      <trkpt lat="48.21696" lon="-3.15561">
        <ele>206.60000610352</ele>
        <time>2020-10-19T13:19:41.000Z</time>
      </trkpt>
      <trkpt lat="48.21697" lon="-3.1556">
        <ele>206.60000610352</ele>
        <time>2020-10-19T13:19:42.000Z</time>
      </trkpt>
      <trkpt lat="48.21697" lon="-3.15558">
        <ele>206.80000305176</ele>
        <time>2020-10-19T13:19:43.000Z</time>
      </trkpt>
      <trkpt lat="48.21698" lon="-3.15557">
        <ele>206.80000305176</ele>
        <time>2020-10-19T13:19:44.000Z</time>
      </trkpt>
      <trkpt lat="48.21698" lon="-3.15556">
        <ele>206.80000305176</ele>
        <time>2020-10-19T13:19:45.000Z</time>
      </trkpt>
      <trkpt lat="48.21698" lon="-3.15554">
        <ele>206.80000305176</ele>
        <time>2020-10-19T13:19:46.000Z</time>
      </trkpt>
      <trkpt lat="48.21698" lon="-3.15552">
        <ele>206.80000305176</ele>
        <time>2020-10-19T13:19:47.000Z</time>
      </trkpt>
      <trkpt lat="48.21699" lon="-3.15551">
        <ele>206.80000305176</ele>
        <time>2020-10-19T13:19:48.000Z</time>
      </trkpt>
      <trkpt lat="48.21699" lon="-3.1555">
        <ele>206.80000305176</ele>
        <time>2020-10-19T13:19:49.000Z</time>
      </trkpt>
      <trkpt lat="48.21699" lon="-3.15548">
        <ele>206.80000305176</ele>
        <time>2020-10-19T13:19:50.000Z</time>
      </trkpt>
      <trkpt lat="48.21699" lon="-3.15547">
        <ele>206.80000305176</ele>
        <time>2020-10-19T13:19:51.000Z</time>
      </trkpt>
      <trkpt lat="48.217" lon="-3.15546">
        <ele>207</ele>
        <time>2020-10-19T13:19:52.000Z</time>
      </trkpt>
      <trkpt lat="48.217" lon="-3.15544">
        <ele>207</ele>
        <time>2020-10-19T13:19:53.000Z</time>
      </trkpt>
      <trkpt lat="48.217" lon="-3.15543">
        <ele>207</ele>
        <time>2020-10-19T13:19:54.000Z</time>
      </trkpt>
      <trkpt lat="48.217" lon="-3.15542">
        <ele>207</ele>
        <time>2020-10-19T13:19:55.000Z</time>
      </trkpt>
      <trkpt lat="48.217" lon="-3.15541">
        <ele>207</ele>
        <time>2020-10-19T13:19:56.000Z</time>
      </trkpt>
      <trkpt lat="48.217" lon="-3.15541">
        <ele>207</ele>
        <time>2020-10-19T13:19:57.000Z</time>
      </trkpt>
      <trkpt lat="48.217" lon="-3.15541">
        <ele>207</ele>
        <time>2020-10-19T13:19:58.000Z</time>
      </trkpt>
      <trkpt lat="48.217" lon="-3.15541">
        <ele>207</ele>
        <time>2020-10-19T13:19:59.000Z</time>
      </trkpt>
      <trkpt lat="48.217" lon="-3.15541">
        <ele>207</ele>
        <time>2020-10-19T13:20:00.000Z</time>
      </trkpt>
      <trkpt lat="48.217" lon="-3.15541">
        <ele>207</ele>
        <time>2020-10-19T13:20:01.000Z</time>
      </trkpt>
      <trkpt lat="48.217" lon="-3.15541">
        <ele>207</ele>
        <time>2020-10-19T13:20:02.000Z</time>
      </trkpt>
      <trkpt lat="48.217" lon="-3.15541">
        <ele>207</ele>
        <time>2020-10-19T13:20:03.000Z</time>
      </trkpt>
      <trkpt lat="48.217" lon="-3.15541">
        <ele>207</ele>
        <time>2020-10-19T13:20:04.000Z</time>
      </trkpt>
      <trkpt lat="48.217" lon="-3.15541">
        <ele>207</ele>
        <time>2020-10-19T13:20:05.000Z</time>
      </trkpt>
      <trkpt lat="48.217" lon="-3.15541">
        <ele>207</ele>
        <time>2020-10-19T13:20:06.000Z</time>
      </trkpt>
      <trkpt lat="48.217" lon="-3.15541">
        <ele>207</ele>
        <time>2020-10-19T13:20:07.000Z</time>
      </trkpt>
      <trkpt lat="48.217" lon="-3.15541">
        <ele>207</ele>
        <time>2020-10-19T13:20:08.000Z</time>
      </trkpt>
      <trkpt lat="48.217" lon="-3.1554">
        <ele>207</ele>
        <time>2020-10-19T13:20:09.000Z</time>
      </trkpt>
      <trkpt lat="48.21701" lon="-3.1554">
        <ele>207</ele>
        <time>2020-10-19T13:20:10.000Z</time>
      </trkpt>
      <trkpt lat="48.21701" lon="-3.1554">
        <ele>207</ele>
        <time>2020-10-19T13:20:11.000Z</time>
      </trkpt>
      <trkpt lat="48.21701" lon="-3.1554">
        <ele>207</ele>
        <time>2020-10-19T13:20:12.000Z</time>
      </trkpt>
      <trkpt lat="48.21701" lon="-3.1554">
        <ele>207</ele>
        <time>2020-10-19T13:20:13.000Z</time>
      </trkpt>
      <trkpt lat="48.21701" lon="-3.1554">
        <ele>207.19999694824</ele>
        <time>2020-10-19T13:20:14.000Z</time>
      </trkpt>
      <trkpt lat="48.21701" lon="-3.15539">
        <ele>207.19999694824</ele>
        <time>2020-10-19T13:20:15.000Z</time>
      </trkpt>
      <trkpt lat="48.21702" lon="-3.15538">
        <ele>207.19999694824</ele>
        <time>2020-10-19T13:20:16.000Z</time>
      </trkpt>
      <trkpt lat="48.21702" lon="-3.15537">
        <ele>207.19999694824</ele>
        <time>2020-10-19T13:20:17.000Z</time>
      </trkpt>
      <trkpt lat="48.21702" lon="-3.15535">
        <ele>207.19999694824</ele>
        <time>2020-10-19T13:20:18.000Z</time>
      </trkpt>
      <trkpt lat="48.21702" lon="-3.15534">
        <ele>207.19999694824</ele>
        <time>2020-10-19T13:20:19.000Z</time>
      </trkpt>
      <trkpt lat="48.21702" lon="-3.15533">
        <ele>207.19999694824</ele>
        <time>2020-10-19T13:20:20.000Z</time>
      </trkpt>
      <trkpt lat="48.21702" lon="-3.15532">
        <ele>207.19999694824</ele>
        <time>2020-10-19T13:20:21.000Z</time>
      </trkpt>
      <trkpt lat="48.21702" lon="-3.1553">
        <ele>207.19999694824</ele>
        <time>2020-10-19T13:20:22.000Z</time>
      </trkpt>
      <trkpt lat="48.21703" lon="-3.15529">
        <ele>207.19999694824</ele>
        <time>2020-10-19T13:20:23.000Z</time>
      </trkpt>
      <trkpt lat="48.21703" lon="-3.15527">
        <ele>207.19999694824</ele>
        <time>2020-10-19T13:20:24.000Z</time>
      </trkpt>
      <trkpt lat="48.21703" lon="-3.15526">
        <ele>207.19999694824</ele>
        <time>2020-10-19T13:20:25.000Z</time>
      </trkpt>
      <trkpt lat="48.21703" lon="-3.15525">
        <ele>207.19999694824</ele>
        <time>2020-10-19T13:20:26.000Z</time>
      </trkpt>
      <trkpt lat="48.21703" lon="-3.15523">
        <ele>207.19999694824</ele>
        <time>2020-10-19T13:20:27.000Z</time>
      </trkpt>
      <trkpt lat="48.21703" lon="-3.15522">
        <ele>207.19999694824</ele>
        <time>2020-10-19T13:20:28.000Z</time>
      </trkpt>
      <trkpt lat="48.21703" lon="-3.15521">
        <ele>207.19999694824</ele>
        <time>2020-10-19T13:20:29.000Z</time>
      </trkpt>
      <trkpt lat="48.21703" lon="-3.15519">
        <ele>207.19999694824</ele>
        <time>2020-10-19T13:20:30.000Z</time>
      </trkpt>
      <trkpt lat="48.21704" lon="-3.15518">
        <ele>207.39999389648</ele>
        <time>2020-10-19T13:20:31.000Z</time>
      </trkpt>
      <trkpt lat="48.21704" lon="-3.15517">
        <ele>207.39999389648</ele>
        <time>2020-10-19T13:20:32.000Z</time>
      </trkpt>
      <trkpt lat="48.21704" lon="-3.15516">
        <ele>207.39999389648</ele>
        <time>2020-10-19T13:20:33.000Z</time>
      </trkpt>
      <trkpt lat="48.21705" lon="-3.15514">
        <ele>207.39999389648</ele>
        <time>2020-10-19T13:20:34.000Z</time>
      </trkpt>
      <trkpt lat="48.21705" lon="-3.15513">
        <ele>207.39999389648</ele>
        <time>2020-10-19T13:20:35.000Z</time>
      </trkpt>
      <trkpt lat="48.21705" lon="-3.15512">
        <ele>207.60000610352</ele>
        <time>2020-10-19T13:20:36.000Z</time>
      </trkpt>
      <trkpt lat="48.21706" lon="-3.15511">
        <ele>207.60000610352</ele>
        <time>2020-10-19T13:20:37.000Z</time>
      </trkpt>
      <trkpt lat="48.21706" lon="-3.15509">
        <ele>207.60000610352</ele>
        <time>2020-10-19T13:20:38.000Z</time>
      </trkpt>
      <trkpt lat="48.21706" lon="-3.15508">
        <ele>207.60000610352</ele>
        <time>2020-10-19T13:20:39.000Z</time>
      </trkpt>
      <trkpt lat="48.21706" lon="-3.15507">
        <ele>207.80000305176</ele>
        <time>2020-10-19T13:20:40.000Z</time>
      </trkpt>
      <trkpt lat="48.21706" lon="-3.15505">
        <ele>207.80000305176</ele>
        <time>2020-10-19T13:20:41.000Z</time>
      </trkpt>
      <trkpt lat="48.21706" lon="-3.15504">
        <ele>208</ele>
        <time>2020-10-19T13:20:42.000Z</time>
      </trkpt>
      <trkpt lat="48.21706" lon="-3.15502">
        <ele>208</ele>
        <time>2020-10-19T13:20:43.000Z</time>
      </trkpt>
      <trkpt lat="48.21706" lon="-3.15501">
        <ele>208</ele>
        <time>2020-10-19T13:20:44.000Z</time>
      </trkpt>
      <trkpt lat="48.21706" lon="-3.15499">
        <ele>208</ele>
        <time>2020-10-19T13:20:45.000Z</time>
      </trkpt>
      <trkpt lat="48.21706" lon="-3.15498">
        <ele>208.19999694824</ele>
        <time>2020-10-19T13:20:46.000Z</time>
      </trkpt>
      <trkpt lat="48.21706" lon="-3.15496">
        <ele>208.19999694824</ele>
        <time>2020-10-19T13:20:47.000Z</time>
      </trkpt>
      <trkpt lat="48.21707" lon="-3.15495">
        <ele>208.19999694824</ele>
        <time>2020-10-19T13:20:48.000Z</time>
      </trkpt>
      <trkpt lat="48.21707" lon="-3.15494">
        <ele>208.39999389648</ele>
        <time>2020-10-19T13:20:49.000Z</time>
      </trkpt>
      <trkpt lat="48.21707" lon="-3.15492">
        <ele>208.39999389648</ele>
        <time>2020-10-19T13:20:50.000Z</time>
      </trkpt>
      <trkpt lat="48.21707" lon="-3.15491">
        <ele>208.39999389648</ele>
        <time>2020-10-19T13:20:51.000Z</time>
      </trkpt>
      <trkpt lat="48.21707" lon="-3.15489">
        <ele>208.60000610352</ele>
        <time>2020-10-19T13:20:52.000Z</time>
      </trkpt>
      <trkpt lat="48.21707" lon="-3.15488">
        <ele>208.60000610352</ele>
        <time>2020-10-19T13:20:53.000Z</time>
      </trkpt>
      <trkpt lat="48.21707" lon="-3.15486">
        <ele>208.60000610352</ele>
        <time>2020-10-19T13:20:54.000Z</time>
      </trkpt>
      <trkpt lat="48.21707" lon="-3.15485">
        <ele>208.80000305176</ele>
        <time>2020-10-19T13:20:55.000Z</time>
      </trkpt>
      <trkpt lat="48.21708" lon="-3.15483">
        <ele>208.80000305176</ele>
        <time>2020-10-19T13:20:56.000Z</time>
      </trkpt>
      <trkpt lat="48.21708" lon="-3.15482">
        <ele>209</ele>
        <time>2020-10-19T13:20:57.000Z</time>
      </trkpt>
      <trkpt lat="48.21708" lon="-3.1548">
        <ele>209</ele>
        <time>2020-10-19T13:20:58.000Z</time>
      </trkpt>
      <trkpt lat="48.21708" lon="-3.15479">
        <ele>209</ele>
        <time>2020-10-19T13:20:59.000Z</time>
      </trkpt>
      <trkpt lat="48.21709" lon="-3.15478">
        <ele>209.19999694824</ele>
        <time>2020-10-19T13:21:00.000Z</time>
      </trkpt>
      <trkpt lat="48.21709" lon="-3.15477">
        <ele>209.19999694824</ele>
        <time>2020-10-19T13:21:01.000Z</time>
      </trkpt>
      <trkpt lat="48.21709" lon="-3.15475">
        <ele>209.19999694824</ele>
        <time>2020-10-19T13:21:02.000Z</time>
      </trkpt>
      <trkpt lat="48.2171" lon="-3.15474">
        <ele>209.39999389648</ele>
        <time>2020-10-19T13:21:03.000Z</time>
      </trkpt>
      <trkpt lat="48.2171" lon="-3.15473">
        <ele>209.39999389648</ele>
        <time>2020-10-19T13:21:04.000Z</time>
      </trkpt>
      <trkpt lat="48.2171" lon="-3.15471">
        <ele>209.39999389648</ele>
        <time>2020-10-19T13:21:05.000Z</time>
      </trkpt>
      <trkpt lat="48.21711" lon="-3.1547">
        <ele>209.60000610352</ele>
        <time>2020-10-19T13:21:06.000Z</time>
      </trkpt>
      <trkpt lat="48.21711" lon="-3.15469">
        <ele>209.60000610352</ele>
        <time>2020-10-19T13:21:07.000Z</time>
      </trkpt>
      <trkpt lat="48.21711" lon="-3.15468">
        <ele>209.60000610352</ele>
        <time>2020-10-19T13:21:08.000Z</time>
      </trkpt>
      <trkpt lat="48.21712" lon="-3.15467">
        <ele>209.80000305176</ele>
        <time>2020-10-19T13:21:09.000Z</time>
      </trkpt>
      <trkpt lat="48.21712" lon="-3.15465">
        <ele>209.80000305176</ele>
        <time>2020-10-19T13:21:10.000Z</time>
      </trkpt>
      <trkpt lat="48.21712" lon="-3.15464">
        <ele>209.80000305176</ele>
        <time>2020-10-19T13:21:11.000Z</time>
      </trkpt>
      <trkpt lat="48.21713" lon="-3.15463">
        <ele>210</ele>
        <time>2020-10-19T13:21:12.000Z</time>
      </trkpt>
      <trkpt lat="48.21713" lon="-3.15461">
        <ele>210</ele>
        <time>2020-10-19T13:21:13.000Z</time>
      </trkpt>
      <trkpt lat="48.21714" lon="-3.1546">
        <ele>210.19999694824</ele>
        <time>2020-10-19T13:21:14.000Z</time>
      </trkpt>
      <trkpt lat="48.21714" lon="-3.15459">
        <ele>210.19999694824</ele>
        <time>2020-10-19T13:21:15.000Z</time>
      </trkpt>
      <trkpt lat="48.21714" lon="-3.15458">
        <ele>210.19999694824</ele>
        <time>2020-10-19T13:21:16.000Z</time>
      </trkpt>
      <trkpt lat="48.21714" lon="-3.15456">
        <ele>210.19999694824</ele>
        <time>2020-10-19T13:21:17.000Z</time>
      </trkpt>
      <trkpt lat="48.21714" lon="-3.15455">
        <ele>210.39999389648</ele>
        <time>2020-10-19T13:21:18.000Z</time>
      </trkpt>
      <trkpt lat="48.21715" lon="-3.15454">
        <ele>210.39999389648</ele>
        <time>2020-10-19T13:21:19.000Z</time>
      </trkpt>
      <trkpt lat="48.21715" lon="-3.15453">
        <ele>210.39999389648</ele>
        <time>2020-10-19T13:21:20.000Z</time>
      </trkpt>
      <trkpt lat="48.21715" lon="-3.15452">
        <ele>210.60000610352</ele>
        <time>2020-10-19T13:21:21.000Z</time>
      </trkpt>
      <trkpt lat="48.21716" lon="-3.15451">
        <ele>210.60000610352</ele>
        <time>2020-10-19T13:21:22.000Z</time>
      </trkpt>
      <trkpt lat="48.21717" lon="-3.1545">
        <ele>210.80000305176</ele>
        <time>2020-10-19T13:21:23.000Z</time>
      </trkpt>
      <trkpt lat="48.21717" lon="-3.15449">
        <ele>210.80000305176</ele>
        <time>2020-10-19T13:21:24.000Z</time>
      </trkpt>
      <trkpt lat="48.21718" lon="-3.15449">
        <ele>211</ele>
        <time>2020-10-19T13:21:25.000Z</time>
      </trkpt>
      <trkpt lat="48.21719" lon="-3.15447">
        <ele>211.19999694824</ele>
        <time>2020-10-19T13:21:26.000Z</time>
      </trkpt>
      <trkpt lat="48.2172" lon="-3.15446">
        <ele>211.39999389648</ele>
        <time>2020-10-19T13:21:27.000Z</time>
      </trkpt>
      <trkpt lat="48.2172" lon="-3.15446">
        <ele>211.39999389648</ele>
        <time>2020-10-19T13:21:28.000Z</time>
      </trkpt>
      <trkpt lat="48.21721" lon="-3.15444">
        <ele>211.60000610352</ele>
        <time>2020-10-19T13:21:29.000Z</time>
      </trkpt>
      <trkpt lat="48.21721" lon="-3.15443">
        <ele>211.80000305176</ele>
        <time>2020-10-19T13:21:30.000Z</time>
      </trkpt>
      <trkpt lat="48.21722" lon="-3.15442">
        <ele>211.80000305176</ele>
        <time>2020-10-19T13:21:31.000Z</time>
      </trkpt>
      <trkpt lat="48.21722" lon="-3.15441">
        <ele>212</ele>
        <time>2020-10-19T13:21:32.000Z</time>
      </trkpt>
      <trkpt lat="48.21723" lon="-3.15439">
        <ele>212</ele>
        <time>2020-10-19T13:21:33.000Z</time>
      </trkpt>
      <trkpt lat="48.21723" lon="-3.15438">
        <ele>212</ele>
        <time>2020-10-19T13:21:34.000Z</time>
      </trkpt>
      <trkpt lat="48.21723" lon="-3.15437">
        <ele>212</ele>
        <time>2020-10-19T13:21:35.000Z</time>
      </trkpt>
      <trkpt lat="48.21723" lon="-3.15436">
        <ele>212</ele>
        <time>2020-10-19T13:21:36.000Z</time>
      </trkpt>
      <trkpt lat="48.21723" lon="-3.15436">
        <ele>212</ele>
        <time>2020-10-19T13:21:37.000Z</time>
      </trkpt>
      <trkpt lat="48.21723" lon="-3.15435">
        <ele>212</ele>
        <time>2020-10-19T13:21:38.000Z</time>
      </trkpt>
      <trkpt lat="48.21723" lon="-3.15433">
        <ele>212</ele>
        <time>2020-10-19T13:21:39.000Z</time>
      </trkpt>
      <trkpt lat="48.21723" lon="-3.15432">
        <ele>212.19999694824</ele>
        <time>2020-10-19T13:21:40.000Z</time>
      </trkpt>
      <trkpt lat="48.21724" lon="-3.15431">
        <ele>212.19999694824</ele>
        <time>2020-10-19T13:21:41.000Z</time>
      </trkpt>
      <trkpt lat="48.21724" lon="-3.15431">
        <ele>212.19999694824</ele>
        <time>2020-10-19T13:21:42.000Z</time>
      </trkpt>
      <trkpt lat="48.21724" lon="-3.1543">
        <ele>212.19999694824</ele>
        <time>2020-10-19T13:21:43.000Z</time>
      </trkpt>
      <trkpt lat="48.21724" lon="-3.1543">
        <ele>212.19999694824</ele>
        <time>2020-10-19T13:21:44.000Z</time>
      </trkpt>
      <trkpt lat="48.21724" lon="-3.1543">
        <ele>212.19999694824</ele>
        <time>2020-10-19T13:21:45.000Z</time>
      </trkpt>
      <trkpt lat="48.21724" lon="-3.1543">
        <ele>212.39999389648</ele>
        <time>2020-10-19T13:21:46.000Z</time>
      </trkpt>
      <trkpt lat="48.21724" lon="-3.1543">
        <ele>212.39999389648</ele>
        <time>2020-10-19T13:21:47.000Z</time>
      </trkpt>
      <trkpt lat="48.21725" lon="-3.1543">
        <ele>212.39999389648</ele>
        <time>2020-10-19T13:21:48.000Z</time>
      </trkpt>
      <trkpt lat="48.21725" lon="-3.1543">
        <ele>212.39999389648</ele>
        <time>2020-10-19T13:21:49.000Z</time>
      </trkpt>
      <trkpt lat="48.21725" lon="-3.1543">
        <ele>212.39999389648</ele>
        <time>2020-10-19T13:21:50.000Z</time>
      </trkpt>
      <trkpt lat="48.21725" lon="-3.1543">
        <ele>212.39999389648</ele>
        <time>2020-10-19T13:21:51.000Z</time>
      </trkpt>
      <trkpt lat="48.21725" lon="-3.1543">
        <ele>212.39999389648</ele>
        <time>2020-10-19T13:21:52.000Z</time>
      </trkpt>
      <trkpt lat="48.21725" lon="-3.1543">
        <ele>212.39999389648</ele>
        <time>2020-10-19T13:21:53.000Z</time>
      </trkpt>
      <trkpt lat="48.21725" lon="-3.1543">
        <ele>212.39999389648</ele>
        <time>2020-10-19T13:21:54.000Z</time>
      </trkpt>
      <trkpt lat="48.21725" lon="-3.1543">
        <ele>212.39999389648</ele>
        <time>2020-10-19T13:21:55.000Z</time>
      </trkpt>
      <trkpt lat="48.21725" lon="-3.1543">
        <ele>212.39999389648</ele>
        <time>2020-10-19T13:21:56.000Z</time>
      </trkpt>
      <trkpt lat="48.21725" lon="-3.1543">
        <ele>212.39999389648</ele>
        <time>2020-10-19T13:21:57.000Z</time>
      </trkpt>
      <trkpt lat="48.21725" lon="-3.1543">
        <ele>212.39999389648</ele>
        <time>2020-10-19T13:21:58.000Z</time>
      </trkpt>
      <trkpt lat="48.21725" lon="-3.1543">
        <ele>212.39999389648</ele>
        <time>2020-10-19T13:21:59.000Z</time>
      </trkpt>
      <trkpt lat="48.21725" lon="-3.1543">
        <ele>212.39999389648</ele>
        <time>2020-10-19T13:22:00.000Z</time>
      </trkpt>
      <trkpt lat="48.21725" lon="-3.1543">
        <ele>212.39999389648</ele>
        <time>2020-10-19T13:22:01.000Z</time>
      </trkpt>
      <trkpt lat="48.21725" lon="-3.1543">
        <ele>212.39999389648</ele>
        <time>2020-10-19T13:22:02.000Z</time>
      </trkpt>
      <trkpt lat="48.21725" lon="-3.1543">
        <ele>212.39999389648</ele>
        <time>2020-10-19T13:22:03.000Z</time>
      </trkpt>
      <trkpt lat="48.21725" lon="-3.15429">
        <ele>212.39999389648</ele>
        <time>2020-10-19T13:22:04.000Z</time>
      </trkpt>
      <trkpt lat="48.21725" lon="-3.15429">
        <ele>212.39999389648</ele>
        <time>2020-10-19T13:22:05.000Z</time>
      </trkpt>
      <trkpt lat="48.21725" lon="-3.15429">
        <ele>212.39999389648</ele>
        <time>2020-10-19T13:22:06.000Z</time>
      </trkpt>
      <trkpt lat="48.21725" lon="-3.15429">
        <ele>212.39999389648</ele>
        <time>2020-10-19T13:22:07.000Z</time>
      </trkpt>
      <trkpt lat="48.21725" lon="-3.1543">
        <ele>212.39999389648</ele>
        <time>2020-10-19T13:22:08.000Z</time>
      </trkpt>
      <trkpt lat="48.21725" lon="-3.1543">
        <ele>212.60000610352</ele>
        <time>2020-10-19T13:22:09.000Z</time>
      </trkpt>
      <trkpt lat="48.21725" lon="-3.1543">
        <ele>212.60000610352</ele>
        <time>2020-10-19T13:22:10.000Z</time>
      </trkpt>
      <trkpt lat="48.21726" lon="-3.1543">
        <ele>212.60000610352</ele>
        <time>2020-10-19T13:22:11.000Z</time>
      </trkpt>
      <trkpt lat="48.21726" lon="-3.1543">
        <ele>212.60000610352</ele>
        <time>2020-10-19T13:22:12.000Z</time>
      </trkpt>
      <trkpt lat="48.21726" lon="-3.15431">
        <ele>212.60000610352</ele>
        <time>2020-10-19T13:22:13.000Z</time>
      </trkpt>
      <trkpt lat="48.21725" lon="-3.1543">
        <ele>212.60000610352</ele>
        <time>2020-10-19T13:22:14.000Z</time>
      </trkpt>
      <trkpt lat="48.21725" lon="-3.1543">
        <ele>212.60000610352</ele>
        <time>2020-10-19T13:22:15.000Z</time>
      </trkpt>
      <trkpt lat="48.21725" lon="-3.15431">
        <ele>212.60000610352</ele>
        <time>2020-10-19T13:22:16.000Z</time>
      </trkpt>
      <trkpt lat="48.21726" lon="-3.15431">
        <ele>212.60000610352</ele>
        <time>2020-10-19T13:22:17.000Z</time>
      </trkpt>
      <trkpt lat="48.21725" lon="-3.15431">
        <ele>212.60000610352</ele>
        <time>2020-10-19T13:22:18.000Z</time>
      </trkpt>
      <trkpt lat="48.21725" lon="-3.15431">
        <ele>212.60000610352</ele>
        <time>2020-10-19T13:22:19.000Z</time>
      </trkpt>
      <trkpt lat="48.21725" lon="-3.15431">
        <ele>212.60000610352</ele>
        <time>2020-10-19T13:22:20.000Z</time>
      </trkpt>
      <trkpt lat="48.21725" lon="-3.15431">
        <ele>212.60000610352</ele>
        <time>2020-10-19T13:22:21.000Z</time>
      </trkpt>
      <trkpt lat="48.21725" lon="-3.15431">
        <ele>212.60000610352</ele>
        <time>2020-10-19T13:22:22.000Z</time>
      </trkpt>
      <trkpt lat="48.21725" lon="-3.15431">
        <ele>212.60000610352</ele>
        <time>2020-10-19T13:22:23.000Z</time>
      </trkpt>
      <trkpt lat="48.21725" lon="-3.15431">
        <ele>212.60000610352</ele>
        <time>2020-10-19T13:22:24.000Z</time>
      </trkpt>
      <trkpt lat="48.21725" lon="-3.15431">
        <ele>212.60000610352</ele>
        <time>2020-10-19T13:22:25.000Z</time>
      </trkpt>
      <trkpt lat="48.21725" lon="-3.15431">
        <ele>212.60000610352</ele>
        <time>2020-10-19T13:22:26.000Z</time>
      </trkpt>
      <trkpt lat="48.21725" lon="-3.15431">
        <ele>212.60000610352</ele>
        <time>2020-10-19T13:22:27.000Z</time>
      </trkpt>
      <trkpt lat="48.21725" lon="-3.15431">
        <ele>212.60000610352</ele>
        <time>2020-10-19T13:22:28.000Z</time>
      </trkpt>
      <trkpt lat="48.21725" lon="-3.15431">
        <ele>212.60000610352</ele>
        <time>2020-10-19T13:22:29.000Z</time>
      </trkpt>
      <trkpt lat="48.21725" lon="-3.15431">
        <ele>212.60000610352</ele>
        <time>2020-10-19T13:22:30.000Z</time>
      </trkpt>
      <trkpt lat="48.21725" lon="-3.15431">
        <ele>212.60000610352</ele>
        <time>2020-10-19T13:22:31.000Z</time>
      </trkpt>
      <trkpt lat="48.21725" lon="-3.15431">
        <ele>212.60000610352</ele>
        <time>2020-10-19T13:22:32.000Z</time>
      </trkpt>
      <trkpt lat="48.21725" lon="-3.15431">
        <ele>212.60000610352</ele>
        <time>2020-10-19T13:22:33.000Z</time>
      </trkpt>
      <trkpt lat="48.21725" lon="-3.15431">
        <ele>212.60000610352</ele>
        <time>2020-10-19T13:22:34.000Z</time>
      </trkpt>
      <trkpt lat="48.21725" lon="-3.15431">
        <ele>212.60000610352</ele>
        <time>2020-10-19T13:22:35.000Z</time>
      </trkpt>
      <trkpt lat="48.21725" lon="-3.15431">
        <ele>212.60000610352</ele>
        <time>2020-10-19T13:22:36.000Z</time>
      </trkpt>
      <trkpt lat="48.21725" lon="-3.15431">
        <ele>212.60000610352</ele>
        <time>2020-10-19T13:22:37.000Z</time>
      </trkpt>
      <trkpt lat="48.21725" lon="-3.15431">
        <ele>212.60000610352</ele>
        <time>2020-10-19T13:22:38.000Z</time>
      </trkpt>
      <trkpt lat="48.21725" lon="-3.15431">
        <ele>212.60000610352</ele>
        <time>2020-10-19T13:22:39.000Z</time>
      </trkpt>
      <trkpt lat="48.21725" lon="-3.15431">
        <ele>212.60000610352</ele>
        <time>2020-10-19T13:22:40.000Z</time>
      </trkpt>
      <trkpt lat="48.21726" lon="-3.15431">
        <ele>212.60000610352</ele>
        <time>2020-10-19T13:22:41.000Z</time>
      </trkpt>
      <trkpt lat="48.21726" lon="-3.15431">
        <ele>212.60000610352</ele>
        <time>2020-10-19T13:22:42.000Z</time>
      </trkpt>
      <trkpt lat="48.21725" lon="-3.15431">
        <ele>212.60000610352</ele>
        <time>2020-10-19T13:22:43.000Z</time>
      </trkpt>
      <trkpt lat="48.21725" lon="-3.15431">
        <ele>212.60000610352</ele>
        <time>2020-10-19T13:22:44.000Z</time>
      </trkpt>
      <trkpt lat="48.21725" lon="-3.15431">
        <ele>212.60000610352</ele>
        <time>2020-10-19T13:22:45.000Z</time>
      </trkpt>
      <trkpt lat="48.21725" lon="-3.15431">
        <ele>212.60000610352</ele>
        <time>2020-10-19T13:22:46.000Z</time>
      </trkpt>
      <trkpt lat="48.21725" lon="-3.15431">
        <ele>212.60000610352</ele>
        <time>2020-10-19T13:22:47.000Z</time>
      </trkpt>
      <trkpt lat="48.21725" lon="-3.15431">
        <ele>212.60000610352</ele>
        <time>2020-10-19T13:22:48.000Z</time>
      </trkpt>
      <trkpt lat="48.21725" lon="-3.15431">
        <ele>212.60000610352</ele>
        <time>2020-10-19T13:22:49.000Z</time>
      </trkpt>
      <trkpt lat="48.21725" lon="-3.15431">
        <ele>212.60000610352</ele>
        <time>2020-10-19T13:22:50.000Z</time>
      </trkpt>
      <trkpt lat="48.21725" lon="-3.15431">
        <ele>212.60000610352</ele>
        <time>2020-10-19T13:22:51.000Z</time>
      </trkpt>
      <trkpt lat="48.21725" lon="-3.15431">
        <ele>212.60000610352</ele>
        <time>2020-10-19T13:22:52.000Z</time>
      </trkpt>
      <trkpt lat="48.21726" lon="-3.15431">
        <ele>212.60000610352</ele>
        <time>2020-10-19T13:22:53.000Z</time>
      </trkpt>
      <trkpt lat="48.21726" lon="-3.15431">
        <ele>212.60000610352</ele>
        <time>2020-10-19T13:22:54.000Z</time>
      </trkpt>
      <trkpt lat="48.21726" lon="-3.15431">
        <ele>212.60000610352</ele>
        <time>2020-10-19T13:22:55.000Z</time>
      </trkpt>
      <trkpt lat="48.21726" lon="-3.15431">
        <ele>212.60000610352</ele>
        <time>2020-10-19T13:22:56.000Z</time>
      </trkpt>
      <trkpt lat="48.21726" lon="-3.15431">
        <ele>212.60000610352</ele>
        <time>2020-10-19T13:22:57.000Z</time>
      </trkpt>
      <trkpt lat="48.21726" lon="-3.15431">
        <ele>212.60000610352</ele>
        <time>2020-10-19T13:22:58.000Z</time>
      </trkpt>
      <trkpt lat="48.21726" lon="-3.15431">
        <ele>212.60000610352</ele>
        <time>2020-10-19T13:22:59.000Z</time>
      </trkpt>
      <trkpt lat="48.21726" lon="-3.15431">
        <ele>212.60000610352</ele>
        <time>2020-10-19T13:23:00.000Z</time>
      </trkpt>
      <trkpt lat="48.21726" lon="-3.15431">
        <ele>212.60000610352</ele>
        <time>2020-10-19T13:23:01.000Z</time>
      </trkpt>
      <trkpt lat="48.21726" lon="-3.15431">
        <ele>212.60000610352</ele>
        <time>2020-10-19T13:23:02.000Z</time>
      </trkpt>
      <trkpt lat="48.21726" lon="-3.15431">
        <ele>212.60000610352</ele>
        <time>2020-10-19T13:23:03.000Z</time>
      </trkpt>
      <trkpt lat="48.21726" lon="-3.15431">
        <ele>212.60000610352</ele>
        <time>2020-10-19T13:23:04.000Z</time>
      </trkpt>
      <trkpt lat="48.21726" lon="-3.15431">
        <ele>212.60000610352</ele>
        <time>2020-10-19T13:23:05.000Z</time>
      </trkpt>
      <trkpt lat="48.21726" lon="-3.15431">
        <ele>212.60000610352</ele>
        <time>2020-10-19T13:23:06.000Z</time>
      </trkpt>
      <trkpt lat="48.21726" lon="-3.15432">
        <ele>212.60000610352</ele>
        <time>2020-10-19T13:23:07.000Z</time>
      </trkpt>
      <trkpt lat="48.21726" lon="-3.15432">
        <ele>212.60000610352</ele>
        <time>2020-10-19T13:23:08.000Z</time>
      </trkpt>
      <trkpt lat="48.21726" lon="-3.15432">
        <ele>212.80000305176</ele>
        <time>2020-10-19T13:23:09.000Z</time>
      </trkpt>
      <trkpt lat="48.21726" lon="-3.15432">
        <ele>212.80000305176</ele>
        <time>2020-10-19T13:23:10.000Z</time>
      </trkpt>
      <trkpt lat="48.21726" lon="-3.15432">
        <ele>212.80000305176</ele>
        <time>2020-10-19T13:23:11.000Z</time>
      </trkpt>
      <trkpt lat="48.21726" lon="-3.15432">
        <ele>212.80000305176</ele>
        <time>2020-10-19T13:23:12.000Z</time>
      </trkpt>
      <trkpt lat="48.21726" lon="-3.15432">
        <ele>212.80000305176</ele>
        <time>2020-10-19T13:23:13.000Z</time>
      </trkpt>
      <trkpt lat="48.21726" lon="-3.15432">
        <ele>212.80000305176</ele>
        <time>2020-10-19T13:23:14.000Z</time>
      </trkpt>
      <trkpt lat="48.21726" lon="-3.15432">
        <ele>212.80000305176</ele>
        <time>2020-10-19T13:23:15.000Z</time>
      </trkpt>
      <trkpt lat="48.21726" lon="-3.15432">
        <ele>212.80000305176</ele>
        <time>2020-10-19T13:23:16.000Z</time>
      </trkpt>
      <trkpt lat="48.21726" lon="-3.15432">
        <ele>212.80000305176</ele>
        <time>2020-10-19T13:23:17.000Z</time>
      </trkpt>
      <trkpt lat="48.21726" lon="-3.15432">
        <ele>212.80000305176</ele>
        <time>2020-10-19T13:23:18.000Z</time>
      </trkpt>
      <trkpt lat="48.21726" lon="-3.15432">
        <ele>212.80000305176</ele>
        <time>2020-10-19T13:23:19.000Z</time>
      </trkpt>
      <trkpt lat="48.21726" lon="-3.15432">
        <ele>212.80000305176</ele>
        <time>2020-10-19T13:23:20.000Z</time>
      </trkpt>
      <trkpt lat="48.21726" lon="-3.15432">
        <ele>212.80000305176</ele>
        <time>2020-10-19T13:23:21.000Z</time>
      </trkpt>
      <trkpt lat="48.21726" lon="-3.15432">
        <ele>212.80000305176</ele>
        <time>2020-10-19T13:23:22.000Z</time>
      </trkpt>
      <trkpt lat="48.21726" lon="-3.15432">
        <ele>212.80000305176</ele>
        <time>2020-10-19T13:23:23.000Z</time>
      </trkpt>
      <trkpt lat="48.21726" lon="-3.15432">
        <ele>212.80000305176</ele>
        <time>2020-10-19T13:23:24.000Z</time>
      </trkpt>
      <trkpt lat="48.21726" lon="-3.15432">
        <ele>212.60000610352</ele>
        <time>2020-10-19T13:23:25.000Z</time>
      </trkpt>
      <trkpt lat="48.21726" lon="-3.15432">
        <ele>212.60000610352</ele>
        <time>2020-10-19T13:23:26.000Z</time>
      </trkpt>
      <trkpt lat="48.21726" lon="-3.15432">
        <ele>212.60000610352</ele>
        <time>2020-10-19T13:23:27.000Z</time>
      </trkpt>
      <trkpt lat="48.21726" lon="-3.15432">
        <ele>212.60000610352</ele>
        <time>2020-10-19T13:23:28.000Z</time>
      </trkpt>
      <trkpt lat="48.21726" lon="-3.15432">
        <ele>212.60000610352</ele>
        <time>2020-10-19T13:23:29.000Z</time>
      </trkpt>
      <trkpt lat="48.21726" lon="-3.15431">
        <ele>212.60000610352</ele>
        <time>2020-10-19T13:23:30.000Z</time>
      </trkpt>
      <trkpt lat="48.21726" lon="-3.15432">
        <ele>212.60000610352</ele>
        <time>2020-10-19T13:23:31.000Z</time>
      </trkpt>
      <trkpt lat="48.21726" lon="-3.15432">
        <ele>212.60000610352</ele>
        <time>2020-10-19T13:23:32.000Z</time>
      </trkpt>
      <trkpt lat="48.21726" lon="-3.15432">
        <ele>212.60000610352</ele>
        <time>2020-10-19T13:23:33.000Z</time>
      </trkpt>
      <trkpt lat="48.21726" lon="-3.15431">
        <ele>212.60000610352</ele>
        <time>2020-10-19T13:23:34.000Z</time>
      </trkpt>
      <trkpt lat="48.21726" lon="-3.15431">
        <ele>212.60000610352</ele>
        <time>2020-10-19T13:23:35.000Z</time>
      </trkpt>
      <trkpt lat="48.21726" lon="-3.15431">
        <ele>212.60000610352</ele>
        <time>2020-10-19T13:23:36.000Z</time>
      </trkpt>
      <trkpt lat="48.21726" lon="-3.1543">
        <ele>212.60000610352</ele>
        <time>2020-10-19T13:23:37.000Z</time>
      </trkpt>
      <trkpt lat="48.21726" lon="-3.1543">
        <ele>212.60000610352</ele>
        <time>2020-10-19T13:23:38.000Z</time>
      </trkpt>
      <trkpt lat="48.21726" lon="-3.1543">
        <ele>212.60000610352</ele>
        <time>2020-10-19T13:23:39.000Z</time>
      </trkpt>
      <trkpt lat="48.21726" lon="-3.15429">
        <ele>212.60000610352</ele>
        <time>2020-10-19T13:23:40.000Z</time>
      </trkpt>
      <trkpt lat="48.21725" lon="-3.15429">
        <ele>212.39999389648</ele>
        <time>2020-10-19T13:23:41.000Z</time>
      </trkpt>
      <trkpt lat="48.21725" lon="-3.15428">
        <ele>212.39999389648</ele>
        <time>2020-10-19T13:23:42.000Z</time>
      </trkpt>
      <trkpt lat="48.21725" lon="-3.15428">
        <ele>212.39999389648</ele>
        <time>2020-10-19T13:23:43.000Z</time>
      </trkpt>
      <trkpt lat="48.21725" lon="-3.15428">
        <ele>212.39999389648</ele>
        <time>2020-10-19T13:23:44.000Z</time>
      </trkpt>
      <trkpt lat="48.21725" lon="-3.15428">
        <ele>212.39999389648</ele>
        <time>2020-10-19T13:23:45.000Z</time>
      </trkpt>
      <trkpt lat="48.21725" lon="-3.15428">
        <ele>212.39999389648</ele>
        <time>2020-10-19T13:23:46.000Z</time>
      </trkpt>
      <trkpt lat="48.21725" lon="-3.15428">
        <ele>212.39999389648</ele>
        <time>2020-10-19T13:23:47.000Z</time>
      </trkpt>
      <trkpt lat="48.21725" lon="-3.15427">
        <ele>212.39999389648</ele>
        <time>2020-10-19T13:23:48.000Z</time>
      </trkpt>
      <trkpt lat="48.21725" lon="-3.15427">
        <ele>212.39999389648</ele>
        <time>2020-10-19T13:23:49.000Z</time>
      </trkpt>
      <trkpt lat="48.21725" lon="-3.15426">
        <ele>212.60000610352</ele>
        <time>2020-10-19T13:23:50.000Z</time>
      </trkpt>
      <trkpt lat="48.21726" lon="-3.15426">
        <ele>212.60000610352</ele>
        <time>2020-10-19T13:23:51.000Z</time>
      </trkpt>
      <trkpt lat="48.21726" lon="-3.15425">
        <ele>212.80000305176</ele>
        <time>2020-10-19T13:23:52.000Z</time>
      </trkpt>
      <trkpt lat="48.21727" lon="-3.15425">
        <ele>212.80000305176</ele>
        <time>2020-10-19T13:23:53.000Z</time>
      </trkpt>
      <trkpt lat="48.21727" lon="-3.15424">
        <ele>213</ele>
        <time>2020-10-19T13:23:54.000Z</time>
      </trkpt>
      <trkpt lat="48.21728" lon="-3.15423">
        <ele>213.19999694824</ele>
        <time>2020-10-19T13:23:55.000Z</time>
      </trkpt>
      <trkpt lat="48.21728" lon="-3.15422">
        <ele>213.19999694824</ele>
        <time>2020-10-19T13:23:56.000Z</time>
      </trkpt>
      <trkpt lat="48.21728" lon="-3.15422">
        <ele>213.19999694824</ele>
        <time>2020-10-19T13:23:57.000Z</time>
      </trkpt>
      <trkpt lat="48.21728" lon="-3.15421">
        <ele>213.19999694824</ele>
        <time>2020-10-19T13:23:58.000Z</time>
      </trkpt>
      <trkpt lat="48.21728" lon="-3.15419">
        <ele>213.19999694824</ele>
        <time>2020-10-19T13:23:59.000Z</time>
      </trkpt>
      <trkpt lat="48.21728" lon="-3.15417">
        <ele>213.39999389648</ele>
        <time>2020-10-19T13:24:00.000Z</time>
      </trkpt>
      <trkpt lat="48.21728" lon="-3.15417">
        <ele>213.39999389648</ele>
        <time>2020-10-19T13:24:01.000Z</time>
      </trkpt>
      <trkpt lat="48.21728" lon="-3.15416">
        <ele>213.39999389648</ele>
        <time>2020-10-19T13:24:02.000Z</time>
      </trkpt>
      <trkpt lat="48.21729" lon="-3.15414">
        <ele>213.60000610352</ele>
        <time>2020-10-19T13:24:03.000Z</time>
      </trkpt>
      <trkpt lat="48.21729" lon="-3.15412">
        <ele>213.60000610352</ele>
        <time>2020-10-19T13:24:04.000Z</time>
      </trkpt>
      <trkpt lat="48.21729" lon="-3.15411">
        <ele>213.60000610352</ele>
        <time>2020-10-19T13:24:05.000Z</time>
      </trkpt>
      <trkpt lat="48.21729" lon="-3.1541">
        <ele>213.60000610352</ele>
        <time>2020-10-19T13:24:06.000Z</time>
      </trkpt>
      <trkpt lat="48.21729" lon="-3.15408">
        <ele>213.60000610352</ele>
        <time>2020-10-19T13:24:07.000Z</time>
      </trkpt>
      <trkpt lat="48.21729" lon="-3.15406">
        <ele>213.80000305176</ele>
        <time>2020-10-19T13:24:08.000Z</time>
      </trkpt>
      <trkpt lat="48.21729" lon="-3.15405">
        <ele>213.80000305176</ele>
        <time>2020-10-19T13:24:09.000Z</time>
      </trkpt>
      <trkpt lat="48.21729" lon="-3.15403">
        <ele>214</ele>
        <time>2020-10-19T13:24:10.000Z</time>
      </trkpt>
      <trkpt lat="48.2173" lon="-3.15402">
        <ele>214</ele>
        <time>2020-10-19T13:24:11.000Z</time>
      </trkpt>
      <trkpt lat="48.2173" lon="-3.154">
        <ele>214</ele>
        <time>2020-10-19T13:24:12.000Z</time>
      </trkpt>
      <trkpt lat="48.2173" lon="-3.15399">
        <ele>214.19999694824</ele>
        <time>2020-10-19T13:24:13.000Z</time>
      </trkpt>
      <trkpt lat="48.2173" lon="-3.15397">
        <ele>214.19999694824</ele>
        <time>2020-10-19T13:24:14.000Z</time>
      </trkpt>
      <trkpt lat="48.2173" lon="-3.15396">
        <ele>214.39999389648</ele>
        <time>2020-10-19T13:24:15.000Z</time>
      </trkpt>
      <trkpt lat="48.2173" lon="-3.15394">
        <ele>214.39999389648</ele>
        <time>2020-10-19T13:24:16.000Z</time>
      </trkpt>
      <trkpt lat="48.21731" lon="-3.15393">
        <ele>214.39999389648</ele>
        <time>2020-10-19T13:24:17.000Z</time>
      </trkpt>
      <trkpt lat="48.21731" lon="-3.15392">
        <ele>214.60000610352</ele>
        <time>2020-10-19T13:24:18.000Z</time>
      </trkpt>
      <trkpt lat="48.21731" lon="-3.1539">
        <ele>214.39999389648</ele>
        <time>2020-10-19T13:24:19.000Z</time>
      </trkpt>
      <trkpt lat="48.2173" lon="-3.15389">
        <ele>214.39999389648</ele>
        <time>2020-10-19T13:24:20.000Z</time>
      </trkpt>
      <trkpt lat="48.2173" lon="-3.15388">
        <ele>214.60000610352</ele>
        <time>2020-10-19T13:24:21.000Z</time>
      </trkpt>
      <trkpt lat="48.2173" lon="-3.15387">
        <ele>214.39999389648</ele>
        <time>2020-10-19T13:24:22.000Z</time>
      </trkpt>
      <trkpt lat="48.2173" lon="-3.15387">
        <ele>214.60000610352</ele>
        <time>2020-10-19T13:24:23.000Z</time>
      </trkpt>
      <trkpt lat="48.2173" lon="-3.15386">
        <ele>214.60000610352</ele>
        <time>2020-10-19T13:24:24.000Z</time>
      </trkpt>
      <trkpt lat="48.2173" lon="-3.15385">
        <ele>214.60000610352</ele>
        <time>2020-10-19T13:24:25.000Z</time>
      </trkpt>
      <trkpt lat="48.2173" lon="-3.15384">
        <ele>214.60000610352</ele>
        <time>2020-10-19T13:24:26.000Z</time>
      </trkpt>
      <trkpt lat="48.2173" lon="-3.15382">
        <ele>214.60000610352</ele>
        <time>2020-10-19T13:24:27.000Z</time>
      </trkpt>
      <trkpt lat="48.21729" lon="-3.15381">
        <ele>214.39999389648</ele>
        <time>2020-10-19T13:24:28.000Z</time>
      </trkpt>
      <trkpt lat="48.21729" lon="-3.15379">
        <ele>214.39999389648</ele>
        <time>2020-10-19T13:24:29.000Z</time>
      </trkpt>
      <trkpt lat="48.21729" lon="-3.15378">
        <ele>214.39999389648</ele>
        <time>2020-10-19T13:24:30.000Z</time>
      </trkpt>
      <trkpt lat="48.21729" lon="-3.15376">
        <ele>214.39999389648</ele>
        <time>2020-10-19T13:24:31.000Z</time>
      </trkpt>
      <trkpt lat="48.21728" lon="-3.15375">
        <ele>214.19999694824</ele>
        <time>2020-10-19T13:24:32.000Z</time>
      </trkpt>
      <trkpt lat="48.21728" lon="-3.15373">
        <ele>214.19999694824</ele>
        <time>2020-10-19T13:24:33.000Z</time>
      </trkpt>
      <trkpt lat="48.21728" lon="-3.15372">
        <ele>214</ele>
        <time>2020-10-19T13:24:34.000Z</time>
      </trkpt>
      <trkpt lat="48.21727" lon="-3.15371">
        <ele>213.80000305176</ele>
        <time>2020-10-19T13:24:35.000Z</time>
      </trkpt>
      <trkpt lat="48.21727" lon="-3.1537">
        <ele>213.60000610352</ele>
        <time>2020-10-19T13:24:36.000Z</time>
      </trkpt>
      <trkpt lat="48.21726" lon="-3.15369">
        <ele>213.39999389648</ele>
        <time>2020-10-19T13:24:37.000Z</time>
      </trkpt>
      <trkpt lat="48.21726" lon="-3.15368">
        <ele>213.39999389648</ele>
        <time>2020-10-19T13:24:38.000Z</time>
      </trkpt>
      <trkpt lat="48.21726" lon="-3.15367">
        <ele>213.19999694824</ele>
        <time>2020-10-19T13:24:39.000Z</time>
      </trkpt>
      <trkpt lat="48.21725" lon="-3.15366">
        <ele>213.19999694824</ele>
        <time>2020-10-19T13:24:40.000Z</time>
      </trkpt>
      <trkpt lat="48.21725" lon="-3.15365">
        <ele>213</ele>
        <time>2020-10-19T13:24:41.000Z</time>
      </trkpt>
      <trkpt lat="48.21725" lon="-3.15365">
        <ele>213</ele>
        <time>2020-10-19T13:24:42.000Z</time>
      </trkpt>
      <trkpt lat="48.21725" lon="-3.15364">
        <ele>212.80000305176</ele>
        <time>2020-10-19T13:24:43.000Z</time>
      </trkpt>
      <trkpt lat="48.21724" lon="-3.15364">
        <ele>212.80000305176</ele>
        <time>2020-10-19T13:24:44.000Z</time>
      </trkpt>
      <trkpt lat="48.21724" lon="-3.15364">
        <ele>212.80000305176</ele>
        <time>2020-10-19T13:24:45.000Z</time>
      </trkpt>
      <trkpt lat="48.21724" lon="-3.15364">
        <ele>212.80000305176</ele>
        <time>2020-10-19T13:24:46.000Z</time>
      </trkpt>
      <trkpt lat="48.21724" lon="-3.15365">
        <ele>212.80000305176</ele>
        <time>2020-10-19T13:24:47.000Z</time>
      </trkpt>
      <trkpt lat="48.21724" lon="-3.15365">
        <ele>212.80000305176</ele>
        <time>2020-10-19T13:24:48.000Z</time>
      </trkpt>
      <trkpt lat="48.21724" lon="-3.15365">
        <ele>212.80000305176</ele>
        <time>2020-10-19T13:24:49.000Z</time>
      </trkpt>
      <trkpt lat="48.21724" lon="-3.15365">
        <ele>212.60000610352</ele>
        <time>2020-10-19T13:24:50.000Z</time>
      </trkpt>
      <trkpt lat="48.21724" lon="-3.15364">
        <ele>212.80000305176</ele>
        <time>2020-10-19T13:24:51.000Z</time>
      </trkpt>
      <trkpt lat="48.21724" lon="-3.15364">
        <ele>212.60000610352</ele>
        <time>2020-10-19T13:24:52.000Z</time>
      </trkpt>
      <trkpt lat="48.21724" lon="-3.15364">
        <ele>212.60000610352</ele>
        <time>2020-10-19T13:24:53.000Z</time>
      </trkpt>
      <trkpt lat="48.21724" lon="-3.15364">
        <ele>212.60000610352</ele>
        <time>2020-10-19T13:24:54.000Z</time>
      </trkpt>
      <trkpt lat="48.21724" lon="-3.15364">
        <ele>212.80000305176</ele>
        <time>2020-10-19T13:24:55.000Z</time>
      </trkpt>
      <trkpt lat="48.21724" lon="-3.15364">
        <ele>212.80000305176</ele>
        <time>2020-10-19T13:24:56.000Z</time>
      </trkpt>
      <trkpt lat="48.21724" lon="-3.15364">
        <ele>212.80000305176</ele>
        <time>2020-10-19T13:24:57.000Z</time>
      </trkpt>
      <trkpt lat="48.21724" lon="-3.15364">
        <ele>212.80000305176</ele>
        <time>2020-10-19T13:24:58.000Z</time>
      </trkpt>
      <trkpt lat="48.21724" lon="-3.15364">
        <ele>212.80000305176</ele>
        <time>2020-10-19T13:24:59.000Z</time>
      </trkpt>
      <trkpt lat="48.21724" lon="-3.15364">
        <ele>212.80000305176</ele>
        <time>2020-10-19T13:25:00.000Z</time>
      </trkpt>
      <trkpt lat="48.21724" lon="-3.15364">
        <ele>212.80000305176</ele>
        <time>2020-10-19T13:25:01.000Z</time>
      </trkpt>
      <trkpt lat="48.21724" lon="-3.15364">
        <ele>212.80000305176</ele>
        <time>2020-10-19T13:25:02.000Z</time>
      </trkpt>
      <trkpt lat="48.21724" lon="-3.15364">
        <ele>212.80000305176</ele>
        <time>2020-10-19T13:25:03.000Z</time>
      </trkpt>
      <trkpt lat="48.21724" lon="-3.15364">
        <ele>212.80000305176</ele>
        <time>2020-10-19T13:25:04.000Z</time>
      </trkpt>
      <trkpt lat="48.21724" lon="-3.15364">
        <ele>212.80000305176</ele>
        <time>2020-10-19T13:25:05.000Z</time>
      </trkpt>
      <trkpt lat="48.21724" lon="-3.15364">
        <ele>212.80000305176</ele>
        <time>2020-10-19T13:25:06.000Z</time>
      </trkpt>
      <trkpt lat="48.21724" lon="-3.15364">
        <ele>212.80000305176</ele>
        <time>2020-10-19T13:25:07.000Z</time>
      </trkpt>
      <trkpt lat="48.21724" lon="-3.15364">
        <ele>212.80000305176</ele>
        <time>2020-10-19T13:25:08.000Z</time>
      </trkpt>
      <trkpt lat="48.21724" lon="-3.15364">
        <ele>212.80000305176</ele>
        <time>2020-10-19T13:25:09.000Z</time>
      </trkpt>
      <trkpt lat="48.21724" lon="-3.15364">
        <ele>212.80000305176</ele>
        <time>2020-10-19T13:25:10.000Z</time>
      </trkpt>
      <trkpt lat="48.21724" lon="-3.15364">
        <ele>212.80000305176</ele>
        <time>2020-10-19T13:25:11.000Z</time>
      </trkpt>
      <trkpt lat="48.21724" lon="-3.15364">
        <ele>212.80000305176</ele>
        <time>2020-10-19T13:25:12.000Z</time>
      </trkpt>
      <trkpt lat="48.21724" lon="-3.15364">
        <ele>212.80000305176</ele>
        <time>2020-10-19T13:25:13.000Z</time>
      </trkpt>
      <trkpt lat="48.21724" lon="-3.15364">
        <ele>212.80000305176</ele>
        <time>2020-10-19T13:25:14.000Z</time>
      </trkpt>
      <trkpt lat="48.21724" lon="-3.15364">
        <ele>212.80000305176</ele>
        <time>2020-10-19T13:25:15.000Z</time>
      </trkpt>
      <trkpt lat="48.21724" lon="-3.15364">
        <ele>212.80000305176</ele>
        <time>2020-10-19T13:25:16.000Z</time>
      </trkpt>
      <trkpt lat="48.21724" lon="-3.15364">
        <ele>212.80000305176</ele>
        <time>2020-10-19T13:25:17.000Z</time>
      </trkpt>
      <trkpt lat="48.21724" lon="-3.15364">
        <ele>212.80000305176</ele>
        <time>2020-10-19T13:25:18.000Z</time>
      </trkpt>
      <trkpt lat="48.21724" lon="-3.15364">
        <ele>212.80000305176</ele>
        <time>2020-10-19T13:25:19.000Z</time>
      </trkpt>
      <trkpt lat="48.21724" lon="-3.15364">
        <ele>212.80000305176</ele>
        <time>2020-10-19T13:25:20.000Z</time>
      </trkpt>
      <trkpt lat="48.21725" lon="-3.15364">
        <ele>212.80000305176</ele>
        <time>2020-10-19T13:25:21.000Z</time>
      </trkpt>
      <trkpt lat="48.21725" lon="-3.15364">
        <ele>212.80000305176</ele>
        <time>2020-10-19T13:25:22.000Z</time>
      </trkpt>
      <trkpt lat="48.21725" lon="-3.15364">
        <ele>212.80000305176</ele>
        <time>2020-10-19T13:25:23.000Z</time>
      </trkpt>
      <trkpt lat="48.21725" lon="-3.15364">
        <ele>212.80000305176</ele>
        <time>2020-10-19T13:25:24.000Z</time>
      </trkpt>
      <trkpt lat="48.21725" lon="-3.15364">
        <ele>213</ele>
        <time>2020-10-19T13:25:25.000Z</time>
      </trkpt>
      <trkpt lat="48.21725" lon="-3.15364">
        <ele>213</ele>
        <time>2020-10-19T13:25:26.000Z</time>
      </trkpt>
      <trkpt lat="48.21725" lon="-3.15364">
        <ele>213</ele>
        <time>2020-10-19T13:25:27.000Z</time>
      </trkpt>
      <trkpt lat="48.21725" lon="-3.15364">
        <ele>213</ele>
        <time>2020-10-19T13:25:28.000Z</time>
      </trkpt>
      <trkpt lat="48.21725" lon="-3.15364">
        <ele>213</ele>
        <time>2020-10-19T13:25:29.000Z</time>
      </trkpt>
      <trkpt lat="48.21725" lon="-3.15364">
        <ele>213</ele>
        <time>2020-10-19T13:25:30.000Z</time>
      </trkpt>
      <trkpt lat="48.21725" lon="-3.15364">
        <ele>213</ele>
        <time>2020-10-19T13:25:31.000Z</time>
      </trkpt>
      <trkpt lat="48.21725" lon="-3.15364">
        <ele>213</ele>
        <time>2020-10-19T13:25:32.000Z</time>
      </trkpt>
      <trkpt lat="48.21725" lon="-3.15364">
        <ele>213</ele>
        <time>2020-10-19T13:25:33.000Z</time>
      </trkpt>
      <trkpt lat="48.21725" lon="-3.15364">
        <ele>213</ele>
        <time>2020-10-19T13:25:34.000Z</time>
      </trkpt>
      <trkpt lat="48.21725" lon="-3.15364">
        <ele>213</ele>
        <time>2020-10-19T13:25:35.000Z</time>
      </trkpt>
      <trkpt lat="48.21725" lon="-3.15363">
        <ele>213</ele>
        <time>2020-10-19T13:25:36.000Z</time>
      </trkpt>
      <trkpt lat="48.21725" lon="-3.15363">
        <ele>213</ele>
        <time>2020-10-19T13:25:37.000Z</time>
      </trkpt>
      <trkpt lat="48.21725" lon="-3.15362">
        <ele>212.80000305176</ele>
        <time>2020-10-19T13:25:38.000Z</time>
      </trkpt>
      <trkpt lat="48.21725" lon="-3.15362">
        <ele>212.80000305176</ele>
        <time>2020-10-19T13:25:39.000Z</time>
      </trkpt>
      <trkpt lat="48.21724" lon="-3.15362">
        <ele>212.80000305176</ele>
        <time>2020-10-19T13:25:40.000Z</time>
      </trkpt>
      <trkpt lat="48.21724" lon="-3.15362">
        <ele>212.60000610352</ele>
        <time>2020-10-19T13:25:41.000Z</time>
      </trkpt>
      <trkpt lat="48.21724" lon="-3.15362">
        <ele>212.60000610352</ele>
        <time>2020-10-19T13:25:42.000Z</time>
      </trkpt>
      <trkpt lat="48.21724" lon="-3.15361">
        <ele>212.60000610352</ele>
        <time>2020-10-19T13:25:43.000Z</time>
      </trkpt>
      <trkpt lat="48.21724" lon="-3.15361">
        <ele>212.60000610352</ele>
        <time>2020-10-19T13:25:44.000Z</time>
      </trkpt>
      <trkpt lat="48.21724" lon="-3.15361">
        <ele>212.60000610352</ele>
        <time>2020-10-19T13:25:45.000Z</time>
      </trkpt>
      <trkpt lat="48.21724" lon="-3.15361">
        <ele>212.80000305176</ele>
        <time>2020-10-19T13:25:46.000Z</time>
      </trkpt>
      <trkpt lat="48.21725" lon="-3.15362">
        <ele>212.80000305176</ele>
        <time>2020-10-19T13:25:47.000Z</time>
      </trkpt>
      <trkpt lat="48.21725" lon="-3.15362">
        <ele>212.80000305176</ele>
        <time>2020-10-19T13:25:48.000Z</time>
      </trkpt>
      <trkpt lat="48.21725" lon="-3.15362">
        <ele>212.80000305176</ele>
        <time>2020-10-19T13:25:49.000Z</time>
      </trkpt>
      <trkpt lat="48.21725" lon="-3.15362">
        <ele>212.80000305176</ele>
        <time>2020-10-19T13:25:50.000Z</time>
      </trkpt>
      <trkpt lat="48.21725" lon="-3.15362">
        <ele>212.80000305176</ele>
        <time>2020-10-19T13:25:51.000Z</time>
      </trkpt>
      <trkpt lat="48.21725" lon="-3.15362">
        <ele>212.80000305176</ele>
        <time>2020-10-19T13:25:52.000Z</time>
      </trkpt>
      <trkpt lat="48.21725" lon="-3.15362">
        <ele>212.80000305176</ele>
        <time>2020-10-19T13:25:53.000Z</time>
      </trkpt>
      <trkpt lat="48.21725" lon="-3.15362">
        <ele>212.80000305176</ele>
        <time>2020-10-19T13:25:54.000Z</time>
      </trkpt>
      <trkpt lat="48.21725" lon="-3.15362">
        <ele>212.80000305176</ele>
        <time>2020-10-19T13:25:55.000Z</time>
      </trkpt>
      <trkpt lat="48.21724" lon="-3.15362">
        <ele>212.80000305176</ele>
        <time>2020-10-19T13:25:56.000Z</time>
      </trkpt>
      <trkpt lat="48.21724" lon="-3.15362">
        <ele>212.80000305176</ele>
        <time>2020-10-19T13:25:57.000Z</time>
      </trkpt>
      <trkpt lat="48.21725" lon="-3.15362">
        <ele>212.80000305176</ele>
        <time>2020-10-19T13:25:58.000Z</time>
      </trkpt>
      <trkpt lat="48.21725" lon="-3.15362">
        <ele>212.80000305176</ele>
        <time>2020-10-19T13:25:59.000Z</time>
      </trkpt>
      <trkpt lat="48.21725" lon="-3.15362">
        <ele>212.80000305176</ele>
        <time>2020-10-19T13:26:00.000Z</time>
      </trkpt>
      <trkpt lat="48.21725" lon="-3.15362">
        <ele>212.80000305176</ele>
        <time>2020-10-19T13:26:01.000Z</time>
      </trkpt>
      <trkpt lat="48.21724" lon="-3.15362">
        <ele>212.80000305176</ele>
        <time>2020-10-19T13:26:02.000Z</time>
      </trkpt>
      <trkpt lat="48.21724" lon="-3.15361">
        <ele>212.60000610352</ele>
        <time>2020-10-19T13:26:03.000Z</time>
      </trkpt>
      <trkpt lat="48.21724" lon="-3.15361">
        <ele>212.60000610352</ele>
        <time>2020-10-19T13:26:04.000Z</time>
      </trkpt>
      <trkpt lat="48.21724" lon="-3.15361">
        <ele>212.60000610352</ele>
        <time>2020-10-19T13:26:05.000Z</time>
      </trkpt>
      <trkpt lat="48.21724" lon="-3.15361">
        <ele>212.60000610352</ele>
        <time>2020-10-19T13:26:06.000Z</time>
      </trkpt>
      <trkpt lat="48.21724" lon="-3.15361">
        <ele>212.60000610352</ele>
        <time>2020-10-19T13:26:07.000Z</time>
      </trkpt>
      <trkpt lat="48.21724" lon="-3.15361">
        <ele>212.60000610352</ele>
        <time>2020-10-19T13:26:08.000Z</time>
      </trkpt>
      <trkpt lat="48.21724" lon="-3.1536">
        <ele>212.60000610352</ele>
        <time>2020-10-19T13:26:09.000Z</time>
      </trkpt>
      <trkpt lat="48.21724" lon="-3.15359">
        <ele>212.60000610352</ele>
        <time>2020-10-19T13:26:10.000Z</time>
      </trkpt>
      <trkpt lat="48.21724" lon="-3.15357">
        <ele>212.60000610352</ele>
        <time>2020-10-19T13:26:11.000Z</time>
      </trkpt>
      <trkpt lat="48.21724" lon="-3.15356">
        <ele>212.39999389648</ele>
        <time>2020-10-19T13:26:12.000Z</time>
      </trkpt>
      <trkpt lat="48.21724" lon="-3.15355">
        <ele>212.39999389648</ele>
        <time>2020-10-19T13:26:13.000Z</time>
      </trkpt>
      <trkpt lat="48.21725" lon="-3.15353">
        <ele>212.39999389648</ele>
        <time>2020-10-19T13:26:14.000Z</time>
      </trkpt>
      <trkpt lat="48.21725" lon="-3.15352">
        <ele>212.39999389648</ele>
        <time>2020-10-19T13:26:15.000Z</time>
      </trkpt>
      <trkpt lat="48.21725" lon="-3.1535">
        <ele>212.60000610352</ele>
        <time>2020-10-19T13:26:16.000Z</time>
      </trkpt>
      <trkpt lat="48.21726" lon="-3.15349">
        <ele>212.60000610352</ele>
        <time>2020-10-19T13:26:17.000Z</time>
      </trkpt>
      <trkpt lat="48.21726" lon="-3.15347">
        <ele>212.60000610352</ele>
        <time>2020-10-19T13:26:18.000Z</time>
      </trkpt>
      <trkpt lat="48.21726" lon="-3.15346">
        <ele>212.60000610352</ele>
        <time>2020-10-19T13:26:19.000Z</time>
      </trkpt>
      <trkpt lat="48.21726" lon="-3.15344">
        <ele>212.60000610352</ele>
        <time>2020-10-19T13:26:20.000Z</time>
      </trkpt>
      <trkpt lat="48.21727" lon="-3.15343">
        <ele>212.80000305176</ele>
        <time>2020-10-19T13:26:21.000Z</time>
      </trkpt>
      <trkpt lat="48.21727" lon="-3.15341">
        <ele>212.80000305176</ele>
        <time>2020-10-19T13:26:22.000Z</time>
      </trkpt>
      <trkpt lat="48.21727" lon="-3.15338">
        <ele>213</ele>
        <time>2020-10-19T13:26:23.000Z</time>
      </trkpt>
      <trkpt lat="48.21727" lon="-3.15338">
        <ele>213</ele>
        <time>2020-10-19T13:26:24.000Z</time>
      </trkpt>
      <trkpt lat="48.21727" lon="-3.15337">
        <ele>213.19999694824</ele>
        <time>2020-10-19T13:26:25.000Z</time>
      </trkpt>
      <trkpt lat="48.21727" lon="-3.15335">
        <ele>213.39999389648</ele>
        <time>2020-10-19T13:26:26.000Z</time>
      </trkpt>
      <trkpt lat="48.21727" lon="-3.15333">
        <ele>213.39999389648</ele>
        <time>2020-10-19T13:26:27.000Z</time>
      </trkpt>
      <trkpt lat="48.21727" lon="-3.15331">
        <ele>213.39999389648</ele>
        <time>2020-10-19T13:26:28.000Z</time>
      </trkpt>
      <trkpt lat="48.21727" lon="-3.1533">
        <ele>213.60000610352</ele>
        <time>2020-10-19T13:26:29.000Z</time>
      </trkpt>
      <trkpt lat="48.21728" lon="-3.15328">
        <ele>213.60000610352</ele>
        <time>2020-10-19T13:26:30.000Z</time>
      </trkpt>
      <trkpt lat="48.21728" lon="-3.15327">
        <ele>213.80000305176</ele>
        <time>2020-10-19T13:26:31.000Z</time>
      </trkpt>
      <trkpt lat="48.21728" lon="-3.15325">
        <ele>214</ele>
        <time>2020-10-19T13:26:32.000Z</time>
      </trkpt>
      <trkpt lat="48.21728" lon="-3.15323">
        <ele>214</ele>
        <time>2020-10-19T13:26:33.000Z</time>
      </trkpt>
      <trkpt lat="48.21728" lon="-3.15322">
        <ele>214.19999694824</ele>
        <time>2020-10-19T13:26:34.000Z</time>
      </trkpt>
      <trkpt lat="48.21729" lon="-3.15321">
        <ele>214.39999389648</ele>
        <time>2020-10-19T13:26:35.000Z</time>
      </trkpt>
      <trkpt lat="48.21729" lon="-3.15319">
        <ele>214.60000610352</ele>
        <time>2020-10-19T13:26:36.000Z</time>
      </trkpt>
      <trkpt lat="48.2173" lon="-3.15318">
        <ele>214.80000305176</ele>
        <time>2020-10-19T13:26:37.000Z</time>
      </trkpt>
      <trkpt lat="48.2173" lon="-3.15317">
        <ele>214.80000305176</ele>
        <time>2020-10-19T13:26:38.000Z</time>
      </trkpt>
      <trkpt lat="48.2173" lon="-3.15316">
        <ele>215</ele>
        <time>2020-10-19T13:26:39.000Z</time>
      </trkpt>
      <trkpt lat="48.2173" lon="-3.15315">
        <ele>215</ele>
        <time>2020-10-19T13:26:40.000Z</time>
      </trkpt>
      <trkpt lat="48.21731" lon="-3.15314">
        <ele>215.19999694824</ele>
        <time>2020-10-19T13:26:41.000Z</time>
      </trkpt>
      <trkpt lat="48.21731" lon="-3.15313">
        <ele>215.39999389648</ele>
        <time>2020-10-19T13:26:42.000Z</time>
      </trkpt>
      <trkpt lat="48.21732" lon="-3.15312">
        <ele>215.60000610352</ele>
        <time>2020-10-19T13:26:43.000Z</time>
      </trkpt>
      <trkpt lat="48.21732" lon="-3.15311">
        <ele>215.80000305176</ele>
        <time>2020-10-19T13:26:44.000Z</time>
      </trkpt>
      <trkpt lat="48.21733" lon="-3.15309">
        <ele>216</ele>
        <time>2020-10-19T13:26:45.000Z</time>
      </trkpt>
      <trkpt lat="48.21733" lon="-3.15308">
        <ele>216</ele>
        <time>2020-10-19T13:26:46.000Z</time>
      </trkpt>
      <trkpt lat="48.21733" lon="-3.15307">
        <ele>216.19999694824</ele>
        <time>2020-10-19T13:26:47.000Z</time>
      </trkpt>
      <trkpt lat="48.21734" lon="-3.15305">
        <ele>216.60000610352</ele>
        <time>2020-10-19T13:26:48.000Z</time>
      </trkpt>
      <trkpt lat="48.21735" lon="-3.15302">
        <ele>217</ele>
        <time>2020-10-19T13:26:49.000Z</time>
      </trkpt>
      <trkpt lat="48.21735" lon="-3.15302">
        <ele>217</ele>
        <time>2020-10-19T13:26:50.000Z</time>
      </trkpt>
      <trkpt lat="48.21736" lon="-3.153">
        <ele>217.19999694824</ele>
        <time>2020-10-19T13:26:51.000Z</time>
      </trkpt>
      <trkpt lat="48.21736" lon="-3.15299">
        <ele>217.39999389648</ele>
        <time>2020-10-19T13:26:52.000Z</time>
      </trkpt>
      <trkpt lat="48.21737" lon="-3.15298">
        <ele>217.60000610352</ele>
        <time>2020-10-19T13:26:53.000Z</time>
      </trkpt>
      <trkpt lat="48.21737" lon="-3.15296">
        <ele>217.60000610352</ele>
        <time>2020-10-19T13:26:54.000Z</time>
      </trkpt>
      <trkpt lat="48.21737" lon="-3.15295">
        <ele>217.80000305176</ele>
        <time>2020-10-19T13:26:55.000Z</time>
      </trkpt>
      <trkpt lat="48.21738" lon="-3.15293">
        <ele>218</ele>
        <time>2020-10-19T13:26:56.000Z</time>
      </trkpt>
      <trkpt lat="48.21738" lon="-3.15291">
        <ele>218.19999694824</ele>
        <time>2020-10-19T13:26:57.000Z</time>
      </trkpt>
      <trkpt lat="48.21739" lon="-3.1529">
        <ele>218.39999389648</ele>
        <time>2020-10-19T13:26:58.000Z</time>
      </trkpt>
      <trkpt lat="48.21739" lon="-3.15289">
        <ele>218.60000610352</ele>
        <time>2020-10-19T13:26:59.000Z</time>
      </trkpt>
      <trkpt lat="48.21739" lon="-3.15287">
        <ele>218.80000305176</ele>
        <time>2020-10-19T13:27:00.000Z</time>
      </trkpt>
      <trkpt lat="48.2174" lon="-3.15286">
        <ele>218.80000305176</ele>
        <time>2020-10-19T13:27:01.000Z</time>
      </trkpt>
      <trkpt lat="48.2174" lon="-3.15284">
        <ele>219</ele>
        <time>2020-10-19T13:27:02.000Z</time>
      </trkpt>
      <trkpt lat="48.2174" lon="-3.15282">
        <ele>219</ele>
        <time>2020-10-19T13:27:03.000Z</time>
      </trkpt>
      <trkpt lat="48.2174" lon="-3.15281">
        <ele>219</ele>
        <time>2020-10-19T13:27:04.000Z</time>
      </trkpt>
      <trkpt lat="48.2174" lon="-3.15279">
        <ele>219.19999694824</ele>
        <time>2020-10-19T13:27:05.000Z</time>
      </trkpt>
      <trkpt lat="48.2174" lon="-3.15278">
        <ele>219.19999694824</ele>
        <time>2020-10-19T13:27:06.000Z</time>
      </trkpt>
      <trkpt lat="48.2174" lon="-3.15276">
        <ele>219</ele>
        <time>2020-10-19T13:27:07.000Z</time>
      </trkpt>
      <trkpt lat="48.2174" lon="-3.15274">
        <ele>218.80000305176</ele>
        <time>2020-10-19T13:27:08.000Z</time>
      </trkpt>
      <trkpt lat="48.2174" lon="-3.15273">
        <ele>218.80000305176</ele>
        <time>2020-10-19T13:27:09.000Z</time>
      </trkpt>
      <trkpt lat="48.2174" lon="-3.15272">
        <ele>218.80000305176</ele>
        <time>2020-10-19T13:27:10.000Z</time>
      </trkpt>
      <trkpt lat="48.21739" lon="-3.15271">
        <ele>218.60000610352</ele>
        <time>2020-10-19T13:27:11.000Z</time>
      </trkpt>
      <trkpt lat="48.21739" lon="-3.1527">
        <ele>218.39999389648</ele>
        <time>2020-10-19T13:27:12.000Z</time>
      </trkpt>
      <trkpt lat="48.21739" lon="-3.15268">
        <ele>218.39999389648</ele>
        <time>2020-10-19T13:27:13.000Z</time>
      </trkpt>
      <trkpt lat="48.21738" lon="-3.15266">
        <ele>218.19999694824</ele>
        <time>2020-10-19T13:27:14.000Z</time>
      </trkpt>
      <trkpt lat="48.21738" lon="-3.15265">
        <ele>218.19999694824</ele>
        <time>2020-10-19T13:27:15.000Z</time>
      </trkpt>
      <trkpt lat="48.21738" lon="-3.15264">
        <ele>218</ele>
        <time>2020-10-19T13:27:16.000Z</time>
      </trkpt>
      <trkpt lat="48.21738" lon="-3.15262">
        <ele>218</ele>
        <time>2020-10-19T13:27:17.000Z</time>
      </trkpt>
      <trkpt lat="48.21738" lon="-3.15261">
        <ele>218</ele>
        <time>2020-10-19T13:27:18.000Z</time>
      </trkpt>
      <trkpt lat="48.21739" lon="-3.15259">
        <ele>218</ele>
        <time>2020-10-19T13:27:19.000Z</time>
      </trkpt>
      <trkpt lat="48.21739" lon="-3.15257">
        <ele>218</ele>
        <time>2020-10-19T13:27:20.000Z</time>
      </trkpt>
      <trkpt lat="48.21739" lon="-3.15256">
        <ele>218</ele>
        <time>2020-10-19T13:27:21.000Z</time>
      </trkpt>
      <trkpt lat="48.21739" lon="-3.15255">
        <ele>218.19999694824</ele>
        <time>2020-10-19T13:27:22.000Z</time>
      </trkpt>
      <trkpt lat="48.2174" lon="-3.15253">
        <ele>218.19999694824</ele>
        <time>2020-10-19T13:27:23.000Z</time>
      </trkpt>
      <trkpt lat="48.2174" lon="-3.15252">
        <ele>218.19999694824</ele>
        <time>2020-10-19T13:27:24.000Z</time>
      </trkpt>
      <trkpt lat="48.21739" lon="-3.1525">
        <ele>218</ele>
        <time>2020-10-19T13:27:25.000Z</time>
      </trkpt>
      <trkpt lat="48.21739" lon="-3.15248">
        <ele>217.80000305176</ele>
        <time>2020-10-19T13:27:26.000Z</time>
      </trkpt>
      <trkpt lat="48.21739" lon="-3.15246">
        <ele>217.60000610352</ele>
        <time>2020-10-19T13:27:27.000Z</time>
      </trkpt>
      <trkpt lat="48.21739" lon="-3.15245">
        <ele>217.60000610352</ele>
        <time>2020-10-19T13:27:28.000Z</time>
      </trkpt>
      <trkpt lat="48.21738" lon="-3.15243">
        <ele>217.39999389648</ele>
        <time>2020-10-19T13:27:29.000Z</time>
      </trkpt>
      <trkpt lat="48.21738" lon="-3.15242">
        <ele>217.39999389648</ele>
        <time>2020-10-19T13:27:30.000Z</time>
      </trkpt>
      <trkpt lat="48.21738" lon="-3.1524">
        <ele>217.19999694824</ele>
        <time>2020-10-19T13:27:31.000Z</time>
      </trkpt>
      <trkpt lat="48.21738" lon="-3.15238">
        <ele>217.19999694824</ele>
        <time>2020-10-19T13:27:32.000Z</time>
      </trkpt>
      <trkpt lat="48.21738" lon="-3.15237">
        <ele>217</ele>
        <time>2020-10-19T13:27:33.000Z</time>
      </trkpt>
      <trkpt lat="48.21738" lon="-3.15235">
        <ele>217.19999694824</ele>
        <time>2020-10-19T13:27:34.000Z</time>
      </trkpt>
      <trkpt lat="48.21739" lon="-3.15233">
        <ele>217.19999694824</ele>
        <time>2020-10-19T13:27:35.000Z</time>
      </trkpt>
      <trkpt lat="48.21739" lon="-3.15232">
        <ele>217.19999694824</ele>
        <time>2020-10-19T13:27:36.000Z</time>
      </trkpt>
      <trkpt lat="48.21739" lon="-3.1523">
        <ele>217.19999694824</ele>
        <time>2020-10-19T13:27:37.000Z</time>
      </trkpt>
      <trkpt lat="48.21739" lon="-3.15228">
        <ele>217</ele>
        <time>2020-10-19T13:27:38.000Z</time>
      </trkpt>
      <trkpt lat="48.21739" lon="-3.15227">
        <ele>217</ele>
        <time>2020-10-19T13:27:39.000Z</time>
      </trkpt>
      <trkpt lat="48.21739" lon="-3.15225">
        <ele>217</ele>
        <time>2020-10-19T13:27:40.000Z</time>
      </trkpt>
      <trkpt lat="48.2174" lon="-3.15223">
        <ele>217</ele>
        <time>2020-10-19T13:27:41.000Z</time>
      </trkpt>
      <trkpt lat="48.2174" lon="-3.15221">
        <ele>217.19999694824</ele>
        <time>2020-10-19T13:27:42.000Z</time>
      </trkpt>
      <trkpt lat="48.2174" lon="-3.15219">
        <ele>217.19999694824</ele>
        <time>2020-10-19T13:27:43.000Z</time>
      </trkpt>
      <trkpt lat="48.2174" lon="-3.15218">
        <ele>217.19999694824</ele>
        <time>2020-10-19T13:27:44.000Z</time>
      </trkpt>
      <trkpt lat="48.21741" lon="-3.15216">
        <ele>217.19999694824</ele>
        <time>2020-10-19T13:27:45.000Z</time>
      </trkpt>
      <trkpt lat="48.21741" lon="-3.15214">
        <ele>217.19999694824</ele>
        <time>2020-10-19T13:27:46.000Z</time>
      </trkpt>
      <trkpt lat="48.21741" lon="-3.15212">
        <ele>217.19999694824</ele>
        <time>2020-10-19T13:27:47.000Z</time>
      </trkpt>
      <trkpt lat="48.21741" lon="-3.15211">
        <ele>217.19999694824</ele>
        <time>2020-10-19T13:27:48.000Z</time>
      </trkpt>
      <trkpt lat="48.21741" lon="-3.15209">
        <ele>217.19999694824</ele>
        <time>2020-10-19T13:27:49.000Z</time>
      </trkpt>
      <trkpt lat="48.21741" lon="-3.15207">
        <ele>217</ele>
        <time>2020-10-19T13:27:50.000Z</time>
      </trkpt>
      <trkpt lat="48.21741" lon="-3.15205">
        <ele>217</ele>
        <time>2020-10-19T13:27:51.000Z</time>
      </trkpt>
      <trkpt lat="48.21742" lon="-3.15204">
        <ele>217.19999694824</ele>
        <time>2020-10-19T13:27:52.000Z</time>
      </trkpt>
      <trkpt lat="48.21742" lon="-3.15202">
        <ele>217.19999694824</ele>
        <time>2020-10-19T13:27:53.000Z</time>
      </trkpt>
      <trkpt lat="48.21742" lon="-3.152">
        <ele>217.19999694824</ele>
        <time>2020-10-19T13:27:54.000Z</time>
      </trkpt>
      <trkpt lat="48.21743" lon="-3.15198">
        <ele>217.19999694824</ele>
        <time>2020-10-19T13:27:55.000Z</time>
      </trkpt>
      <trkpt lat="48.21743" lon="-3.15197">
        <ele>217.39999389648</ele>
        <time>2020-10-19T13:27:56.000Z</time>
      </trkpt>
      <trkpt lat="48.21744" lon="-3.15195">
        <ele>217.39999389648</ele>
        <time>2020-10-19T13:27:57.000Z</time>
      </trkpt>
      <trkpt lat="48.21744" lon="-3.15194">
        <ele>217.60000610352</ele>
        <time>2020-10-19T13:27:58.000Z</time>
      </trkpt>
      <trkpt lat="48.21744" lon="-3.15192">
        <ele>217.60000610352</ele>
        <time>2020-10-19T13:27:59.000Z</time>
      </trkpt>
      <trkpt lat="48.21745" lon="-3.1519">
        <ele>217.60000610352</ele>
        <time>2020-10-19T13:28:00.000Z</time>
      </trkpt>
      <trkpt lat="48.21745" lon="-3.15188">
        <ele>217.60000610352</ele>
        <time>2020-10-19T13:28:01.000Z</time>
      </trkpt>
      <trkpt lat="48.21745" lon="-3.15187">
        <ele>217.60000610352</ele>
        <time>2020-10-19T13:28:02.000Z</time>
      </trkpt>
      <trkpt lat="48.21745" lon="-3.15185">
        <ele>217.60000610352</ele>
        <time>2020-10-19T13:28:03.000Z</time>
      </trkpt>
      <trkpt lat="48.21746" lon="-3.15184">
        <ele>217.60000610352</ele>
        <time>2020-10-19T13:28:04.000Z</time>
      </trkpt>
      <trkpt lat="48.21746" lon="-3.15182">
        <ele>217.60000610352</ele>
        <time>2020-10-19T13:28:05.000Z</time>
      </trkpt>
      <trkpt lat="48.21746" lon="-3.15181">
        <ele>217.60000610352</ele>
        <time>2020-10-19T13:28:06.000Z</time>
      </trkpt>
      <trkpt lat="48.21746" lon="-3.15179">
        <ele>217.39999389648</ele>
        <time>2020-10-19T13:28:07.000Z</time>
      </trkpt>
      <trkpt lat="48.21746" lon="-3.15177">
        <ele>217.39999389648</ele>
        <time>2020-10-19T13:28:08.000Z</time>
      </trkpt>
      <trkpt lat="48.21746" lon="-3.15177">
        <ele>217.39999389648</ele>
        <time>2020-10-19T13:28:09.000Z</time>
      </trkpt>
      <trkpt lat="48.21746" lon="-3.15175">
        <ele>217.19999694824</ele>
        <time>2020-10-19T13:28:10.000Z</time>
      </trkpt>
      <trkpt lat="48.21746" lon="-3.15174">
        <ele>217.19999694824</ele>
        <time>2020-10-19T13:28:11.000Z</time>
      </trkpt>
      <trkpt lat="48.21746" lon="-3.15172">
        <ele>217.19999694824</ele>
        <time>2020-10-19T13:28:12.000Z</time>
      </trkpt>
      <trkpt lat="48.21747" lon="-3.15171">
        <ele>217.19999694824</ele>
        <time>2020-10-19T13:28:13.000Z</time>
      </trkpt>
      <trkpt lat="48.21747" lon="-3.15169">
        <ele>217</ele>
        <time>2020-10-19T13:28:14.000Z</time>
      </trkpt>
      <trkpt lat="48.21747" lon="-3.15167">
        <ele>217</ele>
        <time>2020-10-19T13:28:15.000Z</time>
      </trkpt>
      <trkpt lat="48.21747" lon="-3.15166">
        <ele>216.80000305176</ele>
        <time>2020-10-19T13:28:16.000Z</time>
      </trkpt>
      <trkpt lat="48.21747" lon="-3.15164">
        <ele>216.80000305176</ele>
        <time>2020-10-19T13:28:17.000Z</time>
      </trkpt>
      <trkpt lat="48.21747" lon="-3.15163">
        <ele>216.60000610352</ele>
        <time>2020-10-19T13:28:18.000Z</time>
      </trkpt>
      <trkpt lat="48.21747" lon="-3.15162">
        <ele>216.60000610352</ele>
        <time>2020-10-19T13:28:19.000Z</time>
      </trkpt>
      <trkpt lat="48.21747" lon="-3.1516">
        <ele>216.39999389648</ele>
        <time>2020-10-19T13:28:20.000Z</time>
      </trkpt>
      <trkpt lat="48.21747" lon="-3.15158">
        <ele>216.39999389648</ele>
        <time>2020-10-19T13:28:21.000Z</time>
      </trkpt>
      <trkpt lat="48.21747" lon="-3.15157">
        <ele>216.19999694824</ele>
        <time>2020-10-19T13:28:22.000Z</time>
      </trkpt>
      <trkpt lat="48.21747" lon="-3.15155">
        <ele>216.19999694824</ele>
        <time>2020-10-19T13:28:23.000Z</time>
      </trkpt>
      <trkpt lat="48.21747" lon="-3.15153">
        <ele>216.19999694824</ele>
        <time>2020-10-19T13:28:24.000Z</time>
      </trkpt>
      <trkpt lat="48.21748" lon="-3.15152">
        <ele>216.19999694824</ele>
        <time>2020-10-19T13:28:25.000Z</time>
      </trkpt>
      <trkpt lat="48.21748" lon="-3.15149">
        <ele>216.19999694824</ele>
        <time>2020-10-19T13:28:26.000Z</time>
      </trkpt>
      <trkpt lat="48.21748" lon="-3.15149">
        <ele>216.19999694824</ele>
        <time>2020-10-19T13:28:27.000Z</time>
      </trkpt>
      <trkpt lat="48.21749" lon="-3.15147">
        <ele>216.19999694824</ele>
        <time>2020-10-19T13:28:28.000Z</time>
      </trkpt>
      <trkpt lat="48.21749" lon="-3.15145">
        <ele>216.19999694824</ele>
        <time>2020-10-19T13:28:29.000Z</time>
      </trkpt>
      <trkpt lat="48.2175" lon="-3.15143">
        <ele>216.19999694824</ele>
        <time>2020-10-19T13:28:30.000Z</time>
      </trkpt>
      <trkpt lat="48.2175" lon="-3.15142">
        <ele>216.19999694824</ele>
        <time>2020-10-19T13:28:31.000Z</time>
      </trkpt>
      <trkpt lat="48.2175" lon="-3.1514">
        <ele>216.19999694824</ele>
        <time>2020-10-19T13:28:32.000Z</time>
      </trkpt>
      <trkpt lat="48.2175" lon="-3.15139">
        <ele>216.19999694824</ele>
        <time>2020-10-19T13:28:33.000Z</time>
      </trkpt>
      <trkpt lat="48.21751" lon="-3.15137">
        <ele>216.19999694824</ele>
        <time>2020-10-19T13:28:34.000Z</time>
      </trkpt>
      <trkpt lat="48.21751" lon="-3.15135">
        <ele>216.19999694824</ele>
        <time>2020-10-19T13:28:35.000Z</time>
      </trkpt>
      <trkpt lat="48.21752" lon="-3.15134">
        <ele>216.19999694824</ele>
        <time>2020-10-19T13:28:36.000Z</time>
      </trkpt>
      <trkpt lat="48.21752" lon="-3.15132">
        <ele>216.19999694824</ele>
        <time>2020-10-19T13:28:37.000Z</time>
      </trkpt>
      <trkpt lat="48.21752" lon="-3.1513">
        <ele>216.19999694824</ele>
        <time>2020-10-19T13:28:38.000Z</time>
      </trkpt>
      <trkpt lat="48.21753" lon="-3.15129">
        <ele>216.19999694824</ele>
        <time>2020-10-19T13:28:39.000Z</time>
      </trkpt>
      <trkpt lat="48.21753" lon="-3.15127">
        <ele>216.19999694824</ele>
        <time>2020-10-19T13:28:40.000Z</time>
      </trkpt>
      <trkpt lat="48.21754" lon="-3.15125">
        <ele>216.39999389648</ele>
        <time>2020-10-19T13:28:41.000Z</time>
      </trkpt>
      <trkpt lat="48.21754" lon="-3.15124">
        <ele>216.39999389648</ele>
        <time>2020-10-19T13:28:42.000Z</time>
      </trkpt>
      <trkpt lat="48.21754" lon="-3.15122">
        <ele>216.39999389648</ele>
        <time>2020-10-19T13:28:43.000Z</time>
      </trkpt>
      <trkpt lat="48.21755" lon="-3.1512">
        <ele>216.39999389648</ele>
        <time>2020-10-19T13:28:44.000Z</time>
      </trkpt>
      <trkpt lat="48.21755" lon="-3.15118">
        <ele>216.39999389648</ele>
        <time>2020-10-19T13:28:45.000Z</time>
      </trkpt>
      <trkpt lat="48.21755" lon="-3.15117">
        <ele>216.39999389648</ele>
        <time>2020-10-19T13:28:46.000Z</time>
      </trkpt>
      <trkpt lat="48.21756" lon="-3.15115">
        <ele>216.39999389648</ele>
        <time>2020-10-19T13:28:47.000Z</time>
      </trkpt>
      <trkpt lat="48.21757" lon="-3.15112">
        <ele>216.39999389648</ele>
        <time>2020-10-19T13:28:48.000Z</time>
      </trkpt>
      <trkpt lat="48.21757" lon="-3.15112">
        <ele>216.39999389648</ele>
        <time>2020-10-19T13:28:49.000Z</time>
      </trkpt>
      <trkpt lat="48.21757" lon="-3.1511">
        <ele>216.39999389648</ele>
        <time>2020-10-19T13:28:50.000Z</time>
      </trkpt>
      <trkpt lat="48.21757" lon="-3.15108">
        <ele>216.19999694824</ele>
        <time>2020-10-19T13:28:51.000Z</time>
      </trkpt>
      <trkpt lat="48.21757" lon="-3.15107">
        <ele>216.19999694824</ele>
        <time>2020-10-19T13:28:52.000Z</time>
      </trkpt>
      <trkpt lat="48.21757" lon="-3.15105">
        <ele>216</ele>
        <time>2020-10-19T13:28:53.000Z</time>
      </trkpt>
      <trkpt lat="48.21757" lon="-3.15103">
        <ele>215.80000305176</ele>
        <time>2020-10-19T13:28:54.000Z</time>
      </trkpt>
      <trkpt lat="48.21757" lon="-3.15101">
        <ele>215.60000610352</ele>
        <time>2020-10-19T13:28:55.000Z</time>
      </trkpt>
      <trkpt lat="48.21757" lon="-3.151">
        <ele>215.60000610352</ele>
        <time>2020-10-19T13:28:56.000Z</time>
      </trkpt>
      <trkpt lat="48.21757" lon="-3.15099">
        <ele>215.60000610352</ele>
        <time>2020-10-19T13:28:57.000Z</time>
      </trkpt>
      <trkpt lat="48.21757" lon="-3.15097">
        <ele>215.39999389648</ele>
        <time>2020-10-19T13:28:58.000Z</time>
      </trkpt>
      <trkpt lat="48.21757" lon="-3.15096">
        <ele>215.39999389648</ele>
        <time>2020-10-19T13:28:59.000Z</time>
      </trkpt>
      <trkpt lat="48.21757" lon="-3.15094">
        <ele>215.19999694824</ele>
        <time>2020-10-19T13:29:00.000Z</time>
      </trkpt>
      <trkpt lat="48.21757" lon="-3.15093">
        <ele>215.19999694824</ele>
        <time>2020-10-19T13:29:01.000Z</time>
      </trkpt>
      <trkpt lat="48.21757" lon="-3.15091">
        <ele>215</ele>
        <time>2020-10-19T13:29:02.000Z</time>
      </trkpt>
      <trkpt lat="48.21757" lon="-3.1509">
        <ele>215</ele>
        <time>2020-10-19T13:29:03.000Z</time>
      </trkpt>
      <trkpt lat="48.21758" lon="-3.15088">
        <ele>215.19999694824</ele>
        <time>2020-10-19T13:29:04.000Z</time>
      </trkpt>
      <trkpt lat="48.21758" lon="-3.15086">
        <ele>215</ele>
        <time>2020-10-19T13:29:05.000Z</time>
      </trkpt>
      <trkpt lat="48.21758" lon="-3.15085">
        <ele>215</ele>
        <time>2020-10-19T13:29:06.000Z</time>
      </trkpt>
      <trkpt lat="48.21758" lon="-3.15083">
        <ele>215</ele>
        <time>2020-10-19T13:29:07.000Z</time>
      </trkpt>
      <trkpt lat="48.21758" lon="-3.15082">
        <ele>214.80000305176</ele>
        <time>2020-10-19T13:29:08.000Z</time>
      </trkpt>
      <trkpt lat="48.21758" lon="-3.15081">
        <ele>214.80000305176</ele>
        <time>2020-10-19T13:29:09.000Z</time>
      </trkpt>
      <trkpt lat="48.21759" lon="-3.15079">
        <ele>214.80000305176</ele>
        <time>2020-10-19T13:29:10.000Z</time>
      </trkpt>
      <trkpt lat="48.21759" lon="-3.15078">
        <ele>214.80000305176</ele>
        <time>2020-10-19T13:29:11.000Z</time>
      </trkpt>
      <trkpt lat="48.21759" lon="-3.15076">
        <ele>214.60000610352</ele>
        <time>2020-10-19T13:29:12.000Z</time>
      </trkpt>
      <trkpt lat="48.21759" lon="-3.15075">
        <ele>214.60000610352</ele>
        <time>2020-10-19T13:29:13.000Z</time>
      </trkpt>
      <trkpt lat="48.21759" lon="-3.15073">
        <ele>214.60000610352</ele>
        <time>2020-10-19T13:29:14.000Z</time>
      </trkpt>
      <trkpt lat="48.2176" lon="-3.15071">
        <ele>214.60000610352</ele>
        <time>2020-10-19T13:29:15.000Z</time>
      </trkpt>
      <trkpt lat="48.21759" lon="-3.15069">
        <ele>214.19999694824</ele>
        <time>2020-10-19T13:29:16.000Z</time>
      </trkpt>
      <trkpt lat="48.2176" lon="-3.15068">
        <ele>214.39999389648</ele>
        <time>2020-10-19T13:29:17.000Z</time>
      </trkpt>
      <trkpt lat="48.2176" lon="-3.15066">
        <ele>214.39999389648</ele>
        <time>2020-10-19T13:29:18.000Z</time>
      </trkpt>
      <trkpt lat="48.2176" lon="-3.15064">
        <ele>214.19999694824</ele>
        <time>2020-10-19T13:29:19.000Z</time>
      </trkpt>
      <trkpt lat="48.2176" lon="-3.15062">
        <ele>214</ele>
        <time>2020-10-19T13:29:20.000Z</time>
      </trkpt>
      <trkpt lat="48.2176" lon="-3.15061">
        <ele>214</ele>
        <time>2020-10-19T13:29:21.000Z</time>
      </trkpt>
      <trkpt lat="48.2176" lon="-3.15059">
        <ele>213.80000305176</ele>
        <time>2020-10-19T13:29:22.000Z</time>
      </trkpt>
      <trkpt lat="48.21759" lon="-3.15058">
        <ele>213.60000610352</ele>
        <time>2020-10-19T13:29:23.000Z</time>
      </trkpt>
      <trkpt lat="48.21759" lon="-3.15056">
        <ele>213.19999694824</ele>
        <time>2020-10-19T13:29:24.000Z</time>
      </trkpt>
      <trkpt lat="48.21759" lon="-3.15054">
        <ele>213</ele>
        <time>2020-10-19T13:29:25.000Z</time>
      </trkpt>
      <trkpt lat="48.21759" lon="-3.15052">
        <ele>212.80000305176</ele>
        <time>2020-10-19T13:29:26.000Z</time>
      </trkpt>
      <trkpt lat="48.21758" lon="-3.1505">
        <ele>212.60000610352</ele>
        <time>2020-10-19T13:29:27.000Z</time>
      </trkpt>
      <trkpt lat="48.21758" lon="-3.15048">
        <ele>212.39999389648</ele>
        <time>2020-10-19T13:29:28.000Z</time>
      </trkpt>
      <trkpt lat="48.21758" lon="-3.15047">
        <ele>212.39999389648</ele>
        <time>2020-10-19T13:29:29.000Z</time>
      </trkpt>
      <trkpt lat="48.21758" lon="-3.15045">
        <ele>212.19999694824</ele>
        <time>2020-10-19T13:29:30.000Z</time>
      </trkpt>
      <trkpt lat="48.21758" lon="-3.15044">
        <ele>212</ele>
        <time>2020-10-19T13:29:31.000Z</time>
      </trkpt>
      <trkpt lat="48.21758" lon="-3.15043">
        <ele>211.80000305176</ele>
        <time>2020-10-19T13:29:32.000Z</time>
      </trkpt>
      <trkpt lat="48.21758" lon="-3.15041">
        <ele>211.60000610352</ele>
        <time>2020-10-19T13:29:33.000Z</time>
      </trkpt>
      <trkpt lat="48.21757" lon="-3.1504">
        <ele>211.60000610352</ele>
        <time>2020-10-19T13:29:34.000Z</time>
      </trkpt>
      <trkpt lat="48.21757" lon="-3.15038">
        <ele>211.39999389648</ele>
        <time>2020-10-19T13:29:35.000Z</time>
      </trkpt>
      <trkpt lat="48.21757" lon="-3.15037">
        <ele>211.19999694824</ele>
        <time>2020-10-19T13:29:36.000Z</time>
      </trkpt>
      <trkpt lat="48.21757" lon="-3.15036">
        <ele>211</ele>
        <time>2020-10-19T13:29:37.000Z</time>
      </trkpt>
      <trkpt lat="48.21757" lon="-3.15034">
        <ele>211</ele>
        <time>2020-10-19T13:29:38.000Z</time>
      </trkpt>
      <trkpt lat="48.21757" lon="-3.15033">
        <ele>210.80000305176</ele>
        <time>2020-10-19T13:29:39.000Z</time>
      </trkpt>
      <trkpt lat="48.21757" lon="-3.15032">
        <ele>210.80000305176</ele>
        <time>2020-10-19T13:29:40.000Z</time>
      </trkpt>
      <trkpt lat="48.21757" lon="-3.15031">
        <ele>210.80000305176</ele>
        <time>2020-10-19T13:29:41.000Z</time>
      </trkpt>
      <trkpt lat="48.21757" lon="-3.15029">
        <ele>210.60000610352</ele>
        <time>2020-10-19T13:29:42.000Z</time>
      </trkpt>
      <trkpt lat="48.21757" lon="-3.15028">
        <ele>210.39999389648</ele>
        <time>2020-10-19T13:29:43.000Z</time>
      </trkpt>
      <trkpt lat="48.21756" lon="-3.15027">
        <ele>210.19999694824</ele>
        <time>2020-10-19T13:29:44.000Z</time>
      </trkpt>
      <trkpt lat="48.21756" lon="-3.15026">
        <ele>210</ele>
        <time>2020-10-19T13:29:45.000Z</time>
      </trkpt>
      <trkpt lat="48.21756" lon="-3.15025">
        <ele>210</ele>
        <time>2020-10-19T13:29:46.000Z</time>
      </trkpt>
      <trkpt lat="48.21756" lon="-3.15024">
        <ele>209.80000305176</ele>
        <time>2020-10-19T13:29:47.000Z</time>
      </trkpt>
      <trkpt lat="48.21756" lon="-3.15023">
        <ele>209.80000305176</ele>
        <time>2020-10-19T13:29:48.000Z</time>
      </trkpt>
      <trkpt lat="48.21756" lon="-3.15021">
        <ele>209.60000610352</ele>
        <time>2020-10-19T13:29:49.000Z</time>
      </trkpt>
      <trkpt lat="48.21756" lon="-3.1502">
        <ele>209.60000610352</ele>
        <time>2020-10-19T13:29:50.000Z</time>
      </trkpt>
      <trkpt lat="48.21755" lon="-3.15019">
        <ele>209.39999389648</ele>
        <time>2020-10-19T13:29:51.000Z</time>
      </trkpt>
      <trkpt lat="48.21755" lon="-3.15017">
        <ele>209</ele>
        <time>2020-10-19T13:29:52.000Z</time>
      </trkpt>
      <trkpt lat="48.21755" lon="-3.15016">
        <ele>208.80000305176</ele>
        <time>2020-10-19T13:29:53.000Z</time>
      </trkpt>
      <trkpt lat="48.21755" lon="-3.15015">
        <ele>208.80000305176</ele>
        <time>2020-10-19T13:29:54.000Z</time>
      </trkpt>
      <trkpt lat="48.21755" lon="-3.15013">
        <ele>208.60000610352</ele>
        <time>2020-10-19T13:29:55.000Z</time>
      </trkpt>
      <trkpt lat="48.21754" lon="-3.1501">
        <ele>208.39999389648</ele>
        <time>2020-10-19T13:29:56.000Z</time>
      </trkpt>
      <trkpt lat="48.21754" lon="-3.1501">
        <ele>208.39999389648</ele>
        <time>2020-10-19T13:29:57.000Z</time>
      </trkpt>
      <trkpt lat="48.21755" lon="-3.15009">
        <ele>208.60000610352</ele>
        <time>2020-10-19T13:29:58.000Z</time>
      </trkpt>
      <trkpt lat="48.21755" lon="-3.15007">
        <ele>208.60000610352</ele>
        <time>2020-10-19T13:29:59.000Z</time>
      </trkpt>
      <trkpt lat="48.21755" lon="-3.15005">
        <ele>208.39999389648</ele>
        <time>2020-10-19T13:30:00.000Z</time>
      </trkpt>
      <trkpt lat="48.21755" lon="-3.15004">
        <ele>208.39999389648</ele>
        <time>2020-10-19T13:30:01.000Z</time>
      </trkpt>
      <trkpt lat="48.21755" lon="-3.15003">
        <ele>208.39999389648</ele>
        <time>2020-10-19T13:30:02.000Z</time>
      </trkpt>
      <trkpt lat="48.21755" lon="-3.15">
        <ele>208.39999389648</ele>
        <time>2020-10-19T13:30:03.000Z</time>
      </trkpt>
      <trkpt lat="48.21755" lon="-3.15">
        <ele>208.39999389648</ele>
        <time>2020-10-19T13:30:04.000Z</time>
      </trkpt>
      <trkpt lat="48.21755" lon="-3.14998">
        <ele>208.39999389648</ele>
        <time>2020-10-19T13:30:05.000Z</time>
      </trkpt>
      <trkpt lat="48.21755" lon="-3.14997">
        <ele>208.39999389648</ele>
        <time>2020-10-19T13:30:06.000Z</time>
      </trkpt>
      <trkpt lat="48.21755" lon="-3.14995">
        <ele>208.39999389648</ele>
        <time>2020-10-19T13:30:07.000Z</time>
      </trkpt>
      <trkpt lat="48.21755" lon="-3.14993">
        <ele>208.39999389648</ele>
        <time>2020-10-19T13:30:08.000Z</time>
      </trkpt>
      <trkpt lat="48.21755" lon="-3.14992">
        <ele>208.19999694824</ele>
        <time>2020-10-19T13:30:09.000Z</time>
      </trkpt>
      <trkpt lat="48.21755" lon="-3.1499">
        <ele>208</ele>
        <time>2020-10-19T13:30:10.000Z</time>
      </trkpt>
      <trkpt lat="48.21755" lon="-3.14989">
        <ele>208</ele>
        <time>2020-10-19T13:30:11.000Z</time>
      </trkpt>
      <trkpt lat="48.21754" lon="-3.14987">
        <ele>207.80000305176</ele>
        <time>2020-10-19T13:30:12.000Z</time>
      </trkpt>
      <trkpt lat="48.21754" lon="-3.14986">
        <ele>207.80000305176</ele>
        <time>2020-10-19T13:30:13.000Z</time>
      </trkpt>
      <trkpt lat="48.21754" lon="-3.14984">
        <ele>207.80000305176</ele>
        <time>2020-10-19T13:30:14.000Z</time>
      </trkpt>
      <trkpt lat="48.21754" lon="-3.14983">
        <ele>207.60000610352</ele>
        <time>2020-10-19T13:30:15.000Z</time>
      </trkpt>
      <trkpt lat="48.21753" lon="-3.14982">
        <ele>207.39999389648</ele>
        <time>2020-10-19T13:30:16.000Z</time>
      </trkpt>
      <trkpt lat="48.21753" lon="-3.1498">
        <ele>207.39999389648</ele>
        <time>2020-10-19T13:30:17.000Z</time>
      </trkpt>
      <trkpt lat="48.21753" lon="-3.14979">
        <ele>207.19999694824</ele>
        <time>2020-10-19T13:30:18.000Z</time>
      </trkpt>
      <trkpt lat="48.21753" lon="-3.14978">
        <ele>207.19999694824</ele>
        <time>2020-10-19T13:30:19.000Z</time>
      </trkpt>
      <trkpt lat="48.21753" lon="-3.14977">
        <ele>207.19999694824</ele>
        <time>2020-10-19T13:30:20.000Z</time>
      </trkpt>
      <trkpt lat="48.21753" lon="-3.14976">
        <ele>207.19999694824</ele>
        <time>2020-10-19T13:30:21.000Z</time>
      </trkpt>
      <trkpt lat="48.21753" lon="-3.14974">
        <ele>207.19999694824</ele>
        <time>2020-10-19T13:30:22.000Z</time>
      </trkpt>
      <trkpt lat="48.21754" lon="-3.14973">
        <ele>207.19999694824</ele>
        <time>2020-10-19T13:30:23.000Z</time>
      </trkpt>
      <trkpt lat="48.21754" lon="-3.14972">
        <ele>207.39999389648</ele>
        <time>2020-10-19T13:30:24.000Z</time>
      </trkpt>
      <trkpt lat="48.21754" lon="-3.1497">
        <ele>207.39999389648</ele>
        <time>2020-10-19T13:30:25.000Z</time>
      </trkpt>
      <trkpt lat="48.21754" lon="-3.14969">
        <ele>207.19999694824</ele>
        <time>2020-10-19T13:30:26.000Z</time>
      </trkpt>
      <trkpt lat="48.21753" lon="-3.14967">
        <ele>207</ele>
        <time>2020-10-19T13:30:27.000Z</time>
      </trkpt>
      <trkpt lat="48.21753" lon="-3.14965">
        <ele>207</ele>
        <time>2020-10-19T13:30:28.000Z</time>
      </trkpt>
      <trkpt lat="48.21753" lon="-3.14964">
        <ele>206.80000305176</ele>
        <time>2020-10-19T13:30:29.000Z</time>
      </trkpt>
      <trkpt lat="48.21753" lon="-3.14962">
        <ele>206.80000305176</ele>
        <time>2020-10-19T13:30:30.000Z</time>
      </trkpt>
      <trkpt lat="48.21753" lon="-3.1496">
        <ele>206.80000305176</ele>
        <time>2020-10-19T13:30:31.000Z</time>
      </trkpt>
      <trkpt lat="48.21753" lon="-3.14959">
        <ele>206.80000305176</ele>
        <time>2020-10-19T13:30:32.000Z</time>
      </trkpt>
      <trkpt lat="48.21753" lon="-3.14957">
        <ele>206.80000305176</ele>
        <time>2020-10-19T13:30:33.000Z</time>
      </trkpt>
      <trkpt lat="48.21753" lon="-3.14956">
        <ele>206.80000305176</ele>
        <time>2020-10-19T13:30:34.000Z</time>
      </trkpt>
      <trkpt lat="48.21754" lon="-3.14954">
        <ele>206.80000305176</ele>
        <time>2020-10-19T13:30:35.000Z</time>
      </trkpt>
      <trkpt lat="48.21754" lon="-3.14952">
        <ele>207</ele>
        <time>2020-10-19T13:30:36.000Z</time>
      </trkpt>
      <trkpt lat="48.21755" lon="-3.14951">
        <ele>207.19999694824</ele>
        <time>2020-10-19T13:30:37.000Z</time>
      </trkpt>
      <trkpt lat="48.21755" lon="-3.1495">
        <ele>207.19999694824</ele>
        <time>2020-10-19T13:30:38.000Z</time>
      </trkpt>
      <trkpt lat="48.21756" lon="-3.14948">
        <ele>207.39999389648</ele>
        <time>2020-10-19T13:30:39.000Z</time>
      </trkpt>
      <trkpt lat="48.21756" lon="-3.14947">
        <ele>207.39999389648</ele>
        <time>2020-10-19T13:30:40.000Z</time>
      </trkpt>
      <trkpt lat="48.21756" lon="-3.14945">
        <ele>207.39999389648</ele>
        <time>2020-10-19T13:30:41.000Z</time>
      </trkpt>
      <trkpt lat="48.21756" lon="-3.14944">
        <ele>207.60000610352</ele>
        <time>2020-10-19T13:30:42.000Z</time>
      </trkpt>
      <trkpt lat="48.21757" lon="-3.14942">
        <ele>207.60000610352</ele>
        <time>2020-10-19T13:30:43.000Z</time>
      </trkpt>
      <trkpt lat="48.21757" lon="-3.1494">
        <ele>207.60000610352</ele>
        <time>2020-10-19T13:30:44.000Z</time>
      </trkpt>
      <trkpt lat="48.21757" lon="-3.14938">
        <ele>207.60000610352</ele>
        <time>2020-10-19T13:30:45.000Z</time>
      </trkpt>
      <trkpt lat="48.21758" lon="-3.14936">
        <ele>207.80000305176</ele>
        <time>2020-10-19T13:30:46.000Z</time>
      </trkpt>
      <trkpt lat="48.21758" lon="-3.14934">
        <ele>207.80000305176</ele>
        <time>2020-10-19T13:30:47.000Z</time>
      </trkpt>
      <trkpt lat="48.21758" lon="-3.14933">
        <ele>208</ele>
        <time>2020-10-19T13:30:48.000Z</time>
      </trkpt>
      <trkpt lat="48.21759" lon="-3.14931">
        <ele>208</ele>
        <time>2020-10-19T13:30:49.000Z</time>
      </trkpt>
      <trkpt lat="48.21759" lon="-3.1493">
        <ele>208</ele>
        <time>2020-10-19T13:30:50.000Z</time>
      </trkpt>
      <trkpt lat="48.21759" lon="-3.14928">
        <ele>208.19999694824</ele>
        <time>2020-10-19T13:30:51.000Z</time>
      </trkpt>
      <trkpt lat="48.2176" lon="-3.14926">
        <ele>208.39999389648</ele>
        <time>2020-10-19T13:30:52.000Z</time>
      </trkpt>
      <trkpt lat="48.2176" lon="-3.14925">
        <ele>208.39999389648</ele>
        <time>2020-10-19T13:30:53.000Z</time>
      </trkpt>
      <trkpt lat="48.21761" lon="-3.14923">
        <ele>208.60000610352</ele>
        <time>2020-10-19T13:30:54.000Z</time>
      </trkpt>
      <trkpt lat="48.21761" lon="-3.14921">
        <ele>208.80000305176</ele>
        <time>2020-10-19T13:30:55.000Z</time>
      </trkpt>
      <trkpt lat="48.21761" lon="-3.1492">
        <ele>208.80000305176</ele>
        <time>2020-10-19T13:30:56.000Z</time>
      </trkpt>
      <trkpt lat="48.21762" lon="-3.14918">
        <ele>208.80000305176</ele>
        <time>2020-10-19T13:30:57.000Z</time>
      </trkpt>
      <trkpt lat="48.21762" lon="-3.14917">
        <ele>208.80000305176</ele>
        <time>2020-10-19T13:30:58.000Z</time>
      </trkpt>
      <trkpt lat="48.21762" lon="-3.14915">
        <ele>209</ele>
        <time>2020-10-19T13:30:59.000Z</time>
      </trkpt>
      <trkpt lat="48.21762" lon="-3.14914">
        <ele>209</ele>
        <time>2020-10-19T13:31:00.000Z</time>
      </trkpt>
      <trkpt lat="48.21762" lon="-3.14913">
        <ele>209.19999694824</ele>
        <time>2020-10-19T13:31:01.000Z</time>
      </trkpt>
      <trkpt lat="48.21763" lon="-3.14912">
        <ele>209.19999694824</ele>
        <time>2020-10-19T13:31:02.000Z</time>
      </trkpt>
      <trkpt lat="48.21763" lon="-3.1491">
        <ele>209.19999694824</ele>
        <time>2020-10-19T13:31:03.000Z</time>
      </trkpt>
      <trkpt lat="48.21763" lon="-3.14909">
        <ele>209.19999694824</ele>
        <time>2020-10-19T13:31:04.000Z</time>
      </trkpt>
      <trkpt lat="48.21763" lon="-3.14907">
        <ele>209.19999694824</ele>
        <time>2020-10-19T13:31:05.000Z</time>
      </trkpt>
      <trkpt lat="48.21763" lon="-3.14906">
        <ele>209.19999694824</ele>
        <time>2020-10-19T13:31:06.000Z</time>
      </trkpt>
      <trkpt lat="48.21763" lon="-3.14904">
        <ele>209.39999389648</ele>
        <time>2020-10-19T13:31:07.000Z</time>
      </trkpt>
      <trkpt lat="48.21763" lon="-3.14902">
        <ele>209.39999389648</ele>
        <time>2020-10-19T13:31:08.000Z</time>
      </trkpt>
      <trkpt lat="48.21763" lon="-3.14901">
        <ele>209.39999389648</ele>
        <time>2020-10-19T13:31:09.000Z</time>
      </trkpt>
      <trkpt lat="48.21763" lon="-3.149">
        <ele>209.39999389648</ele>
        <time>2020-10-19T13:31:10.000Z</time>
      </trkpt>
      <trkpt lat="48.21763" lon="-3.14898">
        <ele>209.39999389648</ele>
        <time>2020-10-19T13:31:11.000Z</time>
      </trkpt>
      <trkpt lat="48.21764" lon="-3.14897">
        <ele>209.60000610352</ele>
        <time>2020-10-19T13:31:12.000Z</time>
      </trkpt>
      <trkpt lat="48.21764" lon="-3.14896">
        <ele>209.60000610352</ele>
        <time>2020-10-19T13:31:13.000Z</time>
      </trkpt>
      <trkpt lat="48.21764" lon="-3.14894">
        <ele>209.60000610352</ele>
        <time>2020-10-19T13:31:14.000Z</time>
      </trkpt>
      <trkpt lat="48.21764" lon="-3.14891">
        <ele>209.80000305176</ele>
        <time>2020-10-19T13:31:15.000Z</time>
      </trkpt>
      <trkpt lat="48.21764" lon="-3.14891">
        <ele>209.80000305176</ele>
        <time>2020-10-19T13:31:16.000Z</time>
      </trkpt>
      <trkpt lat="48.21765" lon="-3.14889">
        <ele>210</ele>
        <time>2020-10-19T13:31:17.000Z</time>
      </trkpt>
      <trkpt lat="48.21765" lon="-3.14888">
        <ele>210</ele>
        <time>2020-10-19T13:31:18.000Z</time>
      </trkpt>
      <trkpt lat="48.21766" lon="-3.14886">
        <ele>210.19999694824</ele>
        <time>2020-10-19T13:31:19.000Z</time>
      </trkpt>
      <trkpt lat="48.21766" lon="-3.14885">
        <ele>210.19999694824</ele>
        <time>2020-10-19T13:31:20.000Z</time>
      </trkpt>
      <trkpt lat="48.21766" lon="-3.14884">
        <ele>210.19999694824</ele>
        <time>2020-10-19T13:31:21.000Z</time>
      </trkpt>
      <trkpt lat="48.21766" lon="-3.14882">
        <ele>210.19999694824</ele>
        <time>2020-10-19T13:31:22.000Z</time>
      </trkpt>
      <trkpt lat="48.21767" lon="-3.14881">
        <ele>210.39999389648</ele>
        <time>2020-10-19T13:31:23.000Z</time>
      </trkpt>
      <trkpt lat="48.21767" lon="-3.14879">
        <ele>210.60000610352</ele>
        <time>2020-10-19T13:31:24.000Z</time>
      </trkpt>
      <trkpt lat="48.21767" lon="-3.14878">
        <ele>210.60000610352</ele>
        <time>2020-10-19T13:31:25.000Z</time>
      </trkpt>
      <trkpt lat="48.21768" lon="-3.14876">
        <ele>210.80000305176</ele>
        <time>2020-10-19T13:31:26.000Z</time>
      </trkpt>
      <trkpt lat="48.21768" lon="-3.14875">
        <ele>210.80000305176</ele>
        <time>2020-10-19T13:31:27.000Z</time>
      </trkpt>
      <trkpt lat="48.21768" lon="-3.14873">
        <ele>210.80000305176</ele>
        <time>2020-10-19T13:31:28.000Z</time>
      </trkpt>
      <trkpt lat="48.21768" lon="-3.14872">
        <ele>210.80000305176</ele>
        <time>2020-10-19T13:31:29.000Z</time>
      </trkpt>
      <trkpt lat="48.21768" lon="-3.1487">
        <ele>210.80000305176</ele>
        <time>2020-10-19T13:31:30.000Z</time>
      </trkpt>
      <trkpt lat="48.21768" lon="-3.14869">
        <ele>211</ele>
        <time>2020-10-19T13:31:31.000Z</time>
      </trkpt>
      <trkpt lat="48.21768" lon="-3.14868">
        <ele>211</ele>
        <time>2020-10-19T13:31:32.000Z</time>
      </trkpt>
      <trkpt lat="48.21768" lon="-3.14867">
        <ele>211</ele>
        <time>2020-10-19T13:31:33.000Z</time>
      </trkpt>
      <trkpt lat="48.21768" lon="-3.14866">
        <ele>211</ele>
        <time>2020-10-19T13:31:34.000Z</time>
      </trkpt>
      <trkpt lat="48.21768" lon="-3.14864">
        <ele>211</ele>
        <time>2020-10-19T13:31:35.000Z</time>
      </trkpt>
      <trkpt lat="48.21769" lon="-3.14863">
        <ele>211</ele>
        <time>2020-10-19T13:31:36.000Z</time>
      </trkpt>
      <trkpt lat="48.21769" lon="-3.14862">
        <ele>211.19999694824</ele>
        <time>2020-10-19T13:31:37.000Z</time>
      </trkpt>
      <trkpt lat="48.21769" lon="-3.14861">
        <ele>211.39999389648</ele>
        <time>2020-10-19T13:31:38.000Z</time>
      </trkpt>
      <trkpt lat="48.2177" lon="-3.14859">
        <ele>211.39999389648</ele>
        <time>2020-10-19T13:31:39.000Z</time>
      </trkpt>
      <trkpt lat="48.2177" lon="-3.14858">
        <ele>211.39999389648</ele>
        <time>2020-10-19T13:31:40.000Z</time>
      </trkpt>
      <trkpt lat="48.2177" lon="-3.14857">
        <ele>211.60000610352</ele>
        <time>2020-10-19T13:31:41.000Z</time>
      </trkpt>
      <trkpt lat="48.2177" lon="-3.14856">
        <ele>211.60000610352</ele>
        <time>2020-10-19T13:31:42.000Z</time>
      </trkpt>
      <trkpt lat="48.2177" lon="-3.14855">
        <ele>211.60000610352</ele>
        <time>2020-10-19T13:31:43.000Z</time>
      </trkpt>
      <trkpt lat="48.2177" lon="-3.14854">
        <ele>211.60000610352</ele>
        <time>2020-10-19T13:31:44.000Z</time>
      </trkpt>
      <trkpt lat="48.2177" lon="-3.14852">
        <ele>211.60000610352</ele>
        <time>2020-10-19T13:31:45.000Z</time>
      </trkpt>
      <trkpt lat="48.2177" lon="-3.14851">
        <ele>211.60000610352</ele>
        <time>2020-10-19T13:31:46.000Z</time>
      </trkpt>
      <trkpt lat="48.2177" lon="-3.14849">
        <ele>211.60000610352</ele>
        <time>2020-10-19T13:31:47.000Z</time>
      </trkpt>
      <trkpt lat="48.2177" lon="-3.14848">
        <ele>211.60000610352</ele>
        <time>2020-10-19T13:31:48.000Z</time>
      </trkpt>
      <trkpt lat="48.2177" lon="-3.14846">
        <ele>211.60000610352</ele>
        <time>2020-10-19T13:31:49.000Z</time>
      </trkpt>
      <trkpt lat="48.2177" lon="-3.14845">
        <ele>211.60000610352</ele>
        <time>2020-10-19T13:31:50.000Z</time>
      </trkpt>
      <trkpt lat="48.2177" lon="-3.14843">
        <ele>211.60000610352</ele>
        <time>2020-10-19T13:31:51.000Z</time>
      </trkpt>
      <trkpt lat="48.2177" lon="-3.14842">
        <ele>211.60000610352</ele>
        <time>2020-10-19T13:31:52.000Z</time>
      </trkpt>
      <trkpt lat="48.2177" lon="-3.14841">
        <ele>211.60000610352</ele>
        <time>2020-10-19T13:31:53.000Z</time>
      </trkpt>
      <trkpt lat="48.2177" lon="-3.1484">
        <ele>211.60000610352</ele>
        <time>2020-10-19T13:31:54.000Z</time>
      </trkpt>
      <trkpt lat="48.2177" lon="-3.14838">
        <ele>211.60000610352</ele>
        <time>2020-10-19T13:31:55.000Z</time>
      </trkpt>
      <trkpt lat="48.2177" lon="-3.14837">
        <ele>211.60000610352</ele>
        <time>2020-10-19T13:31:56.000Z</time>
      </trkpt>
      <trkpt lat="48.2177" lon="-3.14836">
        <ele>211.80000305176</ele>
        <time>2020-10-19T13:31:57.000Z</time>
      </trkpt>
      <trkpt lat="48.2177" lon="-3.14834">
        <ele>211.80000305176</ele>
        <time>2020-10-19T13:31:58.000Z</time>
      </trkpt>
      <trkpt lat="48.2177" lon="-3.14832">
        <ele>211.80000305176</ele>
        <time>2020-10-19T13:31:59.000Z</time>
      </trkpt>
      <trkpt lat="48.2177" lon="-3.14831">
        <ele>211.80000305176</ele>
        <time>2020-10-19T13:32:00.000Z</time>
      </trkpt>
      <trkpt lat="48.2177" lon="-3.14829">
        <ele>211.80000305176</ele>
        <time>2020-10-19T13:32:01.000Z</time>
      </trkpt>
      <trkpt lat="48.2177" lon="-3.14828">
        <ele>212</ele>
        <time>2020-10-19T13:32:02.000Z</time>
      </trkpt>
      <trkpt lat="48.2177" lon="-3.14826">
        <ele>212</ele>
        <time>2020-10-19T13:32:03.000Z</time>
      </trkpt>
      <trkpt lat="48.2177" lon="-3.14825">
        <ele>212</ele>
        <time>2020-10-19T13:32:04.000Z</time>
      </trkpt>
      <trkpt lat="48.2177" lon="-3.14823">
        <ele>212.19999694824</ele>
        <time>2020-10-19T13:32:05.000Z</time>
      </trkpt>
      <trkpt lat="48.2177" lon="-3.14822">
        <ele>212.19999694824</ele>
        <time>2020-10-19T13:32:06.000Z</time>
      </trkpt>
      <trkpt lat="48.2177" lon="-3.14821">
        <ele>212.19999694824</ele>
        <time>2020-10-19T13:32:07.000Z</time>
      </trkpt>
      <trkpt lat="48.2177" lon="-3.14819">
        <ele>212.39999389648</ele>
        <time>2020-10-19T13:32:08.000Z</time>
      </trkpt>
      <trkpt lat="48.2177" lon="-3.14818">
        <ele>212.39999389648</ele>
        <time>2020-10-19T13:32:09.000Z</time>
      </trkpt>
      <trkpt lat="48.2177" lon="-3.14816">
        <ele>212.39999389648</ele>
        <time>2020-10-19T13:32:10.000Z</time>
      </trkpt>
      <trkpt lat="48.2177" lon="-3.14815">
        <ele>212.39999389648</ele>
        <time>2020-10-19T13:32:11.000Z</time>
      </trkpt>
      <trkpt lat="48.2177" lon="-3.14813">
        <ele>212.60000610352</ele>
        <time>2020-10-19T13:32:12.000Z</time>
      </trkpt>
      <trkpt lat="48.2177" lon="-3.14812">
        <ele>212.60000610352</ele>
        <time>2020-10-19T13:32:13.000Z</time>
      </trkpt>
      <trkpt lat="48.2177" lon="-3.1481">
        <ele>212.60000610352</ele>
        <time>2020-10-19T13:32:14.000Z</time>
      </trkpt>
      <trkpt lat="48.2177" lon="-3.14809">
        <ele>212.80000305176</ele>
        <time>2020-10-19T13:32:15.000Z</time>
      </trkpt>
      <trkpt lat="48.2177" lon="-3.14808">
        <ele>212.80000305176</ele>
        <time>2020-10-19T13:32:16.000Z</time>
      </trkpt>
      <trkpt lat="48.2177" lon="-3.14806">
        <ele>212.80000305176</ele>
        <time>2020-10-19T13:32:17.000Z</time>
      </trkpt>
      <trkpt lat="48.2177" lon="-3.14805">
        <ele>212.80000305176</ele>
        <time>2020-10-19T13:32:18.000Z</time>
      </trkpt>
      <trkpt lat="48.2177" lon="-3.14803">
        <ele>212.80000305176</ele>
        <time>2020-10-19T13:32:19.000Z</time>
      </trkpt>
      <trkpt lat="48.2177" lon="-3.14802">
        <ele>212.80000305176</ele>
        <time>2020-10-19T13:32:20.000Z</time>
      </trkpt>
      <trkpt lat="48.21769" lon="-3.14801">
        <ele>212.80000305176</ele>
        <time>2020-10-19T13:32:21.000Z</time>
      </trkpt>
      <trkpt lat="48.2177" lon="-3.148">
        <ele>212.80000305176</ele>
        <time>2020-10-19T13:32:22.000Z</time>
      </trkpt>
      <trkpt lat="48.2177" lon="-3.14797">
        <ele>213</ele>
        <time>2020-10-19T13:32:23.000Z</time>
      </trkpt>
      <trkpt lat="48.2177" lon="-3.14797">
        <ele>213</ele>
        <time>2020-10-19T13:32:24.000Z</time>
      </trkpt>
      <trkpt lat="48.2177" lon="-3.14797">
        <ele>213</ele>
        <time>2020-10-19T13:32:25.000Z</time>
      </trkpt>
      <trkpt lat="48.2177" lon="-3.14796">
        <ele>213.19999694824</ele>
        <time>2020-10-19T13:32:26.000Z</time>
      </trkpt>
      <trkpt lat="48.2177" lon="-3.14793">
        <ele>213.39999389648</ele>
        <time>2020-10-19T13:32:27.000Z</time>
      </trkpt>
      <trkpt lat="48.2177" lon="-3.14793">
        <ele>213.39999389648</ele>
        <time>2020-10-19T13:32:28.000Z</time>
      </trkpt>
      <trkpt lat="48.21771" lon="-3.14791">
        <ele>213.39999389648</ele>
        <time>2020-10-19T13:32:29.000Z</time>
      </trkpt>
      <trkpt lat="48.21771" lon="-3.1479">
        <ele>213.60000610352</ele>
        <time>2020-10-19T13:32:30.000Z</time>
      </trkpt>
      <trkpt lat="48.21771" lon="-3.14788">
        <ele>213.60000610352</ele>
        <time>2020-10-19T13:32:31.000Z</time>
      </trkpt>
      <trkpt lat="48.21771" lon="-3.14787">
        <ele>213.80000305176</ele>
        <time>2020-10-19T13:32:32.000Z</time>
      </trkpt>
      <trkpt lat="48.21771" lon="-3.14786">
        <ele>213.80000305176</ele>
        <time>2020-10-19T13:32:33.000Z</time>
      </trkpt>
      <trkpt lat="48.21771" lon="-3.14784">
        <ele>213.80000305176</ele>
        <time>2020-10-19T13:32:34.000Z</time>
      </trkpt>
      <trkpt lat="48.21771" lon="-3.14782">
        <ele>213.80000305176</ele>
        <time>2020-10-19T13:32:35.000Z</time>
      </trkpt>
      <trkpt lat="48.21771" lon="-3.14781">
        <ele>214</ele>
        <time>2020-10-19T13:32:36.000Z</time>
      </trkpt>
      <trkpt lat="48.21771" lon="-3.14779">
        <ele>214</ele>
        <time>2020-10-19T13:32:37.000Z</time>
      </trkpt>
      <trkpt lat="48.21771" lon="-3.14777">
        <ele>214</ele>
        <time>2020-10-19T13:32:38.000Z</time>
      </trkpt>
      <trkpt lat="48.21771" lon="-3.14776">
        <ele>214.19999694824</ele>
        <time>2020-10-19T13:32:39.000Z</time>
      </trkpt>
      <trkpt lat="48.21771" lon="-3.14774">
        <ele>214.19999694824</ele>
        <time>2020-10-19T13:32:40.000Z</time>
      </trkpt>
      <trkpt lat="48.21771" lon="-3.14772">
        <ele>214.39999389648</ele>
        <time>2020-10-19T13:32:41.000Z</time>
      </trkpt>
      <trkpt lat="48.21771" lon="-3.14771">
        <ele>214.39999389648</ele>
        <time>2020-10-19T13:32:42.000Z</time>
      </trkpt>
      <trkpt lat="48.21771" lon="-3.14769">
        <ele>214.60000610352</ele>
        <time>2020-10-19T13:32:43.000Z</time>
      </trkpt>
      <trkpt lat="48.21772" lon="-3.14768">
        <ele>214.60000610352</ele>
        <time>2020-10-19T13:32:44.000Z</time>
      </trkpt>
      <trkpt lat="48.21772" lon="-3.14767">
        <ele>214.80000305176</ele>
        <time>2020-10-19T13:32:45.000Z</time>
      </trkpt>
      <trkpt lat="48.21772" lon="-3.14765">
        <ele>215</ele>
        <time>2020-10-19T13:32:46.000Z</time>
      </trkpt>
      <trkpt lat="48.21773" lon="-3.14764">
        <ele>215</ele>
        <time>2020-10-19T13:32:47.000Z</time>
      </trkpt>
      <trkpt lat="48.21773" lon="-3.14763">
        <ele>215.19999694824</ele>
        <time>2020-10-19T13:32:48.000Z</time>
      </trkpt>
      <trkpt lat="48.21773" lon="-3.14761">
        <ele>215.19999694824</ele>
        <time>2020-10-19T13:32:49.000Z</time>
      </trkpt>
      <trkpt lat="48.21773" lon="-3.1476">
        <ele>215.39999389648</ele>
        <time>2020-10-19T13:32:50.000Z</time>
      </trkpt>
      <trkpt lat="48.21773" lon="-3.14759">
        <ele>215.39999389648</ele>
        <time>2020-10-19T13:32:51.000Z</time>
      </trkpt>
      <trkpt lat="48.21773" lon="-3.14757">
        <ele>215.60000610352</ele>
        <time>2020-10-19T13:32:52.000Z</time>
      </trkpt>
      <trkpt lat="48.21774" lon="-3.14756">
        <ele>215.60000610352</ele>
        <time>2020-10-19T13:32:53.000Z</time>
      </trkpt>
      <trkpt lat="48.21774" lon="-3.14755">
        <ele>215.60000610352</ele>
        <time>2020-10-19T13:32:54.000Z</time>
      </trkpt>
      <trkpt lat="48.21774" lon="-3.14753">
        <ele>215.80000305176</ele>
        <time>2020-10-19T13:32:55.000Z</time>
      </trkpt>
      <trkpt lat="48.21775" lon="-3.14752">
        <ele>216</ele>
        <time>2020-10-19T13:32:56.000Z</time>
      </trkpt>
      <trkpt lat="48.21775" lon="-3.14751">
        <ele>216.19999694824</ele>
        <time>2020-10-19T13:32:57.000Z</time>
      </trkpt>
      <trkpt lat="48.21775" lon="-3.1475">
        <ele>216.19999694824</ele>
        <time>2020-10-19T13:32:58.000Z</time>
      </trkpt>
      <trkpt lat="48.21776" lon="-3.14748">
        <ele>216.39999389648</ele>
        <time>2020-10-19T13:32:59.000Z</time>
      </trkpt>
      <trkpt lat="48.21776" lon="-3.14747">
        <ele>216.60000610352</ele>
        <time>2020-10-19T13:33:00.000Z</time>
      </trkpt>
      <trkpt lat="48.21776" lon="-3.14746">
        <ele>216.60000610352</ele>
        <time>2020-10-19T13:33:01.000Z</time>
      </trkpt>
      <trkpt lat="48.21776" lon="-3.14744">
        <ele>216.80000305176</ele>
        <time>2020-10-19T13:33:02.000Z</time>
      </trkpt>
      <trkpt lat="48.21776" lon="-3.14743">
        <ele>216.80000305176</ele>
        <time>2020-10-19T13:33:03.000Z</time>
      </trkpt>
      <trkpt lat="48.21777" lon="-3.14742">
        <ele>217</ele>
        <time>2020-10-19T13:33:04.000Z</time>
      </trkpt>
      <trkpt lat="48.21777" lon="-3.1474">
        <ele>217.19999694824</ele>
        <time>2020-10-19T13:33:05.000Z</time>
      </trkpt>
      <trkpt lat="48.21778" lon="-3.14739">
        <ele>217.39999389648</ele>
        <time>2020-10-19T13:33:06.000Z</time>
      </trkpt>
      <trkpt lat="48.21778" lon="-3.14738">
        <ele>217.39999389648</ele>
        <time>2020-10-19T13:33:07.000Z</time>
      </trkpt>
      <trkpt lat="48.21778" lon="-3.14737">
        <ele>217.60000610352</ele>
        <time>2020-10-19T13:33:08.000Z</time>
      </trkpt>
      <trkpt lat="48.21779" lon="-3.14736">
        <ele>217.80000305176</ele>
        <time>2020-10-19T13:33:09.000Z</time>
      </trkpt>
      <trkpt lat="48.21779" lon="-3.14735">
        <ele>218</ele>
        <time>2020-10-19T13:33:10.000Z</time>
      </trkpt>
      <trkpt lat="48.2178" lon="-3.14734">
        <ele>218.19999694824</ele>
        <time>2020-10-19T13:33:11.000Z</time>
      </trkpt>
      <trkpt lat="48.2178" lon="-3.14733">
        <ele>218.39999389648</ele>
        <time>2020-10-19T13:33:12.000Z</time>
      </trkpt>
      <trkpt lat="48.21781" lon="-3.14732">
        <ele>218.60000610352</ele>
        <time>2020-10-19T13:33:13.000Z</time>
      </trkpt>
      <trkpt lat="48.21781" lon="-3.14731">
        <ele>218.60000610352</ele>
        <time>2020-10-19T13:33:14.000Z</time>
      </trkpt>
      <trkpt lat="48.21781" lon="-3.14729">
        <ele>218.80000305176</ele>
        <time>2020-10-19T13:33:15.000Z</time>
      </trkpt>
      <trkpt lat="48.21781" lon="-3.14728">
        <ele>219</ele>
        <time>2020-10-19T13:33:16.000Z</time>
      </trkpt>
      <trkpt lat="48.21782" lon="-3.14727">
        <ele>219</ele>
        <time>2020-10-19T13:33:17.000Z</time>
      </trkpt>
      <trkpt lat="48.21782" lon="-3.14726">
        <ele>219.19999694824</ele>
        <time>2020-10-19T13:33:18.000Z</time>
      </trkpt>
      <trkpt lat="48.21782" lon="-3.14725">
        <ele>219.39999389648</ele>
        <time>2020-10-19T13:33:19.000Z</time>
      </trkpt>
      <trkpt lat="48.21783" lon="-3.14724">
        <ele>219.39999389648</ele>
        <time>2020-10-19T13:33:20.000Z</time>
      </trkpt>
      <trkpt lat="48.21783" lon="-3.14722">
        <ele>219.60000610352</ele>
        <time>2020-10-19T13:33:21.000Z</time>
      </trkpt>
      <trkpt lat="48.21784" lon="-3.14721">
        <ele>219.80000305176</ele>
        <time>2020-10-19T13:33:22.000Z</time>
      </trkpt>
      <trkpt lat="48.21784" lon="-3.1472">
        <ele>220</ele>
        <time>2020-10-19T13:33:23.000Z</time>
      </trkpt>
      <trkpt lat="48.21784" lon="-3.14719">
        <ele>220.19999694824</ele>
        <time>2020-10-19T13:33:24.000Z</time>
      </trkpt>
      <trkpt lat="48.21785" lon="-3.14718">
        <ele>220.39999389648</ele>
        <time>2020-10-19T13:33:25.000Z</time>
      </trkpt>
      <trkpt lat="48.21785" lon="-3.14716">
        <ele>220.60000610352</ele>
        <time>2020-10-19T13:33:26.000Z</time>
      </trkpt>
      <trkpt lat="48.21786" lon="-3.14715">
        <ele>220.60000610352</ele>
        <time>2020-10-19T13:33:27.000Z</time>
      </trkpt>
      <trkpt lat="48.21786" lon="-3.14714">
        <ele>220.80000305176</ele>
        <time>2020-10-19T13:33:28.000Z</time>
      </trkpt>
      <trkpt lat="48.21786" lon="-3.14713">
        <ele>221</ele>
        <time>2020-10-19T13:33:29.000Z</time>
      </trkpt>
      <trkpt lat="48.21786" lon="-3.14711">
        <ele>221</ele>
        <time>2020-10-19T13:33:30.000Z</time>
      </trkpt>
      <trkpt lat="48.21787" lon="-3.1471">
        <ele>221.19999694824</ele>
        <time>2020-10-19T13:33:31.000Z</time>
      </trkpt>
      <trkpt lat="48.21787" lon="-3.14709">
        <ele>221.19999694824</ele>
        <time>2020-10-19T13:33:32.000Z</time>
      </trkpt>
      <trkpt lat="48.21787" lon="-3.14708">
        <ele>221.60000610352</ele>
        <time>2020-10-19T13:33:33.000Z</time>
      </trkpt>
      <trkpt lat="48.21788" lon="-3.14706">
        <ele>221.80000305176</ele>
        <time>2020-10-19T13:33:34.000Z</time>
      </trkpt>
      <trkpt lat="48.21788" lon="-3.14705">
        <ele>222</ele>
        <time>2020-10-19T13:33:35.000Z</time>
      </trkpt>
      <trkpt lat="48.21789" lon="-3.14704">
        <ele>222</ele>
        <time>2020-10-19T13:33:36.000Z</time>
      </trkpt>
      <trkpt lat="48.21789" lon="-3.14702">
        <ele>222.19999694824</ele>
        <time>2020-10-19T13:33:37.000Z</time>
      </trkpt>
      <trkpt lat="48.21789" lon="-3.14701">
        <ele>222.39999389648</ele>
        <time>2020-10-19T13:33:38.000Z</time>
      </trkpt>
      <trkpt lat="48.21789" lon="-3.14699">
        <ele>222.39999389648</ele>
        <time>2020-10-19T13:33:39.000Z</time>
      </trkpt>
      <trkpt lat="48.2179" lon="-3.14698">
        <ele>222.60000610352</ele>
        <time>2020-10-19T13:33:40.000Z</time>
      </trkpt>
      <trkpt lat="48.2179" lon="-3.14696">
        <ele>222.80000305176</ele>
        <time>2020-10-19T13:33:41.000Z</time>
      </trkpt>
      <trkpt lat="48.2179" lon="-3.14695">
        <ele>222.80000305176</ele>
        <time>2020-10-19T13:33:42.000Z</time>
      </trkpt>
      <trkpt lat="48.2179" lon="-3.14693">
        <ele>222.80000305176</ele>
        <time>2020-10-19T13:33:43.000Z</time>
      </trkpt>
      <trkpt lat="48.2179" lon="-3.14692">
        <ele>223</ele>
        <time>2020-10-19T13:33:44.000Z</time>
      </trkpt>
      <trkpt lat="48.21789" lon="-3.1469">
        <ele>223</ele>
        <time>2020-10-19T13:33:45.000Z</time>
      </trkpt>
      <trkpt lat="48.2179" lon="-3.14689">
        <ele>223</ele>
        <time>2020-10-19T13:33:46.000Z</time>
      </trkpt>
      <trkpt lat="48.2179" lon="-3.14687">
        <ele>223.19999694824</ele>
        <time>2020-10-19T13:33:47.000Z</time>
      </trkpt>
      <trkpt lat="48.2179" lon="-3.14686">
        <ele>223.19999694824</ele>
        <time>2020-10-19T13:33:48.000Z</time>
      </trkpt>
      <trkpt lat="48.2179" lon="-3.14685">
        <ele>223.39999389648</ele>
        <time>2020-10-19T13:33:49.000Z</time>
      </trkpt>
      <trkpt lat="48.2179" lon="-3.14683">
        <ele>223.39999389648</ele>
        <time>2020-10-19T13:33:50.000Z</time>
      </trkpt>
      <trkpt lat="48.2179" lon="-3.14682">
        <ele>223.60000610352</ele>
        <time>2020-10-19T13:33:51.000Z</time>
      </trkpt>
      <trkpt lat="48.21791" lon="-3.1468">
        <ele>223.80000305176</ele>
        <time>2020-10-19T13:33:52.000Z</time>
      </trkpt>
      <trkpt lat="48.21791" lon="-3.14679">
        <ele>224</ele>
        <time>2020-10-19T13:33:53.000Z</time>
      </trkpt>
      <trkpt lat="48.21791" lon="-3.14678">
        <ele>224</ele>
        <time>2020-10-19T13:33:54.000Z</time>
      </trkpt>
      <trkpt lat="48.21792" lon="-3.14676">
        <ele>224.19999694824</ele>
        <time>2020-10-19T13:33:55.000Z</time>
      </trkpt>
      <trkpt lat="48.21792" lon="-3.14675">
        <ele>224.19999694824</ele>
        <time>2020-10-19T13:33:56.000Z</time>
      </trkpt>
      <trkpt lat="48.21792" lon="-3.14673">
        <ele>224.39999389648</ele>
        <time>2020-10-19T13:33:57.000Z</time>
      </trkpt>
      <trkpt lat="48.21792" lon="-3.14673">
        <ele>224.39999389648</ele>
        <time>2020-10-19T13:33:58.000Z</time>
      </trkpt>
      <trkpt lat="48.21792" lon="-3.14671">
        <ele>224.39999389648</ele>
        <time>2020-10-19T13:33:59.000Z</time>
      </trkpt>
      <trkpt lat="48.21793" lon="-3.1467">
        <ele>224.39999389648</ele>
        <time>2020-10-19T13:34:00.000Z</time>
      </trkpt>
      <trkpt lat="48.21793" lon="-3.14669">
        <ele>224.39999389648</ele>
        <time>2020-10-19T13:34:01.000Z</time>
      </trkpt>
      <trkpt lat="48.21793" lon="-3.14668">
        <ele>224.60000610352</ele>
        <time>2020-10-19T13:34:02.000Z</time>
      </trkpt>
      <trkpt lat="48.21794" lon="-3.14667">
        <ele>224.60000610352</ele>
        <time>2020-10-19T13:34:03.000Z</time>
      </trkpt>
      <trkpt lat="48.21794" lon="-3.14666">
        <ele>225</ele>
        <time>2020-10-19T13:34:04.000Z</time>
      </trkpt>
      <trkpt lat="48.21795" lon="-3.14666">
        <ele>225</ele>
        <time>2020-10-19T13:34:05.000Z</time>
      </trkpt>
      <trkpt lat="48.21795" lon="-3.14665">
        <ele>225.19999694824</ele>
        <time>2020-10-19T13:34:06.000Z</time>
      </trkpt>
      <trkpt lat="48.21796" lon="-3.14665">
        <ele>225.39999389648</ele>
        <time>2020-10-19T13:34:07.000Z</time>
      </trkpt>
      <trkpt lat="48.21797" lon="-3.14664">
        <ele>225.60000610352</ele>
        <time>2020-10-19T13:34:08.000Z</time>
      </trkpt>
      <trkpt lat="48.21798" lon="-3.14663">
        <ele>225.80000305176</ele>
        <time>2020-10-19T13:34:09.000Z</time>
      </trkpt>
      <trkpt lat="48.21798" lon="-3.14662">
        <ele>226</ele>
        <time>2020-10-19T13:34:10.000Z</time>
      </trkpt>
      <trkpt lat="48.21798" lon="-3.14662">
        <ele>226</ele>
        <time>2020-10-19T13:34:11.000Z</time>
      </trkpt>
      <trkpt lat="48.21799" lon="-3.14661">
        <ele>226.19999694824</ele>
        <time>2020-10-19T13:34:12.000Z</time>
      </trkpt>
      <trkpt lat="48.21799" lon="-3.1466">
        <ele>226.19999694824</ele>
        <time>2020-10-19T13:34:13.000Z</time>
      </trkpt>
      <trkpt lat="48.21799" lon="-3.14659">
        <ele>226.19999694824</ele>
        <time>2020-10-19T13:34:14.000Z</time>
      </trkpt>
      <trkpt lat="48.218" lon="-3.14658">
        <ele>226.39999389648</ele>
        <time>2020-10-19T13:34:15.000Z</time>
      </trkpt>
      <trkpt lat="48.218" lon="-3.14657">
        <ele>226.39999389648</ele>
        <time>2020-10-19T13:34:16.000Z</time>
      </trkpt>
      <trkpt lat="48.218" lon="-3.14655">
        <ele>226.60000610352</ele>
        <time>2020-10-19T13:34:17.000Z</time>
      </trkpt>
      <trkpt lat="48.218" lon="-3.14654">
        <ele>226.60000610352</ele>
        <time>2020-10-19T13:34:18.000Z</time>
      </trkpt>
      <trkpt lat="48.21801" lon="-3.14653">
        <ele>226.60000610352</ele>
        <time>2020-10-19T13:34:19.000Z</time>
      </trkpt>
      <trkpt lat="48.21801" lon="-3.14652">
        <ele>226.80000305176</ele>
        <time>2020-10-19T13:34:20.000Z</time>
      </trkpt>
      <trkpt lat="48.21801" lon="-3.1465">
        <ele>226.80000305176</ele>
        <time>2020-10-19T13:34:21.000Z</time>
      </trkpt>
      <trkpt lat="48.21802" lon="-3.14649">
        <ele>227</ele>
        <time>2020-10-19T13:34:22.000Z</time>
      </trkpt>
      <trkpt lat="48.21802" lon="-3.14648">
        <ele>227</ele>
        <time>2020-10-19T13:34:23.000Z</time>
      </trkpt>
      <trkpt lat="48.21802" lon="-3.14647">
        <ele>227.19999694824</ele>
        <time>2020-10-19T13:34:24.000Z</time>
      </trkpt>
      <trkpt lat="48.21803" lon="-3.14646">
        <ele>227.39999389648</ele>
        <time>2020-10-19T13:34:25.000Z</time>
      </trkpt>
      <trkpt lat="48.21804" lon="-3.14645">
        <ele>227.60000610352</ele>
        <time>2020-10-19T13:34:26.000Z</time>
      </trkpt>
      <trkpt lat="48.21804" lon="-3.14643">
        <ele>227.60000610352</ele>
        <time>2020-10-19T13:34:27.000Z</time>
      </trkpt>
      <trkpt lat="48.21804" lon="-3.14642">
        <ele>227.60000610352</ele>
        <time>2020-10-19T13:34:28.000Z</time>
      </trkpt>
      <trkpt lat="48.21805" lon="-3.14641">
        <ele>227.80000305176</ele>
        <time>2020-10-19T13:34:29.000Z</time>
      </trkpt>
      <trkpt lat="48.21805" lon="-3.1464">
        <ele>227.80000305176</ele>
        <time>2020-10-19T13:34:30.000Z</time>
      </trkpt>
      <trkpt lat="48.21805" lon="-3.14638">
        <ele>227.80000305176</ele>
        <time>2020-10-19T13:34:31.000Z</time>
      </trkpt>
      <trkpt lat="48.21805" lon="-3.14637">
        <ele>228</ele>
        <time>2020-10-19T13:34:32.000Z</time>
      </trkpt>
      <trkpt lat="48.21805" lon="-3.14636">
        <ele>228</ele>
        <time>2020-10-19T13:34:33.000Z</time>
      </trkpt>
      <trkpt lat="48.21805" lon="-3.14634">
        <ele>228</ele>
        <time>2020-10-19T13:34:34.000Z</time>
      </trkpt>
      <trkpt lat="48.21805" lon="-3.14633">
        <ele>227.80000305176</ele>
        <time>2020-10-19T13:34:35.000Z</time>
      </trkpt>
      <trkpt lat="48.21805" lon="-3.14631">
        <ele>227.80000305176</ele>
        <time>2020-10-19T13:34:36.000Z</time>
      </trkpt>
      <trkpt lat="48.21805" lon="-3.1463">
        <ele>227.80000305176</ele>
        <time>2020-10-19T13:34:37.000Z</time>
      </trkpt>
      <trkpt lat="48.21805" lon="-3.14629">
        <ele>227.80000305176</ele>
        <time>2020-10-19T13:34:38.000Z</time>
      </trkpt>
      <trkpt lat="48.21805" lon="-3.14627">
        <ele>227.80000305176</ele>
        <time>2020-10-19T13:34:39.000Z</time>
      </trkpt>
      <trkpt lat="48.21805" lon="-3.14626">
        <ele>227.80000305176</ele>
        <time>2020-10-19T13:34:40.000Z</time>
      </trkpt>
      <trkpt lat="48.21805" lon="-3.14624">
        <ele>227.80000305176</ele>
        <time>2020-10-19T13:34:41.000Z</time>
      </trkpt>
      <trkpt lat="48.21805" lon="-3.14623">
        <ele>227.80000305176</ele>
        <time>2020-10-19T13:34:42.000Z</time>
      </trkpt>
      <trkpt lat="48.21805" lon="-3.14622">
        <ele>227.80000305176</ele>
        <time>2020-10-19T13:34:43.000Z</time>
      </trkpt>
      <trkpt lat="48.21806" lon="-3.1462">
        <ele>227.60000610352</ele>
        <time>2020-10-19T13:34:44.000Z</time>
      </trkpt>
      <trkpt lat="48.21805" lon="-3.14619">
        <ele>227.60000610352</ele>
        <time>2020-10-19T13:34:45.000Z</time>
      </trkpt>
      <trkpt lat="48.21805" lon="-3.14618">
        <ele>227.60000610352</ele>
        <time>2020-10-19T13:34:46.000Z</time>
      </trkpt>
      <trkpt lat="48.21805" lon="-3.14617">
        <ele>227.60000610352</ele>
        <time>2020-10-19T13:34:47.000Z</time>
      </trkpt>
      <trkpt lat="48.21805" lon="-3.14615">
        <ele>227.39999389648</ele>
        <time>2020-10-19T13:34:48.000Z</time>
      </trkpt>
      <trkpt lat="48.21804" lon="-3.14614">
        <ele>227.19999694824</ele>
        <time>2020-10-19T13:34:49.000Z</time>
      </trkpt>
      <trkpt lat="48.21804" lon="-3.14613">
        <ele>227</ele>
        <time>2020-10-19T13:34:50.000Z</time>
      </trkpt>
      <trkpt lat="48.21803" lon="-3.14612">
        <ele>226.80000305176</ele>
        <time>2020-10-19T13:34:51.000Z</time>
      </trkpt>
      <trkpt lat="48.21803" lon="-3.14611">
        <ele>226.60000610352</ele>
        <time>2020-10-19T13:34:52.000Z</time>
      </trkpt>
      <trkpt lat="48.21802" lon="-3.14611">
        <ele>226.39999389648</ele>
        <time>2020-10-19T13:34:53.000Z</time>
      </trkpt>
      <trkpt lat="48.21802" lon="-3.1461">
        <ele>226.19999694824</ele>
        <time>2020-10-19T13:34:54.000Z</time>
      </trkpt>
      <trkpt lat="48.21801" lon="-3.1461">
        <ele>226.19999694824</ele>
        <time>2020-10-19T13:34:55.000Z</time>
      </trkpt>
      <trkpt lat="48.21801" lon="-3.1461">
        <ele>226</ele>
        <time>2020-10-19T13:34:56.000Z</time>
      </trkpt>
      <trkpt lat="48.218" lon="-3.1461">
        <ele>226</ele>
        <time>2020-10-19T13:34:57.000Z</time>
      </trkpt>
      <trkpt lat="48.218" lon="-3.1461">
        <ele>225.80000305176</ele>
        <time>2020-10-19T13:34:58.000Z</time>
      </trkpt>
      <trkpt lat="48.218" lon="-3.1461">
        <ele>225.80000305176</ele>
        <time>2020-10-19T13:34:59.000Z</time>
      </trkpt>
      <trkpt lat="48.218" lon="-3.1461">
        <ele>225.60000610352</ele>
        <time>2020-10-19T13:35:00.000Z</time>
      </trkpt>
      <trkpt lat="48.218" lon="-3.1461">
        <ele>225.60000610352</ele>
        <time>2020-10-19T13:35:01.000Z</time>
      </trkpt>
      <trkpt lat="48.21799" lon="-3.1461">
        <ele>225.60000610352</ele>
        <time>2020-10-19T13:35:02.000Z</time>
      </trkpt>
      <trkpt lat="48.21799" lon="-3.1461">
        <ele>225.60000610352</ele>
        <time>2020-10-19T13:35:03.000Z</time>
      </trkpt>
      <trkpt lat="48.21799" lon="-3.1461">
        <ele>225.60000610352</ele>
        <time>2020-10-19T13:35:04.000Z</time>
      </trkpt>
      <trkpt lat="48.21799" lon="-3.1461">
        <ele>225.60000610352</ele>
        <time>2020-10-19T13:35:05.000Z</time>
      </trkpt>
      <trkpt lat="48.21799" lon="-3.14609">
        <ele>225.39999389648</ele>
        <time>2020-10-19T13:35:06.000Z</time>
      </trkpt>
      <trkpt lat="48.21799" lon="-3.14609">
        <ele>225.60000610352</ele>
        <time>2020-10-19T13:35:07.000Z</time>
      </trkpt>
      <trkpt lat="48.21799" lon="-3.14609">
        <ele>225.60000610352</ele>
        <time>2020-10-19T13:35:08.000Z</time>
      </trkpt>
      <trkpt lat="48.21799" lon="-3.14609">
        <ele>225.60000610352</ele>
        <time>2020-10-19T13:35:09.000Z</time>
      </trkpt>
      <trkpt lat="48.21799" lon="-3.14609">
        <ele>225.60000610352</ele>
        <time>2020-10-19T13:35:10.000Z</time>
      </trkpt>
      <trkpt lat="48.21799" lon="-3.14609">
        <ele>225.60000610352</ele>
        <time>2020-10-19T13:35:11.000Z</time>
      </trkpt>
      <trkpt lat="48.21799" lon="-3.14609">
        <ele>225.60000610352</ele>
        <time>2020-10-19T13:35:12.000Z</time>
      </trkpt>
      <trkpt lat="48.21799" lon="-3.14609">
        <ele>225.60000610352</ele>
        <time>2020-10-19T13:35:13.000Z</time>
      </trkpt>
      <trkpt lat="48.21799" lon="-3.14609">
        <ele>225.60000610352</ele>
        <time>2020-10-19T13:35:14.000Z</time>
      </trkpt>
      <trkpt lat="48.21799" lon="-3.14609">
        <ele>225.60000610352</ele>
        <time>2020-10-19T13:35:15.000Z</time>
      </trkpt>
      <trkpt lat="48.21799" lon="-3.14609">
        <ele>225.60000610352</ele>
        <time>2020-10-19T13:35:16.000Z</time>
      </trkpt>
      <trkpt lat="48.21799" lon="-3.14609">
        <ele>225.60000610352</ele>
        <time>2020-10-19T13:35:17.000Z</time>
      </trkpt>
      <trkpt lat="48.21799" lon="-3.14609">
        <ele>225.60000610352</ele>
        <time>2020-10-19T13:35:18.000Z</time>
      </trkpt>
      <trkpt lat="48.21799" lon="-3.14609">
        <ele>225.60000610352</ele>
        <time>2020-10-19T13:35:19.000Z</time>
      </trkpt>
      <trkpt lat="48.21799" lon="-3.14609">
        <ele>225.60000610352</ele>
        <time>2020-10-19T13:35:20.000Z</time>
      </trkpt>
      <trkpt lat="48.21799" lon="-3.14609">
        <ele>225.60000610352</ele>
        <time>2020-10-19T13:35:21.000Z</time>
      </trkpt>
      <trkpt lat="48.21799" lon="-3.14609">
        <ele>225.60000610352</ele>
        <time>2020-10-19T13:35:22.000Z</time>
      </trkpt>
      <trkpt lat="48.21799" lon="-3.14609">
        <ele>225.60000610352</ele>
        <time>2020-10-19T13:35:23.000Z</time>
      </trkpt>
      <trkpt lat="48.21799" lon="-3.14609">
        <ele>225.60000610352</ele>
        <time>2020-10-19T13:35:24.000Z</time>
      </trkpt>
      <trkpt lat="48.21799" lon="-3.14609">
        <ele>225.60000610352</ele>
        <time>2020-10-19T13:35:25.000Z</time>
      </trkpt>
      <trkpt lat="48.21799" lon="-3.14609">
        <ele>225.60000610352</ele>
        <time>2020-10-19T13:35:26.000Z</time>
      </trkpt>
      <trkpt lat="48.21799" lon="-3.14609">
        <ele>225.60000610352</ele>
        <time>2020-10-19T13:35:27.000Z</time>
      </trkpt>
      <trkpt lat="48.21799" lon="-3.14609">
        <ele>225.60000610352</ele>
        <time>2020-10-19T13:35:28.000Z</time>
      </trkpt>
      <trkpt lat="48.21799" lon="-3.14609">
        <ele>225.60000610352</ele>
        <time>2020-10-19T13:35:29.000Z</time>
      </trkpt>
      <trkpt lat="48.21799" lon="-3.14609">
        <ele>225.60000610352</ele>
        <time>2020-10-19T13:35:30.000Z</time>
      </trkpt>
      <trkpt lat="48.21799" lon="-3.14609">
        <ele>225.60000610352</ele>
        <time>2020-10-19T13:35:31.000Z</time>
      </trkpt>
      <trkpt lat="48.21799" lon="-3.14609">
        <ele>225.60000610352</ele>
        <time>2020-10-19T13:35:32.000Z</time>
      </trkpt>
      <trkpt lat="48.21799" lon="-3.14609">
        <ele>225.60000610352</ele>
        <time>2020-10-19T13:35:33.000Z</time>
      </trkpt>
      <trkpt lat="48.21799" lon="-3.14609">
        <ele>225.60000610352</ele>
        <time>2020-10-19T13:35:34.000Z</time>
      </trkpt>
      <trkpt lat="48.21799" lon="-3.14609">
        <ele>225.60000610352</ele>
        <time>2020-10-19T13:35:35.000Z</time>
      </trkpt>
      <trkpt lat="48.21799" lon="-3.14609">
        <ele>225.60000610352</ele>
        <time>2020-10-19T13:35:36.000Z</time>
      </trkpt>
      <trkpt lat="48.21799" lon="-3.14609">
        <ele>225.60000610352</ele>
        <time>2020-10-19T13:35:37.000Z</time>
      </trkpt>
      <trkpt lat="48.21799" lon="-3.14609">
        <ele>225.60000610352</ele>
        <time>2020-10-19T13:35:38.000Z</time>
      </trkpt>
      <trkpt lat="48.21799" lon="-3.14609">
        <ele>225.60000610352</ele>
        <time>2020-10-19T13:35:39.000Z</time>
      </trkpt>
      <trkpt lat="48.21799" lon="-3.14609">
        <ele>225.60000610352</ele>
        <time>2020-10-19T13:35:40.000Z</time>
      </trkpt>
      <trkpt lat="48.21799" lon="-3.14609">
        <ele>225.60000610352</ele>
        <time>2020-10-19T13:35:41.000Z</time>
      </trkpt>
      <trkpt lat="48.21799" lon="-3.14609">
        <ele>225.60000610352</ele>
        <time>2020-10-19T13:35:42.000Z</time>
      </trkpt>
      <trkpt lat="48.21799" lon="-3.14609">
        <ele>225.60000610352</ele>
        <time>2020-10-19T13:35:43.000Z</time>
      </trkpt>
      <trkpt lat="48.21799" lon="-3.14609">
        <ele>225.60000610352</ele>
        <time>2020-10-19T13:35:44.000Z</time>
      </trkpt>
      <trkpt lat="48.21799" lon="-3.14609">
        <ele>225.60000610352</ele>
        <time>2020-10-19T13:35:45.000Z</time>
      </trkpt>
      <trkpt lat="48.21799" lon="-3.14609">
        <ele>225.60000610352</ele>
        <time>2020-10-19T13:35:46.000Z</time>
      </trkpt>
      <trkpt lat="48.21799" lon="-3.14609">
        <ele>225.60000610352</ele>
        <time>2020-10-19T13:35:47.000Z</time>
      </trkpt>
      <trkpt lat="48.21799" lon="-3.14608">
        <ele>225.60000610352</ele>
        <time>2020-10-19T13:35:48.000Z</time>
      </trkpt>
      <trkpt lat="48.21799" lon="-3.14608">
        <ele>225.60000610352</ele>
        <time>2020-10-19T13:35:49.000Z</time>
      </trkpt>
      <trkpt lat="48.21799" lon="-3.14608">
        <ele>225.39999389648</ele>
        <time>2020-10-19T13:35:50.000Z</time>
      </trkpt>
      <trkpt lat="48.21799" lon="-3.14608">
        <ele>225.60000610352</ele>
        <time>2020-10-19T13:35:51.000Z</time>
      </trkpt>
      <trkpt lat="48.21799" lon="-3.14608">
        <ele>225.60000610352</ele>
        <time>2020-10-19T13:35:52.000Z</time>
      </trkpt>
      <trkpt lat="48.21799" lon="-3.14608">
        <ele>225.60000610352</ele>
        <time>2020-10-19T13:35:53.000Z</time>
      </trkpt>
      <trkpt lat="48.21799" lon="-3.14608">
        <ele>225.60000610352</ele>
        <time>2020-10-19T13:35:54.000Z</time>
      </trkpt>
      <trkpt lat="48.21799" lon="-3.14608">
        <ele>225.60000610352</ele>
        <time>2020-10-19T13:35:55.000Z</time>
      </trkpt>
      <trkpt lat="48.21799" lon="-3.14608">
        <ele>225.60000610352</ele>
        <time>2020-10-19T13:35:56.000Z</time>
      </trkpt>
      <trkpt lat="48.21799" lon="-3.14608">
        <ele>225.60000610352</ele>
        <time>2020-10-19T13:35:57.000Z</time>
      </trkpt>
      <trkpt lat="48.218" lon="-3.14608">
        <ele>225.60000610352</ele>
        <time>2020-10-19T13:35:58.000Z</time>
      </trkpt>
      <trkpt lat="48.218" lon="-3.14608">
        <ele>225.60000610352</ele>
        <time>2020-10-19T13:35:59.000Z</time>
      </trkpt>
      <trkpt lat="48.218" lon="-3.14608">
        <ele>225.60000610352</ele>
        <time>2020-10-19T13:36:00.000Z</time>
      </trkpt>
      <trkpt lat="48.218" lon="-3.14608">
        <ele>225.60000610352</ele>
        <time>2020-10-19T13:36:01.000Z</time>
      </trkpt>
      <trkpt lat="48.218" lon="-3.14607">
        <ele>225.60000610352</ele>
        <time>2020-10-19T13:36:02.000Z</time>
      </trkpt>
      <trkpt lat="48.218" lon="-3.14607">
        <ele>225.60000610352</ele>
        <time>2020-10-19T13:36:03.000Z</time>
      </trkpt>
      <trkpt lat="48.218" lon="-3.14606">
        <ele>225.60000610352</ele>
        <time>2020-10-19T13:36:04.000Z</time>
      </trkpt>
      <trkpt lat="48.218" lon="-3.14605">
        <ele>225.60000610352</ele>
        <time>2020-10-19T13:36:05.000Z</time>
      </trkpt>
      <trkpt lat="48.218" lon="-3.14603">
        <ele>225.60000610352</ele>
        <time>2020-10-19T13:36:06.000Z</time>
      </trkpt>
      <trkpt lat="48.218" lon="-3.14602">
        <ele>225.60000610352</ele>
        <time>2020-10-19T13:36:07.000Z</time>
      </trkpt>
      <trkpt lat="48.218" lon="-3.14599">
        <ele>225.60000610352</ele>
        <time>2020-10-19T13:36:08.000Z</time>
      </trkpt>
      <trkpt lat="48.218" lon="-3.14599">
        <ele>225.60000610352</ele>
        <time>2020-10-19T13:36:09.000Z</time>
      </trkpt>
      <trkpt lat="48.218" lon="-3.14597">
        <ele>225.60000610352</ele>
        <time>2020-10-19T13:36:10.000Z</time>
      </trkpt>
      <trkpt lat="48.21801" lon="-3.14596">
        <ele>225.60000610352</ele>
        <time>2020-10-19T13:36:11.000Z</time>
      </trkpt>
      <trkpt lat="48.21801" lon="-3.14595">
        <ele>225.80000305176</ele>
        <time>2020-10-19T13:36:12.000Z</time>
      </trkpt>
      <trkpt lat="48.21802" lon="-3.14594">
        <ele>225.80000305176</ele>
        <time>2020-10-19T13:36:13.000Z</time>
      </trkpt>
      <trkpt lat="48.21802" lon="-3.14592">
        <ele>226</ele>
        <time>2020-10-19T13:36:14.000Z</time>
      </trkpt>
      <trkpt lat="48.21802" lon="-3.14591">
        <ele>226</ele>
        <time>2020-10-19T13:36:15.000Z</time>
      </trkpt>
      <trkpt lat="48.21803" lon="-3.1459">
        <ele>226</ele>
        <time>2020-10-19T13:36:16.000Z</time>
      </trkpt>
      <trkpt lat="48.21803" lon="-3.14589">
        <ele>226.19999694824</ele>
        <time>2020-10-19T13:36:17.000Z</time>
      </trkpt>
      <trkpt lat="48.21804" lon="-3.14588">
        <ele>226.39999389648</ele>
        <time>2020-10-19T13:36:18.000Z</time>
      </trkpt>
      <trkpt lat="48.21805" lon="-3.14587">
        <ele>226.60000610352</ele>
        <time>2020-10-19T13:36:19.000Z</time>
      </trkpt>
      <trkpt lat="48.21805" lon="-3.14585">
        <ele>226.80000305176</ele>
        <time>2020-10-19T13:36:20.000Z</time>
      </trkpt>
      <trkpt lat="48.21806" lon="-3.14584">
        <ele>226.80000305176</ele>
        <time>2020-10-19T13:36:21.000Z</time>
      </trkpt>
      <trkpt lat="48.21807" lon="-3.14583">
        <ele>227</ele>
        <time>2020-10-19T13:36:22.000Z</time>
      </trkpt>
      <trkpt lat="48.21808" lon="-3.14582">
        <ele>227.19999694824</ele>
        <time>2020-10-19T13:36:23.000Z</time>
      </trkpt>
      <trkpt lat="48.21808" lon="-3.14581">
        <ele>227.39999389648</ele>
        <time>2020-10-19T13:36:24.000Z</time>
      </trkpt>
      <trkpt lat="48.21808" lon="-3.1458">
        <ele>227.39999389648</ele>
        <time>2020-10-19T13:36:25.000Z</time>
      </trkpt>
      <trkpt lat="48.21809" lon="-3.14579">
        <ele>227.39999389648</ele>
        <time>2020-10-19T13:36:26.000Z</time>
      </trkpt>
      <trkpt lat="48.21809" lon="-3.14578">
        <ele>227.60000610352</ele>
        <time>2020-10-19T13:36:27.000Z</time>
      </trkpt>
      <trkpt lat="48.21809" lon="-3.14577">
        <ele>227.60000610352</ele>
        <time>2020-10-19T13:36:28.000Z</time>
      </trkpt>
      <trkpt lat="48.21809" lon="-3.14575">
        <ele>227.39999389648</ele>
        <time>2020-10-19T13:36:29.000Z</time>
      </trkpt>
      <trkpt lat="48.21809" lon="-3.14574">
        <ele>227.39999389648</ele>
        <time>2020-10-19T13:36:30.000Z</time>
      </trkpt>
      <trkpt lat="48.2181" lon="-3.14573">
        <ele>227.60000610352</ele>
        <time>2020-10-19T13:36:31.000Z</time>
      </trkpt>
      <trkpt lat="48.2181" lon="-3.14571">
        <ele>227.39999389648</ele>
        <time>2020-10-19T13:36:32.000Z</time>
      </trkpt>
      <trkpt lat="48.2181" lon="-3.14569">
        <ele>227.39999389648</ele>
        <time>2020-10-19T13:36:33.000Z</time>
      </trkpt>
      <trkpt lat="48.2181" lon="-3.14568">
        <ele>227.39999389648</ele>
        <time>2020-10-19T13:36:34.000Z</time>
      </trkpt>
      <trkpt lat="48.2181" lon="-3.14566">
        <ele>227.39999389648</ele>
        <time>2020-10-19T13:36:35.000Z</time>
      </trkpt>
      <trkpt lat="48.2181" lon="-3.14564">
        <ele>227.19999694824</ele>
        <time>2020-10-19T13:36:36.000Z</time>
      </trkpt>
      <trkpt lat="48.2181" lon="-3.14562">
        <ele>227.19999694824</ele>
        <time>2020-10-19T13:36:37.000Z</time>
      </trkpt>
      <trkpt lat="48.2181" lon="-3.1456">
        <ele>227.19999694824</ele>
        <time>2020-10-19T13:36:38.000Z</time>
      </trkpt>
      <trkpt lat="48.2181" lon="-3.14559">
        <ele>227</ele>
        <time>2020-10-19T13:36:39.000Z</time>
      </trkpt>
      <trkpt lat="48.2181" lon="-3.14557">
        <ele>227</ele>
        <time>2020-10-19T13:36:40.000Z</time>
      </trkpt>
      <trkpt lat="48.2181" lon="-3.14554">
        <ele>227</ele>
        <time>2020-10-19T13:36:41.000Z</time>
      </trkpt>
      <trkpt lat="48.2181" lon="-3.14554">
        <ele>227</ele>
        <time>2020-10-19T13:36:42.000Z</time>
      </trkpt>
      <trkpt lat="48.2181" lon="-3.14552">
        <ele>227</ele>
        <time>2020-10-19T13:36:43.000Z</time>
      </trkpt>
      <trkpt lat="48.2181" lon="-3.1455">
        <ele>227</ele>
        <time>2020-10-19T13:36:44.000Z</time>
      </trkpt>
      <trkpt lat="48.2181" lon="-3.14549">
        <ele>226.80000305176</ele>
        <time>2020-10-19T13:36:45.000Z</time>
      </trkpt>
      <trkpt lat="48.21811" lon="-3.14547">
        <ele>227</ele>
        <time>2020-10-19T13:36:46.000Z</time>
      </trkpt>
      <trkpt lat="48.21811" lon="-3.14546">
        <ele>227</ele>
        <time>2020-10-19T13:36:47.000Z</time>
      </trkpt>
      <trkpt lat="48.21812" lon="-3.14545">
        <ele>227.19999694824</ele>
        <time>2020-10-19T13:36:48.000Z</time>
      </trkpt>
      <trkpt lat="48.21812" lon="-3.14544">
        <ele>227.39999389648</ele>
        <time>2020-10-19T13:36:49.000Z</time>
      </trkpt>
      <trkpt lat="48.21812" lon="-3.14543">
        <ele>227.39999389648</ele>
        <time>2020-10-19T13:36:50.000Z</time>
      </trkpt>
      <trkpt lat="48.21812" lon="-3.14542">
        <ele>227.19999694824</ele>
        <time>2020-10-19T13:36:51.000Z</time>
      </trkpt>
      <trkpt lat="48.21812" lon="-3.14541">
        <ele>227.19999694824</ele>
        <time>2020-10-19T13:36:52.000Z</time>
      </trkpt>
      <trkpt lat="48.21812" lon="-3.1454">
        <ele>227</ele>
        <time>2020-10-19T13:36:53.000Z</time>
      </trkpt>
      <trkpt lat="48.21811" lon="-3.14539">
        <ele>226.80000305176</ele>
        <time>2020-10-19T13:36:54.000Z</time>
      </trkpt>
      <trkpt lat="48.21811" lon="-3.14538">
        <ele>226.60000610352</ele>
        <time>2020-10-19T13:36:55.000Z</time>
      </trkpt>
      <trkpt lat="48.2181" lon="-3.14537">
        <ele>226.39999389648</ele>
        <time>2020-10-19T13:36:56.000Z</time>
      </trkpt>
      <trkpt lat="48.2181" lon="-3.14536">
        <ele>226.19999694824</ele>
        <time>2020-10-19T13:36:57.000Z</time>
      </trkpt>
      <trkpt lat="48.21809" lon="-3.14535">
        <ele>226</ele>
        <time>2020-10-19T13:36:58.000Z</time>
      </trkpt>
      <trkpt lat="48.21809" lon="-3.14534">
        <ele>225.60000610352</ele>
        <time>2020-10-19T13:36:59.000Z</time>
      </trkpt>
      <trkpt lat="48.21808" lon="-3.14533">
        <ele>225.39999389648</ele>
        <time>2020-10-19T13:37:00.000Z</time>
      </trkpt>
      <trkpt lat="48.21808" lon="-3.14532">
        <ele>225.19999694824</ele>
        <time>2020-10-19T13:37:01.000Z</time>
      </trkpt>
      <trkpt lat="48.21807" lon="-3.14531">
        <ele>225</ele>
        <time>2020-10-19T13:37:02.000Z</time>
      </trkpt>
      <trkpt lat="48.21807" lon="-3.14529">
        <ele>224.80000305176</ele>
        <time>2020-10-19T13:37:03.000Z</time>
      </trkpt>
      <trkpt lat="48.21806" lon="-3.14528">
        <ele>224.60000610352</ele>
        <time>2020-10-19T13:37:04.000Z</time>
      </trkpt>
      <trkpt lat="48.21806" lon="-3.14526">
        <ele>224.39999389648</ele>
        <time>2020-10-19T13:37:05.000Z</time>
      </trkpt>
      <trkpt lat="48.21805" lon="-3.14525">
        <ele>224.19999694824</ele>
        <time>2020-10-19T13:37:06.000Z</time>
      </trkpt>
      <trkpt lat="48.21805" lon="-3.14524">
        <ele>224</ele>
        <time>2020-10-19T13:37:07.000Z</time>
      </trkpt>
      <trkpt lat="48.21804" lon="-3.14522">
        <ele>223.80000305176</ele>
        <time>2020-10-19T13:37:08.000Z</time>
      </trkpt>
      <trkpt lat="48.21804" lon="-3.14521">
        <ele>223.39999389648</ele>
        <time>2020-10-19T13:37:09.000Z</time>
      </trkpt>
      <trkpt lat="48.21803" lon="-3.14519">
        <ele>223.19999694824</ele>
        <time>2020-10-19T13:37:10.000Z</time>
      </trkpt>
      <trkpt lat="48.21803" lon="-3.14518">
        <ele>223</ele>
        <time>2020-10-19T13:37:11.000Z</time>
      </trkpt>
      <trkpt lat="48.21803" lon="-3.14516">
        <ele>222.80000305176</ele>
        <time>2020-10-19T13:37:12.000Z</time>
      </trkpt>
      <trkpt lat="48.21802" lon="-3.14514">
        <ele>222.60000610352</ele>
        <time>2020-10-19T13:37:13.000Z</time>
      </trkpt>
      <trkpt lat="48.21802" lon="-3.14513">
        <ele>222.60000610352</ele>
        <time>2020-10-19T13:37:14.000Z</time>
      </trkpt>
      <trkpt lat="48.21801" lon="-3.14511">
        <ele>222.39999389648</ele>
        <time>2020-10-19T13:37:15.000Z</time>
      </trkpt>
      <trkpt lat="48.21801" lon="-3.14509">
        <ele>222.19999694824</ele>
        <time>2020-10-19T13:37:16.000Z</time>
      </trkpt>
      <trkpt lat="48.21801" lon="-3.14508">
        <ele>222</ele>
        <time>2020-10-19T13:37:17.000Z</time>
      </trkpt>
      <trkpt lat="48.218" lon="-3.14506">
        <ele>221.80000305176</ele>
        <time>2020-10-19T13:37:18.000Z</time>
      </trkpt>
      <trkpt lat="48.218" lon="-3.14504">
        <ele>221.60000610352</ele>
        <time>2020-10-19T13:37:19.000Z</time>
      </trkpt>
      <trkpt lat="48.21799" lon="-3.14503">
        <ele>221.39999389648</ele>
        <time>2020-10-19T13:37:20.000Z</time>
      </trkpt>
      <trkpt lat="48.21799" lon="-3.14501">
        <ele>221.19999694824</ele>
        <time>2020-10-19T13:37:21.000Z</time>
      </trkpt>
      <trkpt lat="48.21799" lon="-3.14499">
        <ele>221.19999694824</ele>
        <time>2020-10-19T13:37:22.000Z</time>
      </trkpt>
      <trkpt lat="48.21799" lon="-3.14497">
        <ele>221</ele>
        <time>2020-10-19T13:37:23.000Z</time>
      </trkpt>
      <trkpt lat="48.21799" lon="-3.14495">
        <ele>220.80000305176</ele>
        <time>2020-10-19T13:37:24.000Z</time>
      </trkpt>
      <trkpt lat="48.21798" lon="-3.14493">
        <ele>220.60000610352</ele>
        <time>2020-10-19T13:37:25.000Z</time>
      </trkpt>
      <trkpt lat="48.21798" lon="-3.14491">
        <ele>220.39999389648</ele>
        <time>2020-10-19T13:37:26.000Z</time>
      </trkpt>
      <trkpt lat="48.21798" lon="-3.14489">
        <ele>220.39999389648</ele>
        <time>2020-10-19T13:37:27.000Z</time>
      </trkpt>
      <trkpt lat="48.21798" lon="-3.14487">
        <ele>220.39999389648</ele>
        <time>2020-10-19T13:37:28.000Z</time>
      </trkpt>
      <trkpt lat="48.21798" lon="-3.14486">
        <ele>220.19999694824</ele>
        <time>2020-10-19T13:37:29.000Z</time>
      </trkpt>
      <trkpt lat="48.21797" lon="-3.14484">
        <ele>220</ele>
        <time>2020-10-19T13:37:30.000Z</time>
      </trkpt>
      <trkpt lat="48.21797" lon="-3.14483">
        <ele>220</ele>
        <time>2020-10-19T13:37:31.000Z</time>
      </trkpt>
      <trkpt lat="48.21797" lon="-3.14481">
        <ele>220</ele>
        <time>2020-10-19T13:37:32.000Z</time>
      </trkpt>
      <trkpt lat="48.21797" lon="-3.14479">
        <ele>219.80000305176</ele>
        <time>2020-10-19T13:37:33.000Z</time>
      </trkpt>
      <trkpt lat="48.21797" lon="-3.14478">
        <ele>219.80000305176</ele>
        <time>2020-10-19T13:37:34.000Z</time>
      </trkpt>
      <trkpt lat="48.21798" lon="-3.14477">
        <ele>220</ele>
        <time>2020-10-19T13:37:35.000Z</time>
      </trkpt>
      <trkpt lat="48.21798" lon="-3.14476">
        <ele>220</ele>
        <time>2020-10-19T13:37:36.000Z</time>
      </trkpt>
      <trkpt lat="48.21798" lon="-3.14475">
        <ele>220</ele>
        <time>2020-10-19T13:37:37.000Z</time>
      </trkpt>
      <trkpt lat="48.21799" lon="-3.14473">
        <ele>220</ele>
        <time>2020-10-19T13:37:38.000Z</time>
      </trkpt>
      <trkpt lat="48.21799" lon="-3.14472">
        <ele>220</ele>
        <time>2020-10-19T13:37:39.000Z</time>
      </trkpt>
      <trkpt lat="48.21799" lon="-3.1447">
        <ele>220</ele>
        <time>2020-10-19T13:37:40.000Z</time>
      </trkpt>
      <trkpt lat="48.21799" lon="-3.14468">
        <ele>219.80000305176</ele>
        <time>2020-10-19T13:37:41.000Z</time>
      </trkpt>
      <trkpt lat="48.21798" lon="-3.14467">
        <ele>219.80000305176</ele>
        <time>2020-10-19T13:37:42.000Z</time>
      </trkpt>
      <trkpt lat="48.21798" lon="-3.14465">
        <ele>219.60000610352</ele>
        <time>2020-10-19T13:37:43.000Z</time>
      </trkpt>
      <trkpt lat="48.21798" lon="-3.14463">
        <ele>219.39999389648</ele>
        <time>2020-10-19T13:37:44.000Z</time>
      </trkpt>
      <trkpt lat="48.21798" lon="-3.14462">
        <ele>219.19999694824</ele>
        <time>2020-10-19T13:37:45.000Z</time>
      </trkpt>
      <trkpt lat="48.21798" lon="-3.1446">
        <ele>219.19999694824</ele>
        <time>2020-10-19T13:37:46.000Z</time>
      </trkpt>
      <trkpt lat="48.21798" lon="-3.14458">
        <ele>219</ele>
        <time>2020-10-19T13:37:47.000Z</time>
      </trkpt>
      <trkpt lat="48.21798" lon="-3.14456">
        <ele>219</ele>
        <time>2020-10-19T13:37:48.000Z</time>
      </trkpt>
      <trkpt lat="48.21798" lon="-3.14455">
        <ele>219</ele>
        <time>2020-10-19T13:37:49.000Z</time>
      </trkpt>
      <trkpt lat="48.21798" lon="-3.14453">
        <ele>219</ele>
        <time>2020-10-19T13:37:50.000Z</time>
      </trkpt>
      <trkpt lat="48.21798" lon="-3.14451">
        <ele>218.80000305176</ele>
        <time>2020-10-19T13:37:51.000Z</time>
      </trkpt>
      <trkpt lat="48.21798" lon="-3.14449">
        <ele>218.80000305176</ele>
        <time>2020-10-19T13:37:52.000Z</time>
      </trkpt>
      <trkpt lat="48.21798" lon="-3.14447">
        <ele>218.60000610352</ele>
        <time>2020-10-19T13:37:53.000Z</time>
      </trkpt>
      <trkpt lat="48.21798" lon="-3.14446">
        <ele>218.39999389648</ele>
        <time>2020-10-19T13:37:54.000Z</time>
      </trkpt>
      <trkpt lat="48.21798" lon="-3.14444">
        <ele>218.39999389648</ele>
        <time>2020-10-19T13:37:55.000Z</time>
      </trkpt>
      <trkpt lat="48.21797" lon="-3.14443">
        <ele>218.19999694824</ele>
        <time>2020-10-19T13:37:56.000Z</time>
      </trkpt>
      <trkpt lat="48.21797" lon="-3.14439">
        <ele>218</ele>
        <time>2020-10-19T13:37:57.000Z</time>
      </trkpt>
      <trkpt lat="48.21797" lon="-3.14439">
        <ele>218</ele>
        <time>2020-10-19T13:37:58.000Z</time>
      </trkpt>
      <trkpt lat="48.21797" lon="-3.14438">
        <ele>218</ele>
        <time>2020-10-19T13:37:59.000Z</time>
      </trkpt>
      <trkpt lat="48.21798" lon="-3.14436">
        <ele>218</ele>
        <time>2020-10-19T13:38:00.000Z</time>
      </trkpt>
      <trkpt lat="48.21798" lon="-3.14435">
        <ele>218.19999694824</ele>
        <time>2020-10-19T13:38:01.000Z</time>
      </trkpt>
      <trkpt lat="48.21799" lon="-3.14433">
        <ele>218.39999389648</ele>
        <time>2020-10-19T13:38:02.000Z</time>
      </trkpt>
      <trkpt lat="48.218" lon="-3.14432">
        <ele>218.39999389648</ele>
        <time>2020-10-19T13:38:03.000Z</time>
      </trkpt>
      <trkpt lat="48.218" lon="-3.1443">
        <ele>218.39999389648</ele>
        <time>2020-10-19T13:38:04.000Z</time>
      </trkpt>
      <trkpt lat="48.218" lon="-3.14429">
        <ele>218.60000610352</ele>
        <time>2020-10-19T13:38:05.000Z</time>
      </trkpt>
      <trkpt lat="48.21801" lon="-3.14428">
        <ele>218.60000610352</ele>
        <time>2020-10-19T13:38:06.000Z</time>
      </trkpt>
      <trkpt lat="48.21801" lon="-3.14426">
        <ele>218.60000610352</ele>
        <time>2020-10-19T13:38:07.000Z</time>
      </trkpt>
      <trkpt lat="48.21802" lon="-3.14425">
        <ele>218.80000305176</ele>
        <time>2020-10-19T13:38:08.000Z</time>
      </trkpt>
      <trkpt lat="48.21802" lon="-3.14424">
        <ele>218.80000305176</ele>
        <time>2020-10-19T13:38:09.000Z</time>
      </trkpt>
      <trkpt lat="48.21802" lon="-3.14422">
        <ele>218.80000305176</ele>
        <time>2020-10-19T13:38:10.000Z</time>
      </trkpt>
      <trkpt lat="48.21803" lon="-3.14421">
        <ele>218.80000305176</ele>
        <time>2020-10-19T13:38:11.000Z</time>
      </trkpt>
      <trkpt lat="48.21803" lon="-3.1442">
        <ele>218.80000305176</ele>
        <time>2020-10-19T13:38:12.000Z</time>
      </trkpt>
      <trkpt lat="48.21803" lon="-3.14419">
        <ele>218.80000305176</ele>
        <time>2020-10-19T13:38:13.000Z</time>
      </trkpt>
      <trkpt lat="48.21803" lon="-3.14418">
        <ele>218.80000305176</ele>
        <time>2020-10-19T13:38:14.000Z</time>
      </trkpt>
      <trkpt lat="48.21803" lon="-3.14418">
        <ele>218.80000305176</ele>
        <time>2020-10-19T13:38:15.000Z</time>
      </trkpt>
      <trkpt lat="48.21803" lon="-3.14417">
        <ele>218.80000305176</ele>
        <time>2020-10-19T13:38:16.000Z</time>
      </trkpt>
      <trkpt lat="48.21803" lon="-3.14417">
        <ele>218.60000610352</ele>
        <time>2020-10-19T13:38:17.000Z</time>
      </trkpt>
      <trkpt lat="48.21803" lon="-3.14416">
        <ele>218.60000610352</ele>
        <time>2020-10-19T13:38:18.000Z</time>
      </trkpt>
      <trkpt lat="48.21802" lon="-3.14415">
        <ele>218.39999389648</ele>
        <time>2020-10-19T13:38:19.000Z</time>
      </trkpt>
      <trkpt lat="48.21802" lon="-3.14415">
        <ele>218.19999694824</ele>
        <time>2020-10-19T13:38:20.000Z</time>
      </trkpt>
      <trkpt lat="48.21801" lon="-3.14414">
        <ele>218</ele>
        <time>2020-10-19T13:38:21.000Z</time>
      </trkpt>
      <trkpt lat="48.21801" lon="-3.14413">
        <ele>217.80000305176</ele>
        <time>2020-10-19T13:38:22.000Z</time>
      </trkpt>
      <trkpt lat="48.218" lon="-3.14412">
        <ele>217.60000610352</ele>
        <time>2020-10-19T13:38:23.000Z</time>
      </trkpt>
      <trkpt lat="48.218" lon="-3.1441">
        <ele>217.39999389648</ele>
        <time>2020-10-19T13:38:24.000Z</time>
      </trkpt>
      <trkpt lat="48.21799" lon="-3.14409">
        <ele>217</ele>
        <time>2020-10-19T13:38:25.000Z</time>
      </trkpt>
      <trkpt lat="48.21798" lon="-3.14407">
        <ele>216.80000305176</ele>
        <time>2020-10-19T13:38:26.000Z</time>
      </trkpt>
      <trkpt lat="48.21797" lon="-3.14405">
        <ele>216.39999389648</ele>
        <time>2020-10-19T13:38:27.000Z</time>
      </trkpt>
      <trkpt lat="48.21797" lon="-3.14405">
        <ele>216.39999389648</ele>
        <time>2020-10-19T13:38:28.000Z</time>
      </trkpt>
      <trkpt lat="48.21797" lon="-3.14403">
        <ele>216.19999694824</ele>
        <time>2020-10-19T13:38:29.000Z</time>
      </trkpt>
      <trkpt lat="48.21797" lon="-3.14402">
        <ele>216.19999694824</ele>
        <time>2020-10-19T13:38:30.000Z</time>
      </trkpt>
      <trkpt lat="48.21797" lon="-3.144">
        <ele>216</ele>
        <time>2020-10-19T13:38:31.000Z</time>
      </trkpt>
      <trkpt lat="48.21797" lon="-3.14399">
        <ele>216</ele>
        <time>2020-10-19T13:38:32.000Z</time>
      </trkpt>
      <trkpt lat="48.21797" lon="-3.14395">
        <ele>215.80000305176</ele>
        <time>2020-10-19T13:38:33.000Z</time>
      </trkpt>
      <trkpt lat="48.21797" lon="-3.14395">
        <ele>215.80000305176</ele>
        <time>2020-10-19T13:38:34.000Z</time>
      </trkpt>
      <trkpt lat="48.21798" lon="-3.14393">
        <ele>215.80000305176</ele>
        <time>2020-10-19T13:38:35.000Z</time>
      </trkpt>
      <trkpt lat="48.21798" lon="-3.14392">
        <ele>215.80000305176</ele>
        <time>2020-10-19T13:38:36.000Z</time>
      </trkpt>
      <trkpt lat="48.21798" lon="-3.1439">
        <ele>215.80000305176</ele>
        <time>2020-10-19T13:38:37.000Z</time>
      </trkpt>
      <trkpt lat="48.21798" lon="-3.14388">
        <ele>215.80000305176</ele>
        <time>2020-10-19T13:38:38.000Z</time>
      </trkpt>
      <trkpt lat="48.21798" lon="-3.14386">
        <ele>215.80000305176</ele>
        <time>2020-10-19T13:38:39.000Z</time>
      </trkpt>
      <trkpt lat="48.21799" lon="-3.14385">
        <ele>215.80000305176</ele>
        <time>2020-10-19T13:38:40.000Z</time>
      </trkpt>
      <trkpt lat="48.21799" lon="-3.14383">
        <ele>216</ele>
        <time>2020-10-19T13:38:41.000Z</time>
      </trkpt>
      <trkpt lat="48.21799" lon="-3.14381">
        <ele>216</ele>
        <time>2020-10-19T13:38:42.000Z</time>
      </trkpt>
      <trkpt lat="48.218" lon="-3.1438">
        <ele>216.19999694824</ele>
        <time>2020-10-19T13:38:43.000Z</time>
      </trkpt>
      <trkpt lat="48.21801" lon="-3.14378">
        <ele>216.39999389648</ele>
        <time>2020-10-19T13:38:44.000Z</time>
      </trkpt>
      <trkpt lat="48.21801" lon="-3.14377">
        <ele>216.39999389648</ele>
        <time>2020-10-19T13:38:45.000Z</time>
      </trkpt>
      <trkpt lat="48.21802" lon="-3.14375">
        <ele>216.60000610352</ele>
        <time>2020-10-19T13:38:46.000Z</time>
      </trkpt>
      <trkpt lat="48.21802" lon="-3.14373">
        <ele>216.60000610352</ele>
        <time>2020-10-19T13:38:47.000Z</time>
      </trkpt>
      <trkpt lat="48.21803" lon="-3.14372">
        <ele>216.80000305176</ele>
        <time>2020-10-19T13:38:48.000Z</time>
      </trkpt>
      <trkpt lat="48.21804" lon="-3.14371">
        <ele>217</ele>
        <time>2020-10-19T13:38:49.000Z</time>
      </trkpt>
      <trkpt lat="48.21805" lon="-3.1437">
        <ele>217.39999389648</ele>
        <time>2020-10-19T13:38:50.000Z</time>
      </trkpt>
      <trkpt lat="48.21806" lon="-3.14369">
        <ele>217.60000610352</ele>
        <time>2020-10-19T13:38:51.000Z</time>
      </trkpt>
      <trkpt lat="48.21806" lon="-3.14368">
        <ele>217.60000610352</ele>
        <time>2020-10-19T13:38:52.000Z</time>
      </trkpt>
      <trkpt lat="48.21807" lon="-3.14366">
        <ele>217.80000305176</ele>
        <time>2020-10-19T13:38:53.000Z</time>
      </trkpt>
      <trkpt lat="48.21807" lon="-3.14365">
        <ele>217.80000305176</ele>
        <time>2020-10-19T13:38:54.000Z</time>
      </trkpt>
      <trkpt lat="48.21808" lon="-3.14363">
        <ele>218</ele>
        <time>2020-10-19T13:38:55.000Z</time>
      </trkpt>
      <trkpt lat="48.21808" lon="-3.14362">
        <ele>218</ele>
        <time>2020-10-19T13:38:56.000Z</time>
      </trkpt>
      <trkpt lat="48.21808" lon="-3.14361">
        <ele>218</ele>
        <time>2020-10-19T13:38:57.000Z</time>
      </trkpt>
      <trkpt lat="48.21808" lon="-3.14359">
        <ele>218</ele>
        <time>2020-10-19T13:38:58.000Z</time>
      </trkpt>
      <trkpt lat="48.21808" lon="-3.14358">
        <ele>218</ele>
        <time>2020-10-19T13:38:59.000Z</time>
      </trkpt>
      <trkpt lat="48.21808" lon="-3.14357">
        <ele>217.80000305176</ele>
        <time>2020-10-19T13:39:00.000Z</time>
      </trkpt>
      <trkpt lat="48.21809" lon="-3.14355">
        <ele>218</ele>
        <time>2020-10-19T13:39:01.000Z</time>
      </trkpt>
      <trkpt lat="48.21808" lon="-3.14353">
        <ele>217.80000305176</ele>
        <time>2020-10-19T13:39:02.000Z</time>
      </trkpt>
      <trkpt lat="48.21808" lon="-3.14348">
        <ele>217.60000610352</ele>
        <time>2020-10-19T13:39:03.000Z</time>
      </trkpt>
      <trkpt lat="48.21808" lon="-3.14348">
        <ele>217.60000610352</ele>
        <time>2020-10-19T13:39:04.000Z</time>
      </trkpt>
      <trkpt lat="48.21808" lon="-3.14346">
        <ele>217.39999389648</ele>
        <time>2020-10-19T13:39:05.000Z</time>
      </trkpt>
      <trkpt lat="48.21807" lon="-3.14345">
        <ele>217.19999694824</ele>
        <time>2020-10-19T13:39:06.000Z</time>
      </trkpt>
      <trkpt lat="48.21807" lon="-3.14344">
        <ele>217</ele>
        <time>2020-10-19T13:39:07.000Z</time>
      </trkpt>
      <trkpt lat="48.21807" lon="-3.14342">
        <ele>217</ele>
        <time>2020-10-19T13:39:08.000Z</time>
      </trkpt>
      <trkpt lat="48.21808" lon="-3.1434">
        <ele>217</ele>
        <time>2020-10-19T13:39:09.000Z</time>
      </trkpt>
      <trkpt lat="48.21808" lon="-3.14339">
        <ele>217</ele>
        <time>2020-10-19T13:39:10.000Z</time>
      </trkpt>
      <trkpt lat="48.21808" lon="-3.14337">
        <ele>217</ele>
        <time>2020-10-19T13:39:11.000Z</time>
      </trkpt>
      <trkpt lat="48.21809" lon="-3.14335">
        <ele>217.19999694824</ele>
        <time>2020-10-19T13:39:12.000Z</time>
      </trkpt>
      <trkpt lat="48.21809" lon="-3.14334">
        <ele>217.19999694824</ele>
        <time>2020-10-19T13:39:13.000Z</time>
      </trkpt>
      <trkpt lat="48.2181" lon="-3.14333">
        <ele>217.19999694824</ele>
        <time>2020-10-19T13:39:14.000Z</time>
      </trkpt>
      <trkpt lat="48.2181" lon="-3.14331">
        <ele>217.19999694824</ele>
        <time>2020-10-19T13:39:15.000Z</time>
      </trkpt>
      <trkpt lat="48.2181" lon="-3.14329">
        <ele>217.19999694824</ele>
        <time>2020-10-19T13:39:16.000Z</time>
      </trkpt>
      <trkpt lat="48.21811" lon="-3.14328">
        <ele>217.19999694824</ele>
        <time>2020-10-19T13:39:17.000Z</time>
      </trkpt>
      <trkpt lat="48.21812" lon="-3.14325">
        <ele>217.39999389648</ele>
        <time>2020-10-19T13:39:18.000Z</time>
      </trkpt>
      <trkpt lat="48.21812" lon="-3.14323">
        <ele>217.39999389648</ele>
        <time>2020-10-19T13:39:19.000Z</time>
      </trkpt>
      <trkpt lat="48.21812" lon="-3.14322">
        <ele>217.39999389648</ele>
        <time>2020-10-19T13:39:20.000Z</time>
      </trkpt>
      <trkpt lat="48.21813" lon="-3.1432">
        <ele>217.60000610352</ele>
        <time>2020-10-19T13:39:21.000Z</time>
      </trkpt>
      <trkpt lat="48.21814" lon="-3.14319">
        <ele>217.60000610352</ele>
        <time>2020-10-19T13:39:22.000Z</time>
      </trkpt>
      <trkpt lat="48.21814" lon="-3.14317">
        <ele>217.60000610352</ele>
        <time>2020-10-19T13:39:23.000Z</time>
      </trkpt>
      <trkpt lat="48.21814" lon="-3.14316">
        <ele>217.60000610352</ele>
        <time>2020-10-19T13:39:24.000Z</time>
      </trkpt>
      <trkpt lat="48.21814" lon="-3.14314">
        <ele>217.60000610352</ele>
        <time>2020-10-19T13:39:25.000Z</time>
      </trkpt>
      <trkpt lat="48.21815" lon="-3.14313">
        <ele>217.60000610352</ele>
        <time>2020-10-19T13:39:26.000Z</time>
      </trkpt>
      <trkpt lat="48.21814" lon="-3.14311">
        <ele>217.39999389648</ele>
        <time>2020-10-19T13:39:27.000Z</time>
      </trkpt>
      <trkpt lat="48.21814" lon="-3.14309">
        <ele>217.19999694824</ele>
        <time>2020-10-19T13:39:28.000Z</time>
      </trkpt>
      <trkpt lat="48.21813" lon="-3.14308">
        <ele>216.80000305176</ele>
        <time>2020-10-19T13:39:29.000Z</time>
      </trkpt>
      <trkpt lat="48.21813" lon="-3.14306">
        <ele>216.80000305176</ele>
        <time>2020-10-19T13:39:30.000Z</time>
      </trkpt>
      <trkpt lat="48.21813" lon="-3.14305">
        <ele>216.60000610352</ele>
        <time>2020-10-19T13:39:31.000Z</time>
      </trkpt>
      <trkpt lat="48.21813" lon="-3.14303">
        <ele>216.39999389648</ele>
        <time>2020-10-19T13:39:32.000Z</time>
      </trkpt>
      <trkpt lat="48.21812" lon="-3.14302">
        <ele>216.19999694824</ele>
        <time>2020-10-19T13:39:33.000Z</time>
      </trkpt>
      <trkpt lat="48.21812" lon="-3.143">
        <ele>216</ele>
        <time>2020-10-19T13:39:34.000Z</time>
      </trkpt>
      <trkpt lat="48.21812" lon="-3.14299">
        <ele>215.80000305176</ele>
        <time>2020-10-19T13:39:35.000Z</time>
      </trkpt>
      <trkpt lat="48.21811" lon="-3.14297">
        <ele>215.60000610352</ele>
        <time>2020-10-19T13:39:36.000Z</time>
      </trkpt>
      <trkpt lat="48.21811" lon="-3.14295">
        <ele>215.39999389648</ele>
        <time>2020-10-19T13:39:37.000Z</time>
      </trkpt>
      <trkpt lat="48.21811" lon="-3.14293">
        <ele>215.19999694824</ele>
        <time>2020-10-19T13:39:38.000Z</time>
      </trkpt>
      <trkpt lat="48.21811" lon="-3.14292">
        <ele>215.19999694824</ele>
        <time>2020-10-19T13:39:39.000Z</time>
      </trkpt>
      <trkpt lat="48.2181" lon="-3.14291">
        <ele>215.19999694824</ele>
        <time>2020-10-19T13:39:40.000Z</time>
      </trkpt>
      <trkpt lat="48.21811" lon="-3.1429">
        <ele>215.19999694824</ele>
        <time>2020-10-19T13:39:41.000Z</time>
      </trkpt>
      <trkpt lat="48.21811" lon="-3.14289">
        <ele>215</ele>
        <time>2020-10-19T13:39:42.000Z</time>
      </trkpt>
      <trkpt lat="48.21811" lon="-3.14287">
        <ele>215.19999694824</ele>
        <time>2020-10-19T13:39:43.000Z</time>
      </trkpt>
      <trkpt lat="48.21811" lon="-3.14286">
        <ele>215.19999694824</ele>
        <time>2020-10-19T13:39:44.000Z</time>
      </trkpt>
      <trkpt lat="48.21811" lon="-3.14285">
        <ele>215.19999694824</ele>
        <time>2020-10-19T13:39:45.000Z</time>
      </trkpt>
      <trkpt lat="48.21812" lon="-3.14284">
        <ele>215.39999389648</ele>
        <time>2020-10-19T13:39:46.000Z</time>
      </trkpt>
      <trkpt lat="48.21812" lon="-3.14283">
        <ele>215.39999389648</ele>
        <time>2020-10-19T13:39:47.000Z</time>
      </trkpt>
      <trkpt lat="48.21812" lon="-3.14281">
        <ele>215.39999389648</ele>
        <time>2020-10-19T13:39:48.000Z</time>
      </trkpt>
      <trkpt lat="48.21813" lon="-3.14281">
        <ele>215.39999389648</ele>
        <time>2020-10-19T13:39:49.000Z</time>
      </trkpt>
      <trkpt lat="48.21813" lon="-3.1428">
        <ele>215.39999389648</ele>
        <time>2020-10-19T13:39:50.000Z</time>
      </trkpt>
      <trkpt lat="48.21813" lon="-3.14279">
        <ele>215.60000610352</ele>
        <time>2020-10-19T13:39:51.000Z</time>
      </trkpt>
      <trkpt lat="48.21813" lon="-3.14277">
        <ele>215.39999389648</ele>
        <time>2020-10-19T13:39:52.000Z</time>
      </trkpt>
      <trkpt lat="48.21813" lon="-3.14276">
        <ele>215.39999389648</ele>
        <time>2020-10-19T13:39:53.000Z</time>
      </trkpt>
      <trkpt lat="48.21813" lon="-3.14275">
        <ele>215.39999389648</ele>
        <time>2020-10-19T13:39:54.000Z</time>
      </trkpt>
      <trkpt lat="48.21813" lon="-3.14274">
        <ele>215.39999389648</ele>
        <time>2020-10-19T13:39:55.000Z</time>
      </trkpt>
      <trkpt lat="48.21813" lon="-3.14273">
        <ele>215.39999389648</ele>
        <time>2020-10-19T13:39:56.000Z</time>
      </trkpt>
      <trkpt lat="48.21813" lon="-3.14272">
        <ele>215.39999389648</ele>
        <time>2020-10-19T13:39:57.000Z</time>
      </trkpt>
      <trkpt lat="48.21813" lon="-3.14272">
        <ele>215.19999694824</ele>
        <time>2020-10-19T13:39:58.000Z</time>
      </trkpt>
      <trkpt lat="48.21812" lon="-3.14271">
        <ele>215.19999694824</ele>
        <time>2020-10-19T13:39:59.000Z</time>
      </trkpt>
      <trkpt lat="48.21812" lon="-3.1427">
        <ele>215</ele>
        <time>2020-10-19T13:40:00.000Z</time>
      </trkpt>
      <trkpt lat="48.21811" lon="-3.14268">
        <ele>214.80000305176</ele>
        <time>2020-10-19T13:40:01.000Z</time>
      </trkpt>
      <trkpt lat="48.21811" lon="-3.14268">
        <ele>214.80000305176</ele>
        <time>2020-10-19T13:40:02.000Z</time>
      </trkpt>
      <trkpt lat="48.21811" lon="-3.14267">
        <ele>214.60000610352</ele>
        <time>2020-10-19T13:40:03.000Z</time>
      </trkpt>
      <trkpt lat="48.21811" lon="-3.14266">
        <ele>214.60000610352</ele>
        <time>2020-10-19T13:40:04.000Z</time>
      </trkpt>
      <trkpt lat="48.2181" lon="-3.14264">
        <ele>214.39999389648</ele>
        <time>2020-10-19T13:40:05.000Z</time>
      </trkpt>
      <trkpt lat="48.2181" lon="-3.14263">
        <ele>214.39999389648</ele>
        <time>2020-10-19T13:40:06.000Z</time>
      </trkpt>
      <trkpt lat="48.21809" lon="-3.14262">
        <ele>214.19999694824</ele>
        <time>2020-10-19T13:40:07.000Z</time>
      </trkpt>
      <trkpt lat="48.21809" lon="-3.1426">
        <ele>214</ele>
        <time>2020-10-19T13:40:08.000Z</time>
      </trkpt>
      <trkpt lat="48.21809" lon="-3.14259">
        <ele>214</ele>
        <time>2020-10-19T13:40:09.000Z</time>
      </trkpt>
      <trkpt lat="48.21809" lon="-3.14257">
        <ele>213.80000305176</ele>
        <time>2020-10-19T13:40:10.000Z</time>
      </trkpt>
      <trkpt lat="48.21808" lon="-3.14255">
        <ele>213.80000305176</ele>
        <time>2020-10-19T13:40:11.000Z</time>
      </trkpt>
      <trkpt lat="48.21808" lon="-3.14254">
        <ele>213.60000610352</ele>
        <time>2020-10-19T13:40:12.000Z</time>
      </trkpt>
      <trkpt lat="48.21808" lon="-3.14253">
        <ele>213.39999389648</ele>
        <time>2020-10-19T13:40:13.000Z</time>
      </trkpt>
      <trkpt lat="48.21808" lon="-3.14252">
        <ele>213.39999389648</ele>
        <time>2020-10-19T13:40:14.000Z</time>
      </trkpt>
      <trkpt lat="48.21807" lon="-3.14251">
        <ele>213.19999694824</ele>
        <time>2020-10-19T13:40:15.000Z</time>
      </trkpt>
      <trkpt lat="48.21807" lon="-3.1425">
        <ele>213.19999694824</ele>
        <time>2020-10-19T13:40:16.000Z</time>
      </trkpt>
      <trkpt lat="48.21807" lon="-3.14249">
        <ele>213.19999694824</ele>
        <time>2020-10-19T13:40:17.000Z</time>
      </trkpt>
      <trkpt lat="48.21806" lon="-3.14248">
        <ele>213</ele>
        <time>2020-10-19T13:40:18.000Z</time>
      </trkpt>
      <trkpt lat="48.21806" lon="-3.14246">
        <ele>212.80000305176</ele>
        <time>2020-10-19T13:40:19.000Z</time>
      </trkpt>
      <trkpt lat="48.21806" lon="-3.14245">
        <ele>212.60000610352</ele>
        <time>2020-10-19T13:40:20.000Z</time>
      </trkpt>
      <trkpt lat="48.21805" lon="-3.14244">
        <ele>212.60000610352</ele>
        <time>2020-10-19T13:40:21.000Z</time>
      </trkpt>
      <trkpt lat="48.21805" lon="-3.14243">
        <ele>212.39999389648</ele>
        <time>2020-10-19T13:40:22.000Z</time>
      </trkpt>
      <trkpt lat="48.21804" lon="-3.14241">
        <ele>212.19999694824</ele>
        <time>2020-10-19T13:40:23.000Z</time>
      </trkpt>
      <trkpt lat="48.21804" lon="-3.1424">
        <ele>212</ele>
        <time>2020-10-19T13:40:24.000Z</time>
      </trkpt>
      <trkpt lat="48.21804" lon="-3.14239">
        <ele>212</ele>
        <time>2020-10-19T13:40:25.000Z</time>
      </trkpt>
      <trkpt lat="48.21804" lon="-3.14238">
        <ele>212</ele>
        <time>2020-10-19T13:40:26.000Z</time>
      </trkpt>
      <trkpt lat="48.21803" lon="-3.14237">
        <ele>211.80000305176</ele>
        <time>2020-10-19T13:40:27.000Z</time>
      </trkpt>
      <trkpt lat="48.21803" lon="-3.14235">
        <ele>211.80000305176</ele>
        <time>2020-10-19T13:40:28.000Z</time>
      </trkpt>
      <trkpt lat="48.21803" lon="-3.14234">
        <ele>211.80000305176</ele>
        <time>2020-10-19T13:40:29.000Z</time>
      </trkpt>
      <trkpt lat="48.21804" lon="-3.14233">
        <ele>211.80000305176</ele>
        <time>2020-10-19T13:40:30.000Z</time>
      </trkpt>
      <trkpt lat="48.21804" lon="-3.14231">
        <ele>211.80000305176</ele>
        <time>2020-10-19T13:40:31.000Z</time>
      </trkpt>
      <trkpt lat="48.21804" lon="-3.1423">
        <ele>211.80000305176</ele>
        <time>2020-10-19T13:40:32.000Z</time>
      </trkpt>
      <trkpt lat="48.21804" lon="-3.14229">
        <ele>211.80000305176</ele>
        <time>2020-10-19T13:40:33.000Z</time>
      </trkpt>
      <trkpt lat="48.21804" lon="-3.14228">
        <ele>211.80000305176</ele>
        <time>2020-10-19T13:40:34.000Z</time>
      </trkpt>
      <trkpt lat="48.21804" lon="-3.14227">
        <ele>211.80000305176</ele>
        <time>2020-10-19T13:40:35.000Z</time>
      </trkpt>
      <trkpt lat="48.21805" lon="-3.14226">
        <ele>211.80000305176</ele>
        <time>2020-10-19T13:40:36.000Z</time>
      </trkpt>
      <trkpt lat="48.21805" lon="-3.14224">
        <ele>211.80000305176</ele>
        <time>2020-10-19T13:40:37.000Z</time>
      </trkpt>
      <trkpt lat="48.21805" lon="-3.14223">
        <ele>211.80000305176</ele>
        <time>2020-10-19T13:40:38.000Z</time>
      </trkpt>
      <trkpt lat="48.21805" lon="-3.14222">
        <ele>212</ele>
        <time>2020-10-19T13:40:39.000Z</time>
      </trkpt>
      <trkpt lat="48.21805" lon="-3.14221">
        <ele>212</ele>
        <time>2020-10-19T13:40:40.000Z</time>
      </trkpt>
      <trkpt lat="48.21806" lon="-3.1422">
        <ele>212</ele>
        <time>2020-10-19T13:40:41.000Z</time>
      </trkpt>
      <trkpt lat="48.21806" lon="-3.14219">
        <ele>212.19999694824</ele>
        <time>2020-10-19T13:40:42.000Z</time>
      </trkpt>
      <trkpt lat="48.21807" lon="-3.14218">
        <ele>212.19999694824</ele>
        <time>2020-10-19T13:40:43.000Z</time>
      </trkpt>
      <trkpt lat="48.21807" lon="-3.14217">
        <ele>212.39999389648</ele>
        <time>2020-10-19T13:40:44.000Z</time>
      </trkpt>
      <trkpt lat="48.21807" lon="-3.14216">
        <ele>212.39999389648</ele>
        <time>2020-10-19T13:40:45.000Z</time>
      </trkpt>
      <trkpt lat="48.21807" lon="-3.14215">
        <ele>212.39999389648</ele>
        <time>2020-10-19T13:40:46.000Z</time>
      </trkpt>
      <trkpt lat="48.21807" lon="-3.14214">
        <ele>212.39999389648</ele>
        <time>2020-10-19T13:40:47.000Z</time>
      </trkpt>
      <trkpt lat="48.21808" lon="-3.14213">
        <ele>212.39999389648</ele>
        <time>2020-10-19T13:40:48.000Z</time>
      </trkpt>
      <trkpt lat="48.21808" lon="-3.14211">
        <ele>212.60000610352</ele>
        <time>2020-10-19T13:40:49.000Z</time>
      </trkpt>
      <trkpt lat="48.21808" lon="-3.1421">
        <ele>212.60000610352</ele>
        <time>2020-10-19T13:40:50.000Z</time>
      </trkpt>
      <trkpt lat="48.21809" lon="-3.14208">
        <ele>212.60000610352</ele>
        <time>2020-10-19T13:40:51.000Z</time>
      </trkpt>
      <trkpt lat="48.21809" lon="-3.14207">
        <ele>212.60000610352</ele>
        <time>2020-10-19T13:40:52.000Z</time>
      </trkpt>
      <trkpt lat="48.21809" lon="-3.14206">
        <ele>212.80000305176</ele>
        <time>2020-10-19T13:40:53.000Z</time>
      </trkpt>
      <trkpt lat="48.21809" lon="-3.14204">
        <ele>212.80000305176</ele>
        <time>2020-10-19T13:40:54.000Z</time>
      </trkpt>
      <trkpt lat="48.2181" lon="-3.14202">
        <ele>212.80000305176</ele>
        <time>2020-10-19T13:40:55.000Z</time>
      </trkpt>
      <trkpt lat="48.21811" lon="-3.142">
        <ele>213.19999694824</ele>
        <time>2020-10-19T13:40:56.000Z</time>
      </trkpt>
      <trkpt lat="48.21811" lon="-3.14199">
        <ele>213.19999694824</ele>
        <time>2020-10-19T13:40:57.000Z</time>
      </trkpt>
      <trkpt lat="48.21811" lon="-3.14197">
        <ele>213.19999694824</ele>
        <time>2020-10-19T13:40:58.000Z</time>
      </trkpt>
      <trkpt lat="48.21811" lon="-3.14196">
        <ele>213.19999694824</ele>
        <time>2020-10-19T13:40:59.000Z</time>
      </trkpt>
      <trkpt lat="48.21811" lon="-3.14194">
        <ele>213.19999694824</ele>
        <time>2020-10-19T13:41:00.000Z</time>
      </trkpt>
      <trkpt lat="48.21811" lon="-3.14192">
        <ele>213.19999694824</ele>
        <time>2020-10-19T13:41:01.000Z</time>
      </trkpt>
      <trkpt lat="48.21811" lon="-3.1419">
        <ele>213.19999694824</ele>
        <time>2020-10-19T13:41:02.000Z</time>
      </trkpt>
      <trkpt lat="48.21811" lon="-3.14189">
        <ele>213.19999694824</ele>
        <time>2020-10-19T13:41:03.000Z</time>
      </trkpt>
      <trkpt lat="48.21811" lon="-3.14188">
        <ele>213</ele>
        <time>2020-10-19T13:41:04.000Z</time>
      </trkpt>
      <trkpt lat="48.21811" lon="-3.14186">
        <ele>213</ele>
        <time>2020-10-19T13:41:05.000Z</time>
      </trkpt>
      <trkpt lat="48.21811" lon="-3.14185">
        <ele>213</ele>
        <time>2020-10-19T13:41:06.000Z</time>
      </trkpt>
      <trkpt lat="48.21811" lon="-3.14183">
        <ele>213</ele>
        <time>2020-10-19T13:41:07.000Z</time>
      </trkpt>
      <trkpt lat="48.21811" lon="-3.14182">
        <ele>213</ele>
        <time>2020-10-19T13:41:08.000Z</time>
      </trkpt>
      <trkpt lat="48.21811" lon="-3.14181">
        <ele>213</ele>
        <time>2020-10-19T13:41:09.000Z</time>
      </trkpt>
      <trkpt lat="48.21811" lon="-3.14179">
        <ele>213</ele>
        <time>2020-10-19T13:41:10.000Z</time>
      </trkpt>
      <trkpt lat="48.21811" lon="-3.14178">
        <ele>213</ele>
        <time>2020-10-19T13:41:11.000Z</time>
      </trkpt>
      <trkpt lat="48.21811" lon="-3.14176">
        <ele>213</ele>
        <time>2020-10-19T13:41:12.000Z</time>
      </trkpt>
      <trkpt lat="48.21812" lon="-3.14175">
        <ele>213</ele>
        <time>2020-10-19T13:41:13.000Z</time>
      </trkpt>
      <trkpt lat="48.21812" lon="-3.14173">
        <ele>213</ele>
        <time>2020-10-19T13:41:14.000Z</time>
      </trkpt>
      <trkpt lat="48.21812" lon="-3.14171">
        <ele>213</ele>
        <time>2020-10-19T13:41:15.000Z</time>
      </trkpt>
      <trkpt lat="48.21812" lon="-3.14169">
        <ele>213</ele>
        <time>2020-10-19T13:41:16.000Z</time>
      </trkpt>
      <trkpt lat="48.21812" lon="-3.14167">
        <ele>212.80000305176</ele>
        <time>2020-10-19T13:41:17.000Z</time>
      </trkpt>
      <trkpt lat="48.21812" lon="-3.14165">
        <ele>212.60000610352</ele>
        <time>2020-10-19T13:41:18.000Z</time>
      </trkpt>
      <trkpt lat="48.21813" lon="-3.14163">
        <ele>212.60000610352</ele>
        <time>2020-10-19T13:41:19.000Z</time>
      </trkpt>
      <trkpt lat="48.21812" lon="-3.14161">
        <ele>212.60000610352</ele>
        <time>2020-10-19T13:41:20.000Z</time>
      </trkpt>
      <trkpt lat="48.21812" lon="-3.14159">
        <ele>212.39999389648</ele>
        <time>2020-10-19T13:41:21.000Z</time>
      </trkpt>
      <trkpt lat="48.21812" lon="-3.14156">
        <ele>212.19999694824</ele>
        <time>2020-10-19T13:41:22.000Z</time>
      </trkpt>
      <trkpt lat="48.21811" lon="-3.14155">
        <ele>212</ele>
        <time>2020-10-19T13:41:23.000Z</time>
      </trkpt>
      <trkpt lat="48.21811" lon="-3.14151">
        <ele>211.80000305176</ele>
        <time>2020-10-19T13:41:24.000Z</time>
      </trkpt>
      <trkpt lat="48.21811" lon="-3.14151">
        <ele>211.80000305176</ele>
        <time>2020-10-19T13:41:25.000Z</time>
      </trkpt>
      <trkpt lat="48.21811" lon="-3.14149">
        <ele>211.60000610352</ele>
        <time>2020-10-19T13:41:26.000Z</time>
      </trkpt>
      <trkpt lat="48.21812" lon="-3.14148">
        <ele>211.80000305176</ele>
        <time>2020-10-19T13:41:27.000Z</time>
      </trkpt>
      <trkpt lat="48.21812" lon="-3.14146">
        <ele>211.80000305176</ele>
        <time>2020-10-19T13:41:28.000Z</time>
      </trkpt>
      <trkpt lat="48.21812" lon="-3.14145">
        <ele>211.80000305176</ele>
        <time>2020-10-19T13:41:29.000Z</time>
      </trkpt>
      <trkpt lat="48.21813" lon="-3.14143">
        <ele>211.80000305176</ele>
        <time>2020-10-19T13:41:30.000Z</time>
      </trkpt>
      <trkpt lat="48.21813" lon="-3.14142">
        <ele>211.60000610352</ele>
        <time>2020-10-19T13:41:31.000Z</time>
      </trkpt>
      <trkpt lat="48.21813" lon="-3.14141">
        <ele>211.60000610352</ele>
        <time>2020-10-19T13:41:32.000Z</time>
      </trkpt>
      <trkpt lat="48.21813" lon="-3.14139">
        <ele>211.60000610352</ele>
        <time>2020-10-19T13:41:33.000Z</time>
      </trkpt>
      <trkpt lat="48.21813" lon="-3.14138">
        <ele>211.60000610352</ele>
        <time>2020-10-19T13:41:34.000Z</time>
      </trkpt>
      <trkpt lat="48.21813" lon="-3.14137">
        <ele>211.60000610352</ele>
        <time>2020-10-19T13:41:35.000Z</time>
      </trkpt>
      <trkpt lat="48.21813" lon="-3.14135">
        <ele>211.60000610352</ele>
        <time>2020-10-19T13:41:36.000Z</time>
      </trkpt>
      <trkpt lat="48.21813" lon="-3.14133">
        <ele>211.39999389648</ele>
        <time>2020-10-19T13:41:37.000Z</time>
      </trkpt>
      <trkpt lat="48.21813" lon="-3.14133">
        <ele>211.39999389648</ele>
        <time>2020-10-19T13:41:38.000Z</time>
      </trkpt>
      <trkpt lat="48.21813" lon="-3.14132">
        <ele>211.39999389648</ele>
        <time>2020-10-19T13:41:39.000Z</time>
      </trkpt>
      <trkpt lat="48.21813" lon="-3.1413">
        <ele>211.19999694824</ele>
        <time>2020-10-19T13:41:40.000Z</time>
      </trkpt>
      <trkpt lat="48.21813" lon="-3.14128">
        <ele>211.19999694824</ele>
        <time>2020-10-19T13:41:41.000Z</time>
      </trkpt>
      <trkpt lat="48.21813" lon="-3.14126">
        <ele>211.19999694824</ele>
        <time>2020-10-19T13:41:42.000Z</time>
      </trkpt>
      <trkpt lat="48.21814" lon="-3.14125">
        <ele>211.19999694824</ele>
        <time>2020-10-19T13:41:43.000Z</time>
      </trkpt>
      <trkpt lat="48.21814" lon="-3.14124">
        <ele>211.19999694824</ele>
        <time>2020-10-19T13:41:44.000Z</time>
      </trkpt>
      <trkpt lat="48.21814" lon="-3.14122">
        <ele>211.19999694824</ele>
        <time>2020-10-19T13:41:45.000Z</time>
      </trkpt>
      <trkpt lat="48.21814" lon="-3.1412">
        <ele>211.19999694824</ele>
        <time>2020-10-19T13:41:46.000Z</time>
      </trkpt>
      <trkpt lat="48.21814" lon="-3.14119">
        <ele>211.19999694824</ele>
        <time>2020-10-19T13:41:47.000Z</time>
      </trkpt>
      <trkpt lat="48.21814" lon="-3.14117">
        <ele>211.19999694824</ele>
        <time>2020-10-19T13:41:48.000Z</time>
      </trkpt>
      <trkpt lat="48.21815" lon="-3.14115">
        <ele>211.19999694824</ele>
        <time>2020-10-19T13:41:49.000Z</time>
      </trkpt>
      <trkpt lat="48.21815" lon="-3.14113">
        <ele>211.19999694824</ele>
        <time>2020-10-19T13:41:50.000Z</time>
      </trkpt>
      <trkpt lat="48.21815" lon="-3.14111">
        <ele>211</ele>
        <time>2020-10-19T13:41:51.000Z</time>
      </trkpt>
      <trkpt lat="48.21815" lon="-3.14109">
        <ele>211</ele>
        <time>2020-10-19T13:41:52.000Z</time>
      </trkpt>
      <trkpt lat="48.21815" lon="-3.14107">
        <ele>211</ele>
        <time>2020-10-19T13:41:53.000Z</time>
      </trkpt>
      <trkpt lat="48.21815" lon="-3.14104">
        <ele>211</ele>
        <time>2020-10-19T13:41:54.000Z</time>
      </trkpt>
      <trkpt lat="48.21815" lon="-3.14104">
        <ele>211</ele>
        <time>2020-10-19T13:41:55.000Z</time>
      </trkpt>
      <trkpt lat="48.21816" lon="-3.14102">
        <ele>211</ele>
        <time>2020-10-19T13:41:56.000Z</time>
      </trkpt>
      <trkpt lat="48.21816" lon="-3.141">
        <ele>211</ele>
        <time>2020-10-19T13:41:57.000Z</time>
      </trkpt>
      <trkpt lat="48.21816" lon="-3.14098">
        <ele>211</ele>
        <time>2020-10-19T13:41:58.000Z</time>
      </trkpt>
      <trkpt lat="48.21816" lon="-3.14097">
        <ele>211</ele>
        <time>2020-10-19T13:41:59.000Z</time>
      </trkpt>
      <trkpt lat="48.21816" lon="-3.14095">
        <ele>211</ele>
        <time>2020-10-19T13:42:00.000Z</time>
      </trkpt>
      <trkpt lat="48.21816" lon="-3.14094">
        <ele>211</ele>
        <time>2020-10-19T13:42:01.000Z</time>
      </trkpt>
      <trkpt lat="48.21816" lon="-3.14092">
        <ele>211</ele>
        <time>2020-10-19T13:42:02.000Z</time>
      </trkpt>
      <trkpt lat="48.21816" lon="-3.1409">
        <ele>210.80000305176</ele>
        <time>2020-10-19T13:42:03.000Z</time>
      </trkpt>
      <trkpt lat="48.21816" lon="-3.14089">
        <ele>210.80000305176</ele>
        <time>2020-10-19T13:42:04.000Z</time>
      </trkpt>
      <trkpt lat="48.21816" lon="-3.14087">
        <ele>210.60000610352</ele>
        <time>2020-10-19T13:42:05.000Z</time>
      </trkpt>
      <trkpt lat="48.21816" lon="-3.14085">
        <ele>210.60000610352</ele>
        <time>2020-10-19T13:42:06.000Z</time>
      </trkpt>
      <trkpt lat="48.21816" lon="-3.14082">
        <ele>210.39999389648</ele>
        <time>2020-10-19T13:42:07.000Z</time>
      </trkpt>
      <trkpt lat="48.21816" lon="-3.1408">
        <ele>210.39999389648</ele>
        <time>2020-10-19T13:42:08.000Z</time>
      </trkpt>
      <trkpt lat="48.21816" lon="-3.14078">
        <ele>210.19999694824</ele>
        <time>2020-10-19T13:42:09.000Z</time>
      </trkpt>
      <trkpt lat="48.21817" lon="-3.14077">
        <ele>210.19999694824</ele>
        <time>2020-10-19T13:42:10.000Z</time>
      </trkpt>
      <trkpt lat="48.21817" lon="-3.14075">
        <ele>210.39999389648</ele>
        <time>2020-10-19T13:42:11.000Z</time>
      </trkpt>
      <trkpt lat="48.21818" lon="-3.14073">
        <ele>210.39999389648</ele>
        <time>2020-10-19T13:42:12.000Z</time>
      </trkpt>
      <trkpt lat="48.21818" lon="-3.14072">
        <ele>210.39999389648</ele>
        <time>2020-10-19T13:42:13.000Z</time>
      </trkpt>
      <trkpt lat="48.21819" lon="-3.1407">
        <ele>210.39999389648</ele>
        <time>2020-10-19T13:42:14.000Z</time>
      </trkpt>
      <trkpt lat="48.21819" lon="-3.14069">
        <ele>210.60000610352</ele>
        <time>2020-10-19T13:42:15.000Z</time>
      </trkpt>
      <trkpt lat="48.2182" lon="-3.14068">
        <ele>210.80000305176</ele>
        <time>2020-10-19T13:42:16.000Z</time>
      </trkpt>
      <trkpt lat="48.21821" lon="-3.14066">
        <ele>210.80000305176</ele>
        <time>2020-10-19T13:42:17.000Z</time>
      </trkpt>
      <trkpt lat="48.21821" lon="-3.14065">
        <ele>210.80000305176</ele>
        <time>2020-10-19T13:42:18.000Z</time>
      </trkpt>
      <trkpt lat="48.21822" lon="-3.14063">
        <ele>210.80000305176</ele>
        <time>2020-10-19T13:42:19.000Z</time>
      </trkpt>
      <trkpt lat="48.21822" lon="-3.14061">
        <ele>211</ele>
        <time>2020-10-19T13:42:20.000Z</time>
      </trkpt>
      <trkpt lat="48.21823" lon="-3.1406">
        <ele>211</ele>
        <time>2020-10-19T13:42:21.000Z</time>
      </trkpt>
      <trkpt lat="48.21823" lon="-3.14058">
        <ele>211</ele>
        <time>2020-10-19T13:42:22.000Z</time>
      </trkpt>
      <trkpt lat="48.21824" lon="-3.14056">
        <ele>211</ele>
        <time>2020-10-19T13:42:23.000Z</time>
      </trkpt>
      <trkpt lat="48.21824" lon="-3.14054">
        <ele>210.80000305176</ele>
        <time>2020-10-19T13:42:24.000Z</time>
      </trkpt>
      <trkpt lat="48.21824" lon="-3.14052">
        <ele>211</ele>
        <time>2020-10-19T13:42:25.000Z</time>
      </trkpt>
      <trkpt lat="48.21824" lon="-3.14051">
        <ele>210.80000305176</ele>
        <time>2020-10-19T13:42:26.000Z</time>
      </trkpt>
      <trkpt lat="48.21825" lon="-3.14049">
        <ele>211</ele>
        <time>2020-10-19T13:42:27.000Z</time>
      </trkpt>
      <trkpt lat="48.21825" lon="-3.14047">
        <ele>210.80000305176</ele>
        <time>2020-10-19T13:42:28.000Z</time>
      </trkpt>
      <trkpt lat="48.21825" lon="-3.14046">
        <ele>210.80000305176</ele>
        <time>2020-10-19T13:42:29.000Z</time>
      </trkpt>
      <trkpt lat="48.21825" lon="-3.14045">
        <ele>210.80000305176</ele>
        <time>2020-10-19T13:42:30.000Z</time>
      </trkpt>
      <trkpt lat="48.21825" lon="-3.14044">
        <ele>210.80000305176</ele>
        <time>2020-10-19T13:42:31.000Z</time>
      </trkpt>
      <trkpt lat="48.21825" lon="-3.14042">
        <ele>210.60000610352</ele>
        <time>2020-10-19T13:42:32.000Z</time>
      </trkpt>
      <trkpt lat="48.21825" lon="-3.1404">
        <ele>210.60000610352</ele>
        <time>2020-10-19T13:42:33.000Z</time>
      </trkpt>
      <trkpt lat="48.21825" lon="-3.14039">
        <ele>210.60000610352</ele>
        <time>2020-10-19T13:42:34.000Z</time>
      </trkpt>
      <trkpt lat="48.21825" lon="-3.14038">
        <ele>210.60000610352</ele>
        <time>2020-10-19T13:42:35.000Z</time>
      </trkpt>
      <trkpt lat="48.21825" lon="-3.14036">
        <ele>210.39999389648</ele>
        <time>2020-10-19T13:42:36.000Z</time>
      </trkpt>
      <trkpt lat="48.21826" lon="-3.14035">
        <ele>210.39999389648</ele>
        <time>2020-10-19T13:42:37.000Z</time>
      </trkpt>
      <trkpt lat="48.21826" lon="-3.14034">
        <ele>210.39999389648</ele>
        <time>2020-10-19T13:42:38.000Z</time>
      </trkpt>
      <trkpt lat="48.21826" lon="-3.14032">
        <ele>210.39999389648</ele>
        <time>2020-10-19T13:42:39.000Z</time>
      </trkpt>
      <trkpt lat="48.21826" lon="-3.14031">
        <ele>210.39999389648</ele>
        <time>2020-10-19T13:42:40.000Z</time>
      </trkpt>
      <trkpt lat="48.21826" lon="-3.1403">
        <ele>210.39999389648</ele>
        <time>2020-10-19T13:42:41.000Z</time>
      </trkpt>
      <trkpt lat="48.21827" lon="-3.14029">
        <ele>210.39999389648</ele>
        <time>2020-10-19T13:42:42.000Z</time>
      </trkpt>
      <trkpt lat="48.21827" lon="-3.14027">
        <ele>210.39999389648</ele>
        <time>2020-10-19T13:42:43.000Z</time>
      </trkpt>
      <trkpt lat="48.21827" lon="-3.14026">
        <ele>210.39999389648</ele>
        <time>2020-10-19T13:42:44.000Z</time>
      </trkpt>
      <trkpt lat="48.21827" lon="-3.14025">
        <ele>210.39999389648</ele>
        <time>2020-10-19T13:42:45.000Z</time>
      </trkpt>
      <trkpt lat="48.21827" lon="-3.14024">
        <ele>210.39999389648</ele>
        <time>2020-10-19T13:42:46.000Z</time>
      </trkpt>
      <trkpt lat="48.21827" lon="-3.14022">
        <ele>210.39999389648</ele>
        <time>2020-10-19T13:42:47.000Z</time>
      </trkpt>
      <trkpt lat="48.21827" lon="-3.14021">
        <ele>210.19999694824</ele>
        <time>2020-10-19T13:42:48.000Z</time>
      </trkpt>
      <trkpt lat="48.21827" lon="-3.14019">
        <ele>210.19999694824</ele>
        <time>2020-10-19T13:42:49.000Z</time>
      </trkpt>
      <trkpt lat="48.21828" lon="-3.14018">
        <ele>210.39999389648</ele>
        <time>2020-10-19T13:42:50.000Z</time>
      </trkpt>
      <trkpt lat="48.2183" lon="-3.14016">
        <ele>210.80000305176</ele>
        <time>2020-10-19T13:42:51.000Z</time>
      </trkpt>
      <trkpt lat="48.2183" lon="-3.14014">
        <ele>210.80000305176</ele>
        <time>2020-10-19T13:42:52.000Z</time>
      </trkpt>
      <trkpt lat="48.2183" lon="-3.14011">
        <ele>210.80000305176</ele>
        <time>2020-10-19T13:42:53.000Z</time>
      </trkpt>
      <trkpt lat="48.2183" lon="-3.14009">
        <ele>210.80000305176</ele>
        <time>2020-10-19T13:42:54.000Z</time>
      </trkpt>
      <trkpt lat="48.21831" lon="-3.14008">
        <ele>210.80000305176</ele>
        <time>2020-10-19T13:42:55.000Z</time>
      </trkpt>
      <trkpt lat="48.21831" lon="-3.14006">
        <ele>210.80000305176</ele>
        <time>2020-10-19T13:42:56.000Z</time>
      </trkpt>
      <trkpt lat="48.21831" lon="-3.14004">
        <ele>210.80000305176</ele>
        <time>2020-10-19T13:42:57.000Z</time>
      </trkpt>
      <trkpt lat="48.21831" lon="-3.14002">
        <ele>210.80000305176</ele>
        <time>2020-10-19T13:42:58.000Z</time>
      </trkpt>
      <trkpt lat="48.21831" lon="-3.14002">
        <ele>210.80000305176</ele>
        <time>2020-10-19T13:42:59.000Z</time>
      </trkpt>
      <trkpt lat="48.21831" lon="-3.14">
        <ele>210.80000305176</ele>
        <time>2020-10-19T13:43:00.000Z</time>
      </trkpt>
      <trkpt lat="48.21831" lon="-3.13999">
        <ele>210.60000610352</ele>
        <time>2020-10-19T13:43:01.000Z</time>
      </trkpt>
      <trkpt lat="48.21831" lon="-3.13998">
        <ele>210.60000610352</ele>
        <time>2020-10-19T13:43:02.000Z</time>
      </trkpt>
      <trkpt lat="48.21831" lon="-3.13996">
        <ele>210.60000610352</ele>
        <time>2020-10-19T13:43:03.000Z</time>
      </trkpt>
      <trkpt lat="48.21832" lon="-3.13995">
        <ele>210.60000610352</ele>
        <time>2020-10-19T13:43:04.000Z</time>
      </trkpt>
      <trkpt lat="48.21832" lon="-3.13994">
        <ele>210.80000305176</ele>
        <time>2020-10-19T13:43:05.000Z</time>
      </trkpt>
      <trkpt lat="48.21832" lon="-3.13993">
        <ele>210.80000305176</ele>
        <time>2020-10-19T13:43:06.000Z</time>
      </trkpt>
      <trkpt lat="48.21833" lon="-3.13991">
        <ele>210.80000305176</ele>
        <time>2020-10-19T13:43:07.000Z</time>
      </trkpt>
      <trkpt lat="48.21833" lon="-3.1399">
        <ele>210.80000305176</ele>
        <time>2020-10-19T13:43:08.000Z</time>
      </trkpt>
      <trkpt lat="48.21833" lon="-3.13988">
        <ele>210.80000305176</ele>
        <time>2020-10-19T13:43:09.000Z</time>
      </trkpt>
      <trkpt lat="48.21834" lon="-3.13986">
        <ele>211</ele>
        <time>2020-10-19T13:43:10.000Z</time>
      </trkpt>
      <trkpt lat="48.21834" lon="-3.13984">
        <ele>211</ele>
        <time>2020-10-19T13:43:11.000Z</time>
      </trkpt>
      <trkpt lat="48.21835" lon="-3.13983">
        <ele>211.19999694824</ele>
        <time>2020-10-19T13:43:12.000Z</time>
      </trkpt>
      <trkpt lat="48.21836" lon="-3.13981">
        <ele>211.19999694824</ele>
        <time>2020-10-19T13:43:13.000Z</time>
      </trkpt>
      <trkpt lat="48.21836" lon="-3.13979">
        <ele>211.19999694824</ele>
        <time>2020-10-19T13:43:14.000Z</time>
      </trkpt>
      <trkpt lat="48.21837" lon="-3.13977">
        <ele>211.39999389648</ele>
        <time>2020-10-19T13:43:15.000Z</time>
      </trkpt>
      <trkpt lat="48.21837" lon="-3.13975">
        <ele>211.39999389648</ele>
        <time>2020-10-19T13:43:16.000Z</time>
      </trkpt>
      <trkpt lat="48.21838" lon="-3.13974">
        <ele>211.39999389648</ele>
        <time>2020-10-19T13:43:17.000Z</time>
      </trkpt>
      <trkpt lat="48.21838" lon="-3.13972">
        <ele>211.39999389648</ele>
        <time>2020-10-19T13:43:18.000Z</time>
      </trkpt>
      <trkpt lat="48.21838" lon="-3.1397">
        <ele>211.60000610352</ele>
        <time>2020-10-19T13:43:19.000Z</time>
      </trkpt>
      <trkpt lat="48.21839" lon="-3.13969">
        <ele>211.60000610352</ele>
        <time>2020-10-19T13:43:20.000Z</time>
      </trkpt>
      <trkpt lat="48.21839" lon="-3.13968">
        <ele>211.60000610352</ele>
        <time>2020-10-19T13:43:21.000Z</time>
      </trkpt>
      <trkpt lat="48.2184" lon="-3.13967">
        <ele>211.80000305176</ele>
        <time>2020-10-19T13:43:22.000Z</time>
      </trkpt>
      <trkpt lat="48.2184" lon="-3.13966">
        <ele>211.80000305176</ele>
        <time>2020-10-19T13:43:23.000Z</time>
      </trkpt>
      <trkpt lat="48.2184" lon="-3.13965">
        <ele>211.80000305176</ele>
        <time>2020-10-19T13:43:24.000Z</time>
      </trkpt>
      <trkpt lat="48.21841" lon="-3.13965">
        <ele>212</ele>
        <time>2020-10-19T13:43:25.000Z</time>
      </trkpt>
      <trkpt lat="48.21842" lon="-3.13964">
        <ele>212</ele>
        <time>2020-10-19T13:43:26.000Z</time>
      </trkpt>
      <trkpt lat="48.21842" lon="-3.13963">
        <ele>212.19999694824</ele>
        <time>2020-10-19T13:43:27.000Z</time>
      </trkpt>
      <trkpt lat="48.21843" lon="-3.13963">
        <ele>212.19999694824</ele>
        <time>2020-10-19T13:43:28.000Z</time>
      </trkpt>
      <trkpt lat="48.21843" lon="-3.13962">
        <ele>212.39999389648</ele>
        <time>2020-10-19T13:43:29.000Z</time>
      </trkpt>
      <trkpt lat="48.21844" lon="-3.13962">
        <ele>212.60000610352</ele>
        <time>2020-10-19T13:43:30.000Z</time>
      </trkpt>
      <trkpt lat="48.21844" lon="-3.13962">
        <ele>212.60000610352</ele>
        <time>2020-10-19T13:43:31.000Z</time>
      </trkpt>
      <trkpt lat="48.21844" lon="-3.13961">
        <ele>212.60000610352</ele>
        <time>2020-10-19T13:43:32.000Z</time>
      </trkpt>
      <trkpt lat="48.21844" lon="-3.1396">
        <ele>212.60000610352</ele>
        <time>2020-10-19T13:43:33.000Z</time>
      </trkpt>
      <trkpt lat="48.21844" lon="-3.1396">
        <ele>212.39999389648</ele>
        <time>2020-10-19T13:43:34.000Z</time>
      </trkpt>
      <trkpt lat="48.21843" lon="-3.13961">
        <ele>212.39999389648</ele>
        <time>2020-10-19T13:43:35.000Z</time>
      </trkpt>
      <trkpt lat="48.21843" lon="-3.13961">
        <ele>212.39999389648</ele>
        <time>2020-10-19T13:43:36.000Z</time>
      </trkpt>
      <trkpt lat="48.21843" lon="-3.13962">
        <ele>212.19999694824</ele>
        <time>2020-10-19T13:43:37.000Z</time>
      </trkpt>
      <trkpt lat="48.21842" lon="-3.13962">
        <ele>212.19999694824</ele>
        <time>2020-10-19T13:43:38.000Z</time>
      </trkpt>
      <trkpt lat="48.21842" lon="-3.13962">
        <ele>212.19999694824</ele>
        <time>2020-10-19T13:43:39.000Z</time>
      </trkpt>
      <trkpt lat="48.21842" lon="-3.13962">
        <ele>212</ele>
        <time>2020-10-19T13:43:40.000Z</time>
      </trkpt>
      <trkpt lat="48.21841" lon="-3.13962">
        <ele>212</ele>
        <time>2020-10-19T13:43:41.000Z</time>
      </trkpt>
      <trkpt lat="48.21841" lon="-3.13962">
        <ele>211.80000305176</ele>
        <time>2020-10-19T13:43:42.000Z</time>
      </trkpt>
      <trkpt lat="48.21841" lon="-3.13962">
        <ele>211.80000305176</ele>
        <time>2020-10-19T13:43:43.000Z</time>
      </trkpt>
      <trkpt lat="48.21841" lon="-3.13961">
        <ele>211.80000305176</ele>
        <time>2020-10-19T13:43:44.000Z</time>
      </trkpt>
      <trkpt lat="48.21841" lon="-3.13961">
        <ele>211.80000305176</ele>
        <time>2020-10-19T13:43:45.000Z</time>
      </trkpt>
      <trkpt lat="48.21841" lon="-3.13961">
        <ele>211.80000305176</ele>
        <time>2020-10-19T13:43:46.000Z</time>
      </trkpt>
      <trkpt lat="48.21841" lon="-3.13961">
        <ele>211.80000305176</ele>
        <time>2020-10-19T13:43:47.000Z</time>
      </trkpt>
      <trkpt lat="48.21841" lon="-3.13961">
        <ele>211.80000305176</ele>
        <time>2020-10-19T13:43:48.000Z</time>
      </trkpt>
      <trkpt lat="48.21841" lon="-3.13962">
        <ele>211.80000305176</ele>
        <time>2020-10-19T13:43:49.000Z</time>
      </trkpt>
      <trkpt lat="48.21841" lon="-3.13962">
        <ele>211.80000305176</ele>
        <time>2020-10-19T13:43:50.000Z</time>
      </trkpt>
      <trkpt lat="48.21841" lon="-3.13962">
        <ele>211.80000305176</ele>
        <time>2020-10-19T13:43:51.000Z</time>
      </trkpt>
      <trkpt lat="48.2184" lon="-3.13963">
        <ele>211.80000305176</ele>
        <time>2020-10-19T13:43:52.000Z</time>
      </trkpt>
      <trkpt lat="48.21839" lon="-3.13964">
        <ele>211.60000610352</ele>
        <time>2020-10-19T13:43:53.000Z</time>
      </trkpt>
      <trkpt lat="48.21839" lon="-3.13965">
        <ele>211.39999389648</ele>
        <time>2020-10-19T13:43:54.000Z</time>
      </trkpt>
      <trkpt lat="48.21838" lon="-3.13966">
        <ele>211.19999694824</ele>
        <time>2020-10-19T13:43:55.000Z</time>
      </trkpt>
      <trkpt lat="48.21837" lon="-3.13967">
        <ele>211.19999694824</ele>
        <time>2020-10-19T13:43:56.000Z</time>
      </trkpt>
      <trkpt lat="48.21836" lon="-3.13968">
        <ele>211</ele>
        <time>2020-10-19T13:43:57.000Z</time>
      </trkpt>
      <trkpt lat="48.21836" lon="-3.13969">
        <ele>211</ele>
        <time>2020-10-19T13:43:58.000Z</time>
      </trkpt>
      <trkpt lat="48.21835" lon="-3.13969">
        <ele>210.80000305176</ele>
        <time>2020-10-19T13:43:59.000Z</time>
      </trkpt>
      <trkpt lat="48.21834" lon="-3.1397">
        <ele>210.39999389648</ele>
        <time>2020-10-19T13:44:00.000Z</time>
      </trkpt>
      <trkpt lat="48.21834" lon="-3.1397">
        <ele>210.39999389648</ele>
        <time>2020-10-19T13:44:01.000Z</time>
      </trkpt>
      <trkpt lat="48.21833" lon="-3.13971">
        <ele>210.39999389648</ele>
        <time>2020-10-19T13:44:02.000Z</time>
      </trkpt>
      <trkpt lat="48.21833" lon="-3.13972">
        <ele>210.19999694824</ele>
        <time>2020-10-19T13:44:03.000Z</time>
      </trkpt>
      <trkpt lat="48.21832" lon="-3.13972">
        <ele>210.19999694824</ele>
        <time>2020-10-19T13:44:04.000Z</time>
      </trkpt>
      <trkpt lat="48.21831" lon="-3.13973">
        <ele>210</ele>
        <time>2020-10-19T13:44:05.000Z</time>
      </trkpt>
      <trkpt lat="48.2183" lon="-3.13973">
        <ele>209.80000305176</ele>
        <time>2020-10-19T13:44:06.000Z</time>
      </trkpt>
      <trkpt lat="48.2183" lon="-3.13974">
        <ele>209.80000305176</ele>
        <time>2020-10-19T13:44:07.000Z</time>
      </trkpt>
      <trkpt lat="48.21829" lon="-3.13975">
        <ele>209.80000305176</ele>
        <time>2020-10-19T13:44:08.000Z</time>
      </trkpt>
      <trkpt lat="48.21829" lon="-3.13975">
        <ele>209.60000610352</ele>
        <time>2020-10-19T13:44:09.000Z</time>
      </trkpt>
      <trkpt lat="48.21829" lon="-3.13976">
        <ele>209.60000610352</ele>
        <time>2020-10-19T13:44:10.000Z</time>
      </trkpt>
      <trkpt lat="48.21829" lon="-3.13976">
        <ele>209.60000610352</ele>
        <time>2020-10-19T13:44:11.000Z</time>
      </trkpt>
      <trkpt lat="48.21828" lon="-3.13976">
        <ele>209.39999389648</ele>
        <time>2020-10-19T13:44:12.000Z</time>
      </trkpt>
      <trkpt lat="48.21828" lon="-3.13976">
        <ele>209.39999389648</ele>
        <time>2020-10-19T13:44:13.000Z</time>
      </trkpt>
      <trkpt lat="48.21828" lon="-3.13976">
        <ele>209.39999389648</ele>
        <time>2020-10-19T13:44:14.000Z</time>
      </trkpt>
      <trkpt lat="48.21828" lon="-3.13977">
        <ele>209.39999389648</ele>
        <time>2020-10-19T13:44:15.000Z</time>
      </trkpt>
      <trkpt lat="48.21828" lon="-3.13977">
        <ele>209.60000610352</ele>
        <time>2020-10-19T13:44:16.000Z</time>
      </trkpt>
      <trkpt lat="48.21829" lon="-3.13976">
        <ele>209.60000610352</ele>
        <time>2020-10-19T13:44:17.000Z</time>
      </trkpt>
      <trkpt lat="48.21829" lon="-3.13976">
        <ele>209.60000610352</ele>
        <time>2020-10-19T13:44:18.000Z</time>
      </trkpt>
      <trkpt lat="48.21829" lon="-3.13976">
        <ele>209.60000610352</ele>
        <time>2020-10-19T13:44:19.000Z</time>
      </trkpt>
      <trkpt lat="48.21829" lon="-3.13975">
        <ele>209.80000305176</ele>
        <time>2020-10-19T13:44:20.000Z</time>
      </trkpt>
      <trkpt lat="48.2183" lon="-3.13975">
        <ele>209.80000305176</ele>
        <time>2020-10-19T13:44:21.000Z</time>
      </trkpt>
      <trkpt lat="48.2183" lon="-3.13975">
        <ele>209.80000305176</ele>
        <time>2020-10-19T13:44:22.000Z</time>
      </trkpt>
      <trkpt lat="48.21829" lon="-3.13974">
        <ele>209.60000610352</ele>
        <time>2020-10-19T13:44:23.000Z</time>
      </trkpt>
      <trkpt lat="48.21829" lon="-3.13974">
        <ele>209.60000610352</ele>
        <time>2020-10-19T13:44:24.000Z</time>
      </trkpt>
      <trkpt lat="48.21829" lon="-3.13974">
        <ele>209.60000610352</ele>
        <time>2020-10-19T13:44:25.000Z</time>
      </trkpt>
      <trkpt lat="48.21829" lon="-3.13974">
        <ele>209.60000610352</ele>
        <time>2020-10-19T13:44:26.000Z</time>
      </trkpt>
      <trkpt lat="48.21829" lon="-3.13974">
        <ele>209.60000610352</ele>
        <time>2020-10-19T13:44:27.000Z</time>
      </trkpt>
      <trkpt lat="48.21829" lon="-3.13974">
        <ele>209.60000610352</ele>
        <time>2020-10-19T13:44:28.000Z</time>
      </trkpt>
      <trkpt lat="48.2183" lon="-3.13974">
        <ele>209.80000305176</ele>
        <time>2020-10-19T13:44:29.000Z</time>
      </trkpt>
      <trkpt lat="48.2183" lon="-3.13974">
        <ele>209.80000305176</ele>
        <time>2020-10-19T13:44:30.000Z</time>
      </trkpt>
      <trkpt lat="48.2183" lon="-3.13974">
        <ele>209.80000305176</ele>
        <time>2020-10-19T13:44:31.000Z</time>
      </trkpt>
      <trkpt lat="48.2183" lon="-3.13973">
        <ele>209.80000305176</ele>
        <time>2020-10-19T13:44:32.000Z</time>
      </trkpt>
      <trkpt lat="48.2183" lon="-3.13973">
        <ele>209.80000305176</ele>
        <time>2020-10-19T13:44:33.000Z</time>
      </trkpt>
      <trkpt lat="48.2183" lon="-3.13972">
        <ele>209.80000305176</ele>
        <time>2020-10-19T13:44:34.000Z</time>
      </trkpt>
      <trkpt lat="48.2183" lon="-3.13972">
        <ele>209.80000305176</ele>
        <time>2020-10-19T13:44:35.000Z</time>
      </trkpt>
      <trkpt lat="48.2183" lon="-3.13972">
        <ele>209.80000305176</ele>
        <time>2020-10-19T13:44:36.000Z</time>
      </trkpt>
      <trkpt lat="48.2183" lon="-3.13972">
        <ele>209.80000305176</ele>
        <time>2020-10-19T13:44:37.000Z</time>
      </trkpt>
      <trkpt lat="48.2183" lon="-3.13972">
        <ele>209.80000305176</ele>
        <time>2020-10-19T13:44:38.000Z</time>
      </trkpt>
      <trkpt lat="48.2183" lon="-3.13972">
        <ele>209.80000305176</ele>
        <time>2020-10-19T13:44:39.000Z</time>
      </trkpt>
      <trkpt lat="48.2183" lon="-3.13972">
        <ele>209.80000305176</ele>
        <time>2020-10-19T13:44:40.000Z</time>
      </trkpt>
      <trkpt lat="48.2183" lon="-3.13972">
        <ele>209.80000305176</ele>
        <time>2020-10-19T13:44:41.000Z</time>
      </trkpt>
      <trkpt lat="48.2183" lon="-3.13972">
        <ele>209.80000305176</ele>
        <time>2020-10-19T13:44:42.000Z</time>
      </trkpt>
      <trkpt lat="48.2183" lon="-3.13972">
        <ele>209.80000305176</ele>
        <time>2020-10-19T13:44:43.000Z</time>
      </trkpt>
      <trkpt lat="48.2183" lon="-3.13972">
        <ele>209.80000305176</ele>
        <time>2020-10-19T13:44:44.000Z</time>
      </trkpt>
      <trkpt lat="48.2183" lon="-3.13972">
        <ele>209.80000305176</ele>
        <time>2020-10-19T13:44:45.000Z</time>
      </trkpt>
      <trkpt lat="48.2183" lon="-3.13972">
        <ele>209.80000305176</ele>
        <time>2020-10-19T13:44:46.000Z</time>
      </trkpt>
      <trkpt lat="48.2183" lon="-3.13972">
        <ele>209.80000305176</ele>
        <time>2020-10-19T13:44:47.000Z</time>
      </trkpt>
      <trkpt lat="48.2183" lon="-3.13973">
        <ele>209.80000305176</ele>
        <time>2020-10-19T13:44:48.000Z</time>
      </trkpt>
      <trkpt lat="48.2183" lon="-3.13973">
        <ele>209.80000305176</ele>
        <time>2020-10-19T13:44:49.000Z</time>
      </trkpt>
      <trkpt lat="48.2183" lon="-3.13973">
        <ele>209.80000305176</ele>
        <time>2020-10-19T13:44:50.000Z</time>
      </trkpt>
      <trkpt lat="48.2183" lon="-3.13973">
        <ele>209.80000305176</ele>
        <time>2020-10-19T13:44:51.000Z</time>
      </trkpt>
      <trkpt lat="48.2183" lon="-3.13973">
        <ele>209.80000305176</ele>
        <time>2020-10-19T13:44:52.000Z</time>
      </trkpt>
      <trkpt lat="48.2183" lon="-3.13973">
        <ele>209.80000305176</ele>
        <time>2020-10-19T13:44:53.000Z</time>
      </trkpt>
      <trkpt lat="48.2183" lon="-3.13973">
        <ele>209.80000305176</ele>
        <time>2020-10-19T13:44:54.000Z</time>
      </trkpt>
      <trkpt lat="48.2183" lon="-3.13973">
        <ele>209.80000305176</ele>
        <time>2020-10-19T13:44:55.000Z</time>
      </trkpt>
      <trkpt lat="48.2183" lon="-3.13973">
        <ele>209.80000305176</ele>
        <time>2020-10-19T13:44:56.000Z</time>
      </trkpt>
      <trkpt lat="48.2183" lon="-3.13973">
        <ele>209.80000305176</ele>
        <time>2020-10-19T13:44:57.000Z</time>
      </trkpt>
      <trkpt lat="48.2183" lon="-3.13973">
        <ele>209.80000305176</ele>
        <time>2020-10-19T13:44:58.000Z</time>
      </trkpt>
      <trkpt lat="48.2183" lon="-3.13973">
        <ele>209.80000305176</ele>
        <time>2020-10-19T13:44:59.000Z</time>
      </trkpt>
      <trkpt lat="48.2183" lon="-3.13973">
        <ele>209.80000305176</ele>
        <time>2020-10-19T13:45:00.000Z</time>
      </trkpt>
      <trkpt lat="48.2183" lon="-3.13973">
        <ele>209.80000305176</ele>
        <time>2020-10-19T13:45:01.000Z</time>
      </trkpt>
      <trkpt lat="48.2183" lon="-3.13973">
        <ele>209.80000305176</ele>
        <time>2020-10-19T13:45:02.000Z</time>
      </trkpt>
      <trkpt lat="48.2183" lon="-3.13973">
        <ele>209.80000305176</ele>
        <time>2020-10-19T13:45:03.000Z</time>
      </trkpt>
      <trkpt lat="48.2183" lon="-3.13973">
        <ele>209.80000305176</ele>
        <time>2020-10-19T13:45:04.000Z</time>
      </trkpt>
      <trkpt lat="48.2183" lon="-3.13973">
        <ele>209.80000305176</ele>
        <time>2020-10-19T13:45:05.000Z</time>
      </trkpt>
      <trkpt lat="48.2183" lon="-3.13973">
        <ele>209.80000305176</ele>
        <time>2020-10-19T13:45:06.000Z</time>
      </trkpt>
      <trkpt lat="48.2183" lon="-3.13973">
        <ele>209.80000305176</ele>
        <time>2020-10-19T13:45:07.000Z</time>
      </trkpt>
      <trkpt lat="48.2183" lon="-3.13973">
        <ele>209.80000305176</ele>
        <time>2020-10-19T13:45:08.000Z</time>
      </trkpt>
      <trkpt lat="48.2183" lon="-3.13974">
        <ele>209.80000305176</ele>
        <time>2020-10-19T13:45:09.000Z</time>
      </trkpt>
      <trkpt lat="48.21831" lon="-3.13974">
        <ele>210</ele>
        <time>2020-10-19T13:45:10.000Z</time>
      </trkpt>
      <trkpt lat="48.21831" lon="-3.13974">
        <ele>210</ele>
        <time>2020-10-19T13:45:11.000Z</time>
      </trkpt>
      <trkpt lat="48.21832" lon="-3.13974">
        <ele>210.19999694824</ele>
        <time>2020-10-19T13:45:12.000Z</time>
      </trkpt>
      <trkpt lat="48.21832" lon="-3.13974">
        <ele>210.19999694824</ele>
        <time>2020-10-19T13:45:13.000Z</time>
      </trkpt>
      <trkpt lat="48.21832" lon="-3.13975">
        <ele>210.19999694824</ele>
        <time>2020-10-19T13:45:14.000Z</time>
      </trkpt>
      <trkpt lat="48.21833" lon="-3.13974">
        <ele>210.39999389648</ele>
        <time>2020-10-19T13:45:15.000Z</time>
      </trkpt>
      <trkpt lat="48.21833" lon="-3.13974">
        <ele>210.39999389648</ele>
        <time>2020-10-19T13:45:16.000Z</time>
      </trkpt>
      <trkpt lat="48.21833" lon="-3.13974">
        <ele>210.39999389648</ele>
        <time>2020-10-19T13:45:17.000Z</time>
      </trkpt>
      <trkpt lat="48.21833" lon="-3.13974">
        <ele>210.39999389648</ele>
        <time>2020-10-19T13:45:18.000Z</time>
      </trkpt>
      <trkpt lat="48.21833" lon="-3.13975">
        <ele>210.39999389648</ele>
        <time>2020-10-19T13:45:19.000Z</time>
      </trkpt>
      <trkpt lat="48.21833" lon="-3.13975">
        <ele>210.60000610352</ele>
        <time>2020-10-19T13:45:20.000Z</time>
      </trkpt>
      <trkpt lat="48.21833" lon="-3.13975">
        <ele>210.60000610352</ele>
        <time>2020-10-19T13:45:21.000Z</time>
      </trkpt>
      <trkpt lat="48.21833" lon="-3.13975">
        <ele>210.60000610352</ele>
        <time>2020-10-19T13:45:22.000Z</time>
      </trkpt>
      <trkpt lat="48.21833" lon="-3.13975">
        <ele>210.60000610352</ele>
        <time>2020-10-19T13:45:23.000Z</time>
      </trkpt>
      <trkpt lat="48.21833" lon="-3.13975">
        <ele>210.39999389648</ele>
        <time>2020-10-19T13:45:24.000Z</time>
      </trkpt>
      <trkpt lat="48.21833" lon="-3.13975">
        <ele>210.39999389648</ele>
        <time>2020-10-19T13:45:25.000Z</time>
      </trkpt>
      <trkpt lat="48.21833" lon="-3.13974">
        <ele>210.39999389648</ele>
        <time>2020-10-19T13:45:26.000Z</time>
      </trkpt>
      <trkpt lat="48.21833" lon="-3.13974">
        <ele>210.39999389648</ele>
        <time>2020-10-19T13:45:27.000Z</time>
      </trkpt>
      <trkpt lat="48.21833" lon="-3.13974">
        <ele>210.39999389648</ele>
        <time>2020-10-19T13:45:28.000Z</time>
      </trkpt>
      <trkpt lat="48.21833" lon="-3.13974">
        <ele>210.39999389648</ele>
        <time>2020-10-19T13:45:29.000Z</time>
      </trkpt>
      <trkpt lat="48.21833" lon="-3.13974">
        <ele>210.39999389648</ele>
        <time>2020-10-19T13:45:30.000Z</time>
      </trkpt>
      <trkpt lat="48.21833" lon="-3.13974">
        <ele>210.39999389648</ele>
        <time>2020-10-19T13:45:31.000Z</time>
      </trkpt>
      <trkpt lat="48.21833" lon="-3.13973">
        <ele>210.39999389648</ele>
        <time>2020-10-19T13:45:32.000Z</time>
      </trkpt>
      <trkpt lat="48.21832" lon="-3.13973">
        <ele>210.39999389648</ele>
        <time>2020-10-19T13:45:33.000Z</time>
      </trkpt>
      <trkpt lat="48.21832" lon="-3.13973">
        <ele>210.39999389648</ele>
        <time>2020-10-19T13:45:34.000Z</time>
      </trkpt>
      <trkpt lat="48.21832" lon="-3.13973">
        <ele>210.39999389648</ele>
        <time>2020-10-19T13:45:35.000Z</time>
      </trkpt>
      <trkpt lat="48.21832" lon="-3.13974">
        <ele>210.39999389648</ele>
        <time>2020-10-19T13:45:36.000Z</time>
      </trkpt>
      <trkpt lat="48.21832" lon="-3.13973">
        <ele>210.19999694824</ele>
        <time>2020-10-19T13:45:37.000Z</time>
      </trkpt>
      <trkpt lat="48.21832" lon="-3.13973">
        <ele>210.19999694824</ele>
        <time>2020-10-19T13:45:38.000Z</time>
      </trkpt>
      <trkpt lat="48.21832" lon="-3.13973">
        <ele>210.19999694824</ele>
        <time>2020-10-19T13:45:39.000Z</time>
      </trkpt>
      <trkpt lat="48.21832" lon="-3.13973">
        <ele>210.19999694824</ele>
        <time>2020-10-19T13:45:40.000Z</time>
      </trkpt>
      <trkpt lat="48.21831" lon="-3.13973">
        <ele>210</ele>
        <time>2020-10-19T13:45:41.000Z</time>
      </trkpt>
      <trkpt lat="48.21831" lon="-3.13973">
        <ele>210</ele>
        <time>2020-10-19T13:45:42.000Z</time>
      </trkpt>
      <trkpt lat="48.21831" lon="-3.13973">
        <ele>210</ele>
        <time>2020-10-19T13:45:43.000Z</time>
      </trkpt>
      <trkpt lat="48.21831" lon="-3.13973">
        <ele>210</ele>
        <time>2020-10-19T13:45:44.000Z</time>
      </trkpt>
      <trkpt lat="48.21831" lon="-3.13973">
        <ele>210</ele>
        <time>2020-10-19T13:45:45.000Z</time>
      </trkpt>
      <trkpt lat="48.21831" lon="-3.13973">
        <ele>210</ele>
        <time>2020-10-19T13:45:46.000Z</time>
      </trkpt>
      <trkpt lat="48.21831" lon="-3.13973">
        <ele>210</ele>
        <time>2020-10-19T13:45:47.000Z</time>
      </trkpt>
      <trkpt lat="48.2183" lon="-3.13973">
        <ele>209.80000305176</ele>
        <time>2020-10-19T13:45:48.000Z</time>
      </trkpt>
      <trkpt lat="48.2183" lon="-3.13973">
        <ele>209.80000305176</ele>
        <time>2020-10-19T13:45:49.000Z</time>
      </trkpt>
      <trkpt lat="48.2183" lon="-3.13973">
        <ele>209.80000305176</ele>
        <time>2020-10-19T13:45:50.000Z</time>
      </trkpt>
      <trkpt lat="48.2183" lon="-3.13972">
        <ele>209.80000305176</ele>
        <time>2020-10-19T13:45:51.000Z</time>
      </trkpt>
      <trkpt lat="48.2183" lon="-3.13972">
        <ele>209.80000305176</ele>
        <time>2020-10-19T13:45:52.000Z</time>
      </trkpt>
      <trkpt lat="48.2183" lon="-3.13971">
        <ele>209.80000305176</ele>
        <time>2020-10-19T13:45:53.000Z</time>
      </trkpt>
      <trkpt lat="48.2183" lon="-3.13971">
        <ele>209.60000610352</ele>
        <time>2020-10-19T13:45:54.000Z</time>
      </trkpt>
      <trkpt lat="48.21829" lon="-3.1397">
        <ele>209.60000610352</ele>
        <time>2020-10-19T13:45:55.000Z</time>
      </trkpt>
      <trkpt lat="48.21829" lon="-3.1397">
        <ele>209.60000610352</ele>
        <time>2020-10-19T13:45:56.000Z</time>
      </trkpt>
      <trkpt lat="48.21829" lon="-3.1397">
        <ele>209.39999389648</ele>
        <time>2020-10-19T13:45:57.000Z</time>
      </trkpt>
      <trkpt lat="48.21828" lon="-3.1397">
        <ele>209.39999389648</ele>
        <time>2020-10-19T13:45:58.000Z</time>
      </trkpt>
      <trkpt lat="48.21828" lon="-3.13969">
        <ele>209.19999694824</ele>
        <time>2020-10-19T13:45:59.000Z</time>
      </trkpt>
      <trkpt lat="48.21828" lon="-3.13969">
        <ele>209.19999694824</ele>
        <time>2020-10-19T13:46:00.000Z</time>
      </trkpt>
      <trkpt lat="48.21827" lon="-3.13968">
        <ele>209.19999694824</ele>
        <time>2020-10-19T13:46:01.000Z</time>
      </trkpt>
      <trkpt lat="48.21828" lon="-3.13968">
        <ele>209.19999694824</ele>
        <time>2020-10-19T13:46:02.000Z</time>
      </trkpt>
      <trkpt lat="48.21828" lon="-3.13968">
        <ele>209.19999694824</ele>
        <time>2020-10-19T13:46:03.000Z</time>
      </trkpt>
      <trkpt lat="48.21829" lon="-3.13968">
        <ele>209.39999389648</ele>
        <time>2020-10-19T13:46:04.000Z</time>
      </trkpt>
      <trkpt lat="48.21828" lon="-3.13969">
        <ele>209.39999389648</ele>
        <time>2020-10-19T13:46:05.000Z</time>
      </trkpt>
      <trkpt lat="48.21828" lon="-3.13969">
        <ele>209.39999389648</ele>
        <time>2020-10-19T13:46:06.000Z</time>
      </trkpt>
      <trkpt lat="48.21828" lon="-3.13969">
        <ele>209.19999694824</ele>
        <time>2020-10-19T13:46:07.000Z</time>
      </trkpt>
      <trkpt lat="48.21828" lon="-3.13969">
        <ele>209.19999694824</ele>
        <time>2020-10-19T13:46:08.000Z</time>
      </trkpt>
      <trkpt lat="48.21828" lon="-3.13969">
        <ele>209.19999694824</ele>
        <time>2020-10-19T13:46:09.000Z</time>
      </trkpt>
      <trkpt lat="48.21828" lon="-3.13969">
        <ele>209.19999694824</ele>
        <time>2020-10-19T13:46:10.000Z</time>
      </trkpt>
      <trkpt lat="48.21828" lon="-3.13969">
        <ele>209.39999389648</ele>
        <time>2020-10-19T13:46:11.000Z</time>
      </trkpt>
      <trkpt lat="48.21829" lon="-3.13969">
        <ele>209.39999389648</ele>
        <time>2020-10-19T13:46:12.000Z</time>
      </trkpt>
      <trkpt lat="48.2183" lon="-3.13969">
        <ele>209.60000610352</ele>
        <time>2020-10-19T13:46:13.000Z</time>
      </trkpt>
      <trkpt lat="48.2183" lon="-3.13969">
        <ele>209.60000610352</ele>
        <time>2020-10-19T13:46:14.000Z</time>
      </trkpt>
      <trkpt lat="48.2183" lon="-3.13969">
        <ele>209.80000305176</ele>
        <time>2020-10-19T13:46:15.000Z</time>
      </trkpt>
      <trkpt lat="48.2183" lon="-3.1397">
        <ele>209.80000305176</ele>
        <time>2020-10-19T13:46:16.000Z</time>
      </trkpt>
      <trkpt lat="48.21831" lon="-3.1397">
        <ele>209.80000305176</ele>
        <time>2020-10-19T13:46:17.000Z</time>
      </trkpt>
      <trkpt lat="48.21831" lon="-3.13971">
        <ele>210</ele>
        <time>2020-10-19T13:46:18.000Z</time>
      </trkpt>
      <trkpt lat="48.21831" lon="-3.13971">
        <ele>210</ele>
        <time>2020-10-19T13:46:19.000Z</time>
      </trkpt>
      <trkpt lat="48.21831" lon="-3.13972">
        <ele>210</ele>
        <time>2020-10-19T13:46:20.000Z</time>
      </trkpt>
      <trkpt lat="48.21831" lon="-3.13972">
        <ele>210</ele>
        <time>2020-10-19T13:46:21.000Z</time>
      </trkpt>
      <trkpt lat="48.21832" lon="-3.13972">
        <ele>210.19999694824</ele>
        <time>2020-10-19T13:46:22.000Z</time>
      </trkpt>
      <trkpt lat="48.21832" lon="-3.13973">
        <ele>210.19999694824</ele>
        <time>2020-10-19T13:46:23.000Z</time>
      </trkpt>
      <trkpt lat="48.21832" lon="-3.13973">
        <ele>210.19999694824</ele>
        <time>2020-10-19T13:46:24.000Z</time>
      </trkpt>
      <trkpt lat="48.21831" lon="-3.13973">
        <ele>210</ele>
        <time>2020-10-19T13:46:25.000Z</time>
      </trkpt>
      <trkpt lat="48.21831" lon="-3.13973">
        <ele>210</ele>
        <time>2020-10-19T13:46:26.000Z</time>
      </trkpt>
      <trkpt lat="48.21831" lon="-3.13973">
        <ele>210.19999694824</ele>
        <time>2020-10-19T13:46:27.000Z</time>
      </trkpt>
      <trkpt lat="48.21832" lon="-3.13974">
        <ele>210.19999694824</ele>
        <time>2020-10-19T13:46:28.000Z</time>
      </trkpt>
      <trkpt lat="48.21832" lon="-3.13974">
        <ele>210.19999694824</ele>
        <time>2020-10-19T13:46:29.000Z</time>
      </trkpt>
      <trkpt lat="48.21832" lon="-3.13974">
        <ele>210.19999694824</ele>
        <time>2020-10-19T13:46:30.000Z</time>
      </trkpt>
      <trkpt lat="48.21832" lon="-3.13973">
        <ele>210.19999694824</ele>
        <time>2020-10-19T13:46:31.000Z</time>
      </trkpt>
      <trkpt lat="48.21832" lon="-3.13973">
        <ele>210.19999694824</ele>
        <time>2020-10-19T13:46:32.000Z</time>
      </trkpt>
      <trkpt lat="48.21832" lon="-3.13973">
        <ele>210.19999694824</ele>
        <time>2020-10-19T13:46:33.000Z</time>
      </trkpt>
      <trkpt lat="48.21832" lon="-3.13973">
        <ele>210.19999694824</ele>
        <time>2020-10-19T13:46:34.000Z</time>
      </trkpt>
      <trkpt lat="48.21832" lon="-3.13973">
        <ele>210.19999694824</ele>
        <time>2020-10-19T13:46:35.000Z</time>
      </trkpt>
      <trkpt lat="48.21833" lon="-3.13972">
        <ele>210.39999389648</ele>
        <time>2020-10-19T13:46:36.000Z</time>
      </trkpt>
      <trkpt lat="48.21833" lon="-3.13972">
        <ele>210.39999389648</ele>
        <time>2020-10-19T13:46:37.000Z</time>
      </trkpt>
      <trkpt lat="48.21833" lon="-3.13972">
        <ele>210.39999389648</ele>
        <time>2020-10-19T13:46:38.000Z</time>
      </trkpt>
      <trkpt lat="48.21833" lon="-3.13972">
        <ele>210.39999389648</ele>
        <time>2020-10-19T13:46:39.000Z</time>
      </trkpt>
      <trkpt lat="48.21833" lon="-3.13971">
        <ele>210.39999389648</ele>
        <time>2020-10-19T13:46:40.000Z</time>
      </trkpt>
      <trkpt lat="48.21833" lon="-3.13971">
        <ele>210.39999389648</ele>
        <time>2020-10-19T13:46:41.000Z</time>
      </trkpt>
      <trkpt lat="48.21833" lon="-3.13971">
        <ele>210.39999389648</ele>
        <time>2020-10-19T13:46:42.000Z</time>
      </trkpt>
      <trkpt lat="48.21833" lon="-3.13971">
        <ele>210.39999389648</ele>
        <time>2020-10-19T13:46:43.000Z</time>
      </trkpt>
      <trkpt lat="48.21833" lon="-3.13971">
        <ele>210.19999694824</ele>
        <time>2020-10-19T13:46:44.000Z</time>
      </trkpt>
      <trkpt lat="48.21832" lon="-3.13971">
        <ele>210.19999694824</ele>
        <time>2020-10-19T13:46:45.000Z</time>
      </trkpt>
      <trkpt lat="48.21832" lon="-3.13971">
        <ele>210.19999694824</ele>
        <time>2020-10-19T13:46:46.000Z</time>
      </trkpt>
      <trkpt lat="48.21832" lon="-3.13971">
        <ele>210.19999694824</ele>
        <time>2020-10-19T13:46:47.000Z</time>
      </trkpt>
      <trkpt lat="48.21832" lon="-3.13971">
        <ele>210.19999694824</ele>
        <time>2020-10-19T13:46:48.000Z</time>
      </trkpt>
      <trkpt lat="48.21832" lon="-3.13971">
        <ele>210.19999694824</ele>
        <time>2020-10-19T13:46:49.000Z</time>
      </trkpt>
      <trkpt lat="48.21832" lon="-3.13971">
        <ele>210.19999694824</ele>
        <time>2020-10-19T13:46:50.000Z</time>
      </trkpt>
      <trkpt lat="48.21832" lon="-3.13971">
        <ele>210.19999694824</ele>
        <time>2020-10-19T13:46:51.000Z</time>
      </trkpt>
      <trkpt lat="48.21832" lon="-3.13971">
        <ele>210.19999694824</ele>
        <time>2020-10-19T13:46:52.000Z</time>
      </trkpt>
      <trkpt lat="48.21832" lon="-3.13971">
        <ele>210.19999694824</ele>
        <time>2020-10-19T13:46:53.000Z</time>
      </trkpt>
      <trkpt lat="48.21832" lon="-3.13971">
        <ele>210.19999694824</ele>
        <time>2020-10-19T13:46:54.000Z</time>
      </trkpt>
      <trkpt lat="48.21832" lon="-3.13971">
        <ele>210.19999694824</ele>
        <time>2020-10-19T13:46:55.000Z</time>
      </trkpt>
      <trkpt lat="48.21832" lon="-3.13971">
        <ele>210.19999694824</ele>
        <time>2020-10-19T13:46:56.000Z</time>
      </trkpt>
      <trkpt lat="48.21832" lon="-3.13971">
        <ele>210.19999694824</ele>
        <time>2020-10-19T13:46:57.000Z</time>
      </trkpt>
      <trkpt lat="48.21832" lon="-3.1397">
        <ele>210.19999694824</ele>
        <time>2020-10-19T13:46:58.000Z</time>
      </trkpt>
      <trkpt lat="48.21832" lon="-3.1397">
        <ele>210.19999694824</ele>
        <time>2020-10-19T13:46:59.000Z</time>
      </trkpt>
      <trkpt lat="48.21833" lon="-3.13969">
        <ele>210.19999694824</ele>
        <time>2020-10-19T13:47:00.000Z</time>
      </trkpt>
      <trkpt lat="48.21833" lon="-3.13968">
        <ele>210.39999389648</ele>
        <time>2020-10-19T13:47:01.000Z</time>
      </trkpt>
      <trkpt lat="48.21834" lon="-3.13968">
        <ele>210.39999389648</ele>
        <time>2020-10-19T13:47:02.000Z</time>
      </trkpt>
      <trkpt lat="48.21834" lon="-3.13967">
        <ele>210.60000610352</ele>
        <time>2020-10-19T13:47:03.000Z</time>
      </trkpt>
      <trkpt lat="48.21835" lon="-3.13966">
        <ele>210.60000610352</ele>
        <time>2020-10-19T13:47:04.000Z</time>
      </trkpt>
      <trkpt lat="48.21835" lon="-3.13965">
        <ele>210.80000305176</ele>
        <time>2020-10-19T13:47:05.000Z</time>
      </trkpt>
      <trkpt lat="48.21836" lon="-3.13965">
        <ele>210.80000305176</ele>
        <time>2020-10-19T13:47:06.000Z</time>
      </trkpt>
      <trkpt lat="48.21836" lon="-3.13964">
        <ele>211</ele>
        <time>2020-10-19T13:47:07.000Z</time>
      </trkpt>
      <trkpt lat="48.21837" lon="-3.13963">
        <ele>211</ele>
        <time>2020-10-19T13:47:08.000Z</time>
      </trkpt>
      <trkpt lat="48.21837" lon="-3.13962">
        <ele>211.19999694824</ele>
        <time>2020-10-19T13:47:09.000Z</time>
      </trkpt>
      <trkpt lat="48.21838" lon="-3.13962">
        <ele>211.19999694824</ele>
        <time>2020-10-19T13:47:10.000Z</time>
      </trkpt>
      <trkpt lat="48.21839" lon="-3.13961">
        <ele>211.39999389648</ele>
        <time>2020-10-19T13:47:11.000Z</time>
      </trkpt>
      <trkpt lat="48.21839" lon="-3.1396">
        <ele>211.39999389648</ele>
        <time>2020-10-19T13:47:12.000Z</time>
      </trkpt>
      <trkpt lat="48.2184" lon="-3.1396">
        <ele>211.60000610352</ele>
        <time>2020-10-19T13:47:13.000Z</time>
      </trkpt>
      <trkpt lat="48.2184" lon="-3.13959">
        <ele>211.60000610352</ele>
        <time>2020-10-19T13:47:14.000Z</time>
      </trkpt>
      <trkpt lat="48.21842" lon="-3.13959">
        <ele>212</ele>
        <time>2020-10-19T13:47:15.000Z</time>
      </trkpt>
      <trkpt lat="48.21842" lon="-3.13958">
        <ele>212</ele>
        <time>2020-10-19T13:47:16.000Z</time>
      </trkpt>
      <trkpt lat="48.21843" lon="-3.13957">
        <ele>212.19999694824</ele>
        <time>2020-10-19T13:47:17.000Z</time>
      </trkpt>
      <trkpt lat="48.21843" lon="-3.13957">
        <ele>212.19999694824</ele>
        <time>2020-10-19T13:47:18.000Z</time>
      </trkpt>
      <trkpt lat="48.21844" lon="-3.13956">
        <ele>212.39999389648</ele>
        <time>2020-10-19T13:47:19.000Z</time>
      </trkpt>
      <trkpt lat="48.21844" lon="-3.13955">
        <ele>212.39999389648</ele>
        <time>2020-10-19T13:47:20.000Z</time>
      </trkpt>
      <trkpt lat="48.21845" lon="-3.13955">
        <ele>212.60000610352</ele>
        <time>2020-10-19T13:47:21.000Z</time>
      </trkpt>
      <trkpt lat="48.21845" lon="-3.13954">
        <ele>212.60000610352</ele>
        <time>2020-10-19T13:47:22.000Z</time>
      </trkpt>
      <trkpt lat="48.21846" lon="-3.13954">
        <ele>212.80000305176</ele>
        <time>2020-10-19T13:47:23.000Z</time>
      </trkpt>
      <trkpt lat="48.21846" lon="-3.13953">
        <ele>212.80000305176</ele>
        <time>2020-10-19T13:47:24.000Z</time>
      </trkpt>
      <trkpt lat="48.21847" lon="-3.13953">
        <ele>213</ele>
        <time>2020-10-19T13:47:25.000Z</time>
      </trkpt>
      <trkpt lat="48.21848" lon="-3.13952">
        <ele>213</ele>
        <time>2020-10-19T13:47:26.000Z</time>
      </trkpt>
      <trkpt lat="48.21848" lon="-3.13951">
        <ele>213.19999694824</ele>
        <time>2020-10-19T13:47:27.000Z</time>
      </trkpt>
      <trkpt lat="48.21849" lon="-3.1395">
        <ele>213.39999389648</ele>
        <time>2020-10-19T13:47:28.000Z</time>
      </trkpt>
      <trkpt lat="48.2185" lon="-3.1395">
        <ele>213.60000610352</ele>
        <time>2020-10-19T13:47:29.000Z</time>
      </trkpt>
      <trkpt lat="48.21851" lon="-3.13949">
        <ele>213.80000305176</ele>
        <time>2020-10-19T13:47:30.000Z</time>
      </trkpt>
      <trkpt lat="48.21852" lon="-3.13949">
        <ele>214</ele>
        <time>2020-10-19T13:47:31.000Z</time>
      </trkpt>
      <trkpt lat="48.21853" lon="-3.13948">
        <ele>214.19999694824</ele>
        <time>2020-10-19T13:47:32.000Z</time>
      </trkpt>
      <trkpt lat="48.21854" lon="-3.13947">
        <ele>214.39999389648</ele>
        <time>2020-10-19T13:47:33.000Z</time>
      </trkpt>
      <trkpt lat="48.21854" lon="-3.13947">
        <ele>214.60000610352</ele>
        <time>2020-10-19T13:47:34.000Z</time>
      </trkpt>
      <trkpt lat="48.21855" lon="-3.13945">
        <ele>214.80000305176</ele>
        <time>2020-10-19T13:47:35.000Z</time>
      </trkpt>
      <trkpt lat="48.21857" lon="-3.13945">
        <ele>215</ele>
        <time>2020-10-19T13:47:36.000Z</time>
      </trkpt>
      <trkpt lat="48.21857" lon="-3.13944">
        <ele>215.19999694824</ele>
        <time>2020-10-19T13:47:37.000Z</time>
      </trkpt>
      <trkpt lat="48.21858" lon="-3.13944">
        <ele>215.19999694824</ele>
        <time>2020-10-19T13:47:38.000Z</time>
      </trkpt>
      <trkpt lat="48.21859" lon="-3.13943">
        <ele>215.39999389648</ele>
        <time>2020-10-19T13:47:39.000Z</time>
      </trkpt>
      <trkpt lat="48.2186" lon="-3.13942">
        <ele>215.60000610352</ele>
        <time>2020-10-19T13:47:40.000Z</time>
      </trkpt>
      <trkpt lat="48.2186" lon="-3.13942">
        <ele>215.80000305176</ele>
        <time>2020-10-19T13:47:41.000Z</time>
      </trkpt>
      <trkpt lat="48.21861" lon="-3.13941">
        <ele>216</ele>
        <time>2020-10-19T13:47:42.000Z</time>
      </trkpt>
      <trkpt lat="48.21861" lon="-3.13941">
        <ele>216</ele>
        <time>2020-10-19T13:47:43.000Z</time>
      </trkpt>
      <trkpt lat="48.21862" lon="-3.13941">
        <ele>216.19999694824</ele>
        <time>2020-10-19T13:47:44.000Z</time>
      </trkpt>
      <trkpt lat="48.21862" lon="-3.1394">
        <ele>216.19999694824</ele>
        <time>2020-10-19T13:47:45.000Z</time>
      </trkpt>
      <trkpt lat="48.21863" lon="-3.13939">
        <ele>216.39999389648</ele>
        <time>2020-10-19T13:47:46.000Z</time>
      </trkpt>
      <trkpt lat="48.21863" lon="-3.13938">
        <ele>216.39999389648</ele>
        <time>2020-10-19T13:47:47.000Z</time>
      </trkpt>
      <trkpt lat="48.21863" lon="-3.13936">
        <ele>216.39999389648</ele>
        <time>2020-10-19T13:47:48.000Z</time>
      </trkpt>
      <trkpt lat="48.21864" lon="-3.13935">
        <ele>216.39999389648</ele>
        <time>2020-10-19T13:47:49.000Z</time>
      </trkpt>
      <trkpt lat="48.21864" lon="-3.13934">
        <ele>216.60000610352</ele>
        <time>2020-10-19T13:47:50.000Z</time>
      </trkpt>
      <trkpt lat="48.21865" lon="-3.13933">
        <ele>216.80000305176</ele>
        <time>2020-10-19T13:47:51.000Z</time>
      </trkpt>
      <trkpt lat="48.21866" lon="-3.13932">
        <ele>216.80000305176</ele>
        <time>2020-10-19T13:47:52.000Z</time>
      </trkpt>
      <trkpt lat="48.21867" lon="-3.13932">
        <ele>217.19999694824</ele>
        <time>2020-10-19T13:47:53.000Z</time>
      </trkpt>
      <trkpt lat="48.21868" lon="-3.13931">
        <ele>217.39999389648</ele>
        <time>2020-10-19T13:47:54.000Z</time>
      </trkpt>
      <trkpt lat="48.21869" lon="-3.13931">
        <ele>217.60000610352</ele>
        <time>2020-10-19T13:47:55.000Z</time>
      </trkpt>
      <trkpt lat="48.2187" lon="-3.1393">
        <ele>217.60000610352</ele>
        <time>2020-10-19T13:47:56.000Z</time>
      </trkpt>
      <trkpt lat="48.21871" lon="-3.1393">
        <ele>217.80000305176</ele>
        <time>2020-10-19T13:47:57.000Z</time>
      </trkpt>
      <trkpt lat="48.21871" lon="-3.13929">
        <ele>218</ele>
        <time>2020-10-19T13:47:58.000Z</time>
      </trkpt>
      <trkpt lat="48.21872" lon="-3.13928">
        <ele>218.19999694824</ele>
        <time>2020-10-19T13:47:59.000Z</time>
      </trkpt>
      <trkpt lat="48.21873" lon="-3.13927">
        <ele>218.39999389648</ele>
        <time>2020-10-19T13:48:00.000Z</time>
      </trkpt>
      <trkpt lat="48.21874" lon="-3.13927">
        <ele>218.60000610352</ele>
        <time>2020-10-19T13:48:01.000Z</time>
      </trkpt>
      <trkpt lat="48.21875" lon="-3.13926">
        <ele>218.80000305176</ele>
        <time>2020-10-19T13:48:02.000Z</time>
      </trkpt>
      <trkpt lat="48.21876" lon="-3.13926">
        <ele>219</ele>
        <time>2020-10-19T13:48:03.000Z</time>
      </trkpt>
      <trkpt lat="48.21877" lon="-3.13925">
        <ele>219.19999694824</ele>
        <time>2020-10-19T13:48:04.000Z</time>
      </trkpt>
      <trkpt lat="48.21878" lon="-3.13924">
        <ele>219.19999694824</ele>
        <time>2020-10-19T13:48:05.000Z</time>
      </trkpt>
      <trkpt lat="48.21878" lon="-3.13923">
        <ele>219.39999389648</ele>
        <time>2020-10-19T13:48:06.000Z</time>
      </trkpt>
      <trkpt lat="48.21879" lon="-3.13922">
        <ele>219.60000610352</ele>
        <time>2020-10-19T13:48:07.000Z</time>
      </trkpt>
      <trkpt lat="48.2188" lon="-3.13921">
        <ele>219.60000610352</ele>
        <time>2020-10-19T13:48:08.000Z</time>
      </trkpt>
      <trkpt lat="48.2188" lon="-3.1392">
        <ele>219.80000305176</ele>
        <time>2020-10-19T13:48:09.000Z</time>
      </trkpt>
      <trkpt lat="48.2188" lon="-3.13919">
        <ele>219.80000305176</ele>
        <time>2020-10-19T13:48:10.000Z</time>
      </trkpt>
      <trkpt lat="48.21881" lon="-3.13919">
        <ele>219.80000305176</ele>
        <time>2020-10-19T13:48:11.000Z</time>
      </trkpt>
      <trkpt lat="48.21881" lon="-3.13918">
        <ele>220</ele>
        <time>2020-10-19T13:48:12.000Z</time>
      </trkpt>
      <trkpt lat="48.21882" lon="-3.13918">
        <ele>220</ele>
        <time>2020-10-19T13:48:13.000Z</time>
      </trkpt>
      <trkpt lat="48.21882" lon="-3.13917">
        <ele>220</ele>
        <time>2020-10-19T13:48:14.000Z</time>
      </trkpt>
      <trkpt lat="48.21882" lon="-3.13916">
        <ele>220</ele>
        <time>2020-10-19T13:48:15.000Z</time>
      </trkpt>
      <trkpt lat="48.21882" lon="-3.13916">
        <ele>220</ele>
        <time>2020-10-19T13:48:16.000Z</time>
      </trkpt>
      <trkpt lat="48.21882" lon="-3.13915">
        <ele>220.19999694824</ele>
        <time>2020-10-19T13:48:17.000Z</time>
      </trkpt>
      <trkpt lat="48.21883" lon="-3.13915">
        <ele>220.19999694824</ele>
        <time>2020-10-19T13:48:18.000Z</time>
      </trkpt>
      <trkpt lat="48.21883" lon="-3.13915">
        <ele>220.19999694824</ele>
        <time>2020-10-19T13:48:19.000Z</time>
      </trkpt>
      <trkpt lat="48.21883" lon="-3.13914">
        <ele>220.19999694824</ele>
        <time>2020-10-19T13:48:20.000Z</time>
      </trkpt>
      <trkpt lat="48.21883" lon="-3.13914">
        <ele>220.19999694824</ele>
        <time>2020-10-19T13:48:21.000Z</time>
      </trkpt>
      <trkpt lat="48.21883" lon="-3.13914">
        <ele>220.39999389648</ele>
        <time>2020-10-19T13:48:22.000Z</time>
      </trkpt>
      <trkpt lat="48.21883" lon="-3.13913">
        <ele>220.39999389648</ele>
        <time>2020-10-19T13:48:23.000Z</time>
      </trkpt>
      <trkpt lat="48.21883" lon="-3.13913">
        <ele>220.39999389648</ele>
        <time>2020-10-19T13:48:24.000Z</time>
      </trkpt>
      <trkpt lat="48.21883" lon="-3.13913">
        <ele>220.39999389648</ele>
        <time>2020-10-19T13:48:25.000Z</time>
      </trkpt>
      <trkpt lat="48.21883" lon="-3.13913">
        <ele>220.39999389648</ele>
        <time>2020-10-19T13:48:26.000Z</time>
      </trkpt>
      <trkpt lat="48.21884" lon="-3.13913">
        <ele>220.39999389648</ele>
        <time>2020-10-19T13:48:27.000Z</time>
      </trkpt>
      <trkpt lat="48.21884" lon="-3.13913">
        <ele>220.39999389648</ele>
        <time>2020-10-19T13:48:28.000Z</time>
      </trkpt>
      <trkpt lat="48.21884" lon="-3.13913">
        <ele>220.39999389648</ele>
        <time>2020-10-19T13:48:29.000Z</time>
      </trkpt>
      <trkpt lat="48.21884" lon="-3.13913">
        <ele>220.60000610352</ele>
        <time>2020-10-19T13:48:30.000Z</time>
      </trkpt>
      <trkpt lat="48.21884" lon="-3.13913">
        <ele>220.60000610352</ele>
        <time>2020-10-19T13:48:31.000Z</time>
      </trkpt>
      <trkpt lat="48.21884" lon="-3.13912">
        <ele>220.60000610352</ele>
        <time>2020-10-19T13:48:32.000Z</time>
      </trkpt>
      <trkpt lat="48.21884" lon="-3.13912">
        <ele>220.60000610352</ele>
        <time>2020-10-19T13:48:33.000Z</time>
      </trkpt>
      <trkpt lat="48.21884" lon="-3.13911">
        <ele>220.60000610352</ele>
        <time>2020-10-19T13:48:34.000Z</time>
      </trkpt>
      <trkpt lat="48.21885" lon="-3.1391">
        <ele>220.60000610352</ele>
        <time>2020-10-19T13:48:35.000Z</time>
      </trkpt>
      <trkpt lat="48.21885" lon="-3.13909">
        <ele>220.60000610352</ele>
        <time>2020-10-19T13:48:36.000Z</time>
      </trkpt>
      <trkpt lat="48.21886" lon="-3.13908">
        <ele>220.80000305176</ele>
        <time>2020-10-19T13:48:37.000Z</time>
      </trkpt>
      <trkpt lat="48.21886" lon="-3.13907">
        <ele>220.80000305176</ele>
        <time>2020-10-19T13:48:38.000Z</time>
      </trkpt>
      <trkpt lat="48.21886" lon="-3.13906">
        <ele>220.80000305176</ele>
        <time>2020-10-19T13:48:39.000Z</time>
      </trkpt>
      <trkpt lat="48.21886" lon="-3.13905">
        <ele>220.80000305176</ele>
        <time>2020-10-19T13:48:40.000Z</time>
      </trkpt>
      <trkpt lat="48.21887" lon="-3.13905">
        <ele>221</ele>
        <time>2020-10-19T13:48:41.000Z</time>
      </trkpt>
      <trkpt lat="48.21887" lon="-3.13904">
        <ele>221</ele>
        <time>2020-10-19T13:48:42.000Z</time>
      </trkpt>
      <trkpt lat="48.21887" lon="-3.13902">
        <ele>221</ele>
        <time>2020-10-19T13:48:43.000Z</time>
      </trkpt>
      <trkpt lat="48.21887" lon="-3.13901">
        <ele>221</ele>
        <time>2020-10-19T13:48:44.000Z</time>
      </trkpt>
      <trkpt lat="48.21888" lon="-3.13899">
        <ele>221</ele>
        <time>2020-10-19T13:48:45.000Z</time>
      </trkpt>
      <trkpt lat="48.21887" lon="-3.13897">
        <ele>220.80000305176</ele>
        <time>2020-10-19T13:48:46.000Z</time>
      </trkpt>
      <trkpt lat="48.21887" lon="-3.13896">
        <ele>220.80000305176</ele>
        <time>2020-10-19T13:48:47.000Z</time>
      </trkpt>
      <trkpt lat="48.21887" lon="-3.13894">
        <ele>220.80000305176</ele>
        <time>2020-10-19T13:48:48.000Z</time>
      </trkpt>
      <trkpt lat="48.21888" lon="-3.13893">
        <ele>221</ele>
        <time>2020-10-19T13:48:49.000Z</time>
      </trkpt>
      <trkpt lat="48.21889" lon="-3.13892">
        <ele>221</ele>
        <time>2020-10-19T13:48:50.000Z</time>
      </trkpt>
      <trkpt lat="48.21888" lon="-3.1389">
        <ele>221</ele>
        <time>2020-10-19T13:48:51.000Z</time>
      </trkpt>
      <trkpt lat="48.21889" lon="-3.13889">
        <ele>221</ele>
        <time>2020-10-19T13:48:52.000Z</time>
      </trkpt>
      <trkpt lat="48.21889" lon="-3.13888">
        <ele>221</ele>
        <time>2020-10-19T13:48:53.000Z</time>
      </trkpt>
      <trkpt lat="48.21889" lon="-3.13886">
        <ele>221</ele>
        <time>2020-10-19T13:48:54.000Z</time>
      </trkpt>
      <trkpt lat="48.2189" lon="-3.13885">
        <ele>221.19999694824</ele>
        <time>2020-10-19T13:48:55.000Z</time>
      </trkpt>
      <trkpt lat="48.2189" lon="-3.13883">
        <ele>221.19999694824</ele>
        <time>2020-10-19T13:48:56.000Z</time>
      </trkpt>
      <trkpt lat="48.2189" lon="-3.13882">
        <ele>221.19999694824</ele>
        <time>2020-10-19T13:48:57.000Z</time>
      </trkpt>
      <trkpt lat="48.21891" lon="-3.13881">
        <ele>221.19999694824</ele>
        <time>2020-10-19T13:48:58.000Z</time>
      </trkpt>
      <trkpt lat="48.21891" lon="-3.1388">
        <ele>221.19999694824</ele>
        <time>2020-10-19T13:48:59.000Z</time>
      </trkpt>
      <trkpt lat="48.21891" lon="-3.13879">
        <ele>221.19999694824</ele>
        <time>2020-10-19T13:49:00.000Z</time>
      </trkpt>
      <trkpt lat="48.21892" lon="-3.13878">
        <ele>221.19999694824</ele>
        <time>2020-10-19T13:49:01.000Z</time>
      </trkpt>
      <trkpt lat="48.21892" lon="-3.13876">
        <ele>221.39999389648</ele>
        <time>2020-10-19T13:49:02.000Z</time>
      </trkpt>
      <trkpt lat="48.21893" lon="-3.13875">
        <ele>221.39999389648</ele>
        <time>2020-10-19T13:49:03.000Z</time>
      </trkpt>
      <trkpt lat="48.21893" lon="-3.13874">
        <ele>221.39999389648</ele>
        <time>2020-10-19T13:49:04.000Z</time>
      </trkpt>
      <trkpt lat="48.21894" lon="-3.13873">
        <ele>221.60000610352</ele>
        <time>2020-10-19T13:49:05.000Z</time>
      </trkpt>
      <trkpt lat="48.21894" lon="-3.13872">
        <ele>221.60000610352</ele>
        <time>2020-10-19T13:49:06.000Z</time>
      </trkpt>
      <trkpt lat="48.21894" lon="-3.13871">
        <ele>221.60000610352</ele>
        <time>2020-10-19T13:49:07.000Z</time>
      </trkpt>
      <trkpt lat="48.21895" lon="-3.1387">
        <ele>221.60000610352</ele>
        <time>2020-10-19T13:49:08.000Z</time>
      </trkpt>
      <trkpt lat="48.21895" lon="-3.13868">
        <ele>221.60000610352</ele>
        <time>2020-10-19T13:49:09.000Z</time>
      </trkpt>
      <trkpt lat="48.21895" lon="-3.13867">
        <ele>221.80000305176</ele>
        <time>2020-10-19T13:49:10.000Z</time>
      </trkpt>
      <trkpt lat="48.21896" lon="-3.13866">
        <ele>221.80000305176</ele>
        <time>2020-10-19T13:49:11.000Z</time>
      </trkpt>
      <trkpt lat="48.21896" lon="-3.13865">
        <ele>221.80000305176</ele>
        <time>2020-10-19T13:49:12.000Z</time>
      </trkpt>
      <trkpt lat="48.21896" lon="-3.13864">
        <ele>221.80000305176</ele>
        <time>2020-10-19T13:49:13.000Z</time>
      </trkpt>
      <trkpt lat="48.21897" lon="-3.13862">
        <ele>221.80000305176</ele>
        <time>2020-10-19T13:49:14.000Z</time>
      </trkpt>
      <trkpt lat="48.21897" lon="-3.1386">
        <ele>221.80000305176</ele>
        <time>2020-10-19T13:49:15.000Z</time>
      </trkpt>
      <trkpt lat="48.21898" lon="-3.13859">
        <ele>222</ele>
        <time>2020-10-19T13:49:16.000Z</time>
      </trkpt>
      <trkpt lat="48.21899" lon="-3.13858">
        <ele>222.19999694824</ele>
        <time>2020-10-19T13:49:17.000Z</time>
      </trkpt>
      <trkpt lat="48.219" lon="-3.13857">
        <ele>222.39999389648</ele>
        <time>2020-10-19T13:49:18.000Z</time>
      </trkpt>
      <trkpt lat="48.21901" lon="-3.13855">
        <ele>222.60000610352</ele>
        <time>2020-10-19T13:49:19.000Z</time>
      </trkpt>
      <trkpt lat="48.21901" lon="-3.13853">
        <ele>222.60000610352</ele>
        <time>2020-10-19T13:49:20.000Z</time>
      </trkpt>
      <trkpt lat="48.21902" lon="-3.13852">
        <ele>222.80000305176</ele>
        <time>2020-10-19T13:49:21.000Z</time>
      </trkpt>
      <trkpt lat="48.21903" lon="-3.13851">
        <ele>222.80000305176</ele>
        <time>2020-10-19T13:49:22.000Z</time>
      </trkpt>
      <trkpt lat="48.21903" lon="-3.1385">
        <ele>223</ele>
        <time>2020-10-19T13:49:23.000Z</time>
      </trkpt>
      <trkpt lat="48.21904" lon="-3.13848">
        <ele>223</ele>
        <time>2020-10-19T13:49:24.000Z</time>
      </trkpt>
      <trkpt lat="48.21905" lon="-3.13847">
        <ele>223.19999694824</ele>
        <time>2020-10-19T13:49:25.000Z</time>
      </trkpt>
      <trkpt lat="48.21905" lon="-3.13845">
        <ele>223.19999694824</ele>
        <time>2020-10-19T13:49:26.000Z</time>
      </trkpt>
      <trkpt lat="48.21906" lon="-3.13844">
        <ele>223.39999389648</ele>
        <time>2020-10-19T13:49:27.000Z</time>
      </trkpt>
      <trkpt lat="48.21907" lon="-3.13843">
        <ele>223.39999389648</ele>
        <time>2020-10-19T13:49:28.000Z</time>
      </trkpt>
      <trkpt lat="48.21907" lon="-3.13843">
        <ele>223.60000610352</ele>
        <time>2020-10-19T13:49:29.000Z</time>
      </trkpt>
      <trkpt lat="48.21908" lon="-3.13842">
        <ele>223.80000305176</ele>
        <time>2020-10-19T13:49:30.000Z</time>
      </trkpt>
      <trkpt lat="48.21908" lon="-3.13841">
        <ele>224</ele>
        <time>2020-10-19T13:49:31.000Z</time>
      </trkpt>
      <trkpt lat="48.21909" lon="-3.13839">
        <ele>224</ele>
        <time>2020-10-19T13:49:32.000Z</time>
      </trkpt>
      <trkpt lat="48.21909" lon="-3.13838">
        <ele>224</ele>
        <time>2020-10-19T13:49:33.000Z</time>
      </trkpt>
      <trkpt lat="48.21909" lon="-3.13837">
        <ele>224.19999694824</ele>
        <time>2020-10-19T13:49:34.000Z</time>
      </trkpt>
      <trkpt lat="48.2191" lon="-3.13836">
        <ele>224.19999694824</ele>
        <time>2020-10-19T13:49:35.000Z</time>
      </trkpt>
      <trkpt lat="48.2191" lon="-3.13834">
        <ele>224.19999694824</ele>
        <time>2020-10-19T13:49:36.000Z</time>
      </trkpt>
      <trkpt lat="48.2191" lon="-3.13833">
        <ele>224.39999389648</ele>
        <time>2020-10-19T13:49:37.000Z</time>
      </trkpt>
      <trkpt lat="48.21911" lon="-3.13832">
        <ele>224.60000610352</ele>
        <time>2020-10-19T13:49:38.000Z</time>
      </trkpt>
      <trkpt lat="48.21912" lon="-3.13831">
        <ele>224.60000610352</ele>
        <time>2020-10-19T13:49:39.000Z</time>
      </trkpt>
      <trkpt lat="48.21912" lon="-3.13829">
        <ele>224.60000610352</ele>
        <time>2020-10-19T13:49:40.000Z</time>
      </trkpt>
      <trkpt lat="48.21912" lon="-3.13828">
        <ele>224.80000305176</ele>
        <time>2020-10-19T13:49:41.000Z</time>
      </trkpt>
      <trkpt lat="48.21912" lon="-3.13827">
        <ele>224.80000305176</ele>
        <time>2020-10-19T13:49:42.000Z</time>
      </trkpt>
      <trkpt lat="48.21912" lon="-3.13825">
        <ele>224.80000305176</ele>
        <time>2020-10-19T13:49:43.000Z</time>
      </trkpt>
      <trkpt lat="48.21912" lon="-3.13823">
        <ele>224.80000305176</ele>
        <time>2020-10-19T13:49:44.000Z</time>
      </trkpt>
      <trkpt lat="48.21912" lon="-3.13821">
        <ele>225</ele>
        <time>2020-10-19T13:49:45.000Z</time>
      </trkpt>
      <trkpt lat="48.21913" lon="-3.1382">
        <ele>225</ele>
        <time>2020-10-19T13:49:46.000Z</time>
      </trkpt>
      <trkpt lat="48.21913" lon="-3.13818">
        <ele>225</ele>
        <time>2020-10-19T13:49:47.000Z</time>
      </trkpt>
      <trkpt lat="48.21913" lon="-3.13817">
        <ele>225.19999694824</ele>
        <time>2020-10-19T13:49:48.000Z</time>
      </trkpt>
      <trkpt lat="48.21913" lon="-3.13815">
        <ele>225.19999694824</ele>
        <time>2020-10-19T13:49:49.000Z</time>
      </trkpt>
      <trkpt lat="48.21914" lon="-3.13813">
        <ele>225.19999694824</ele>
        <time>2020-10-19T13:49:50.000Z</time>
      </trkpt>
      <trkpt lat="48.21914" lon="-3.13812">
        <ele>225.19999694824</ele>
        <time>2020-10-19T13:49:51.000Z</time>
      </trkpt>
      <trkpt lat="48.21914" lon="-3.1381">
        <ele>225.39999389648</ele>
        <time>2020-10-19T13:49:52.000Z</time>
      </trkpt>
      <trkpt lat="48.21915" lon="-3.13808">
        <ele>225.60000610352</ele>
        <time>2020-10-19T13:49:53.000Z</time>
      </trkpt>
      <trkpt lat="48.21915" lon="-3.13806">
        <ele>225.60000610352</ele>
        <time>2020-10-19T13:49:54.000Z</time>
      </trkpt>
      <trkpt lat="48.21916" lon="-3.13805">
        <ele>225.80000305176</ele>
        <time>2020-10-19T13:49:55.000Z</time>
      </trkpt>
      <trkpt lat="48.21916" lon="-3.13803">
        <ele>225.80000305176</ele>
        <time>2020-10-19T13:49:56.000Z</time>
      </trkpt>
      <trkpt lat="48.21916" lon="-3.13802">
        <ele>225.80000305176</ele>
        <time>2020-10-19T13:49:57.000Z</time>
      </trkpt>
      <trkpt lat="48.21916" lon="-3.138">
        <ele>225.80000305176</ele>
        <time>2020-10-19T13:49:58.000Z</time>
      </trkpt>
      <trkpt lat="48.21916" lon="-3.13798">
        <ele>225.80000305176</ele>
        <time>2020-10-19T13:49:59.000Z</time>
      </trkpt>
      <trkpt lat="48.21916" lon="-3.13797">
        <ele>225.80000305176</ele>
        <time>2020-10-19T13:50:00.000Z</time>
      </trkpt>
      <trkpt lat="48.21916" lon="-3.13795">
        <ele>225.80000305176</ele>
        <time>2020-10-19T13:50:01.000Z</time>
      </trkpt>
      <trkpt lat="48.21916" lon="-3.13793">
        <ele>226</ele>
        <time>2020-10-19T13:50:02.000Z</time>
      </trkpt>
      <trkpt lat="48.21917" lon="-3.13791">
        <ele>226</ele>
        <time>2020-10-19T13:50:03.000Z</time>
      </trkpt>
      <trkpt lat="48.21917" lon="-3.1379">
        <ele>226.19999694824</ele>
        <time>2020-10-19T13:50:04.000Z</time>
      </trkpt>
      <trkpt lat="48.21918" lon="-3.13789">
        <ele>226.19999694824</ele>
        <time>2020-10-19T13:50:05.000Z</time>
      </trkpt>
      <trkpt lat="48.21918" lon="-3.13788">
        <ele>226.39999389648</ele>
        <time>2020-10-19T13:50:06.000Z</time>
      </trkpt>
      <trkpt lat="48.21919" lon="-3.13787">
        <ele>226.60000610352</ele>
        <time>2020-10-19T13:50:07.000Z</time>
      </trkpt>
      <trkpt lat="48.2192" lon="-3.13786">
        <ele>226.80000305176</ele>
        <time>2020-10-19T13:50:08.000Z</time>
      </trkpt>
      <trkpt lat="48.21921" lon="-3.13784">
        <ele>227.19999694824</ele>
        <time>2020-10-19T13:50:09.000Z</time>
      </trkpt>
      <trkpt lat="48.21922" lon="-3.13784">
        <ele>227.39999389648</ele>
        <time>2020-10-19T13:50:10.000Z</time>
      </trkpt>
      <trkpt lat="48.21923" lon="-3.13783">
        <ele>227.60000610352</ele>
        <time>2020-10-19T13:50:11.000Z</time>
      </trkpt>
      <trkpt lat="48.21924" lon="-3.13782">
        <ele>227.80000305176</ele>
        <time>2020-10-19T13:50:12.000Z</time>
      </trkpt>
      <trkpt lat="48.21924" lon="-3.13781">
        <ele>227.80000305176</ele>
        <time>2020-10-19T13:50:13.000Z</time>
      </trkpt>
      <trkpt lat="48.21925" lon="-3.1378">
        <ele>228</ele>
        <time>2020-10-19T13:50:14.000Z</time>
      </trkpt>
      <trkpt lat="48.21925" lon="-3.13779">
        <ele>228.19999694824</ele>
        <time>2020-10-19T13:50:15.000Z</time>
      </trkpt>
      <trkpt lat="48.21926" lon="-3.13778">
        <ele>228.19999694824</ele>
        <time>2020-10-19T13:50:16.000Z</time>
      </trkpt>
      <trkpt lat="48.21926" lon="-3.13777">
        <ele>228.39999389648</ele>
        <time>2020-10-19T13:50:17.000Z</time>
      </trkpt>
      <trkpt lat="48.21927" lon="-3.13776">
        <ele>228.60000610352</ele>
        <time>2020-10-19T13:50:18.000Z</time>
      </trkpt>
      <trkpt lat="48.21928" lon="-3.13775">
        <ele>228.80000305176</ele>
        <time>2020-10-19T13:50:19.000Z</time>
      </trkpt>
      <trkpt lat="48.21928" lon="-3.13774">
        <ele>229</ele>
        <time>2020-10-19T13:50:20.000Z</time>
      </trkpt>
      <trkpt lat="48.21929" lon="-3.13773">
        <ele>229</ele>
        <time>2020-10-19T13:50:21.000Z</time>
      </trkpt>
      <trkpt lat="48.2193" lon="-3.13772">
        <ele>229.19999694824</ele>
        <time>2020-10-19T13:50:22.000Z</time>
      </trkpt>
      <trkpt lat="48.21932" lon="-3.1377">
        <ele>229.39999389648</ele>
        <time>2020-10-19T13:50:23.000Z</time>
      </trkpt>
      <trkpt lat="48.21932" lon="-3.1377">
        <ele>229.39999389648</ele>
        <time>2020-10-19T13:50:24.000Z</time>
      </trkpt>
      <trkpt lat="48.21933" lon="-3.13769">
        <ele>229.60000610352</ele>
        <time>2020-10-19T13:50:25.000Z</time>
      </trkpt>
      <trkpt lat="48.21933" lon="-3.13768">
        <ele>229.60000610352</ele>
        <time>2020-10-19T13:50:26.000Z</time>
      </trkpt>
      <trkpt lat="48.21934" lon="-3.13767">
        <ele>229.80000305176</ele>
        <time>2020-10-19T13:50:27.000Z</time>
      </trkpt>
      <trkpt lat="48.21934" lon="-3.13766">
        <ele>229.80000305176</ele>
        <time>2020-10-19T13:50:28.000Z</time>
      </trkpt>
      <trkpt lat="48.21935" lon="-3.13765">
        <ele>229.80000305176</ele>
        <time>2020-10-19T13:50:29.000Z</time>
      </trkpt>
      <trkpt lat="48.21936" lon="-3.13764">
        <ele>230</ele>
        <time>2020-10-19T13:50:30.000Z</time>
      </trkpt>
      <trkpt lat="48.21937" lon="-3.13763">
        <ele>230.19999694824</ele>
        <time>2020-10-19T13:50:31.000Z</time>
      </trkpt>
      <trkpt lat="48.21938" lon="-3.13762">
        <ele>230.39999389648</ele>
        <time>2020-10-19T13:50:32.000Z</time>
      </trkpt>
      <trkpt lat="48.21939" lon="-3.13762">
        <ele>230.39999389648</ele>
        <time>2020-10-19T13:50:33.000Z</time>
      </trkpt>
      <trkpt lat="48.2194" lon="-3.13761">
        <ele>230.60000610352</ele>
        <time>2020-10-19T13:50:34.000Z</time>
      </trkpt>
      <trkpt lat="48.21941" lon="-3.1376">
        <ele>230.80000305176</ele>
        <time>2020-10-19T13:50:35.000Z</time>
      </trkpt>
      <trkpt lat="48.21942" lon="-3.13759">
        <ele>230.80000305176</ele>
        <time>2020-10-19T13:50:36.000Z</time>
      </trkpt>
      <trkpt lat="48.21943" lon="-3.13759">
        <ele>231</ele>
        <time>2020-10-19T13:50:37.000Z</time>
      </trkpt>
      <trkpt lat="48.21944" lon="-3.13758">
        <ele>231.19999694824</ele>
        <time>2020-10-19T13:50:38.000Z</time>
      </trkpt>
      <trkpt lat="48.21945" lon="-3.13758">
        <ele>231.19999694824</ele>
        <time>2020-10-19T13:50:39.000Z</time>
      </trkpt>
      <trkpt lat="48.21946" lon="-3.13757">
        <ele>231.39999389648</ele>
        <time>2020-10-19T13:50:40.000Z</time>
      </trkpt>
      <trkpt lat="48.21947" lon="-3.13757">
        <ele>231.60000610352</ele>
        <time>2020-10-19T13:50:41.000Z</time>
      </trkpt>
      <trkpt lat="48.21948" lon="-3.13756">
        <ele>231.60000610352</ele>
        <time>2020-10-19T13:50:42.000Z</time>
      </trkpt>
      <trkpt lat="48.21949" lon="-3.13756">
        <ele>231.80000305176</ele>
        <time>2020-10-19T13:50:43.000Z</time>
      </trkpt>
      <trkpt lat="48.2195" lon="-3.13755">
        <ele>232</ele>
        <time>2020-10-19T13:50:44.000Z</time>
      </trkpt>
      <trkpt lat="48.21951" lon="-3.13755">
        <ele>232</ele>
        <time>2020-10-19T13:50:45.000Z</time>
      </trkpt>
      <trkpt lat="48.21951" lon="-3.13754">
        <ele>232.19999694824</ele>
        <time>2020-10-19T13:50:46.000Z</time>
      </trkpt>
      <trkpt lat="48.21952" lon="-3.13754">
        <ele>232.39999389648</ele>
        <time>2020-10-19T13:50:47.000Z</time>
      </trkpt>
      <trkpt lat="48.21953" lon="-3.13753">
        <ele>232.39999389648</ele>
        <time>2020-10-19T13:50:48.000Z</time>
      </trkpt>
      <trkpt lat="48.21954" lon="-3.13752">
        <ele>232.60000610352</ele>
        <time>2020-10-19T13:50:49.000Z</time>
      </trkpt>
      <trkpt lat="48.21955" lon="-3.13752">
        <ele>232.60000610352</ele>
        <time>2020-10-19T13:50:50.000Z</time>
      </trkpt>
      <trkpt lat="48.21955" lon="-3.13751">
        <ele>232.80000305176</ele>
        <time>2020-10-19T13:50:51.000Z</time>
      </trkpt>
      <trkpt lat="48.21956" lon="-3.13751">
        <ele>232.80000305176</ele>
        <time>2020-10-19T13:50:52.000Z</time>
      </trkpt>
      <trkpt lat="48.21957" lon="-3.1375">
        <ele>233</ele>
        <time>2020-10-19T13:50:53.000Z</time>
      </trkpt>
      <trkpt lat="48.21958" lon="-3.13749">
        <ele>233.19999694824</ele>
        <time>2020-10-19T13:50:54.000Z</time>
      </trkpt>
      <trkpt lat="48.21959" lon="-3.13748">
        <ele>233.19999694824</ele>
        <time>2020-10-19T13:50:55.000Z</time>
      </trkpt>
      <trkpt lat="48.2196" lon="-3.13748">
        <ele>233.39999389648</ele>
        <time>2020-10-19T13:50:56.000Z</time>
      </trkpt>
      <trkpt lat="48.21961" lon="-3.13747">
        <ele>233.60000610352</ele>
        <time>2020-10-19T13:50:57.000Z</time>
      </trkpt>
      <trkpt lat="48.21962" lon="-3.13747">
        <ele>233.60000610352</ele>
        <time>2020-10-19T13:50:58.000Z</time>
      </trkpt>
      <trkpt lat="48.21963" lon="-3.13746">
        <ele>233.80000305176</ele>
        <time>2020-10-19T13:50:59.000Z</time>
      </trkpt>
      <trkpt lat="48.21965" lon="-3.13745">
        <ele>234</ele>
        <time>2020-10-19T13:51:00.000Z</time>
      </trkpt>
      <trkpt lat="48.21965" lon="-3.13745">
        <ele>234</ele>
        <time>2020-10-19T13:51:01.000Z</time>
      </trkpt>
      <trkpt lat="48.21966" lon="-3.13745">
        <ele>234.19999694824</ele>
        <time>2020-10-19T13:51:02.000Z</time>
      </trkpt>
      <trkpt lat="48.21967" lon="-3.13744">
        <ele>234.39999389648</ele>
        <time>2020-10-19T13:51:03.000Z</time>
      </trkpt>
      <trkpt lat="48.21968" lon="-3.13743">
        <ele>234.39999389648</ele>
        <time>2020-10-19T13:51:04.000Z</time>
      </trkpt>
      <trkpt lat="48.21969" lon="-3.13742">
        <ele>234.60000610352</ele>
        <time>2020-10-19T13:51:05.000Z</time>
      </trkpt>
      <trkpt lat="48.21969" lon="-3.13741">
        <ele>234.60000610352</ele>
        <time>2020-10-19T13:51:06.000Z</time>
      </trkpt>
      <trkpt lat="48.2197" lon="-3.13739">
        <ele>234.80000305176</ele>
        <time>2020-10-19T13:51:07.000Z</time>
      </trkpt>
      <trkpt lat="48.21971" lon="-3.13738">
        <ele>234.80000305176</ele>
        <time>2020-10-19T13:51:08.000Z</time>
      </trkpt>
      <trkpt lat="48.21971" lon="-3.13737">
        <ele>234.80000305176</ele>
        <time>2020-10-19T13:51:09.000Z</time>
      </trkpt>
      <trkpt lat="48.21972" lon="-3.13736">
        <ele>234.80000305176</ele>
        <time>2020-10-19T13:51:10.000Z</time>
      </trkpt>
      <trkpt lat="48.21972" lon="-3.13735">
        <ele>235</ele>
        <time>2020-10-19T13:51:11.000Z</time>
      </trkpt>
      <trkpt lat="48.21973" lon="-3.13734">
        <ele>235</ele>
        <time>2020-10-19T13:51:12.000Z</time>
      </trkpt>
      <trkpt lat="48.21974" lon="-3.13733">
        <ele>235.19999694824</ele>
        <time>2020-10-19T13:51:13.000Z</time>
      </trkpt>
      <trkpt lat="48.21975" lon="-3.13732">
        <ele>235.39999389648</ele>
        <time>2020-10-19T13:51:14.000Z</time>
      </trkpt>
      <trkpt lat="48.21976" lon="-3.1373">
        <ele>235.39999389648</ele>
        <time>2020-10-19T13:51:15.000Z</time>
      </trkpt>
      <trkpt lat="48.21976" lon="-3.13729">
        <ele>235.39999389648</ele>
        <time>2020-10-19T13:51:16.000Z</time>
      </trkpt>
      <trkpt lat="48.21977" lon="-3.13728">
        <ele>235.60000610352</ele>
        <time>2020-10-19T13:51:17.000Z</time>
      </trkpt>
      <trkpt lat="48.21977" lon="-3.13727">
        <ele>235.60000610352</ele>
        <time>2020-10-19T13:51:18.000Z</time>
      </trkpt>
      <trkpt lat="48.21978" lon="-3.13726">
        <ele>235.60000610352</ele>
        <time>2020-10-19T13:51:19.000Z</time>
      </trkpt>
      <trkpt lat="48.21979" lon="-3.13724">
        <ele>235.80000305176</ele>
        <time>2020-10-19T13:51:20.000Z</time>
      </trkpt>
      <trkpt lat="48.2198" lon="-3.13723">
        <ele>235.80000305176</ele>
        <time>2020-10-19T13:51:21.000Z</time>
      </trkpt>
      <trkpt lat="48.2198" lon="-3.13722">
        <ele>236</ele>
        <time>2020-10-19T13:51:22.000Z</time>
      </trkpt>
      <trkpt lat="48.2198" lon="-3.13721">
        <ele>236</ele>
        <time>2020-10-19T13:51:23.000Z</time>
      </trkpt>
      <trkpt lat="48.21981" lon="-3.13719">
        <ele>236</ele>
        <time>2020-10-19T13:51:24.000Z</time>
      </trkpt>
      <trkpt lat="48.2198" lon="-3.13718">
        <ele>236</ele>
        <time>2020-10-19T13:51:25.000Z</time>
      </trkpt>
      <trkpt lat="48.2198" lon="-3.13717">
        <ele>235.80000305176</ele>
        <time>2020-10-19T13:51:26.000Z</time>
      </trkpt>
      <trkpt lat="48.2198" lon="-3.13715">
        <ele>235.80000305176</ele>
        <time>2020-10-19T13:51:27.000Z</time>
      </trkpt>
      <trkpt lat="48.21979" lon="-3.13714">
        <ele>235.80000305176</ele>
        <time>2020-10-19T13:51:28.000Z</time>
      </trkpt>
      <trkpt lat="48.21979" lon="-3.13713">
        <ele>235.60000610352</ele>
        <time>2020-10-19T13:51:29.000Z</time>
      </trkpt>
      <trkpt lat="48.21979" lon="-3.13711">
        <ele>235.60000610352</ele>
        <time>2020-10-19T13:51:30.000Z</time>
      </trkpt>
      <trkpt lat="48.21978" lon="-3.1371">
        <ele>235.60000610352</ele>
        <time>2020-10-19T13:51:31.000Z</time>
      </trkpt>
      <trkpt lat="48.21978" lon="-3.13708">
        <ele>235.60000610352</ele>
        <time>2020-10-19T13:51:32.000Z</time>
      </trkpt>
      <trkpt lat="48.21978" lon="-3.13707">
        <ele>235.60000610352</ele>
        <time>2020-10-19T13:51:33.000Z</time>
      </trkpt>
      <trkpt lat="48.21978" lon="-3.13706">
        <ele>235.39999389648</ele>
        <time>2020-10-19T13:51:34.000Z</time>
      </trkpt>
      <trkpt lat="48.21977" lon="-3.13704">
        <ele>235.39999389648</ele>
        <time>2020-10-19T13:51:35.000Z</time>
      </trkpt>
      <trkpt lat="48.21977" lon="-3.13703">
        <ele>235.39999389648</ele>
        <time>2020-10-19T13:51:36.000Z</time>
      </trkpt>
      <trkpt lat="48.21977" lon="-3.13701">
        <ele>235.39999389648</ele>
        <time>2020-10-19T13:51:37.000Z</time>
      </trkpt>
      <trkpt lat="48.21976" lon="-3.13699">
        <ele>235.19999694824</ele>
        <time>2020-10-19T13:51:38.000Z</time>
      </trkpt>
      <trkpt lat="48.21976" lon="-3.13698">
        <ele>235.19999694824</ele>
        <time>2020-10-19T13:51:39.000Z</time>
      </trkpt>
      <trkpt lat="48.21975" lon="-3.13696">
        <ele>235.19999694824</ele>
        <time>2020-10-19T13:51:40.000Z</time>
      </trkpt>
      <trkpt lat="48.21975" lon="-3.13694">
        <ele>235</ele>
        <time>2020-10-19T13:51:41.000Z</time>
      </trkpt>
      <trkpt lat="48.21974" lon="-3.13692">
        <ele>235</ele>
        <time>2020-10-19T13:51:42.000Z</time>
      </trkpt>
      <trkpt lat="48.21974" lon="-3.13691">
        <ele>235</ele>
        <time>2020-10-19T13:51:43.000Z</time>
      </trkpt>
      <trkpt lat="48.21974" lon="-3.1369">
        <ele>235</ele>
        <time>2020-10-19T13:51:44.000Z</time>
      </trkpt>
      <trkpt lat="48.21975" lon="-3.13689">
        <ele>235</ele>
        <time>2020-10-19T13:51:45.000Z</time>
      </trkpt>
      <trkpt lat="48.21975" lon="-3.13689">
        <ele>235.19999694824</ele>
        <time>2020-10-19T13:51:46.000Z</time>
      </trkpt>
      <trkpt lat="48.21975" lon="-3.13689">
        <ele>235.19999694824</ele>
        <time>2020-10-19T13:51:47.000Z</time>
      </trkpt>
      <trkpt lat="48.21975" lon="-3.13689">
        <ele>235.19999694824</ele>
        <time>2020-10-19T13:51:48.000Z</time>
      </trkpt>
      <trkpt lat="48.21975" lon="-3.13689">
        <ele>235.19999694824</ele>
        <time>2020-10-19T13:51:49.000Z</time>
      </trkpt>
      <trkpt lat="48.21976" lon="-3.1369">
        <ele>235.19999694824</ele>
        <time>2020-10-19T13:51:50.000Z</time>
      </trkpt>
      <trkpt lat="48.21976" lon="-3.1369">
        <ele>235.19999694824</ele>
        <time>2020-10-19T13:51:51.000Z</time>
      </trkpt>
      <trkpt lat="48.21975" lon="-3.1369">
        <ele>235.19999694824</ele>
        <time>2020-10-19T13:51:52.000Z</time>
      </trkpt>
      <trkpt lat="48.21976" lon="-3.13691">
        <ele>235.19999694824</ele>
        <time>2020-10-19T13:51:53.000Z</time>
      </trkpt>
      <trkpt lat="48.21976" lon="-3.13691">
        <ele>235.19999694824</ele>
        <time>2020-10-19T13:51:54.000Z</time>
      </trkpt>
      <trkpt lat="48.21976" lon="-3.13691">
        <ele>235.19999694824</ele>
        <time>2020-10-19T13:51:55.000Z</time>
      </trkpt>
      <trkpt lat="48.21976" lon="-3.13691">
        <ele>235.19999694824</ele>
        <time>2020-10-19T13:51:56.000Z</time>
      </trkpt>
      <trkpt lat="48.21976" lon="-3.13691">
        <ele>235.19999694824</ele>
        <time>2020-10-19T13:51:57.000Z</time>
      </trkpt>
      <trkpt lat="48.21976" lon="-3.13692">
        <ele>235.19999694824</ele>
        <time>2020-10-19T13:51:58.000Z</time>
      </trkpt>
      <trkpt lat="48.21976" lon="-3.13692">
        <ele>235.19999694824</ele>
        <time>2020-10-19T13:51:59.000Z</time>
      </trkpt>
      <trkpt lat="48.21976" lon="-3.13692">
        <ele>235.19999694824</ele>
        <time>2020-10-19T13:52:00.000Z</time>
      </trkpt>
      <trkpt lat="48.21976" lon="-3.13692">
        <ele>235.19999694824</ele>
        <time>2020-10-19T13:52:01.000Z</time>
      </trkpt>
      <trkpt lat="48.21976" lon="-3.13691">
        <ele>235.19999694824</ele>
        <time>2020-10-19T13:52:02.000Z</time>
      </trkpt>
      <trkpt lat="48.21975" lon="-3.13691">
        <ele>235.19999694824</ele>
        <time>2020-10-19T13:52:03.000Z</time>
      </trkpt>
      <trkpt lat="48.21975" lon="-3.13691">
        <ele>235.19999694824</ele>
        <time>2020-10-19T13:52:04.000Z</time>
      </trkpt>
      <trkpt lat="48.21975" lon="-3.13691">
        <ele>235.19999694824</ele>
        <time>2020-10-19T13:52:05.000Z</time>
      </trkpt>
      <trkpt lat="48.21975" lon="-3.13691">
        <ele>235.19999694824</ele>
        <time>2020-10-19T13:52:06.000Z</time>
      </trkpt>
      <trkpt lat="48.21975" lon="-3.13691">
        <ele>235.19999694824</ele>
        <time>2020-10-19T13:52:07.000Z</time>
      </trkpt>
      <trkpt lat="48.21975" lon="-3.13691">
        <ele>235.19999694824</ele>
        <time>2020-10-19T13:52:08.000Z</time>
      </trkpt>
      <trkpt lat="48.21975" lon="-3.13691">
        <ele>235.19999694824</ele>
        <time>2020-10-19T13:52:09.000Z</time>
      </trkpt>
      <trkpt lat="48.21975" lon="-3.13691">
        <ele>235.19999694824</ele>
        <time>2020-10-19T13:52:10.000Z</time>
      </trkpt>
      <trkpt lat="48.21975" lon="-3.13691">
        <ele>235.19999694824</ele>
        <time>2020-10-19T13:52:11.000Z</time>
      </trkpt>
      <trkpt lat="48.21975" lon="-3.13691">
        <ele>235.19999694824</ele>
        <time>2020-10-19T13:52:12.000Z</time>
      </trkpt>
      <trkpt lat="48.21975" lon="-3.13691">
        <ele>235.19999694824</ele>
        <time>2020-10-19T13:52:13.000Z</time>
      </trkpt>
      <trkpt lat="48.21975" lon="-3.13691">
        <ele>235.19999694824</ele>
        <time>2020-10-19T13:52:14.000Z</time>
      </trkpt>
      <trkpt lat="48.21975" lon="-3.13691">
        <ele>235.19999694824</ele>
        <time>2020-10-19T13:52:15.000Z</time>
      </trkpt>
      <trkpt lat="48.21975" lon="-3.13691">
        <ele>235.19999694824</ele>
        <time>2020-10-19T13:52:16.000Z</time>
      </trkpt>
      <trkpt lat="48.21975" lon="-3.13691">
        <ele>235.19999694824</ele>
        <time>2020-10-19T13:52:17.000Z</time>
      </trkpt>
      <trkpt lat="48.21975" lon="-3.13691">
        <ele>235.19999694824</ele>
        <time>2020-10-19T13:52:18.000Z</time>
      </trkpt>
      <trkpt lat="48.21975" lon="-3.13691">
        <ele>235.19999694824</ele>
        <time>2020-10-19T13:52:19.000Z</time>
      </trkpt>
      <trkpt lat="48.21975" lon="-3.13691">
        <ele>235.19999694824</ele>
        <time>2020-10-19T13:52:20.000Z</time>
      </trkpt>
      <trkpt lat="48.21975" lon="-3.13691">
        <ele>235.19999694824</ele>
        <time>2020-10-19T13:52:21.000Z</time>
      </trkpt>
      <trkpt lat="48.21975" lon="-3.13691">
        <ele>235.19999694824</ele>
        <time>2020-10-19T13:52:22.000Z</time>
      </trkpt>
      <trkpt lat="48.21975" lon="-3.13691">
        <ele>235.19999694824</ele>
        <time>2020-10-19T13:52:23.000Z</time>
      </trkpt>
      <trkpt lat="48.21975" lon="-3.13691">
        <ele>235.19999694824</ele>
        <time>2020-10-19T13:52:24.000Z</time>
      </trkpt>
      <trkpt lat="48.21975" lon="-3.13692">
        <ele>235.19999694824</ele>
        <time>2020-10-19T13:52:25.000Z</time>
      </trkpt>
      <trkpt lat="48.21975" lon="-3.13692">
        <ele>235.19999694824</ele>
        <time>2020-10-19T13:52:26.000Z</time>
      </trkpt>
      <trkpt lat="48.21975" lon="-3.13692">
        <ele>235.19999694824</ele>
        <time>2020-10-19T13:52:27.000Z</time>
      </trkpt>
      <trkpt lat="48.21975" lon="-3.13692">
        <ele>235.19999694824</ele>
        <time>2020-10-19T13:52:28.000Z</time>
      </trkpt>
      <trkpt lat="48.21975" lon="-3.13692">
        <ele>235.19999694824</ele>
        <time>2020-10-19T13:52:29.000Z</time>
      </trkpt>
      <trkpt lat="48.21975" lon="-3.13692">
        <ele>235.19999694824</ele>
        <time>2020-10-19T13:52:30.000Z</time>
      </trkpt>
      <trkpt lat="48.21975" lon="-3.13692">
        <ele>235.19999694824</ele>
        <time>2020-10-19T13:52:31.000Z</time>
      </trkpt>
      <trkpt lat="48.21975" lon="-3.13692">
        <ele>235.19999694824</ele>
        <time>2020-10-19T13:52:32.000Z</time>
      </trkpt>
      <trkpt lat="48.21975" lon="-3.13692">
        <ele>235.19999694824</ele>
        <time>2020-10-19T13:52:33.000Z</time>
      </trkpt>
      <trkpt lat="48.21975" lon="-3.13692">
        <ele>235.19999694824</ele>
        <time>2020-10-19T13:52:34.000Z</time>
      </trkpt>
      <trkpt lat="48.21975" lon="-3.13692">
        <ele>235.19999694824</ele>
        <time>2020-10-19T13:52:35.000Z</time>
      </trkpt>
      <trkpt lat="48.21976" lon="-3.13692">
        <ele>235.19999694824</ele>
        <time>2020-10-19T13:52:36.000Z</time>
      </trkpt>
      <trkpt lat="48.21976" lon="-3.13692">
        <ele>235.19999694824</ele>
        <time>2020-10-19T13:52:37.000Z</time>
      </trkpt>
      <trkpt lat="48.21975" lon="-3.13692">
        <ele>235.19999694824</ele>
        <time>2020-10-19T13:52:38.000Z</time>
      </trkpt>
      <trkpt lat="48.21975" lon="-3.13692">
        <ele>235.19999694824</ele>
        <time>2020-10-19T13:52:39.000Z</time>
      </trkpt>
      <trkpt lat="48.21975" lon="-3.13692">
        <ele>235.19999694824</ele>
        <time>2020-10-19T13:52:40.000Z</time>
      </trkpt>
      <trkpt lat="48.21975" lon="-3.13692">
        <ele>235.19999694824</ele>
        <time>2020-10-19T13:52:41.000Z</time>
      </trkpt>
      <trkpt lat="48.21975" lon="-3.13692">
        <ele>235.19999694824</ele>
        <time>2020-10-19T13:52:42.000Z</time>
      </trkpt>
      <trkpt lat="48.21975" lon="-3.13692">
        <ele>235.19999694824</ele>
        <time>2020-10-19T13:52:43.000Z</time>
      </trkpt>
      <trkpt lat="48.21975" lon="-3.13692">
        <ele>235.19999694824</ele>
        <time>2020-10-19T13:52:44.000Z</time>
      </trkpt>
      <trkpt lat="48.21975" lon="-3.13692">
        <ele>235.19999694824</ele>
        <time>2020-10-19T13:52:45.000Z</time>
      </trkpt>
      <trkpt lat="48.21975" lon="-3.13692">
        <ele>235.19999694824</ele>
        <time>2020-10-19T13:52:46.000Z</time>
      </trkpt>
      <trkpt lat="48.21975" lon="-3.13692">
        <ele>235.19999694824</ele>
        <time>2020-10-19T13:52:47.000Z</time>
      </trkpt>
      <trkpt lat="48.21976" lon="-3.13692">
        <ele>235.19999694824</ele>
        <time>2020-10-19T13:52:48.000Z</time>
      </trkpt>
      <trkpt lat="48.21975" lon="-3.13692">
        <ele>235.19999694824</ele>
        <time>2020-10-19T13:52:49.000Z</time>
      </trkpt>
      <trkpt lat="48.21975" lon="-3.13692">
        <ele>235.19999694824</ele>
        <time>2020-10-19T13:52:50.000Z</time>
      </trkpt>
      <trkpt lat="48.21975" lon="-3.13692">
        <ele>235.19999694824</ele>
        <time>2020-10-19T13:52:51.000Z</time>
      </trkpt>
      <trkpt lat="48.21975" lon="-3.13692">
        <ele>235.19999694824</ele>
        <time>2020-10-19T13:52:52.000Z</time>
      </trkpt>
      <trkpt lat="48.21975" lon="-3.13692">
        <ele>235.19999694824</ele>
        <time>2020-10-19T13:52:53.000Z</time>
      </trkpt>
      <trkpt lat="48.21976" lon="-3.13692">
        <ele>235.19999694824</ele>
        <time>2020-10-19T13:52:54.000Z</time>
      </trkpt>
      <trkpt lat="48.21975" lon="-3.13692">
        <ele>235.19999694824</ele>
        <time>2020-10-19T13:52:55.000Z</time>
      </trkpt>
      <trkpt lat="48.21975" lon="-3.13692">
        <ele>235.19999694824</ele>
        <time>2020-10-19T13:52:56.000Z</time>
      </trkpt>
      <trkpt lat="48.21975" lon="-3.13692">
        <ele>235.19999694824</ele>
        <time>2020-10-19T13:52:57.000Z</time>
      </trkpt>
      <trkpt lat="48.21975" lon="-3.13692">
        <ele>235.19999694824</ele>
        <time>2020-10-19T13:52:58.000Z</time>
      </trkpt>
      <trkpt lat="48.21975" lon="-3.13692">
        <ele>235.19999694824</ele>
        <time>2020-10-19T13:52:59.000Z</time>
      </trkpt>
      <trkpt lat="48.21975" lon="-3.13692">
        <ele>235.19999694824</ele>
        <time>2020-10-19T13:53:00.000Z</time>
      </trkpt>
      <trkpt lat="48.21975" lon="-3.13692">
        <ele>235.19999694824</ele>
        <time>2020-10-19T13:53:01.000Z</time>
      </trkpt>
      <trkpt lat="48.21975" lon="-3.13692">
        <ele>235.19999694824</ele>
        <time>2020-10-19T13:53:02.000Z</time>
      </trkpt>
      <trkpt lat="48.21975" lon="-3.13692">
        <ele>235.19999694824</ele>
        <time>2020-10-19T13:53:03.000Z</time>
      </trkpt>
      <trkpt lat="48.21975" lon="-3.13692">
        <ele>235.19999694824</ele>
        <time>2020-10-19T13:53:04.000Z</time>
      </trkpt>
      <trkpt lat="48.21975" lon="-3.13692">
        <ele>235.19999694824</ele>
        <time>2020-10-19T13:53:05.000Z</time>
      </trkpt>
      <trkpt lat="48.21975" lon="-3.13692">
        <ele>235.19999694824</ele>
        <time>2020-10-19T13:53:06.000Z</time>
      </trkpt>
      <trkpt lat="48.21975" lon="-3.13692">
        <ele>235.19999694824</ele>
        <time>2020-10-19T13:53:07.000Z</time>
      </trkpt>
      <trkpt lat="48.21975" lon="-3.13692">
        <ele>235.19999694824</ele>
        <time>2020-10-19T13:53:08.000Z</time>
      </trkpt>
      <trkpt lat="48.21975" lon="-3.13692">
        <ele>235.19999694824</ele>
        <time>2020-10-19T13:53:09.000Z</time>
      </trkpt>
      <trkpt lat="48.21975" lon="-3.13692">
        <ele>235.19999694824</ele>
        <time>2020-10-19T13:53:10.000Z</time>
      </trkpt>
      <trkpt lat="48.21975" lon="-3.13692">
        <ele>235.19999694824</ele>
        <time>2020-10-19T13:53:11.000Z</time>
      </trkpt>
      <trkpt lat="48.21975" lon="-3.13692">
        <ele>235.19999694824</ele>
        <time>2020-10-19T13:53:12.000Z</time>
      </trkpt>
      <trkpt lat="48.21975" lon="-3.13692">
        <ele>235.19999694824</ele>
        <time>2020-10-19T13:53:13.000Z</time>
      </trkpt>
      <trkpt lat="48.21975" lon="-3.13692">
        <ele>235.19999694824</ele>
        <time>2020-10-19T13:53:14.000Z</time>
      </trkpt>
      <trkpt lat="48.21975" lon="-3.13692">
        <ele>235.19999694824</ele>
        <time>2020-10-19T13:53:15.000Z</time>
      </trkpt>
      <trkpt lat="48.21975" lon="-3.13692">
        <ele>235.19999694824</ele>
        <time>2020-10-19T13:53:16.000Z</time>
      </trkpt>
      <trkpt lat="48.21975" lon="-3.13692">
        <ele>235.19999694824</ele>
        <time>2020-10-19T13:53:17.000Z</time>
      </trkpt>
      <trkpt lat="48.21975" lon="-3.13691">
        <ele>235.19999694824</ele>
        <time>2020-10-19T13:53:18.000Z</time>
      </trkpt>
      <trkpt lat="48.21975" lon="-3.1369">
        <ele>235</ele>
        <time>2020-10-19T13:53:19.000Z</time>
      </trkpt>
      <trkpt lat="48.21975" lon="-3.13688">
        <ele>235</ele>
        <time>2020-10-19T13:53:20.000Z</time>
      </trkpt>
      <trkpt lat="48.21974" lon="-3.13687">
        <ele>235</ele>
        <time>2020-10-19T13:53:21.000Z</time>
      </trkpt>
      <trkpt lat="48.21974" lon="-3.13686">
        <ele>235</ele>
        <time>2020-10-19T13:53:22.000Z</time>
      </trkpt>
      <trkpt lat="48.21974" lon="-3.13684">
        <ele>235</ele>
        <time>2020-10-19T13:53:23.000Z</time>
      </trkpt>
      <trkpt lat="48.21974" lon="-3.13682">
        <ele>235</ele>
        <time>2020-10-19T13:53:24.000Z</time>
      </trkpt>
      <trkpt lat="48.21973" lon="-3.1368">
        <ele>234.80000305176</ele>
        <time>2020-10-19T13:53:25.000Z</time>
      </trkpt>
      <trkpt lat="48.21973" lon="-3.13679">
        <ele>234.80000305176</ele>
        <time>2020-10-19T13:53:26.000Z</time>
      </trkpt>
      <trkpt lat="48.21973" lon="-3.13677">
        <ele>234.80000305176</ele>
        <time>2020-10-19T13:53:27.000Z</time>
      </trkpt>
      <trkpt lat="48.21973" lon="-3.13676">
        <ele>235</ele>
        <time>2020-10-19T13:53:28.000Z</time>
      </trkpt>
      <trkpt lat="48.21973" lon="-3.13674">
        <ele>235</ele>
        <time>2020-10-19T13:53:29.000Z</time>
      </trkpt>
      <trkpt lat="48.21973" lon="-3.13672">
        <ele>235</ele>
        <time>2020-10-19T13:53:30.000Z</time>
      </trkpt>
      <trkpt lat="48.21973" lon="-3.13671">
        <ele>235</ele>
        <time>2020-10-19T13:53:31.000Z</time>
      </trkpt>
      <trkpt lat="48.21973" lon="-3.13669">
        <ele>235.19999694824</ele>
        <time>2020-10-19T13:53:32.000Z</time>
      </trkpt>
      <trkpt lat="48.21973" lon="-3.13668">
        <ele>235.19999694824</ele>
        <time>2020-10-19T13:53:33.000Z</time>
      </trkpt>
      <trkpt lat="48.21973" lon="-3.13666">
        <ele>235.19999694824</ele>
        <time>2020-10-19T13:53:34.000Z</time>
      </trkpt>
      <trkpt lat="48.21973" lon="-3.13665">
        <ele>235.39999389648</ele>
        <time>2020-10-19T13:53:35.000Z</time>
      </trkpt>
      <trkpt lat="48.21973" lon="-3.13663">
        <ele>235.39999389648</ele>
        <time>2020-10-19T13:53:36.000Z</time>
      </trkpt>
      <trkpt lat="48.21973" lon="-3.13662">
        <ele>235.39999389648</ele>
        <time>2020-10-19T13:53:37.000Z</time>
      </trkpt>
      <trkpt lat="48.21973" lon="-3.1366">
        <ele>235.39999389648</ele>
        <time>2020-10-19T13:53:38.000Z</time>
      </trkpt>
      <trkpt lat="48.21973" lon="-3.13659">
        <ele>235.60000610352</ele>
        <time>2020-10-19T13:53:39.000Z</time>
      </trkpt>
      <trkpt lat="48.21973" lon="-3.13657">
        <ele>235.60000610352</ele>
        <time>2020-10-19T13:53:40.000Z</time>
      </trkpt>
      <trkpt lat="48.21973" lon="-3.13655">
        <ele>235.60000610352</ele>
        <time>2020-10-19T13:53:41.000Z</time>
      </trkpt>
      <trkpt lat="48.21972" lon="-3.13652">
        <ele>235.60000610352</ele>
        <time>2020-10-19T13:53:42.000Z</time>
      </trkpt>
      <trkpt lat="48.21972" lon="-3.13652">
        <ele>235.60000610352</ele>
        <time>2020-10-19T13:53:43.000Z</time>
      </trkpt>
      <trkpt lat="48.21972" lon="-3.1365">
        <ele>235.60000610352</ele>
        <time>2020-10-19T13:53:44.000Z</time>
      </trkpt>
      <trkpt lat="48.21972" lon="-3.13649">
        <ele>235.60000610352</ele>
        <time>2020-10-19T13:53:45.000Z</time>
      </trkpt>
      <trkpt lat="48.21971" lon="-3.13647">
        <ele>235.80000305176</ele>
        <time>2020-10-19T13:53:46.000Z</time>
      </trkpt>
      <trkpt lat="48.21971" lon="-3.13645">
        <ele>235.80000305176</ele>
        <time>2020-10-19T13:53:47.000Z</time>
      </trkpt>
      <trkpt lat="48.21971" lon="-3.13644">
        <ele>235.80000305176</ele>
        <time>2020-10-19T13:53:48.000Z</time>
      </trkpt>
      <trkpt lat="48.2197" lon="-3.13642">
        <ele>235.80000305176</ele>
        <time>2020-10-19T13:53:49.000Z</time>
      </trkpt>
      <trkpt lat="48.2197" lon="-3.13641">
        <ele>235.80000305176</ele>
        <time>2020-10-19T13:53:50.000Z</time>
      </trkpt>
      <trkpt lat="48.2197" lon="-3.13639">
        <ele>235.80000305176</ele>
        <time>2020-10-19T13:53:51.000Z</time>
      </trkpt>
      <trkpt lat="48.21969" lon="-3.13637">
        <ele>235.80000305176</ele>
        <time>2020-10-19T13:53:52.000Z</time>
      </trkpt>
      <trkpt lat="48.21969" lon="-3.13636">
        <ele>235.80000305176</ele>
        <time>2020-10-19T13:53:53.000Z</time>
      </trkpt>
      <trkpt lat="48.21969" lon="-3.13634">
        <ele>235.80000305176</ele>
        <time>2020-10-19T13:53:54.000Z</time>
      </trkpt>
      <trkpt lat="48.21968" lon="-3.13633">
        <ele>235.80000305176</ele>
        <time>2020-10-19T13:53:55.000Z</time>
      </trkpt>
      <trkpt lat="48.21968" lon="-3.13631">
        <ele>235.80000305176</ele>
        <time>2020-10-19T13:53:56.000Z</time>
      </trkpt>
      <trkpt lat="48.21967" lon="-3.1363">
        <ele>235.80000305176</ele>
        <time>2020-10-19T13:53:57.000Z</time>
      </trkpt>
      <trkpt lat="48.21967" lon="-3.13627">
        <ele>235.60000610352</ele>
        <time>2020-10-19T13:53:58.000Z</time>
      </trkpt>
      <trkpt lat="48.21967" lon="-3.13627">
        <ele>235.60000610352</ele>
        <time>2020-10-19T13:53:59.000Z</time>
      </trkpt>
      <trkpt lat="48.21966" lon="-3.13625">
        <ele>235.60000610352</ele>
        <time>2020-10-19T13:54:00.000Z</time>
      </trkpt>
      <trkpt lat="48.21966" lon="-3.13624">
        <ele>235.60000610352</ele>
        <time>2020-10-19T13:54:01.000Z</time>
      </trkpt>
      <trkpt lat="48.21966" lon="-3.13622">
        <ele>235.60000610352</ele>
        <time>2020-10-19T13:54:02.000Z</time>
      </trkpt>
      <trkpt lat="48.21966" lon="-3.13621">
        <ele>235.60000610352</ele>
        <time>2020-10-19T13:54:03.000Z</time>
      </trkpt>
      <trkpt lat="48.21965" lon="-3.13619">
        <ele>235.60000610352</ele>
        <time>2020-10-19T13:54:04.000Z</time>
      </trkpt>
      <trkpt lat="48.21965" lon="-3.13617">
        <ele>235.60000610352</ele>
        <time>2020-10-19T13:54:05.000Z</time>
      </trkpt>
      <trkpt lat="48.21965" lon="-3.13616">
        <ele>235.60000610352</ele>
        <time>2020-10-19T13:54:06.000Z</time>
      </trkpt>
      <trkpt lat="48.21965" lon="-3.13614">
        <ele>235.60000610352</ele>
        <time>2020-10-19T13:54:07.000Z</time>
      </trkpt>
      <trkpt lat="48.21964" lon="-3.13612">
        <ele>235.80000305176</ele>
        <time>2020-10-19T13:54:08.000Z</time>
      </trkpt>
      <trkpt lat="48.21964" lon="-3.1361">
        <ele>235.60000610352</ele>
        <time>2020-10-19T13:54:09.000Z</time>
      </trkpt>
      <trkpt lat="48.21964" lon="-3.13608">
        <ele>235.60000610352</ele>
        <time>2020-10-19T13:54:10.000Z</time>
      </trkpt>
      <trkpt lat="48.21963" lon="-3.13607">
        <ele>235.60000610352</ele>
        <time>2020-10-19T13:54:11.000Z</time>
      </trkpt>
      <trkpt lat="48.21963" lon="-3.13605">
        <ele>235.60000610352</ele>
        <time>2020-10-19T13:54:12.000Z</time>
      </trkpt>
      <trkpt lat="48.21963" lon="-3.13604">
        <ele>235.80000305176</ele>
        <time>2020-10-19T13:54:13.000Z</time>
      </trkpt>
      <trkpt lat="48.21963" lon="-3.13602">
        <ele>235.80000305176</ele>
        <time>2020-10-19T13:54:14.000Z</time>
      </trkpt>
      <trkpt lat="48.21963" lon="-3.13601">
        <ele>235.80000305176</ele>
        <time>2020-10-19T13:54:15.000Z</time>
      </trkpt>
      <trkpt lat="48.21963" lon="-3.13599">
        <ele>235.80000305176</ele>
        <time>2020-10-19T13:54:16.000Z</time>
      </trkpt>
      <trkpt lat="48.21963" lon="-3.13598">
        <ele>235.80000305176</ele>
        <time>2020-10-19T13:54:17.000Z</time>
      </trkpt>
      <trkpt lat="48.21963" lon="-3.13596">
        <ele>236</ele>
        <time>2020-10-19T13:54:18.000Z</time>
      </trkpt>
      <trkpt lat="48.21964" lon="-3.13595">
        <ele>236</ele>
        <time>2020-10-19T13:54:19.000Z</time>
      </trkpt>
      <trkpt lat="48.21964" lon="-3.13593">
        <ele>236</ele>
        <time>2020-10-19T13:54:20.000Z</time>
      </trkpt>
      <trkpt lat="48.21963" lon="-3.13592">
        <ele>236</ele>
        <time>2020-10-19T13:54:21.000Z</time>
      </trkpt>
      <trkpt lat="48.21963" lon="-3.1359">
        <ele>236.19999694824</ele>
        <time>2020-10-19T13:54:22.000Z</time>
      </trkpt>
      <trkpt lat="48.21963" lon="-3.13587">
        <ele>236.19999694824</ele>
        <time>2020-10-19T13:54:23.000Z</time>
      </trkpt>
      <trkpt lat="48.21963" lon="-3.13587">
        <ele>236.19999694824</ele>
        <time>2020-10-19T13:54:24.000Z</time>
      </trkpt>
      <trkpt lat="48.21963" lon="-3.13585">
        <ele>236.19999694824</ele>
        <time>2020-10-19T13:54:25.000Z</time>
      </trkpt>
      <trkpt lat="48.21963" lon="-3.13583">
        <ele>236.39999389648</ele>
        <time>2020-10-19T13:54:26.000Z</time>
      </trkpt>
      <trkpt lat="48.21963" lon="-3.13581">
        <ele>236.39999389648</ele>
        <time>2020-10-19T13:54:27.000Z</time>
      </trkpt>
      <trkpt lat="48.21963" lon="-3.13578">
        <ele>236.39999389648</ele>
        <time>2020-10-19T13:54:28.000Z</time>
      </trkpt>
      <trkpt lat="48.21963" lon="-3.13578">
        <ele>236.39999389648</ele>
        <time>2020-10-19T13:54:29.000Z</time>
      </trkpt>
      <trkpt lat="48.21963" lon="-3.13576">
        <ele>236.60000610352</ele>
        <time>2020-10-19T13:54:30.000Z</time>
      </trkpt>
      <trkpt lat="48.21963" lon="-3.13575">
        <ele>236.60000610352</ele>
        <time>2020-10-19T13:54:31.000Z</time>
      </trkpt>
      <trkpt lat="48.21962" lon="-3.13573">
        <ele>236.60000610352</ele>
        <time>2020-10-19T13:54:32.000Z</time>
      </trkpt>
      <trkpt lat="48.21962" lon="-3.13572">
        <ele>236.60000610352</ele>
        <time>2020-10-19T13:54:33.000Z</time>
      </trkpt>
      <trkpt lat="48.21962" lon="-3.13568">
        <ele>236.60000610352</ele>
        <time>2020-10-19T13:54:34.000Z</time>
      </trkpt>
      <trkpt lat="48.21962" lon="-3.13568">
        <ele>236.60000610352</ele>
        <time>2020-10-19T13:54:35.000Z</time>
      </trkpt>
      <trkpt lat="48.21961" lon="-3.13566">
        <ele>236.80000305176</ele>
        <time>2020-10-19T13:54:36.000Z</time>
      </trkpt>
      <trkpt lat="48.21961" lon="-3.13565">
        <ele>236.80000305176</ele>
        <time>2020-10-19T13:54:37.000Z</time>
      </trkpt>
      <trkpt lat="48.21961" lon="-3.13563">
        <ele>236.80000305176</ele>
        <time>2020-10-19T13:54:38.000Z</time>
      </trkpt>
      <trkpt lat="48.21961" lon="-3.13562">
        <ele>236.80000305176</ele>
        <time>2020-10-19T13:54:39.000Z</time>
      </trkpt>
      <trkpt lat="48.2196" lon="-3.1356">
        <ele>236.80000305176</ele>
        <time>2020-10-19T13:54:40.000Z</time>
      </trkpt>
      <trkpt lat="48.2196" lon="-3.13558">
        <ele>236.80000305176</ele>
        <time>2020-10-19T13:54:41.000Z</time>
      </trkpt>
      <trkpt lat="48.2196" lon="-3.13557">
        <ele>236.80000305176</ele>
        <time>2020-10-19T13:54:42.000Z</time>
      </trkpt>
      <trkpt lat="48.2196" lon="-3.13555">
        <ele>237</ele>
        <time>2020-10-19T13:54:43.000Z</time>
      </trkpt>
      <trkpt lat="48.2196" lon="-3.13554">
        <ele>237</ele>
        <time>2020-10-19T13:54:44.000Z</time>
      </trkpt>
      <trkpt lat="48.2196" lon="-3.13552">
        <ele>237.19999694824</ele>
        <time>2020-10-19T13:54:45.000Z</time>
      </trkpt>
      <trkpt lat="48.2196" lon="-3.1355">
        <ele>237.19999694824</ele>
        <time>2020-10-19T13:54:46.000Z</time>
      </trkpt>
      <trkpt lat="48.2196" lon="-3.13548">
        <ele>237.19999694824</ele>
        <time>2020-10-19T13:54:47.000Z</time>
      </trkpt>
      <trkpt lat="48.21959" lon="-3.13547">
        <ele>237.39999389648</ele>
        <time>2020-10-19T13:54:48.000Z</time>
      </trkpt>
      <trkpt lat="48.21959" lon="-3.13544">
        <ele>237.39999389648</ele>
        <time>2020-10-19T13:54:49.000Z</time>
      </trkpt>
      <trkpt lat="48.21959" lon="-3.13544">
        <ele>237.39999389648</ele>
        <time>2020-10-19T13:54:50.000Z</time>
      </trkpt>
      <trkpt lat="48.21959" lon="-3.13542">
        <ele>237.39999389648</ele>
        <time>2020-10-19T13:54:51.000Z</time>
      </trkpt>
      <trkpt lat="48.21959" lon="-3.1354">
        <ele>237.60000610352</ele>
        <time>2020-10-19T13:54:52.000Z</time>
      </trkpt>
      <trkpt lat="48.21959" lon="-3.13538">
        <ele>237.60000610352</ele>
        <time>2020-10-19T13:54:53.000Z</time>
      </trkpt>
      <trkpt lat="48.21958" lon="-3.13536">
        <ele>237.60000610352</ele>
        <time>2020-10-19T13:54:54.000Z</time>
      </trkpt>
      <trkpt lat="48.21958" lon="-3.13534">
        <ele>237.80000305176</ele>
        <time>2020-10-19T13:54:55.000Z</time>
      </trkpt>
      <trkpt lat="48.21958" lon="-3.13532">
        <ele>237.80000305176</ele>
        <time>2020-10-19T13:54:56.000Z</time>
      </trkpt>
      <trkpt lat="48.21957" lon="-3.13531">
        <ele>237.80000305176</ele>
        <time>2020-10-19T13:54:57.000Z</time>
      </trkpt>
      <trkpt lat="48.21957" lon="-3.13529">
        <ele>237.80000305176</ele>
        <time>2020-10-19T13:54:58.000Z</time>
      </trkpt>
      <trkpt lat="48.21957" lon="-3.13527">
        <ele>237.80000305176</ele>
        <time>2020-10-19T13:54:59.000Z</time>
      </trkpt>
      <trkpt lat="48.21956" lon="-3.13526">
        <ele>237.80000305176</ele>
        <time>2020-10-19T13:55:00.000Z</time>
      </trkpt>
      <trkpt lat="48.21955" lon="-3.13524">
        <ele>237.80000305176</ele>
        <time>2020-10-19T13:55:01.000Z</time>
      </trkpt>
      <trkpt lat="48.21954" lon="-3.13523">
        <ele>237.80000305176</ele>
        <time>2020-10-19T13:55:02.000Z</time>
      </trkpt>
      <trkpt lat="48.21954" lon="-3.13522">
        <ele>237.80000305176</ele>
        <time>2020-10-19T13:55:03.000Z</time>
      </trkpt>
      <trkpt lat="48.21953" lon="-3.13521">
        <ele>237.60000610352</ele>
        <time>2020-10-19T13:55:04.000Z</time>
      </trkpt>
      <trkpt lat="48.21952" lon="-3.1352">
        <ele>237.60000610352</ele>
        <time>2020-10-19T13:55:05.000Z</time>
      </trkpt>
      <trkpt lat="48.21951" lon="-3.13519">
        <ele>237.60000610352</ele>
        <time>2020-10-19T13:55:06.000Z</time>
      </trkpt>
      <trkpt lat="48.21951" lon="-3.13518">
        <ele>237.60000610352</ele>
        <time>2020-10-19T13:55:07.000Z</time>
      </trkpt>
      <trkpt lat="48.2195" lon="-3.13517">
        <ele>237.39999389648</ele>
        <time>2020-10-19T13:55:08.000Z</time>
      </trkpt>
      <trkpt lat="48.21949" lon="-3.13516">
        <ele>237.39999389648</ele>
        <time>2020-10-19T13:55:09.000Z</time>
      </trkpt>
      <trkpt lat="48.21948" lon="-3.13514">
        <ele>237.39999389648</ele>
        <time>2020-10-19T13:55:10.000Z</time>
      </trkpt>
      <trkpt lat="48.21947" lon="-3.13513">
        <ele>237.39999389648</ele>
        <time>2020-10-19T13:55:11.000Z</time>
      </trkpt>
      <trkpt lat="48.21946" lon="-3.13511">
        <ele>237.39999389648</ele>
        <time>2020-10-19T13:55:12.000Z</time>
      </trkpt>
      <trkpt lat="48.21946" lon="-3.1351">
        <ele>237.19999694824</ele>
        <time>2020-10-19T13:55:13.000Z</time>
      </trkpt>
      <trkpt lat="48.21945" lon="-3.13508">
        <ele>237.19999694824</ele>
        <time>2020-10-19T13:55:14.000Z</time>
      </trkpt>
      <trkpt lat="48.21944" lon="-3.13507">
        <ele>237.19999694824</ele>
        <time>2020-10-19T13:55:15.000Z</time>
      </trkpt>
      <trkpt lat="48.21943" lon="-3.13506">
        <ele>237</ele>
        <time>2020-10-19T13:55:16.000Z</time>
      </trkpt>
      <trkpt lat="48.21942" lon="-3.13504">
        <ele>237</ele>
        <time>2020-10-19T13:55:17.000Z</time>
      </trkpt>
      <trkpt lat="48.21941" lon="-3.13503">
        <ele>236.80000305176</ele>
        <time>2020-10-19T13:55:18.000Z</time>
      </trkpt>
      <trkpt lat="48.21941" lon="-3.13502">
        <ele>236.80000305176</ele>
        <time>2020-10-19T13:55:19.000Z</time>
      </trkpt>
      <trkpt lat="48.2194" lon="-3.135">
        <ele>236.80000305176</ele>
        <time>2020-10-19T13:55:20.000Z</time>
      </trkpt>
      <trkpt lat="48.21939" lon="-3.13499">
        <ele>236.60000610352</ele>
        <time>2020-10-19T13:55:21.000Z</time>
      </trkpt>
      <trkpt lat="48.21939" lon="-3.13497">
        <ele>236.60000610352</ele>
        <time>2020-10-19T13:55:22.000Z</time>
      </trkpt>
      <trkpt lat="48.21938" lon="-3.13495">
        <ele>236.39999389648</ele>
        <time>2020-10-19T13:55:23.000Z</time>
      </trkpt>
      <trkpt lat="48.21938" lon="-3.13495">
        <ele>236.39999389648</ele>
        <time>2020-10-19T13:55:24.000Z</time>
      </trkpt>
      <trkpt lat="48.21937" lon="-3.13493">
        <ele>236.39999389648</ele>
        <time>2020-10-19T13:55:25.000Z</time>
      </trkpt>
      <trkpt lat="48.21937" lon="-3.13491">
        <ele>236.19999694824</ele>
        <time>2020-10-19T13:55:26.000Z</time>
      </trkpt>
      <trkpt lat="48.21936" lon="-3.1349">
        <ele>236.19999694824</ele>
        <time>2020-10-19T13:55:27.000Z</time>
      </trkpt>
      <trkpt lat="48.21936" lon="-3.13488">
        <ele>236.19999694824</ele>
        <time>2020-10-19T13:55:28.000Z</time>
      </trkpt>
      <trkpt lat="48.21935" lon="-3.13487">
        <ele>236</ele>
        <time>2020-10-19T13:55:29.000Z</time>
      </trkpt>
      <trkpt lat="48.21935" lon="-3.13485">
        <ele>236</ele>
        <time>2020-10-19T13:55:30.000Z</time>
      </trkpt>
      <trkpt lat="48.21934" lon="-3.13484">
        <ele>235.80000305176</ele>
        <time>2020-10-19T13:55:31.000Z</time>
      </trkpt>
      <trkpt lat="48.21933" lon="-3.13483">
        <ele>235.80000305176</ele>
        <time>2020-10-19T13:55:32.000Z</time>
      </trkpt>
      <trkpt lat="48.21933" lon="-3.13481">
        <ele>235.60000610352</ele>
        <time>2020-10-19T13:55:33.000Z</time>
      </trkpt>
      <trkpt lat="48.21932" lon="-3.13479">
        <ele>235.39999389648</ele>
        <time>2020-10-19T13:55:34.000Z</time>
      </trkpt>
      <trkpt lat="48.21931" lon="-3.13477">
        <ele>235.39999389648</ele>
        <time>2020-10-19T13:55:35.000Z</time>
      </trkpt>
      <trkpt lat="48.2193" lon="-3.13476">
        <ele>235.19999694824</ele>
        <time>2020-10-19T13:55:36.000Z</time>
      </trkpt>
      <trkpt lat="48.2193" lon="-3.13474">
        <ele>235.19999694824</ele>
        <time>2020-10-19T13:55:37.000Z</time>
      </trkpt>
      <trkpt lat="48.21929" lon="-3.13472">
        <ele>235.19999694824</ele>
        <time>2020-10-19T13:55:38.000Z</time>
      </trkpt>
      <trkpt lat="48.21929" lon="-3.13471">
        <ele>235</ele>
        <time>2020-10-19T13:55:39.000Z</time>
      </trkpt>
      <trkpt lat="48.21929" lon="-3.13469">
        <ele>235</ele>
        <time>2020-10-19T13:55:40.000Z</time>
      </trkpt>
      <trkpt lat="48.21928" lon="-3.13467">
        <ele>234.80000305176</ele>
        <time>2020-10-19T13:55:41.000Z</time>
      </trkpt>
      <trkpt lat="48.21928" lon="-3.13466">
        <ele>234.80000305176</ele>
        <time>2020-10-19T13:55:42.000Z</time>
      </trkpt>
      <trkpt lat="48.21928" lon="-3.13464">
        <ele>234.80000305176</ele>
        <time>2020-10-19T13:55:43.000Z</time>
      </trkpt>
      <trkpt lat="48.21928" lon="-3.13462">
        <ele>234.80000305176</ele>
        <time>2020-10-19T13:55:44.000Z</time>
      </trkpt>
      <trkpt lat="48.21928" lon="-3.1346">
        <ele>234.80000305176</ele>
        <time>2020-10-19T13:55:45.000Z</time>
      </trkpt>
      <trkpt lat="48.21927" lon="-3.13459">
        <ele>234.60000610352</ele>
        <time>2020-10-19T13:55:46.000Z</time>
      </trkpt>
      <trkpt lat="48.21927" lon="-3.13457">
        <ele>234.60000610352</ele>
        <time>2020-10-19T13:55:47.000Z</time>
      </trkpt>
      <trkpt lat="48.21927" lon="-3.13455">
        <ele>234.39999389648</ele>
        <time>2020-10-19T13:55:48.000Z</time>
      </trkpt>
      <trkpt lat="48.21927" lon="-3.13454">
        <ele>234.39999389648</ele>
        <time>2020-10-19T13:55:49.000Z</time>
      </trkpt>
      <trkpt lat="48.21926" lon="-3.13452">
        <ele>234.39999389648</ele>
        <time>2020-10-19T13:55:50.000Z</time>
      </trkpt>
      <trkpt lat="48.21926" lon="-3.1345">
        <ele>234.39999389648</ele>
        <time>2020-10-19T13:55:51.000Z</time>
      </trkpt>
      <trkpt lat="48.21926" lon="-3.13448">
        <ele>234.19999694824</ele>
        <time>2020-10-19T13:55:52.000Z</time>
      </trkpt>
      <trkpt lat="48.21926" lon="-3.13447">
        <ele>234.19999694824</ele>
        <time>2020-10-19T13:55:53.000Z</time>
      </trkpt>
      <trkpt lat="48.21926" lon="-3.13445">
        <ele>234.19999694824</ele>
        <time>2020-10-19T13:55:54.000Z</time>
      </trkpt>
      <trkpt lat="48.21926" lon="-3.13443">
        <ele>234.39999389648</ele>
        <time>2020-10-19T13:55:55.000Z</time>
      </trkpt>
      <trkpt lat="48.21926" lon="-3.13441">
        <ele>234.39999389648</ele>
        <time>2020-10-19T13:55:56.000Z</time>
      </trkpt>
      <trkpt lat="48.21926" lon="-3.13439">
        <ele>234.39999389648</ele>
        <time>2020-10-19T13:55:57.000Z</time>
      </trkpt>
      <trkpt lat="48.21926" lon="-3.13438">
        <ele>234.19999694824</ele>
        <time>2020-10-19T13:55:58.000Z</time>
      </trkpt>
      <trkpt lat="48.21927" lon="-3.13436">
        <ele>234.39999389648</ele>
        <time>2020-10-19T13:55:59.000Z</time>
      </trkpt>
      <trkpt lat="48.21927" lon="-3.13434">
        <ele>234.39999389648</ele>
        <time>2020-10-19T13:56:00.000Z</time>
      </trkpt>
      <trkpt lat="48.21927" lon="-3.13432">
        <ele>234.39999389648</ele>
        <time>2020-10-19T13:56:01.000Z</time>
      </trkpt>
      <trkpt lat="48.21927" lon="-3.1343">
        <ele>234.39999389648</ele>
        <time>2020-10-19T13:56:02.000Z</time>
      </trkpt>
      <trkpt lat="48.21926" lon="-3.13429">
        <ele>234.39999389648</ele>
        <time>2020-10-19T13:56:03.000Z</time>
      </trkpt>
      <trkpt lat="48.21926" lon="-3.13427">
        <ele>234.19999694824</ele>
        <time>2020-10-19T13:56:04.000Z</time>
      </trkpt>
      <trkpt lat="48.21926" lon="-3.13425">
        <ele>234.19999694824</ele>
        <time>2020-10-19T13:56:05.000Z</time>
      </trkpt>
      <trkpt lat="48.21926" lon="-3.13423">
        <ele>234.39999389648</ele>
        <time>2020-10-19T13:56:06.000Z</time>
      </trkpt>
      <trkpt lat="48.21926" lon="-3.13421">
        <ele>234.39999389648</ele>
        <time>2020-10-19T13:56:07.000Z</time>
      </trkpt>
      <trkpt lat="48.21927" lon="-3.1342">
        <ele>234.39999389648</ele>
        <time>2020-10-19T13:56:08.000Z</time>
      </trkpt>
      <trkpt lat="48.21927" lon="-3.13418">
        <ele>234.39999389648</ele>
        <time>2020-10-19T13:56:09.000Z</time>
      </trkpt>
      <trkpt lat="48.21927" lon="-3.13416">
        <ele>234.60000610352</ele>
        <time>2020-10-19T13:56:10.000Z</time>
      </trkpt>
      <trkpt lat="48.21928" lon="-3.13415">
        <ele>234.60000610352</ele>
        <time>2020-10-19T13:56:11.000Z</time>
      </trkpt>
      <trkpt lat="48.21928" lon="-3.13413">
        <ele>234.80000305176</ele>
        <time>2020-10-19T13:56:12.000Z</time>
      </trkpt>
      <trkpt lat="48.21928" lon="-3.13411">
        <ele>234.80000305176</ele>
        <time>2020-10-19T13:56:13.000Z</time>
      </trkpt>
      <trkpt lat="48.21928" lon="-3.1341">
        <ele>234.80000305176</ele>
        <time>2020-10-19T13:56:14.000Z</time>
      </trkpt>
      <trkpt lat="48.21928" lon="-3.13408">
        <ele>235</ele>
        <time>2020-10-19T13:56:15.000Z</time>
      </trkpt>
      <trkpt lat="48.21929" lon="-3.13407">
        <ele>235</ele>
        <time>2020-10-19T13:56:16.000Z</time>
      </trkpt>
      <trkpt lat="48.21929" lon="-3.13405">
        <ele>235</ele>
        <time>2020-10-19T13:56:17.000Z</time>
      </trkpt>
      <trkpt lat="48.21929" lon="-3.13403">
        <ele>235</ele>
        <time>2020-10-19T13:56:18.000Z</time>
      </trkpt>
      <trkpt lat="48.21929" lon="-3.13401">
        <ele>235</ele>
        <time>2020-10-19T13:56:19.000Z</time>
      </trkpt>
      <trkpt lat="48.21929" lon="-3.134">
        <ele>235</ele>
        <time>2020-10-19T13:56:20.000Z</time>
      </trkpt>
      <trkpt lat="48.21928" lon="-3.13398">
        <ele>234.80000305176</ele>
        <time>2020-10-19T13:56:21.000Z</time>
      </trkpt>
      <trkpt lat="48.21928" lon="-3.13396">
        <ele>234.80000305176</ele>
        <time>2020-10-19T13:56:22.000Z</time>
      </trkpt>
      <trkpt lat="48.21928" lon="-3.13395">
        <ele>234.80000305176</ele>
        <time>2020-10-19T13:56:23.000Z</time>
      </trkpt>
      <trkpt lat="48.21927" lon="-3.13393">
        <ele>234.60000610352</ele>
        <time>2020-10-19T13:56:24.000Z</time>
      </trkpt>
      <trkpt lat="48.21927" lon="-3.13391">
        <ele>234.60000610352</ele>
        <time>2020-10-19T13:56:25.000Z</time>
      </trkpt>
      <trkpt lat="48.21927" lon="-3.13389">
        <ele>234.60000610352</ele>
        <time>2020-10-19T13:56:26.000Z</time>
      </trkpt>
      <trkpt lat="48.21927" lon="-3.13388">
        <ele>234.60000610352</ele>
        <time>2020-10-19T13:56:27.000Z</time>
      </trkpt>
      <trkpt lat="48.21927" lon="-3.13386">
        <ele>234.60000610352</ele>
        <time>2020-10-19T13:56:28.000Z</time>
      </trkpt>
      <trkpt lat="48.21928" lon="-3.13385">
        <ele>234.80000305176</ele>
        <time>2020-10-19T13:56:29.000Z</time>
      </trkpt>
      <trkpt lat="48.21928" lon="-3.13383">
        <ele>234.80000305176</ele>
        <time>2020-10-19T13:56:30.000Z</time>
      </trkpt>
      <trkpt lat="48.21928" lon="-3.13382">
        <ele>235</ele>
        <time>2020-10-19T13:56:31.000Z</time>
      </trkpt>
      <trkpt lat="48.21929" lon="-3.1338">
        <ele>235</ele>
        <time>2020-10-19T13:56:32.000Z</time>
      </trkpt>
      <trkpt lat="48.21929" lon="-3.13378">
        <ele>235</ele>
        <time>2020-10-19T13:56:33.000Z</time>
      </trkpt>
      <trkpt lat="48.21929" lon="-3.13377">
        <ele>235</ele>
        <time>2020-10-19T13:56:34.000Z</time>
      </trkpt>
      <trkpt lat="48.2193" lon="-3.13375">
        <ele>235.19999694824</ele>
        <time>2020-10-19T13:56:35.000Z</time>
      </trkpt>
      <trkpt lat="48.2193" lon="-3.13374">
        <ele>235.19999694824</ele>
        <time>2020-10-19T13:56:36.000Z</time>
      </trkpt>
      <trkpt lat="48.21931" lon="-3.13372">
        <ele>235.39999389648</ele>
        <time>2020-10-19T13:56:37.000Z</time>
      </trkpt>
      <trkpt lat="48.21931" lon="-3.1337">
        <ele>235.39999389648</ele>
        <time>2020-10-19T13:56:38.000Z</time>
      </trkpt>
      <trkpt lat="48.21931" lon="-3.13369">
        <ele>235.39999389648</ele>
        <time>2020-10-19T13:56:39.000Z</time>
      </trkpt>
      <trkpt lat="48.21932" lon="-3.13367">
        <ele>235.60000610352</ele>
        <time>2020-10-19T13:56:40.000Z</time>
      </trkpt>
      <trkpt lat="48.21932" lon="-3.13366">
        <ele>235.60000610352</ele>
        <time>2020-10-19T13:56:41.000Z</time>
      </trkpt>
      <trkpt lat="48.21932" lon="-3.13364">
        <ele>235.60000610352</ele>
        <time>2020-10-19T13:56:42.000Z</time>
      </trkpt>
      <trkpt lat="48.21933" lon="-3.13363">
        <ele>235.60000610352</ele>
        <time>2020-10-19T13:56:43.000Z</time>
      </trkpt>
      <trkpt lat="48.21933" lon="-3.13361">
        <ele>235.80000305176</ele>
        <time>2020-10-19T13:56:44.000Z</time>
      </trkpt>
      <trkpt lat="48.21933" lon="-3.13359">
        <ele>235.80000305176</ele>
        <time>2020-10-19T13:56:45.000Z</time>
      </trkpt>
      <trkpt lat="48.21934" lon="-3.13358">
        <ele>235.80000305176</ele>
        <time>2020-10-19T13:56:46.000Z</time>
      </trkpt>
      <trkpt lat="48.21934" lon="-3.13356">
        <ele>236</ele>
        <time>2020-10-19T13:56:47.000Z</time>
      </trkpt>
      <trkpt lat="48.21935" lon="-3.13355">
        <ele>236</ele>
        <time>2020-10-19T13:56:48.000Z</time>
      </trkpt>
      <trkpt lat="48.21935" lon="-3.13353">
        <ele>236</ele>
        <time>2020-10-19T13:56:49.000Z</time>
      </trkpt>
      <trkpt lat="48.21936" lon="-3.13351">
        <ele>236.19999694824</ele>
        <time>2020-10-19T13:56:50.000Z</time>
      </trkpt>
      <trkpt lat="48.21936" lon="-3.1335">
        <ele>236.19999694824</ele>
        <time>2020-10-19T13:56:51.000Z</time>
      </trkpt>
      <trkpt lat="48.21936" lon="-3.13348">
        <ele>236.19999694824</ele>
        <time>2020-10-19T13:56:52.000Z</time>
      </trkpt>
      <trkpt lat="48.21936" lon="-3.13347">
        <ele>236.19999694824</ele>
        <time>2020-10-19T13:56:53.000Z</time>
      </trkpt>
      <trkpt lat="48.21936" lon="-3.13345">
        <ele>236.19999694824</ele>
        <time>2020-10-19T13:56:54.000Z</time>
      </trkpt>
      <trkpt lat="48.21936" lon="-3.13344">
        <ele>236.19999694824</ele>
        <time>2020-10-19T13:56:55.000Z</time>
      </trkpt>
      <trkpt lat="48.21936" lon="-3.13342">
        <ele>236.19999694824</ele>
        <time>2020-10-19T13:56:56.000Z</time>
      </trkpt>
      <trkpt lat="48.21936" lon="-3.13341">
        <ele>236.19999694824</ele>
        <time>2020-10-19T13:56:57.000Z</time>
      </trkpt>
      <trkpt lat="48.21936" lon="-3.13339">
        <ele>236.19999694824</ele>
        <time>2020-10-19T13:56:58.000Z</time>
      </trkpt>
      <trkpt lat="48.21936" lon="-3.13338">
        <ele>236.19999694824</ele>
        <time>2020-10-19T13:56:59.000Z</time>
      </trkpt>
      <trkpt lat="48.21936" lon="-3.13336">
        <ele>236.19999694824</ele>
        <time>2020-10-19T13:57:00.000Z</time>
      </trkpt>
      <trkpt lat="48.21937" lon="-3.13335">
        <ele>236.19999694824</ele>
        <time>2020-10-19T13:57:01.000Z</time>
      </trkpt>
      <trkpt lat="48.21936" lon="-3.13334">
        <ele>236.19999694824</ele>
        <time>2020-10-19T13:57:02.000Z</time>
      </trkpt>
      <trkpt lat="48.21936" lon="-3.13333">
        <ele>236.19999694824</ele>
        <time>2020-10-19T13:57:03.000Z</time>
      </trkpt>
      <trkpt lat="48.21936" lon="-3.13331">
        <ele>236.39999389648</ele>
        <time>2020-10-19T13:57:04.000Z</time>
      </trkpt>
      <trkpt lat="48.21936" lon="-3.13329">
        <ele>236.39999389648</ele>
        <time>2020-10-19T13:57:05.000Z</time>
      </trkpt>
      <trkpt lat="48.21936" lon="-3.13328">
        <ele>236.39999389648</ele>
        <time>2020-10-19T13:57:06.000Z</time>
      </trkpt>
      <trkpt lat="48.21936" lon="-3.13327">
        <ele>236.39999389648</ele>
        <time>2020-10-19T13:57:07.000Z</time>
      </trkpt>
      <trkpt lat="48.21936" lon="-3.13325">
        <ele>236.39999389648</ele>
        <time>2020-10-19T13:57:08.000Z</time>
      </trkpt>
      <trkpt lat="48.21937" lon="-3.13323">
        <ele>236.60000610352</ele>
        <time>2020-10-19T13:57:09.000Z</time>
      </trkpt>
      <trkpt lat="48.21937" lon="-3.13322">
        <ele>236.60000610352</ele>
        <time>2020-10-19T13:57:10.000Z</time>
      </trkpt>
      <trkpt lat="48.21937" lon="-3.1332">
        <ele>236.60000610352</ele>
        <time>2020-10-19T13:57:11.000Z</time>
      </trkpt>
      <trkpt lat="48.21938" lon="-3.13318">
        <ele>236.80000305176</ele>
        <time>2020-10-19T13:57:12.000Z</time>
      </trkpt>
      <trkpt lat="48.21938" lon="-3.13316">
        <ele>237</ele>
        <time>2020-10-19T13:57:13.000Z</time>
      </trkpt>
      <trkpt lat="48.21939" lon="-3.13315">
        <ele>237</ele>
        <time>2020-10-19T13:57:14.000Z</time>
      </trkpt>
      <trkpt lat="48.21939" lon="-3.13313">
        <ele>237</ele>
        <time>2020-10-19T13:57:15.000Z</time>
      </trkpt>
      <trkpt lat="48.21939" lon="-3.13311">
        <ele>237</ele>
        <time>2020-10-19T13:57:16.000Z</time>
      </trkpt>
      <trkpt lat="48.21939" lon="-3.1331">
        <ele>237.19999694824</ele>
        <time>2020-10-19T13:57:17.000Z</time>
      </trkpt>
      <trkpt lat="48.21939" lon="-3.13308">
        <ele>237.19999694824</ele>
        <time>2020-10-19T13:57:18.000Z</time>
      </trkpt>
      <trkpt lat="48.21939" lon="-3.13307">
        <ele>237.19999694824</ele>
        <time>2020-10-19T13:57:19.000Z</time>
      </trkpt>
      <trkpt lat="48.21939" lon="-3.13305">
        <ele>237.19999694824</ele>
        <time>2020-10-19T13:57:20.000Z</time>
      </trkpt>
      <trkpt lat="48.21939" lon="-3.13303">
        <ele>237.39999389648</ele>
        <time>2020-10-19T13:57:21.000Z</time>
      </trkpt>
      <trkpt lat="48.21939" lon="-3.13301">
        <ele>237.39999389648</ele>
        <time>2020-10-19T13:57:22.000Z</time>
      </trkpt>
      <trkpt lat="48.21939" lon="-3.13298">
        <ele>237.39999389648</ele>
        <time>2020-10-19T13:57:23.000Z</time>
      </trkpt>
      <trkpt lat="48.21939" lon="-3.13298">
        <ele>237.39999389648</ele>
        <time>2020-10-19T13:57:24.000Z</time>
      </trkpt>
      <trkpt lat="48.21938" lon="-3.13297">
        <ele>237.39999389648</ele>
        <time>2020-10-19T13:57:25.000Z</time>
      </trkpt>
      <trkpt lat="48.21938" lon="-3.13295">
        <ele>237.39999389648</ele>
        <time>2020-10-19T13:57:26.000Z</time>
      </trkpt>
      <trkpt lat="48.21938" lon="-3.13293">
        <ele>237.39999389648</ele>
        <time>2020-10-19T13:57:27.000Z</time>
      </trkpt>
      <trkpt lat="48.21938" lon="-3.13292">
        <ele>237.39999389648</ele>
        <time>2020-10-19T13:57:28.000Z</time>
      </trkpt>
      <trkpt lat="48.21938" lon="-3.1329">
        <ele>237.60000610352</ele>
        <time>2020-10-19T13:57:29.000Z</time>
      </trkpt>
      <trkpt lat="48.21938" lon="-3.13289">
        <ele>237.60000610352</ele>
        <time>2020-10-19T13:57:30.000Z</time>
      </trkpt>
      <trkpt lat="48.21938" lon="-3.13287">
        <ele>237.60000610352</ele>
        <time>2020-10-19T13:57:31.000Z</time>
      </trkpt>
      <trkpt lat="48.21938" lon="-3.13286">
        <ele>237.60000610352</ele>
        <time>2020-10-19T13:57:32.000Z</time>
      </trkpt>
      <trkpt lat="48.21937" lon="-3.13284">
        <ele>237.60000610352</ele>
        <time>2020-10-19T13:57:33.000Z</time>
      </trkpt>
      <trkpt lat="48.21937" lon="-3.13283">
        <ele>237.60000610352</ele>
        <time>2020-10-19T13:57:34.000Z</time>
      </trkpt>
      <trkpt lat="48.21937" lon="-3.13281">
        <ele>237.60000610352</ele>
        <time>2020-10-19T13:57:35.000Z</time>
      </trkpt>
      <trkpt lat="48.21937" lon="-3.1328">
        <ele>237.60000610352</ele>
        <time>2020-10-19T13:57:36.000Z</time>
      </trkpt>
      <trkpt lat="48.21937" lon="-3.13278">
        <ele>237.60000610352</ele>
        <time>2020-10-19T13:57:37.000Z</time>
      </trkpt>
      <trkpt lat="48.21936" lon="-3.13276">
        <ele>237.60000610352</ele>
        <time>2020-10-19T13:57:38.000Z</time>
      </trkpt>
      <trkpt lat="48.21936" lon="-3.13275">
        <ele>237.60000610352</ele>
        <time>2020-10-19T13:57:39.000Z</time>
      </trkpt>
      <trkpt lat="48.21936" lon="-3.13273">
        <ele>237.60000610352</ele>
        <time>2020-10-19T13:57:40.000Z</time>
      </trkpt>
      <trkpt lat="48.21936" lon="-3.13271">
        <ele>237.60000610352</ele>
        <time>2020-10-19T13:57:41.000Z</time>
      </trkpt>
      <trkpt lat="48.21936" lon="-3.13269">
        <ele>237.80000305176</ele>
        <time>2020-10-19T13:57:42.000Z</time>
      </trkpt>
      <trkpt lat="48.21936" lon="-3.13268">
        <ele>237.80000305176</ele>
        <time>2020-10-19T13:57:43.000Z</time>
      </trkpt>
      <trkpt lat="48.21936" lon="-3.13266">
        <ele>237.80000305176</ele>
        <time>2020-10-19T13:57:44.000Z</time>
      </trkpt>
      <trkpt lat="48.21935" lon="-3.13265">
        <ele>237.80000305176</ele>
        <time>2020-10-19T13:57:45.000Z</time>
      </trkpt>
      <trkpt lat="48.21936" lon="-3.13263">
        <ele>237.80000305176</ele>
        <time>2020-10-19T13:57:46.000Z</time>
      </trkpt>
      <trkpt lat="48.21936" lon="-3.13261">
        <ele>237.80000305176</ele>
        <time>2020-10-19T13:57:47.000Z</time>
      </trkpt>
      <trkpt lat="48.21935" lon="-3.1326">
        <ele>237.80000305176</ele>
        <time>2020-10-19T13:57:48.000Z</time>
      </trkpt>
      <trkpt lat="48.21935" lon="-3.13258">
        <ele>237.80000305176</ele>
        <time>2020-10-19T13:57:49.000Z</time>
      </trkpt>
      <trkpt lat="48.21935" lon="-3.13257">
        <ele>237.80000305176</ele>
        <time>2020-10-19T13:57:50.000Z</time>
      </trkpt>
      <trkpt lat="48.21935" lon="-3.13255">
        <ele>237.60000610352</ele>
        <time>2020-10-19T13:57:51.000Z</time>
      </trkpt>
      <trkpt lat="48.21935" lon="-3.13254">
        <ele>237.60000610352</ele>
        <time>2020-10-19T13:57:52.000Z</time>
      </trkpt>
      <trkpt lat="48.21935" lon="-3.13252">
        <ele>237.39999389648</ele>
        <time>2020-10-19T13:57:53.000Z</time>
      </trkpt>
      <trkpt lat="48.21935" lon="-3.1325">
        <ele>237.39999389648</ele>
        <time>2020-10-19T13:57:54.000Z</time>
      </trkpt>
      <trkpt lat="48.21934" lon="-3.13249">
        <ele>237.19999694824</ele>
        <time>2020-10-19T13:57:55.000Z</time>
      </trkpt>
      <trkpt lat="48.21933" lon="-3.13247">
        <ele>237</ele>
        <time>2020-10-19T13:57:56.000Z</time>
      </trkpt>
      <trkpt lat="48.21933" lon="-3.13245">
        <ele>237</ele>
        <time>2020-10-19T13:57:57.000Z</time>
      </trkpt>
      <trkpt lat="48.21933" lon="-3.13244">
        <ele>236.80000305176</ele>
        <time>2020-10-19T13:57:58.000Z</time>
      </trkpt>
      <trkpt lat="48.21932" lon="-3.13242">
        <ele>236.60000610352</ele>
        <time>2020-10-19T13:57:59.000Z</time>
      </trkpt>
      <trkpt lat="48.21932" lon="-3.1324">
        <ele>236.60000610352</ele>
        <time>2020-10-19T13:58:00.000Z</time>
      </trkpt>
      <trkpt lat="48.21932" lon="-3.13238">
        <ele>236.39999389648</ele>
        <time>2020-10-19T13:58:01.000Z</time>
      </trkpt>
      <trkpt lat="48.21932" lon="-3.13237">
        <ele>236.19999694824</ele>
        <time>2020-10-19T13:58:02.000Z</time>
      </trkpt>
      <trkpt lat="48.21931" lon="-3.13236">
        <ele>236.19999694824</ele>
        <time>2020-10-19T13:58:03.000Z</time>
      </trkpt>
      <trkpt lat="48.21931" lon="-3.13234">
        <ele>236</ele>
        <time>2020-10-19T13:58:04.000Z</time>
      </trkpt>
      <trkpt lat="48.21931" lon="-3.13232">
        <ele>236</ele>
        <time>2020-10-19T13:58:05.000Z</time>
      </trkpt>
      <trkpt lat="48.21931" lon="-3.1323">
        <ele>235.80000305176</ele>
        <time>2020-10-19T13:58:06.000Z</time>
      </trkpt>
      <trkpt lat="48.21931" lon="-3.13229">
        <ele>235.80000305176</ele>
        <time>2020-10-19T13:58:07.000Z</time>
      </trkpt>
      <trkpt lat="48.2193" lon="-3.13227">
        <ele>235.60000610352</ele>
        <time>2020-10-19T13:58:08.000Z</time>
      </trkpt>
      <trkpt lat="48.2193" lon="-3.13226">
        <ele>235.60000610352</ele>
        <time>2020-10-19T13:58:09.000Z</time>
      </trkpt>
      <trkpt lat="48.2193" lon="-3.13224">
        <ele>235.39999389648</ele>
        <time>2020-10-19T13:58:10.000Z</time>
      </trkpt>
      <trkpt lat="48.2193" lon="-3.13222">
        <ele>235.39999389648</ele>
        <time>2020-10-19T13:58:11.000Z</time>
      </trkpt>
      <trkpt lat="48.2193" lon="-3.13221">
        <ele>235.19999694824</ele>
        <time>2020-10-19T13:58:12.000Z</time>
      </trkpt>
      <trkpt lat="48.2193" lon="-3.13219">
        <ele>235.19999694824</ele>
        <time>2020-10-19T13:58:13.000Z</time>
      </trkpt>
      <trkpt lat="48.2193" lon="-3.13218">
        <ele>235.19999694824</ele>
        <time>2020-10-19T13:58:14.000Z</time>
      </trkpt>
      <trkpt lat="48.2193" lon="-3.13216">
        <ele>235</ele>
        <time>2020-10-19T13:58:15.000Z</time>
      </trkpt>
      <trkpt lat="48.2193" lon="-3.13214">
        <ele>235</ele>
        <time>2020-10-19T13:58:16.000Z</time>
      </trkpt>
      <trkpt lat="48.2193" lon="-3.13212">
        <ele>234.80000305176</ele>
        <time>2020-10-19T13:58:17.000Z</time>
      </trkpt>
      <trkpt lat="48.2193" lon="-3.1321">
        <ele>234.80000305176</ele>
        <time>2020-10-19T13:58:18.000Z</time>
      </trkpt>
      <trkpt lat="48.2193" lon="-3.13208">
        <ele>234.60000610352</ele>
        <time>2020-10-19T13:58:19.000Z</time>
      </trkpt>
      <trkpt lat="48.2193" lon="-3.13207">
        <ele>234.60000610352</ele>
        <time>2020-10-19T13:58:20.000Z</time>
      </trkpt>
      <trkpt lat="48.2193" lon="-3.13205">
        <ele>234.39999389648</ele>
        <time>2020-10-19T13:58:21.000Z</time>
      </trkpt>
      <trkpt lat="48.21929" lon="-3.13203">
        <ele>234.39999389648</ele>
        <time>2020-10-19T13:58:22.000Z</time>
      </trkpt>
      <trkpt lat="48.21929" lon="-3.13201">
        <ele>234.19999694824</ele>
        <time>2020-10-19T13:58:23.000Z</time>
      </trkpt>
      <trkpt lat="48.21929" lon="-3.13199">
        <ele>234.19999694824</ele>
        <time>2020-10-19T13:58:24.000Z</time>
      </trkpt>
      <trkpt lat="48.21929" lon="-3.13198">
        <ele>234</ele>
        <time>2020-10-19T13:58:25.000Z</time>
      </trkpt>
      <trkpt lat="48.21929" lon="-3.13196">
        <ele>233.80000305176</ele>
        <time>2020-10-19T13:58:26.000Z</time>
      </trkpt>
      <trkpt lat="48.21929" lon="-3.13194">
        <ele>233.80000305176</ele>
        <time>2020-10-19T13:58:27.000Z</time>
      </trkpt>
      <trkpt lat="48.21929" lon="-3.13193">
        <ele>233.80000305176</ele>
        <time>2020-10-19T13:58:28.000Z</time>
      </trkpt>
      <trkpt lat="48.21929" lon="-3.13191">
        <ele>233.80000305176</ele>
        <time>2020-10-19T13:58:29.000Z</time>
      </trkpt>
      <trkpt lat="48.2193" lon="-3.13189">
        <ele>233.80000305176</ele>
        <time>2020-10-19T13:58:30.000Z</time>
      </trkpt>
      <trkpt lat="48.2193" lon="-3.13188">
        <ele>233.60000610352</ele>
        <time>2020-10-19T13:58:31.000Z</time>
      </trkpt>
      <trkpt lat="48.2193" lon="-3.13186">
        <ele>233.60000610352</ele>
        <time>2020-10-19T13:58:32.000Z</time>
      </trkpt>
      <trkpt lat="48.2193" lon="-3.13184">
        <ele>233.60000610352</ele>
        <time>2020-10-19T13:58:33.000Z</time>
      </trkpt>
      <trkpt lat="48.2193" lon="-3.13183">
        <ele>233.39999389648</ele>
        <time>2020-10-19T13:58:34.000Z</time>
      </trkpt>
      <trkpt lat="48.2193" lon="-3.13181">
        <ele>233.39999389648</ele>
        <time>2020-10-19T13:58:35.000Z</time>
      </trkpt>
      <trkpt lat="48.21929" lon="-3.13179">
        <ele>233.19999694824</ele>
        <time>2020-10-19T13:58:36.000Z</time>
      </trkpt>
      <trkpt lat="48.21929" lon="-3.13178">
        <ele>233.19999694824</ele>
        <time>2020-10-19T13:58:37.000Z</time>
      </trkpt>
      <trkpt lat="48.21929" lon="-3.13176">
        <ele>233</ele>
        <time>2020-10-19T13:58:38.000Z</time>
      </trkpt>
      <trkpt lat="48.21929" lon="-3.13175">
        <ele>233</ele>
        <time>2020-10-19T13:58:39.000Z</time>
      </trkpt>
      <trkpt lat="48.21929" lon="-3.13173">
        <ele>232.80000305176</ele>
        <time>2020-10-19T13:58:40.000Z</time>
      </trkpt>
      <trkpt lat="48.21929" lon="-3.13172">
        <ele>232.80000305176</ele>
        <time>2020-10-19T13:58:41.000Z</time>
      </trkpt>
      <trkpt lat="48.21928" lon="-3.1317">
        <ele>232.80000305176</ele>
        <time>2020-10-19T13:58:42.000Z</time>
      </trkpt>
      <trkpt lat="48.21928" lon="-3.13169">
        <ele>232.60000610352</ele>
        <time>2020-10-19T13:58:43.000Z</time>
      </trkpt>
      <trkpt lat="48.21928" lon="-3.13167">
        <ele>232.60000610352</ele>
        <time>2020-10-19T13:58:44.000Z</time>
      </trkpt>
      <trkpt lat="48.21928" lon="-3.13165">
        <ele>232.39999389648</ele>
        <time>2020-10-19T13:58:45.000Z</time>
      </trkpt>
      <trkpt lat="48.21928" lon="-3.13163">
        <ele>232.39999389648</ele>
        <time>2020-10-19T13:58:46.000Z</time>
      </trkpt>
      <trkpt lat="48.21929" lon="-3.13162">
        <ele>232.39999389648</ele>
        <time>2020-10-19T13:58:47.000Z</time>
      </trkpt>
      <trkpt lat="48.21929" lon="-3.1316">
        <ele>232.39999389648</ele>
        <time>2020-10-19T13:58:48.000Z</time>
      </trkpt>
      <trkpt lat="48.21928" lon="-3.13159">
        <ele>232.19999694824</ele>
        <time>2020-10-19T13:58:49.000Z</time>
      </trkpt>
      <trkpt lat="48.21929" lon="-3.13157">
        <ele>232.19999694824</ele>
        <time>2020-10-19T13:58:50.000Z</time>
      </trkpt>
      <trkpt lat="48.21928" lon="-3.13156">
        <ele>232.19999694824</ele>
        <time>2020-10-19T13:58:51.000Z</time>
      </trkpt>
      <trkpt lat="48.21928" lon="-3.13154">
        <ele>232</ele>
        <time>2020-10-19T13:58:52.000Z</time>
      </trkpt>
      <trkpt lat="48.21927" lon="-3.13153">
        <ele>231.80000305176</ele>
        <time>2020-10-19T13:58:53.000Z</time>
      </trkpt>
      <trkpt lat="48.21927" lon="-3.13152">
        <ele>231.60000610352</ele>
        <time>2020-10-19T13:58:54.000Z</time>
      </trkpt>
      <trkpt lat="48.21927" lon="-3.1315">
        <ele>231.60000610352</ele>
        <time>2020-10-19T13:58:55.000Z</time>
      </trkpt>
      <trkpt lat="48.21927" lon="-3.13148">
        <ele>231.60000610352</ele>
        <time>2020-10-19T13:58:56.000Z</time>
      </trkpt>
      <trkpt lat="48.21927" lon="-3.13147">
        <ele>231.60000610352</ele>
        <time>2020-10-19T13:58:57.000Z</time>
      </trkpt>
      <trkpt lat="48.21928" lon="-3.13146">
        <ele>231.60000610352</ele>
        <time>2020-10-19T13:58:58.000Z</time>
      </trkpt>
      <trkpt lat="48.21928" lon="-3.13145">
        <ele>231.60000610352</ele>
        <time>2020-10-19T13:58:59.000Z</time>
      </trkpt>
      <trkpt lat="48.21928" lon="-3.13144">
        <ele>231.80000305176</ele>
        <time>2020-10-19T13:59:00.000Z</time>
      </trkpt>
      <trkpt lat="48.21929" lon="-3.13143">
        <ele>231.80000305176</ele>
        <time>2020-10-19T13:59:01.000Z</time>
      </trkpt>
      <trkpt lat="48.21929" lon="-3.13142">
        <ele>231.80000305176</ele>
        <time>2020-10-19T13:59:02.000Z</time>
      </trkpt>
      <trkpt lat="48.2193" lon="-3.13141">
        <ele>232</ele>
        <time>2020-10-19T13:59:03.000Z</time>
      </trkpt>
      <trkpt lat="48.2193" lon="-3.1314">
        <ele>232</ele>
        <time>2020-10-19T13:59:04.000Z</time>
      </trkpt>
      <trkpt lat="48.21931" lon="-3.13138">
        <ele>232</ele>
        <time>2020-10-19T13:59:05.000Z</time>
      </trkpt>
      <trkpt lat="48.21931" lon="-3.13136">
        <ele>232</ele>
        <time>2020-10-19T13:59:06.000Z</time>
      </trkpt>
      <trkpt lat="48.21931" lon="-3.13135">
        <ele>232</ele>
        <time>2020-10-19T13:59:07.000Z</time>
      </trkpt>
      <trkpt lat="48.21932" lon="-3.13133">
        <ele>232</ele>
        <time>2020-10-19T13:59:08.000Z</time>
      </trkpt>
      <trkpt lat="48.21932" lon="-3.13131">
        <ele>231.80000305176</ele>
        <time>2020-10-19T13:59:09.000Z</time>
      </trkpt>
      <trkpt lat="48.21932" lon="-3.1313">
        <ele>231.80000305176</ele>
        <time>2020-10-19T13:59:10.000Z</time>
      </trkpt>
      <trkpt lat="48.21932" lon="-3.13128">
        <ele>231.80000305176</ele>
        <time>2020-10-19T13:59:11.000Z</time>
      </trkpt>
      <trkpt lat="48.21933" lon="-3.13127">
        <ele>231.80000305176</ele>
        <time>2020-10-19T13:59:12.000Z</time>
      </trkpt>
      <trkpt lat="48.21933" lon="-3.13125">
        <ele>231.80000305176</ele>
        <time>2020-10-19T13:59:13.000Z</time>
      </trkpt>
      <trkpt lat="48.21933" lon="-3.13123">
        <ele>231.80000305176</ele>
        <time>2020-10-19T13:59:14.000Z</time>
      </trkpt>
      <trkpt lat="48.21933" lon="-3.13121">
        <ele>231.80000305176</ele>
        <time>2020-10-19T13:59:15.000Z</time>
      </trkpt>
      <trkpt lat="48.21934" lon="-3.1312">
        <ele>231.80000305176</ele>
        <time>2020-10-19T13:59:16.000Z</time>
      </trkpt>
      <trkpt lat="48.21934" lon="-3.13118">
        <ele>231.80000305176</ele>
        <time>2020-10-19T13:59:17.000Z</time>
      </trkpt>
      <trkpt lat="48.21934" lon="-3.13117">
        <ele>231.80000305176</ele>
        <time>2020-10-19T13:59:18.000Z</time>
      </trkpt>
      <trkpt lat="48.21934" lon="-3.13115">
        <ele>231.80000305176</ele>
        <time>2020-10-19T13:59:19.000Z</time>
      </trkpt>
      <trkpt lat="48.21935" lon="-3.13114">
        <ele>231.80000305176</ele>
        <time>2020-10-19T13:59:20.000Z</time>
      </trkpt>
      <trkpt lat="48.21935" lon="-3.13112">
        <ele>231.80000305176</ele>
        <time>2020-10-19T13:59:21.000Z</time>
      </trkpt>
      <trkpt lat="48.21935" lon="-3.1311">
        <ele>231.80000305176</ele>
        <time>2020-10-19T13:59:22.000Z</time>
      </trkpt>
      <trkpt lat="48.21936" lon="-3.13109">
        <ele>231.80000305176</ele>
        <time>2020-10-19T13:59:23.000Z</time>
      </trkpt>
      <trkpt lat="48.21936" lon="-3.13108">
        <ele>231.80000305176</ele>
        <time>2020-10-19T13:59:24.000Z</time>
      </trkpt>
      <trkpt lat="48.21937" lon="-3.13107">
        <ele>231.80000305176</ele>
        <time>2020-10-19T13:59:25.000Z</time>
      </trkpt>
      <trkpt lat="48.21938" lon="-3.13106">
        <ele>232</ele>
        <time>2020-10-19T13:59:26.000Z</time>
      </trkpt>
      <trkpt lat="48.21938" lon="-3.13105">
        <ele>232</ele>
        <time>2020-10-19T13:59:27.000Z</time>
      </trkpt>
      <trkpt lat="48.21939" lon="-3.13103">
        <ele>232</ele>
        <time>2020-10-19T13:59:28.000Z</time>
      </trkpt>
      <trkpt lat="48.21939" lon="-3.13102">
        <ele>232</ele>
        <time>2020-10-19T13:59:29.000Z</time>
      </trkpt>
      <trkpt lat="48.2194" lon="-3.13101">
        <ele>232.19999694824</ele>
        <time>2020-10-19T13:59:30.000Z</time>
      </trkpt>
      <trkpt lat="48.2194" lon="-3.131">
        <ele>232.19999694824</ele>
        <time>2020-10-19T13:59:31.000Z</time>
      </trkpt>
      <trkpt lat="48.21941" lon="-3.13099">
        <ele>232.19999694824</ele>
        <time>2020-10-19T13:59:32.000Z</time>
      </trkpt>
      <trkpt lat="48.21942" lon="-3.13098">
        <ele>232.19999694824</ele>
        <time>2020-10-19T13:59:33.000Z</time>
      </trkpt>
      <trkpt lat="48.21942" lon="-3.13097">
        <ele>232.39999389648</ele>
        <time>2020-10-19T13:59:34.000Z</time>
      </trkpt>
      <trkpt lat="48.21943" lon="-3.13095">
        <ele>232.39999389648</ele>
        <time>2020-10-19T13:59:35.000Z</time>
      </trkpt>
      <trkpt lat="48.21944" lon="-3.13094">
        <ele>232.60000610352</ele>
        <time>2020-10-19T13:59:36.000Z</time>
      </trkpt>
      <trkpt lat="48.21944" lon="-3.13093">
        <ele>232.60000610352</ele>
        <time>2020-10-19T13:59:37.000Z</time>
      </trkpt>
      <trkpt lat="48.21945" lon="-3.13091">
        <ele>232.80000305176</ele>
        <time>2020-10-19T13:59:38.000Z</time>
      </trkpt>
      <trkpt lat="48.21946" lon="-3.1309">
        <ele>232.80000305176</ele>
        <time>2020-10-19T13:59:39.000Z</time>
      </trkpt>
      <trkpt lat="48.21946" lon="-3.13089">
        <ele>233</ele>
        <time>2020-10-19T13:59:40.000Z</time>
      </trkpt>
      <trkpt lat="48.21947" lon="-3.13087">
        <ele>233</ele>
        <time>2020-10-19T13:59:41.000Z</time>
      </trkpt>
      <trkpt lat="48.21948" lon="-3.13086">
        <ele>233.19999694824</ele>
        <time>2020-10-19T13:59:42.000Z</time>
      </trkpt>
      <trkpt lat="48.21948" lon="-3.13084">
        <ele>233.19999694824</ele>
        <time>2020-10-19T13:59:43.000Z</time>
      </trkpt>
      <trkpt lat="48.21949" lon="-3.13083">
        <ele>233.39999389648</ele>
        <time>2020-10-19T13:59:44.000Z</time>
      </trkpt>
      <trkpt lat="48.21949" lon="-3.13081">
        <ele>233.39999389648</ele>
        <time>2020-10-19T13:59:45.000Z</time>
      </trkpt>
      <trkpt lat="48.2195" lon="-3.1308">
        <ele>233.60000610352</ele>
        <time>2020-10-19T13:59:46.000Z</time>
      </trkpt>
      <trkpt lat="48.2195" lon="-3.13078">
        <ele>233.60000610352</ele>
        <time>2020-10-19T13:59:47.000Z</time>
      </trkpt>
      <trkpt lat="48.21951" lon="-3.13077">
        <ele>233.80000305176</ele>
        <time>2020-10-19T13:59:48.000Z</time>
      </trkpt>
      <trkpt lat="48.21951" lon="-3.13076">
        <ele>233.80000305176</ele>
        <time>2020-10-19T13:59:49.000Z</time>
      </trkpt>
      <trkpt lat="48.21952" lon="-3.13075">
        <ele>234</ele>
        <time>2020-10-19T13:59:50.000Z</time>
      </trkpt>
      <trkpt lat="48.21953" lon="-3.13073">
        <ele>234</ele>
        <time>2020-10-19T13:59:51.000Z</time>
      </trkpt>
      <trkpt lat="48.21953" lon="-3.13072">
        <ele>234.19999694824</ele>
        <time>2020-10-19T13:59:52.000Z</time>
      </trkpt>
      <trkpt lat="48.21954" lon="-3.13071">
        <ele>234.19999694824</ele>
        <time>2020-10-19T13:59:53.000Z</time>
      </trkpt>
      <trkpt lat="48.21955" lon="-3.1307">
        <ele>234.39999389648</ele>
        <time>2020-10-19T13:59:54.000Z</time>
      </trkpt>
      <trkpt lat="48.21955" lon="-3.13069">
        <ele>234.39999389648</ele>
        <time>2020-10-19T13:59:55.000Z</time>
      </trkpt>
      <trkpt lat="48.21956" lon="-3.13068">
        <ele>234.60000610352</ele>
        <time>2020-10-19T13:59:56.000Z</time>
      </trkpt>
      <trkpt lat="48.21957" lon="-3.13067">
        <ele>234.60000610352</ele>
        <time>2020-10-19T13:59:57.000Z</time>
      </trkpt>
      <trkpt lat="48.21957" lon="-3.13065">
        <ele>234.80000305176</ele>
        <time>2020-10-19T13:59:58.000Z</time>
      </trkpt>
      <trkpt lat="48.21958" lon="-3.13064">
        <ele>234.80000305176</ele>
        <time>2020-10-19T13:59:59.000Z</time>
      </trkpt>
      <trkpt lat="48.21958" lon="-3.13062">
        <ele>235</ele>
        <time>2020-10-19T14:00:00.000Z</time>
      </trkpt>
      <trkpt lat="48.21959" lon="-3.13061">
        <ele>235</ele>
        <time>2020-10-19T14:00:01.000Z</time>
      </trkpt>
      <trkpt lat="48.2196" lon="-3.13058">
        <ele>235.19999694824</ele>
        <time>2020-10-19T14:00:02.000Z</time>
      </trkpt>
      <trkpt lat="48.2196" lon="-3.13058">
        <ele>235.19999694824</ele>
        <time>2020-10-19T14:00:03.000Z</time>
      </trkpt>
      <trkpt lat="48.2196" lon="-3.13056">
        <ele>235.19999694824</ele>
        <time>2020-10-19T14:00:04.000Z</time>
      </trkpt>
      <trkpt lat="48.2196" lon="-3.13054">
        <ele>235.19999694824</ele>
        <time>2020-10-19T14:00:05.000Z</time>
      </trkpt>
      <trkpt lat="48.2196" lon="-3.13053">
        <ele>235.39999389648</ele>
        <time>2020-10-19T14:00:06.000Z</time>
      </trkpt>
      <trkpt lat="48.21961" lon="-3.13051">
        <ele>235.39999389648</ele>
        <time>2020-10-19T14:00:07.000Z</time>
      </trkpt>
      <trkpt lat="48.21961" lon="-3.13049">
        <ele>235.39999389648</ele>
        <time>2020-10-19T14:00:08.000Z</time>
      </trkpt>
      <trkpt lat="48.21961" lon="-3.13048">
        <ele>235.39999389648</ele>
        <time>2020-10-19T14:00:09.000Z</time>
      </trkpt>
      <trkpt lat="48.21961" lon="-3.13047">
        <ele>235.39999389648</ele>
        <time>2020-10-19T14:00:10.000Z</time>
      </trkpt>
      <trkpt lat="48.21961" lon="-3.13045">
        <ele>235.39999389648</ele>
        <time>2020-10-19T14:00:11.000Z</time>
      </trkpt>
      <trkpt lat="48.21961" lon="-3.13043">
        <ele>235.39999389648</ele>
        <time>2020-10-19T14:00:12.000Z</time>
      </trkpt>
      <trkpt lat="48.21962" lon="-3.13042">
        <ele>235.60000610352</ele>
        <time>2020-10-19T14:00:13.000Z</time>
      </trkpt>
      <trkpt lat="48.21962" lon="-3.1304">
        <ele>235.60000610352</ele>
        <time>2020-10-19T14:00:14.000Z</time>
      </trkpt>
      <trkpt lat="48.21963" lon="-3.13039">
        <ele>235.80000305176</ele>
        <time>2020-10-19T14:00:15.000Z</time>
      </trkpt>
      <trkpt lat="48.21964" lon="-3.13038">
        <ele>235.80000305176</ele>
        <time>2020-10-19T14:00:16.000Z</time>
      </trkpt>
      <trkpt lat="48.21964" lon="-3.13036">
        <ele>236</ele>
        <time>2020-10-19T14:00:17.000Z</time>
      </trkpt>
      <trkpt lat="48.21965" lon="-3.13035">
        <ele>236.19999694824</ele>
        <time>2020-10-19T14:00:18.000Z</time>
      </trkpt>
      <trkpt lat="48.21966" lon="-3.13034">
        <ele>236.19999694824</ele>
        <time>2020-10-19T14:00:19.000Z</time>
      </trkpt>
      <trkpt lat="48.21967" lon="-3.13033">
        <ele>236.39999389648</ele>
        <time>2020-10-19T14:00:20.000Z</time>
      </trkpt>
      <trkpt lat="48.21967" lon="-3.13031">
        <ele>236.39999389648</ele>
        <time>2020-10-19T14:00:21.000Z</time>
      </trkpt>
      <trkpt lat="48.21967" lon="-3.1303">
        <ele>236.60000610352</ele>
        <time>2020-10-19T14:00:22.000Z</time>
      </trkpt>
      <trkpt lat="48.21968" lon="-3.13028">
        <ele>236.60000610352</ele>
        <time>2020-10-19T14:00:23.000Z</time>
      </trkpt>
      <trkpt lat="48.21969" lon="-3.13027">
        <ele>236.80000305176</ele>
        <time>2020-10-19T14:00:24.000Z</time>
      </trkpt>
      <trkpt lat="48.21969" lon="-3.13026">
        <ele>236.80000305176</ele>
        <time>2020-10-19T14:00:25.000Z</time>
      </trkpt>
      <trkpt lat="48.2197" lon="-3.13024">
        <ele>237</ele>
        <time>2020-10-19T14:00:26.000Z</time>
      </trkpt>
      <trkpt lat="48.21971" lon="-3.13023">
        <ele>237</ele>
        <time>2020-10-19T14:00:27.000Z</time>
      </trkpt>
      <trkpt lat="48.21972" lon="-3.13021">
        <ele>237.19999694824</ele>
        <time>2020-10-19T14:00:28.000Z</time>
      </trkpt>
      <trkpt lat="48.21972" lon="-3.1302">
        <ele>237.39999389648</ele>
        <time>2020-10-19T14:00:29.000Z</time>
      </trkpt>
      <trkpt lat="48.21973" lon="-3.13018">
        <ele>237.39999389648</ele>
        <time>2020-10-19T14:00:30.000Z</time>
      </trkpt>
      <trkpt lat="48.21974" lon="-3.13017">
        <ele>237.60000610352</ele>
        <time>2020-10-19T14:00:31.000Z</time>
      </trkpt>
      <trkpt lat="48.21975" lon="-3.13016">
        <ele>237.80000305176</ele>
        <time>2020-10-19T14:00:32.000Z</time>
      </trkpt>
      <trkpt lat="48.21975" lon="-3.13015">
        <ele>237.80000305176</ele>
        <time>2020-10-19T14:00:33.000Z</time>
      </trkpt>
      <trkpt lat="48.21976" lon="-3.13013">
        <ele>238</ele>
        <time>2020-10-19T14:00:34.000Z</time>
      </trkpt>
      <trkpt lat="48.21977" lon="-3.13012">
        <ele>238.19999694824</ele>
        <time>2020-10-19T14:00:35.000Z</time>
      </trkpt>
      <trkpt lat="48.21978" lon="-3.13011">
        <ele>238.39999389648</ele>
        <time>2020-10-19T14:00:36.000Z</time>
      </trkpt>
      <trkpt lat="48.21979" lon="-3.1301">
        <ele>238.60000610352</ele>
        <time>2020-10-19T14:00:37.000Z</time>
      </trkpt>
      <trkpt lat="48.2198" lon="-3.1301">
        <ele>238.60000610352</ele>
        <time>2020-10-19T14:00:38.000Z</time>
      </trkpt>
      <trkpt lat="48.21981" lon="-3.13009">
        <ele>238.80000305176</ele>
        <time>2020-10-19T14:00:39.000Z</time>
      </trkpt>
      <trkpt lat="48.21982" lon="-3.13008">
        <ele>238.80000305176</ele>
        <time>2020-10-19T14:00:40.000Z</time>
      </trkpt>
      <trkpt lat="48.21983" lon="-3.13007">
        <ele>239</ele>
        <time>2020-10-19T14:00:41.000Z</time>
      </trkpt>
      <trkpt lat="48.21984" lon="-3.13007">
        <ele>239</ele>
        <time>2020-10-19T14:00:42.000Z</time>
      </trkpt>
      <trkpt lat="48.21984" lon="-3.13006">
        <ele>239.19999694824</ele>
        <time>2020-10-19T14:00:43.000Z</time>
      </trkpt>
      <trkpt lat="48.21986" lon="-3.13005">
        <ele>239.39999389648</ele>
        <time>2020-10-19T14:00:44.000Z</time>
      </trkpt>
      <trkpt lat="48.21987" lon="-3.13005">
        <ele>239.60000610352</ele>
        <time>2020-10-19T14:00:45.000Z</time>
      </trkpt>
      <trkpt lat="48.21988" lon="-3.13004">
        <ele>239.60000610352</ele>
        <time>2020-10-19T14:00:46.000Z</time>
      </trkpt>
      <trkpt lat="48.21989" lon="-3.13002">
        <ele>239.80000305176</ele>
        <time>2020-10-19T14:00:47.000Z</time>
      </trkpt>
      <trkpt lat="48.21989" lon="-3.13001">
        <ele>239.80000305176</ele>
        <time>2020-10-19T14:00:48.000Z</time>
      </trkpt>
      <trkpt lat="48.2199" lon="-3.12999">
        <ele>239.80000305176</ele>
        <time>2020-10-19T14:00:49.000Z</time>
      </trkpt>
      <trkpt lat="48.21991" lon="-3.12998">
        <ele>239.80000305176</ele>
        <time>2020-10-19T14:00:50.000Z</time>
      </trkpt>
      <trkpt lat="48.21991" lon="-3.12997">
        <ele>239.80000305176</ele>
        <time>2020-10-19T14:00:51.000Z</time>
      </trkpt>
      <trkpt lat="48.21991" lon="-3.12995">
        <ele>239.80000305176</ele>
        <time>2020-10-19T14:00:52.000Z</time>
      </trkpt>
      <trkpt lat="48.21991" lon="-3.12994">
        <ele>239.80000305176</ele>
        <time>2020-10-19T14:00:53.000Z</time>
      </trkpt>
      <trkpt lat="48.21992" lon="-3.12993">
        <ele>239.80000305176</ele>
        <time>2020-10-19T14:00:54.000Z</time>
      </trkpt>
      <trkpt lat="48.21992" lon="-3.12991">
        <ele>239.80000305176</ele>
        <time>2020-10-19T14:00:55.000Z</time>
      </trkpt>
      <trkpt lat="48.21992" lon="-3.1299">
        <ele>239.60000610352</ele>
        <time>2020-10-19T14:00:56.000Z</time>
      </trkpt>
      <trkpt lat="48.21992" lon="-3.12988">
        <ele>239.60000610352</ele>
        <time>2020-10-19T14:00:57.000Z</time>
      </trkpt>
      <trkpt lat="48.21993" lon="-3.12987">
        <ele>239.60000610352</ele>
        <time>2020-10-19T14:00:58.000Z</time>
      </trkpt>
      <trkpt lat="48.21993" lon="-3.12986">
        <ele>239.60000610352</ele>
        <time>2020-10-19T14:00:59.000Z</time>
      </trkpt>
      <trkpt lat="48.21993" lon="-3.12984">
        <ele>239.60000610352</ele>
        <time>2020-10-19T14:01:00.000Z</time>
      </trkpt>
      <trkpt lat="48.21993" lon="-3.12983">
        <ele>239.39999389648</ele>
        <time>2020-10-19T14:01:01.000Z</time>
      </trkpt>
      <trkpt lat="48.21993" lon="-3.12981">
        <ele>239.39999389648</ele>
        <time>2020-10-19T14:01:02.000Z</time>
      </trkpt>
      <trkpt lat="48.21994" lon="-3.1298">
        <ele>239.39999389648</ele>
        <time>2020-10-19T14:01:03.000Z</time>
      </trkpt>
      <trkpt lat="48.21995" lon="-3.12979">
        <ele>239.60000610352</ele>
        <time>2020-10-19T14:01:04.000Z</time>
      </trkpt>
      <trkpt lat="48.21996" lon="-3.12978">
        <ele>239.80000305176</ele>
        <time>2020-10-19T14:01:05.000Z</time>
      </trkpt>
      <trkpt lat="48.21997" lon="-3.12978">
        <ele>239.80000305176</ele>
        <time>2020-10-19T14:01:06.000Z</time>
      </trkpt>
      <trkpt lat="48.21998" lon="-3.12977">
        <ele>240</ele>
        <time>2020-10-19T14:01:07.000Z</time>
      </trkpt>
      <trkpt lat="48.21999" lon="-3.12977">
        <ele>240.19999694824</ele>
        <time>2020-10-19T14:01:08.000Z</time>
      </trkpt>
      <trkpt lat="48.22" lon="-3.12978">
        <ele>240.39999389648</ele>
        <time>2020-10-19T14:01:09.000Z</time>
      </trkpt>
      <trkpt lat="48.22001" lon="-3.12979">
        <ele>240.60000610352</ele>
        <time>2020-10-19T14:01:10.000Z</time>
      </trkpt>
      <trkpt lat="48.22002" lon="-3.12979">
        <ele>240.80000305176</ele>
        <time>2020-10-19T14:01:11.000Z</time>
      </trkpt>
      <trkpt lat="48.22003" lon="-3.12979">
        <ele>241</ele>
        <time>2020-10-19T14:01:12.000Z</time>
      </trkpt>
      <trkpt lat="48.22004" lon="-3.1298">
        <ele>241.19999694824</ele>
        <time>2020-10-19T14:01:13.000Z</time>
      </trkpt>
      <trkpt lat="48.22005" lon="-3.1298">
        <ele>241.39999389648</ele>
        <time>2020-10-19T14:01:14.000Z</time>
      </trkpt>
      <trkpt lat="48.22006" lon="-3.12981">
        <ele>241.60000610352</ele>
        <time>2020-10-19T14:01:15.000Z</time>
      </trkpt>
      <trkpt lat="48.22007" lon="-3.12981">
        <ele>241.80000305176</ele>
        <time>2020-10-19T14:01:16.000Z</time>
      </trkpt>
      <trkpt lat="48.22008" lon="-3.12982">
        <ele>242</ele>
        <time>2020-10-19T14:01:17.000Z</time>
      </trkpt>
      <trkpt lat="48.2201" lon="-3.12982">
        <ele>242.19999694824</ele>
        <time>2020-10-19T14:01:18.000Z</time>
      </trkpt>
      <trkpt lat="48.22011" lon="-3.12982">
        <ele>242.39999389648</ele>
        <time>2020-10-19T14:01:19.000Z</time>
      </trkpt>
      <trkpt lat="48.22012" lon="-3.12981">
        <ele>242.60000610352</ele>
        <time>2020-10-19T14:01:20.000Z</time>
      </trkpt>
      <trkpt lat="48.22013" lon="-3.12981">
        <ele>242.60000610352</ele>
        <time>2020-10-19T14:01:21.000Z</time>
      </trkpt>
      <trkpt lat="48.22014" lon="-3.1298">
        <ele>242.60000610352</ele>
        <time>2020-10-19T14:01:22.000Z</time>
      </trkpt>
      <trkpt lat="48.22016" lon="-3.12979">
        <ele>242.60000610352</ele>
        <time>2020-10-19T14:01:23.000Z</time>
      </trkpt>
      <trkpt lat="48.22016" lon="-3.12979">
        <ele>242.60000610352</ele>
        <time>2020-10-19T14:01:24.000Z</time>
      </trkpt>
      <trkpt lat="48.22017" lon="-3.12978">
        <ele>242.80000305176</ele>
        <time>2020-10-19T14:01:25.000Z</time>
      </trkpt>
      <trkpt lat="48.22018" lon="-3.12978">
        <ele>242.80000305176</ele>
        <time>2020-10-19T14:01:26.000Z</time>
      </trkpt>
      <trkpt lat="48.22019" lon="-3.12977">
        <ele>242.80000305176</ele>
        <time>2020-10-19T14:01:27.000Z</time>
      </trkpt>
      <trkpt lat="48.2202" lon="-3.12976">
        <ele>242.80000305176</ele>
        <time>2020-10-19T14:01:28.000Z</time>
      </trkpt>
      <trkpt lat="48.22021" lon="-3.12975">
        <ele>242.80000305176</ele>
        <time>2020-10-19T14:01:29.000Z</time>
      </trkpt>
      <trkpt lat="48.22022" lon="-3.12975">
        <ele>242.80000305176</ele>
        <time>2020-10-19T14:01:30.000Z</time>
      </trkpt>
      <trkpt lat="48.22023" lon="-3.12974">
        <ele>242.80000305176</ele>
        <time>2020-10-19T14:01:31.000Z</time>
      </trkpt>
      <trkpt lat="48.22025" lon="-3.12974">
        <ele>242.80000305176</ele>
        <time>2020-10-19T14:01:32.000Z</time>
      </trkpt>
      <trkpt lat="48.22026" lon="-3.12974">
        <ele>243</ele>
        <time>2020-10-19T14:01:33.000Z</time>
      </trkpt>
      <trkpt lat="48.22027" lon="-3.12974">
        <ele>243</ele>
        <time>2020-10-19T14:01:34.000Z</time>
      </trkpt>
      <trkpt lat="48.22028" lon="-3.12975">
        <ele>243</ele>
        <time>2020-10-19T14:01:35.000Z</time>
      </trkpt>
      <trkpt lat="48.22029" lon="-3.12974">
        <ele>243</ele>
        <time>2020-10-19T14:01:36.000Z</time>
      </trkpt>
      <trkpt lat="48.2203" lon="-3.12974">
        <ele>243.19999694824</ele>
        <time>2020-10-19T14:01:37.000Z</time>
      </trkpt>
      <trkpt lat="48.22031" lon="-3.12973">
        <ele>243.19999694824</ele>
        <time>2020-10-19T14:01:38.000Z</time>
      </trkpt>
      <trkpt lat="48.22032" lon="-3.12973">
        <ele>243.19999694824</ele>
        <time>2020-10-19T14:01:39.000Z</time>
      </trkpt>
      <trkpt lat="48.22034" lon="-3.12972">
        <ele>243.19999694824</ele>
        <time>2020-10-19T14:01:40.000Z</time>
      </trkpt>
      <trkpt lat="48.22035" lon="-3.12972">
        <ele>243.19999694824</ele>
        <time>2020-10-19T14:01:41.000Z</time>
      </trkpt>
      <trkpt lat="48.22036" lon="-3.12972">
        <ele>243.19999694824</ele>
        <time>2020-10-19T14:01:42.000Z</time>
      </trkpt>
      <trkpt lat="48.22037" lon="-3.12972">
        <ele>243.39999389648</ele>
        <time>2020-10-19T14:01:43.000Z</time>
      </trkpt>
      <trkpt lat="48.22038" lon="-3.12971">
        <ele>243.39999389648</ele>
        <time>2020-10-19T14:01:44.000Z</time>
      </trkpt>
      <trkpt lat="48.2204" lon="-3.12971">
        <ele>243.39999389648</ele>
        <time>2020-10-19T14:01:45.000Z</time>
      </trkpt>
      <trkpt lat="48.22041" lon="-3.12971">
        <ele>243.39999389648</ele>
        <time>2020-10-19T14:01:46.000Z</time>
      </trkpt>
      <trkpt lat="48.22042" lon="-3.12971">
        <ele>243.60000610352</ele>
        <time>2020-10-19T14:01:47.000Z</time>
      </trkpt>
      <trkpt lat="48.22043" lon="-3.12971">
        <ele>243.60000610352</ele>
        <time>2020-10-19T14:01:48.000Z</time>
      </trkpt>
      <trkpt lat="48.22044" lon="-3.12971">
        <ele>243.60000610352</ele>
        <time>2020-10-19T14:01:49.000Z</time>
      </trkpt>
      <trkpt lat="48.22045" lon="-3.12971">
        <ele>243.60000610352</ele>
        <time>2020-10-19T14:01:50.000Z</time>
      </trkpt>
      <trkpt lat="48.22047" lon="-3.12971">
        <ele>243.80000305176</ele>
        <time>2020-10-19T14:01:51.000Z</time>
      </trkpt>
      <trkpt lat="48.22048" lon="-3.1297">
        <ele>243.80000305176</ele>
        <time>2020-10-19T14:01:52.000Z</time>
      </trkpt>
      <trkpt lat="48.22049" lon="-3.1297">
        <ele>243.80000305176</ele>
        <time>2020-10-19T14:01:53.000Z</time>
      </trkpt>
      <trkpt lat="48.22052" lon="-3.12969">
        <ele>244</ele>
        <time>2020-10-19T14:01:54.000Z</time>
      </trkpt>
      <trkpt lat="48.22052" lon="-3.12969">
        <ele>244</ele>
        <time>2020-10-19T14:01:55.000Z</time>
      </trkpt>
      <trkpt lat="48.22053" lon="-3.12969">
        <ele>244</ele>
        <time>2020-10-19T14:01:56.000Z</time>
      </trkpt>
      <trkpt lat="48.22054" lon="-3.12968">
        <ele>244</ele>
        <time>2020-10-19T14:01:57.000Z</time>
      </trkpt>
      <trkpt lat="48.22056" lon="-3.12968">
        <ele>244</ele>
        <time>2020-10-19T14:01:58.000Z</time>
      </trkpt>
      <trkpt lat="48.22057" lon="-3.12968">
        <ele>244</ele>
        <time>2020-10-19T14:01:59.000Z</time>
      </trkpt>
      <trkpt lat="48.22058" lon="-3.12967">
        <ele>244</ele>
        <time>2020-10-19T14:02:00.000Z</time>
      </trkpt>
      <trkpt lat="48.22059" lon="-3.12967">
        <ele>244</ele>
        <time>2020-10-19T14:02:01.000Z</time>
      </trkpt>
      <trkpt lat="48.2206" lon="-3.12966">
        <ele>244</ele>
        <time>2020-10-19T14:02:02.000Z</time>
      </trkpt>
      <trkpt lat="48.22061" lon="-3.12965">
        <ele>244</ele>
        <time>2020-10-19T14:02:03.000Z</time>
      </trkpt>
      <trkpt lat="48.22062" lon="-3.12964">
        <ele>244</ele>
        <time>2020-10-19T14:02:04.000Z</time>
      </trkpt>
      <trkpt lat="48.22063" lon="-3.12962">
        <ele>244</ele>
        <time>2020-10-19T14:02:05.000Z</time>
      </trkpt>
      <trkpt lat="48.22063" lon="-3.12961">
        <ele>244</ele>
        <time>2020-10-19T14:02:06.000Z</time>
      </trkpt>
      <trkpt lat="48.22063" lon="-3.12959">
        <ele>244</ele>
        <time>2020-10-19T14:02:07.000Z</time>
      </trkpt>
      <trkpt lat="48.22064" lon="-3.12958">
        <ele>244</ele>
        <time>2020-10-19T14:02:08.000Z</time>
      </trkpt>
      <trkpt lat="48.22064" lon="-3.12956">
        <ele>243.80000305176</ele>
        <time>2020-10-19T14:02:09.000Z</time>
      </trkpt>
      <trkpt lat="48.22064" lon="-3.12954">
        <ele>243.80000305176</ele>
        <time>2020-10-19T14:02:10.000Z</time>
      </trkpt>
      <trkpt lat="48.22064" lon="-3.12953">
        <ele>243.80000305176</ele>
        <time>2020-10-19T14:02:11.000Z</time>
      </trkpt>
      <trkpt lat="48.22065" lon="-3.1295">
        <ele>243.60000610352</ele>
        <time>2020-10-19T14:02:12.000Z</time>
      </trkpt>
      <trkpt lat="48.22065" lon="-3.1295">
        <ele>243.60000610352</ele>
        <time>2020-10-19T14:02:13.000Z</time>
      </trkpt>
      <trkpt lat="48.22066" lon="-3.12948">
        <ele>243.60000610352</ele>
        <time>2020-10-19T14:02:14.000Z</time>
      </trkpt>
      <trkpt lat="48.22066" lon="-3.12947">
        <ele>243.60000610352</ele>
        <time>2020-10-19T14:02:15.000Z</time>
      </trkpt>
      <trkpt lat="48.22067" lon="-3.12946">
        <ele>243.60000610352</ele>
        <time>2020-10-19T14:02:16.000Z</time>
      </trkpt>
      <trkpt lat="48.22067" lon="-3.12945">
        <ele>243.39999389648</ele>
        <time>2020-10-19T14:02:17.000Z</time>
      </trkpt>
      <trkpt lat="48.22068" lon="-3.12943">
        <ele>243.39999389648</ele>
        <time>2020-10-19T14:02:18.000Z</time>
      </trkpt>
      <trkpt lat="48.22068" lon="-3.12942">
        <ele>243.39999389648</ele>
        <time>2020-10-19T14:02:19.000Z</time>
      </trkpt>
      <trkpt lat="48.22068" lon="-3.12941">
        <ele>243.39999389648</ele>
        <time>2020-10-19T14:02:20.000Z</time>
      </trkpt>
      <trkpt lat="48.22068" lon="-3.12941">
        <ele>243.39999389648</ele>
        <time>2020-10-19T14:02:21.000Z</time>
      </trkpt>
      <trkpt lat="48.22068" lon="-3.1294">
        <ele>243.39999389648</ele>
        <time>2020-10-19T14:02:22.000Z</time>
      </trkpt>
      <trkpt lat="48.22068" lon="-3.1294">
        <ele>243.39999389648</ele>
        <time>2020-10-19T14:02:23.000Z</time>
      </trkpt>
      <trkpt lat="48.22068" lon="-3.1294">
        <ele>243.39999389648</ele>
        <time>2020-10-19T14:02:24.000Z</time>
      </trkpt>
      <trkpt lat="48.22068" lon="-3.1294">
        <ele>243.19999694824</ele>
        <time>2020-10-19T14:02:25.000Z</time>
      </trkpt>
      <trkpt lat="48.22067" lon="-3.12939">
        <ele>243.19999694824</ele>
        <time>2020-10-19T14:02:26.000Z</time>
      </trkpt>
      <trkpt lat="48.22067" lon="-3.12939">
        <ele>243.19999694824</ele>
        <time>2020-10-19T14:02:27.000Z</time>
      </trkpt>
      <trkpt lat="48.22067" lon="-3.12939">
        <ele>243.19999694824</ele>
        <time>2020-10-19T14:02:28.000Z</time>
      </trkpt>
      <trkpt lat="48.22067" lon="-3.12938">
        <ele>243.19999694824</ele>
        <time>2020-10-19T14:02:29.000Z</time>
      </trkpt>
      <trkpt lat="48.22067" lon="-3.12938">
        <ele>243.19999694824</ele>
        <time>2020-10-19T14:02:30.000Z</time>
      </trkpt>
      <trkpt lat="48.22067" lon="-3.12938">
        <ele>243.19999694824</ele>
        <time>2020-10-19T14:02:31.000Z</time>
      </trkpt>
      <trkpt lat="48.22067" lon="-3.12939">
        <ele>243.19999694824</ele>
        <time>2020-10-19T14:02:32.000Z</time>
      </trkpt>
      <trkpt lat="48.22067" lon="-3.12939">
        <ele>243.19999694824</ele>
        <time>2020-10-19T14:02:33.000Z</time>
      </trkpt>
      <trkpt lat="48.22068" lon="-3.12939">
        <ele>243.19999694824</ele>
        <time>2020-10-19T14:02:34.000Z</time>
      </trkpt>
      <trkpt lat="48.22068" lon="-3.12939">
        <ele>243.19999694824</ele>
        <time>2020-10-19T14:02:35.000Z</time>
      </trkpt>
      <trkpt lat="48.22068" lon="-3.12939">
        <ele>243.19999694824</ele>
        <time>2020-10-19T14:02:36.000Z</time>
      </trkpt>
      <trkpt lat="48.22069" lon="-3.12939">
        <ele>243.19999694824</ele>
        <time>2020-10-19T14:02:37.000Z</time>
      </trkpt>
      <trkpt lat="48.22068" lon="-3.12939">
        <ele>243.19999694824</ele>
        <time>2020-10-19T14:02:38.000Z</time>
      </trkpt>
      <trkpt lat="48.22069" lon="-3.12939">
        <ele>243.39999389648</ele>
        <time>2020-10-19T14:02:39.000Z</time>
      </trkpt>
      <trkpt lat="48.22069" lon="-3.1294">
        <ele>243.39999389648</ele>
        <time>2020-10-19T14:02:40.000Z</time>
      </trkpt>
      <trkpt lat="48.22069" lon="-3.1294">
        <ele>243.39999389648</ele>
        <time>2020-10-19T14:02:41.000Z</time>
      </trkpt>
      <trkpt lat="48.22069" lon="-3.1294">
        <ele>243.39999389648</ele>
        <time>2020-10-19T14:02:42.000Z</time>
      </trkpt>
      <trkpt lat="48.22069" lon="-3.1294">
        <ele>243.39999389648</ele>
        <time>2020-10-19T14:02:43.000Z</time>
      </trkpt>
      <trkpt lat="48.22068" lon="-3.1294">
        <ele>243.39999389648</ele>
        <time>2020-10-19T14:02:44.000Z</time>
      </trkpt>
      <trkpt lat="48.22068" lon="-3.1294">
        <ele>243.39999389648</ele>
        <time>2020-10-19T14:02:45.000Z</time>
      </trkpt>
      <trkpt lat="48.22067" lon="-3.12941">
        <ele>243.39999389648</ele>
        <time>2020-10-19T14:02:46.000Z</time>
      </trkpt>
      <trkpt lat="48.22067" lon="-3.12941">
        <ele>243.39999389648</ele>
        <time>2020-10-19T14:02:47.000Z</time>
      </trkpt>
      <trkpt lat="48.22067" lon="-3.12942">
        <ele>243.39999389648</ele>
        <time>2020-10-19T14:02:48.000Z</time>
      </trkpt>
      <trkpt lat="48.22067" lon="-3.12942">
        <ele>243.39999389648</ele>
        <time>2020-10-19T14:02:49.000Z</time>
      </trkpt>
      <trkpt lat="48.22067" lon="-3.12942">
        <ele>243.39999389648</ele>
        <time>2020-10-19T14:02:50.000Z</time>
      </trkpt>
      <trkpt lat="48.22068" lon="-3.12941">
        <ele>243.39999389648</ele>
        <time>2020-10-19T14:02:51.000Z</time>
      </trkpt>
      <trkpt lat="48.22068" lon="-3.12941">
        <ele>243.39999389648</ele>
        <time>2020-10-19T14:02:52.000Z</time>
      </trkpt>
      <trkpt lat="48.22068" lon="-3.12941">
        <ele>243.39999389648</ele>
        <time>2020-10-19T14:02:53.000Z</time>
      </trkpt>
      <trkpt lat="48.22068" lon="-3.12941">
        <ele>243.39999389648</ele>
        <time>2020-10-19T14:02:54.000Z</time>
      </trkpt>
      <trkpt lat="48.22068" lon="-3.1294">
        <ele>243.39999389648</ele>
        <time>2020-10-19T14:02:55.000Z</time>
      </trkpt>
      <trkpt lat="48.22068" lon="-3.1294">
        <ele>243.39999389648</ele>
        <time>2020-10-19T14:02:56.000Z</time>
      </trkpt>
      <trkpt lat="48.22068" lon="-3.1294">
        <ele>243.19999694824</ele>
        <time>2020-10-19T14:02:57.000Z</time>
      </trkpt>
      <trkpt lat="48.22067" lon="-3.1294">
        <ele>243.19999694824</ele>
        <time>2020-10-19T14:02:58.000Z</time>
      </trkpt>
      <trkpt lat="48.22067" lon="-3.1294">
        <ele>243.19999694824</ele>
        <time>2020-10-19T14:02:59.000Z</time>
      </trkpt>
      <trkpt lat="48.22067" lon="-3.1294">
        <ele>243.19999694824</ele>
        <time>2020-10-19T14:03:00.000Z</time>
      </trkpt>
      <trkpt lat="48.22067" lon="-3.1294">
        <ele>243.19999694824</ele>
        <time>2020-10-19T14:03:01.000Z</time>
      </trkpt>
      <trkpt lat="48.22067" lon="-3.1294">
        <ele>243.19999694824</ele>
        <time>2020-10-19T14:03:02.000Z</time>
      </trkpt>
      <trkpt lat="48.22067" lon="-3.1294">
        <ele>243.19999694824</ele>
        <time>2020-10-19T14:03:03.000Z</time>
      </trkpt>
      <trkpt lat="48.22067" lon="-3.1294">
        <ele>243.19999694824</ele>
        <time>2020-10-19T14:03:04.000Z</time>
      </trkpt>
      <trkpt lat="48.22067" lon="-3.1294">
        <ele>243.19999694824</ele>
        <time>2020-10-19T14:03:05.000Z</time>
      </trkpt>
      <trkpt lat="48.22067" lon="-3.1294">
        <ele>243.19999694824</ele>
        <time>2020-10-19T14:03:06.000Z</time>
      </trkpt>
      <trkpt lat="48.22067" lon="-3.1294">
        <ele>243.19999694824</ele>
        <time>2020-10-19T14:03:07.000Z</time>
      </trkpt>
      <trkpt lat="48.22067" lon="-3.1294">
        <ele>243.19999694824</ele>
        <time>2020-10-19T14:03:08.000Z</time>
      </trkpt>
      <trkpt lat="48.22067" lon="-3.1294">
        <ele>243.19999694824</ele>
        <time>2020-10-19T14:03:09.000Z</time>
      </trkpt>
      <trkpt lat="48.22067" lon="-3.1294">
        <ele>243.19999694824</ele>
        <time>2020-10-19T14:03:10.000Z</time>
      </trkpt>
      <trkpt lat="48.22067" lon="-3.1294">
        <ele>243.19999694824</ele>
        <time>2020-10-19T14:03:11.000Z</time>
      </trkpt>
      <trkpt lat="48.22067" lon="-3.1294">
        <ele>243.19999694824</ele>
        <time>2020-10-19T14:03:12.000Z</time>
      </trkpt>
      <trkpt lat="48.22067" lon="-3.1294">
        <ele>243.19999694824</ele>
        <time>2020-10-19T14:03:13.000Z</time>
      </trkpt>
      <trkpt lat="48.22067" lon="-3.1294">
        <ele>243.19999694824</ele>
        <time>2020-10-19T14:03:14.000Z</time>
      </trkpt>
      <trkpt lat="48.22067" lon="-3.1294">
        <ele>243.19999694824</ele>
        <time>2020-10-19T14:03:15.000Z</time>
      </trkpt>
      <trkpt lat="48.22067" lon="-3.1294">
        <ele>243.19999694824</ele>
        <time>2020-10-19T14:03:16.000Z</time>
      </trkpt>
      <trkpt lat="48.22067" lon="-3.1294">
        <ele>243.19999694824</ele>
        <time>2020-10-19T14:03:17.000Z</time>
      </trkpt>
      <trkpt lat="48.22067" lon="-3.12941">
        <ele>243.19999694824</ele>
        <time>2020-10-19T14:03:18.000Z</time>
      </trkpt>
      <trkpt lat="48.22067" lon="-3.12941">
        <ele>243.19999694824</ele>
        <time>2020-10-19T14:03:19.000Z</time>
      </trkpt>
      <trkpt lat="48.22067" lon="-3.12941">
        <ele>243.39999389648</ele>
        <time>2020-10-19T14:03:20.000Z</time>
      </trkpt>
      <trkpt lat="48.22067" lon="-3.12941">
        <ele>243.39999389648</ele>
        <time>2020-10-19T14:03:21.000Z</time>
      </trkpt>
      <trkpt lat="48.22067" lon="-3.12942">
        <ele>243.39999389648</ele>
        <time>2020-10-19T14:03:22.000Z</time>
      </trkpt>
      <trkpt lat="48.22067" lon="-3.12941">
        <ele>243.39999389648</ele>
        <time>2020-10-19T14:03:23.000Z</time>
      </trkpt>
      <trkpt lat="48.22067" lon="-3.12941">
        <ele>243.39999389648</ele>
        <time>2020-10-19T14:03:24.000Z</time>
      </trkpt>
      <trkpt lat="48.22067" lon="-3.12941">
        <ele>243.39999389648</ele>
        <time>2020-10-19T14:03:25.000Z</time>
      </trkpt>
      <trkpt lat="48.22067" lon="-3.12941">
        <ele>243.39999389648</ele>
        <time>2020-10-19T14:03:26.000Z</time>
      </trkpt>
      <trkpt lat="48.22067" lon="-3.12941">
        <ele>243.39999389648</ele>
        <time>2020-10-19T14:03:27.000Z</time>
      </trkpt>
      <trkpt lat="48.22067" lon="-3.12941">
        <ele>243.39999389648</ele>
        <time>2020-10-19T14:03:28.000Z</time>
      </trkpt>
      <trkpt lat="48.22068" lon="-3.12941">
        <ele>243.39999389648</ele>
        <time>2020-10-19T14:03:29.000Z</time>
      </trkpt>
      <trkpt lat="48.22068" lon="-3.12941">
        <ele>243.39999389648</ele>
        <time>2020-10-19T14:03:30.000Z</time>
      </trkpt>
      <trkpt lat="48.22068" lon="-3.12941">
        <ele>243.39999389648</ele>
        <time>2020-10-19T14:03:31.000Z</time>
      </trkpt>
      <trkpt lat="48.22068" lon="-3.12941">
        <ele>243.39999389648</ele>
        <time>2020-10-19T14:03:32.000Z</time>
      </trkpt>
      <trkpt lat="48.22068" lon="-3.12941">
        <ele>243.39999389648</ele>
        <time>2020-10-19T14:03:33.000Z</time>
      </trkpt>
      <trkpt lat="48.22068" lon="-3.12941">
        <ele>243.39999389648</ele>
        <time>2020-10-19T14:03:34.000Z</time>
      </trkpt>
      <trkpt lat="48.22068" lon="-3.12942">
        <ele>243.39999389648</ele>
        <time>2020-10-19T14:03:35.000Z</time>
      </trkpt>
      <trkpt lat="48.22068" lon="-3.12942">
        <ele>243.39999389648</ele>
        <time>2020-10-19T14:03:36.000Z</time>
      </trkpt>
      <trkpt lat="48.22068" lon="-3.12942">
        <ele>243.39999389648</ele>
        <time>2020-10-19T14:03:37.000Z</time>
      </trkpt>
      <trkpt lat="48.22068" lon="-3.12942">
        <ele>243.39999389648</ele>
        <time>2020-10-19T14:03:38.000Z</time>
      </trkpt>
      <trkpt lat="48.22068" lon="-3.12942">
        <ele>243.39999389648</ele>
        <time>2020-10-19T14:03:39.000Z</time>
      </trkpt>
      <trkpt lat="48.22068" lon="-3.12942">
        <ele>243.39999389648</ele>
        <time>2020-10-19T14:03:40.000Z</time>
      </trkpt>
      <trkpt lat="48.22068" lon="-3.12942">
        <ele>243.39999389648</ele>
        <time>2020-10-19T14:03:41.000Z</time>
      </trkpt>
      <trkpt lat="48.22068" lon="-3.12942">
        <ele>243.39999389648</ele>
        <time>2020-10-19T14:03:42.000Z</time>
      </trkpt>
      <trkpt lat="48.22068" lon="-3.12942">
        <ele>243.39999389648</ele>
        <time>2020-10-19T14:03:43.000Z</time>
      </trkpt>
      <trkpt lat="48.22068" lon="-3.12942">
        <ele>243.39999389648</ele>
        <time>2020-10-19T14:03:44.000Z</time>
      </trkpt>
      <trkpt lat="48.22068" lon="-3.12942">
        <ele>243.39999389648</ele>
        <time>2020-10-19T14:03:45.000Z</time>
      </trkpt>
      <trkpt lat="48.22068" lon="-3.12942">
        <ele>243.39999389648</ele>
        <time>2020-10-19T14:03:46.000Z</time>
      </trkpt>
      <trkpt lat="48.22068" lon="-3.12942">
        <ele>243.39999389648</ele>
        <time>2020-10-19T14:03:47.000Z</time>
      </trkpt>
      <trkpt lat="48.22068" lon="-3.12942">
        <ele>243.39999389648</ele>
        <time>2020-10-19T14:03:48.000Z</time>
      </trkpt>
      <trkpt lat="48.22068" lon="-3.12942">
        <ele>243.39999389648</ele>
        <time>2020-10-19T14:03:49.000Z</time>
      </trkpt>
      <trkpt lat="48.22068" lon="-3.12942">
        <ele>243.39999389648</ele>
        <time>2020-10-19T14:03:50.000Z</time>
      </trkpt>
      <trkpt lat="48.22068" lon="-3.12942">
        <ele>243.39999389648</ele>
        <time>2020-10-19T14:03:51.000Z</time>
      </trkpt>
      <trkpt lat="48.22068" lon="-3.12942">
        <ele>243.39999389648</ele>
        <time>2020-10-19T14:03:52.000Z</time>
      </trkpt>
      <trkpt lat="48.22068" lon="-3.12942">
        <ele>243.39999389648</ele>
        <time>2020-10-19T14:03:53.000Z</time>
      </trkpt>
      <trkpt lat="48.22068" lon="-3.12942">
        <ele>243.39999389648</ele>
        <time>2020-10-19T14:03:54.000Z</time>
      </trkpt>
      <trkpt lat="48.22068" lon="-3.12942">
        <ele>243.39999389648</ele>
        <time>2020-10-19T14:03:55.000Z</time>
      </trkpt>
      <trkpt lat="48.22068" lon="-3.12942">
        <ele>243.39999389648</ele>
        <time>2020-10-19T14:03:56.000Z</time>
      </trkpt>
      <trkpt lat="48.22068" lon="-3.12942">
        <ele>243.39999389648</ele>
        <time>2020-10-19T14:03:57.000Z</time>
      </trkpt>
      <trkpt lat="48.22068" lon="-3.12942">
        <ele>243.39999389648</ele>
        <time>2020-10-19T14:03:58.000Z</time>
      </trkpt>
      <trkpt lat="48.22068" lon="-3.12942">
        <ele>243.39999389648</ele>
        <time>2020-10-19T14:03:59.000Z</time>
      </trkpt>
      <trkpt lat="48.22068" lon="-3.12942">
        <ele>243.39999389648</ele>
        <time>2020-10-19T14:04:00.000Z</time>
      </trkpt>
      <trkpt lat="48.22068" lon="-3.12941">
        <ele>243.39999389648</ele>
        <time>2020-10-19T14:04:01.000Z</time>
      </trkpt>
      <trkpt lat="48.22068" lon="-3.12942">
        <ele>243.39999389648</ele>
        <time>2020-10-19T14:04:02.000Z</time>
      </trkpt>
      <trkpt lat="48.22068" lon="-3.12942">
        <ele>243.39999389648</ele>
        <time>2020-10-19T14:04:03.000Z</time>
      </trkpt>
      <trkpt lat="48.22068" lon="-3.12942">
        <ele>243.39999389648</ele>
        <time>2020-10-19T14:04:04.000Z</time>
      </trkpt>
      <trkpt lat="48.22068" lon="-3.12943">
        <ele>243.39999389648</ele>
        <time>2020-10-19T14:04:05.000Z</time>
      </trkpt>
      <trkpt lat="48.22068" lon="-3.12943">
        <ele>243.39999389648</ele>
        <time>2020-10-19T14:04:06.000Z</time>
      </trkpt>
      <trkpt lat="48.22068" lon="-3.12943">
        <ele>243.39999389648</ele>
        <time>2020-10-19T14:04:07.000Z</time>
      </trkpt>
      <trkpt lat="48.22068" lon="-3.12943">
        <ele>243.39999389648</ele>
        <time>2020-10-19T14:04:08.000Z</time>
      </trkpt>
      <trkpt lat="48.22068" lon="-3.12943">
        <ele>243.39999389648</ele>
        <time>2020-10-19T14:04:09.000Z</time>
      </trkpt>
      <trkpt lat="48.22068" lon="-3.12943">
        <ele>243.39999389648</ele>
        <time>2020-10-19T14:04:10.000Z</time>
      </trkpt>
      <trkpt lat="48.22068" lon="-3.12943">
        <ele>243.39999389648</ele>
        <time>2020-10-19T14:04:11.000Z</time>
      </trkpt>
      <trkpt lat="48.22068" lon="-3.12943">
        <ele>243.39999389648</ele>
        <time>2020-10-19T14:04:12.000Z</time>
      </trkpt>
      <trkpt lat="48.22068" lon="-3.12943">
        <ele>243.39999389648</ele>
        <time>2020-10-19T14:04:13.000Z</time>
      </trkpt>
      <trkpt lat="48.22068" lon="-3.12943">
        <ele>243.39999389648</ele>
        <time>2020-10-19T14:04:14.000Z</time>
      </trkpt>
      <trkpt lat="48.22068" lon="-3.12943">
        <ele>243.39999389648</ele>
        <time>2020-10-19T14:04:15.000Z</time>
      </trkpt>
      <trkpt lat="48.22068" lon="-3.12943">
        <ele>243.39999389648</ele>
        <time>2020-10-19T14:04:16.000Z</time>
      </trkpt>
      <trkpt lat="48.22068" lon="-3.12943">
        <ele>243.39999389648</ele>
        <time>2020-10-19T14:04:17.000Z</time>
      </trkpt>
      <trkpt lat="48.22068" lon="-3.12943">
        <ele>243.39999389648</ele>
        <time>2020-10-19T14:04:18.000Z</time>
      </trkpt>
      <trkpt lat="48.22068" lon="-3.12943">
        <ele>243.39999389648</ele>
        <time>2020-10-19T14:04:19.000Z</time>
      </trkpt>
      <trkpt lat="48.22068" lon="-3.12943">
        <ele>243.39999389648</ele>
        <time>2020-10-19T14:04:20.000Z</time>
      </trkpt>
      <trkpt lat="48.22068" lon="-3.12943">
        <ele>243.39999389648</ele>
        <time>2020-10-19T14:04:21.000Z</time>
      </trkpt>
      <trkpt lat="48.22068" lon="-3.12944">
        <ele>243.39999389648</ele>
        <time>2020-10-19T14:04:22.000Z</time>
      </trkpt>
      <trkpt lat="48.22068" lon="-3.12944">
        <ele>243.60000610352</ele>
        <time>2020-10-19T14:04:23.000Z</time>
      </trkpt>
      <trkpt lat="48.22069" lon="-3.12944">
        <ele>243.60000610352</ele>
        <time>2020-10-19T14:04:24.000Z</time>
      </trkpt>
      <trkpt lat="48.22069" lon="-3.12944">
        <ele>243.60000610352</ele>
        <time>2020-10-19T14:04:25.000Z</time>
      </trkpt>
      <trkpt lat="48.22069" lon="-3.12944">
        <ele>243.60000610352</ele>
        <time>2020-10-19T14:04:26.000Z</time>
      </trkpt>
      <trkpt lat="48.22069" lon="-3.12944">
        <ele>243.60000610352</ele>
        <time>2020-10-19T14:04:27.000Z</time>
      </trkpt>
      <trkpt lat="48.22069" lon="-3.12944">
        <ele>243.60000610352</ele>
        <time>2020-10-19T14:04:28.000Z</time>
      </trkpt>
      <trkpt lat="48.22069" lon="-3.12944">
        <ele>243.60000610352</ele>
        <time>2020-10-19T14:04:29.000Z</time>
      </trkpt>
      <trkpt lat="48.22069" lon="-3.12944">
        <ele>243.60000610352</ele>
        <time>2020-10-19T14:04:30.000Z</time>
      </trkpt>
      <trkpt lat="48.22069" lon="-3.12944">
        <ele>243.60000610352</ele>
        <time>2020-10-19T14:04:31.000Z</time>
      </trkpt>
      <trkpt lat="48.22069" lon="-3.12944">
        <ele>243.60000610352</ele>
        <time>2020-10-19T14:04:32.000Z</time>
      </trkpt>
      <trkpt lat="48.22069" lon="-3.12944">
        <ele>243.60000610352</ele>
        <time>2020-10-19T14:04:33.000Z</time>
      </trkpt>
      <trkpt lat="48.22069" lon="-3.12944">
        <ele>243.60000610352</ele>
        <time>2020-10-19T14:04:34.000Z</time>
      </trkpt>
      <trkpt lat="48.22069" lon="-3.12944">
        <ele>243.60000610352</ele>
        <time>2020-10-19T14:04:35.000Z</time>
      </trkpt>
      <trkpt lat="48.22069" lon="-3.12944">
        <ele>243.60000610352</ele>
        <time>2020-10-19T14:04:36.000Z</time>
      </trkpt>
      <trkpt lat="48.22069" lon="-3.12943">
        <ele>243.39999389648</ele>
        <time>2020-10-19T14:04:37.000Z</time>
      </trkpt>
      <trkpt lat="48.22069" lon="-3.12943">
        <ele>243.39999389648</ele>
        <time>2020-10-19T14:04:38.000Z</time>
      </trkpt>
      <trkpt lat="48.22069" lon="-3.12943">
        <ele>243.39999389648</ele>
        <time>2020-10-19T14:04:39.000Z</time>
      </trkpt>
      <trkpt lat="48.22069" lon="-3.12943">
        <ele>243.39999389648</ele>
        <time>2020-10-19T14:04:40.000Z</time>
      </trkpt>
      <trkpt lat="48.22069" lon="-3.12943">
        <ele>243.39999389648</ele>
        <time>2020-10-19T14:04:41.000Z</time>
      </trkpt>
      <trkpt lat="48.22069" lon="-3.12943">
        <ele>243.39999389648</ele>
        <time>2020-10-19T14:04:42.000Z</time>
      </trkpt>
      <trkpt lat="48.22069" lon="-3.12943">
        <ele>243.39999389648</ele>
        <time>2020-10-19T14:04:43.000Z</time>
      </trkpt>
      <trkpt lat="48.22069" lon="-3.12943">
        <ele>243.39999389648</ele>
        <time>2020-10-19T14:04:44.000Z</time>
      </trkpt>
      <trkpt lat="48.22069" lon="-3.12943">
        <ele>243.39999389648</ele>
        <time>2020-10-19T14:04:45.000Z</time>
      </trkpt>
      <trkpt lat="48.22069" lon="-3.12943">
        <ele>243.39999389648</ele>
        <time>2020-10-19T14:04:46.000Z</time>
      </trkpt>
      <trkpt lat="48.22069" lon="-3.12942">
        <ele>243.39999389648</ele>
        <time>2020-10-19T14:04:47.000Z</time>
      </trkpt>
      <trkpt lat="48.22069" lon="-3.12941">
        <ele>243.39999389648</ele>
        <time>2020-10-19T14:04:48.000Z</time>
      </trkpt>
      <trkpt lat="48.22069" lon="-3.12941">
        <ele>243.39999389648</ele>
        <time>2020-10-19T14:04:49.000Z</time>
      </trkpt>
      <trkpt lat="48.22068" lon="-3.1294">
        <ele>243.39999389648</ele>
        <time>2020-10-19T14:04:50.000Z</time>
      </trkpt>
      <trkpt lat="48.22068" lon="-3.12939">
        <ele>243.19999694824</ele>
        <time>2020-10-19T14:04:51.000Z</time>
      </trkpt>
      <trkpt lat="48.22067" lon="-3.12939">
        <ele>243.19999694824</ele>
        <time>2020-10-19T14:04:52.000Z</time>
      </trkpt>
      <trkpt lat="48.22067" lon="-3.12939">
        <ele>243.19999694824</ele>
        <time>2020-10-19T14:04:53.000Z</time>
      </trkpt>
      <trkpt lat="48.22068" lon="-3.12939">
        <ele>243.19999694824</ele>
        <time>2020-10-19T14:04:54.000Z</time>
      </trkpt>
      <trkpt lat="48.22068" lon="-3.12939">
        <ele>243.19999694824</ele>
        <time>2020-10-19T14:04:55.000Z</time>
      </trkpt>
      <trkpt lat="48.22068" lon="-3.12939">
        <ele>243.19999694824</ele>
        <time>2020-10-19T14:04:56.000Z</time>
      </trkpt>
      <trkpt lat="48.22069" lon="-3.1294">
        <ele>243.39999389648</ele>
        <time>2020-10-19T14:04:57.000Z</time>
      </trkpt>
      <trkpt lat="48.22069" lon="-3.1294">
        <ele>243.39999389648</ele>
        <time>2020-10-19T14:04:58.000Z</time>
      </trkpt>
      <trkpt lat="48.22069" lon="-3.1294">
        <ele>243.39999389648</ele>
        <time>2020-10-19T14:04:59.000Z</time>
      </trkpt>
      <trkpt lat="48.2207" lon="-3.1294">
        <ele>243.39999389648</ele>
        <time>2020-10-19T14:05:00.000Z</time>
      </trkpt>
      <trkpt lat="48.2207" lon="-3.1294">
        <ele>243.39999389648</ele>
        <time>2020-10-19T14:05:01.000Z</time>
      </trkpt>
      <trkpt lat="48.22071" lon="-3.1294">
        <ele>243.39999389648</ele>
        <time>2020-10-19T14:05:02.000Z</time>
      </trkpt>
      <trkpt lat="48.22071" lon="-3.1294">
        <ele>243.39999389648</ele>
        <time>2020-10-19T14:05:03.000Z</time>
      </trkpt>
      <trkpt lat="48.22071" lon="-3.1294">
        <ele>243.39999389648</ele>
        <time>2020-10-19T14:05:04.000Z</time>
      </trkpt>
      <trkpt lat="48.22071" lon="-3.1294">
        <ele>243.39999389648</ele>
        <time>2020-10-19T14:05:05.000Z</time>
      </trkpt>
      <trkpt lat="48.22071" lon="-3.1294">
        <ele>243.39999389648</ele>
        <time>2020-10-19T14:05:06.000Z</time>
      </trkpt>
      <trkpt lat="48.22071" lon="-3.1294">
        <ele>243.39999389648</ele>
        <time>2020-10-19T14:05:07.000Z</time>
      </trkpt>
      <trkpt lat="48.22071" lon="-3.1294">
        <ele>243.39999389648</ele>
        <time>2020-10-19T14:05:08.000Z</time>
      </trkpt>
      <trkpt lat="48.22071" lon="-3.1294">
        <ele>243.39999389648</ele>
        <time>2020-10-19T14:05:09.000Z</time>
      </trkpt>
      <trkpt lat="48.22071" lon="-3.1294">
        <ele>243.39999389648</ele>
        <time>2020-10-19T14:05:10.000Z</time>
      </trkpt>
      <trkpt lat="48.22071" lon="-3.1294">
        <ele>243.39999389648</ele>
        <time>2020-10-19T14:05:11.000Z</time>
      </trkpt>
      <trkpt lat="48.22071" lon="-3.1294">
        <ele>243.39999389648</ele>
        <time>2020-10-19T14:05:12.000Z</time>
      </trkpt>
      <trkpt lat="48.22071" lon="-3.1294">
        <ele>243.39999389648</ele>
        <time>2020-10-19T14:05:13.000Z</time>
      </trkpt>
      <trkpt lat="48.22071" lon="-3.1294">
        <ele>243.39999389648</ele>
        <time>2020-10-19T14:05:14.000Z</time>
      </trkpt>
      <trkpt lat="48.22071" lon="-3.1294">
        <ele>243.39999389648</ele>
        <time>2020-10-19T14:05:15.000Z</time>
      </trkpt>
      <trkpt lat="48.22071" lon="-3.1294">
        <ele>243.39999389648</ele>
        <time>2020-10-19T14:05:16.000Z</time>
      </trkpt>
      <trkpt lat="48.22071" lon="-3.1294">
        <ele>243.39999389648</ele>
        <time>2020-10-19T14:05:17.000Z</time>
      </trkpt>
      <trkpt lat="48.22071" lon="-3.1294">
        <ele>243.39999389648</ele>
        <time>2020-10-19T14:05:18.000Z</time>
      </trkpt>
      <trkpt lat="48.22071" lon="-3.1294">
        <ele>243.39999389648</ele>
        <time>2020-10-19T14:05:19.000Z</time>
      </trkpt>
      <trkpt lat="48.22071" lon="-3.1294">
        <ele>243.39999389648</ele>
        <time>2020-10-19T14:05:20.000Z</time>
      </trkpt>
      <trkpt lat="48.22071" lon="-3.1294">
        <ele>243.39999389648</ele>
        <time>2020-10-19T14:05:21.000Z</time>
      </trkpt>
      <trkpt lat="48.22071" lon="-3.1294">
        <ele>243.39999389648</ele>
        <time>2020-10-19T14:05:22.000Z</time>
      </trkpt>
      <trkpt lat="48.22071" lon="-3.1294">
        <ele>243.39999389648</ele>
        <time>2020-10-19T14:05:23.000Z</time>
      </trkpt>
      <trkpt lat="48.22071" lon="-3.1294">
        <ele>243.39999389648</ele>
        <time>2020-10-19T14:05:24.000Z</time>
      </trkpt>
      <trkpt lat="48.22071" lon="-3.1294">
        <ele>243.39999389648</ele>
        <time>2020-10-19T14:05:25.000Z</time>
      </trkpt>
      <trkpt lat="48.2207" lon="-3.1294">
        <ele>243.39999389648</ele>
        <time>2020-10-19T14:05:26.000Z</time>
      </trkpt>
      <trkpt lat="48.2207" lon="-3.1294">
        <ele>243.39999389648</ele>
        <time>2020-10-19T14:05:27.000Z</time>
      </trkpt>
      <trkpt lat="48.22069" lon="-3.12939">
        <ele>243.39999389648</ele>
        <time>2020-10-19T14:05:28.000Z</time>
      </trkpt>
      <trkpt lat="48.22069" lon="-3.12938">
        <ele>243.19999694824</ele>
        <time>2020-10-19T14:05:29.000Z</time>
      </trkpt>
      <trkpt lat="48.22068" lon="-3.12938">
        <ele>243.19999694824</ele>
        <time>2020-10-19T14:05:30.000Z</time>
      </trkpt>
      <trkpt lat="48.22067" lon="-3.12937">
        <ele>243.19999694824</ele>
        <time>2020-10-19T14:05:31.000Z</time>
      </trkpt>
      <trkpt lat="48.22067" lon="-3.12935">
        <ele>243</ele>
        <time>2020-10-19T14:05:32.000Z</time>
      </trkpt>
      <trkpt lat="48.22066" lon="-3.12933">
        <ele>242.80000305176</ele>
        <time>2020-10-19T14:05:33.000Z</time>
      </trkpt>
      <trkpt lat="48.22065" lon="-3.12932">
        <ele>242.80000305176</ele>
        <time>2020-10-19T14:05:34.000Z</time>
      </trkpt>
      <trkpt lat="48.22064" lon="-3.1293">
        <ele>242.60000610352</ele>
        <time>2020-10-19T14:05:35.000Z</time>
      </trkpt>
      <trkpt lat="48.22064" lon="-3.12928">
        <ele>242.60000610352</ele>
        <time>2020-10-19T14:05:36.000Z</time>
      </trkpt>
      <trkpt lat="48.22063" lon="-3.12926">
        <ele>242.39999389648</ele>
        <time>2020-10-19T14:05:37.000Z</time>
      </trkpt>
      <trkpt lat="48.22063" lon="-3.12925">
        <ele>242.19999694824</ele>
        <time>2020-10-19T14:05:38.000Z</time>
      </trkpt>
      <trkpt lat="48.22062" lon="-3.12923">
        <ele>242.19999694824</ele>
        <time>2020-10-19T14:05:39.000Z</time>
      </trkpt>
      <trkpt lat="48.22062" lon="-3.12921">
        <ele>242</ele>
        <time>2020-10-19T14:05:40.000Z</time>
      </trkpt>
      <trkpt lat="48.22061" lon="-3.12919">
        <ele>241.80000305176</ele>
        <time>2020-10-19T14:05:41.000Z</time>
      </trkpt>
      <trkpt lat="48.22061" lon="-3.12917">
        <ele>241.80000305176</ele>
        <time>2020-10-19T14:05:42.000Z</time>
      </trkpt>
      <trkpt lat="48.2206" lon="-3.12913">
        <ele>241.39999389648</ele>
        <time>2020-10-19T14:05:43.000Z</time>
      </trkpt>
      <trkpt lat="48.2206" lon="-3.12913">
        <ele>241.39999389648</ele>
        <time>2020-10-19T14:05:44.000Z</time>
      </trkpt>
      <trkpt lat="48.22059" lon="-3.12911">
        <ele>241.39999389648</ele>
        <time>2020-10-19T14:05:45.000Z</time>
      </trkpt>
      <trkpt lat="48.22059" lon="-3.12909">
        <ele>241.19999694824</ele>
        <time>2020-10-19T14:05:46.000Z</time>
      </trkpt>
      <trkpt lat="48.22059" lon="-3.12907">
        <ele>241</ele>
        <time>2020-10-19T14:05:47.000Z</time>
      </trkpt>
      <trkpt lat="48.22058" lon="-3.12905">
        <ele>241</ele>
        <time>2020-10-19T14:05:48.000Z</time>
      </trkpt>
      <trkpt lat="48.22058" lon="-3.12903">
        <ele>240.80000305176</ele>
        <time>2020-10-19T14:05:49.000Z</time>
      </trkpt>
      <trkpt lat="48.22058" lon="-3.12901">
        <ele>240.60000610352</ele>
        <time>2020-10-19T14:05:50.000Z</time>
      </trkpt>
      <trkpt lat="48.22058" lon="-3.12899">
        <ele>240.60000610352</ele>
        <time>2020-10-19T14:05:51.000Z</time>
      </trkpt>
      <trkpt lat="48.22057" lon="-3.12897">
        <ele>240.39999389648</ele>
        <time>2020-10-19T14:05:52.000Z</time>
      </trkpt>
      <trkpt lat="48.22057" lon="-3.12895">
        <ele>240.19999694824</ele>
        <time>2020-10-19T14:05:53.000Z</time>
      </trkpt>
      <trkpt lat="48.22057" lon="-3.12893">
        <ele>240.19999694824</ele>
        <time>2020-10-19T14:05:54.000Z</time>
      </trkpt>
      <trkpt lat="48.22057" lon="-3.12892">
        <ele>240</ele>
        <time>2020-10-19T14:05:55.000Z</time>
      </trkpt>
      <trkpt lat="48.22057" lon="-3.1289">
        <ele>240</ele>
        <time>2020-10-19T14:05:56.000Z</time>
      </trkpt>
      <trkpt lat="48.22057" lon="-3.12888">
        <ele>239.80000305176</ele>
        <time>2020-10-19T14:05:57.000Z</time>
      </trkpt>
      <trkpt lat="48.22057" lon="-3.12886">
        <ele>239.60000610352</ele>
        <time>2020-10-19T14:05:58.000Z</time>
      </trkpt>
      <trkpt lat="48.22057" lon="-3.12884">
        <ele>239.60000610352</ele>
        <time>2020-10-19T14:05:59.000Z</time>
      </trkpt>
      <trkpt lat="48.22057" lon="-3.12883">
        <ele>239.39999389648</ele>
        <time>2020-10-19T14:06:00.000Z</time>
      </trkpt>
      <trkpt lat="48.22057" lon="-3.12881">
        <ele>239.39999389648</ele>
        <time>2020-10-19T14:06:01.000Z</time>
      </trkpt>
      <trkpt lat="48.22057" lon="-3.12879">
        <ele>239.19999694824</ele>
        <time>2020-10-19T14:06:02.000Z</time>
      </trkpt>
      <trkpt lat="48.22057" lon="-3.12877">
        <ele>239.19999694824</ele>
        <time>2020-10-19T14:06:03.000Z</time>
      </trkpt>
      <trkpt lat="48.22057" lon="-3.12875">
        <ele>239.19999694824</ele>
        <time>2020-10-19T14:06:04.000Z</time>
      </trkpt>
      <trkpt lat="48.22057" lon="-3.12873">
        <ele>239</ele>
        <time>2020-10-19T14:06:05.000Z</time>
      </trkpt>
      <trkpt lat="48.22057" lon="-3.12871">
        <ele>239</ele>
        <time>2020-10-19T14:06:06.000Z</time>
      </trkpt>
      <trkpt lat="48.22058" lon="-3.12869">
        <ele>238.80000305176</ele>
        <time>2020-10-19T14:06:07.000Z</time>
      </trkpt>
      <trkpt lat="48.22058" lon="-3.12867">
        <ele>238.80000305176</ele>
        <time>2020-10-19T14:06:08.000Z</time>
      </trkpt>
      <trkpt lat="48.22058" lon="-3.12865">
        <ele>238.60000610352</ele>
        <time>2020-10-19T14:06:09.000Z</time>
      </trkpt>
      <trkpt lat="48.22058" lon="-3.12864">
        <ele>238.60000610352</ele>
        <time>2020-10-19T14:06:10.000Z</time>
      </trkpt>
      <trkpt lat="48.22058" lon="-3.12862">
        <ele>238.60000610352</ele>
        <time>2020-10-19T14:06:11.000Z</time>
      </trkpt>
      <trkpt lat="48.22058" lon="-3.1286">
        <ele>238.39999389648</ele>
        <time>2020-10-19T14:06:12.000Z</time>
      </trkpt>
      <trkpt lat="48.22057" lon="-3.12858">
        <ele>238.39999389648</ele>
        <time>2020-10-19T14:06:13.000Z</time>
      </trkpt>
      <trkpt lat="48.22057" lon="-3.12856">
        <ele>238.19999694824</ele>
        <time>2020-10-19T14:06:14.000Z</time>
      </trkpt>
      <trkpt lat="48.22057" lon="-3.12855">
        <ele>238.19999694824</ele>
        <time>2020-10-19T14:06:15.000Z</time>
      </trkpt>
      <trkpt lat="48.22057" lon="-3.12853">
        <ele>238</ele>
        <time>2020-10-19T14:06:16.000Z</time>
      </trkpt>
      <trkpt lat="48.22058" lon="-3.12851">
        <ele>238</ele>
        <time>2020-10-19T14:06:17.000Z</time>
      </trkpt>
      <trkpt lat="48.22058" lon="-3.12849">
        <ele>238</ele>
        <time>2020-10-19T14:06:18.000Z</time>
      </trkpt>
      <trkpt lat="48.22058" lon="-3.12847">
        <ele>237.80000305176</ele>
        <time>2020-10-19T14:06:19.000Z</time>
      </trkpt>
      <trkpt lat="48.22058" lon="-3.12846">
        <ele>237.80000305176</ele>
        <time>2020-10-19T14:06:20.000Z</time>
      </trkpt>
      <trkpt lat="48.22058" lon="-3.12844">
        <ele>237.60000610352</ele>
        <time>2020-10-19T14:06:21.000Z</time>
      </trkpt>
      <trkpt lat="48.22058" lon="-3.12842">
        <ele>237.60000610352</ele>
        <time>2020-10-19T14:06:22.000Z</time>
      </trkpt>
      <trkpt lat="48.22058" lon="-3.1284">
        <ele>237.39999389648</ele>
        <time>2020-10-19T14:06:23.000Z</time>
      </trkpt>
      <trkpt lat="48.22058" lon="-3.12838">
        <ele>237.39999389648</ele>
        <time>2020-10-19T14:06:24.000Z</time>
      </trkpt>
      <trkpt lat="48.22057" lon="-3.12836">
        <ele>237.19999694824</ele>
        <time>2020-10-19T14:06:25.000Z</time>
      </trkpt>
      <trkpt lat="48.22057" lon="-3.12834">
        <ele>237.19999694824</ele>
        <time>2020-10-19T14:06:26.000Z</time>
      </trkpt>
      <trkpt lat="48.22057" lon="-3.12832">
        <ele>237</ele>
        <time>2020-10-19T14:06:27.000Z</time>
      </trkpt>
      <trkpt lat="48.22057" lon="-3.1283">
        <ele>237</ele>
        <time>2020-10-19T14:06:28.000Z</time>
      </trkpt>
      <trkpt lat="48.22057" lon="-3.12828">
        <ele>236.80000305176</ele>
        <time>2020-10-19T14:06:29.000Z</time>
      </trkpt>
      <trkpt lat="48.22058" lon="-3.12826">
        <ele>236.80000305176</ele>
        <time>2020-10-19T14:06:30.000Z</time>
      </trkpt>
      <trkpt lat="48.22058" lon="-3.12825">
        <ele>236.80000305176</ele>
        <time>2020-10-19T14:06:31.000Z</time>
      </trkpt>
      <trkpt lat="48.22058" lon="-3.12823">
        <ele>236.60000610352</ele>
        <time>2020-10-19T14:06:32.000Z</time>
      </trkpt>
      <trkpt lat="48.22058" lon="-3.12821">
        <ele>236.60000610352</ele>
        <time>2020-10-19T14:06:33.000Z</time>
      </trkpt>
      <trkpt lat="48.22059" lon="-3.12819">
        <ele>236.60000610352</ele>
        <time>2020-10-19T14:06:34.000Z</time>
      </trkpt>
      <trkpt lat="48.22059" lon="-3.12818">
        <ele>236.39999389648</ele>
        <time>2020-10-19T14:06:35.000Z</time>
      </trkpt>
      <trkpt lat="48.22059" lon="-3.12816">
        <ele>236.39999389648</ele>
        <time>2020-10-19T14:06:36.000Z</time>
      </trkpt>
      <trkpt lat="48.2206" lon="-3.12814">
        <ele>236.39999389648</ele>
        <time>2020-10-19T14:06:37.000Z</time>
      </trkpt>
      <trkpt lat="48.2206" lon="-3.12813">
        <ele>236.19999694824</ele>
        <time>2020-10-19T14:06:38.000Z</time>
      </trkpt>
      <trkpt lat="48.22061" lon="-3.12812">
        <ele>236.19999694824</ele>
        <time>2020-10-19T14:06:39.000Z</time>
      </trkpt>
      <trkpt lat="48.22061" lon="-3.1281">
        <ele>236.19999694824</ele>
        <time>2020-10-19T14:06:40.000Z</time>
      </trkpt>
      <trkpt lat="48.22062" lon="-3.12809">
        <ele>236.19999694824</ele>
        <time>2020-10-19T14:06:41.000Z</time>
      </trkpt>
      <trkpt lat="48.22063" lon="-3.12807">
        <ele>236</ele>
        <time>2020-10-19T14:06:42.000Z</time>
      </trkpt>
      <trkpt lat="48.22063" lon="-3.12806">
        <ele>236</ele>
        <time>2020-10-19T14:06:43.000Z</time>
      </trkpt>
      <trkpt lat="48.22064" lon="-3.12804">
        <ele>236</ele>
        <time>2020-10-19T14:06:44.000Z</time>
      </trkpt>
      <trkpt lat="48.22064" lon="-3.12803">
        <ele>236</ele>
        <time>2020-10-19T14:06:45.000Z</time>
      </trkpt>
      <trkpt lat="48.22065" lon="-3.12802">
        <ele>235.80000305176</ele>
        <time>2020-10-19T14:06:46.000Z</time>
      </trkpt>
      <trkpt lat="48.22067" lon="-3.12801">
        <ele>236</ele>
        <time>2020-10-19T14:06:47.000Z</time>
      </trkpt>
      <trkpt lat="48.22068" lon="-3.128">
        <ele>236</ele>
        <time>2020-10-19T14:06:48.000Z</time>
      </trkpt>
      <trkpt lat="48.22069" lon="-3.128">
        <ele>236</ele>
        <time>2020-10-19T14:06:49.000Z</time>
      </trkpt>
      <trkpt lat="48.2207" lon="-3.12799">
        <ele>236</ele>
        <time>2020-10-19T14:06:50.000Z</time>
      </trkpt>
      <trkpt lat="48.2207" lon="-3.12798">
        <ele>235.80000305176</ele>
        <time>2020-10-19T14:06:51.000Z</time>
      </trkpt>
      <trkpt lat="48.22071" lon="-3.12797">
        <ele>235.80000305176</ele>
        <time>2020-10-19T14:06:52.000Z</time>
      </trkpt>
      <trkpt lat="48.22072" lon="-3.12795">
        <ele>235.80000305176</ele>
        <time>2020-10-19T14:06:53.000Z</time>
      </trkpt>
      <trkpt lat="48.22072" lon="-3.12794">
        <ele>235.80000305176</ele>
        <time>2020-10-19T14:06:54.000Z</time>
      </trkpt>
      <trkpt lat="48.22072" lon="-3.12793">
        <ele>235.80000305176</ele>
        <time>2020-10-19T14:06:55.000Z</time>
      </trkpt>
      <trkpt lat="48.22072" lon="-3.12791">
        <ele>235.60000610352</ele>
        <time>2020-10-19T14:06:56.000Z</time>
      </trkpt>
      <trkpt lat="48.22073" lon="-3.12789">
        <ele>235.60000610352</ele>
        <time>2020-10-19T14:06:57.000Z</time>
      </trkpt>
      <trkpt lat="48.22073" lon="-3.12788">
        <ele>235.60000610352</ele>
        <time>2020-10-19T14:06:58.000Z</time>
      </trkpt>
      <trkpt lat="48.22073" lon="-3.12786">
        <ele>235.39999389648</ele>
        <time>2020-10-19T14:06:59.000Z</time>
      </trkpt>
      <trkpt lat="48.22073" lon="-3.12785">
        <ele>235.39999389648</ele>
        <time>2020-10-19T14:07:00.000Z</time>
      </trkpt>
      <trkpt lat="48.22073" lon="-3.12783">
        <ele>235.39999389648</ele>
        <time>2020-10-19T14:07:01.000Z</time>
      </trkpt>
      <trkpt lat="48.22074" lon="-3.12783">
        <ele>235.19999694824</ele>
        <time>2020-10-19T14:07:02.000Z</time>
      </trkpt>
      <trkpt lat="48.22074" lon="-3.12782">
        <ele>235.19999694824</ele>
        <time>2020-10-19T14:07:03.000Z</time>
      </trkpt>
      <trkpt lat="48.22074" lon="-3.12782">
        <ele>235.19999694824</ele>
        <time>2020-10-19T14:07:04.000Z</time>
      </trkpt>
      <trkpt lat="48.22075" lon="-3.12782">
        <ele>235.19999694824</ele>
        <time>2020-10-19T14:07:05.000Z</time>
      </trkpt>
      <trkpt lat="48.22075" lon="-3.12782">
        <ele>235.19999694824</ele>
        <time>2020-10-19T14:07:06.000Z</time>
      </trkpt>
      <trkpt lat="48.22075" lon="-3.12782">
        <ele>235.19999694824</ele>
        <time>2020-10-19T14:07:07.000Z</time>
      </trkpt>
      <trkpt lat="48.22075" lon="-3.12782">
        <ele>235.19999694824</ele>
        <time>2020-10-19T14:07:08.000Z</time>
      </trkpt>
      <trkpt lat="48.22075" lon="-3.12782">
        <ele>235.19999694824</ele>
        <time>2020-10-19T14:07:09.000Z</time>
      </trkpt>
      <trkpt lat="48.22075" lon="-3.12782">
        <ele>235.19999694824</ele>
        <time>2020-10-19T14:07:10.000Z</time>
      </trkpt>
      <trkpt lat="48.22075" lon="-3.12782">
        <ele>235.19999694824</ele>
        <time>2020-10-19T14:07:11.000Z</time>
      </trkpt>
      <trkpt lat="48.22075" lon="-3.12782">
        <ele>235.19999694824</ele>
        <time>2020-10-19T14:07:12.000Z</time>
      </trkpt>
      <trkpt lat="48.22075" lon="-3.12782">
        <ele>235.19999694824</ele>
        <time>2020-10-19T14:07:13.000Z</time>
      </trkpt>
      <trkpt lat="48.22075" lon="-3.12782">
        <ele>235.19999694824</ele>
        <time>2020-10-19T14:07:14.000Z</time>
      </trkpt>
      <trkpt lat="48.22075" lon="-3.12782">
        <ele>235.19999694824</ele>
        <time>2020-10-19T14:07:15.000Z</time>
      </trkpt>
      <trkpt lat="48.22075" lon="-3.12782">
        <ele>235.19999694824</ele>
        <time>2020-10-19T14:07:16.000Z</time>
      </trkpt>
      <trkpt lat="48.22075" lon="-3.12782">
        <ele>235.19999694824</ele>
        <time>2020-10-19T14:07:17.000Z</time>
      </trkpt>
      <trkpt lat="48.22075" lon="-3.12781">
        <ele>235.19999694824</ele>
        <time>2020-10-19T14:07:18.000Z</time>
      </trkpt>
      <trkpt lat="48.22075" lon="-3.12782">
        <ele>235.19999694824</ele>
        <time>2020-10-19T14:07:19.000Z</time>
      </trkpt>
      <trkpt lat="48.22075" lon="-3.12782">
        <ele>235.19999694824</ele>
        <time>2020-10-19T14:07:20.000Z</time>
      </trkpt>
      <trkpt lat="48.22075" lon="-3.12782">
        <ele>235.19999694824</ele>
        <time>2020-10-19T14:07:21.000Z</time>
      </trkpt>
      <trkpt lat="48.22075" lon="-3.12782">
        <ele>235.19999694824</ele>
        <time>2020-10-19T14:07:22.000Z</time>
      </trkpt>
      <trkpt lat="48.22075" lon="-3.12782">
        <ele>235.19999694824</ele>
        <time>2020-10-19T14:07:23.000Z</time>
      </trkpt>
      <trkpt lat="48.22075" lon="-3.12781">
        <ele>235.19999694824</ele>
        <time>2020-10-19T14:07:24.000Z</time>
      </trkpt>
      <trkpt lat="48.22075" lon="-3.12781">
        <ele>235.19999694824</ele>
        <time>2020-10-19T14:07:25.000Z</time>
      </trkpt>
      <trkpt lat="48.22075" lon="-3.12782">
        <ele>235.19999694824</ele>
        <time>2020-10-19T14:07:26.000Z</time>
      </trkpt>
      <trkpt lat="48.22075" lon="-3.12782">
        <ele>235.19999694824</ele>
        <time>2020-10-19T14:07:27.000Z</time>
      </trkpt>
      <trkpt lat="48.22075" lon="-3.12782">
        <ele>235.19999694824</ele>
        <time>2020-10-19T14:07:28.000Z</time>
      </trkpt>
      <trkpt lat="48.22075" lon="-3.12782">
        <ele>235.19999694824</ele>
        <time>2020-10-19T14:07:29.000Z</time>
      </trkpt>
      <trkpt lat="48.22075" lon="-3.12782">
        <ele>235.19999694824</ele>
        <time>2020-10-19T14:07:30.000Z</time>
      </trkpt>
      <trkpt lat="48.22075" lon="-3.12782">
        <ele>235.19999694824</ele>
        <time>2020-10-19T14:07:31.000Z</time>
      </trkpt>
      <trkpt lat="48.22075" lon="-3.12782">
        <ele>235.19999694824</ele>
        <time>2020-10-19T14:07:32.000Z</time>
      </trkpt>
      <trkpt lat="48.22075" lon="-3.12782">
        <ele>235.19999694824</ele>
        <time>2020-10-19T14:07:33.000Z</time>
      </trkpt>
      <trkpt lat="48.22075" lon="-3.12782">
        <ele>235.19999694824</ele>
        <time>2020-10-19T14:07:34.000Z</time>
      </trkpt>
      <trkpt lat="48.22075" lon="-3.12782">
        <ele>235.19999694824</ele>
        <time>2020-10-19T14:07:35.000Z</time>
      </trkpt>
      <trkpt lat="48.22075" lon="-3.12782">
        <ele>235.19999694824</ele>
        <time>2020-10-19T14:07:36.000Z</time>
      </trkpt>
      <trkpt lat="48.22075" lon="-3.12782">
        <ele>235.19999694824</ele>
        <time>2020-10-19T14:07:37.000Z</time>
      </trkpt>
      <trkpt lat="48.22075" lon="-3.12782">
        <ele>235.19999694824</ele>
        <time>2020-10-19T14:07:38.000Z</time>
      </trkpt>
      <trkpt lat="48.22075" lon="-3.12782">
        <ele>235.19999694824</ele>
        <time>2020-10-19T14:07:39.000Z</time>
      </trkpt>
      <trkpt lat="48.22075" lon="-3.12782">
        <ele>235.19999694824</ele>
        <time>2020-10-19T14:07:40.000Z</time>
      </trkpt>
      <trkpt lat="48.22075" lon="-3.12782">
        <ele>235.19999694824</ele>
        <time>2020-10-19T14:07:41.000Z</time>
      </trkpt>
      <trkpt lat="48.22075" lon="-3.12781">
        <ele>235.19999694824</ele>
        <time>2020-10-19T14:07:42.000Z</time>
      </trkpt>
      <trkpt lat="48.22075" lon="-3.12781">
        <ele>235.19999694824</ele>
        <time>2020-10-19T14:07:43.000Z</time>
      </trkpt>
      <trkpt lat="48.22075" lon="-3.12781">
        <ele>235.19999694824</ele>
        <time>2020-10-19T14:07:44.000Z</time>
      </trkpt>
      <trkpt lat="48.22075" lon="-3.12781">
        <ele>235.19999694824</ele>
        <time>2020-10-19T14:07:45.000Z</time>
      </trkpt>
      <trkpt lat="48.22075" lon="-3.12782">
        <ele>235.19999694824</ele>
        <time>2020-10-19T14:07:46.000Z</time>
      </trkpt>
      <trkpt lat="48.22075" lon="-3.12782">
        <ele>235.19999694824</ele>
        <time>2020-10-19T14:07:47.000Z</time>
      </trkpt>
      <trkpt lat="48.22075" lon="-3.12782">
        <ele>235.19999694824</ele>
        <time>2020-10-19T14:07:48.000Z</time>
      </trkpt>
      <trkpt lat="48.22075" lon="-3.12781">
        <ele>235.19999694824</ele>
        <time>2020-10-19T14:07:49.000Z</time>
      </trkpt>
      <trkpt lat="48.22075" lon="-3.12781">
        <ele>235.19999694824</ele>
        <time>2020-10-19T14:07:50.000Z</time>
      </trkpt>
      <trkpt lat="48.22076" lon="-3.12781">
        <ele>235.19999694824</ele>
        <time>2020-10-19T14:07:51.000Z</time>
      </trkpt>
      <trkpt lat="48.22076" lon="-3.12781">
        <ele>235.19999694824</ele>
        <time>2020-10-19T14:07:52.000Z</time>
      </trkpt>
      <trkpt lat="48.22076" lon="-3.12781">
        <ele>235.19999694824</ele>
        <time>2020-10-19T14:07:53.000Z</time>
      </trkpt>
      <trkpt lat="48.22076" lon="-3.12781">
        <ele>235.19999694824</ele>
        <time>2020-10-19T14:07:54.000Z</time>
      </trkpt>
      <trkpt lat="48.22076" lon="-3.12781">
        <ele>235.19999694824</ele>
        <time>2020-10-19T14:07:55.000Z</time>
      </trkpt>
      <trkpt lat="48.22076" lon="-3.12781">
        <ele>235.19999694824</ele>
        <time>2020-10-19T14:07:56.000Z</time>
      </trkpt>
      <trkpt lat="48.22075" lon="-3.12781">
        <ele>235.19999694824</ele>
        <time>2020-10-19T14:07:57.000Z</time>
      </trkpt>
      <trkpt lat="48.22075" lon="-3.12781">
        <ele>235.19999694824</ele>
        <time>2020-10-19T14:07:58.000Z</time>
      </trkpt>
      <trkpt lat="48.22075" lon="-3.12781">
        <ele>235.19999694824</ele>
        <time>2020-10-19T14:07:59.000Z</time>
      </trkpt>
      <trkpt lat="48.22075" lon="-3.12781">
        <ele>235.19999694824</ele>
        <time>2020-10-19T14:08:00.000Z</time>
      </trkpt>
      <trkpt lat="48.22076" lon="-3.12781">
        <ele>235.19999694824</ele>
        <time>2020-10-19T14:08:01.000Z</time>
      </trkpt>
      <trkpt lat="48.22076" lon="-3.12781">
        <ele>235.19999694824</ele>
        <time>2020-10-19T14:08:02.000Z</time>
      </trkpt>
      <trkpt lat="48.22076" lon="-3.12781">
        <ele>235.19999694824</ele>
        <time>2020-10-19T14:08:03.000Z</time>
      </trkpt>
      <trkpt lat="48.22076" lon="-3.12781">
        <ele>235.19999694824</ele>
        <time>2020-10-19T14:08:04.000Z</time>
      </trkpt>
      <trkpt lat="48.22076" lon="-3.12781">
        <ele>235.19999694824</ele>
        <time>2020-10-19T14:08:05.000Z</time>
      </trkpt>
      <trkpt lat="48.22075" lon="-3.12781">
        <ele>235.19999694824</ele>
        <time>2020-10-19T14:08:06.000Z</time>
      </trkpt>
      <trkpt lat="48.22075" lon="-3.12781">
        <ele>235.19999694824</ele>
        <time>2020-10-19T14:08:07.000Z</time>
      </trkpt>
      <trkpt lat="48.22076" lon="-3.12781">
        <ele>235.19999694824</ele>
        <time>2020-10-19T14:08:08.000Z</time>
      </trkpt>
      <trkpt lat="48.22076" lon="-3.12781">
        <ele>235.19999694824</ele>
        <time>2020-10-19T14:08:09.000Z</time>
      </trkpt>
      <trkpt lat="48.22076" lon="-3.12781">
        <ele>235.19999694824</ele>
        <time>2020-10-19T14:08:10.000Z</time>
      </trkpt>
      <trkpt lat="48.22076" lon="-3.12781">
        <ele>235.19999694824</ele>
        <time>2020-10-19T14:08:11.000Z</time>
      </trkpt>
      <trkpt lat="48.22076" lon="-3.12781">
        <ele>235.19999694824</ele>
        <time>2020-10-19T14:08:12.000Z</time>
      </trkpt>
      <trkpt lat="48.22076" lon="-3.12781">
        <ele>235.19999694824</ele>
        <time>2020-10-19T14:08:13.000Z</time>
      </trkpt>
      <trkpt lat="48.22076" lon="-3.12781">
        <ele>235.19999694824</ele>
        <time>2020-10-19T14:08:14.000Z</time>
      </trkpt>
      <trkpt lat="48.22076" lon="-3.12781">
        <ele>235.19999694824</ele>
        <time>2020-10-19T14:08:15.000Z</time>
      </trkpt>
      <trkpt lat="48.22076" lon="-3.1278">
        <ele>235.19999694824</ele>
        <time>2020-10-19T14:08:16.000Z</time>
      </trkpt>
      <trkpt lat="48.22076" lon="-3.1278">
        <ele>235.19999694824</ele>
        <time>2020-10-19T14:08:17.000Z</time>
      </trkpt>
      <trkpt lat="48.22076" lon="-3.1278">
        <ele>235.19999694824</ele>
        <time>2020-10-19T14:08:18.000Z</time>
      </trkpt>
      <trkpt lat="48.22076" lon="-3.1278">
        <ele>235.19999694824</ele>
        <time>2020-10-19T14:08:19.000Z</time>
      </trkpt>
      <trkpt lat="48.22076" lon="-3.1278">
        <ele>235.19999694824</ele>
        <time>2020-10-19T14:08:20.000Z</time>
      </trkpt>
      <trkpt lat="48.22076" lon="-3.1278">
        <ele>235.19999694824</ele>
        <time>2020-10-19T14:08:21.000Z</time>
      </trkpt>
      <trkpt lat="48.22076" lon="-3.1278">
        <ele>235.19999694824</ele>
        <time>2020-10-19T14:08:22.000Z</time>
      </trkpt>
      <trkpt lat="48.22076" lon="-3.1278">
        <ele>235.19999694824</ele>
        <time>2020-10-19T14:08:23.000Z</time>
      </trkpt>
      <trkpt lat="48.22076" lon="-3.12781">
        <ele>235.19999694824</ele>
        <time>2020-10-19T14:08:24.000Z</time>
      </trkpt>
      <trkpt lat="48.22076" lon="-3.12781">
        <ele>235.19999694824</ele>
        <time>2020-10-19T14:08:25.000Z</time>
      </trkpt>
      <trkpt lat="48.22076" lon="-3.12781">
        <ele>235.19999694824</ele>
        <time>2020-10-19T14:08:26.000Z</time>
      </trkpt>
      <trkpt lat="48.22076" lon="-3.12781">
        <ele>235.19999694824</ele>
        <time>2020-10-19T14:08:27.000Z</time>
      </trkpt>
      <trkpt lat="48.22076" lon="-3.12781">
        <ele>235.19999694824</ele>
        <time>2020-10-19T14:08:28.000Z</time>
      </trkpt>
      <trkpt lat="48.22076" lon="-3.12781">
        <ele>235.19999694824</ele>
        <time>2020-10-19T14:08:29.000Z</time>
      </trkpt>
      <trkpt lat="48.22076" lon="-3.12781">
        <ele>235.19999694824</ele>
        <time>2020-10-19T14:08:30.000Z</time>
      </trkpt>
      <trkpt lat="48.22076" lon="-3.12781">
        <ele>235.19999694824</ele>
        <time>2020-10-19T14:08:31.000Z</time>
      </trkpt>
      <trkpt lat="48.22076" lon="-3.12781">
        <ele>235.19999694824</ele>
        <time>2020-10-19T14:08:32.000Z</time>
      </trkpt>
      <trkpt lat="48.22076" lon="-3.12781">
        <ele>235.19999694824</ele>
        <time>2020-10-19T14:08:33.000Z</time>
      </trkpt>
      <trkpt lat="48.22076" lon="-3.12781">
        <ele>235.19999694824</ele>
        <time>2020-10-19T14:08:34.000Z</time>
      </trkpt>
      <trkpt lat="48.22076" lon="-3.12781">
        <ele>235.39999389648</ele>
        <time>2020-10-19T14:08:35.000Z</time>
      </trkpt>
      <trkpt lat="48.22076" lon="-3.12781">
        <ele>235.39999389648</ele>
        <time>2020-10-19T14:08:36.000Z</time>
      </trkpt>
      <trkpt lat="48.22076" lon="-3.12782">
        <ele>235.39999389648</ele>
        <time>2020-10-19T14:08:37.000Z</time>
      </trkpt>
      <trkpt lat="48.22076" lon="-3.12782">
        <ele>235.39999389648</ele>
        <time>2020-10-19T14:08:38.000Z</time>
      </trkpt>
      <trkpt lat="48.22076" lon="-3.12782">
        <ele>235.39999389648</ele>
        <time>2020-10-19T14:08:39.000Z</time>
      </trkpt>
      <trkpt lat="48.22076" lon="-3.12782">
        <ele>235.39999389648</ele>
        <time>2020-10-19T14:08:40.000Z</time>
      </trkpt>
      <trkpt lat="48.22076" lon="-3.12782">
        <ele>235.39999389648</ele>
        <time>2020-10-19T14:08:41.000Z</time>
      </trkpt>
      <trkpt lat="48.22076" lon="-3.12782">
        <ele>235.39999389648</ele>
        <time>2020-10-19T14:08:42.000Z</time>
      </trkpt>
      <trkpt lat="48.22076" lon="-3.12782">
        <ele>235.39999389648</ele>
        <time>2020-10-19T14:08:43.000Z</time>
      </trkpt>
      <trkpt lat="48.22076" lon="-3.12782">
        <ele>235.39999389648</ele>
        <time>2020-10-19T14:08:44.000Z</time>
      </trkpt>
      <trkpt lat="48.22076" lon="-3.12782">
        <ele>235.39999389648</ele>
        <time>2020-10-19T14:08:45.000Z</time>
      </trkpt>
      <trkpt lat="48.22076" lon="-3.12782">
        <ele>235.39999389648</ele>
        <time>2020-10-19T14:08:46.000Z</time>
      </trkpt>
      <trkpt lat="48.22076" lon="-3.12782">
        <ele>235.39999389648</ele>
        <time>2020-10-19T14:08:47.000Z</time>
      </trkpt>
      <trkpt lat="48.22076" lon="-3.12782">
        <ele>235.39999389648</ele>
        <time>2020-10-19T14:08:48.000Z</time>
      </trkpt>
      <trkpt lat="48.22076" lon="-3.12782">
        <ele>235.39999389648</ele>
        <time>2020-10-19T14:08:49.000Z</time>
      </trkpt>
      <trkpt lat="48.22076" lon="-3.12782">
        <ele>235.39999389648</ele>
        <time>2020-10-19T14:08:50.000Z</time>
      </trkpt>
      <trkpt lat="48.22076" lon="-3.12782">
        <ele>235.39999389648</ele>
        <time>2020-10-19T14:08:51.000Z</time>
      </trkpt>
      <trkpt lat="48.22076" lon="-3.12782">
        <ele>235.39999389648</ele>
        <time>2020-10-19T14:08:52.000Z</time>
      </trkpt>
      <trkpt lat="48.22076" lon="-3.12782">
        <ele>235.39999389648</ele>
        <time>2020-10-19T14:08:53.000Z</time>
      </trkpt>
      <trkpt lat="48.22076" lon="-3.12782">
        <ele>235.39999389648</ele>
        <time>2020-10-19T14:08:54.000Z</time>
      </trkpt>
      <trkpt lat="48.22076" lon="-3.12782">
        <ele>235.39999389648</ele>
        <time>2020-10-19T14:08:55.000Z</time>
      </trkpt>
      <trkpt lat="48.22076" lon="-3.12782">
        <ele>235.39999389648</ele>
        <time>2020-10-19T14:08:56.000Z</time>
      </trkpt>
      <trkpt lat="48.22076" lon="-3.12782">
        <ele>235.39999389648</ele>
        <time>2020-10-19T14:08:57.000Z</time>
      </trkpt>
      <trkpt lat="48.22077" lon="-3.12782">
        <ele>235.39999389648</ele>
        <time>2020-10-19T14:08:58.000Z</time>
      </trkpt>
      <trkpt lat="48.22077" lon="-3.12781">
        <ele>235.39999389648</ele>
        <time>2020-10-19T14:08:59.000Z</time>
      </trkpt>
      <trkpt lat="48.22077" lon="-3.12781">
        <ele>235.39999389648</ele>
        <time>2020-10-19T14:09:00.000Z</time>
      </trkpt>
      <trkpt lat="48.22077" lon="-3.12781">
        <ele>235.39999389648</ele>
        <time>2020-10-19T14:09:01.000Z</time>
      </trkpt>
      <trkpt lat="48.22077" lon="-3.12781">
        <ele>235.39999389648</ele>
        <time>2020-10-19T14:09:02.000Z</time>
      </trkpt>
      <trkpt lat="48.22077" lon="-3.12781">
        <ele>235.39999389648</ele>
        <time>2020-10-19T14:09:03.000Z</time>
      </trkpt>
      <trkpt lat="48.22077" lon="-3.12781">
        <ele>235.39999389648</ele>
        <time>2020-10-19T14:09:04.000Z</time>
      </trkpt>
      <trkpt lat="48.22077" lon="-3.12781">
        <ele>235.39999389648</ele>
        <time>2020-10-19T14:09:05.000Z</time>
      </trkpt>
      <trkpt lat="48.22077" lon="-3.12781">
        <ele>235.39999389648</ele>
        <time>2020-10-19T14:09:06.000Z</time>
      </trkpt>
      <trkpt lat="48.22077" lon="-3.12782">
        <ele>235.39999389648</ele>
        <time>2020-10-19T14:09:07.000Z</time>
      </trkpt>
      <trkpt lat="48.22077" lon="-3.12782">
        <ele>235.39999389648</ele>
        <time>2020-10-19T14:09:08.000Z</time>
      </trkpt>
      <trkpt lat="48.22077" lon="-3.12782">
        <ele>235.39999389648</ele>
        <time>2020-10-19T14:09:09.000Z</time>
      </trkpt>
      <trkpt lat="48.22077" lon="-3.12782">
        <ele>235.39999389648</ele>
        <time>2020-10-19T14:09:10.000Z</time>
      </trkpt>
      <trkpt lat="48.22077" lon="-3.12781">
        <ele>235.39999389648</ele>
        <time>2020-10-19T14:09:11.000Z</time>
      </trkpt>
      <trkpt lat="48.22076" lon="-3.12781">
        <ele>235.39999389648</ele>
        <time>2020-10-19T14:09:12.000Z</time>
      </trkpt>
      <trkpt lat="48.22076" lon="-3.1278">
        <ele>235.19999694824</ele>
        <time>2020-10-19T14:09:13.000Z</time>
      </trkpt>
      <trkpt lat="48.22075" lon="-3.1278">
        <ele>235.19999694824</ele>
        <time>2020-10-19T14:09:14.000Z</time>
      </trkpt>
      <trkpt lat="48.22075" lon="-3.12779">
        <ele>235</ele>
        <time>2020-10-19T14:09:15.000Z</time>
      </trkpt>
      <trkpt lat="48.22074" lon="-3.12778">
        <ele>235</ele>
        <time>2020-10-19T14:09:16.000Z</time>
      </trkpt>
      <trkpt lat="48.22074" lon="-3.12778">
        <ele>235</ele>
        <time>2020-10-19T14:09:17.000Z</time>
      </trkpt>
      <trkpt lat="48.22073" lon="-3.12777">
        <ele>234.80000305176</ele>
        <time>2020-10-19T14:09:18.000Z</time>
      </trkpt>
      <trkpt lat="48.22073" lon="-3.12777">
        <ele>234.80000305176</ele>
        <time>2020-10-19T14:09:19.000Z</time>
      </trkpt>
      <trkpt lat="48.22072" lon="-3.12776">
        <ele>234.80000305176</ele>
        <time>2020-10-19T14:09:20.000Z</time>
      </trkpt>
      <trkpt lat="48.22072" lon="-3.12776">
        <ele>234.80000305176</ele>
        <time>2020-10-19T14:09:21.000Z</time>
      </trkpt>
      <trkpt lat="48.22072" lon="-3.12776">
        <ele>234.80000305176</ele>
        <time>2020-10-19T14:09:22.000Z</time>
      </trkpt>
      <trkpt lat="48.22072" lon="-3.12776">
        <ele>234.80000305176</ele>
        <time>2020-10-19T14:09:23.000Z</time>
      </trkpt>
      <trkpt lat="48.22072" lon="-3.12776">
        <ele>234.80000305176</ele>
        <time>2020-10-19T14:09:24.000Z</time>
      </trkpt>
      <trkpt lat="48.22073" lon="-3.12777">
        <ele>234.80000305176</ele>
        <time>2020-10-19T14:09:25.000Z</time>
      </trkpt>
      <trkpt lat="48.22073" lon="-3.12778">
        <ele>235</ele>
        <time>2020-10-19T14:09:26.000Z</time>
      </trkpt>
      <trkpt lat="48.22074" lon="-3.12778">
        <ele>235</ele>
        <time>2020-10-19T14:09:27.000Z</time>
      </trkpt>
      <trkpt lat="48.22075" lon="-3.12779">
        <ele>235.19999694824</ele>
        <time>2020-10-19T14:09:28.000Z</time>
      </trkpt>
      <trkpt lat="48.22076" lon="-3.1278">
        <ele>235.19999694824</ele>
        <time>2020-10-19T14:09:29.000Z</time>
      </trkpt>
      <trkpt lat="48.22077" lon="-3.1278">
        <ele>235.19999694824</ele>
        <time>2020-10-19T14:09:30.000Z</time>
      </trkpt>
      <trkpt lat="48.22077" lon="-3.1278">
        <ele>235.19999694824</ele>
        <time>2020-10-19T14:09:31.000Z</time>
      </trkpt>
      <trkpt lat="48.22078" lon="-3.12779">
        <ele>235.19999694824</ele>
        <time>2020-10-19T14:09:32.000Z</time>
      </trkpt>
      <trkpt lat="48.22079" lon="-3.12779">
        <ele>235.19999694824</ele>
        <time>2020-10-19T14:09:33.000Z</time>
      </trkpt>
      <trkpt lat="48.2208" lon="-3.12778">
        <ele>235.19999694824</ele>
        <time>2020-10-19T14:09:34.000Z</time>
      </trkpt>
      <trkpt lat="48.2208" lon="-3.12778">
        <ele>235.19999694824</ele>
        <time>2020-10-19T14:09:35.000Z</time>
      </trkpt>
      <trkpt lat="48.22081" lon="-3.12777">
        <ele>235.19999694824</ele>
        <time>2020-10-19T14:09:36.000Z</time>
      </trkpt>
      <trkpt lat="48.22082" lon="-3.12777">
        <ele>235.19999694824</ele>
        <time>2020-10-19T14:09:37.000Z</time>
      </trkpt>
      <trkpt lat="48.22083" lon="-3.12777">
        <ele>235.39999389648</ele>
        <time>2020-10-19T14:09:38.000Z</time>
      </trkpt>
      <trkpt lat="48.22083" lon="-3.12777">
        <ele>235.39999389648</ele>
        <time>2020-10-19T14:09:39.000Z</time>
      </trkpt>
      <trkpt lat="48.22084" lon="-3.12777">
        <ele>235.39999389648</ele>
        <time>2020-10-19T14:09:40.000Z</time>
      </trkpt>
      <trkpt lat="48.22084" lon="-3.12777">
        <ele>235.39999389648</ele>
        <time>2020-10-19T14:09:41.000Z</time>
      </trkpt>
      <trkpt lat="48.22085" lon="-3.12777">
        <ele>235.39999389648</ele>
        <time>2020-10-19T14:09:42.000Z</time>
      </trkpt>
      <trkpt lat="48.22085" lon="-3.12777">
        <ele>235.39999389648</ele>
        <time>2020-10-19T14:09:43.000Z</time>
      </trkpt>
      <trkpt lat="48.22085" lon="-3.12777">
        <ele>235.39999389648</ele>
        <time>2020-10-19T14:09:44.000Z</time>
      </trkpt>
      <trkpt lat="48.22085" lon="-3.12777">
        <ele>235.39999389648</ele>
        <time>2020-10-19T14:09:45.000Z</time>
      </trkpt>
      <trkpt lat="48.22085" lon="-3.12776">
        <ele>235.39999389648</ele>
        <time>2020-10-19T14:09:46.000Z</time>
      </trkpt>
      <trkpt lat="48.22085" lon="-3.12776">
        <ele>235.39999389648</ele>
        <time>2020-10-19T14:09:47.000Z</time>
      </trkpt>
      <trkpt lat="48.22085" lon="-3.12776">
        <ele>235.39999389648</ele>
        <time>2020-10-19T14:09:48.000Z</time>
      </trkpt>
      <trkpt lat="48.22085" lon="-3.12776">
        <ele>235.39999389648</ele>
        <time>2020-10-19T14:09:49.000Z</time>
      </trkpt>
      <trkpt lat="48.22084" lon="-3.12776">
        <ele>235.39999389648</ele>
        <time>2020-10-19T14:09:50.000Z</time>
      </trkpt>
      <trkpt lat="48.22083" lon="-3.12777">
        <ele>235.39999389648</ele>
        <time>2020-10-19T14:09:51.000Z</time>
      </trkpt>
      <trkpt lat="48.22082" lon="-3.12777">
        <ele>235.39999389648</ele>
        <time>2020-10-19T14:09:52.000Z</time>
      </trkpt>
      <trkpt lat="48.22081" lon="-3.12777">
        <ele>235.19999694824</ele>
        <time>2020-10-19T14:09:53.000Z</time>
      </trkpt>
      <trkpt lat="48.22081" lon="-3.12777">
        <ele>235.19999694824</ele>
        <time>2020-10-19T14:09:54.000Z</time>
      </trkpt>
      <trkpt lat="48.2208" lon="-3.12777">
        <ele>235.19999694824</ele>
        <time>2020-10-19T14:09:55.000Z</time>
      </trkpt>
      <trkpt lat="48.2208" lon="-3.12778">
        <ele>235.19999694824</ele>
        <time>2020-10-19T14:09:56.000Z</time>
      </trkpt>
      <trkpt lat="48.2208" lon="-3.12778">
        <ele>235.19999694824</ele>
        <time>2020-10-19T14:09:57.000Z</time>
      </trkpt>
      <trkpt lat="48.22079" lon="-3.12778">
        <ele>235.19999694824</ele>
        <time>2020-10-19T14:09:58.000Z</time>
      </trkpt>
      <trkpt lat="48.22079" lon="-3.12778">
        <ele>235.19999694824</ele>
        <time>2020-10-19T14:09:59.000Z</time>
      </trkpt>
      <trkpt lat="48.22079" lon="-3.12778">
        <ele>235.19999694824</ele>
        <time>2020-10-19T14:10:00.000Z</time>
      </trkpt>
      <trkpt lat="48.22079" lon="-3.12778">
        <ele>235.19999694824</ele>
        <time>2020-10-19T14:10:01.000Z</time>
      </trkpt>
      <trkpt lat="48.22079" lon="-3.12779">
        <ele>235.19999694824</ele>
        <time>2020-10-19T14:10:02.000Z</time>
      </trkpt>
      <trkpt lat="48.22079" lon="-3.12779">
        <ele>235.19999694824</ele>
        <time>2020-10-19T14:10:03.000Z</time>
      </trkpt>
      <trkpt lat="48.22079" lon="-3.12779">
        <ele>235.39999389648</ele>
        <time>2020-10-19T14:10:04.000Z</time>
      </trkpt>
      <trkpt lat="48.22079" lon="-3.12779">
        <ele>235.39999389648</ele>
        <time>2020-10-19T14:10:05.000Z</time>
      </trkpt>
      <trkpt lat="48.22079" lon="-3.12779">
        <ele>235.19999694824</ele>
        <time>2020-10-19T14:10:06.000Z</time>
      </trkpt>
      <trkpt lat="48.22079" lon="-3.12779">
        <ele>235.19999694824</ele>
        <time>2020-10-19T14:10:07.000Z</time>
      </trkpt>
      <trkpt lat="48.2208" lon="-3.12778">
        <ele>235.39999389648</ele>
        <time>2020-10-19T14:10:08.000Z</time>
      </trkpt>
      <trkpt lat="48.22081" lon="-3.12779">
        <ele>235.39999389648</ele>
        <time>2020-10-19T14:10:09.000Z</time>
      </trkpt>
      <trkpt lat="48.22082" lon="-3.12779">
        <ele>235.39999389648</ele>
        <time>2020-10-19T14:10:10.000Z</time>
      </trkpt>
      <trkpt lat="48.22083" lon="-3.12779">
        <ele>235.39999389648</ele>
        <time>2020-10-19T14:10:11.000Z</time>
      </trkpt>
      <trkpt lat="48.22084" lon="-3.12779">
        <ele>235.39999389648</ele>
        <time>2020-10-19T14:10:12.000Z</time>
      </trkpt>
      <trkpt lat="48.22085" lon="-3.12779">
        <ele>235.60000610352</ele>
        <time>2020-10-19T14:10:13.000Z</time>
      </trkpt>
      <trkpt lat="48.22086" lon="-3.12779">
        <ele>235.60000610352</ele>
        <time>2020-10-19T14:10:14.000Z</time>
      </trkpt>
      <trkpt lat="48.22088" lon="-3.12779">
        <ele>235.60000610352</ele>
        <time>2020-10-19T14:10:15.000Z</time>
      </trkpt>
      <trkpt lat="48.22089" lon="-3.12779">
        <ele>235.60000610352</ele>
        <time>2020-10-19T14:10:16.000Z</time>
      </trkpt>
      <trkpt lat="48.2209" lon="-3.12779">
        <ele>235.80000305176</ele>
        <time>2020-10-19T14:10:17.000Z</time>
      </trkpt>
      <trkpt lat="48.22092" lon="-3.1278">
        <ele>235.80000305176</ele>
        <time>2020-10-19T14:10:18.000Z</time>
      </trkpt>
      <trkpt lat="48.22093" lon="-3.1278">
        <ele>235.80000305176</ele>
        <time>2020-10-19T14:10:19.000Z</time>
      </trkpt>
      <trkpt lat="48.22094" lon="-3.1278">
        <ele>235.80000305176</ele>
        <time>2020-10-19T14:10:20.000Z</time>
      </trkpt>
      <trkpt lat="48.22095" lon="-3.12779">
        <ele>235.80000305176</ele>
        <time>2020-10-19T14:10:21.000Z</time>
      </trkpt>
      <trkpt lat="48.22096" lon="-3.12778">
        <ele>235.80000305176</ele>
        <time>2020-10-19T14:10:22.000Z</time>
      </trkpt>
      <trkpt lat="48.22096" lon="-3.12777">
        <ele>235.80000305176</ele>
        <time>2020-10-19T14:10:23.000Z</time>
      </trkpt>
      <trkpt lat="48.22097" lon="-3.12776">
        <ele>235.80000305176</ele>
        <time>2020-10-19T14:10:24.000Z</time>
      </trkpt>
      <trkpt lat="48.22098" lon="-3.12775">
        <ele>235.80000305176</ele>
        <time>2020-10-19T14:10:25.000Z</time>
      </trkpt>
      <trkpt lat="48.22098" lon="-3.12774">
        <ele>235.80000305176</ele>
        <time>2020-10-19T14:10:26.000Z</time>
      </trkpt>
      <trkpt lat="48.22099" lon="-3.12773">
        <ele>235.80000305176</ele>
        <time>2020-10-19T14:10:27.000Z</time>
      </trkpt>
      <trkpt lat="48.22099" lon="-3.12771">
        <ele>235.80000305176</ele>
        <time>2020-10-19T14:10:28.000Z</time>
      </trkpt>
      <trkpt lat="48.221" lon="-3.1277">
        <ele>235.60000610352</ele>
        <time>2020-10-19T14:10:29.000Z</time>
      </trkpt>
      <trkpt lat="48.22101" lon="-3.12769">
        <ele>235.60000610352</ele>
        <time>2020-10-19T14:10:30.000Z</time>
      </trkpt>
      <trkpt lat="48.22101" lon="-3.12768">
        <ele>235.60000610352</ele>
        <time>2020-10-19T14:10:31.000Z</time>
      </trkpt>
      <trkpt lat="48.22102" lon="-3.12766">
        <ele>235.60000610352</ele>
        <time>2020-10-19T14:10:32.000Z</time>
      </trkpt>
      <trkpt lat="48.22102" lon="-3.12765">
        <ele>235.60000610352</ele>
        <time>2020-10-19T14:10:33.000Z</time>
      </trkpt>
      <trkpt lat="48.22104" lon="-3.12763">
        <ele>235.60000610352</ele>
        <time>2020-10-19T14:10:34.000Z</time>
      </trkpt>
      <trkpt lat="48.22104" lon="-3.12763">
        <ele>235.60000610352</ele>
        <time>2020-10-19T14:10:35.000Z</time>
      </trkpt>
      <trkpt lat="48.22105" lon="-3.12762">
        <ele>235.39999389648</ele>
        <time>2020-10-19T14:10:36.000Z</time>
      </trkpt>
      <trkpt lat="48.22106" lon="-3.12761">
        <ele>235.39999389648</ele>
        <time>2020-10-19T14:10:37.000Z</time>
      </trkpt>
      <trkpt lat="48.22106" lon="-3.1276">
        <ele>235.39999389648</ele>
        <time>2020-10-19T14:10:38.000Z</time>
      </trkpt>
      <trkpt lat="48.22107" lon="-3.12759">
        <ele>235.39999389648</ele>
        <time>2020-10-19T14:10:39.000Z</time>
      </trkpt>
      <trkpt lat="48.22108" lon="-3.12758">
        <ele>235.39999389648</ele>
        <time>2020-10-19T14:10:40.000Z</time>
      </trkpt>
      <trkpt lat="48.22109" lon="-3.12757">
        <ele>235.39999389648</ele>
        <time>2020-10-19T14:10:41.000Z</time>
      </trkpt>
      <trkpt lat="48.2211" lon="-3.12755">
        <ele>235.39999389648</ele>
        <time>2020-10-19T14:10:42.000Z</time>
      </trkpt>
      <trkpt lat="48.2211" lon="-3.12754">
        <ele>235.39999389648</ele>
        <time>2020-10-19T14:10:43.000Z</time>
      </trkpt>
      <trkpt lat="48.22111" lon="-3.12753">
        <ele>235.39999389648</ele>
        <time>2020-10-19T14:10:44.000Z</time>
      </trkpt>
      <trkpt lat="48.22112" lon="-3.12752">
        <ele>235.39999389648</ele>
        <time>2020-10-19T14:10:45.000Z</time>
      </trkpt>
      <trkpt lat="48.22113" lon="-3.12751">
        <ele>235.19999694824</ele>
        <time>2020-10-19T14:10:46.000Z</time>
      </trkpt>
      <trkpt lat="48.22114" lon="-3.1275">
        <ele>235.19999694824</ele>
        <time>2020-10-19T14:10:47.000Z</time>
      </trkpt>
      <trkpt lat="48.22115" lon="-3.1275">
        <ele>235.19999694824</ele>
        <time>2020-10-19T14:10:48.000Z</time>
      </trkpt>
      <trkpt lat="48.22116" lon="-3.12749">
        <ele>235.39999389648</ele>
        <time>2020-10-19T14:10:49.000Z</time>
      </trkpt>
      <trkpt lat="48.22118" lon="-3.12748">
        <ele>235.39999389648</ele>
        <time>2020-10-19T14:10:50.000Z</time>
      </trkpt>
      <trkpt lat="48.22119" lon="-3.12747">
        <ele>235.39999389648</ele>
        <time>2020-10-19T14:10:51.000Z</time>
      </trkpt>
      <trkpt lat="48.2212" lon="-3.12747">
        <ele>235.39999389648</ele>
        <time>2020-10-19T14:10:52.000Z</time>
      </trkpt>
      <trkpt lat="48.22121" lon="-3.12746">
        <ele>235.39999389648</ele>
        <time>2020-10-19T14:10:53.000Z</time>
      </trkpt>
      <trkpt lat="48.22123" lon="-3.12745">
        <ele>235.39999389648</ele>
        <time>2020-10-19T14:10:54.000Z</time>
      </trkpt>
      <trkpt lat="48.22124" lon="-3.12745">
        <ele>235.39999389648</ele>
        <time>2020-10-19T14:10:55.000Z</time>
      </trkpt>
      <trkpt lat="48.22125" lon="-3.12744">
        <ele>235.39999389648</ele>
        <time>2020-10-19T14:10:56.000Z</time>
      </trkpt>
      <trkpt lat="48.22127" lon="-3.12744">
        <ele>235.60000610352</ele>
        <time>2020-10-19T14:10:57.000Z</time>
      </trkpt>
      <trkpt lat="48.22128" lon="-3.12743">
        <ele>235.60000610352</ele>
        <time>2020-10-19T14:10:58.000Z</time>
      </trkpt>
      <trkpt lat="48.22129" lon="-3.12743">
        <ele>235.60000610352</ele>
        <time>2020-10-19T14:10:59.000Z</time>
      </trkpt>
      <trkpt lat="48.2213" lon="-3.12743">
        <ele>235.60000610352</ele>
        <time>2020-10-19T14:11:00.000Z</time>
      </trkpt>
      <trkpt lat="48.22131" lon="-3.12743">
        <ele>235.60000610352</ele>
        <time>2020-10-19T14:11:01.000Z</time>
      </trkpt>
      <trkpt lat="48.22133" lon="-3.12743">
        <ele>235.80000305176</ele>
        <time>2020-10-19T14:11:02.000Z</time>
      </trkpt>
      <trkpt lat="48.22134" lon="-3.12743">
        <ele>235.80000305176</ele>
        <time>2020-10-19T14:11:03.000Z</time>
      </trkpt>
      <trkpt lat="48.22135" lon="-3.12743">
        <ele>235.80000305176</ele>
        <time>2020-10-19T14:11:04.000Z</time>
      </trkpt>
      <trkpt lat="48.22136" lon="-3.12742">
        <ele>235.80000305176</ele>
        <time>2020-10-19T14:11:05.000Z</time>
      </trkpt>
      <trkpt lat="48.22137" lon="-3.12742">
        <ele>235.80000305176</ele>
        <time>2020-10-19T14:11:06.000Z</time>
      </trkpt>
      <trkpt lat="48.22138" lon="-3.12741">
        <ele>235.80000305176</ele>
        <time>2020-10-19T14:11:07.000Z</time>
      </trkpt>
      <trkpt lat="48.22139" lon="-3.1274">
        <ele>235.80000305176</ele>
        <time>2020-10-19T14:11:08.000Z</time>
      </trkpt>
      <trkpt lat="48.2214" lon="-3.12739">
        <ele>235.80000305176</ele>
        <time>2020-10-19T14:11:09.000Z</time>
      </trkpt>
      <trkpt lat="48.22141" lon="-3.12739">
        <ele>235.80000305176</ele>
        <time>2020-10-19T14:11:10.000Z</time>
      </trkpt>
      <trkpt lat="48.22142" lon="-3.12738">
        <ele>236</ele>
        <time>2020-10-19T14:11:11.000Z</time>
      </trkpt>
      <trkpt lat="48.22143" lon="-3.12737">
        <ele>236</ele>
        <time>2020-10-19T14:11:12.000Z</time>
      </trkpt>
      <trkpt lat="48.22145" lon="-3.12737">
        <ele>236</ele>
        <time>2020-10-19T14:11:13.000Z</time>
      </trkpt>
      <trkpt lat="48.22146" lon="-3.12736">
        <ele>236</ele>
        <time>2020-10-19T14:11:14.000Z</time>
      </trkpt>
      <trkpt lat="48.22147" lon="-3.12736">
        <ele>236</ele>
        <time>2020-10-19T14:11:15.000Z</time>
      </trkpt>
      <trkpt lat="48.22148" lon="-3.12735">
        <ele>236</ele>
        <time>2020-10-19T14:11:16.000Z</time>
      </trkpt>
      <trkpt lat="48.22149" lon="-3.12734">
        <ele>236</ele>
        <time>2020-10-19T14:11:17.000Z</time>
      </trkpt>
      <trkpt lat="48.2215" lon="-3.12734">
        <ele>236</ele>
        <time>2020-10-19T14:11:18.000Z</time>
      </trkpt>
      <trkpt lat="48.22151" lon="-3.12733">
        <ele>236</ele>
        <time>2020-10-19T14:11:19.000Z</time>
      </trkpt>
      <trkpt lat="48.22152" lon="-3.12733">
        <ele>236</ele>
        <time>2020-10-19T14:11:20.000Z</time>
      </trkpt>
      <trkpt lat="48.22153" lon="-3.12732">
        <ele>236</ele>
        <time>2020-10-19T14:11:21.000Z</time>
      </trkpt>
      <trkpt lat="48.22153" lon="-3.12731">
        <ele>236</ele>
        <time>2020-10-19T14:11:22.000Z</time>
      </trkpt>
      <trkpt lat="48.22154" lon="-3.1273">
        <ele>236</ele>
        <time>2020-10-19T14:11:23.000Z</time>
      </trkpt>
      <trkpt lat="48.22154" lon="-3.12729">
        <ele>236</ele>
        <time>2020-10-19T14:11:24.000Z</time>
      </trkpt>
      <trkpt lat="48.22155" lon="-3.12729">
        <ele>236</ele>
        <time>2020-10-19T14:11:25.000Z</time>
      </trkpt>
      <trkpt lat="48.22156" lon="-3.12728">
        <ele>236</ele>
        <time>2020-10-19T14:11:26.000Z</time>
      </trkpt>
      <trkpt lat="48.22156" lon="-3.12728">
        <ele>236</ele>
        <time>2020-10-19T14:11:27.000Z</time>
      </trkpt>
      <trkpt lat="48.22157" lon="-3.12727">
        <ele>236</ele>
        <time>2020-10-19T14:11:28.000Z</time>
      </trkpt>
      <trkpt lat="48.22158" lon="-3.12726">
        <ele>236</ele>
        <time>2020-10-19T14:11:29.000Z</time>
      </trkpt>
      <trkpt lat="48.22158" lon="-3.12726">
        <ele>236</ele>
        <time>2020-10-19T14:11:30.000Z</time>
      </trkpt>
      <trkpt lat="48.22159" lon="-3.12725">
        <ele>236</ele>
        <time>2020-10-19T14:11:31.000Z</time>
      </trkpt>
      <trkpt lat="48.2216" lon="-3.12724">
        <ele>236</ele>
        <time>2020-10-19T14:11:32.000Z</time>
      </trkpt>
      <trkpt lat="48.2216" lon="-3.12723">
        <ele>235.80000305176</ele>
        <time>2020-10-19T14:11:33.000Z</time>
      </trkpt>
      <trkpt lat="48.22161" lon="-3.12723">
        <ele>235.80000305176</ele>
        <time>2020-10-19T14:11:34.000Z</time>
      </trkpt>
      <trkpt lat="48.22161" lon="-3.12722">
        <ele>235.80000305176</ele>
        <time>2020-10-19T14:11:35.000Z</time>
      </trkpt>
      <trkpt lat="48.22162" lon="-3.12721">
        <ele>235.80000305176</ele>
        <time>2020-10-19T14:11:36.000Z</time>
      </trkpt>
      <trkpt lat="48.22163" lon="-3.1272">
        <ele>235.80000305176</ele>
        <time>2020-10-19T14:11:37.000Z</time>
      </trkpt>
      <trkpt lat="48.22165" lon="-3.12719">
        <ele>235.80000305176</ele>
        <time>2020-10-19T14:11:38.000Z</time>
      </trkpt>
      <trkpt lat="48.22165" lon="-3.12719">
        <ele>235.80000305176</ele>
        <time>2020-10-19T14:11:39.000Z</time>
      </trkpt>
      <trkpt lat="48.22165" lon="-3.12718">
        <ele>235.80000305176</ele>
        <time>2020-10-19T14:11:40.000Z</time>
      </trkpt>
      <trkpt lat="48.22167" lon="-3.12717">
        <ele>235.80000305176</ele>
        <time>2020-10-19T14:11:41.000Z</time>
      </trkpt>
      <trkpt lat="48.22168" lon="-3.12716">
        <ele>235.80000305176</ele>
        <time>2020-10-19T14:11:42.000Z</time>
      </trkpt>
      <trkpt lat="48.22169" lon="-3.12714">
        <ele>235.80000305176</ele>
        <time>2020-10-19T14:11:43.000Z</time>
      </trkpt>
      <trkpt lat="48.2217" lon="-3.12712">
        <ele>235.80000305176</ele>
        <time>2020-10-19T14:11:44.000Z</time>
      </trkpt>
      <trkpt lat="48.22172" lon="-3.12711">
        <ele>235.80000305176</ele>
        <time>2020-10-19T14:11:45.000Z</time>
      </trkpt>
      <trkpt lat="48.22174" lon="-3.12711">
        <ele>235.80000305176</ele>
        <time>2020-10-19T14:11:46.000Z</time>
      </trkpt>
      <trkpt lat="48.22176" lon="-3.12709">
        <ele>235.80000305176</ele>
        <time>2020-10-19T14:11:47.000Z</time>
      </trkpt>
      <trkpt lat="48.22177" lon="-3.12708">
        <ele>235.80000305176</ele>
        <time>2020-10-19T14:11:48.000Z</time>
      </trkpt>
      <trkpt lat="48.22179" lon="-3.12707">
        <ele>235.80000305176</ele>
        <time>2020-10-19T14:11:49.000Z</time>
      </trkpt>
      <trkpt lat="48.2218" lon="-3.12706">
        <ele>235.80000305176</ele>
        <time>2020-10-19T14:11:50.000Z</time>
      </trkpt>
      <trkpt lat="48.22181" lon="-3.12705">
        <ele>235.80000305176</ele>
        <time>2020-10-19T14:11:51.000Z</time>
      </trkpt>
      <trkpt lat="48.22182" lon="-3.12704">
        <ele>235.80000305176</ele>
        <time>2020-10-19T14:11:52.000Z</time>
      </trkpt>
      <trkpt lat="48.22182" lon="-3.12703">
        <ele>235.80000305176</ele>
        <time>2020-10-19T14:11:53.000Z</time>
      </trkpt>
      <trkpt lat="48.22183" lon="-3.12701">
        <ele>235.80000305176</ele>
        <time>2020-10-19T14:11:54.000Z</time>
      </trkpt>
      <trkpt lat="48.22184" lon="-3.127">
        <ele>235.60000610352</ele>
        <time>2020-10-19T14:11:55.000Z</time>
      </trkpt>
      <trkpt lat="48.22185" lon="-3.12699">
        <ele>235.60000610352</ele>
        <time>2020-10-19T14:11:56.000Z</time>
      </trkpt>
      <trkpt lat="48.22186" lon="-3.12698">
        <ele>235.60000610352</ele>
        <time>2020-10-19T14:11:57.000Z</time>
      </trkpt>
      <trkpt lat="48.22187" lon="-3.12697">
        <ele>235.60000610352</ele>
        <time>2020-10-19T14:11:58.000Z</time>
      </trkpt>
      <trkpt lat="48.22188" lon="-3.12696">
        <ele>235.80000305176</ele>
        <time>2020-10-19T14:11:59.000Z</time>
      </trkpt>
      <trkpt lat="48.2219" lon="-3.12695">
        <ele>235.80000305176</ele>
        <time>2020-10-19T14:12:00.000Z</time>
      </trkpt>
      <trkpt lat="48.22191" lon="-3.12694">
        <ele>235.80000305176</ele>
        <time>2020-10-19T14:12:01.000Z</time>
      </trkpt>
      <trkpt lat="48.22192" lon="-3.12693">
        <ele>235.80000305176</ele>
        <time>2020-10-19T14:12:02.000Z</time>
      </trkpt>
      <trkpt lat="48.22193" lon="-3.12692">
        <ele>235.80000305176</ele>
        <time>2020-10-19T14:12:03.000Z</time>
      </trkpt>
      <trkpt lat="48.22195" lon="-3.12691">
        <ele>235.80000305176</ele>
        <time>2020-10-19T14:12:04.000Z</time>
      </trkpt>
      <trkpt lat="48.22196" lon="-3.1269">
        <ele>235.80000305176</ele>
        <time>2020-10-19T14:12:05.000Z</time>
      </trkpt>
      <trkpt lat="48.22197" lon="-3.12689">
        <ele>235.80000305176</ele>
        <time>2020-10-19T14:12:06.000Z</time>
      </trkpt>
      <trkpt lat="48.22198" lon="-3.12688">
        <ele>235.80000305176</ele>
        <time>2020-10-19T14:12:07.000Z</time>
      </trkpt>
      <trkpt lat="48.22199" lon="-3.12686">
        <ele>235.80000305176</ele>
        <time>2020-10-19T14:12:08.000Z</time>
      </trkpt>
      <trkpt lat="48.222" lon="-3.12684">
        <ele>235.80000305176</ele>
        <time>2020-10-19T14:12:09.000Z</time>
      </trkpt>
      <trkpt lat="48.222" lon="-3.12684">
        <ele>235.80000305176</ele>
        <time>2020-10-19T14:12:10.000Z</time>
      </trkpt>
      <trkpt lat="48.22201" lon="-3.12683">
        <ele>235.80000305176</ele>
        <time>2020-10-19T14:12:11.000Z</time>
      </trkpt>
      <trkpt lat="48.22202" lon="-3.12682">
        <ele>235.60000610352</ele>
        <time>2020-10-19T14:12:12.000Z</time>
      </trkpt>
      <trkpt lat="48.22202" lon="-3.1268">
        <ele>235.60000610352</ele>
        <time>2020-10-19T14:12:13.000Z</time>
      </trkpt>
      <trkpt lat="48.22203" lon="-3.12679">
        <ele>235.60000610352</ele>
        <time>2020-10-19T14:12:14.000Z</time>
      </trkpt>
      <trkpt lat="48.22204" lon="-3.12679">
        <ele>235.60000610352</ele>
        <time>2020-10-19T14:12:15.000Z</time>
      </trkpt>
      <trkpt lat="48.22205" lon="-3.12678">
        <ele>235.60000610352</ele>
        <time>2020-10-19T14:12:16.000Z</time>
      </trkpt>
      <trkpt lat="48.22206" lon="-3.12677">
        <ele>235.60000610352</ele>
        <time>2020-10-19T14:12:17.000Z</time>
      </trkpt>
      <trkpt lat="48.22207" lon="-3.12677">
        <ele>235.60000610352</ele>
        <time>2020-10-19T14:12:18.000Z</time>
      </trkpt>
      <trkpt lat="48.22207" lon="-3.12676">
        <ele>235.80000305176</ele>
        <time>2020-10-19T14:12:19.000Z</time>
      </trkpt>
      <trkpt lat="48.22208" lon="-3.12677">
        <ele>235.80000305176</ele>
        <time>2020-10-19T14:12:20.000Z</time>
      </trkpt>
      <trkpt lat="48.22208" lon="-3.12677">
        <ele>235.80000305176</ele>
        <time>2020-10-19T14:12:21.000Z</time>
      </trkpt>
      <trkpt lat="48.22208" lon="-3.12677">
        <ele>235.80000305176</ele>
        <time>2020-10-19T14:12:22.000Z</time>
      </trkpt>
      <trkpt lat="48.22209" lon="-3.12677">
        <ele>235.80000305176</ele>
        <time>2020-10-19T14:12:23.000Z</time>
      </trkpt>
      <trkpt lat="48.22209" lon="-3.12676">
        <ele>235.80000305176</ele>
        <time>2020-10-19T14:12:24.000Z</time>
      </trkpt>
      <trkpt lat="48.22209" lon="-3.12676">
        <ele>235.80000305176</ele>
        <time>2020-10-19T14:12:25.000Z</time>
      </trkpt>
      <trkpt lat="48.22209" lon="-3.12675">
        <ele>235.80000305176</ele>
        <time>2020-10-19T14:12:26.000Z</time>
      </trkpt>
      <trkpt lat="48.2221" lon="-3.12675">
        <ele>235.80000305176</ele>
        <time>2020-10-19T14:12:27.000Z</time>
      </trkpt>
      <trkpt lat="48.2221" lon="-3.12674">
        <ele>235.80000305176</ele>
        <time>2020-10-19T14:12:28.000Z</time>
      </trkpt>
      <trkpt lat="48.22211" lon="-3.12673">
        <ele>236</ele>
        <time>2020-10-19T14:12:29.000Z</time>
      </trkpt>
      <trkpt lat="48.22211" lon="-3.12672">
        <ele>236</ele>
        <time>2020-10-19T14:12:30.000Z</time>
      </trkpt>
      <trkpt lat="48.22211" lon="-3.12671">
        <ele>236</ele>
        <time>2020-10-19T14:12:31.000Z</time>
      </trkpt>
      <trkpt lat="48.22212" lon="-3.1267">
        <ele>236</ele>
        <time>2020-10-19T14:12:32.000Z</time>
      </trkpt>
      <trkpt lat="48.22212" lon="-3.12669">
        <ele>236</ele>
        <time>2020-10-19T14:12:33.000Z</time>
      </trkpt>
      <trkpt lat="48.22213" lon="-3.12668">
        <ele>236</ele>
        <time>2020-10-19T14:12:34.000Z</time>
      </trkpt>
      <trkpt lat="48.22213" lon="-3.12667">
        <ele>236</ele>
        <time>2020-10-19T14:12:35.000Z</time>
      </trkpt>
      <trkpt lat="48.22214" lon="-3.12666">
        <ele>236</ele>
        <time>2020-10-19T14:12:36.000Z</time>
      </trkpt>
      <trkpt lat="48.22214" lon="-3.12665">
        <ele>236.19999694824</ele>
        <time>2020-10-19T14:12:37.000Z</time>
      </trkpt>
      <trkpt lat="48.22215" lon="-3.12664">
        <ele>236.19999694824</ele>
        <time>2020-10-19T14:12:38.000Z</time>
      </trkpt>
      <trkpt lat="48.22215" lon="-3.12662">
        <ele>236.19999694824</ele>
        <time>2020-10-19T14:12:39.000Z</time>
      </trkpt>
      <trkpt lat="48.22216" lon="-3.12661">
        <ele>236.19999694824</ele>
        <time>2020-10-19T14:12:40.000Z</time>
      </trkpt>
      <trkpt lat="48.22216" lon="-3.12659">
        <ele>236.19999694824</ele>
        <time>2020-10-19T14:12:41.000Z</time>
      </trkpt>
      <trkpt lat="48.22217" lon="-3.12658">
        <ele>236.39999389648</ele>
        <time>2020-10-19T14:12:42.000Z</time>
      </trkpt>
      <trkpt lat="48.22218" lon="-3.12656">
        <ele>236.39999389648</ele>
        <time>2020-10-19T14:12:43.000Z</time>
      </trkpt>
      <trkpt lat="48.22219" lon="-3.12655">
        <ele>236.39999389648</ele>
        <time>2020-10-19T14:12:44.000Z</time>
      </trkpt>
      <trkpt lat="48.2222" lon="-3.12653">
        <ele>236.39999389648</ele>
        <time>2020-10-19T14:12:45.000Z</time>
      </trkpt>
      <trkpt lat="48.22221" lon="-3.12651">
        <ele>236.60000610352</ele>
        <time>2020-10-19T14:12:46.000Z</time>
      </trkpt>
      <trkpt lat="48.22221" lon="-3.12651">
        <ele>236.60000610352</ele>
        <time>2020-10-19T14:12:47.000Z</time>
      </trkpt>
      <trkpt lat="48.22222" lon="-3.1265">
        <ele>236.60000610352</ele>
        <time>2020-10-19T14:12:48.000Z</time>
      </trkpt>
      <trkpt lat="48.22223" lon="-3.12649">
        <ele>236.60000610352</ele>
        <time>2020-10-19T14:12:49.000Z</time>
      </trkpt>
      <trkpt lat="48.22223" lon="-3.12648">
        <ele>236.60000610352</ele>
        <time>2020-10-19T14:12:50.000Z</time>
      </trkpt>
      <trkpt lat="48.22224" lon="-3.12647">
        <ele>236.80000305176</ele>
        <time>2020-10-19T14:12:51.000Z</time>
      </trkpt>
      <trkpt lat="48.22225" lon="-3.12646">
        <ele>236.80000305176</ele>
        <time>2020-10-19T14:12:52.000Z</time>
      </trkpt>
      <trkpt lat="48.22226" lon="-3.12644">
        <ele>236.80000305176</ele>
        <time>2020-10-19T14:12:53.000Z</time>
      </trkpt>
      <trkpt lat="48.22227" lon="-3.12643">
        <ele>237</ele>
        <time>2020-10-19T14:12:54.000Z</time>
      </trkpt>
      <trkpt lat="48.22228" lon="-3.12642">
        <ele>237</ele>
        <time>2020-10-19T14:12:55.000Z</time>
      </trkpt>
      <trkpt lat="48.22229" lon="-3.12641">
        <ele>237</ele>
        <time>2020-10-19T14:12:56.000Z</time>
      </trkpt>
      <trkpt lat="48.2223" lon="-3.12639">
        <ele>237</ele>
        <time>2020-10-19T14:12:57.000Z</time>
      </trkpt>
      <trkpt lat="48.22231" lon="-3.12638">
        <ele>237.19999694824</ele>
        <time>2020-10-19T14:12:58.000Z</time>
      </trkpt>
      <trkpt lat="48.22232" lon="-3.12637">
        <ele>237.19999694824</ele>
        <time>2020-10-19T14:12:59.000Z</time>
      </trkpt>
      <trkpt lat="48.22233" lon="-3.12636">
        <ele>237.19999694824</ele>
        <time>2020-10-19T14:13:00.000Z</time>
      </trkpt>
      <trkpt lat="48.22234" lon="-3.12636">
        <ele>237.19999694824</ele>
        <time>2020-10-19T14:13:01.000Z</time>
      </trkpt>
      <trkpt lat="48.22235" lon="-3.12635">
        <ele>237.39999389648</ele>
        <time>2020-10-19T14:13:02.000Z</time>
      </trkpt>
      <trkpt lat="48.22235" lon="-3.12634">
        <ele>237.39999389648</ele>
        <time>2020-10-19T14:13:03.000Z</time>
      </trkpt>
      <trkpt lat="48.22236" lon="-3.12633">
        <ele>237.39999389648</ele>
        <time>2020-10-19T14:13:04.000Z</time>
      </trkpt>
      <trkpt lat="48.22236" lon="-3.12633">
        <ele>237.39999389648</ele>
        <time>2020-10-19T14:13:05.000Z</time>
      </trkpt>
      <trkpt lat="48.22237" lon="-3.12631">
        <ele>237.60000610352</ele>
        <time>2020-10-19T14:13:06.000Z</time>
      </trkpt>
      <trkpt lat="48.22238" lon="-3.1263">
        <ele>237.60000610352</ele>
        <time>2020-10-19T14:13:07.000Z</time>
      </trkpt>
      <trkpt lat="48.22239" lon="-3.12629">
        <ele>237.60000610352</ele>
        <time>2020-10-19T14:13:08.000Z</time>
      </trkpt>
      <trkpt lat="48.2224" lon="-3.12628">
        <ele>237.60000610352</ele>
        <time>2020-10-19T14:13:09.000Z</time>
      </trkpt>
      <trkpt lat="48.2224" lon="-3.12626">
        <ele>237.60000610352</ele>
        <time>2020-10-19T14:13:10.000Z</time>
      </trkpt>
      <trkpt lat="48.22241" lon="-3.12625">
        <ele>237.80000305176</ele>
        <time>2020-10-19T14:13:11.000Z</time>
      </trkpt>
      <trkpt lat="48.22241" lon="-3.12623">
        <ele>237.80000305176</ele>
        <time>2020-10-19T14:13:12.000Z</time>
      </trkpt>
      <trkpt lat="48.22242" lon="-3.12622">
        <ele>237.80000305176</ele>
        <time>2020-10-19T14:13:13.000Z</time>
      </trkpt>
      <trkpt lat="48.22243" lon="-3.1262">
        <ele>237.80000305176</ele>
        <time>2020-10-19T14:13:14.000Z</time>
      </trkpt>
      <trkpt lat="48.22243" lon="-3.12619">
        <ele>237.80000305176</ele>
        <time>2020-10-19T14:13:15.000Z</time>
      </trkpt>
      <trkpt lat="48.22244" lon="-3.12618">
        <ele>238</ele>
        <time>2020-10-19T14:13:16.000Z</time>
      </trkpt>
      <trkpt lat="48.22245" lon="-3.12617">
        <ele>238</ele>
        <time>2020-10-19T14:13:17.000Z</time>
      </trkpt>
      <trkpt lat="48.22246" lon="-3.12615">
        <ele>238</ele>
        <time>2020-10-19T14:13:18.000Z</time>
      </trkpt>
      <trkpt lat="48.22247" lon="-3.12614">
        <ele>238</ele>
        <time>2020-10-19T14:13:19.000Z</time>
      </trkpt>
      <trkpt lat="48.22248" lon="-3.12613">
        <ele>238.19999694824</ele>
        <time>2020-10-19T14:13:20.000Z</time>
      </trkpt>
      <trkpt lat="48.22249" lon="-3.12612">
        <ele>238.19999694824</ele>
        <time>2020-10-19T14:13:21.000Z</time>
      </trkpt>
      <trkpt lat="48.22249" lon="-3.12611">
        <ele>238.19999694824</ele>
        <time>2020-10-19T14:13:22.000Z</time>
      </trkpt>
      <trkpt lat="48.2225" lon="-3.1261">
        <ele>238.19999694824</ele>
        <time>2020-10-19T14:13:23.000Z</time>
      </trkpt>
      <trkpt lat="48.22251" lon="-3.12609">
        <ele>238.39999389648</ele>
        <time>2020-10-19T14:13:24.000Z</time>
      </trkpt>
      <trkpt lat="48.22253" lon="-3.12608">
        <ele>238.39999389648</ele>
        <time>2020-10-19T14:13:25.000Z</time>
      </trkpt>
      <trkpt lat="48.22253" lon="-3.12607">
        <ele>238.39999389648</ele>
        <time>2020-10-19T14:13:26.000Z</time>
      </trkpt>
      <trkpt lat="48.22254" lon="-3.12606">
        <ele>238.60000610352</ele>
        <time>2020-10-19T14:13:27.000Z</time>
      </trkpt>
      <trkpt lat="48.22255" lon="-3.12605">
        <ele>238.60000610352</ele>
        <time>2020-10-19T14:13:28.000Z</time>
      </trkpt>
      <trkpt lat="48.22256" lon="-3.12605">
        <ele>238.60000610352</ele>
        <time>2020-10-19T14:13:29.000Z</time>
      </trkpt>
      <trkpt lat="48.22257" lon="-3.12604">
        <ele>238.60000610352</ele>
        <time>2020-10-19T14:13:30.000Z</time>
      </trkpt>
      <trkpt lat="48.22258" lon="-3.12603">
        <ele>238.80000305176</ele>
        <time>2020-10-19T14:13:31.000Z</time>
      </trkpt>
      <trkpt lat="48.2226" lon="-3.12601">
        <ele>238.80000305176</ele>
        <time>2020-10-19T14:13:32.000Z</time>
      </trkpt>
      <trkpt lat="48.22261" lon="-3.126">
        <ele>239</ele>
        <time>2020-10-19T14:13:33.000Z</time>
      </trkpt>
      <trkpt lat="48.22262" lon="-3.12599">
        <ele>239</ele>
        <time>2020-10-19T14:13:34.000Z</time>
      </trkpt>
      <trkpt lat="48.22263" lon="-3.12598">
        <ele>239</ele>
        <time>2020-10-19T14:13:35.000Z</time>
      </trkpt>
      <trkpt lat="48.22264" lon="-3.12596">
        <ele>239.19999694824</ele>
        <time>2020-10-19T14:13:36.000Z</time>
      </trkpt>
      <trkpt lat="48.22265" lon="-3.12595">
        <ele>239.19999694824</ele>
        <time>2020-10-19T14:13:37.000Z</time>
      </trkpt>
      <trkpt lat="48.22266" lon="-3.12594">
        <ele>239.39999389648</ele>
        <time>2020-10-19T14:13:38.000Z</time>
      </trkpt>
      <trkpt lat="48.22267" lon="-3.12594">
        <ele>239.39999389648</ele>
        <time>2020-10-19T14:13:39.000Z</time>
      </trkpt>
      <trkpt lat="48.22268" lon="-3.12593">
        <ele>239.39999389648</ele>
        <time>2020-10-19T14:13:40.000Z</time>
      </trkpt>
      <trkpt lat="48.22269" lon="-3.12591">
        <ele>239.60000610352</ele>
        <time>2020-10-19T14:13:41.000Z</time>
      </trkpt>
      <trkpt lat="48.2227" lon="-3.1259">
        <ele>239.60000610352</ele>
        <time>2020-10-19T14:13:42.000Z</time>
      </trkpt>
      <trkpt lat="48.2227" lon="-3.12589">
        <ele>239.60000610352</ele>
        <time>2020-10-19T14:13:43.000Z</time>
      </trkpt>
      <trkpt lat="48.22271" lon="-3.12588">
        <ele>239.80000305176</ele>
        <time>2020-10-19T14:13:44.000Z</time>
      </trkpt>
      <trkpt lat="48.22272" lon="-3.12587">
        <ele>239.80000305176</ele>
        <time>2020-10-19T14:13:45.000Z</time>
      </trkpt>
      <trkpt lat="48.22273" lon="-3.12586">
        <ele>239.80000305176</ele>
        <time>2020-10-19T14:13:46.000Z</time>
      </trkpt>
      <trkpt lat="48.22274" lon="-3.12585">
        <ele>240</ele>
        <time>2020-10-19T14:13:47.000Z</time>
      </trkpt>
      <trkpt lat="48.22275" lon="-3.12584">
        <ele>240</ele>
        <time>2020-10-19T14:13:48.000Z</time>
      </trkpt>
      <trkpt lat="48.22276" lon="-3.12584">
        <ele>240.19999694824</ele>
        <time>2020-10-19T14:13:49.000Z</time>
      </trkpt>
      <trkpt lat="48.22278" lon="-3.12583">
        <ele>240.19999694824</ele>
        <time>2020-10-19T14:13:50.000Z</time>
      </trkpt>
      <trkpt lat="48.22279" lon="-3.12583">
        <ele>240.39999389648</ele>
        <time>2020-10-19T14:13:51.000Z</time>
      </trkpt>
      <trkpt lat="48.2228" lon="-3.12581">
        <ele>240.39999389648</ele>
        <time>2020-10-19T14:13:52.000Z</time>
      </trkpt>
      <trkpt lat="48.22281" lon="-3.12581">
        <ele>240.60000610352</ele>
        <time>2020-10-19T14:13:53.000Z</time>
      </trkpt>
      <trkpt lat="48.22282" lon="-3.1258">
        <ele>240.60000610352</ele>
        <time>2020-10-19T14:13:54.000Z</time>
      </trkpt>
      <trkpt lat="48.22283" lon="-3.1258">
        <ele>240.60000610352</ele>
        <time>2020-10-19T14:13:55.000Z</time>
      </trkpt>
      <trkpt lat="48.22284" lon="-3.12579">
        <ele>240.80000305176</ele>
        <time>2020-10-19T14:13:56.000Z</time>
      </trkpt>
      <trkpt lat="48.22285" lon="-3.12578">
        <ele>240.80000305176</ele>
        <time>2020-10-19T14:13:57.000Z</time>
      </trkpt>
      <trkpt lat="48.22286" lon="-3.12577">
        <ele>241</ele>
        <time>2020-10-19T14:13:58.000Z</time>
      </trkpt>
      <trkpt lat="48.22288" lon="-3.12576">
        <ele>241</ele>
        <time>2020-10-19T14:13:59.000Z</time>
      </trkpt>
      <trkpt lat="48.22289" lon="-3.12575">
        <ele>241.19999694824</ele>
        <time>2020-10-19T14:14:00.000Z</time>
      </trkpt>
      <trkpt lat="48.2229" lon="-3.12574">
        <ele>241.19999694824</ele>
        <time>2020-10-19T14:14:01.000Z</time>
      </trkpt>
      <trkpt lat="48.22291" lon="-3.12573">
        <ele>241.39999389648</ele>
        <time>2020-10-19T14:14:02.000Z</time>
      </trkpt>
      <trkpt lat="48.22293" lon="-3.12572">
        <ele>241.39999389648</ele>
        <time>2020-10-19T14:14:03.000Z</time>
      </trkpt>
      <trkpt lat="48.22294" lon="-3.1257">
        <ele>241.60000610352</ele>
        <time>2020-10-19T14:14:04.000Z</time>
      </trkpt>
      <trkpt lat="48.22295" lon="-3.12569">
        <ele>241.60000610352</ele>
        <time>2020-10-19T14:14:05.000Z</time>
      </trkpt>
      <trkpt lat="48.22296" lon="-3.12568">
        <ele>241.80000305176</ele>
        <time>2020-10-19T14:14:06.000Z</time>
      </trkpt>
      <trkpt lat="48.22299" lon="-3.12566">
        <ele>242</ele>
        <time>2020-10-19T14:14:07.000Z</time>
      </trkpt>
      <trkpt lat="48.22299" lon="-3.12566">
        <ele>242</ele>
        <time>2020-10-19T14:14:08.000Z</time>
      </trkpt>
      <trkpt lat="48.223" lon="-3.12566">
        <ele>242</ele>
        <time>2020-10-19T14:14:09.000Z</time>
      </trkpt>
      <trkpt lat="48.22301" lon="-3.12565">
        <ele>242.19999694824</ele>
        <time>2020-10-19T14:14:10.000Z</time>
      </trkpt>
      <trkpt lat="48.22303" lon="-3.12564">
        <ele>242.19999694824</ele>
        <time>2020-10-19T14:14:11.000Z</time>
      </trkpt>
      <trkpt lat="48.22303" lon="-3.12564">
        <ele>242.39999389648</ele>
        <time>2020-10-19T14:14:12.000Z</time>
      </trkpt>
      <trkpt lat="48.22304" lon="-3.12563">
        <ele>242.39999389648</ele>
        <time>2020-10-19T14:14:13.000Z</time>
      </trkpt>
      <trkpt lat="48.22306" lon="-3.12563">
        <ele>242.60000610352</ele>
        <time>2020-10-19T14:14:14.000Z</time>
      </trkpt>
      <trkpt lat="48.22307" lon="-3.12562">
        <ele>242.60000610352</ele>
        <time>2020-10-19T14:14:15.000Z</time>
      </trkpt>
      <trkpt lat="48.22308" lon="-3.12562">
        <ele>242.60000610352</ele>
        <time>2020-10-19T14:14:16.000Z</time>
      </trkpt>
      <trkpt lat="48.22309" lon="-3.12561">
        <ele>242.80000305176</ele>
        <time>2020-10-19T14:14:17.000Z</time>
      </trkpt>
      <trkpt lat="48.2231" lon="-3.12561">
        <ele>242.80000305176</ele>
        <time>2020-10-19T14:14:18.000Z</time>
      </trkpt>
      <trkpt lat="48.22311" lon="-3.1256">
        <ele>243</ele>
        <time>2020-10-19T14:14:19.000Z</time>
      </trkpt>
      <trkpt lat="48.22312" lon="-3.12559">
        <ele>243</ele>
        <time>2020-10-19T14:14:20.000Z</time>
      </trkpt>
      <trkpt lat="48.22313" lon="-3.12558">
        <ele>243</ele>
        <time>2020-10-19T14:14:21.000Z</time>
      </trkpt>
      <trkpt lat="48.22314" lon="-3.12558">
        <ele>243.19999694824</ele>
        <time>2020-10-19T14:14:22.000Z</time>
      </trkpt>
      <trkpt lat="48.22315" lon="-3.12557">
        <ele>243.19999694824</ele>
        <time>2020-10-19T14:14:23.000Z</time>
      </trkpt>
      <trkpt lat="48.22316" lon="-3.12556">
        <ele>243.39999389648</ele>
        <time>2020-10-19T14:14:24.000Z</time>
      </trkpt>
      <trkpt lat="48.22317" lon="-3.12556">
        <ele>243.39999389648</ele>
        <time>2020-10-19T14:14:25.000Z</time>
      </trkpt>
      <trkpt lat="48.22318" lon="-3.12555">
        <ele>243.60000610352</ele>
        <time>2020-10-19T14:14:26.000Z</time>
      </trkpt>
      <trkpt lat="48.22319" lon="-3.12555">
        <ele>243.60000610352</ele>
        <time>2020-10-19T14:14:27.000Z</time>
      </trkpt>
      <trkpt lat="48.22321" lon="-3.12554">
        <ele>243.60000610352</ele>
        <time>2020-10-19T14:14:28.000Z</time>
      </trkpt>
      <trkpt lat="48.22322" lon="-3.12553">
        <ele>243.80000305176</ele>
        <time>2020-10-19T14:14:29.000Z</time>
      </trkpt>
      <trkpt lat="48.22322" lon="-3.12552">
        <ele>243.80000305176</ele>
        <time>2020-10-19T14:14:30.000Z</time>
      </trkpt>
      <trkpt lat="48.22323" lon="-3.12552">
        <ele>244</ele>
        <time>2020-10-19T14:14:31.000Z</time>
      </trkpt>
      <trkpt lat="48.22325" lon="-3.12551">
        <ele>244</ele>
        <time>2020-10-19T14:14:32.000Z</time>
      </trkpt>
      <trkpt lat="48.22326" lon="-3.12551">
        <ele>244.19999694824</ele>
        <time>2020-10-19T14:14:33.000Z</time>
      </trkpt>
      <trkpt lat="48.22327" lon="-3.1255">
        <ele>244.19999694824</ele>
        <time>2020-10-19T14:14:34.000Z</time>
      </trkpt>
      <trkpt lat="48.22328" lon="-3.12549">
        <ele>244.39999389648</ele>
        <time>2020-10-19T14:14:35.000Z</time>
      </trkpt>
      <trkpt lat="48.22329" lon="-3.12548">
        <ele>244.39999389648</ele>
        <time>2020-10-19T14:14:36.000Z</time>
      </trkpt>
      <trkpt lat="48.2233" lon="-3.12548">
        <ele>244.39999389648</ele>
        <time>2020-10-19T14:14:37.000Z</time>
      </trkpt>
      <trkpt lat="48.22332" lon="-3.12547">
        <ele>244.60000610352</ele>
        <time>2020-10-19T14:14:38.000Z</time>
      </trkpt>
      <trkpt lat="48.22333" lon="-3.12548">
        <ele>244.60000610352</ele>
        <time>2020-10-19T14:14:39.000Z</time>
      </trkpt>
      <trkpt lat="48.22334" lon="-3.12547">
        <ele>244.80000305176</ele>
        <time>2020-10-19T14:14:40.000Z</time>
      </trkpt>
      <trkpt lat="48.22336" lon="-3.12546">
        <ele>244.80000305176</ele>
        <time>2020-10-19T14:14:41.000Z</time>
      </trkpt>
      <trkpt lat="48.22336" lon="-3.12546">
        <ele>244.80000305176</ele>
        <time>2020-10-19T14:14:42.000Z</time>
      </trkpt>
      <trkpt lat="48.22336" lon="-3.12545">
        <ele>245</ele>
        <time>2020-10-19T14:14:43.000Z</time>
      </trkpt>
      <trkpt lat="48.22337" lon="-3.12544">
        <ele>245</ele>
        <time>2020-10-19T14:14:44.000Z</time>
      </trkpt>
      <trkpt lat="48.22338" lon="-3.12543">
        <ele>245</ele>
        <time>2020-10-19T14:14:45.000Z</time>
      </trkpt>
      <trkpt lat="48.22339" lon="-3.12543">
        <ele>245.19999694824</ele>
        <time>2020-10-19T14:14:46.000Z</time>
      </trkpt>
      <trkpt lat="48.2234" lon="-3.12542">
        <ele>245.19999694824</ele>
        <time>2020-10-19T14:14:47.000Z</time>
      </trkpt>
      <trkpt lat="48.22341" lon="-3.12542">
        <ele>245.19999694824</ele>
        <time>2020-10-19T14:14:48.000Z</time>
      </trkpt>
      <trkpt lat="48.22341" lon="-3.12541">
        <ele>245.39999389648</ele>
        <time>2020-10-19T14:14:49.000Z</time>
      </trkpt>
      <trkpt lat="48.22342" lon="-3.12539">
        <ele>245.39999389648</ele>
        <time>2020-10-19T14:14:50.000Z</time>
      </trkpt>
      <trkpt lat="48.22343" lon="-3.12538">
        <ele>245.39999389648</ele>
        <time>2020-10-19T14:14:51.000Z</time>
      </trkpt>
      <trkpt lat="48.22344" lon="-3.12536">
        <ele>245.60000610352</ele>
        <time>2020-10-19T14:14:52.000Z</time>
      </trkpt>
      <trkpt lat="48.22344" lon="-3.12534">
        <ele>245.60000610352</ele>
        <time>2020-10-19T14:14:53.000Z</time>
      </trkpt>
      <trkpt lat="48.22345" lon="-3.12533">
        <ele>245.60000610352</ele>
        <time>2020-10-19T14:14:54.000Z</time>
      </trkpt>
      <trkpt lat="48.22345" lon="-3.1253">
        <ele>245.80000305176</ele>
        <time>2020-10-19T14:14:55.000Z</time>
      </trkpt>
      <trkpt lat="48.22345" lon="-3.1253">
        <ele>245.80000305176</ele>
        <time>2020-10-19T14:14:56.000Z</time>
      </trkpt>
      <trkpt lat="48.22345" lon="-3.12528">
        <ele>245.80000305176</ele>
        <time>2020-10-19T14:14:57.000Z</time>
      </trkpt>
      <trkpt lat="48.22345" lon="-3.12526">
        <ele>245.80000305176</ele>
        <time>2020-10-19T14:14:58.000Z</time>
      </trkpt>
      <trkpt lat="48.22346" lon="-3.12525">
        <ele>245.80000305176</ele>
        <time>2020-10-19T14:14:59.000Z</time>
      </trkpt>
      <trkpt lat="48.22346" lon="-3.12523">
        <ele>245.80000305176</ele>
        <time>2020-10-19T14:15:00.000Z</time>
      </trkpt>
      <trkpt lat="48.22346" lon="-3.12522">
        <ele>245.80000305176</ele>
        <time>2020-10-19T14:15:01.000Z</time>
      </trkpt>
      <trkpt lat="48.22347" lon="-3.1252">
        <ele>245.80000305176</ele>
        <time>2020-10-19T14:15:02.000Z</time>
      </trkpt>
      <trkpt lat="48.22347" lon="-3.12519">
        <ele>245.80000305176</ele>
        <time>2020-10-19T14:15:03.000Z</time>
      </trkpt>
      <trkpt lat="48.22347" lon="-3.12517">
        <ele>245.80000305176</ele>
        <time>2020-10-19T14:15:04.000Z</time>
      </trkpt>
      <trkpt lat="48.22348" lon="-3.12516">
        <ele>246</ele>
        <time>2020-10-19T14:15:05.000Z</time>
      </trkpt>
      <trkpt lat="48.22348" lon="-3.12515">
        <ele>246</ele>
        <time>2020-10-19T14:15:06.000Z</time>
      </trkpt>
      <trkpt lat="48.22349" lon="-3.12514">
        <ele>246</ele>
        <time>2020-10-19T14:15:07.000Z</time>
      </trkpt>
      <trkpt lat="48.2235" lon="-3.12513">
        <ele>246</ele>
        <time>2020-10-19T14:15:08.000Z</time>
      </trkpt>
      <trkpt lat="48.2235" lon="-3.12512">
        <ele>246</ele>
        <time>2020-10-19T14:15:09.000Z</time>
      </trkpt>
      <trkpt lat="48.2235" lon="-3.1251">
        <ele>246</ele>
        <time>2020-10-19T14:15:10.000Z</time>
      </trkpt>
      <trkpt lat="48.2235" lon="-3.12509">
        <ele>246</ele>
        <time>2020-10-19T14:15:11.000Z</time>
      </trkpt>
      <trkpt lat="48.22351" lon="-3.12508">
        <ele>246</ele>
        <time>2020-10-19T14:15:12.000Z</time>
      </trkpt>
      <trkpt lat="48.22351" lon="-3.12507">
        <ele>245.80000305176</ele>
        <time>2020-10-19T14:15:13.000Z</time>
      </trkpt>
      <trkpt lat="48.22351" lon="-3.12506">
        <ele>245.80000305176</ele>
        <time>2020-10-19T14:15:14.000Z</time>
      </trkpt>
      <trkpt lat="48.22351" lon="-3.12505">
        <ele>245.80000305176</ele>
        <time>2020-10-19T14:15:15.000Z</time>
      </trkpt>
      <trkpt lat="48.22351" lon="-3.12504">
        <ele>245.80000305176</ele>
        <time>2020-10-19T14:15:16.000Z</time>
      </trkpt>
      <trkpt lat="48.2235" lon="-3.12502">
        <ele>245.60000610352</ele>
        <time>2020-10-19T14:15:17.000Z</time>
      </trkpt>
      <trkpt lat="48.2235" lon="-3.12501">
        <ele>245.60000610352</ele>
        <time>2020-10-19T14:15:18.000Z</time>
      </trkpt>
      <trkpt lat="48.2235" lon="-3.12499">
        <ele>245.39999389648</ele>
        <time>2020-10-19T14:15:19.000Z</time>
      </trkpt>
      <trkpt lat="48.2235" lon="-3.12498">
        <ele>245.19999694824</ele>
        <time>2020-10-19T14:15:20.000Z</time>
      </trkpt>
      <trkpt lat="48.22349" lon="-3.12496">
        <ele>245.19999694824</ele>
        <time>2020-10-19T14:15:21.000Z</time>
      </trkpt>
      <trkpt lat="48.22349" lon="-3.12495">
        <ele>245</ele>
        <time>2020-10-19T14:15:22.000Z</time>
      </trkpt>
      <trkpt lat="48.22349" lon="-3.12493">
        <ele>245</ele>
        <time>2020-10-19T14:15:23.000Z</time>
      </trkpt>
      <trkpt lat="48.2235" lon="-3.12492">
        <ele>244.80000305176</ele>
        <time>2020-10-19T14:15:24.000Z</time>
      </trkpt>
      <trkpt lat="48.2235" lon="-3.1249">
        <ele>244.80000305176</ele>
        <time>2020-10-19T14:15:25.000Z</time>
      </trkpt>
      <trkpt lat="48.2235" lon="-3.12489">
        <ele>244.60000610352</ele>
        <time>2020-10-19T14:15:26.000Z</time>
      </trkpt>
      <trkpt lat="48.2235" lon="-3.12487">
        <ele>244.60000610352</ele>
        <time>2020-10-19T14:15:27.000Z</time>
      </trkpt>
      <trkpt lat="48.22349" lon="-3.12484">
        <ele>244.39999389648</ele>
        <time>2020-10-19T14:15:28.000Z</time>
      </trkpt>
      <trkpt lat="48.22349" lon="-3.12482">
        <ele>244.19999694824</ele>
        <time>2020-10-19T14:15:29.000Z</time>
      </trkpt>
      <trkpt lat="48.22349" lon="-3.1248">
        <ele>244</ele>
        <time>2020-10-19T14:15:30.000Z</time>
      </trkpt>
      <trkpt lat="48.22348" lon="-3.12478">
        <ele>243.80000305176</ele>
        <time>2020-10-19T14:15:31.000Z</time>
      </trkpt>
      <trkpt lat="48.22349" lon="-3.12477">
        <ele>243.80000305176</ele>
        <time>2020-10-19T14:15:32.000Z</time>
      </trkpt>
      <trkpt lat="48.22349" lon="-3.12476">
        <ele>243.60000610352</ele>
        <time>2020-10-19T14:15:33.000Z</time>
      </trkpt>
      <trkpt lat="48.22349" lon="-3.12474">
        <ele>243.60000610352</ele>
        <time>2020-10-19T14:15:34.000Z</time>
      </trkpt>
      <trkpt lat="48.22349" lon="-3.12473">
        <ele>243.39999389648</ele>
        <time>2020-10-19T14:15:35.000Z</time>
      </trkpt>
      <trkpt lat="48.22349" lon="-3.12472">
        <ele>243.39999389648</ele>
        <time>2020-10-19T14:15:36.000Z</time>
      </trkpt>
      <trkpt lat="48.22349" lon="-3.12471">
        <ele>243.39999389648</ele>
        <time>2020-10-19T14:15:37.000Z</time>
      </trkpt>
      <trkpt lat="48.22349" lon="-3.12469">
        <ele>243.19999694824</ele>
        <time>2020-10-19T14:15:38.000Z</time>
      </trkpt>
      <trkpt lat="48.22349" lon="-3.12468">
        <ele>243.19999694824</ele>
        <time>2020-10-19T14:15:39.000Z</time>
      </trkpt>
      <trkpt lat="48.22349" lon="-3.12467">
        <ele>243</ele>
        <time>2020-10-19T14:15:40.000Z</time>
      </trkpt>
      <trkpt lat="48.2235" lon="-3.12466">
        <ele>243</ele>
        <time>2020-10-19T14:15:41.000Z</time>
      </trkpt>
      <trkpt lat="48.2235" lon="-3.12466">
        <ele>243</ele>
        <time>2020-10-19T14:15:42.000Z</time>
      </trkpt>
      <trkpt lat="48.2235" lon="-3.12466">
        <ele>243</ele>
        <time>2020-10-19T14:15:43.000Z</time>
      </trkpt>
      <trkpt lat="48.22349" lon="-3.12465">
        <ele>243</ele>
        <time>2020-10-19T14:15:44.000Z</time>
      </trkpt>
      <trkpt lat="48.22349" lon="-3.12465">
        <ele>243</ele>
        <time>2020-10-19T14:15:45.000Z</time>
      </trkpt>
      <trkpt lat="48.22349" lon="-3.12465">
        <ele>243</ele>
        <time>2020-10-19T14:15:46.000Z</time>
      </trkpt>
      <trkpt lat="48.22349" lon="-3.12465">
        <ele>243</ele>
        <time>2020-10-19T14:15:47.000Z</time>
      </trkpt>
      <trkpt lat="48.2235" lon="-3.12465">
        <ele>243</ele>
        <time>2020-10-19T14:15:48.000Z</time>
      </trkpt>
      <trkpt lat="48.2235" lon="-3.12464">
        <ele>242.80000305176</ele>
        <time>2020-10-19T14:15:49.000Z</time>
      </trkpt>
      <trkpt lat="48.2235" lon="-3.12463">
        <ele>242.80000305176</ele>
        <time>2020-10-19T14:15:50.000Z</time>
      </trkpt>
      <trkpt lat="48.2235" lon="-3.12462">
        <ele>242.80000305176</ele>
        <time>2020-10-19T14:15:51.000Z</time>
      </trkpt>
      <trkpt lat="48.2235" lon="-3.12461">
        <ele>242.60000610352</ele>
        <time>2020-10-19T14:15:52.000Z</time>
      </trkpt>
      <trkpt lat="48.2235" lon="-3.1246">
        <ele>242.60000610352</ele>
        <time>2020-10-19T14:15:53.000Z</time>
      </trkpt>
      <trkpt lat="48.2235" lon="-3.12459">
        <ele>242.60000610352</ele>
        <time>2020-10-19T14:15:54.000Z</time>
      </trkpt>
      <trkpt lat="48.2235" lon="-3.12459">
        <ele>242.60000610352</ele>
        <time>2020-10-19T14:15:55.000Z</time>
      </trkpt>
      <trkpt lat="48.22351" lon="-3.12458">
        <ele>242.39999389648</ele>
        <time>2020-10-19T14:15:56.000Z</time>
      </trkpt>
      <trkpt lat="48.22351" lon="-3.12458">
        <ele>242.39999389648</ele>
        <time>2020-10-19T14:15:57.000Z</time>
      </trkpt>
      <trkpt lat="48.22351" lon="-3.12457">
        <ele>242.39999389648</ele>
        <time>2020-10-19T14:15:58.000Z</time>
      </trkpt>
      <trkpt lat="48.22351" lon="-3.12457">
        <ele>242.39999389648</ele>
        <time>2020-10-19T14:15:59.000Z</time>
      </trkpt>
      <trkpt lat="48.22352" lon="-3.12457">
        <ele>242.39999389648</ele>
        <time>2020-10-19T14:16:00.000Z</time>
      </trkpt>
      <trkpt lat="48.22352" lon="-3.12457">
        <ele>242.39999389648</ele>
        <time>2020-10-19T14:16:01.000Z</time>
      </trkpt>
      <trkpt lat="48.22352" lon="-3.12457">
        <ele>242.39999389648</ele>
        <time>2020-10-19T14:16:02.000Z</time>
      </trkpt>
      <trkpt lat="48.22353" lon="-3.12456">
        <ele>242.39999389648</ele>
        <time>2020-10-19T14:16:03.000Z</time>
      </trkpt>
      <trkpt lat="48.22353" lon="-3.12456">
        <ele>242.39999389648</ele>
        <time>2020-10-19T14:16:04.000Z</time>
      </trkpt>
      <trkpt lat="48.22353" lon="-3.12456">
        <ele>242.39999389648</ele>
        <time>2020-10-19T14:16:05.000Z</time>
      </trkpt>
      <trkpt lat="48.22354" lon="-3.12456">
        <ele>242.39999389648</ele>
        <time>2020-10-19T14:16:06.000Z</time>
      </trkpt>
      <trkpt lat="48.22354" lon="-3.12455">
        <ele>242.39999389648</ele>
        <time>2020-10-19T14:16:07.000Z</time>
      </trkpt>
      <trkpt lat="48.22354" lon="-3.12455">
        <ele>242.39999389648</ele>
        <time>2020-10-19T14:16:08.000Z</time>
      </trkpt>
      <trkpt lat="48.22355" lon="-3.12455">
        <ele>242.39999389648</ele>
        <time>2020-10-19T14:16:09.000Z</time>
      </trkpt>
      <trkpt lat="48.22356" lon="-3.12455">
        <ele>242.39999389648</ele>
        <time>2020-10-19T14:16:10.000Z</time>
      </trkpt>
      <trkpt lat="48.22356" lon="-3.12455">
        <ele>242.39999389648</ele>
        <time>2020-10-19T14:16:11.000Z</time>
      </trkpt>
      <trkpt lat="48.22356" lon="-3.12454">
        <ele>242.39999389648</ele>
        <time>2020-10-19T14:16:12.000Z</time>
      </trkpt>
      <trkpt lat="48.22357" lon="-3.12454">
        <ele>242.39999389648</ele>
        <time>2020-10-19T14:16:13.000Z</time>
      </trkpt>
      <trkpt lat="48.22358" lon="-3.12453">
        <ele>242.39999389648</ele>
        <time>2020-10-19T14:16:14.000Z</time>
      </trkpt>
      <trkpt lat="48.22358" lon="-3.12453">
        <ele>242.39999389648</ele>
        <time>2020-10-19T14:16:15.000Z</time>
      </trkpt>
      <trkpt lat="48.22358" lon="-3.12453">
        <ele>242.39999389648</ele>
        <time>2020-10-19T14:16:16.000Z</time>
      </trkpt>
      <trkpt lat="48.22359" lon="-3.12452">
        <ele>242.39999389648</ele>
        <time>2020-10-19T14:16:17.000Z</time>
      </trkpt>
      <trkpt lat="48.2236" lon="-3.12452">
        <ele>242.39999389648</ele>
        <time>2020-10-19T14:16:18.000Z</time>
      </trkpt>
      <trkpt lat="48.2236" lon="-3.12452">
        <ele>242.60000610352</ele>
        <time>2020-10-19T14:16:19.000Z</time>
      </trkpt>
      <trkpt lat="48.2236" lon="-3.12452">
        <ele>242.60000610352</ele>
        <time>2020-10-19T14:16:20.000Z</time>
      </trkpt>
      <trkpt lat="48.2236" lon="-3.12452">
        <ele>242.60000610352</ele>
        <time>2020-10-19T14:16:21.000Z</time>
      </trkpt>
      <trkpt lat="48.2236" lon="-3.12452">
        <ele>242.60000610352</ele>
        <time>2020-10-19T14:16:22.000Z</time>
      </trkpt>
      <trkpt lat="48.22361" lon="-3.12453">
        <ele>242.60000610352</ele>
        <time>2020-10-19T14:16:23.000Z</time>
      </trkpt>
      <trkpt lat="48.22361" lon="-3.12453">
        <ele>242.60000610352</ele>
        <time>2020-10-19T14:16:24.000Z</time>
      </trkpt>
      <trkpt lat="48.22361" lon="-3.12453">
        <ele>242.60000610352</ele>
        <time>2020-10-19T14:16:25.000Z</time>
      </trkpt>
      <trkpt lat="48.22362" lon="-3.12453">
        <ele>242.60000610352</ele>
        <time>2020-10-19T14:16:26.000Z</time>
      </trkpt>
      <trkpt lat="48.22362" lon="-3.12453">
        <ele>242.60000610352</ele>
        <time>2020-10-19T14:16:27.000Z</time>
      </trkpt>
      <trkpt lat="48.22362" lon="-3.12453">
        <ele>242.80000305176</ele>
        <time>2020-10-19T14:16:28.000Z</time>
      </trkpt>
      <trkpt lat="48.22362" lon="-3.12453">
        <ele>242.80000305176</ele>
        <time>2020-10-19T14:16:29.000Z</time>
      </trkpt>
      <trkpt lat="48.22362" lon="-3.12454">
        <ele>242.80000305176</ele>
        <time>2020-10-19T14:16:30.000Z</time>
      </trkpt>
      <trkpt lat="48.22362" lon="-3.12454">
        <ele>242.80000305176</ele>
        <time>2020-10-19T14:16:31.000Z</time>
      </trkpt>
      <trkpt lat="48.22363" lon="-3.12454">
        <ele>242.80000305176</ele>
        <time>2020-10-19T14:16:32.000Z</time>
      </trkpt>
      <trkpt lat="48.22363" lon="-3.12454">
        <ele>242.80000305176</ele>
        <time>2020-10-19T14:16:33.000Z</time>
      </trkpt>
      <trkpt lat="48.22363" lon="-3.12454">
        <ele>242.80000305176</ele>
        <time>2020-10-19T14:16:34.000Z</time>
      </trkpt>
      <trkpt lat="48.22364" lon="-3.12454">
        <ele>242.80000305176</ele>
        <time>2020-10-19T14:16:35.000Z</time>
      </trkpt>
      <trkpt lat="48.22363" lon="-3.12454">
        <ele>242.80000305176</ele>
        <time>2020-10-19T14:16:36.000Z</time>
      </trkpt>
      <trkpt lat="48.22363" lon="-3.12454">
        <ele>242.80000305176</ele>
        <time>2020-10-19T14:16:37.000Z</time>
      </trkpt>
      <trkpt lat="48.22363" lon="-3.12454">
        <ele>242.80000305176</ele>
        <time>2020-10-19T14:16:38.000Z</time>
      </trkpt>
      <trkpt lat="48.22363" lon="-3.12454">
        <ele>242.80000305176</ele>
        <time>2020-10-19T14:16:39.000Z</time>
      </trkpt>
      <trkpt lat="48.22363" lon="-3.12454">
        <ele>242.80000305176</ele>
        <time>2020-10-19T14:16:40.000Z</time>
      </trkpt>
      <trkpt lat="48.22363" lon="-3.12454">
        <ele>242.80000305176</ele>
        <time>2020-10-19T14:16:41.000Z</time>
      </trkpt>
      <trkpt lat="48.22363" lon="-3.12454">
        <ele>242.80000305176</ele>
        <time>2020-10-19T14:16:42.000Z</time>
      </trkpt>
      <trkpt lat="48.22363" lon="-3.12454">
        <ele>242.80000305176</ele>
        <time>2020-10-19T14:16:43.000Z</time>
      </trkpt>
      <trkpt lat="48.22363" lon="-3.12454">
        <ele>242.80000305176</ele>
        <time>2020-10-19T14:16:44.000Z</time>
      </trkpt>
      <trkpt lat="48.22363" lon="-3.12454">
        <ele>242.80000305176</ele>
        <time>2020-10-19T14:16:45.000Z</time>
      </trkpt>
      <trkpt lat="48.22363" lon="-3.12454">
        <ele>242.80000305176</ele>
        <time>2020-10-19T14:16:46.000Z</time>
      </trkpt>
      <trkpt lat="48.22363" lon="-3.12454">
        <ele>242.80000305176</ele>
        <time>2020-10-19T14:16:47.000Z</time>
      </trkpt>
      <trkpt lat="48.22364" lon="-3.12454">
        <ele>242.80000305176</ele>
        <time>2020-10-19T14:16:48.000Z</time>
      </trkpt>
      <trkpt lat="48.22364" lon="-3.12455">
        <ele>242.80000305176</ele>
        <time>2020-10-19T14:16:49.000Z</time>
      </trkpt>
      <trkpt lat="48.22364" lon="-3.12455">
        <ele>243</ele>
        <time>2020-10-19T14:16:50.000Z</time>
      </trkpt>
      <trkpt lat="48.22364" lon="-3.12455">
        <ele>243</ele>
        <time>2020-10-19T14:16:51.000Z</time>
      </trkpt>
      <trkpt lat="48.22364" lon="-3.12455">
        <ele>243</ele>
        <time>2020-10-19T14:16:52.000Z</time>
      </trkpt>
      <trkpt lat="48.22364" lon="-3.12455">
        <ele>242.80000305176</ele>
        <time>2020-10-19T14:16:53.000Z</time>
      </trkpt>
      <trkpt lat="48.22364" lon="-3.12455">
        <ele>242.80000305176</ele>
        <time>2020-10-19T14:16:54.000Z</time>
      </trkpt>
      <trkpt lat="48.22364" lon="-3.12455">
        <ele>242.80000305176</ele>
        <time>2020-10-19T14:16:55.000Z</time>
      </trkpt>
      <trkpt lat="48.22364" lon="-3.12455">
        <ele>242.80000305176</ele>
        <time>2020-10-19T14:16:56.000Z</time>
      </trkpt>
      <trkpt lat="48.22364" lon="-3.12455">
        <ele>242.80000305176</ele>
        <time>2020-10-19T14:16:57.000Z</time>
      </trkpt>
      <trkpt lat="48.22364" lon="-3.12455">
        <ele>242.80000305176</ele>
        <time>2020-10-19T14:16:58.000Z</time>
      </trkpt>
      <trkpt lat="48.22364" lon="-3.12455">
        <ele>242.80000305176</ele>
        <time>2020-10-19T14:16:59.000Z</time>
      </trkpt>
      <trkpt lat="48.22364" lon="-3.12455">
        <ele>242.80000305176</ele>
        <time>2020-10-19T14:17:00.000Z</time>
      </trkpt>
      <trkpt lat="48.22364" lon="-3.12455">
        <ele>242.80000305176</ele>
        <time>2020-10-19T14:17:01.000Z</time>
      </trkpt>
      <trkpt lat="48.22364" lon="-3.12455">
        <ele>243</ele>
        <time>2020-10-19T14:17:02.000Z</time>
      </trkpt>
      <trkpt lat="48.22365" lon="-3.12455">
        <ele>243</ele>
        <time>2020-10-19T14:17:03.000Z</time>
      </trkpt>
      <trkpt lat="48.22365" lon="-3.12455">
        <ele>243</ele>
        <time>2020-10-19T14:17:04.000Z</time>
      </trkpt>
      <trkpt lat="48.22365" lon="-3.12455">
        <ele>243</ele>
        <time>2020-10-19T14:17:05.000Z</time>
      </trkpt>
      <trkpt lat="48.22365" lon="-3.12455">
        <ele>243</ele>
        <time>2020-10-19T14:17:06.000Z</time>
      </trkpt>
      <trkpt lat="48.22365" lon="-3.12455">
        <ele>243</ele>
        <time>2020-10-19T14:17:07.000Z</time>
      </trkpt>
      <trkpt lat="48.22365" lon="-3.12455">
        <ele>243</ele>
        <time>2020-10-19T14:17:08.000Z</time>
      </trkpt>
      <trkpt lat="48.22366" lon="-3.12455">
        <ele>243</ele>
        <time>2020-10-19T14:17:09.000Z</time>
      </trkpt>
      <trkpt lat="48.22366" lon="-3.12455">
        <ele>243</ele>
        <time>2020-10-19T14:17:10.000Z</time>
      </trkpt>
      <trkpt lat="48.22366" lon="-3.12455">
        <ele>243</ele>
        <time>2020-10-19T14:17:11.000Z</time>
      </trkpt>
      <trkpt lat="48.22366" lon="-3.12455">
        <ele>243</ele>
        <time>2020-10-19T14:17:12.000Z</time>
      </trkpt>
      <trkpt lat="48.22366" lon="-3.12455">
        <ele>243</ele>
        <time>2020-10-19T14:17:13.000Z</time>
      </trkpt>
      <trkpt lat="48.22366" lon="-3.12455">
        <ele>243</ele>
        <time>2020-10-19T14:17:14.000Z</time>
      </trkpt>
      <trkpt lat="48.22366" lon="-3.12455">
        <ele>243</ele>
        <time>2020-10-19T14:17:15.000Z</time>
      </trkpt>
      <trkpt lat="48.22365" lon="-3.12455">
        <ele>243</ele>
        <time>2020-10-19T14:17:16.000Z</time>
      </trkpt>
      <trkpt lat="48.22365" lon="-3.12454">
        <ele>242.80000305176</ele>
        <time>2020-10-19T14:17:17.000Z</time>
      </trkpt>
      <trkpt lat="48.22365" lon="-3.12453">
        <ele>242.80000305176</ele>
        <time>2020-10-19T14:17:18.000Z</time>
      </trkpt>
      <trkpt lat="48.22365" lon="-3.12453">
        <ele>242.80000305176</ele>
        <time>2020-10-19T14:17:19.000Z</time>
      </trkpt>
      <trkpt lat="48.22365" lon="-3.12454">
        <ele>242.80000305176</ele>
        <time>2020-10-19T14:17:20.000Z</time>
      </trkpt>
      <trkpt lat="48.22364" lon="-3.12453">
        <ele>242.80000305176</ele>
        <time>2020-10-19T14:17:21.000Z</time>
      </trkpt>
      <trkpt lat="48.22364" lon="-3.12452">
        <ele>242.80000305176</ele>
        <time>2020-10-19T14:17:22.000Z</time>
      </trkpt>
      <trkpt lat="48.22364" lon="-3.12452">
        <ele>242.60000610352</ele>
        <time>2020-10-19T14:17:23.000Z</time>
      </trkpt>
      <trkpt lat="48.22364" lon="-3.12451">
        <ele>242.60000610352</ele>
        <time>2020-10-19T14:17:24.000Z</time>
      </trkpt>
      <trkpt lat="48.22363" lon="-3.12449">
        <ele>242.39999389648</ele>
        <time>2020-10-19T14:17:25.000Z</time>
      </trkpt>
      <trkpt lat="48.22363" lon="-3.12448">
        <ele>242.39999389648</ele>
        <time>2020-10-19T14:17:26.000Z</time>
      </trkpt>
      <trkpt lat="48.22363" lon="-3.12447">
        <ele>242.19999694824</ele>
        <time>2020-10-19T14:17:27.000Z</time>
      </trkpt>
      <trkpt lat="48.22363" lon="-3.12446">
        <ele>242.19999694824</ele>
        <time>2020-10-19T14:17:28.000Z</time>
      </trkpt>
      <trkpt lat="48.22363" lon="-3.12445">
        <ele>242.19999694824</ele>
        <time>2020-10-19T14:17:29.000Z</time>
      </trkpt>
      <trkpt lat="48.22363" lon="-3.12444">
        <ele>242</ele>
        <time>2020-10-19T14:17:30.000Z</time>
      </trkpt>
      <trkpt lat="48.22363" lon="-3.12443">
        <ele>242</ele>
        <time>2020-10-19T14:17:31.000Z</time>
      </trkpt>
      <trkpt lat="48.22363" lon="-3.12442">
        <ele>242</ele>
        <time>2020-10-19T14:17:32.000Z</time>
      </trkpt>
      <trkpt lat="48.22363" lon="-3.1244">
        <ele>241.80000305176</ele>
        <time>2020-10-19T14:17:33.000Z</time>
      </trkpt>
      <trkpt lat="48.22363" lon="-3.12439">
        <ele>241.80000305176</ele>
        <time>2020-10-19T14:17:34.000Z</time>
      </trkpt>
      <trkpt lat="48.22364" lon="-3.12438">
        <ele>241.60000610352</ele>
        <time>2020-10-19T14:17:35.000Z</time>
      </trkpt>
      <trkpt lat="48.22364" lon="-3.12436">
        <ele>241.60000610352</ele>
        <time>2020-10-19T14:17:36.000Z</time>
      </trkpt>
      <trkpt lat="48.22365" lon="-3.12435">
        <ele>241.39999389648</ele>
        <time>2020-10-19T14:17:37.000Z</time>
      </trkpt>
      <trkpt lat="48.22365" lon="-3.12433">
        <ele>241.39999389648</ele>
        <time>2020-10-19T14:17:38.000Z</time>
      </trkpt>
      <trkpt lat="48.22366" lon="-3.12432">
        <ele>241.39999389648</ele>
        <time>2020-10-19T14:17:39.000Z</time>
      </trkpt>
      <trkpt lat="48.22366" lon="-3.12431">
        <ele>241.19999694824</ele>
        <time>2020-10-19T14:17:40.000Z</time>
      </trkpt>
      <trkpt lat="48.22367" lon="-3.12429">
        <ele>241.19999694824</ele>
        <time>2020-10-19T14:17:41.000Z</time>
      </trkpt>
      <trkpt lat="48.22367" lon="-3.12428">
        <ele>241.19999694824</ele>
        <time>2020-10-19T14:17:42.000Z</time>
      </trkpt>
      <trkpt lat="48.22368" lon="-3.12427">
        <ele>241</ele>
        <time>2020-10-19T14:17:43.000Z</time>
      </trkpt>
      <trkpt lat="48.22369" lon="-3.12426">
        <ele>241</ele>
        <time>2020-10-19T14:17:44.000Z</time>
      </trkpt>
      <trkpt lat="48.2237" lon="-3.12424">
        <ele>241</ele>
        <time>2020-10-19T14:17:45.000Z</time>
      </trkpt>
      <trkpt lat="48.22371" lon="-3.12423">
        <ele>241</ele>
        <time>2020-10-19T14:17:46.000Z</time>
      </trkpt>
      <trkpt lat="48.22371" lon="-3.12422">
        <ele>241</ele>
        <time>2020-10-19T14:17:47.000Z</time>
      </trkpt>
      <trkpt lat="48.22372" lon="-3.12421">
        <ele>241</ele>
        <time>2020-10-19T14:17:48.000Z</time>
      </trkpt>
      <trkpt lat="48.22372" lon="-3.12419">
        <ele>241</ele>
        <time>2020-10-19T14:17:49.000Z</time>
      </trkpt>
      <trkpt lat="48.22373" lon="-3.12418">
        <ele>241</ele>
        <time>2020-10-19T14:17:50.000Z</time>
      </trkpt>
      <trkpt lat="48.22374" lon="-3.12416">
        <ele>241</ele>
        <time>2020-10-19T14:17:51.000Z</time>
      </trkpt>
      <trkpt lat="48.22374" lon="-3.12415">
        <ele>241</ele>
        <time>2020-10-19T14:17:52.000Z</time>
      </trkpt>
      <trkpt lat="48.22375" lon="-3.12413">
        <ele>241</ele>
        <time>2020-10-19T14:17:53.000Z</time>
      </trkpt>
      <trkpt lat="48.22375" lon="-3.12412">
        <ele>240.80000305176</ele>
        <time>2020-10-19T14:17:54.000Z</time>
      </trkpt>
      <trkpt lat="48.22375" lon="-3.12411">
        <ele>240.80000305176</ele>
        <time>2020-10-19T14:17:55.000Z</time>
      </trkpt>
      <trkpt lat="48.22375" lon="-3.12409">
        <ele>240.80000305176</ele>
        <time>2020-10-19T14:17:56.000Z</time>
      </trkpt>
      <trkpt lat="48.22376" lon="-3.12408">
        <ele>240.80000305176</ele>
        <time>2020-10-19T14:17:57.000Z</time>
      </trkpt>
      <trkpt lat="48.22377" lon="-3.12406">
        <ele>240.80000305176</ele>
        <time>2020-10-19T14:17:58.000Z</time>
      </trkpt>
      <trkpt lat="48.22377" lon="-3.12405">
        <ele>240.80000305176</ele>
        <time>2020-10-19T14:17:59.000Z</time>
      </trkpt>
      <trkpt lat="48.22378" lon="-3.12403">
        <ele>240.60000610352</ele>
        <time>2020-10-19T14:18:00.000Z</time>
      </trkpt>
      <trkpt lat="48.22378" lon="-3.12402">
        <ele>240.60000610352</ele>
        <time>2020-10-19T14:18:01.000Z</time>
      </trkpt>
      <trkpt lat="48.22379" lon="-3.124">
        <ele>240.60000610352</ele>
        <time>2020-10-19T14:18:02.000Z</time>
      </trkpt>
      <trkpt lat="48.22379" lon="-3.12399">
        <ele>240.60000610352</ele>
        <time>2020-10-19T14:18:03.000Z</time>
      </trkpt>
      <trkpt lat="48.2238" lon="-3.12397">
        <ele>240.60000610352</ele>
        <time>2020-10-19T14:18:04.000Z</time>
      </trkpt>
      <trkpt lat="48.2238" lon="-3.12395">
        <ele>240.60000610352</ele>
        <time>2020-10-19T14:18:05.000Z</time>
      </trkpt>
      <trkpt lat="48.2238" lon="-3.12394">
        <ele>240.39999389648</ele>
        <time>2020-10-19T14:18:06.000Z</time>
      </trkpt>
      <trkpt lat="48.22381" lon="-3.12392">
        <ele>240.39999389648</ele>
        <time>2020-10-19T14:18:07.000Z</time>
      </trkpt>
      <trkpt lat="48.22381" lon="-3.12391">
        <ele>240.39999389648</ele>
        <time>2020-10-19T14:18:08.000Z</time>
      </trkpt>
      <trkpt lat="48.22381" lon="-3.1239">
        <ele>240.19999694824</ele>
        <time>2020-10-19T14:18:09.000Z</time>
      </trkpt>
      <trkpt lat="48.22381" lon="-3.12388">
        <ele>240.19999694824</ele>
        <time>2020-10-19T14:18:10.000Z</time>
      </trkpt>
      <trkpt lat="48.22382" lon="-3.12386">
        <ele>240</ele>
        <time>2020-10-19T14:18:11.000Z</time>
      </trkpt>
      <trkpt lat="48.22382" lon="-3.12385">
        <ele>239.80000305176</ele>
        <time>2020-10-19T14:18:12.000Z</time>
      </trkpt>
      <trkpt lat="48.22382" lon="-3.12383">
        <ele>239.80000305176</ele>
        <time>2020-10-19T14:18:13.000Z</time>
      </trkpt>
      <trkpt lat="48.22382" lon="-3.12381">
        <ele>239.60000610352</ele>
        <time>2020-10-19T14:18:14.000Z</time>
      </trkpt>
      <trkpt lat="48.22382" lon="-3.1238">
        <ele>239.39999389648</ele>
        <time>2020-10-19T14:18:15.000Z</time>
      </trkpt>
      <trkpt lat="48.22383" lon="-3.12378">
        <ele>239.39999389648</ele>
        <time>2020-10-19T14:18:16.000Z</time>
      </trkpt>
      <trkpt lat="48.22383" lon="-3.12377">
        <ele>239.19999694824</ele>
        <time>2020-10-19T14:18:17.000Z</time>
      </trkpt>
      <trkpt lat="48.22384" lon="-3.12375">
        <ele>239.19999694824</ele>
        <time>2020-10-19T14:18:18.000Z</time>
      </trkpt>
      <trkpt lat="48.22385" lon="-3.12375">
        <ele>239.19999694824</ele>
        <time>2020-10-19T14:18:19.000Z</time>
      </trkpt>
      <trkpt lat="48.22386" lon="-3.12374">
        <ele>239.19999694824</ele>
        <time>2020-10-19T14:18:20.000Z</time>
      </trkpt>
      <trkpt lat="48.22386" lon="-3.12373">
        <ele>239.19999694824</ele>
        <time>2020-10-19T14:18:21.000Z</time>
      </trkpt>
      <trkpt lat="48.22387" lon="-3.12372">
        <ele>239.19999694824</ele>
        <time>2020-10-19T14:18:22.000Z</time>
      </trkpt>
      <trkpt lat="48.22387" lon="-3.12371">
        <ele>239.19999694824</ele>
        <time>2020-10-19T14:18:23.000Z</time>
      </trkpt>
      <trkpt lat="48.22387" lon="-3.12369">
        <ele>239</ele>
        <time>2020-10-19T14:18:24.000Z</time>
      </trkpt>
      <trkpt lat="48.22387" lon="-3.12368">
        <ele>238.80000305176</ele>
        <time>2020-10-19T14:18:25.000Z</time>
      </trkpt>
      <trkpt lat="48.22388" lon="-3.12366">
        <ele>238.60000610352</ele>
        <time>2020-10-19T14:18:26.000Z</time>
      </trkpt>
      <trkpt lat="48.22388" lon="-3.12364">
        <ele>238.60000610352</ele>
        <time>2020-10-19T14:18:27.000Z</time>
      </trkpt>
      <trkpt lat="48.22388" lon="-3.12363">
        <ele>238.39999389648</ele>
        <time>2020-10-19T14:18:28.000Z</time>
      </trkpt>
      <trkpt lat="48.22389" lon="-3.12361">
        <ele>238.39999389648</ele>
        <time>2020-10-19T14:18:29.000Z</time>
      </trkpt>
      <trkpt lat="48.22389" lon="-3.12359">
        <ele>238.19999694824</ele>
        <time>2020-10-19T14:18:30.000Z</time>
      </trkpt>
      <trkpt lat="48.2239" lon="-3.12357">
        <ele>238.19999694824</ele>
        <time>2020-10-19T14:18:31.000Z</time>
      </trkpt>
      <trkpt lat="48.2239" lon="-3.12356">
        <ele>238</ele>
        <time>2020-10-19T14:18:32.000Z</time>
      </trkpt>
      <trkpt lat="48.22391" lon="-3.12354">
        <ele>237.80000305176</ele>
        <time>2020-10-19T14:18:33.000Z</time>
      </trkpt>
      <trkpt lat="48.22391" lon="-3.12352">
        <ele>237.80000305176</ele>
        <time>2020-10-19T14:18:34.000Z</time>
      </trkpt>
      <trkpt lat="48.22391" lon="-3.12351">
        <ele>237.60000610352</ele>
        <time>2020-10-19T14:18:35.000Z</time>
      </trkpt>
      <trkpt lat="48.22392" lon="-3.12349">
        <ele>237.60000610352</ele>
        <time>2020-10-19T14:18:36.000Z</time>
      </trkpt>
      <trkpt lat="48.22392" lon="-3.12348">
        <ele>237.39999389648</ele>
        <time>2020-10-19T14:18:37.000Z</time>
      </trkpt>
      <trkpt lat="48.22392" lon="-3.12346">
        <ele>237.19999694824</ele>
        <time>2020-10-19T14:18:38.000Z</time>
      </trkpt>
      <trkpt lat="48.22392" lon="-3.12345">
        <ele>237.19999694824</ele>
        <time>2020-10-19T14:18:39.000Z</time>
      </trkpt>
      <trkpt lat="48.22392" lon="-3.12343">
        <ele>237</ele>
        <time>2020-10-19T14:18:40.000Z</time>
      </trkpt>
      <trkpt lat="48.22392" lon="-3.12342">
        <ele>236.80000305176</ele>
        <time>2020-10-19T14:18:41.000Z</time>
      </trkpt>
      <trkpt lat="48.22392" lon="-3.12341">
        <ele>236.80000305176</ele>
        <time>2020-10-19T14:18:42.000Z</time>
      </trkpt>
      <trkpt lat="48.22392" lon="-3.1234">
        <ele>236.60000610352</ele>
        <time>2020-10-19T14:18:43.000Z</time>
      </trkpt>
      <trkpt lat="48.22393" lon="-3.12339">
        <ele>236.60000610352</ele>
        <time>2020-10-19T14:18:44.000Z</time>
      </trkpt>
      <trkpt lat="48.22393" lon="-3.12338">
        <ele>236.60000610352</ele>
        <time>2020-10-19T14:18:45.000Z</time>
      </trkpt>
      <trkpt lat="48.22394" lon="-3.12337">
        <ele>236.60000610352</ele>
        <time>2020-10-19T14:18:46.000Z</time>
      </trkpt>
      <trkpt lat="48.22394" lon="-3.12336">
        <ele>236.60000610352</ele>
        <time>2020-10-19T14:18:47.000Z</time>
      </trkpt>
      <trkpt lat="48.22394" lon="-3.12336">
        <ele>236.60000610352</ele>
        <time>2020-10-19T14:18:48.000Z</time>
      </trkpt>
      <trkpt lat="48.22395" lon="-3.12334">
        <ele>236.39999389648</ele>
        <time>2020-10-19T14:18:49.000Z</time>
      </trkpt>
      <trkpt lat="48.22395" lon="-3.12333">
        <ele>236.39999389648</ele>
        <time>2020-10-19T14:18:50.000Z</time>
      </trkpt>
      <trkpt lat="48.22396" lon="-3.12333">
        <ele>236.39999389648</ele>
        <time>2020-10-19T14:18:51.000Z</time>
      </trkpt>
      <trkpt lat="48.22396" lon="-3.12332">
        <ele>236.39999389648</ele>
        <time>2020-10-19T14:18:52.000Z</time>
      </trkpt>
      <trkpt lat="48.22397" lon="-3.12332">
        <ele>236.39999389648</ele>
        <time>2020-10-19T14:18:53.000Z</time>
      </trkpt>
      <trkpt lat="48.22397" lon="-3.12331">
        <ele>236.39999389648</ele>
        <time>2020-10-19T14:18:54.000Z</time>
      </trkpt>
      <trkpt lat="48.22397" lon="-3.12331">
        <ele>236.39999389648</ele>
        <time>2020-10-19T14:18:55.000Z</time>
      </trkpt>
      <trkpt lat="48.22398" lon="-3.1233">
        <ele>236.39999389648</ele>
        <time>2020-10-19T14:18:56.000Z</time>
      </trkpt>
      <trkpt lat="48.22398" lon="-3.1233">
        <ele>236.39999389648</ele>
        <time>2020-10-19T14:18:57.000Z</time>
      </trkpt>
      <trkpt lat="48.22398" lon="-3.1233">
        <ele>236.39999389648</ele>
        <time>2020-10-19T14:18:58.000Z</time>
      </trkpt>
      <trkpt lat="48.22399" lon="-3.1233">
        <ele>236.39999389648</ele>
        <time>2020-10-19T14:18:59.000Z</time>
      </trkpt>
      <trkpt lat="48.22399" lon="-3.1233">
        <ele>236.39999389648</ele>
        <time>2020-10-19T14:19:00.000Z</time>
      </trkpt>
      <trkpt lat="48.22399" lon="-3.1233">
        <ele>236.39999389648</ele>
        <time>2020-10-19T14:19:01.000Z</time>
      </trkpt>
      <trkpt lat="48.22399" lon="-3.1233">
        <ele>236.39999389648</ele>
        <time>2020-10-19T14:19:02.000Z</time>
      </trkpt>
      <trkpt lat="48.22399" lon="-3.12329">
        <ele>236.39999389648</ele>
        <time>2020-10-19T14:19:03.000Z</time>
      </trkpt>
      <trkpt lat="48.22399" lon="-3.12328">
        <ele>236.19999694824</ele>
        <time>2020-10-19T14:19:04.000Z</time>
      </trkpt>
      <trkpt lat="48.22399" lon="-3.12326">
        <ele>236.19999694824</ele>
        <time>2020-10-19T14:19:05.000Z</time>
      </trkpt>
      <trkpt lat="48.22399" lon="-3.12325">
        <ele>236</ele>
        <time>2020-10-19T14:19:06.000Z</time>
      </trkpt>
      <trkpt lat="48.22399" lon="-3.12324">
        <ele>236</ele>
        <time>2020-10-19T14:19:07.000Z</time>
      </trkpt>
      <trkpt lat="48.22399" lon="-3.12323">
        <ele>235.80000305176</ele>
        <time>2020-10-19T14:19:08.000Z</time>
      </trkpt>
      <trkpt lat="48.224" lon="-3.12322">
        <ele>235.80000305176</ele>
        <time>2020-10-19T14:19:09.000Z</time>
      </trkpt>
      <trkpt lat="48.224" lon="-3.12321">
        <ele>235.80000305176</ele>
        <time>2020-10-19T14:19:10.000Z</time>
      </trkpt>
      <trkpt lat="48.224" lon="-3.1232">
        <ele>235.60000610352</ele>
        <time>2020-10-19T14:19:11.000Z</time>
      </trkpt>
      <trkpt lat="48.22401" lon="-3.12319">
        <ele>235.60000610352</ele>
        <time>2020-10-19T14:19:12.000Z</time>
      </trkpt>
      <trkpt lat="48.22401" lon="-3.12318">
        <ele>235.39999389648</ele>
        <time>2020-10-19T14:19:13.000Z</time>
      </trkpt>
      <trkpt lat="48.22401" lon="-3.12317">
        <ele>235.39999389648</ele>
        <time>2020-10-19T14:19:14.000Z</time>
      </trkpt>
      <trkpt lat="48.22401" lon="-3.12316">
        <ele>235.39999389648</ele>
        <time>2020-10-19T14:19:15.000Z</time>
      </trkpt>
      <trkpt lat="48.22401" lon="-3.12315">
        <ele>235.19999694824</ele>
        <time>2020-10-19T14:19:16.000Z</time>
      </trkpt>
      <trkpt lat="48.22401" lon="-3.12315">
        <ele>235.19999694824</ele>
        <time>2020-10-19T14:19:17.000Z</time>
      </trkpt>
      <trkpt lat="48.22401" lon="-3.12314">
        <ele>235.19999694824</ele>
        <time>2020-10-19T14:19:18.000Z</time>
      </trkpt>
      <trkpt lat="48.22401" lon="-3.12313">
        <ele>235</ele>
        <time>2020-10-19T14:19:19.000Z</time>
      </trkpt>
      <trkpt lat="48.22401" lon="-3.12311">
        <ele>235</ele>
        <time>2020-10-19T14:19:20.000Z</time>
      </trkpt>
      <trkpt lat="48.22402" lon="-3.1231">
        <ele>234.80000305176</ele>
        <time>2020-10-19T14:19:21.000Z</time>
      </trkpt>
      <trkpt lat="48.22402" lon="-3.12309">
        <ele>234.80000305176</ele>
        <time>2020-10-19T14:19:22.000Z</time>
      </trkpt>
      <trkpt lat="48.22402" lon="-3.12307">
        <ele>234.60000610352</ele>
        <time>2020-10-19T14:19:23.000Z</time>
      </trkpt>
      <trkpt lat="48.22402" lon="-3.12305">
        <ele>234.39999389648</ele>
        <time>2020-10-19T14:19:24.000Z</time>
      </trkpt>
      <trkpt lat="48.22403" lon="-3.12304">
        <ele>234.39999389648</ele>
        <time>2020-10-19T14:19:25.000Z</time>
      </trkpt>
      <trkpt lat="48.22403" lon="-3.12303">
        <ele>234.39999389648</ele>
        <time>2020-10-19T14:19:26.000Z</time>
      </trkpt>
      <trkpt lat="48.22403" lon="-3.12302">
        <ele>234.19999694824</ele>
        <time>2020-10-19T14:19:27.000Z</time>
      </trkpt>
      <trkpt lat="48.22404" lon="-3.12301">
        <ele>234.19999694824</ele>
        <time>2020-10-19T14:19:28.000Z</time>
      </trkpt>
      <trkpt lat="48.22404" lon="-3.12301">
        <ele>234.19999694824</ele>
        <time>2020-10-19T14:19:29.000Z</time>
      </trkpt>
      <trkpt lat="48.22404" lon="-3.123">
        <ele>234.19999694824</ele>
        <time>2020-10-19T14:19:30.000Z</time>
      </trkpt>
      <trkpt lat="48.22404" lon="-3.123">
        <ele>234.19999694824</ele>
        <time>2020-10-19T14:19:31.000Z</time>
      </trkpt>
      <trkpt lat="48.22404" lon="-3.123">
        <ele>234.19999694824</ele>
        <time>2020-10-19T14:19:32.000Z</time>
      </trkpt>
      <trkpt lat="48.22404" lon="-3.123">
        <ele>234.19999694824</ele>
        <time>2020-10-19T14:19:33.000Z</time>
      </trkpt>
      <trkpt lat="48.22404" lon="-3.123">
        <ele>234.19999694824</ele>
        <time>2020-10-19T14:19:34.000Z</time>
      </trkpt>
      <trkpt lat="48.22404" lon="-3.123">
        <ele>234.19999694824</ele>
        <time>2020-10-19T14:19:35.000Z</time>
      </trkpt>
      <trkpt lat="48.22404" lon="-3.123">
        <ele>234.19999694824</ele>
        <time>2020-10-19T14:19:36.000Z</time>
      </trkpt>
      <trkpt lat="48.22404" lon="-3.123">
        <ele>234.19999694824</ele>
        <time>2020-10-19T14:19:37.000Z</time>
      </trkpt>
      <trkpt lat="48.22404" lon="-3.123">
        <ele>234.19999694824</ele>
        <time>2020-10-19T14:19:38.000Z</time>
      </trkpt>
      <trkpt lat="48.22404" lon="-3.123">
        <ele>234.19999694824</ele>
        <time>2020-10-19T14:19:39.000Z</time>
      </trkpt>
      <trkpt lat="48.22404" lon="-3.123">
        <ele>234.19999694824</ele>
        <time>2020-10-19T14:19:40.000Z</time>
      </trkpt>
      <trkpt lat="48.22404" lon="-3.123">
        <ele>234.19999694824</ele>
        <time>2020-10-19T14:19:41.000Z</time>
      </trkpt>
      <trkpt lat="48.22404" lon="-3.123">
        <ele>234.19999694824</ele>
        <time>2020-10-19T14:19:42.000Z</time>
      </trkpt>
      <trkpt lat="48.22405" lon="-3.123">
        <ele>234.19999694824</ele>
        <time>2020-10-19T14:19:43.000Z</time>
      </trkpt>
      <trkpt lat="48.22405" lon="-3.123">
        <ele>234.19999694824</ele>
        <time>2020-10-19T14:19:44.000Z</time>
      </trkpt>
      <trkpt lat="48.22405" lon="-3.123">
        <ele>234.19999694824</ele>
        <time>2020-10-19T14:19:45.000Z</time>
      </trkpt>
      <trkpt lat="48.22405" lon="-3.12299">
        <ele>234.19999694824</ele>
        <time>2020-10-19T14:19:46.000Z</time>
      </trkpt>
      <trkpt lat="48.22406" lon="-3.12299">
        <ele>234.19999694824</ele>
        <time>2020-10-19T14:19:47.000Z</time>
      </trkpt>
      <trkpt lat="48.22406" lon="-3.12298">
        <ele>234.19999694824</ele>
        <time>2020-10-19T14:19:48.000Z</time>
      </trkpt>
      <trkpt lat="48.22406" lon="-3.12297">
        <ele>234</ele>
        <time>2020-10-19T14:19:49.000Z</time>
      </trkpt>
      <trkpt lat="48.22406" lon="-3.12297">
        <ele>234</ele>
        <time>2020-10-19T14:19:50.000Z</time>
      </trkpt>
      <trkpt lat="48.22406" lon="-3.12296">
        <ele>234</ele>
        <time>2020-10-19T14:19:51.000Z</time>
      </trkpt>
      <trkpt lat="48.22407" lon="-3.12295">
        <ele>234</ele>
        <time>2020-10-19T14:19:52.000Z</time>
      </trkpt>
      <trkpt lat="48.22407" lon="-3.12295">
        <ele>234</ele>
        <time>2020-10-19T14:19:53.000Z</time>
      </trkpt>
      <trkpt lat="48.22407" lon="-3.12294">
        <ele>234</ele>
        <time>2020-10-19T14:19:54.000Z</time>
      </trkpt>
      <trkpt lat="48.22408" lon="-3.12294">
        <ele>234</ele>
        <time>2020-10-19T14:19:55.000Z</time>
      </trkpt>
      <trkpt lat="48.22408" lon="-3.12293">
        <ele>234</ele>
        <time>2020-10-19T14:19:56.000Z</time>
      </trkpt>
      <trkpt lat="48.22408" lon="-3.12293">
        <ele>234</ele>
        <time>2020-10-19T14:19:57.000Z</time>
      </trkpt>
      <trkpt lat="48.22409" lon="-3.12293">
        <ele>234</ele>
        <time>2020-10-19T14:19:58.000Z</time>
      </trkpt>
      <trkpt lat="48.22409" lon="-3.12293">
        <ele>234</ele>
        <time>2020-10-19T14:19:59.000Z</time>
      </trkpt>
      <trkpt lat="48.22409" lon="-3.12293">
        <ele>234</ele>
        <time>2020-10-19T14:20:00.000Z</time>
      </trkpt>
      <trkpt lat="48.2241" lon="-3.12292">
        <ele>234</ele>
        <time>2020-10-19T14:20:01.000Z</time>
      </trkpt>
      <trkpt lat="48.2241" lon="-3.12292">
        <ele>234</ele>
        <time>2020-10-19T14:20:02.000Z</time>
      </trkpt>
      <trkpt lat="48.2241" lon="-3.12291">
        <ele>234</ele>
        <time>2020-10-19T14:20:03.000Z</time>
      </trkpt>
      <trkpt lat="48.22411" lon="-3.12291">
        <ele>234</ele>
        <time>2020-10-19T14:20:04.000Z</time>
      </trkpt>
      <trkpt lat="48.22412" lon="-3.12291">
        <ele>234</ele>
        <time>2020-10-19T14:20:05.000Z</time>
      </trkpt>
      <trkpt lat="48.22412" lon="-3.1229">
        <ele>234</ele>
        <time>2020-10-19T14:20:06.000Z</time>
      </trkpt>
      <trkpt lat="48.22412" lon="-3.12289">
        <ele>234</ele>
        <time>2020-10-19T14:20:07.000Z</time>
      </trkpt>
      <trkpt lat="48.22413" lon="-3.12288">
        <ele>234</ele>
        <time>2020-10-19T14:20:08.000Z</time>
      </trkpt>
      <trkpt lat="48.22413" lon="-3.12288">
        <ele>234</ele>
        <time>2020-10-19T14:20:09.000Z</time>
      </trkpt>
      <trkpt lat="48.22413" lon="-3.12287">
        <ele>233.80000305176</ele>
        <time>2020-10-19T14:20:10.000Z</time>
      </trkpt>
      <trkpt lat="48.22414" lon="-3.12286">
        <ele>233.80000305176</ele>
        <time>2020-10-19T14:20:11.000Z</time>
      </trkpt>
      <trkpt lat="48.22414" lon="-3.12286">
        <ele>233.80000305176</ele>
        <time>2020-10-19T14:20:12.000Z</time>
      </trkpt>
      <trkpt lat="48.22415" lon="-3.12285">
        <ele>233.80000305176</ele>
        <time>2020-10-19T14:20:13.000Z</time>
      </trkpt>
      <trkpt lat="48.22416" lon="-3.12285">
        <ele>234</ele>
        <time>2020-10-19T14:20:14.000Z</time>
      </trkpt>
      <trkpt lat="48.22417" lon="-3.12285">
        <ele>234</ele>
        <time>2020-10-19T14:20:15.000Z</time>
      </trkpt>
      <trkpt lat="48.22418" lon="-3.12284">
        <ele>234.19999694824</ele>
        <time>2020-10-19T14:20:16.000Z</time>
      </trkpt>
      <trkpt lat="48.22419" lon="-3.12284">
        <ele>234.19999694824</ele>
        <time>2020-10-19T14:20:17.000Z</time>
      </trkpt>
      <trkpt lat="48.2242" lon="-3.12283">
        <ele>234.19999694824</ele>
        <time>2020-10-19T14:20:18.000Z</time>
      </trkpt>
      <trkpt lat="48.22421" lon="-3.12282">
        <ele>234.19999694824</ele>
        <time>2020-10-19T14:20:19.000Z</time>
      </trkpt>
      <trkpt lat="48.22421" lon="-3.12281">
        <ele>234.19999694824</ele>
        <time>2020-10-19T14:20:20.000Z</time>
      </trkpt>
      <trkpt lat="48.22422" lon="-3.1228">
        <ele>234.19999694824</ele>
        <time>2020-10-19T14:20:21.000Z</time>
      </trkpt>
      <trkpt lat="48.22423" lon="-3.12279">
        <ele>234.19999694824</ele>
        <time>2020-10-19T14:20:22.000Z</time>
      </trkpt>
      <trkpt lat="48.22423" lon="-3.12277">
        <ele>234</ele>
        <time>2020-10-19T14:20:23.000Z</time>
      </trkpt>
      <trkpt lat="48.22424" lon="-3.12276">
        <ele>234</ele>
        <time>2020-10-19T14:20:24.000Z</time>
      </trkpt>
      <trkpt lat="48.22424" lon="-3.12274">
        <ele>233.80000305176</ele>
        <time>2020-10-19T14:20:25.000Z</time>
      </trkpt>
      <trkpt lat="48.22425" lon="-3.12273">
        <ele>233.80000305176</ele>
        <time>2020-10-19T14:20:26.000Z</time>
      </trkpt>
      <trkpt lat="48.22425" lon="-3.12271">
        <ele>233.60000610352</ele>
        <time>2020-10-19T14:20:27.000Z</time>
      </trkpt>
      <trkpt lat="48.22425" lon="-3.12269">
        <ele>233.60000610352</ele>
        <time>2020-10-19T14:20:28.000Z</time>
      </trkpt>
      <trkpt lat="48.22426" lon="-3.12268">
        <ele>233.39999389648</ele>
        <time>2020-10-19T14:20:29.000Z</time>
      </trkpt>
      <trkpt lat="48.22426" lon="-3.12266">
        <ele>233.19999694824</ele>
        <time>2020-10-19T14:20:30.000Z</time>
      </trkpt>
      <trkpt lat="48.22427" lon="-3.12264">
        <ele>233.19999694824</ele>
        <time>2020-10-19T14:20:31.000Z</time>
      </trkpt>
      <trkpt lat="48.22427" lon="-3.12262">
        <ele>233</ele>
        <time>2020-10-19T14:20:32.000Z</time>
      </trkpt>
      <trkpt lat="48.22428" lon="-3.12261">
        <ele>233</ele>
        <time>2020-10-19T14:20:33.000Z</time>
      </trkpt>
      <trkpt lat="48.22428" lon="-3.12259">
        <ele>232.80000305176</ele>
        <time>2020-10-19T14:20:34.000Z</time>
      </trkpt>
      <trkpt lat="48.22429" lon="-3.12258">
        <ele>232.80000305176</ele>
        <time>2020-10-19T14:20:35.000Z</time>
      </trkpt>
      <trkpt lat="48.22429" lon="-3.12256">
        <ele>232.60000610352</ele>
        <time>2020-10-19T14:20:36.000Z</time>
      </trkpt>
      <trkpt lat="48.2243" lon="-3.12254">
        <ele>232.39999389648</ele>
        <time>2020-10-19T14:20:37.000Z</time>
      </trkpt>
      <trkpt lat="48.2243" lon="-3.12253">
        <ele>232.19999694824</ele>
        <time>2020-10-19T14:20:38.000Z</time>
      </trkpt>
      <trkpt lat="48.2243" lon="-3.12249">
        <ele>231.80000305176</ele>
        <time>2020-10-19T14:20:39.000Z</time>
      </trkpt>
      <trkpt lat="48.2243" lon="-3.12249">
        <ele>231.80000305176</ele>
        <time>2020-10-19T14:20:40.000Z</time>
      </trkpt>
      <trkpt lat="48.2243" lon="-3.12247">
        <ele>231.60000610352</ele>
        <time>2020-10-19T14:20:41.000Z</time>
      </trkpt>
      <trkpt lat="48.2243" lon="-3.12246">
        <ele>231.60000610352</ele>
        <time>2020-10-19T14:20:42.000Z</time>
      </trkpt>
      <trkpt lat="48.22431" lon="-3.12244">
        <ele>231.39999389648</ele>
        <time>2020-10-19T14:20:43.000Z</time>
      </trkpt>
      <trkpt lat="48.22431" lon="-3.12242">
        <ele>231.19999694824</ele>
        <time>2020-10-19T14:20:44.000Z</time>
      </trkpt>
      <trkpt lat="48.22431" lon="-3.1224">
        <ele>231</ele>
        <time>2020-10-19T14:20:45.000Z</time>
      </trkpt>
      <trkpt lat="48.22431" lon="-3.12238">
        <ele>230.80000305176</ele>
        <time>2020-10-19T14:20:46.000Z</time>
      </trkpt>
      <trkpt lat="48.22431" lon="-3.12237">
        <ele>230.60000610352</ele>
        <time>2020-10-19T14:20:47.000Z</time>
      </trkpt>
      <trkpt lat="48.22431" lon="-3.12235">
        <ele>230.39999389648</ele>
        <time>2020-10-19T14:20:48.000Z</time>
      </trkpt>
      <trkpt lat="48.22431" lon="-3.12233">
        <ele>230.19999694824</ele>
        <time>2020-10-19T14:20:49.000Z</time>
      </trkpt>
      <trkpt lat="48.22431" lon="-3.12231">
        <ele>230</ele>
        <time>2020-10-19T14:20:50.000Z</time>
      </trkpt>
      <trkpt lat="48.22431" lon="-3.1223">
        <ele>229.80000305176</ele>
        <time>2020-10-19T14:20:51.000Z</time>
      </trkpt>
      <trkpt lat="48.22431" lon="-3.12228">
        <ele>229.60000610352</ele>
        <time>2020-10-19T14:20:52.000Z</time>
      </trkpt>
      <trkpt lat="48.22431" lon="-3.12226">
        <ele>229.39999389648</ele>
        <time>2020-10-19T14:20:53.000Z</time>
      </trkpt>
      <trkpt lat="48.22431" lon="-3.12225">
        <ele>229.19999694824</ele>
        <time>2020-10-19T14:20:54.000Z</time>
      </trkpt>
      <trkpt lat="48.22431" lon="-3.12223">
        <ele>229.19999694824</ele>
        <time>2020-10-19T14:20:55.000Z</time>
      </trkpt>
      <trkpt lat="48.22431" lon="-3.12221">
        <ele>229</ele>
        <time>2020-10-19T14:20:56.000Z</time>
      </trkpt>
      <trkpt lat="48.22431" lon="-3.1222">
        <ele>228.80000305176</ele>
        <time>2020-10-19T14:20:57.000Z</time>
      </trkpt>
      <trkpt lat="48.22431" lon="-3.12218">
        <ele>228.60000610352</ele>
        <time>2020-10-19T14:20:58.000Z</time>
      </trkpt>
      <trkpt lat="48.22431" lon="-3.12216">
        <ele>228.39999389648</ele>
        <time>2020-10-19T14:20:59.000Z</time>
      </trkpt>
      <trkpt lat="48.22431" lon="-3.12215">
        <ele>228.19999694824</ele>
        <time>2020-10-19T14:21:00.000Z</time>
      </trkpt>
      <trkpt lat="48.22431" lon="-3.12214">
        <ele>228.19999694824</ele>
        <time>2020-10-19T14:21:01.000Z</time>
      </trkpt>
      <trkpt lat="48.22431" lon="-3.12212">
        <ele>228</ele>
        <time>2020-10-19T14:21:02.000Z</time>
      </trkpt>
      <trkpt lat="48.22431" lon="-3.12211">
        <ele>227.80000305176</ele>
        <time>2020-10-19T14:21:03.000Z</time>
      </trkpt>
      <trkpt lat="48.22431" lon="-3.1221">
        <ele>227.80000305176</ele>
        <time>2020-10-19T14:21:04.000Z</time>
      </trkpt>
      <trkpt lat="48.22431" lon="-3.12209">
        <ele>227.60000610352</ele>
        <time>2020-10-19T14:21:05.000Z</time>
      </trkpt>
      <trkpt lat="48.22431" lon="-3.12208">
        <ele>227.39999389648</ele>
        <time>2020-10-19T14:21:06.000Z</time>
      </trkpt>
      <trkpt lat="48.22431" lon="-3.12207">
        <ele>227.39999389648</ele>
        <time>2020-10-19T14:21:07.000Z</time>
      </trkpt>
      <trkpt lat="48.22431" lon="-3.12206">
        <ele>227.19999694824</ele>
        <time>2020-10-19T14:21:08.000Z</time>
      </trkpt>
      <trkpt lat="48.22431" lon="-3.12205">
        <ele>227.19999694824</ele>
        <time>2020-10-19T14:21:09.000Z</time>
      </trkpt>
      <trkpt lat="48.22431" lon="-3.12204">
        <ele>227</ele>
        <time>2020-10-19T14:21:10.000Z</time>
      </trkpt>
      <trkpt lat="48.22431" lon="-3.12203">
        <ele>227</ele>
        <time>2020-10-19T14:21:11.000Z</time>
      </trkpt>
      <trkpt lat="48.22431" lon="-3.12202">
        <ele>226.80000305176</ele>
        <time>2020-10-19T14:21:12.000Z</time>
      </trkpt>
      <trkpt lat="48.22431" lon="-3.122">
        <ele>226.60000610352</ele>
        <time>2020-10-19T14:21:13.000Z</time>
      </trkpt>
      <trkpt lat="48.22431" lon="-3.122">
        <ele>226.60000610352</ele>
        <time>2020-10-19T14:21:14.000Z</time>
      </trkpt>
      <trkpt lat="48.22432" lon="-3.12199">
        <ele>226.60000610352</ele>
        <time>2020-10-19T14:21:15.000Z</time>
      </trkpt>
      <trkpt lat="48.22433" lon="-3.12199">
        <ele>226.60000610352</ele>
        <time>2020-10-19T14:21:16.000Z</time>
      </trkpt>
      <trkpt lat="48.22434" lon="-3.12198">
        <ele>226.60000610352</ele>
        <time>2020-10-19T14:21:17.000Z</time>
      </trkpt>
      <trkpt lat="48.22434" lon="-3.12198">
        <ele>226.60000610352</ele>
        <time>2020-10-19T14:21:18.000Z</time>
      </trkpt>
      <trkpt lat="48.22435" lon="-3.12198">
        <ele>226.80000305176</ele>
        <time>2020-10-19T14:21:19.000Z</time>
      </trkpt>
      <trkpt lat="48.22435" lon="-3.12198">
        <ele>226.80000305176</ele>
        <time>2020-10-19T14:21:20.000Z</time>
      </trkpt>
      <trkpt lat="48.22435" lon="-3.12199">
        <ele>226.80000305176</ele>
        <time>2020-10-19T14:21:21.000Z</time>
      </trkpt>
      <trkpt lat="48.22435" lon="-3.12199">
        <ele>226.80000305176</ele>
        <time>2020-10-19T14:21:22.000Z</time>
      </trkpt>
      <trkpt lat="48.22435" lon="-3.12199">
        <ele>226.80000305176</ele>
        <time>2020-10-19T14:21:23.000Z</time>
      </trkpt>
      <trkpt lat="48.22435" lon="-3.12199">
        <ele>226.80000305176</ele>
        <time>2020-10-19T14:21:24.000Z</time>
      </trkpt>
      <trkpt lat="48.22435" lon="-3.12199">
        <ele>226.80000305176</ele>
        <time>2020-10-19T14:21:25.000Z</time>
      </trkpt>
      <trkpt lat="48.22435" lon="-3.12199">
        <ele>226.80000305176</ele>
        <time>2020-10-19T14:21:26.000Z</time>
      </trkpt>
      <trkpt lat="48.22435" lon="-3.12199">
        <ele>226.80000305176</ele>
        <time>2020-10-19T14:21:27.000Z</time>
      </trkpt>
      <trkpt lat="48.22435" lon="-3.122">
        <ele>227</ele>
        <time>2020-10-19T14:21:28.000Z</time>
      </trkpt>
      <trkpt lat="48.22435" lon="-3.122">
        <ele>227</ele>
        <time>2020-10-19T14:21:29.000Z</time>
      </trkpt>
      <trkpt lat="48.22435" lon="-3.122">
        <ele>226.80000305176</ele>
        <time>2020-10-19T14:21:30.000Z</time>
      </trkpt>
      <trkpt lat="48.22435" lon="-3.122">
        <ele>227</ele>
        <time>2020-10-19T14:21:31.000Z</time>
      </trkpt>
      <trkpt lat="48.22435" lon="-3.122">
        <ele>227</ele>
        <time>2020-10-19T14:21:32.000Z</time>
      </trkpt>
      <trkpt lat="48.22435" lon="-3.12199">
        <ele>226.80000305176</ele>
        <time>2020-10-19T14:21:33.000Z</time>
      </trkpt>
      <trkpt lat="48.22435" lon="-3.12199">
        <ele>226.80000305176</ele>
        <time>2020-10-19T14:21:34.000Z</time>
      </trkpt>
      <trkpt lat="48.22435" lon="-3.12199">
        <ele>226.80000305176</ele>
        <time>2020-10-19T14:21:35.000Z</time>
      </trkpt>
      <trkpt lat="48.22436" lon="-3.12198">
        <ele>226.80000305176</ele>
        <time>2020-10-19T14:21:36.000Z</time>
      </trkpt>
      <trkpt lat="48.22435" lon="-3.12198">
        <ele>226.80000305176</ele>
        <time>2020-10-19T14:21:37.000Z</time>
      </trkpt>
      <trkpt lat="48.22435" lon="-3.12197">
        <ele>226.60000610352</ele>
        <time>2020-10-19T14:21:38.000Z</time>
      </trkpt>
      <trkpt lat="48.22435" lon="-3.12197">
        <ele>226.60000610352</ele>
        <time>2020-10-19T14:21:39.000Z</time>
      </trkpt>
      <trkpt lat="48.22435" lon="-3.12197">
        <ele>226.60000610352</ele>
        <time>2020-10-19T14:21:40.000Z</time>
      </trkpt>
      <trkpt lat="48.22435" lon="-3.12196">
        <ele>226.39999389648</ele>
        <time>2020-10-19T14:21:41.000Z</time>
      </trkpt>
      <trkpt lat="48.22435" lon="-3.12195">
        <ele>226.39999389648</ele>
        <time>2020-10-19T14:21:42.000Z</time>
      </trkpt>
      <trkpt lat="48.22435" lon="-3.12193">
        <ele>226.19999694824</ele>
        <time>2020-10-19T14:21:43.000Z</time>
      </trkpt>
      <trkpt lat="48.22435" lon="-3.12192">
        <ele>226</ele>
        <time>2020-10-19T14:21:44.000Z</time>
      </trkpt>
      <trkpt lat="48.22435" lon="-3.1219">
        <ele>225.80000305176</ele>
        <time>2020-10-19T14:21:45.000Z</time>
      </trkpt>
      <trkpt lat="48.22435" lon="-3.12189">
        <ele>225.80000305176</ele>
        <time>2020-10-19T14:21:46.000Z</time>
      </trkpt>
      <trkpt lat="48.22434" lon="-3.12187">
        <ele>225.60000610352</ele>
        <time>2020-10-19T14:21:47.000Z</time>
      </trkpt>
      <trkpt lat="48.22434" lon="-3.12186">
        <ele>225.39999389648</ele>
        <time>2020-10-19T14:21:48.000Z</time>
      </trkpt>
      <trkpt lat="48.22434" lon="-3.12184">
        <ele>225.19999694824</ele>
        <time>2020-10-19T14:21:49.000Z</time>
      </trkpt>
      <trkpt lat="48.22433" lon="-3.12183">
        <ele>225</ele>
        <time>2020-10-19T14:21:50.000Z</time>
      </trkpt>
      <trkpt lat="48.22433" lon="-3.12182">
        <ele>224.80000305176</ele>
        <time>2020-10-19T14:21:51.000Z</time>
      </trkpt>
      <trkpt lat="48.22433" lon="-3.12181">
        <ele>224.80000305176</ele>
        <time>2020-10-19T14:21:52.000Z</time>
      </trkpt>
      <trkpt lat="48.22433" lon="-3.1218">
        <ele>224.60000610352</ele>
        <time>2020-10-19T14:21:53.000Z</time>
      </trkpt>
      <trkpt lat="48.22433" lon="-3.12179">
        <ele>224.39999389648</ele>
        <time>2020-10-19T14:21:54.000Z</time>
      </trkpt>
      <trkpt lat="48.22432" lon="-3.12177">
        <ele>224.19999694824</ele>
        <time>2020-10-19T14:21:55.000Z</time>
      </trkpt>
      <trkpt lat="48.22432" lon="-3.12175">
        <ele>224.19999694824</ele>
        <time>2020-10-19T14:21:56.000Z</time>
      </trkpt>
      <trkpt lat="48.22432" lon="-3.12174">
        <ele>224.19999694824</ele>
        <time>2020-10-19T14:21:57.000Z</time>
      </trkpt>
      <trkpt lat="48.22432" lon="-3.12173">
        <ele>224.19999694824</ele>
        <time>2020-10-19T14:21:58.000Z</time>
      </trkpt>
      <trkpt lat="48.22432" lon="-3.12172">
        <ele>224</ele>
        <time>2020-10-19T14:21:59.000Z</time>
      </trkpt>
      <trkpt lat="48.22432" lon="-3.1217">
        <ele>224</ele>
        <time>2020-10-19T14:22:00.000Z</time>
      </trkpt>
      <trkpt lat="48.22432" lon="-3.1217">
        <ele>224</ele>
        <time>2020-10-19T14:22:01.000Z</time>
      </trkpt>
      <trkpt lat="48.22432" lon="-3.12169">
        <ele>224</ele>
        <time>2020-10-19T14:22:02.000Z</time>
      </trkpt>
      <trkpt lat="48.22433" lon="-3.12168">
        <ele>224</ele>
        <time>2020-10-19T14:22:03.000Z</time>
      </trkpt>
      <trkpt lat="48.22433" lon="-3.12166">
        <ele>224</ele>
        <time>2020-10-19T14:22:04.000Z</time>
      </trkpt>
      <trkpt lat="48.22433" lon="-3.12165">
        <ele>224</ele>
        <time>2020-10-19T14:22:05.000Z</time>
      </trkpt>
      <trkpt lat="48.22433" lon="-3.12165">
        <ele>224</ele>
        <time>2020-10-19T14:22:06.000Z</time>
      </trkpt>
      <trkpt lat="48.22433" lon="-3.12165">
        <ele>224</ele>
        <time>2020-10-19T14:22:07.000Z</time>
      </trkpt>
      <trkpt lat="48.22433" lon="-3.12164">
        <ele>224</ele>
        <time>2020-10-19T14:22:08.000Z</time>
      </trkpt>
      <trkpt lat="48.22433" lon="-3.12163">
        <ele>223.80000305176</ele>
        <time>2020-10-19T14:22:09.000Z</time>
      </trkpt>
      <trkpt lat="48.22433" lon="-3.12162">
        <ele>223.80000305176</ele>
        <time>2020-10-19T14:22:10.000Z</time>
      </trkpt>
      <trkpt lat="48.22433" lon="-3.12161">
        <ele>223.80000305176</ele>
        <time>2020-10-19T14:22:11.000Z</time>
      </trkpt>
      <trkpt lat="48.22433" lon="-3.1216">
        <ele>223.80000305176</ele>
        <time>2020-10-19T14:22:12.000Z</time>
      </trkpt>
      <trkpt lat="48.22433" lon="-3.12159">
        <ele>223.80000305176</ele>
        <time>2020-10-19T14:22:13.000Z</time>
      </trkpt>
      <trkpt lat="48.22433" lon="-3.12158">
        <ele>223.60000610352</ele>
        <time>2020-10-19T14:22:14.000Z</time>
      </trkpt>
      <trkpt lat="48.22433" lon="-3.12157">
        <ele>223.60000610352</ele>
        <time>2020-10-19T14:22:15.000Z</time>
      </trkpt>
      <trkpt lat="48.22433" lon="-3.12156">
        <ele>223.60000610352</ele>
        <time>2020-10-19T14:22:16.000Z</time>
      </trkpt>
      <trkpt lat="48.22432" lon="-3.12156">
        <ele>223.60000610352</ele>
        <time>2020-10-19T14:22:17.000Z</time>
      </trkpt>
      <trkpt lat="48.22432" lon="-3.12155">
        <ele>223.39999389648</ele>
        <time>2020-10-19T14:22:18.000Z</time>
      </trkpt>
      <trkpt lat="48.22432" lon="-3.12154">
        <ele>223.39999389648</ele>
        <time>2020-10-19T14:22:19.000Z</time>
      </trkpt>
      <trkpt lat="48.22432" lon="-3.12153">
        <ele>223.39999389648</ele>
        <time>2020-10-19T14:22:20.000Z</time>
      </trkpt>
      <trkpt lat="48.22432" lon="-3.12152">
        <ele>223.39999389648</ele>
        <time>2020-10-19T14:22:21.000Z</time>
      </trkpt>
      <trkpt lat="48.22431" lon="-3.1215">
        <ele>223.19999694824</ele>
        <time>2020-10-19T14:22:22.000Z</time>
      </trkpt>
      <trkpt lat="48.22431" lon="-3.12148">
        <ele>223.19999694824</ele>
        <time>2020-10-19T14:22:23.000Z</time>
      </trkpt>
      <trkpt lat="48.22431" lon="-3.12147">
        <ele>223.19999694824</ele>
        <time>2020-10-19T14:22:24.000Z</time>
      </trkpt>
      <trkpt lat="48.22431" lon="-3.12145">
        <ele>223</ele>
        <time>2020-10-19T14:22:25.000Z</time>
      </trkpt>
      <trkpt lat="48.22431" lon="-3.12144">
        <ele>223</ele>
        <time>2020-10-19T14:22:26.000Z</time>
      </trkpt>
      <trkpt lat="48.22431" lon="-3.12143">
        <ele>223</ele>
        <time>2020-10-19T14:22:27.000Z</time>
      </trkpt>
      <trkpt lat="48.22432" lon="-3.12141">
        <ele>223</ele>
        <time>2020-10-19T14:22:28.000Z</time>
      </trkpt>
      <trkpt lat="48.22432" lon="-3.1214">
        <ele>223</ele>
        <time>2020-10-19T14:22:29.000Z</time>
      </trkpt>
      <trkpt lat="48.22432" lon="-3.12139">
        <ele>223</ele>
        <time>2020-10-19T14:22:30.000Z</time>
      </trkpt>
      <trkpt lat="48.22433" lon="-3.12138">
        <ele>223</ele>
        <time>2020-10-19T14:22:31.000Z</time>
      </trkpt>
      <trkpt lat="48.22433" lon="-3.12137">
        <ele>223</ele>
        <time>2020-10-19T14:22:32.000Z</time>
      </trkpt>
      <trkpt lat="48.22433" lon="-3.12136">
        <ele>223</ele>
        <time>2020-10-19T14:22:33.000Z</time>
      </trkpt>
      <trkpt lat="48.22434" lon="-3.12136">
        <ele>223</ele>
        <time>2020-10-19T14:22:34.000Z</time>
      </trkpt>
      <trkpt lat="48.22435" lon="-3.12135">
        <ele>223</ele>
        <time>2020-10-19T14:22:35.000Z</time>
      </trkpt>
      <trkpt lat="48.22435" lon="-3.12135">
        <ele>223</ele>
        <time>2020-10-19T14:22:36.000Z</time>
      </trkpt>
      <trkpt lat="48.22435" lon="-3.12136">
        <ele>223</ele>
        <time>2020-10-19T14:22:37.000Z</time>
      </trkpt>
      <trkpt lat="48.22435" lon="-3.12136">
        <ele>223</ele>
        <time>2020-10-19T14:22:38.000Z</time>
      </trkpt>
      <trkpt lat="48.22435" lon="-3.12136">
        <ele>223</ele>
        <time>2020-10-19T14:22:39.000Z</time>
      </trkpt>
      <trkpt lat="48.22436" lon="-3.12136">
        <ele>223</ele>
        <time>2020-10-19T14:22:40.000Z</time>
      </trkpt>
      <trkpt lat="48.22436" lon="-3.12136">
        <ele>223.19999694824</ele>
        <time>2020-10-19T14:22:41.000Z</time>
      </trkpt>
      <trkpt lat="48.22436" lon="-3.12136">
        <ele>223.19999694824</ele>
        <time>2020-10-19T14:22:42.000Z</time>
      </trkpt>
      <trkpt lat="48.22437" lon="-3.12136">
        <ele>223.19999694824</ele>
        <time>2020-10-19T14:22:43.000Z</time>
      </trkpt>
      <trkpt lat="48.22437" lon="-3.12136">
        <ele>223.19999694824</ele>
        <time>2020-10-19T14:22:44.000Z</time>
      </trkpt>
      <trkpt lat="48.22437" lon="-3.12135">
        <ele>223.19999694824</ele>
        <time>2020-10-19T14:22:45.000Z</time>
      </trkpt>
      <trkpt lat="48.22437" lon="-3.12135">
        <ele>223.19999694824</ele>
        <time>2020-10-19T14:22:46.000Z</time>
      </trkpt>
      <trkpt lat="48.22438" lon="-3.12134">
        <ele>223.19999694824</ele>
        <time>2020-10-19T14:22:47.000Z</time>
      </trkpt>
      <trkpt lat="48.22438" lon="-3.12134">
        <ele>223.19999694824</ele>
        <time>2020-10-19T14:22:48.000Z</time>
      </trkpt>
      <trkpt lat="48.22439" lon="-3.12133">
        <ele>223.19999694824</ele>
        <time>2020-10-19T14:22:49.000Z</time>
      </trkpt>
      <trkpt lat="48.22439" lon="-3.12133">
        <ele>223.19999694824</ele>
        <time>2020-10-19T14:22:50.000Z</time>
      </trkpt>
      <trkpt lat="48.2244" lon="-3.12132">
        <ele>223.19999694824</ele>
        <time>2020-10-19T14:22:51.000Z</time>
      </trkpt>
      <trkpt lat="48.2244" lon="-3.12131">
        <ele>223.19999694824</ele>
        <time>2020-10-19T14:22:52.000Z</time>
      </trkpt>
      <trkpt lat="48.2244" lon="-3.1213">
        <ele>223.39999389648</ele>
        <time>2020-10-19T14:22:53.000Z</time>
      </trkpt>
      <trkpt lat="48.22441" lon="-3.1213">
        <ele>223.39999389648</ele>
        <time>2020-10-19T14:22:54.000Z</time>
      </trkpt>
      <trkpt lat="48.22441" lon="-3.1213">
        <ele>223.39999389648</ele>
        <time>2020-10-19T14:22:55.000Z</time>
      </trkpt>
      <trkpt lat="48.22441" lon="-3.1213">
        <ele>223.39999389648</ele>
        <time>2020-10-19T14:22:56.000Z</time>
      </trkpt>
      <trkpt lat="48.22441" lon="-3.1213">
        <ele>223.39999389648</ele>
        <time>2020-10-19T14:22:57.000Z</time>
      </trkpt>
      <trkpt lat="48.22441" lon="-3.12129">
        <ele>223.39999389648</ele>
        <time>2020-10-19T14:22:58.000Z</time>
      </trkpt>
      <trkpt lat="48.22442" lon="-3.12127">
        <ele>223.19999694824</ele>
        <time>2020-10-19T14:22:59.000Z</time>
      </trkpt>
      <trkpt lat="48.22442" lon="-3.12127">
        <ele>223.19999694824</ele>
        <time>2020-10-19T14:23:00.000Z</time>
      </trkpt>
      <trkpt lat="48.22442" lon="-3.12125">
        <ele>223.19999694824</ele>
        <time>2020-10-19T14:23:01.000Z</time>
      </trkpt>
      <trkpt lat="48.22442" lon="-3.12124">
        <ele>223.19999694824</ele>
        <time>2020-10-19T14:23:02.000Z</time>
      </trkpt>
      <trkpt lat="48.22442" lon="-3.12122">
        <ele>223.19999694824</ele>
        <time>2020-10-19T14:23:03.000Z</time>
      </trkpt>
      <trkpt lat="48.22441" lon="-3.12121">
        <ele>223</ele>
        <time>2020-10-19T14:23:04.000Z</time>
      </trkpt>
      <trkpt lat="48.22442" lon="-3.12119">
        <ele>223</ele>
        <time>2020-10-19T14:23:05.000Z</time>
      </trkpt>
      <trkpt lat="48.22442" lon="-3.12117">
        <ele>223</ele>
        <time>2020-10-19T14:23:06.000Z</time>
      </trkpt>
      <trkpt lat="48.22441" lon="-3.12116">
        <ele>222.80000305176</ele>
        <time>2020-10-19T14:23:07.000Z</time>
      </trkpt>
      <trkpt lat="48.22441" lon="-3.12114">
        <ele>222.80000305176</ele>
        <time>2020-10-19T14:23:08.000Z</time>
      </trkpt>
      <trkpt lat="48.22441" lon="-3.12112">
        <ele>222.60000610352</ele>
        <time>2020-10-19T14:23:09.000Z</time>
      </trkpt>
      <trkpt lat="48.22441" lon="-3.1211">
        <ele>222.60000610352</ele>
        <time>2020-10-19T14:23:10.000Z</time>
      </trkpt>
      <trkpt lat="48.22441" lon="-3.12108">
        <ele>222.60000610352</ele>
        <time>2020-10-19T14:23:11.000Z</time>
      </trkpt>
      <trkpt lat="48.22441" lon="-3.12107">
        <ele>222.39999389648</ele>
        <time>2020-10-19T14:23:12.000Z</time>
      </trkpt>
      <trkpt lat="48.2244" lon="-3.12105">
        <ele>222.39999389648</ele>
        <time>2020-10-19T14:23:13.000Z</time>
      </trkpt>
      <trkpt lat="48.2244" lon="-3.12103">
        <ele>222.39999389648</ele>
        <time>2020-10-19T14:23:14.000Z</time>
      </trkpt>
      <trkpt lat="48.2244" lon="-3.12102">
        <ele>222.19999694824</ele>
        <time>2020-10-19T14:23:15.000Z</time>
      </trkpt>
      <trkpt lat="48.2244" lon="-3.121">
        <ele>222.19999694824</ele>
        <time>2020-10-19T14:23:16.000Z</time>
      </trkpt>
      <trkpt lat="48.2244" lon="-3.12099">
        <ele>222.19999694824</ele>
        <time>2020-10-19T14:23:17.000Z</time>
      </trkpt>
      <trkpt lat="48.2244" lon="-3.12097">
        <ele>222</ele>
        <time>2020-10-19T14:23:18.000Z</time>
      </trkpt>
      <trkpt lat="48.2244" lon="-3.12096">
        <ele>222</ele>
        <time>2020-10-19T14:23:19.000Z</time>
      </trkpt>
      <trkpt lat="48.22439" lon="-3.12095">
        <ele>222</ele>
        <time>2020-10-19T14:23:20.000Z</time>
      </trkpt>
      <trkpt lat="48.22439" lon="-3.12094">
        <ele>221.80000305176</ele>
        <time>2020-10-19T14:23:21.000Z</time>
      </trkpt>
      <trkpt lat="48.22438" lon="-3.12092">
        <ele>221.80000305176</ele>
        <time>2020-10-19T14:23:22.000Z</time>
      </trkpt>
      <trkpt lat="48.22438" lon="-3.12091">
        <ele>221.60000610352</ele>
        <time>2020-10-19T14:23:23.000Z</time>
      </trkpt>
      <trkpt lat="48.22438" lon="-3.1209">
        <ele>221.39999389648</ele>
        <time>2020-10-19T14:23:24.000Z</time>
      </trkpt>
      <trkpt lat="48.22437" lon="-3.12089">
        <ele>221.39999389648</ele>
        <time>2020-10-19T14:23:25.000Z</time>
      </trkpt>
      <trkpt lat="48.22437" lon="-3.12088">
        <ele>221.19999694824</ele>
        <time>2020-10-19T14:23:26.000Z</time>
      </trkpt>
      <trkpt lat="48.22437" lon="-3.12087">
        <ele>221.19999694824</ele>
        <time>2020-10-19T14:23:27.000Z</time>
      </trkpt>
      <trkpt lat="48.22437" lon="-3.12085">
        <ele>221</ele>
        <time>2020-10-19T14:23:28.000Z</time>
      </trkpt>
      <trkpt lat="48.22437" lon="-3.12084">
        <ele>221</ele>
        <time>2020-10-19T14:23:29.000Z</time>
      </trkpt>
      <trkpt lat="48.22437" lon="-3.12082">
        <ele>221</ele>
        <time>2020-10-19T14:23:30.000Z</time>
      </trkpt>
      <trkpt lat="48.22436" lon="-3.12081">
        <ele>221</ele>
        <time>2020-10-19T14:23:31.000Z</time>
      </trkpt>
      <trkpt lat="48.22436" lon="-3.1208">
        <ele>221</ele>
        <time>2020-10-19T14:23:32.000Z</time>
      </trkpt>
      <trkpt lat="48.22436" lon="-3.12078">
        <ele>221</ele>
        <time>2020-10-19T14:23:33.000Z</time>
      </trkpt>
      <trkpt lat="48.22436" lon="-3.12077">
        <ele>221</ele>
        <time>2020-10-19T14:23:34.000Z</time>
      </trkpt>
      <trkpt lat="48.22436" lon="-3.12075">
        <ele>221</ele>
        <time>2020-10-19T14:23:35.000Z</time>
      </trkpt>
      <trkpt lat="48.22436" lon="-3.12073">
        <ele>221</ele>
        <time>2020-10-19T14:23:36.000Z</time>
      </trkpt>
      <trkpt lat="48.22435" lon="-3.12072">
        <ele>221</ele>
        <time>2020-10-19T14:23:37.000Z</time>
      </trkpt>
      <trkpt lat="48.22435" lon="-3.1207">
        <ele>221</ele>
        <time>2020-10-19T14:23:38.000Z</time>
      </trkpt>
      <trkpt lat="48.22435" lon="-3.12068">
        <ele>221</ele>
        <time>2020-10-19T14:23:39.000Z</time>
      </trkpt>
      <trkpt lat="48.22434" lon="-3.12067">
        <ele>221</ele>
        <time>2020-10-19T14:23:40.000Z</time>
      </trkpt>
      <trkpt lat="48.22434" lon="-3.12065">
        <ele>221</ele>
        <time>2020-10-19T14:23:41.000Z</time>
      </trkpt>
      <trkpt lat="48.22434" lon="-3.12063">
        <ele>221</ele>
        <time>2020-10-19T14:23:42.000Z</time>
      </trkpt>
      <trkpt lat="48.22434" lon="-3.12061">
        <ele>221</ele>
        <time>2020-10-19T14:23:43.000Z</time>
      </trkpt>
      <trkpt lat="48.22434" lon="-3.1206">
        <ele>221</ele>
        <time>2020-10-19T14:23:44.000Z</time>
      </trkpt>
      <trkpt lat="48.22435" lon="-3.12059">
        <ele>221</ele>
        <time>2020-10-19T14:23:45.000Z</time>
      </trkpt>
      <trkpt lat="48.22435" lon="-3.12058">
        <ele>221</ele>
        <time>2020-10-19T14:23:46.000Z</time>
      </trkpt>
      <trkpt lat="48.22435" lon="-3.12057">
        <ele>221</ele>
        <time>2020-10-19T14:23:47.000Z</time>
      </trkpt>
      <trkpt lat="48.22435" lon="-3.12056">
        <ele>221</ele>
        <time>2020-10-19T14:23:48.000Z</time>
      </trkpt>
      <trkpt lat="48.22436" lon="-3.12054">
        <ele>221</ele>
        <time>2020-10-19T14:23:49.000Z</time>
      </trkpt>
      <trkpt lat="48.22436" lon="-3.12053">
        <ele>221</ele>
        <time>2020-10-19T14:23:50.000Z</time>
      </trkpt>
      <trkpt lat="48.22436" lon="-3.12052">
        <ele>221</ele>
        <time>2020-10-19T14:23:51.000Z</time>
      </trkpt>
      <trkpt lat="48.22436" lon="-3.12051">
        <ele>221</ele>
        <time>2020-10-19T14:23:52.000Z</time>
      </trkpt>
      <trkpt lat="48.22436" lon="-3.12049">
        <ele>221</ele>
        <time>2020-10-19T14:23:53.000Z</time>
      </trkpt>
      <trkpt lat="48.22436" lon="-3.12048">
        <ele>221</ele>
        <time>2020-10-19T14:23:54.000Z</time>
      </trkpt>
      <trkpt lat="48.22436" lon="-3.12047">
        <ele>221</ele>
        <time>2020-10-19T14:23:55.000Z</time>
      </trkpt>
      <trkpt lat="48.22436" lon="-3.12046">
        <ele>221</ele>
        <time>2020-10-19T14:23:56.000Z</time>
      </trkpt>
      <trkpt lat="48.22435" lon="-3.12045">
        <ele>221</ele>
        <time>2020-10-19T14:23:57.000Z</time>
      </trkpt>
      <trkpt lat="48.22435" lon="-3.12043">
        <ele>221</ele>
        <time>2020-10-19T14:23:58.000Z</time>
      </trkpt>
      <trkpt lat="48.22435" lon="-3.12042">
        <ele>221</ele>
        <time>2020-10-19T14:23:59.000Z</time>
      </trkpt>
      <trkpt lat="48.22435" lon="-3.1204">
        <ele>221</ele>
        <time>2020-10-19T14:24:00.000Z</time>
      </trkpt>
      <trkpt lat="48.22435" lon="-3.12039">
        <ele>221</ele>
        <time>2020-10-19T14:24:01.000Z</time>
      </trkpt>
      <trkpt lat="48.22435" lon="-3.12037">
        <ele>221</ele>
        <time>2020-10-19T14:24:02.000Z</time>
      </trkpt>
      <trkpt lat="48.22435" lon="-3.12036">
        <ele>221</ele>
        <time>2020-10-19T14:24:03.000Z</time>
      </trkpt>
      <trkpt lat="48.22435" lon="-3.12034">
        <ele>221</ele>
        <time>2020-10-19T14:24:04.000Z</time>
      </trkpt>
      <trkpt lat="48.22435" lon="-3.12033">
        <ele>221</ele>
        <time>2020-10-19T14:24:05.000Z</time>
      </trkpt>
      <trkpt lat="48.22434" lon="-3.12032">
        <ele>221</ele>
        <time>2020-10-19T14:24:06.000Z</time>
      </trkpt>
      <trkpt lat="48.22434" lon="-3.12031">
        <ele>221</ele>
        <time>2020-10-19T14:24:07.000Z</time>
      </trkpt>
      <trkpt lat="48.22434" lon="-3.12029">
        <ele>221</ele>
        <time>2020-10-19T14:24:08.000Z</time>
      </trkpt>
      <trkpt lat="48.22434" lon="-3.12028">
        <ele>221</ele>
        <time>2020-10-19T14:24:09.000Z</time>
      </trkpt>
      <trkpt lat="48.22433" lon="-3.12027">
        <ele>221</ele>
        <time>2020-10-19T14:24:10.000Z</time>
      </trkpt>
      <trkpt lat="48.22433" lon="-3.12026">
        <ele>221</ele>
        <time>2020-10-19T14:24:11.000Z</time>
      </trkpt>
      <trkpt lat="48.22432" lon="-3.12025">
        <ele>221</ele>
        <time>2020-10-19T14:24:12.000Z</time>
      </trkpt>
      <trkpt lat="48.22431" lon="-3.12023">
        <ele>221</ele>
        <time>2020-10-19T14:24:13.000Z</time>
      </trkpt>
      <trkpt lat="48.22431" lon="-3.12022">
        <ele>221</ele>
        <time>2020-10-19T14:24:14.000Z</time>
      </trkpt>
      <trkpt lat="48.2243" lon="-3.1202">
        <ele>221</ele>
        <time>2020-10-19T14:24:15.000Z</time>
      </trkpt>
      <trkpt lat="48.2243" lon="-3.12018">
        <ele>221</ele>
        <time>2020-10-19T14:24:16.000Z</time>
      </trkpt>
      <trkpt lat="48.2243" lon="-3.12017">
        <ele>221</ele>
        <time>2020-10-19T14:24:17.000Z</time>
      </trkpt>
      <trkpt lat="48.2243" lon="-3.12015">
        <ele>221</ele>
        <time>2020-10-19T14:24:18.000Z</time>
      </trkpt>
      <trkpt lat="48.2243" lon="-3.12014">
        <ele>221</ele>
        <time>2020-10-19T14:24:19.000Z</time>
      </trkpt>
      <trkpt lat="48.22429" lon="-3.12012">
        <ele>221</ele>
        <time>2020-10-19T14:24:20.000Z</time>
      </trkpt>
      <trkpt lat="48.22429" lon="-3.12011">
        <ele>221</ele>
        <time>2020-10-19T14:24:21.000Z</time>
      </trkpt>
      <trkpt lat="48.22429" lon="-3.1201">
        <ele>221</ele>
        <time>2020-10-19T14:24:22.000Z</time>
      </trkpt>
      <trkpt lat="48.22428" lon="-3.12008">
        <ele>220.80000305176</ele>
        <time>2020-10-19T14:24:23.000Z</time>
      </trkpt>
      <trkpt lat="48.22428" lon="-3.12007">
        <ele>220.60000610352</ele>
        <time>2020-10-19T14:24:24.000Z</time>
      </trkpt>
      <trkpt lat="48.22427" lon="-3.12005">
        <ele>220.39999389648</ele>
        <time>2020-10-19T14:24:25.000Z</time>
      </trkpt>
      <trkpt lat="48.22427" lon="-3.12004">
        <ele>220.19999694824</ele>
        <time>2020-10-19T14:24:26.000Z</time>
      </trkpt>
      <trkpt lat="48.22427" lon="-3.12002">
        <ele>220.19999694824</ele>
        <time>2020-10-19T14:24:27.000Z</time>
      </trkpt>
      <trkpt lat="48.22426" lon="-3.12001">
        <ele>220.19999694824</ele>
        <time>2020-10-19T14:24:28.000Z</time>
      </trkpt>
      <trkpt lat="48.22426" lon="-3.11999">
        <ele>220</ele>
        <time>2020-10-19T14:24:29.000Z</time>
      </trkpt>
      <trkpt lat="48.22426" lon="-3.11998">
        <ele>220</ele>
        <time>2020-10-19T14:24:30.000Z</time>
      </trkpt>
      <trkpt lat="48.22426" lon="-3.11996">
        <ele>220</ele>
        <time>2020-10-19T14:24:31.000Z</time>
      </trkpt>
      <trkpt lat="48.22426" lon="-3.11995">
        <ele>220</ele>
        <time>2020-10-19T14:24:32.000Z</time>
      </trkpt>
      <trkpt lat="48.22426" lon="-3.11993">
        <ele>220</ele>
        <time>2020-10-19T14:24:33.000Z</time>
      </trkpt>
      <trkpt lat="48.22426" lon="-3.11992">
        <ele>220.19999694824</ele>
        <time>2020-10-19T14:24:34.000Z</time>
      </trkpt>
      <trkpt lat="48.22426" lon="-3.1199">
        <ele>220</ele>
        <time>2020-10-19T14:24:35.000Z</time>
      </trkpt>
      <trkpt lat="48.22426" lon="-3.11989">
        <ele>220</ele>
        <time>2020-10-19T14:24:36.000Z</time>
      </trkpt>
      <trkpt lat="48.22427" lon="-3.11986">
        <ele>220.19999694824</ele>
        <time>2020-10-19T14:24:37.000Z</time>
      </trkpt>
      <trkpt lat="48.22427" lon="-3.11986">
        <ele>220.19999694824</ele>
        <time>2020-10-19T14:24:38.000Z</time>
      </trkpt>
      <trkpt lat="48.22427" lon="-3.11984">
        <ele>220.39999389648</ele>
        <time>2020-10-19T14:24:39.000Z</time>
      </trkpt>
      <trkpt lat="48.22427" lon="-3.11983">
        <ele>220.39999389648</ele>
        <time>2020-10-19T14:24:40.000Z</time>
      </trkpt>
      <trkpt lat="48.22427" lon="-3.11981">
        <ele>220.39999389648</ele>
        <time>2020-10-19T14:24:41.000Z</time>
      </trkpt>
      <trkpt lat="48.22427" lon="-3.11979">
        <ele>220.39999389648</ele>
        <time>2020-10-19T14:24:42.000Z</time>
      </trkpt>
      <trkpt lat="48.22427" lon="-3.11977">
        <ele>220.39999389648</ele>
        <time>2020-10-19T14:24:43.000Z</time>
      </trkpt>
      <trkpt lat="48.22427" lon="-3.11976">
        <ele>220.39999389648</ele>
        <time>2020-10-19T14:24:44.000Z</time>
      </trkpt>
      <trkpt lat="48.22428" lon="-3.11975">
        <ele>220.60000610352</ele>
        <time>2020-10-19T14:24:45.000Z</time>
      </trkpt>
      <trkpt lat="48.22428" lon="-3.11973">
        <ele>220.80000305176</ele>
        <time>2020-10-19T14:24:46.000Z</time>
      </trkpt>
      <trkpt lat="48.22428" lon="-3.11972">
        <ele>220.80000305176</ele>
        <time>2020-10-19T14:24:47.000Z</time>
      </trkpt>
      <trkpt lat="48.22429" lon="-3.11971">
        <ele>221</ele>
        <time>2020-10-19T14:24:48.000Z</time>
      </trkpt>
      <trkpt lat="48.22429" lon="-3.1197">
        <ele>221</ele>
        <time>2020-10-19T14:24:49.000Z</time>
      </trkpt>
      <trkpt lat="48.2243" lon="-3.11969">
        <ele>221</ele>
        <time>2020-10-19T14:24:50.000Z</time>
      </trkpt>
      <trkpt lat="48.2243" lon="-3.11968">
        <ele>221</ele>
        <time>2020-10-19T14:24:51.000Z</time>
      </trkpt>
      <trkpt lat="48.2243" lon="-3.11967">
        <ele>221</ele>
        <time>2020-10-19T14:24:52.000Z</time>
      </trkpt>
      <trkpt lat="48.2243" lon="-3.11966">
        <ele>221</ele>
        <time>2020-10-19T14:24:53.000Z</time>
      </trkpt>
      <trkpt lat="48.2243" lon="-3.11965">
        <ele>220.80000305176</ele>
        <time>2020-10-19T14:24:54.000Z</time>
      </trkpt>
      <trkpt lat="48.22431" lon="-3.11964">
        <ele>220.80000305176</ele>
        <time>2020-10-19T14:24:55.000Z</time>
      </trkpt>
      <trkpt lat="48.22431" lon="-3.11963">
        <ele>220.80000305176</ele>
        <time>2020-10-19T14:24:56.000Z</time>
      </trkpt>
      <trkpt lat="48.22431" lon="-3.11962">
        <ele>220.80000305176</ele>
        <time>2020-10-19T14:24:57.000Z</time>
      </trkpt>
      <trkpt lat="48.22431" lon="-3.11962">
        <ele>220.80000305176</ele>
        <time>2020-10-19T14:24:58.000Z</time>
      </trkpt>
      <trkpt lat="48.22431" lon="-3.11962">
        <ele>220.80000305176</ele>
        <time>2020-10-19T14:24:59.000Z</time>
      </trkpt>
      <trkpt lat="48.22431" lon="-3.11962">
        <ele>220.80000305176</ele>
        <time>2020-10-19T14:25:00.000Z</time>
      </trkpt>
      <trkpt lat="48.22431" lon="-3.11963">
        <ele>220.80000305176</ele>
        <time>2020-10-19T14:25:01.000Z</time>
      </trkpt>
      <trkpt lat="48.2243" lon="-3.11963">
        <ele>220.80000305176</ele>
        <time>2020-10-19T14:25:02.000Z</time>
      </trkpt>
      <trkpt lat="48.2243" lon="-3.11964">
        <ele>221</ele>
        <time>2020-10-19T14:25:03.000Z</time>
      </trkpt>
      <trkpt lat="48.2243" lon="-3.11964">
        <ele>221</ele>
        <time>2020-10-19T14:25:04.000Z</time>
      </trkpt>
      <trkpt lat="48.22429" lon="-3.11965">
        <ele>221</ele>
        <time>2020-10-19T14:25:05.000Z</time>
      </trkpt>
      <trkpt lat="48.22429" lon="-3.11965">
        <ele>221</ele>
        <time>2020-10-19T14:25:06.000Z</time>
      </trkpt>
      <trkpt lat="48.22429" lon="-3.11964">
        <ele>221</ele>
        <time>2020-10-19T14:25:07.000Z</time>
      </trkpt>
      <trkpt lat="48.22428" lon="-3.11963">
        <ele>220.80000305176</ele>
        <time>2020-10-19T14:25:08.000Z</time>
      </trkpt>
      <trkpt lat="48.22428" lon="-3.11962">
        <ele>220.80000305176</ele>
        <time>2020-10-19T14:25:09.000Z</time>
      </trkpt>
      <trkpt lat="48.22428" lon="-3.11961">
        <ele>220.60000610352</ele>
        <time>2020-10-19T14:25:10.000Z</time>
      </trkpt>
      <trkpt lat="48.22427" lon="-3.1196">
        <ele>220.39999389648</ele>
        <time>2020-10-19T14:25:11.000Z</time>
      </trkpt>
      <trkpt lat="48.22427" lon="-3.1196">
        <ele>220.39999389648</ele>
        <time>2020-10-19T14:25:12.000Z</time>
      </trkpt>
      <trkpt lat="48.22427" lon="-3.11959">
        <ele>220.39999389648</ele>
        <time>2020-10-19T14:25:13.000Z</time>
      </trkpt>
      <trkpt lat="48.22427" lon="-3.11959">
        <ele>220.39999389648</ele>
        <time>2020-10-19T14:25:14.000Z</time>
      </trkpt>
      <trkpt lat="48.22427" lon="-3.11959">
        <ele>220.39999389648</ele>
        <time>2020-10-19T14:25:15.000Z</time>
      </trkpt>
      <trkpt lat="48.22427" lon="-3.11959">
        <ele>220.39999389648</ele>
        <time>2020-10-19T14:25:16.000Z</time>
      </trkpt>
      <trkpt lat="48.22427" lon="-3.11959">
        <ele>220.39999389648</ele>
        <time>2020-10-19T14:25:17.000Z</time>
      </trkpt>
      <trkpt lat="48.22427" lon="-3.11959">
        <ele>220.39999389648</ele>
        <time>2020-10-19T14:25:18.000Z</time>
      </trkpt>
      <trkpt lat="48.22427" lon="-3.11959">
        <ele>220.39999389648</ele>
        <time>2020-10-19T14:25:19.000Z</time>
      </trkpt>
      <trkpt lat="48.22427" lon="-3.11959">
        <ele>220.39999389648</ele>
        <time>2020-10-19T14:25:20.000Z</time>
      </trkpt>
      <trkpt lat="48.22427" lon="-3.11959">
        <ele>220.19999694824</ele>
        <time>2020-10-19T14:25:21.000Z</time>
      </trkpt>
      <trkpt lat="48.22427" lon="-3.11959">
        <ele>220.39999389648</ele>
        <time>2020-10-19T14:25:22.000Z</time>
      </trkpt>
      <trkpt lat="48.22427" lon="-3.11959">
        <ele>220.39999389648</ele>
        <time>2020-10-19T14:25:23.000Z</time>
      </trkpt>
      <trkpt lat="48.22427" lon="-3.11959">
        <ele>220.19999694824</ele>
        <time>2020-10-19T14:25:24.000Z</time>
      </trkpt>
      <trkpt lat="48.22427" lon="-3.11959">
        <ele>220.19999694824</ele>
        <time>2020-10-19T14:25:25.000Z</time>
      </trkpt>
      <trkpt lat="48.22427" lon="-3.11959">
        <ele>220.19999694824</ele>
        <time>2020-10-19T14:25:26.000Z</time>
      </trkpt>
      <trkpt lat="48.22427" lon="-3.11959">
        <ele>220.19999694824</ele>
        <time>2020-10-19T14:25:27.000Z</time>
      </trkpt>
      <trkpt lat="48.22426" lon="-3.11959">
        <ele>220</ele>
        <time>2020-10-19T14:25:28.000Z</time>
      </trkpt>
      <trkpt lat="48.22426" lon="-3.11959">
        <ele>220</ele>
        <time>2020-10-19T14:25:29.000Z</time>
      </trkpt>
      <trkpt lat="48.22426" lon="-3.1196">
        <ele>220</ele>
        <time>2020-10-19T14:25:30.000Z</time>
      </trkpt>
      <trkpt lat="48.22426" lon="-3.1196">
        <ele>220</ele>
        <time>2020-10-19T14:25:31.000Z</time>
      </trkpt>
      <trkpt lat="48.22426" lon="-3.1196">
        <ele>219.80000305176</ele>
        <time>2020-10-19T14:25:32.000Z</time>
      </trkpt>
      <trkpt lat="48.22426" lon="-3.1196">
        <ele>219.80000305176</ele>
        <time>2020-10-19T14:25:33.000Z</time>
      </trkpt>
      <trkpt lat="48.22426" lon="-3.1196">
        <ele>219.80000305176</ele>
        <time>2020-10-19T14:25:34.000Z</time>
      </trkpt>
      <trkpt lat="48.22426" lon="-3.1196">
        <ele>219.80000305176</ele>
        <time>2020-10-19T14:25:35.000Z</time>
      </trkpt>
      <trkpt lat="48.22426" lon="-3.1196">
        <ele>219.80000305176</ele>
        <time>2020-10-19T14:25:36.000Z</time>
      </trkpt>
      <trkpt lat="48.22426" lon="-3.1196">
        <ele>219.80000305176</ele>
        <time>2020-10-19T14:25:37.000Z</time>
      </trkpt>
      <trkpt lat="48.22426" lon="-3.1196">
        <ele>219.80000305176</ele>
        <time>2020-10-19T14:25:38.000Z</time>
      </trkpt>
      <trkpt lat="48.22426" lon="-3.1196">
        <ele>219.80000305176</ele>
        <time>2020-10-19T14:25:39.000Z</time>
      </trkpt>
      <trkpt lat="48.22426" lon="-3.1196">
        <ele>219.80000305176</ele>
        <time>2020-10-19T14:25:40.000Z</time>
      </trkpt>
      <trkpt lat="48.22426" lon="-3.11959">
        <ele>219.80000305176</ele>
        <time>2020-10-19T14:25:41.000Z</time>
      </trkpt>
      <trkpt lat="48.22426" lon="-3.11959">
        <ele>219.80000305176</ele>
        <time>2020-10-19T14:25:42.000Z</time>
      </trkpt>
      <trkpt lat="48.22425" lon="-3.11959">
        <ele>219.80000305176</ele>
        <time>2020-10-19T14:25:43.000Z</time>
      </trkpt>
      <trkpt lat="48.22425" lon="-3.1196">
        <ele>219.60000610352</ele>
        <time>2020-10-19T14:25:44.000Z</time>
      </trkpt>
      <trkpt lat="48.22424" lon="-3.1196">
        <ele>219.39999389648</ele>
        <time>2020-10-19T14:25:45.000Z</time>
      </trkpt>
      <trkpt lat="48.22424" lon="-3.11959">
        <ele>219</ele>
        <time>2020-10-19T14:25:46.000Z</time>
      </trkpt>
      <trkpt lat="48.22423" lon="-3.11959">
        <ele>218.80000305176</ele>
        <time>2020-10-19T14:25:47.000Z</time>
      </trkpt>
      <trkpt lat="48.22422" lon="-3.11959">
        <ele>218.60000610352</ele>
        <time>2020-10-19T14:25:48.000Z</time>
      </trkpt>
      <trkpt lat="48.22422" lon="-3.11958">
        <ele>218.39999389648</ele>
        <time>2020-10-19T14:25:49.000Z</time>
      </trkpt>
      <trkpt lat="48.22421" lon="-3.11958">
        <ele>218</ele>
        <time>2020-10-19T14:25:50.000Z</time>
      </trkpt>
      <trkpt lat="48.2242" lon="-3.11958">
        <ele>217.80000305176</ele>
        <time>2020-10-19T14:25:51.000Z</time>
      </trkpt>
      <trkpt lat="48.2242" lon="-3.11957">
        <ele>217.60000610352</ele>
        <time>2020-10-19T14:25:52.000Z</time>
      </trkpt>
      <trkpt lat="48.22419" lon="-3.11956">
        <ele>217.39999389648</ele>
        <time>2020-10-19T14:25:53.000Z</time>
      </trkpt>
      <trkpt lat="48.22418" lon="-3.11955">
        <ele>217</ele>
        <time>2020-10-19T14:25:54.000Z</time>
      </trkpt>
      <trkpt lat="48.22417" lon="-3.11954">
        <ele>216.60000610352</ele>
        <time>2020-10-19T14:25:55.000Z</time>
      </trkpt>
      <trkpt lat="48.22417" lon="-3.11952">
        <ele>216.39999389648</ele>
        <time>2020-10-19T14:25:56.000Z</time>
      </trkpt>
      <trkpt lat="48.22417" lon="-3.11951">
        <ele>216.39999389648</ele>
        <time>2020-10-19T14:25:57.000Z</time>
      </trkpt>
      <trkpt lat="48.22416" lon="-3.1195">
        <ele>216.19999694824</ele>
        <time>2020-10-19T14:25:58.000Z</time>
      </trkpt>
      <trkpt lat="48.22416" lon="-3.11948">
        <ele>216</ele>
        <time>2020-10-19T14:25:59.000Z</time>
      </trkpt>
      <trkpt lat="48.22415" lon="-3.11947">
        <ele>215.80000305176</ele>
        <time>2020-10-19T14:26:00.000Z</time>
      </trkpt>
      <trkpt lat="48.22414" lon="-3.11945">
        <ele>215.39999389648</ele>
        <time>2020-10-19T14:26:01.000Z</time>
      </trkpt>
      <trkpt lat="48.22413" lon="-3.11943">
        <ele>215.19999694824</ele>
        <time>2020-10-19T14:26:02.000Z</time>
      </trkpt>
      <trkpt lat="48.22413" lon="-3.11942">
        <ele>215</ele>
        <time>2020-10-19T14:26:03.000Z</time>
      </trkpt>
      <trkpt lat="48.22412" lon="-3.1194">
        <ele>215</ele>
        <time>2020-10-19T14:26:04.000Z</time>
      </trkpt>
      <trkpt lat="48.22411" lon="-3.11938">
        <ele>214.80000305176</ele>
        <time>2020-10-19T14:26:05.000Z</time>
      </trkpt>
      <trkpt lat="48.2241" lon="-3.11936">
        <ele>214.80000305176</ele>
        <time>2020-10-19T14:26:06.000Z</time>
      </trkpt>
      <trkpt lat="48.2241" lon="-3.11934">
        <ele>214.80000305176</ele>
        <time>2020-10-19T14:26:07.000Z</time>
      </trkpt>
      <trkpt lat="48.22409" lon="-3.11933">
        <ele>214.80000305176</ele>
        <time>2020-10-19T14:26:08.000Z</time>
      </trkpt>
      <trkpt lat="48.22408" lon="-3.11931">
        <ele>214.60000610352</ele>
        <time>2020-10-19T14:26:09.000Z</time>
      </trkpt>
      <trkpt lat="48.22407" lon="-3.11929">
        <ele>214.60000610352</ele>
        <time>2020-10-19T14:26:10.000Z</time>
      </trkpt>
      <trkpt lat="48.22407" lon="-3.11927">
        <ele>214.60000610352</ele>
        <time>2020-10-19T14:26:11.000Z</time>
      </trkpt>
      <trkpt lat="48.22407" lon="-3.11925">
        <ele>214.60000610352</ele>
        <time>2020-10-19T14:26:12.000Z</time>
      </trkpt>
      <trkpt lat="48.22406" lon="-3.11924">
        <ele>214.39999389648</ele>
        <time>2020-10-19T14:26:13.000Z</time>
      </trkpt>
      <trkpt lat="48.22406" lon="-3.11922">
        <ele>214.19999694824</ele>
        <time>2020-10-19T14:26:14.000Z</time>
      </trkpt>
      <trkpt lat="48.22405" lon="-3.11921">
        <ele>214</ele>
        <time>2020-10-19T14:26:15.000Z</time>
      </trkpt>
      <trkpt lat="48.22405" lon="-3.1192">
        <ele>213.80000305176</ele>
        <time>2020-10-19T14:26:16.000Z</time>
      </trkpt>
      <trkpt lat="48.22404" lon="-3.11918">
        <ele>213.60000610352</ele>
        <time>2020-10-19T14:26:17.000Z</time>
      </trkpt>
      <trkpt lat="48.22403" lon="-3.11916">
        <ele>213.19999694824</ele>
        <time>2020-10-19T14:26:18.000Z</time>
      </trkpt>
      <trkpt lat="48.22403" lon="-3.11915">
        <ele>213</ele>
        <time>2020-10-19T14:26:19.000Z</time>
      </trkpt>
      <trkpt lat="48.22402" lon="-3.11913">
        <ele>212.80000305176</ele>
        <time>2020-10-19T14:26:20.000Z</time>
      </trkpt>
      <trkpt lat="48.22402" lon="-3.11912">
        <ele>212.80000305176</ele>
        <time>2020-10-19T14:26:21.000Z</time>
      </trkpt>
      <trkpt lat="48.22401" lon="-3.1191">
        <ele>212.39999389648</ele>
        <time>2020-10-19T14:26:22.000Z</time>
      </trkpt>
      <trkpt lat="48.22401" lon="-3.11909">
        <ele>212.39999389648</ele>
        <time>2020-10-19T14:26:23.000Z</time>
      </trkpt>
      <trkpt lat="48.22401" lon="-3.11907">
        <ele>212.19999694824</ele>
        <time>2020-10-19T14:26:24.000Z</time>
      </trkpt>
      <trkpt lat="48.22401" lon="-3.11906">
        <ele>212.19999694824</ele>
        <time>2020-10-19T14:26:25.000Z</time>
      </trkpt>
      <trkpt lat="48.224" lon="-3.11905">
        <ele>212</ele>
        <time>2020-10-19T14:26:26.000Z</time>
      </trkpt>
      <trkpt lat="48.224" lon="-3.11903">
        <ele>212</ele>
        <time>2020-10-19T14:26:27.000Z</time>
      </trkpt>
      <trkpt lat="48.22399" lon="-3.11901">
        <ele>211.60000610352</ele>
        <time>2020-10-19T14:26:28.000Z</time>
      </trkpt>
      <trkpt lat="48.22399" lon="-3.119">
        <ele>211.39999389648</ele>
        <time>2020-10-19T14:26:29.000Z</time>
      </trkpt>
      <trkpt lat="48.22399" lon="-3.11898">
        <ele>211.39999389648</ele>
        <time>2020-10-19T14:26:30.000Z</time>
      </trkpt>
      <trkpt lat="48.22399" lon="-3.11897">
        <ele>211.39999389648</ele>
        <time>2020-10-19T14:26:31.000Z</time>
      </trkpt>
      <trkpt lat="48.22399" lon="-3.11895">
        <ele>211.19999694824</ele>
        <time>2020-10-19T14:26:32.000Z</time>
      </trkpt>
      <trkpt lat="48.22399" lon="-3.11894">
        <ele>211.19999694824</ele>
        <time>2020-10-19T14:26:33.000Z</time>
      </trkpt>
      <trkpt lat="48.22399" lon="-3.11892">
        <ele>211.19999694824</ele>
        <time>2020-10-19T14:26:34.000Z</time>
      </trkpt>
      <trkpt lat="48.22399" lon="-3.11891">
        <ele>211</ele>
        <time>2020-10-19T14:26:35.000Z</time>
      </trkpt>
      <trkpt lat="48.22399" lon="-3.11889">
        <ele>211</ele>
        <time>2020-10-19T14:26:36.000Z</time>
      </trkpt>
      <trkpt lat="48.22399" lon="-3.11888">
        <ele>211</ele>
        <time>2020-10-19T14:26:37.000Z</time>
      </trkpt>
      <trkpt lat="48.22399" lon="-3.11887">
        <ele>211</ele>
        <time>2020-10-19T14:26:38.000Z</time>
      </trkpt>
      <trkpt lat="48.22399" lon="-3.11886">
        <ele>211</ele>
        <time>2020-10-19T14:26:39.000Z</time>
      </trkpt>
      <trkpt lat="48.22399" lon="-3.11885">
        <ele>211</ele>
        <time>2020-10-19T14:26:40.000Z</time>
      </trkpt>
      <trkpt lat="48.22399" lon="-3.11884">
        <ele>210.80000305176</ele>
        <time>2020-10-19T14:26:41.000Z</time>
      </trkpt>
      <trkpt lat="48.22399" lon="-3.11883">
        <ele>210.80000305176</ele>
        <time>2020-10-19T14:26:42.000Z</time>
      </trkpt>
      <trkpt lat="48.22398" lon="-3.11883">
        <ele>210.60000610352</ele>
        <time>2020-10-19T14:26:43.000Z</time>
      </trkpt>
      <trkpt lat="48.22398" lon="-3.11882">
        <ele>210.60000610352</ele>
        <time>2020-10-19T14:26:44.000Z</time>
      </trkpt>
      <trkpt lat="48.22398" lon="-3.11881">
        <ele>210.39999389648</ele>
        <time>2020-10-19T14:26:45.000Z</time>
      </trkpt>
      <trkpt lat="48.22398" lon="-3.1188">
        <ele>210.39999389648</ele>
        <time>2020-10-19T14:26:46.000Z</time>
      </trkpt>
      <trkpt lat="48.22398" lon="-3.11878">
        <ele>210.39999389648</ele>
        <time>2020-10-19T14:26:47.000Z</time>
      </trkpt>
      <trkpt lat="48.22397" lon="-3.11877">
        <ele>210.19999694824</ele>
        <time>2020-10-19T14:26:48.000Z</time>
      </trkpt>
      <trkpt lat="48.22398" lon="-3.11876">
        <ele>210.19999694824</ele>
        <time>2020-10-19T14:26:49.000Z</time>
      </trkpt>
      <trkpt lat="48.22397" lon="-3.11875">
        <ele>210.19999694824</ele>
        <time>2020-10-19T14:26:50.000Z</time>
      </trkpt>
      <trkpt lat="48.22397" lon="-3.11874">
        <ele>210.19999694824</ele>
        <time>2020-10-19T14:26:51.000Z</time>
      </trkpt>
      <trkpt lat="48.22397" lon="-3.11872">
        <ele>210.39999389648</ele>
        <time>2020-10-19T14:26:52.000Z</time>
      </trkpt>
      <trkpt lat="48.22397" lon="-3.11871">
        <ele>210.60000610352</ele>
        <time>2020-10-19T14:26:53.000Z</time>
      </trkpt>
      <trkpt lat="48.22396" lon="-3.1187">
        <ele>210.80000305176</ele>
        <time>2020-10-19T14:26:54.000Z</time>
      </trkpt>
      <trkpt lat="48.22396" lon="-3.11869">
        <ele>211</ele>
        <time>2020-10-19T14:26:55.000Z</time>
      </trkpt>
      <trkpt lat="48.22396" lon="-3.11868">
        <ele>211</ele>
        <time>2020-10-19T14:26:56.000Z</time>
      </trkpt>
      <trkpt lat="48.22396" lon="-3.11867">
        <ele>211.19999694824</ele>
        <time>2020-10-19T14:26:57.000Z</time>
      </trkpt>
      <trkpt lat="48.22396" lon="-3.11866">
        <ele>211.19999694824</ele>
        <time>2020-10-19T14:26:58.000Z</time>
      </trkpt>
      <trkpt lat="48.22396" lon="-3.11865">
        <ele>211.39999389648</ele>
        <time>2020-10-19T14:26:59.000Z</time>
      </trkpt>
      <trkpt lat="48.22395" lon="-3.11864">
        <ele>211.60000610352</ele>
        <time>2020-10-19T14:27:00.000Z</time>
      </trkpt>
      <trkpt lat="48.22395" lon="-3.11864">
        <ele>211.60000610352</ele>
        <time>2020-10-19T14:27:01.000Z</time>
      </trkpt>
      <trkpt lat="48.22395" lon="-3.11863">
        <ele>211.80000305176</ele>
        <time>2020-10-19T14:27:02.000Z</time>
      </trkpt>
      <trkpt lat="48.22394" lon="-3.11861">
        <ele>212</ele>
        <time>2020-10-19T14:27:03.000Z</time>
      </trkpt>
      <trkpt lat="48.22394" lon="-3.1186">
        <ele>212.19999694824</ele>
        <time>2020-10-19T14:27:04.000Z</time>
      </trkpt>
      <trkpt lat="48.22393" lon="-3.11858">
        <ele>212.39999389648</ele>
        <time>2020-10-19T14:27:05.000Z</time>
      </trkpt>
      <trkpt lat="48.22392" lon="-3.11856">
        <ele>212.60000610352</ele>
        <time>2020-10-19T14:27:06.000Z</time>
      </trkpt>
      <trkpt lat="48.22391" lon="-3.11855">
        <ele>212.60000610352</ele>
        <time>2020-10-19T14:27:07.000Z</time>
      </trkpt>
      <trkpt lat="48.22391" lon="-3.11854">
        <ele>212.80000305176</ele>
        <time>2020-10-19T14:27:08.000Z</time>
      </trkpt>
      <trkpt lat="48.2239" lon="-3.11853">
        <ele>212.80000305176</ele>
        <time>2020-10-19T14:27:09.000Z</time>
      </trkpt>
      <trkpt lat="48.22389" lon="-3.11851">
        <ele>213</ele>
        <time>2020-10-19T14:27:10.000Z</time>
      </trkpt>
      <trkpt lat="48.22388" lon="-3.1185">
        <ele>213.19999694824</ele>
        <time>2020-10-19T14:27:11.000Z</time>
      </trkpt>
      <trkpt lat="48.22388" lon="-3.11849">
        <ele>213.19999694824</ele>
        <time>2020-10-19T14:27:12.000Z</time>
      </trkpt>
      <trkpt lat="48.22386" lon="-3.11847">
        <ele>213.39999389648</ele>
        <time>2020-10-19T14:27:13.000Z</time>
      </trkpt>
      <trkpt lat="48.22386" lon="-3.11847">
        <ele>213.39999389648</ele>
        <time>2020-10-19T14:27:14.000Z</time>
      </trkpt>
      <trkpt lat="48.22385" lon="-3.11846">
        <ele>213.39999389648</ele>
        <time>2020-10-19T14:27:15.000Z</time>
      </trkpt>
      <trkpt lat="48.22384" lon="-3.11845">
        <ele>213.39999389648</ele>
        <time>2020-10-19T14:27:16.000Z</time>
      </trkpt>
      <trkpt lat="48.22384" lon="-3.11844">
        <ele>213.60000610352</ele>
        <time>2020-10-19T14:27:17.000Z</time>
      </trkpt>
      <trkpt lat="48.22383" lon="-3.11844">
        <ele>213.60000610352</ele>
        <time>2020-10-19T14:27:18.000Z</time>
      </trkpt>
      <trkpt lat="48.22382" lon="-3.11843">
        <ele>213.60000610352</ele>
        <time>2020-10-19T14:27:19.000Z</time>
      </trkpt>
      <trkpt lat="48.22381" lon="-3.11842">
        <ele>213.39999389648</ele>
        <time>2020-10-19T14:27:20.000Z</time>
      </trkpt>
      <trkpt lat="48.22381" lon="-3.11842">
        <ele>213.39999389648</ele>
        <time>2020-10-19T14:27:21.000Z</time>
      </trkpt>
      <trkpt lat="48.2238" lon="-3.1184">
        <ele>213.19999694824</ele>
        <time>2020-10-19T14:27:22.000Z</time>
      </trkpt>
      <trkpt lat="48.22379" lon="-3.11839">
        <ele>213</ele>
        <time>2020-10-19T14:27:23.000Z</time>
      </trkpt>
      <trkpt lat="48.22378" lon="-3.11838">
        <ele>213</ele>
        <time>2020-10-19T14:27:24.000Z</time>
      </trkpt>
      <trkpt lat="48.22377" lon="-3.11838">
        <ele>212.80000305176</ele>
        <time>2020-10-19T14:27:25.000Z</time>
      </trkpt>
      <trkpt lat="48.22376" lon="-3.11836">
        <ele>212.60000610352</ele>
        <time>2020-10-19T14:27:26.000Z</time>
      </trkpt>
      <trkpt lat="48.22374" lon="-3.11835">
        <ele>212.39999389648</ele>
        <time>2020-10-19T14:27:27.000Z</time>
      </trkpt>
      <trkpt lat="48.22373" lon="-3.11833">
        <ele>212.19999694824</ele>
        <time>2020-10-19T14:27:28.000Z</time>
      </trkpt>
      <trkpt lat="48.22371" lon="-3.11832">
        <ele>212.19999694824</ele>
        <time>2020-10-19T14:27:29.000Z</time>
      </trkpt>
      <trkpt lat="48.2237" lon="-3.11831">
        <ele>212</ele>
        <time>2020-10-19T14:27:30.000Z</time>
      </trkpt>
      <trkpt lat="48.22369" lon="-3.11831">
        <ele>211.80000305176</ele>
        <time>2020-10-19T14:27:31.000Z</time>
      </trkpt>
      <trkpt lat="48.22368" lon="-3.1183">
        <ele>211.80000305176</ele>
        <time>2020-10-19T14:27:32.000Z</time>
      </trkpt>
      <trkpt lat="48.22368" lon="-3.1183">
        <ele>211.60000610352</ele>
        <time>2020-10-19T14:27:33.000Z</time>
      </trkpt>
      <trkpt lat="48.22367" lon="-3.11829">
        <ele>211.60000610352</ele>
        <time>2020-10-19T14:27:34.000Z</time>
      </trkpt>
      <trkpt lat="48.22367" lon="-3.11828">
        <ele>211.39999389648</ele>
        <time>2020-10-19T14:27:35.000Z</time>
      </trkpt>
      <trkpt lat="48.22366" lon="-3.11828">
        <ele>211.39999389648</ele>
        <time>2020-10-19T14:27:36.000Z</time>
      </trkpt>
      <trkpt lat="48.22365" lon="-3.11827">
        <ele>211.19999694824</ele>
        <time>2020-10-19T14:27:37.000Z</time>
      </trkpt>
      <trkpt lat="48.22364" lon="-3.11826">
        <ele>211.19999694824</ele>
        <time>2020-10-19T14:27:38.000Z</time>
      </trkpt>
      <trkpt lat="48.22363" lon="-3.11825">
        <ele>211.19999694824</ele>
        <time>2020-10-19T14:27:39.000Z</time>
      </trkpt>
      <trkpt lat="48.22362" lon="-3.11825">
        <ele>211.19999694824</ele>
        <time>2020-10-19T14:27:40.000Z</time>
      </trkpt>
      <trkpt lat="48.22361" lon="-3.11824">
        <ele>211.39999389648</ele>
        <time>2020-10-19T14:27:41.000Z</time>
      </trkpt>
      <trkpt lat="48.2236" lon="-3.11823">
        <ele>211.60000610352</ele>
        <time>2020-10-19T14:27:42.000Z</time>
      </trkpt>
      <trkpt lat="48.22359" lon="-3.11822">
        <ele>211.80000305176</ele>
        <time>2020-10-19T14:27:43.000Z</time>
      </trkpt>
      <trkpt lat="48.22358" lon="-3.11821">
        <ele>212</ele>
        <time>2020-10-19T14:27:44.000Z</time>
      </trkpt>
      <trkpt lat="48.22357" lon="-3.11821">
        <ele>212</ele>
        <time>2020-10-19T14:27:45.000Z</time>
      </trkpt>
      <trkpt lat="48.22356" lon="-3.1182">
        <ele>212.19999694824</ele>
        <time>2020-10-19T14:27:46.000Z</time>
      </trkpt>
      <trkpt lat="48.22355" lon="-3.1182">
        <ele>212.19999694824</ele>
        <time>2020-10-19T14:27:47.000Z</time>
      </trkpt>
      <trkpt lat="48.22354" lon="-3.1182">
        <ele>212.39999389648</ele>
        <time>2020-10-19T14:27:48.000Z</time>
      </trkpt>
      <trkpt lat="48.22353" lon="-3.1182">
        <ele>212.39999389648</ele>
        <time>2020-10-19T14:27:49.000Z</time>
      </trkpt>
      <trkpt lat="48.22352" lon="-3.1182">
        <ele>212.39999389648</ele>
        <time>2020-10-19T14:27:50.000Z</time>
      </trkpt>
      <trkpt lat="48.22351" lon="-3.1182">
        <ele>212.60000610352</ele>
        <time>2020-10-19T14:27:51.000Z</time>
      </trkpt>
      <trkpt lat="48.2235" lon="-3.1182">
        <ele>212.60000610352</ele>
        <time>2020-10-19T14:27:52.000Z</time>
      </trkpt>
      <trkpt lat="48.22349" lon="-3.1182">
        <ele>212.60000610352</ele>
        <time>2020-10-19T14:27:53.000Z</time>
      </trkpt>
      <trkpt lat="48.22348" lon="-3.1182">
        <ele>212.60000610352</ele>
        <time>2020-10-19T14:27:54.000Z</time>
      </trkpt>
      <trkpt lat="48.22347" lon="-3.1182">
        <ele>212.60000610352</ele>
        <time>2020-10-19T14:27:55.000Z</time>
      </trkpt>
      <trkpt lat="48.22346" lon="-3.1182">
        <ele>212.80000305176</ele>
        <time>2020-10-19T14:27:56.000Z</time>
      </trkpt>
      <trkpt lat="48.22345" lon="-3.1182">
        <ele>212.80000305176</ele>
        <time>2020-10-19T14:27:57.000Z</time>
      </trkpt>
      <trkpt lat="48.22344" lon="-3.11819">
        <ele>212.60000610352</ele>
        <time>2020-10-19T14:27:58.000Z</time>
      </trkpt>
      <trkpt lat="48.22343" lon="-3.11818">
        <ele>212.19999694824</ele>
        <time>2020-10-19T14:27:59.000Z</time>
      </trkpt>
      <trkpt lat="48.22342" lon="-3.11817">
        <ele>212.19999694824</ele>
        <time>2020-10-19T14:28:00.000Z</time>
      </trkpt>
      <trkpt lat="48.22342" lon="-3.11816">
        <ele>212.19999694824</ele>
        <time>2020-10-19T14:28:01.000Z</time>
      </trkpt>
      <trkpt lat="48.22341" lon="-3.11816">
        <ele>212</ele>
        <time>2020-10-19T14:28:02.000Z</time>
      </trkpt>
      <trkpt lat="48.22341" lon="-3.11815">
        <ele>212</ele>
        <time>2020-10-19T14:28:03.000Z</time>
      </trkpt>
      <trkpt lat="48.2234" lon="-3.11813">
        <ele>212</ele>
        <time>2020-10-19T14:28:04.000Z</time>
      </trkpt>
      <trkpt lat="48.2234" lon="-3.11812">
        <ele>212</ele>
        <time>2020-10-19T14:28:05.000Z</time>
      </trkpt>
      <trkpt lat="48.2234" lon="-3.11811">
        <ele>212</ele>
        <time>2020-10-19T14:28:06.000Z</time>
      </trkpt>
      <trkpt lat="48.2234" lon="-3.1181">
        <ele>212.19999694824</ele>
        <time>2020-10-19T14:28:07.000Z</time>
      </trkpt>
      <trkpt lat="48.2234" lon="-3.11809">
        <ele>212.19999694824</ele>
        <time>2020-10-19T14:28:08.000Z</time>
      </trkpt>
      <trkpt lat="48.22339" lon="-3.11808">
        <ele>212.19999694824</ele>
        <time>2020-10-19T14:28:09.000Z</time>
      </trkpt>
      <trkpt lat="48.22339" lon="-3.11807">
        <ele>212.19999694824</ele>
        <time>2020-10-19T14:28:10.000Z</time>
      </trkpt>
      <trkpt lat="48.22339" lon="-3.11806">
        <ele>212.19999694824</ele>
        <time>2020-10-19T14:28:11.000Z</time>
      </trkpt>
      <trkpt lat="48.22338" lon="-3.11806">
        <ele>212.19999694824</ele>
        <time>2020-10-19T14:28:12.000Z</time>
      </trkpt>
      <trkpt lat="48.22338" lon="-3.11804">
        <ele>212.19999694824</ele>
        <time>2020-10-19T14:28:13.000Z</time>
      </trkpt>
      <trkpt lat="48.22337" lon="-3.11804">
        <ele>212.19999694824</ele>
        <time>2020-10-19T14:28:14.000Z</time>
      </trkpt>
      <trkpt lat="48.22337" lon="-3.11803">
        <ele>212.19999694824</ele>
        <time>2020-10-19T14:28:15.000Z</time>
      </trkpt>
      <trkpt lat="48.22337" lon="-3.11802">
        <ele>212.19999694824</ele>
        <time>2020-10-19T14:28:16.000Z</time>
      </trkpt>
      <trkpt lat="48.22337" lon="-3.11801">
        <ele>212.19999694824</ele>
        <time>2020-10-19T14:28:17.000Z</time>
      </trkpt>
      <trkpt lat="48.22336" lon="-3.11801">
        <ele>212</ele>
        <time>2020-10-19T14:28:18.000Z</time>
      </trkpt>
      <trkpt lat="48.22336" lon="-3.11801">
        <ele>212</ele>
        <time>2020-10-19T14:28:19.000Z</time>
      </trkpt>
      <trkpt lat="48.22335" lon="-3.11802">
        <ele>211.80000305176</ele>
        <time>2020-10-19T14:28:20.000Z</time>
      </trkpt>
      <trkpt lat="48.22335" lon="-3.11802">
        <ele>211.60000610352</ele>
        <time>2020-10-19T14:28:21.000Z</time>
      </trkpt>
      <trkpt lat="48.22335" lon="-3.11802">
        <ele>211.60000610352</ele>
        <time>2020-10-19T14:28:22.000Z</time>
      </trkpt>
      <trkpt lat="48.22334" lon="-3.11802">
        <ele>211.39999389648</ele>
        <time>2020-10-19T14:28:23.000Z</time>
      </trkpt>
      <trkpt lat="48.22334" lon="-3.11802">
        <ele>211.39999389648</ele>
        <time>2020-10-19T14:28:24.000Z</time>
      </trkpt>
      <trkpt lat="48.22333" lon="-3.11802">
        <ele>211.19999694824</ele>
        <time>2020-10-19T14:28:25.000Z</time>
      </trkpt>
      <trkpt lat="48.22333" lon="-3.11802">
        <ele>211</ele>
        <time>2020-10-19T14:28:26.000Z</time>
      </trkpt>
      <trkpt lat="48.22333" lon="-3.11802">
        <ele>211</ele>
        <time>2020-10-19T14:28:27.000Z</time>
      </trkpt>
      <trkpt lat="48.22333" lon="-3.11802">
        <ele>210.80000305176</ele>
        <time>2020-10-19T14:28:28.000Z</time>
      </trkpt>
      <trkpt lat="48.22333" lon="-3.11803">
        <ele>210.80000305176</ele>
        <time>2020-10-19T14:28:29.000Z</time>
      </trkpt>
      <trkpt lat="48.22332" lon="-3.11803">
        <ele>210.60000610352</ele>
        <time>2020-10-19T14:28:30.000Z</time>
      </trkpt>
      <trkpt lat="48.22332" lon="-3.11804">
        <ele>210.39999389648</ele>
        <time>2020-10-19T14:28:31.000Z</time>
      </trkpt>
      <trkpt lat="48.22331" lon="-3.11804">
        <ele>210.19999694824</ele>
        <time>2020-10-19T14:28:32.000Z</time>
      </trkpt>
      <trkpt lat="48.22331" lon="-3.11804">
        <ele>210</ele>
        <time>2020-10-19T14:28:33.000Z</time>
      </trkpt>
      <trkpt lat="48.2233" lon="-3.11805">
        <ele>209.80000305176</ele>
        <time>2020-10-19T14:28:34.000Z</time>
      </trkpt>
      <trkpt lat="48.2233" lon="-3.11805">
        <ele>209.80000305176</ele>
        <time>2020-10-19T14:28:35.000Z</time>
      </trkpt>
      <trkpt lat="48.2233" lon="-3.11805">
        <ele>209.80000305176</ele>
        <time>2020-10-19T14:28:36.000Z</time>
      </trkpt>
      <trkpt lat="48.2233" lon="-3.11805">
        <ele>209.60000610352</ele>
        <time>2020-10-19T14:28:37.000Z</time>
      </trkpt>
      <trkpt lat="48.2233" lon="-3.11805">
        <ele>209.60000610352</ele>
        <time>2020-10-19T14:28:38.000Z</time>
      </trkpt>
      <trkpt lat="48.2233" lon="-3.11805">
        <ele>209.39999389648</ele>
        <time>2020-10-19T14:28:39.000Z</time>
      </trkpt>
      <trkpt lat="48.22329" lon="-3.11805">
        <ele>209.39999389648</ele>
        <time>2020-10-19T14:28:40.000Z</time>
      </trkpt>
      <trkpt lat="48.22329" lon="-3.11805">
        <ele>209.39999389648</ele>
        <time>2020-10-19T14:28:41.000Z</time>
      </trkpt>
      <trkpt lat="48.22329" lon="-3.11805">
        <ele>209.19999694824</ele>
        <time>2020-10-19T14:28:42.000Z</time>
      </trkpt>
      <trkpt lat="48.22329" lon="-3.11805">
        <ele>209.19999694824</ele>
        <time>2020-10-19T14:28:43.000Z</time>
      </trkpt>
      <trkpt lat="48.22328" lon="-3.11805">
        <ele>209.19999694824</ele>
        <time>2020-10-19T14:28:44.000Z</time>
      </trkpt>
      <trkpt lat="48.22328" lon="-3.11805">
        <ele>209.19999694824</ele>
        <time>2020-10-19T14:28:45.000Z</time>
      </trkpt>
      <trkpt lat="48.22328" lon="-3.11804">
        <ele>209.19999694824</ele>
        <time>2020-10-19T14:28:46.000Z</time>
      </trkpt>
      <trkpt lat="48.22328" lon="-3.11804">
        <ele>209.19999694824</ele>
        <time>2020-10-19T14:28:47.000Z</time>
      </trkpt>
      <trkpt lat="48.22328" lon="-3.11804">
        <ele>209</ele>
        <time>2020-10-19T14:28:48.000Z</time>
      </trkpt>
      <trkpt lat="48.22328" lon="-3.11803">
        <ele>209</ele>
        <time>2020-10-19T14:28:49.000Z</time>
      </trkpt>
      <trkpt lat="48.22327" lon="-3.11803">
        <ele>209</ele>
        <time>2020-10-19T14:28:50.000Z</time>
      </trkpt>
      <trkpt lat="48.22327" lon="-3.11803">
        <ele>209</ele>
        <time>2020-10-19T14:28:51.000Z</time>
      </trkpt>
      <trkpt lat="48.22327" lon="-3.11803">
        <ele>209</ele>
        <time>2020-10-19T14:28:52.000Z</time>
      </trkpt>
      <trkpt lat="48.22327" lon="-3.11802">
        <ele>208.80000305176</ele>
        <time>2020-10-19T14:28:53.000Z</time>
      </trkpt>
      <trkpt lat="48.22327" lon="-3.11802">
        <ele>208.80000305176</ele>
        <time>2020-10-19T14:28:54.000Z</time>
      </trkpt>
      <trkpt lat="48.22327" lon="-3.11802">
        <ele>208.80000305176</ele>
        <time>2020-10-19T14:28:55.000Z</time>
      </trkpt>
      <trkpt lat="48.22327" lon="-3.11803">
        <ele>209</ele>
        <time>2020-10-19T14:28:56.000Z</time>
      </trkpt>
      <trkpt lat="48.22327" lon="-3.11802">
        <ele>209</ele>
        <time>2020-10-19T14:28:57.000Z</time>
      </trkpt>
      <trkpt lat="48.22328" lon="-3.11802">
        <ele>209.19999694824</ele>
        <time>2020-10-19T14:28:58.000Z</time>
      </trkpt>
      <trkpt lat="48.22328" lon="-3.11802">
        <ele>209.19999694824</ele>
        <time>2020-10-19T14:28:59.000Z</time>
      </trkpt>
      <trkpt lat="48.22328" lon="-3.11802">
        <ele>209.19999694824</ele>
        <time>2020-10-19T14:29:00.000Z</time>
      </trkpt>
      <trkpt lat="48.22328" lon="-3.11802">
        <ele>209.19999694824</ele>
        <time>2020-10-19T14:29:01.000Z</time>
      </trkpt>
      <trkpt lat="48.22328" lon="-3.11802">
        <ele>209.19999694824</ele>
        <time>2020-10-19T14:29:02.000Z</time>
      </trkpt>
      <trkpt lat="48.22328" lon="-3.11802">
        <ele>209.19999694824</ele>
        <time>2020-10-19T14:29:03.000Z</time>
      </trkpt>
      <trkpt lat="48.22328" lon="-3.11802">
        <ele>209.19999694824</ele>
        <time>2020-10-19T14:29:04.000Z</time>
      </trkpt>
      <trkpt lat="48.22328" lon="-3.11802">
        <ele>209.39999389648</ele>
        <time>2020-10-19T14:29:05.000Z</time>
      </trkpt>
      <trkpt lat="48.22328" lon="-3.11801">
        <ele>209.39999389648</ele>
        <time>2020-10-19T14:29:06.000Z</time>
      </trkpt>
      <trkpt lat="48.22327" lon="-3.11799">
        <ele>209.39999389648</ele>
        <time>2020-10-19T14:29:07.000Z</time>
      </trkpt>
      <trkpt lat="48.22327" lon="-3.11798">
        <ele>209.60000610352</ele>
        <time>2020-10-19T14:29:08.000Z</time>
      </trkpt>
      <trkpt lat="48.22327" lon="-3.11797">
        <ele>209.60000610352</ele>
        <time>2020-10-19T14:29:09.000Z</time>
      </trkpt>
      <trkpt lat="48.22326" lon="-3.11795">
        <ele>209.60000610352</ele>
        <time>2020-10-19T14:29:10.000Z</time>
      </trkpt>
      <trkpt lat="48.22326" lon="-3.11794">
        <ele>209.80000305176</ele>
        <time>2020-10-19T14:29:11.000Z</time>
      </trkpt>
      <trkpt lat="48.22326" lon="-3.11792">
        <ele>209.80000305176</ele>
        <time>2020-10-19T14:29:12.000Z</time>
      </trkpt>
      <trkpt lat="48.22325" lon="-3.11791">
        <ele>209.80000305176</ele>
        <time>2020-10-19T14:29:13.000Z</time>
      </trkpt>
      <trkpt lat="48.22325" lon="-3.11789">
        <ele>210</ele>
        <time>2020-10-19T14:29:14.000Z</time>
      </trkpt>
      <trkpt lat="48.22325" lon="-3.11787">
        <ele>210.19999694824</ele>
        <time>2020-10-19T14:29:15.000Z</time>
      </trkpt>
      <trkpt lat="48.22325" lon="-3.11785">
        <ele>210.39999389648</ele>
        <time>2020-10-19T14:29:16.000Z</time>
      </trkpt>
      <trkpt lat="48.22325" lon="-3.11784">
        <ele>210.60000610352</ele>
        <time>2020-10-19T14:29:17.000Z</time>
      </trkpt>
      <trkpt lat="48.22325" lon="-3.11782">
        <ele>210.60000610352</ele>
        <time>2020-10-19T14:29:18.000Z</time>
      </trkpt>
      <trkpt lat="48.22325" lon="-3.11782">
        <ele>210.60000610352</ele>
        <time>2020-10-19T14:29:19.000Z</time>
      </trkpt>
      <trkpt lat="48.22325" lon="-3.11782">
        <ele>210.60000610352</ele>
        <time>2020-10-19T14:29:20.000Z</time>
      </trkpt>
      <trkpt lat="48.22325" lon="-3.11781">
        <ele>210.80000305176</ele>
        <time>2020-10-19T14:29:21.000Z</time>
      </trkpt>
      <trkpt lat="48.22325" lon="-3.1178">
        <ele>211</ele>
        <time>2020-10-19T14:29:22.000Z</time>
      </trkpt>
      <trkpt lat="48.22324" lon="-3.11779">
        <ele>211</ele>
        <time>2020-10-19T14:29:23.000Z</time>
      </trkpt>
      <trkpt lat="48.22324" lon="-3.11777">
        <ele>211.19999694824</ele>
        <time>2020-10-19T14:29:24.000Z</time>
      </trkpt>
      <trkpt lat="48.22324" lon="-3.11776">
        <ele>211.39999389648</ele>
        <time>2020-10-19T14:29:25.000Z</time>
      </trkpt>
      <trkpt lat="48.22323" lon="-3.11774">
        <ele>211.39999389648</ele>
        <time>2020-10-19T14:29:26.000Z</time>
      </trkpt>
      <trkpt lat="48.22323" lon="-3.11773">
        <ele>211.60000610352</ele>
        <time>2020-10-19T14:29:27.000Z</time>
      </trkpt>
      <trkpt lat="48.22323" lon="-3.11772">
        <ele>211.60000610352</ele>
        <time>2020-10-19T14:29:28.000Z</time>
      </trkpt>
      <trkpt lat="48.22322" lon="-3.1177">
        <ele>211.80000305176</ele>
        <time>2020-10-19T14:29:29.000Z</time>
      </trkpt>
      <trkpt lat="48.22322" lon="-3.11768">
        <ele>212</ele>
        <time>2020-10-19T14:29:30.000Z</time>
      </trkpt>
      <trkpt lat="48.22321" lon="-3.11767">
        <ele>212</ele>
        <time>2020-10-19T14:29:31.000Z</time>
      </trkpt>
      <trkpt lat="48.22321" lon="-3.11766">
        <ele>212.19999694824</ele>
        <time>2020-10-19T14:29:32.000Z</time>
      </trkpt>
      <trkpt lat="48.2232" lon="-3.11764">
        <ele>212.19999694824</ele>
        <time>2020-10-19T14:29:33.000Z</time>
      </trkpt>
      <trkpt lat="48.2232" lon="-3.11763">
        <ele>212</ele>
        <time>2020-10-19T14:29:34.000Z</time>
      </trkpt>
      <trkpt lat="48.22319" lon="-3.11762">
        <ele>212.19999694824</ele>
        <time>2020-10-19T14:29:35.000Z</time>
      </trkpt>
      <trkpt lat="48.22318" lon="-3.1176">
        <ele>212.19999694824</ele>
        <time>2020-10-19T14:29:36.000Z</time>
      </trkpt>
      <trkpt lat="48.22318" lon="-3.11758">
        <ele>212</ele>
        <time>2020-10-19T14:29:37.000Z</time>
      </trkpt>
      <trkpt lat="48.22317" lon="-3.11757">
        <ele>211.80000305176</ele>
        <time>2020-10-19T14:29:38.000Z</time>
      </trkpt>
      <trkpt lat="48.22317" lon="-3.11756">
        <ele>211.60000610352</ele>
        <time>2020-10-19T14:29:39.000Z</time>
      </trkpt>
      <trkpt lat="48.22316" lon="-3.11754">
        <ele>211.39999389648</ele>
        <time>2020-10-19T14:29:40.000Z</time>
      </trkpt>
      <trkpt lat="48.22316" lon="-3.11753">
        <ele>211.19999694824</ele>
        <time>2020-10-19T14:29:41.000Z</time>
      </trkpt>
      <trkpt lat="48.22315" lon="-3.11751">
        <ele>211</ele>
        <time>2020-10-19T14:29:42.000Z</time>
      </trkpt>
      <trkpt lat="48.22314" lon="-3.1175">
        <ele>210.60000610352</ele>
        <time>2020-10-19T14:29:43.000Z</time>
      </trkpt>
      <trkpt lat="48.22314" lon="-3.11749">
        <ele>210.39999389648</ele>
        <time>2020-10-19T14:29:44.000Z</time>
      </trkpt>
      <trkpt lat="48.22313" lon="-3.11747">
        <ele>210.39999389648</ele>
        <time>2020-10-19T14:29:45.000Z</time>
      </trkpt>
      <trkpt lat="48.22313" lon="-3.11746">
        <ele>210</ele>
        <time>2020-10-19T14:29:46.000Z</time>
      </trkpt>
      <trkpt lat="48.22312" lon="-3.11744">
        <ele>209.80000305176</ele>
        <time>2020-10-19T14:29:47.000Z</time>
      </trkpt>
      <trkpt lat="48.22312" lon="-3.11743">
        <ele>209.60000610352</ele>
        <time>2020-10-19T14:29:48.000Z</time>
      </trkpt>
      <trkpt lat="48.22311" lon="-3.11741">
        <ele>209.39999389648</ele>
        <time>2020-10-19T14:29:49.000Z</time>
      </trkpt>
      <trkpt lat="48.22311" lon="-3.11739">
        <ele>209.39999389648</ele>
        <time>2020-10-19T14:29:50.000Z</time>
      </trkpt>
      <trkpt lat="48.22311" lon="-3.11738">
        <ele>209.19999694824</ele>
        <time>2020-10-19T14:29:51.000Z</time>
      </trkpt>
      <trkpt lat="48.2231" lon="-3.11736">
        <ele>209</ele>
        <time>2020-10-19T14:29:52.000Z</time>
      </trkpt>
      <trkpt lat="48.2231" lon="-3.11734">
        <ele>208.80000305176</ele>
        <time>2020-10-19T14:29:53.000Z</time>
      </trkpt>
      <trkpt lat="48.22309" lon="-3.11733">
        <ele>208.60000610352</ele>
        <time>2020-10-19T14:29:54.000Z</time>
      </trkpt>
      <trkpt lat="48.22309" lon="-3.11731">
        <ele>208.39999389648</ele>
        <time>2020-10-19T14:29:55.000Z</time>
      </trkpt>
      <trkpt lat="48.22309" lon="-3.1173">
        <ele>208.39999389648</ele>
        <time>2020-10-19T14:29:56.000Z</time>
      </trkpt>
      <trkpt lat="48.22308" lon="-3.11729">
        <ele>208</ele>
        <time>2020-10-19T14:29:57.000Z</time>
      </trkpt>
      <trkpt lat="48.22307" lon="-3.11728">
        <ele>207.80000305176</ele>
        <time>2020-10-19T14:29:58.000Z</time>
      </trkpt>
      <trkpt lat="48.22306" lon="-3.11727">
        <ele>207.60000610352</ele>
        <time>2020-10-19T14:29:59.000Z</time>
      </trkpt>
      <trkpt lat="48.22305" lon="-3.11725">
        <ele>207</ele>
        <time>2020-10-19T14:30:00.000Z</time>
      </trkpt>
      <trkpt lat="48.22305" lon="-3.11725">
        <ele>207</ele>
        <time>2020-10-19T14:30:01.000Z</time>
      </trkpt>
      <trkpt lat="48.22304" lon="-3.11724">
        <ele>206.80000305176</ele>
        <time>2020-10-19T14:30:02.000Z</time>
      </trkpt>
      <trkpt lat="48.22303" lon="-3.11723">
        <ele>206.39999389648</ele>
        <time>2020-10-19T14:30:03.000Z</time>
      </trkpt>
      <trkpt lat="48.22302" lon="-3.11722">
        <ele>206.19999694824</ele>
        <time>2020-10-19T14:30:04.000Z</time>
      </trkpt>
      <trkpt lat="48.22301" lon="-3.11721">
        <ele>206</ele>
        <time>2020-10-19T14:30:05.000Z</time>
      </trkpt>
      <trkpt lat="48.223" lon="-3.1172">
        <ele>205.80000305176</ele>
        <time>2020-10-19T14:30:06.000Z</time>
      </trkpt>
      <trkpt lat="48.22299" lon="-3.11718">
        <ele>205.60000610352</ele>
        <time>2020-10-19T14:30:07.000Z</time>
      </trkpt>
      <trkpt lat="48.22298" lon="-3.11717">
        <ele>205.60000610352</ele>
        <time>2020-10-19T14:30:08.000Z</time>
      </trkpt>
      <trkpt lat="48.22297" lon="-3.11715">
        <ele>205.39999389648</ele>
        <time>2020-10-19T14:30:09.000Z</time>
      </trkpt>
      <trkpt lat="48.22296" lon="-3.11714">
        <ele>205.39999389648</ele>
        <time>2020-10-19T14:30:10.000Z</time>
      </trkpt>
      <trkpt lat="48.22295" lon="-3.11712">
        <ele>205.19999694824</ele>
        <time>2020-10-19T14:30:11.000Z</time>
      </trkpt>
      <trkpt lat="48.22294" lon="-3.11711">
        <ele>205.19999694824</ele>
        <time>2020-10-19T14:30:12.000Z</time>
      </trkpt>
      <trkpt lat="48.22294" lon="-3.11709">
        <ele>205.19999694824</ele>
        <time>2020-10-19T14:30:13.000Z</time>
      </trkpt>
      <trkpt lat="48.22293" lon="-3.11708">
        <ele>205</ele>
        <time>2020-10-19T14:30:14.000Z</time>
      </trkpt>
      <trkpt lat="48.22292" lon="-3.11706">
        <ele>205</ele>
        <time>2020-10-19T14:30:15.000Z</time>
      </trkpt>
      <trkpt lat="48.22292" lon="-3.11704">
        <ele>205</ele>
        <time>2020-10-19T14:30:16.000Z</time>
      </trkpt>
      <trkpt lat="48.22291" lon="-3.11703">
        <ele>205</ele>
        <time>2020-10-19T14:30:17.000Z</time>
      </trkpt>
      <trkpt lat="48.2229" lon="-3.11702">
        <ele>204.80000305176</ele>
        <time>2020-10-19T14:30:18.000Z</time>
      </trkpt>
      <trkpt lat="48.22289" lon="-3.11701">
        <ele>204.80000305176</ele>
        <time>2020-10-19T14:30:19.000Z</time>
      </trkpt>
      <trkpt lat="48.22289" lon="-3.11701">
        <ele>204.60000610352</ele>
        <time>2020-10-19T14:30:20.000Z</time>
      </trkpt>
      <trkpt lat="48.22288" lon="-3.117">
        <ele>204.60000610352</ele>
        <time>2020-10-19T14:30:21.000Z</time>
      </trkpt>
      <trkpt lat="48.22287" lon="-3.117">
        <ele>204.39999389648</ele>
        <time>2020-10-19T14:30:22.000Z</time>
      </trkpt>
      <trkpt lat="48.22286" lon="-3.11699">
        <ele>204.39999389648</ele>
        <time>2020-10-19T14:30:23.000Z</time>
      </trkpt>
      <trkpt lat="48.22286" lon="-3.11699">
        <ele>204.19999694824</ele>
        <time>2020-10-19T14:30:24.000Z</time>
      </trkpt>
      <trkpt lat="48.22285" lon="-3.11697">
        <ele>204.19999694824</ele>
        <time>2020-10-19T14:30:25.000Z</time>
      </trkpt>
      <trkpt lat="48.22285" lon="-3.11696">
        <ele>204.19999694824</ele>
        <time>2020-10-19T14:30:26.000Z</time>
      </trkpt>
      <trkpt lat="48.22284" lon="-3.11695">
        <ele>204.19999694824</ele>
        <time>2020-10-19T14:30:27.000Z</time>
      </trkpt>
      <trkpt lat="48.22284" lon="-3.11693">
        <ele>204.19999694824</ele>
        <time>2020-10-19T14:30:28.000Z</time>
      </trkpt>
      <trkpt lat="48.22283" lon="-3.11691">
        <ele>204.19999694824</ele>
        <time>2020-10-19T14:30:29.000Z</time>
      </trkpt>
      <trkpt lat="48.22283" lon="-3.11689">
        <ele>204.19999694824</ele>
        <time>2020-10-19T14:30:30.000Z</time>
      </trkpt>
      <trkpt lat="48.22282" lon="-3.11688">
        <ele>204.19999694824</ele>
        <time>2020-10-19T14:30:31.000Z</time>
      </trkpt>
      <trkpt lat="48.22282" lon="-3.11686">
        <ele>204.19999694824</ele>
        <time>2020-10-19T14:30:32.000Z</time>
      </trkpt>
      <trkpt lat="48.22282" lon="-3.11685">
        <ele>204.19999694824</ele>
        <time>2020-10-19T14:30:33.000Z</time>
      </trkpt>
      <trkpt lat="48.22281" lon="-3.11681">
        <ele>204.39999389648</ele>
        <time>2020-10-19T14:30:34.000Z</time>
      </trkpt>
      <trkpt lat="48.22281" lon="-3.11681">
        <ele>204.39999389648</ele>
        <time>2020-10-19T14:30:35.000Z</time>
      </trkpt>
      <trkpt lat="48.22281" lon="-3.1168">
        <ele>204.60000610352</ele>
        <time>2020-10-19T14:30:36.000Z</time>
      </trkpt>
      <trkpt lat="48.22281" lon="-3.1168">
        <ele>204.60000610352</ele>
        <time>2020-10-19T14:30:37.000Z</time>
      </trkpt>
      <trkpt lat="48.22281" lon="-3.11679">
        <ele>204.60000610352</ele>
        <time>2020-10-19T14:30:38.000Z</time>
      </trkpt>
      <trkpt lat="48.22281" lon="-3.11679">
        <ele>204.60000610352</ele>
        <time>2020-10-19T14:30:39.000Z</time>
      </trkpt>
      <trkpt lat="48.22281" lon="-3.11679">
        <ele>204.60000610352</ele>
        <time>2020-10-19T14:30:40.000Z</time>
      </trkpt>
      <trkpt lat="48.22281" lon="-3.11679">
        <ele>204.60000610352</ele>
        <time>2020-10-19T14:30:41.000Z</time>
      </trkpt>
      <trkpt lat="48.22281" lon="-3.11679">
        <ele>204.60000610352</ele>
        <time>2020-10-19T14:30:42.000Z</time>
      </trkpt>
      <trkpt lat="48.22281" lon="-3.11679">
        <ele>204.60000610352</ele>
        <time>2020-10-19T14:30:43.000Z</time>
      </trkpt>
      <trkpt lat="48.22281" lon="-3.11678">
        <ele>204.60000610352</ele>
        <time>2020-10-19T14:30:44.000Z</time>
      </trkpt>
      <trkpt lat="48.22281" lon="-3.11677">
        <ele>204.60000610352</ele>
        <time>2020-10-19T14:30:45.000Z</time>
      </trkpt>
      <trkpt lat="48.22281" lon="-3.11676">
        <ele>204.60000610352</ele>
        <time>2020-10-19T14:30:46.000Z</time>
      </trkpt>
      <trkpt lat="48.22281" lon="-3.11675">
        <ele>204.39999389648</ele>
        <time>2020-10-19T14:30:47.000Z</time>
      </trkpt>
      <trkpt lat="48.22281" lon="-3.11674">
        <ele>204.19999694824</ele>
        <time>2020-10-19T14:30:48.000Z</time>
      </trkpt>
      <trkpt lat="48.22282" lon="-3.11672">
        <ele>204.19999694824</ele>
        <time>2020-10-19T14:30:49.000Z</time>
      </trkpt>
      <trkpt lat="48.22282" lon="-3.11671">
        <ele>204.19999694824</ele>
        <time>2020-10-19T14:30:50.000Z</time>
      </trkpt>
      <trkpt lat="48.22283" lon="-3.1167">
        <ele>204.19999694824</ele>
        <time>2020-10-19T14:30:51.000Z</time>
      </trkpt>
      <trkpt lat="48.22284" lon="-3.11669">
        <ele>204.19999694824</ele>
        <time>2020-10-19T14:30:52.000Z</time>
      </trkpt>
      <trkpt lat="48.22284" lon="-3.11668">
        <ele>204</ele>
        <time>2020-10-19T14:30:53.000Z</time>
      </trkpt>
      <trkpt lat="48.22284" lon="-3.11667">
        <ele>204</ele>
        <time>2020-10-19T14:30:54.000Z</time>
      </trkpt>
      <trkpt lat="48.22285" lon="-3.11666">
        <ele>204</ele>
        <time>2020-10-19T14:30:55.000Z</time>
      </trkpt>
      <trkpt lat="48.22285" lon="-3.11665">
        <ele>203.80000305176</ele>
        <time>2020-10-19T14:30:56.000Z</time>
      </trkpt>
      <trkpt lat="48.22285" lon="-3.11663">
        <ele>203.60000610352</ele>
        <time>2020-10-19T14:30:57.000Z</time>
      </trkpt>
      <trkpt lat="48.22286" lon="-3.11662">
        <ele>203.60000610352</ele>
        <time>2020-10-19T14:30:58.000Z</time>
      </trkpt>
      <trkpt lat="48.22286" lon="-3.1166">
        <ele>203.39999389648</ele>
        <time>2020-10-19T14:30:59.000Z</time>
      </trkpt>
      <trkpt lat="48.22287" lon="-3.11659">
        <ele>203.19999694824</ele>
        <time>2020-10-19T14:31:00.000Z</time>
      </trkpt>
      <trkpt lat="48.22287" lon="-3.11657">
        <ele>203.19999694824</ele>
        <time>2020-10-19T14:31:01.000Z</time>
      </trkpt>
      <trkpt lat="48.22288" lon="-3.11656">
        <ele>203.19999694824</ele>
        <time>2020-10-19T14:31:02.000Z</time>
      </trkpt>
      <trkpt lat="48.22288" lon="-3.11654">
        <ele>203</ele>
        <time>2020-10-19T14:31:03.000Z</time>
      </trkpt>
      <trkpt lat="48.22289" lon="-3.11653">
        <ele>203</ele>
        <time>2020-10-19T14:31:04.000Z</time>
      </trkpt>
      <trkpt lat="48.2229" lon="-3.11651">
        <ele>203</ele>
        <time>2020-10-19T14:31:05.000Z</time>
      </trkpt>
      <trkpt lat="48.2229" lon="-3.1165">
        <ele>202.80000305176</ele>
        <time>2020-10-19T14:31:06.000Z</time>
      </trkpt>
      <trkpt lat="48.22291" lon="-3.11649">
        <ele>202.80000305176</ele>
        <time>2020-10-19T14:31:07.000Z</time>
      </trkpt>
      <trkpt lat="48.22291" lon="-3.11647">
        <ele>202.80000305176</ele>
        <time>2020-10-19T14:31:08.000Z</time>
      </trkpt>
      <trkpt lat="48.22292" lon="-3.11646">
        <ele>202.60000610352</ele>
        <time>2020-10-19T14:31:09.000Z</time>
      </trkpt>
      <trkpt lat="48.22292" lon="-3.11644">
        <ele>202.60000610352</ele>
        <time>2020-10-19T14:31:10.000Z</time>
      </trkpt>
      <trkpt lat="48.22293" lon="-3.11642">
        <ele>202.60000610352</ele>
        <time>2020-10-19T14:31:11.000Z</time>
      </trkpt>
      <trkpt lat="48.22293" lon="-3.11641">
        <ele>202.39999389648</ele>
        <time>2020-10-19T14:31:12.000Z</time>
      </trkpt>
      <trkpt lat="48.22293" lon="-3.1164">
        <ele>202.19999694824</ele>
        <time>2020-10-19T14:31:13.000Z</time>
      </trkpt>
      <trkpt lat="48.22293" lon="-3.11638">
        <ele>202.19999694824</ele>
        <time>2020-10-19T14:31:14.000Z</time>
      </trkpt>
      <trkpt lat="48.22293" lon="-3.11637">
        <ele>202</ele>
        <time>2020-10-19T14:31:15.000Z</time>
      </trkpt>
      <trkpt lat="48.22293" lon="-3.11635">
        <ele>201.80000305176</ele>
        <time>2020-10-19T14:31:16.000Z</time>
      </trkpt>
      <trkpt lat="48.22293" lon="-3.11633">
        <ele>201.80000305176</ele>
        <time>2020-10-19T14:31:17.000Z</time>
      </trkpt>
      <trkpt lat="48.22293" lon="-3.11632">
        <ele>201.60000610352</ele>
        <time>2020-10-19T14:31:18.000Z</time>
      </trkpt>
      <trkpt lat="48.22292" lon="-3.1163">
        <ele>201.39999389648</ele>
        <time>2020-10-19T14:31:19.000Z</time>
      </trkpt>
      <trkpt lat="48.22292" lon="-3.11628">
        <ele>201.19999694824</ele>
        <time>2020-10-19T14:31:20.000Z</time>
      </trkpt>
      <trkpt lat="48.22292" lon="-3.11626">
        <ele>201</ele>
        <time>2020-10-19T14:31:21.000Z</time>
      </trkpt>
      <trkpt lat="48.22292" lon="-3.11625">
        <ele>201</ele>
        <time>2020-10-19T14:31:22.000Z</time>
      </trkpt>
      <trkpt lat="48.22292" lon="-3.11623">
        <ele>200.80000305176</ele>
        <time>2020-10-19T14:31:23.000Z</time>
      </trkpt>
      <trkpt lat="48.22292" lon="-3.11621">
        <ele>200.60000610352</ele>
        <time>2020-10-19T14:31:24.000Z</time>
      </trkpt>
      <trkpt lat="48.22291" lon="-3.11619">
        <ele>200.39999389648</ele>
        <time>2020-10-19T14:31:25.000Z</time>
      </trkpt>
      <trkpt lat="48.22291" lon="-3.11618">
        <ele>200.19999694824</ele>
        <time>2020-10-19T14:31:26.000Z</time>
      </trkpt>
      <trkpt lat="48.22291" lon="-3.11616">
        <ele>200</ele>
        <time>2020-10-19T14:31:27.000Z</time>
      </trkpt>
      <trkpt lat="48.2229" lon="-3.11615">
        <ele>199.80000305176</ele>
        <time>2020-10-19T14:31:28.000Z</time>
      </trkpt>
      <trkpt lat="48.2229" lon="-3.11614">
        <ele>199.60000610352</ele>
        <time>2020-10-19T14:31:29.000Z</time>
      </trkpt>
      <trkpt lat="48.22289" lon="-3.11612">
        <ele>199.60000610352</ele>
        <time>2020-10-19T14:31:30.000Z</time>
      </trkpt>
      <trkpt lat="48.22289" lon="-3.11611">
        <ele>199.39999389648</ele>
        <time>2020-10-19T14:31:31.000Z</time>
      </trkpt>
      <trkpt lat="48.22289" lon="-3.1161">
        <ele>199.19999694824</ele>
        <time>2020-10-19T14:31:32.000Z</time>
      </trkpt>
      <trkpt lat="48.22289" lon="-3.11608">
        <ele>199</ele>
        <time>2020-10-19T14:31:33.000Z</time>
      </trkpt>
      <trkpt lat="48.22289" lon="-3.11607">
        <ele>199</ele>
        <time>2020-10-19T14:31:34.000Z</time>
      </trkpt>
      <trkpt lat="48.22289" lon="-3.11606">
        <ele>198.80000305176</ele>
        <time>2020-10-19T14:31:35.000Z</time>
      </trkpt>
      <trkpt lat="48.22289" lon="-3.11604">
        <ele>198.80000305176</ele>
        <time>2020-10-19T14:31:36.000Z</time>
      </trkpt>
      <trkpt lat="48.22289" lon="-3.11603">
        <ele>198.60000610352</ele>
        <time>2020-10-19T14:31:37.000Z</time>
      </trkpt>
      <trkpt lat="48.22289" lon="-3.11602">
        <ele>198.60000610352</ele>
        <time>2020-10-19T14:31:38.000Z</time>
      </trkpt>
      <trkpt lat="48.22289" lon="-3.11601">
        <ele>198.39999389648</ele>
        <time>2020-10-19T14:31:39.000Z</time>
      </trkpt>
      <trkpt lat="48.22289" lon="-3.116">
        <ele>198.39999389648</ele>
        <time>2020-10-19T14:31:40.000Z</time>
      </trkpt>
      <trkpt lat="48.22289" lon="-3.11598">
        <ele>198.19999694824</ele>
        <time>2020-10-19T14:31:41.000Z</time>
      </trkpt>
      <trkpt lat="48.22288" lon="-3.11597">
        <ele>198</ele>
        <time>2020-10-19T14:31:42.000Z</time>
      </trkpt>
      <trkpt lat="48.22288" lon="-3.11596">
        <ele>198</ele>
        <time>2020-10-19T14:31:43.000Z</time>
      </trkpt>
      <trkpt lat="48.22288" lon="-3.11595">
        <ele>197.80000305176</ele>
        <time>2020-10-19T14:31:44.000Z</time>
      </trkpt>
      <trkpt lat="48.22287" lon="-3.11594">
        <ele>197.60000610352</ele>
        <time>2020-10-19T14:31:45.000Z</time>
      </trkpt>
      <trkpt lat="48.22287" lon="-3.11593">
        <ele>197.60000610352</ele>
        <time>2020-10-19T14:31:46.000Z</time>
      </trkpt>
      <trkpt lat="48.22286" lon="-3.11592">
        <ele>197.39999389648</ele>
        <time>2020-10-19T14:31:47.000Z</time>
      </trkpt>
      <trkpt lat="48.22286" lon="-3.11592">
        <ele>197.19999694824</ele>
        <time>2020-10-19T14:31:48.000Z</time>
      </trkpt>
      <trkpt lat="48.22286" lon="-3.1159">
        <ele>197</ele>
        <time>2020-10-19T14:31:49.000Z</time>
      </trkpt>
      <trkpt lat="48.22285" lon="-3.11589">
        <ele>196.80000305176</ele>
        <time>2020-10-19T14:31:50.000Z</time>
      </trkpt>
      <trkpt lat="48.22285" lon="-3.11589">
        <ele>196.80000305176</ele>
        <time>2020-10-19T14:31:51.000Z</time>
      </trkpt>
      <trkpt lat="48.22285" lon="-3.11589">
        <ele>196.60000610352</ele>
        <time>2020-10-19T14:31:52.000Z</time>
      </trkpt>
      <trkpt lat="48.22284" lon="-3.11588">
        <ele>196.39999389648</ele>
        <time>2020-10-19T14:31:53.000Z</time>
      </trkpt>
      <trkpt lat="48.22284" lon="-3.11588">
        <ele>196.39999389648</ele>
        <time>2020-10-19T14:31:54.000Z</time>
      </trkpt>
      <trkpt lat="48.22283" lon="-3.11587">
        <ele>196.19999694824</ele>
        <time>2020-10-19T14:31:55.000Z</time>
      </trkpt>
      <trkpt lat="48.22283" lon="-3.11586">
        <ele>196</ele>
        <time>2020-10-19T14:31:56.000Z</time>
      </trkpt>
      <trkpt lat="48.22283" lon="-3.11586">
        <ele>196</ele>
        <time>2020-10-19T14:31:57.000Z</time>
      </trkpt>
      <trkpt lat="48.22282" lon="-3.11585">
        <ele>195.80000305176</ele>
        <time>2020-10-19T14:31:58.000Z</time>
      </trkpt>
      <trkpt lat="48.22281" lon="-3.11585">
        <ele>195.60000610352</ele>
        <time>2020-10-19T14:31:59.000Z</time>
      </trkpt>
      <trkpt lat="48.22281" lon="-3.11584">
        <ele>195.39999389648</ele>
        <time>2020-10-19T14:32:00.000Z</time>
      </trkpt>
      <trkpt lat="48.2228" lon="-3.11584">
        <ele>195.39999389648</ele>
        <time>2020-10-19T14:32:01.000Z</time>
      </trkpt>
      <trkpt lat="48.22279" lon="-3.11584">
        <ele>195.19999694824</ele>
        <time>2020-10-19T14:32:02.000Z</time>
      </trkpt>
      <trkpt lat="48.22278" lon="-3.11584">
        <ele>195</ele>
        <time>2020-10-19T14:32:03.000Z</time>
      </trkpt>
      <trkpt lat="48.22277" lon="-3.11583">
        <ele>194.80000305176</ele>
        <time>2020-10-19T14:32:04.000Z</time>
      </trkpt>
      <trkpt lat="48.22276" lon="-3.11583">
        <ele>194.60000610352</ele>
        <time>2020-10-19T14:32:05.000Z</time>
      </trkpt>
      <trkpt lat="48.22275" lon="-3.11583">
        <ele>194.60000610352</ele>
        <time>2020-10-19T14:32:06.000Z</time>
      </trkpt>
      <trkpt lat="48.22275" lon="-3.11583">
        <ele>194.39999389648</ele>
        <time>2020-10-19T14:32:07.000Z</time>
      </trkpt>
      <trkpt lat="48.22274" lon="-3.11583">
        <ele>194.19999694824</ele>
        <time>2020-10-19T14:32:08.000Z</time>
      </trkpt>
      <trkpt lat="48.22273" lon="-3.11583">
        <ele>194.19999694824</ele>
        <time>2020-10-19T14:32:09.000Z</time>
      </trkpt>
      <trkpt lat="48.22273" lon="-3.11582">
        <ele>194</ele>
        <time>2020-10-19T14:32:10.000Z</time>
      </trkpt>
      <trkpt lat="48.22272" lon="-3.11582">
        <ele>194</ele>
        <time>2020-10-19T14:32:11.000Z</time>
      </trkpt>
      <trkpt lat="48.22272" lon="-3.11582">
        <ele>193.80000305176</ele>
        <time>2020-10-19T14:32:12.000Z</time>
      </trkpt>
      <trkpt lat="48.22271" lon="-3.11581">
        <ele>193.80000305176</ele>
        <time>2020-10-19T14:32:13.000Z</time>
      </trkpt>
      <trkpt lat="48.2227" lon="-3.11581">
        <ele>193.60000610352</ele>
        <time>2020-10-19T14:32:14.000Z</time>
      </trkpt>
      <trkpt lat="48.2227" lon="-3.11581">
        <ele>193.60000610352</ele>
        <time>2020-10-19T14:32:15.000Z</time>
      </trkpt>
      <trkpt lat="48.22269" lon="-3.1158">
        <ele>193.39999389648</ele>
        <time>2020-10-19T14:32:16.000Z</time>
      </trkpt>
      <trkpt lat="48.22268" lon="-3.1158">
        <ele>193.39999389648</ele>
        <time>2020-10-19T14:32:17.000Z</time>
      </trkpt>
      <trkpt lat="48.22268" lon="-3.11579">
        <ele>193.19999694824</ele>
        <time>2020-10-19T14:32:18.000Z</time>
      </trkpt>
      <trkpt lat="48.22267" lon="-3.11579">
        <ele>193.19999694824</ele>
        <time>2020-10-19T14:32:19.000Z</time>
      </trkpt>
      <trkpt lat="48.22267" lon="-3.11578">
        <ele>193</ele>
        <time>2020-10-19T14:32:20.000Z</time>
      </trkpt>
      <trkpt lat="48.22267" lon="-3.11578">
        <ele>193</ele>
        <time>2020-10-19T14:32:21.000Z</time>
      </trkpt>
      <trkpt lat="48.22266" lon="-3.11576">
        <ele>192.80000305176</ele>
        <time>2020-10-19T14:32:22.000Z</time>
      </trkpt>
      <trkpt lat="48.22266" lon="-3.11576">
        <ele>192.60000610352</ele>
        <time>2020-10-19T14:32:23.000Z</time>
      </trkpt>
      <trkpt lat="48.22266" lon="-3.11574">
        <ele>192.60000610352</ele>
        <time>2020-10-19T14:32:24.000Z</time>
      </trkpt>
      <trkpt lat="48.22265" lon="-3.11573">
        <ele>192.39999389648</ele>
        <time>2020-10-19T14:32:25.000Z</time>
      </trkpt>
      <trkpt lat="48.22265" lon="-3.11573">
        <ele>192.19999694824</ele>
        <time>2020-10-19T14:32:26.000Z</time>
      </trkpt>
      <trkpt lat="48.22264" lon="-3.11571">
        <ele>192</ele>
        <time>2020-10-19T14:32:27.000Z</time>
      </trkpt>
      <trkpt lat="48.22264" lon="-3.11569">
        <ele>191.80000305176</ele>
        <time>2020-10-19T14:32:28.000Z</time>
      </trkpt>
      <trkpt lat="48.22263" lon="-3.11568">
        <ele>191.60000610352</ele>
        <time>2020-10-19T14:32:29.000Z</time>
      </trkpt>
      <trkpt lat="48.22263" lon="-3.11566">
        <ele>191.39999389648</ele>
        <time>2020-10-19T14:32:30.000Z</time>
      </trkpt>
      <trkpt lat="48.22263" lon="-3.11564">
        <ele>191.19999694824</ele>
        <time>2020-10-19T14:32:31.000Z</time>
      </trkpt>
      <trkpt lat="48.22263" lon="-3.11562">
        <ele>191</ele>
        <time>2020-10-19T14:32:32.000Z</time>
      </trkpt>
      <trkpt lat="48.22262" lon="-3.1156">
        <ele>190.80000305176</ele>
        <time>2020-10-19T14:32:33.000Z</time>
      </trkpt>
      <trkpt lat="48.22262" lon="-3.11558">
        <ele>190.60000610352</ele>
        <time>2020-10-19T14:32:34.000Z</time>
      </trkpt>
      <trkpt lat="48.22262" lon="-3.11556">
        <ele>190.39999389648</ele>
        <time>2020-10-19T14:32:35.000Z</time>
      </trkpt>
      <trkpt lat="48.22262" lon="-3.11554">
        <ele>190.19999694824</ele>
        <time>2020-10-19T14:32:36.000Z</time>
      </trkpt>
      <trkpt lat="48.22262" lon="-3.11553">
        <ele>190</ele>
        <time>2020-10-19T14:32:37.000Z</time>
      </trkpt>
      <trkpt lat="48.22262" lon="-3.11551">
        <ele>190</ele>
        <time>2020-10-19T14:32:38.000Z</time>
      </trkpt>
      <trkpt lat="48.22263" lon="-3.1155">
        <ele>189.80000305176</ele>
        <time>2020-10-19T14:32:39.000Z</time>
      </trkpt>
      <trkpt lat="48.22263" lon="-3.11548">
        <ele>189.80000305176</ele>
        <time>2020-10-19T14:32:40.000Z</time>
      </trkpt>
      <trkpt lat="48.22263" lon="-3.11547">
        <ele>189.60000610352</ele>
        <time>2020-10-19T14:32:41.000Z</time>
      </trkpt>
      <trkpt lat="48.22263" lon="-3.11545">
        <ele>189.39999389648</ele>
        <time>2020-10-19T14:32:42.000Z</time>
      </trkpt>
      <trkpt lat="48.22263" lon="-3.11543">
        <ele>189.19999694824</ele>
        <time>2020-10-19T14:32:43.000Z</time>
      </trkpt>
      <trkpt lat="48.22263" lon="-3.11542">
        <ele>189</ele>
        <time>2020-10-19T14:32:44.000Z</time>
      </trkpt>
      <trkpt lat="48.22263" lon="-3.1154">
        <ele>189</ele>
        <time>2020-10-19T14:32:45.000Z</time>
      </trkpt>
      <trkpt lat="48.22264" lon="-3.11539">
        <ele>188.80000305176</ele>
        <time>2020-10-19T14:32:46.000Z</time>
      </trkpt>
      <trkpt lat="48.22264" lon="-3.11537">
        <ele>188.80000305176</ele>
        <time>2020-10-19T14:32:47.000Z</time>
      </trkpt>
      <trkpt lat="48.22264" lon="-3.11536">
        <ele>188.80000305176</ele>
        <time>2020-10-19T14:32:48.000Z</time>
      </trkpt>
      <trkpt lat="48.22265" lon="-3.11535">
        <ele>188.60000610352</ele>
        <time>2020-10-19T14:32:49.000Z</time>
      </trkpt>
      <trkpt lat="48.22265" lon="-3.11533">
        <ele>188.60000610352</ele>
        <time>2020-10-19T14:32:50.000Z</time>
      </trkpt>
      <trkpt lat="48.22265" lon="-3.11533">
        <ele>188.60000610352</ele>
        <time>2020-10-19T14:32:51.000Z</time>
      </trkpt>
      <trkpt lat="48.22266" lon="-3.11532">
        <ele>188.60000610352</ele>
        <time>2020-10-19T14:32:52.000Z</time>
      </trkpt>
      <trkpt lat="48.22266" lon="-3.11532">
        <ele>188.39999389648</ele>
        <time>2020-10-19T14:32:53.000Z</time>
      </trkpt>
      <trkpt lat="48.22266" lon="-3.11531">
        <ele>188.39999389648</ele>
        <time>2020-10-19T14:32:54.000Z</time>
      </trkpt>
      <trkpt lat="48.22266" lon="-3.11531">
        <ele>188.39999389648</ele>
        <time>2020-10-19T14:32:55.000Z</time>
      </trkpt>
      <trkpt lat="48.22266" lon="-3.11531">
        <ele>188.39999389648</ele>
        <time>2020-10-19T14:32:56.000Z</time>
      </trkpt>
      <trkpt lat="48.22266" lon="-3.11531">
        <ele>188.39999389648</ele>
        <time>2020-10-19T14:32:57.000Z</time>
      </trkpt>
      <trkpt lat="48.22266" lon="-3.11531">
        <ele>188.39999389648</ele>
        <time>2020-10-19T14:32:58.000Z</time>
      </trkpt>
      <trkpt lat="48.22267" lon="-3.11531">
        <ele>188.39999389648</ele>
        <time>2020-10-19T14:32:59.000Z</time>
      </trkpt>
      <trkpt lat="48.22267" lon="-3.11531">
        <ele>188.39999389648</ele>
        <time>2020-10-19T14:33:00.000Z</time>
      </trkpt>
      <trkpt lat="48.22267" lon="-3.11531">
        <ele>188.39999389648</ele>
        <time>2020-10-19T14:33:01.000Z</time>
      </trkpt>
      <trkpt lat="48.22267" lon="-3.11531">
        <ele>188.60000610352</ele>
        <time>2020-10-19T14:33:02.000Z</time>
      </trkpt>
      <trkpt lat="48.22267" lon="-3.11531">
        <ele>188.60000610352</ele>
        <time>2020-10-19T14:33:03.000Z</time>
      </trkpt>
      <trkpt lat="48.22267" lon="-3.1153">
        <ele>188.39999389648</ele>
        <time>2020-10-19T14:33:04.000Z</time>
      </trkpt>
      <trkpt lat="48.22267" lon="-3.11529">
        <ele>188.39999389648</ele>
        <time>2020-10-19T14:33:05.000Z</time>
      </trkpt>
      <trkpt lat="48.22267" lon="-3.11528">
        <ele>188.39999389648</ele>
        <time>2020-10-19T14:33:06.000Z</time>
      </trkpt>
      <trkpt lat="48.22267" lon="-3.11527">
        <ele>188.19999694824</ele>
        <time>2020-10-19T14:33:07.000Z</time>
      </trkpt>
      <trkpt lat="48.22267" lon="-3.11526">
        <ele>188.19999694824</ele>
        <time>2020-10-19T14:33:08.000Z</time>
      </trkpt>
      <trkpt lat="48.22268" lon="-3.11525">
        <ele>188</ele>
        <time>2020-10-19T14:33:09.000Z</time>
      </trkpt>
      <trkpt lat="48.22268" lon="-3.11522">
        <ele>187.80000305176</ele>
        <time>2020-10-19T14:33:10.000Z</time>
      </trkpt>
      <trkpt lat="48.22268" lon="-3.11522">
        <ele>187.80000305176</ele>
        <time>2020-10-19T14:33:11.000Z</time>
      </trkpt>
      <trkpt lat="48.22268" lon="-3.11521">
        <ele>187.60000610352</ele>
        <time>2020-10-19T14:33:12.000Z</time>
      </trkpt>
      <trkpt lat="48.22268" lon="-3.11519">
        <ele>187.60000610352</ele>
        <time>2020-10-19T14:33:13.000Z</time>
      </trkpt>
      <trkpt lat="48.22268" lon="-3.11519">
        <ele>187.39999389648</ele>
        <time>2020-10-19T14:33:14.000Z</time>
      </trkpt>
      <trkpt lat="48.22268" lon="-3.11519">
        <ele>187.39999389648</ele>
        <time>2020-10-19T14:33:15.000Z</time>
      </trkpt>
      <trkpt lat="48.22268" lon="-3.11518">
        <ele>187.39999389648</ele>
        <time>2020-10-19T14:33:16.000Z</time>
      </trkpt>
      <trkpt lat="48.22269" lon="-3.11518">
        <ele>187.39999389648</ele>
        <time>2020-10-19T14:33:17.000Z</time>
      </trkpt>
      <trkpt lat="48.22268" lon="-3.11516">
        <ele>187.19999694824</ele>
        <time>2020-10-19T14:33:18.000Z</time>
      </trkpt>
      <trkpt lat="48.22269" lon="-3.11515">
        <ele>187.19999694824</ele>
        <time>2020-10-19T14:33:19.000Z</time>
      </trkpt>
      <trkpt lat="48.22269" lon="-3.11514">
        <ele>187.19999694824</ele>
        <time>2020-10-19T14:33:20.000Z</time>
      </trkpt>
      <trkpt lat="48.22269" lon="-3.11513">
        <ele>187</ele>
        <time>2020-10-19T14:33:21.000Z</time>
      </trkpt>
      <trkpt lat="48.2227" lon="-3.11512">
        <ele>187</ele>
        <time>2020-10-19T14:33:22.000Z</time>
      </trkpt>
      <trkpt lat="48.2227" lon="-3.1151">
        <ele>186.80000305176</ele>
        <time>2020-10-19T14:33:23.000Z</time>
      </trkpt>
      <trkpt lat="48.2227" lon="-3.11508">
        <ele>186.60000610352</ele>
        <time>2020-10-19T14:33:24.000Z</time>
      </trkpt>
      <trkpt lat="48.2227" lon="-3.11506">
        <ele>186.39999389648</ele>
        <time>2020-10-19T14:33:25.000Z</time>
      </trkpt>
      <trkpt lat="48.22271" lon="-3.11505">
        <ele>186.19999694824</ele>
        <time>2020-10-19T14:33:26.000Z</time>
      </trkpt>
      <trkpt lat="48.22271" lon="-3.11503">
        <ele>186</ele>
        <time>2020-10-19T14:33:27.000Z</time>
      </trkpt>
      <trkpt lat="48.22272" lon="-3.11501">
        <ele>185.80000305176</ele>
        <time>2020-10-19T14:33:28.000Z</time>
      </trkpt>
      <trkpt lat="48.22272" lon="-3.115">
        <ele>185.80000305176</ele>
        <time>2020-10-19T14:33:29.000Z</time>
      </trkpt>
      <trkpt lat="48.22273" lon="-3.11498">
        <ele>185.60000610352</ele>
        <time>2020-10-19T14:33:30.000Z</time>
      </trkpt>
      <trkpt lat="48.22273" lon="-3.11497">
        <ele>185.39999389648</ele>
        <time>2020-10-19T14:33:31.000Z</time>
      </trkpt>
      <trkpt lat="48.22274" lon="-3.11495">
        <ele>185.19999694824</ele>
        <time>2020-10-19T14:33:32.000Z</time>
      </trkpt>
      <trkpt lat="48.22274" lon="-3.11494">
        <ele>185</ele>
        <time>2020-10-19T14:33:33.000Z</time>
      </trkpt>
      <trkpt lat="48.22274" lon="-3.11492">
        <ele>184.80000305176</ele>
        <time>2020-10-19T14:33:34.000Z</time>
      </trkpt>
      <trkpt lat="48.22274" lon="-3.1149">
        <ele>184.60000610352</ele>
        <time>2020-10-19T14:33:35.000Z</time>
      </trkpt>
      <trkpt lat="48.22275" lon="-3.11488">
        <ele>184.60000610352</ele>
        <time>2020-10-19T14:33:36.000Z</time>
      </trkpt>
      <trkpt lat="48.22275" lon="-3.11487">
        <ele>184.39999389648</ele>
        <time>2020-10-19T14:33:37.000Z</time>
      </trkpt>
      <trkpt lat="48.22275" lon="-3.11486">
        <ele>184.19999694824</ele>
        <time>2020-10-19T14:33:38.000Z</time>
      </trkpt>
      <trkpt lat="48.22275" lon="-3.11485">
        <ele>184.19999694824</ele>
        <time>2020-10-19T14:33:39.000Z</time>
      </trkpt>
      <trkpt lat="48.22275" lon="-3.11485">
        <ele>184</ele>
        <time>2020-10-19T14:33:40.000Z</time>
      </trkpt>
      <trkpt lat="48.22274" lon="-3.11485">
        <ele>184</ele>
        <time>2020-10-19T14:33:41.000Z</time>
      </trkpt>
      <trkpt lat="48.22274" lon="-3.11485">
        <ele>183.80000305176</ele>
        <time>2020-10-19T14:33:42.000Z</time>
      </trkpt>
      <trkpt lat="48.22273" lon="-3.11485">
        <ele>183.80000305176</ele>
        <time>2020-10-19T14:33:43.000Z</time>
      </trkpt>
      <trkpt lat="48.22272" lon="-3.11485">
        <ele>183.80000305176</ele>
        <time>2020-10-19T14:33:44.000Z</time>
      </trkpt>
      <trkpt lat="48.22271" lon="-3.11485">
        <ele>183.60000610352</ele>
        <time>2020-10-19T14:33:45.000Z</time>
      </trkpt>
      <trkpt lat="48.22271" lon="-3.11486">
        <ele>183.60000610352</ele>
        <time>2020-10-19T14:33:46.000Z</time>
      </trkpt>
      <trkpt lat="48.2227" lon="-3.11486">
        <ele>183.60000610352</ele>
        <time>2020-10-19T14:33:47.000Z</time>
      </trkpt>
      <trkpt lat="48.2227" lon="-3.11487">
        <ele>183.80000305176</ele>
        <time>2020-10-19T14:33:48.000Z</time>
      </trkpt>
      <trkpt lat="48.22269" lon="-3.11488">
        <ele>183.80000305176</ele>
        <time>2020-10-19T14:33:49.000Z</time>
      </trkpt>
      <trkpt lat="48.22268" lon="-3.11489">
        <ele>183.80000305176</ele>
        <time>2020-10-19T14:33:50.000Z</time>
      </trkpt>
      <trkpt lat="48.22268" lon="-3.1149">
        <ele>184</ele>
        <time>2020-10-19T14:33:51.000Z</time>
      </trkpt>
      <trkpt lat="48.22267" lon="-3.1149">
        <ele>184</ele>
        <time>2020-10-19T14:33:52.000Z</time>
      </trkpt>
      <trkpt lat="48.22267" lon="-3.1149">
        <ele>183.80000305176</ele>
        <time>2020-10-19T14:33:53.000Z</time>
      </trkpt>
      <trkpt lat="48.22266" lon="-3.1149">
        <ele>183.80000305176</ele>
        <time>2020-10-19T14:33:54.000Z</time>
      </trkpt>
      <trkpt lat="48.22265" lon="-3.11489">
        <ele>183.60000610352</ele>
        <time>2020-10-19T14:33:55.000Z</time>
      </trkpt>
      <trkpt lat="48.22264" lon="-3.11488">
        <ele>183.39999389648</ele>
        <time>2020-10-19T14:33:56.000Z</time>
      </trkpt>
      <trkpt lat="48.22264" lon="-3.11487">
        <ele>183.19999694824</ele>
        <time>2020-10-19T14:33:57.000Z</time>
      </trkpt>
      <trkpt lat="48.22263" lon="-3.11486">
        <ele>183</ele>
        <time>2020-10-19T14:33:58.000Z</time>
      </trkpt>
      <trkpt lat="48.22263" lon="-3.11485">
        <ele>182.80000305176</ele>
        <time>2020-10-19T14:33:59.000Z</time>
      </trkpt>
      <trkpt lat="48.22262" lon="-3.11483">
        <ele>182.39999389648</ele>
        <time>2020-10-19T14:34:00.000Z</time>
      </trkpt>
      <trkpt lat="48.22261" lon="-3.11482">
        <ele>182</ele>
        <time>2020-10-19T14:34:01.000Z</time>
      </trkpt>
      <trkpt lat="48.2226" lon="-3.11481">
        <ele>181.80000305176</ele>
        <time>2020-10-19T14:34:02.000Z</time>
      </trkpt>
      <trkpt lat="48.2226" lon="-3.1148">
        <ele>181.39999389648</ele>
        <time>2020-10-19T14:34:03.000Z</time>
      </trkpt>
      <trkpt lat="48.22259" lon="-3.1148">
        <ele>181.19999694824</ele>
        <time>2020-10-19T14:34:04.000Z</time>
      </trkpt>
      <trkpt lat="48.22258" lon="-3.11479">
        <ele>181</ele>
        <time>2020-10-19T14:34:05.000Z</time>
      </trkpt>
      <trkpt lat="48.22257" lon="-3.11479">
        <ele>180.80000305176</ele>
        <time>2020-10-19T14:34:06.000Z</time>
      </trkpt>
      <trkpt lat="48.22256" lon="-3.1148">
        <ele>180.60000610352</ele>
        <time>2020-10-19T14:34:07.000Z</time>
      </trkpt>
      <trkpt lat="48.22255" lon="-3.1148">
        <ele>180.39999389648</ele>
        <time>2020-10-19T14:34:08.000Z</time>
      </trkpt>
      <trkpt lat="48.22255" lon="-3.11481">
        <ele>180.39999389648</ele>
        <time>2020-10-19T14:34:09.000Z</time>
      </trkpt>
      <trkpt lat="48.22255" lon="-3.11482">
        <ele>180.39999389648</ele>
        <time>2020-10-19T14:34:10.000Z</time>
      </trkpt>
      <trkpt lat="48.22254" lon="-3.11483">
        <ele>180.60000610352</ele>
        <time>2020-10-19T14:34:11.000Z</time>
      </trkpt>
      <trkpt lat="48.22254" lon="-3.11484">
        <ele>180.60000610352</ele>
        <time>2020-10-19T14:34:12.000Z</time>
      </trkpt>
      <trkpt lat="48.22254" lon="-3.11485">
        <ele>180.60000610352</ele>
        <time>2020-10-19T14:34:13.000Z</time>
      </trkpt>
      <trkpt lat="48.22253" lon="-3.11486">
        <ele>180.80000305176</ele>
        <time>2020-10-19T14:34:14.000Z</time>
      </trkpt>
      <trkpt lat="48.22253" lon="-3.11488">
        <ele>181</ele>
        <time>2020-10-19T14:34:15.000Z</time>
      </trkpt>
      <trkpt lat="48.22253" lon="-3.11489">
        <ele>181</ele>
        <time>2020-10-19T14:34:16.000Z</time>
      </trkpt>
      <trkpt lat="48.22253" lon="-3.1149">
        <ele>181.19999694824</ele>
        <time>2020-10-19T14:34:17.000Z</time>
      </trkpt>
      <trkpt lat="48.22252" lon="-3.11491">
        <ele>181.19999694824</ele>
        <time>2020-10-19T14:34:18.000Z</time>
      </trkpt>
      <trkpt lat="48.22252" lon="-3.11492">
        <ele>181.19999694824</ele>
        <time>2020-10-19T14:34:19.000Z</time>
      </trkpt>
      <trkpt lat="48.22251" lon="-3.11492">
        <ele>181</ele>
        <time>2020-10-19T14:34:20.000Z</time>
      </trkpt>
      <trkpt lat="48.22251" lon="-3.11492">
        <ele>181</ele>
        <time>2020-10-19T14:34:21.000Z</time>
      </trkpt>
      <trkpt lat="48.2225" lon="-3.11492">
        <ele>180.80000305176</ele>
        <time>2020-10-19T14:34:22.000Z</time>
      </trkpt>
      <trkpt lat="48.2225" lon="-3.11493">
        <ele>180.80000305176</ele>
        <time>2020-10-19T14:34:23.000Z</time>
      </trkpt>
      <trkpt lat="48.22249" lon="-3.11493">
        <ele>180.60000610352</ele>
        <time>2020-10-19T14:34:24.000Z</time>
      </trkpt>
      <trkpt lat="48.22248" lon="-3.11494">
        <ele>180.60000610352</ele>
        <time>2020-10-19T14:34:25.000Z</time>
      </trkpt>
      <trkpt lat="48.22248" lon="-3.11494">
        <ele>180.39999389648</ele>
        <time>2020-10-19T14:34:26.000Z</time>
      </trkpt>
      <trkpt lat="48.22247" lon="-3.11494">
        <ele>180.19999694824</ele>
        <time>2020-10-19T14:34:27.000Z</time>
      </trkpt>
      <trkpt lat="48.22247" lon="-3.11495">
        <ele>180.19999694824</ele>
        <time>2020-10-19T14:34:28.000Z</time>
      </trkpt>
      <trkpt lat="48.22246" lon="-3.11495">
        <ele>180.19999694824</ele>
        <time>2020-10-19T14:34:29.000Z</time>
      </trkpt>
      <trkpt lat="48.22246" lon="-3.11495">
        <ele>180</ele>
        <time>2020-10-19T14:34:30.000Z</time>
      </trkpt>
      <trkpt lat="48.22245" lon="-3.11495">
        <ele>180</ele>
        <time>2020-10-19T14:34:31.000Z</time>
      </trkpt>
      <trkpt lat="48.22245" lon="-3.11496">
        <ele>180</ele>
        <time>2020-10-19T14:34:32.000Z</time>
      </trkpt>
      <trkpt lat="48.22244" lon="-3.11496">
        <ele>179.80000305176</ele>
        <time>2020-10-19T14:34:33.000Z</time>
      </trkpt>
      <trkpt lat="48.22244" lon="-3.11496">
        <ele>179.80000305176</ele>
        <time>2020-10-19T14:34:34.000Z</time>
      </trkpt>
      <trkpt lat="48.22243" lon="-3.11497">
        <ele>179.60000610352</ele>
        <time>2020-10-19T14:34:35.000Z</time>
      </trkpt>
      <trkpt lat="48.22242" lon="-3.11497">
        <ele>179.60000610352</ele>
        <time>2020-10-19T14:34:36.000Z</time>
      </trkpt>
      <trkpt lat="48.22242" lon="-3.11497">
        <ele>179.39999389648</ele>
        <time>2020-10-19T14:34:37.000Z</time>
      </trkpt>
      <trkpt lat="48.22241" lon="-3.11498">
        <ele>179.39999389648</ele>
        <time>2020-10-19T14:34:38.000Z</time>
      </trkpt>
      <trkpt lat="48.2224" lon="-3.11498">
        <ele>179.19999694824</ele>
        <time>2020-10-19T14:34:39.000Z</time>
      </trkpt>
      <trkpt lat="48.22239" lon="-3.11499">
        <ele>179</ele>
        <time>2020-10-19T14:34:40.000Z</time>
      </trkpt>
      <trkpt lat="48.22239" lon="-3.11499">
        <ele>179</ele>
        <time>2020-10-19T14:34:41.000Z</time>
      </trkpt>
      <trkpt lat="48.22238" lon="-3.11499">
        <ele>178.80000305176</ele>
        <time>2020-10-19T14:34:42.000Z</time>
      </trkpt>
      <trkpt lat="48.22237" lon="-3.11499">
        <ele>178.60000610352</ele>
        <time>2020-10-19T14:34:43.000Z</time>
      </trkpt>
      <trkpt lat="48.22236" lon="-3.11499">
        <ele>178.39999389648</ele>
        <time>2020-10-19T14:34:44.000Z</time>
      </trkpt>
      <trkpt lat="48.22236" lon="-3.11499">
        <ele>178.19999694824</ele>
        <time>2020-10-19T14:34:45.000Z</time>
      </trkpt>
      <trkpt lat="48.22236" lon="-3.11499">
        <ele>178.19999694824</ele>
        <time>2020-10-19T14:34:46.000Z</time>
      </trkpt>
      <trkpt lat="48.22235" lon="-3.11499">
        <ele>178.19999694824</ele>
        <time>2020-10-19T14:34:47.000Z</time>
      </trkpt>
      <trkpt lat="48.22235" lon="-3.11498">
        <ele>178</ele>
        <time>2020-10-19T14:34:48.000Z</time>
      </trkpt>
      <trkpt lat="48.22235" lon="-3.11498">
        <ele>178</ele>
        <time>2020-10-19T14:34:49.000Z</time>
      </trkpt>
      <trkpt lat="48.22235" lon="-3.11499">
        <ele>178</ele>
        <time>2020-10-19T14:34:50.000Z</time>
      </trkpt>
      <trkpt lat="48.22235" lon="-3.11499">
        <ele>178</ele>
        <time>2020-10-19T14:34:51.000Z</time>
      </trkpt>
      <trkpt lat="48.22235" lon="-3.11499">
        <ele>178</ele>
        <time>2020-10-19T14:34:52.000Z</time>
      </trkpt>
      <trkpt lat="48.22235" lon="-3.11499">
        <ele>178</ele>
        <time>2020-10-19T14:34:53.000Z</time>
      </trkpt>
      <trkpt lat="48.22235" lon="-3.11499">
        <ele>178</ele>
        <time>2020-10-19T14:34:54.000Z</time>
      </trkpt>
      <trkpt lat="48.22234" lon="-3.11499">
        <ele>177.80000305176</ele>
        <time>2020-10-19T14:34:55.000Z</time>
      </trkpt>
      <trkpt lat="48.22234" lon="-3.11499">
        <ele>177.80000305176</ele>
        <time>2020-10-19T14:34:56.000Z</time>
      </trkpt>
      <trkpt lat="48.22233" lon="-3.11501">
        <ele>177.80000305176</ele>
        <time>2020-10-19T14:34:57.000Z</time>
      </trkpt>
      <trkpt lat="48.22232" lon="-3.11502">
        <ele>177.80000305176</ele>
        <time>2020-10-19T14:34:58.000Z</time>
      </trkpt>
      <trkpt lat="48.22232" lon="-3.11502">
        <ele>177.80000305176</ele>
        <time>2020-10-19T14:34:59.000Z</time>
      </trkpt>
      <trkpt lat="48.22232" lon="-3.11502">
        <ele>177.80000305176</ele>
        <time>2020-10-19T14:35:00.000Z</time>
      </trkpt>
      <trkpt lat="48.22232" lon="-3.11502">
        <ele>177.80000305176</ele>
        <time>2020-10-19T14:35:01.000Z</time>
      </trkpt>
      <trkpt lat="48.22233" lon="-3.11502">
        <ele>177.80000305176</ele>
        <time>2020-10-19T14:35:02.000Z</time>
      </trkpt>
      <trkpt lat="48.22232" lon="-3.11502">
        <ele>177.80000305176</ele>
        <time>2020-10-19T14:35:03.000Z</time>
      </trkpt>
      <trkpt lat="48.22232" lon="-3.11503">
        <ele>177.80000305176</ele>
        <time>2020-10-19T14:35:04.000Z</time>
      </trkpt>
      <trkpt lat="48.22232" lon="-3.11503">
        <ele>177.80000305176</ele>
        <time>2020-10-19T14:35:05.000Z</time>
      </trkpt>
      <trkpt lat="48.22232" lon="-3.11503">
        <ele>177.80000305176</ele>
        <time>2020-10-19T14:35:06.000Z</time>
      </trkpt>
      <trkpt lat="48.22232" lon="-3.11503">
        <ele>177.80000305176</ele>
        <time>2020-10-19T14:35:07.000Z</time>
      </trkpt>
      <trkpt lat="48.22232" lon="-3.11503">
        <ele>177.80000305176</ele>
        <time>2020-10-19T14:35:08.000Z</time>
      </trkpt>
      <trkpt lat="48.22231" lon="-3.11504">
        <ele>177.80000305176</ele>
        <time>2020-10-19T14:35:09.000Z</time>
      </trkpt>
      <trkpt lat="48.22231" lon="-3.11504">
        <ele>177.80000305176</ele>
        <time>2020-10-19T14:35:10.000Z</time>
      </trkpt>
      <trkpt lat="48.22231" lon="-3.11505">
        <ele>177.80000305176</ele>
        <time>2020-10-19T14:35:11.000Z</time>
      </trkpt>
      <trkpt lat="48.22231" lon="-3.11505">
        <ele>177.80000305176</ele>
        <time>2020-10-19T14:35:12.000Z</time>
      </trkpt>
      <trkpt lat="48.22231" lon="-3.11507">
        <ele>178</ele>
        <time>2020-10-19T14:35:13.000Z</time>
      </trkpt>
      <trkpt lat="48.2223" lon="-3.11508">
        <ele>178</ele>
        <time>2020-10-19T14:35:14.000Z</time>
      </trkpt>
      <trkpt lat="48.2223" lon="-3.11509">
        <ele>178</ele>
        <time>2020-10-19T14:35:15.000Z</time>
      </trkpt>
      <trkpt lat="48.22229" lon="-3.1151">
        <ele>178</ele>
        <time>2020-10-19T14:35:16.000Z</time>
      </trkpt>
      <trkpt lat="48.22229" lon="-3.11511">
        <ele>178</ele>
        <time>2020-10-19T14:35:17.000Z</time>
      </trkpt>
      <trkpt lat="48.22228" lon="-3.11512">
        <ele>177.80000305176</ele>
        <time>2020-10-19T14:35:18.000Z</time>
      </trkpt>
      <trkpt lat="48.22227" lon="-3.11513">
        <ele>177.60000610352</ele>
        <time>2020-10-19T14:35:19.000Z</time>
      </trkpt>
      <trkpt lat="48.22226" lon="-3.11514">
        <ele>177.19999694824</ele>
        <time>2020-10-19T14:35:20.000Z</time>
      </trkpt>
      <trkpt lat="48.22224" lon="-3.11515">
        <ele>177</ele>
        <time>2020-10-19T14:35:21.000Z</time>
      </trkpt>
      <trkpt lat="48.22223" lon="-3.11516">
        <ele>176.60000610352</ele>
        <time>2020-10-19T14:35:22.000Z</time>
      </trkpt>
      <trkpt lat="48.22223" lon="-3.11517">
        <ele>176.39999389648</ele>
        <time>2020-10-19T14:35:23.000Z</time>
      </trkpt>
      <trkpt lat="48.22222" lon="-3.11518">
        <ele>176.39999389648</ele>
        <time>2020-10-19T14:35:24.000Z</time>
      </trkpt>
      <trkpt lat="48.22222" lon="-3.11519">
        <ele>176.19999694824</ele>
        <time>2020-10-19T14:35:25.000Z</time>
      </trkpt>
      <trkpt lat="48.22221" lon="-3.11519">
        <ele>176</ele>
        <time>2020-10-19T14:35:26.000Z</time>
      </trkpt>
      <trkpt lat="48.2222" lon="-3.1152">
        <ele>175.80000305176</ele>
        <time>2020-10-19T14:35:27.000Z</time>
      </trkpt>
      <trkpt lat="48.2222" lon="-3.1152">
        <ele>175.80000305176</ele>
        <time>2020-10-19T14:35:28.000Z</time>
      </trkpt>
      <trkpt lat="48.22219" lon="-3.11521">
        <ele>175.60000610352</ele>
        <time>2020-10-19T14:35:29.000Z</time>
      </trkpt>
      <trkpt lat="48.22218" lon="-3.11521">
        <ele>175.39999389648</ele>
        <time>2020-10-19T14:35:30.000Z</time>
      </trkpt>
      <trkpt lat="48.22218" lon="-3.11522">
        <ele>175.39999389648</ele>
        <time>2020-10-19T14:35:31.000Z</time>
      </trkpt>
      <trkpt lat="48.22218" lon="-3.11522">
        <ele>175.19999694824</ele>
        <time>2020-10-19T14:35:32.000Z</time>
      </trkpt>
      <trkpt lat="48.22217" lon="-3.11522">
        <ele>175.19999694824</ele>
        <time>2020-10-19T14:35:33.000Z</time>
      </trkpt>
      <trkpt lat="48.22217" lon="-3.11523">
        <ele>175</ele>
        <time>2020-10-19T14:35:34.000Z</time>
      </trkpt>
      <trkpt lat="48.22217" lon="-3.11523">
        <ele>175</ele>
        <time>2020-10-19T14:35:35.000Z</time>
      </trkpt>
      <trkpt lat="48.22217" lon="-3.11524">
        <ele>175</ele>
        <time>2020-10-19T14:35:36.000Z</time>
      </trkpt>
      <trkpt lat="48.22216" lon="-3.11524">
        <ele>174.80000305176</ele>
        <time>2020-10-19T14:35:37.000Z</time>
      </trkpt>
      <trkpt lat="48.22216" lon="-3.11524">
        <ele>174.80000305176</ele>
        <time>2020-10-19T14:35:38.000Z</time>
      </trkpt>
      <trkpt lat="48.22215" lon="-3.11524">
        <ele>174.60000610352</ele>
        <time>2020-10-19T14:35:39.000Z</time>
      </trkpt>
      <trkpt lat="48.22214" lon="-3.11525">
        <ele>174.39999389648</ele>
        <time>2020-10-19T14:35:40.000Z</time>
      </trkpt>
      <trkpt lat="48.22214" lon="-3.11525">
        <ele>174.39999389648</ele>
        <time>2020-10-19T14:35:41.000Z</time>
      </trkpt>
      <trkpt lat="48.22214" lon="-3.11525">
        <ele>174.19999694824</ele>
        <time>2020-10-19T14:35:42.000Z</time>
      </trkpt>
      <trkpt lat="48.22213" lon="-3.11525">
        <ele>174</ele>
        <time>2020-10-19T14:35:43.000Z</time>
      </trkpt>
      <trkpt lat="48.22212" lon="-3.11526">
        <ele>173.80000305176</ele>
        <time>2020-10-19T14:35:44.000Z</time>
      </trkpt>
      <trkpt lat="48.22212" lon="-3.11526">
        <ele>173.60000610352</ele>
        <time>2020-10-19T14:35:45.000Z</time>
      </trkpt>
      <trkpt lat="48.22211" lon="-3.11527">
        <ele>173.60000610352</ele>
        <time>2020-10-19T14:35:46.000Z</time>
      </trkpt>
      <trkpt lat="48.2221" lon="-3.11527">
        <ele>173.39999389648</ele>
        <time>2020-10-19T14:35:47.000Z</time>
      </trkpt>
      <trkpt lat="48.2221" lon="-3.11528">
        <ele>173.19999694824</ele>
        <time>2020-10-19T14:35:48.000Z</time>
      </trkpt>
      <trkpt lat="48.22209" lon="-3.11528">
        <ele>173</ele>
        <time>2020-10-19T14:35:49.000Z</time>
      </trkpt>
      <trkpt lat="48.22208" lon="-3.11529">
        <ele>172.80000305176</ele>
        <time>2020-10-19T14:35:50.000Z</time>
      </trkpt>
      <trkpt lat="48.22207" lon="-3.1153">
        <ele>172.60000610352</ele>
        <time>2020-10-19T14:35:51.000Z</time>
      </trkpt>
      <trkpt lat="48.22207" lon="-3.1153">
        <ele>172.60000610352</ele>
        <time>2020-10-19T14:35:52.000Z</time>
      </trkpt>
      <trkpt lat="48.22207" lon="-3.11531">
        <ele>172.39999389648</ele>
        <time>2020-10-19T14:35:53.000Z</time>
      </trkpt>
      <trkpt lat="48.22206" lon="-3.11532">
        <ele>172.39999389648</ele>
        <time>2020-10-19T14:35:54.000Z</time>
      </trkpt>
      <trkpt lat="48.22206" lon="-3.11533">
        <ele>172.19999694824</ele>
        <time>2020-10-19T14:35:55.000Z</time>
      </trkpt>
      <trkpt lat="48.22205" lon="-3.11533">
        <ele>172</ele>
        <time>2020-10-19T14:35:56.000Z</time>
      </trkpt>
      <trkpt lat="48.22204" lon="-3.11535">
        <ele>171.80000305176</ele>
        <time>2020-10-19T14:35:57.000Z</time>
      </trkpt>
      <trkpt lat="48.22204" lon="-3.11536">
        <ele>171.80000305176</ele>
        <time>2020-10-19T14:35:58.000Z</time>
      </trkpt>
      <trkpt lat="48.22203" lon="-3.11537">
        <ele>171.60000610352</ele>
        <time>2020-10-19T14:35:59.000Z</time>
      </trkpt>
      <trkpt lat="48.22203" lon="-3.11539">
        <ele>171.60000610352</ele>
        <time>2020-10-19T14:36:00.000Z</time>
      </trkpt>
      <trkpt lat="48.22203" lon="-3.11541">
        <ele>171.39999389648</ele>
        <time>2020-10-19T14:36:01.000Z</time>
      </trkpt>
      <trkpt lat="48.22202" lon="-3.11544">
        <ele>171.19999694824</ele>
        <time>2020-10-19T14:36:02.000Z</time>
      </trkpt>
      <trkpt lat="48.22202" lon="-3.11544">
        <ele>171.19999694824</ele>
        <time>2020-10-19T14:36:03.000Z</time>
      </trkpt>
      <trkpt lat="48.22201" lon="-3.11545">
        <ele>171</ele>
        <time>2020-10-19T14:36:04.000Z</time>
      </trkpt>
      <trkpt lat="48.22201" lon="-3.11546">
        <ele>170.80000305176</ele>
        <time>2020-10-19T14:36:05.000Z</time>
      </trkpt>
      <trkpt lat="48.222" lon="-3.11547">
        <ele>170.80000305176</ele>
        <time>2020-10-19T14:36:06.000Z</time>
      </trkpt>
      <trkpt lat="48.222" lon="-3.11549">
        <ele>170.60000610352</ele>
        <time>2020-10-19T14:36:07.000Z</time>
      </trkpt>
      <trkpt lat="48.22199" lon="-3.1155">
        <ele>170.39999389648</ele>
        <time>2020-10-19T14:36:08.000Z</time>
      </trkpt>
      <trkpt lat="48.22199" lon="-3.11551">
        <ele>170.39999389648</ele>
        <time>2020-10-19T14:36:09.000Z</time>
      </trkpt>
      <trkpt lat="48.22199" lon="-3.11552">
        <ele>170.39999389648</ele>
        <time>2020-10-19T14:36:10.000Z</time>
      </trkpt>
      <trkpt lat="48.22199" lon="-3.11552">
        <ele>170.19999694824</ele>
        <time>2020-10-19T14:36:11.000Z</time>
      </trkpt>
      <trkpt lat="48.22199" lon="-3.11553">
        <ele>170.19999694824</ele>
        <time>2020-10-19T14:36:12.000Z</time>
      </trkpt>
      <trkpt lat="48.22198" lon="-3.11554">
        <ele>170.19999694824</ele>
        <time>2020-10-19T14:36:13.000Z</time>
      </trkpt>
      <trkpt lat="48.22198" lon="-3.11555">
        <ele>170.19999694824</ele>
        <time>2020-10-19T14:36:14.000Z</time>
      </trkpt>
      <trkpt lat="48.22198" lon="-3.11555">
        <ele>170.19999694824</ele>
        <time>2020-10-19T14:36:15.000Z</time>
      </trkpt>
      <trkpt lat="48.22199" lon="-3.11556">
        <ele>170.19999694824</ele>
        <time>2020-10-19T14:36:16.000Z</time>
      </trkpt>
      <trkpt lat="48.22199" lon="-3.11557">
        <ele>170.19999694824</ele>
        <time>2020-10-19T14:36:17.000Z</time>
      </trkpt>
      <trkpt lat="48.22199" lon="-3.11557">
        <ele>170.19999694824</ele>
        <time>2020-10-19T14:36:18.000Z</time>
      </trkpt>
      <trkpt lat="48.22199" lon="-3.11558">
        <ele>170.19999694824</ele>
        <time>2020-10-19T14:36:19.000Z</time>
      </trkpt>
      <trkpt lat="48.22199" lon="-3.11558">
        <ele>170.19999694824</ele>
        <time>2020-10-19T14:36:20.000Z</time>
      </trkpt>
      <trkpt lat="48.22199" lon="-3.11559">
        <ele>170.19999694824</ele>
        <time>2020-10-19T14:36:21.000Z</time>
      </trkpt>
      <trkpt lat="48.22199" lon="-3.11559">
        <ele>170.19999694824</ele>
        <time>2020-10-19T14:36:22.000Z</time>
      </trkpt>
      <trkpt lat="48.22199" lon="-3.1156">
        <ele>170.19999694824</ele>
        <time>2020-10-19T14:36:23.000Z</time>
      </trkpt>
      <trkpt lat="48.22199" lon="-3.1156">
        <ele>170.19999694824</ele>
        <time>2020-10-19T14:36:24.000Z</time>
      </trkpt>
      <trkpt lat="48.22199" lon="-3.1156">
        <ele>170.19999694824</ele>
        <time>2020-10-19T14:36:25.000Z</time>
      </trkpt>
      <trkpt lat="48.22199" lon="-3.1156">
        <ele>170.39999389648</ele>
        <time>2020-10-19T14:36:26.000Z</time>
      </trkpt>
      <trkpt lat="48.22199" lon="-3.1156">
        <ele>170.39999389648</ele>
        <time>2020-10-19T14:36:27.000Z</time>
      </trkpt>
      <trkpt lat="48.222" lon="-3.1156">
        <ele>170.39999389648</ele>
        <time>2020-10-19T14:36:28.000Z</time>
      </trkpt>
      <trkpt lat="48.222" lon="-3.1156">
        <ele>170.39999389648</ele>
        <time>2020-10-19T14:36:29.000Z</time>
      </trkpt>
      <trkpt lat="48.222" lon="-3.1156">
        <ele>170.39999389648</ele>
        <time>2020-10-19T14:36:30.000Z</time>
      </trkpt>
      <trkpt lat="48.22199" lon="-3.1156">
        <ele>170.39999389648</ele>
        <time>2020-10-19T14:36:31.000Z</time>
      </trkpt>
      <trkpt lat="48.22199" lon="-3.1156">
        <ele>170.39999389648</ele>
        <time>2020-10-19T14:36:32.000Z</time>
      </trkpt>
      <trkpt lat="48.22199" lon="-3.1156">
        <ele>170.39999389648</ele>
        <time>2020-10-19T14:36:33.000Z</time>
      </trkpt>
      <trkpt lat="48.222" lon="-3.1156">
        <ele>170.39999389648</ele>
        <time>2020-10-19T14:36:34.000Z</time>
      </trkpt>
      <trkpt lat="48.222" lon="-3.1156">
        <ele>170.39999389648</ele>
        <time>2020-10-19T14:36:35.000Z</time>
      </trkpt>
      <trkpt lat="48.222" lon="-3.1156">
        <ele>170.39999389648</ele>
        <time>2020-10-19T14:36:36.000Z</time>
      </trkpt>
      <trkpt lat="48.222" lon="-3.1156">
        <ele>170.39999389648</ele>
        <time>2020-10-19T14:36:37.000Z</time>
      </trkpt>
      <trkpt lat="48.222" lon="-3.1156">
        <ele>170.39999389648</ele>
        <time>2020-10-19T14:36:38.000Z</time>
      </trkpt>
      <trkpt lat="48.222" lon="-3.1156">
        <ele>170.39999389648</ele>
        <time>2020-10-19T14:36:39.000Z</time>
      </trkpt>
      <trkpt lat="48.222" lon="-3.1156">
        <ele>170.60000610352</ele>
        <time>2020-10-19T14:36:40.000Z</time>
      </trkpt>
      <trkpt lat="48.222" lon="-3.1156">
        <ele>170.60000610352</ele>
        <time>2020-10-19T14:36:41.000Z</time>
      </trkpt>
      <trkpt lat="48.222" lon="-3.1156">
        <ele>170.60000610352</ele>
        <time>2020-10-19T14:36:42.000Z</time>
      </trkpt>
      <trkpt lat="48.222" lon="-3.1156">
        <ele>170.60000610352</ele>
        <time>2020-10-19T14:36:43.000Z</time>
      </trkpt>
      <trkpt lat="48.222" lon="-3.1156">
        <ele>170.60000610352</ele>
        <time>2020-10-19T14:36:44.000Z</time>
      </trkpt>
      <trkpt lat="48.222" lon="-3.1156">
        <ele>170.60000610352</ele>
        <time>2020-10-19T14:36:45.000Z</time>
      </trkpt>
      <trkpt lat="48.222" lon="-3.11559">
        <ele>170.60000610352</ele>
        <time>2020-10-19T14:36:46.000Z</time>
      </trkpt>
      <trkpt lat="48.222" lon="-3.11559">
        <ele>170.60000610352</ele>
        <time>2020-10-19T14:36:47.000Z</time>
      </trkpt>
      <trkpt lat="48.222" lon="-3.11559">
        <ele>170.60000610352</ele>
        <time>2020-10-19T14:36:48.000Z</time>
      </trkpt>
      <trkpt lat="48.222" lon="-3.11559">
        <ele>170.60000610352</ele>
        <time>2020-10-19T14:36:49.000Z</time>
      </trkpt>
      <trkpt lat="48.222" lon="-3.11559">
        <ele>170.60000610352</ele>
        <time>2020-10-19T14:36:50.000Z</time>
      </trkpt>
      <trkpt lat="48.222" lon="-3.11559">
        <ele>170.39999389648</ele>
        <time>2020-10-19T14:36:51.000Z</time>
      </trkpt>
      <trkpt lat="48.222" lon="-3.11559">
        <ele>170.39999389648</ele>
        <time>2020-10-19T14:36:52.000Z</time>
      </trkpt>
      <trkpt lat="48.22199" lon="-3.11559">
        <ele>170.39999389648</ele>
        <time>2020-10-19T14:36:53.000Z</time>
      </trkpt>
      <trkpt lat="48.22199" lon="-3.1156">
        <ele>170.19999694824</ele>
        <time>2020-10-19T14:36:54.000Z</time>
      </trkpt>
      <trkpt lat="48.22199" lon="-3.11561">
        <ele>170.19999694824</ele>
        <time>2020-10-19T14:36:55.000Z</time>
      </trkpt>
      <trkpt lat="48.22199" lon="-3.11562">
        <ele>170.19999694824</ele>
        <time>2020-10-19T14:36:56.000Z</time>
      </trkpt>
      <trkpt lat="48.22198" lon="-3.11562">
        <ele>170</ele>
        <time>2020-10-19T14:36:57.000Z</time>
      </trkpt>
      <trkpt lat="48.22198" lon="-3.11563">
        <ele>170</ele>
        <time>2020-10-19T14:36:58.000Z</time>
      </trkpt>
      <trkpt lat="48.22198" lon="-3.11564">
        <ele>170</ele>
        <time>2020-10-19T14:36:59.000Z</time>
      </trkpt>
      <trkpt lat="48.22198" lon="-3.11565">
        <ele>169.80000305176</ele>
        <time>2020-10-19T14:37:00.000Z</time>
      </trkpt>
      <trkpt lat="48.22197" lon="-3.11566">
        <ele>169.80000305176</ele>
        <time>2020-10-19T14:37:01.000Z</time>
      </trkpt>
      <trkpt lat="48.22196" lon="-3.11567">
        <ele>169.60000610352</ele>
        <time>2020-10-19T14:37:02.000Z</time>
      </trkpt>
      <trkpt lat="48.22196" lon="-3.11568">
        <ele>169.39999389648</ele>
        <time>2020-10-19T14:37:03.000Z</time>
      </trkpt>
      <trkpt lat="48.22196" lon="-3.11569">
        <ele>169.39999389648</ele>
        <time>2020-10-19T14:37:04.000Z</time>
      </trkpt>
      <trkpt lat="48.22196" lon="-3.1157">
        <ele>169.39999389648</ele>
        <time>2020-10-19T14:37:05.000Z</time>
      </trkpt>
      <trkpt lat="48.22195" lon="-3.11571">
        <ele>169.19999694824</ele>
        <time>2020-10-19T14:37:06.000Z</time>
      </trkpt>
      <trkpt lat="48.22195" lon="-3.11572">
        <ele>169.19999694824</ele>
        <time>2020-10-19T14:37:07.000Z</time>
      </trkpt>
      <trkpt lat="48.22194" lon="-3.11573">
        <ele>169</ele>
        <time>2020-10-19T14:37:08.000Z</time>
      </trkpt>
      <trkpt lat="48.22194" lon="-3.11574">
        <ele>169</ele>
        <time>2020-10-19T14:37:09.000Z</time>
      </trkpt>
      <trkpt lat="48.22193" lon="-3.11574">
        <ele>168.80000305176</ele>
        <time>2020-10-19T14:37:10.000Z</time>
      </trkpt>
      <trkpt lat="48.22193" lon="-3.11575">
        <ele>168.60000610352</ele>
        <time>2020-10-19T14:37:11.000Z</time>
      </trkpt>
      <trkpt lat="48.22192" lon="-3.11576">
        <ele>168.39999389648</ele>
        <time>2020-10-19T14:37:12.000Z</time>
      </trkpt>
      <trkpt lat="48.22191" lon="-3.11576">
        <ele>168.19999694824</ele>
        <time>2020-10-19T14:37:13.000Z</time>
      </trkpt>
      <trkpt lat="48.2219" lon="-3.11577">
        <ele>168</ele>
        <time>2020-10-19T14:37:14.000Z</time>
      </trkpt>
      <trkpt lat="48.2219" lon="-3.11577">
        <ele>167.80000305176</ele>
        <time>2020-10-19T14:37:15.000Z</time>
      </trkpt>
      <trkpt lat="48.22189" lon="-3.11578">
        <ele>167.60000610352</ele>
        <time>2020-10-19T14:37:16.000Z</time>
      </trkpt>
      <trkpt lat="48.22189" lon="-3.11578">
        <ele>167.60000610352</ele>
        <time>2020-10-19T14:37:17.000Z</time>
      </trkpt>
      <trkpt lat="48.22188" lon="-3.11577">
        <ele>167.60000610352</ele>
        <time>2020-10-19T14:37:18.000Z</time>
      </trkpt>
      <trkpt lat="48.22188" lon="-3.11577">
        <ele>167.39999389648</ele>
        <time>2020-10-19T14:37:19.000Z</time>
      </trkpt>
      <trkpt lat="48.22188" lon="-3.11577">
        <ele>167.39999389648</ele>
        <time>2020-10-19T14:37:20.000Z</time>
      </trkpt>
      <trkpt lat="48.22187" lon="-3.11577">
        <ele>167.19999694824</ele>
        <time>2020-10-19T14:37:21.000Z</time>
      </trkpt>
      <trkpt lat="48.22186" lon="-3.11578">
        <ele>167</ele>
        <time>2020-10-19T14:37:22.000Z</time>
      </trkpt>
      <trkpt lat="48.22186" lon="-3.11579">
        <ele>167</ele>
        <time>2020-10-19T14:37:23.000Z</time>
      </trkpt>
      <trkpt lat="48.22186" lon="-3.11581">
        <ele>167</ele>
        <time>2020-10-19T14:37:24.000Z</time>
      </trkpt>
      <trkpt lat="48.22186" lon="-3.11582">
        <ele>167</ele>
        <time>2020-10-19T14:37:25.000Z</time>
      </trkpt>
      <trkpt lat="48.22186" lon="-3.11583">
        <ele>167</ele>
        <time>2020-10-19T14:37:26.000Z</time>
      </trkpt>
      <trkpt lat="48.22187" lon="-3.11585">
        <ele>167</ele>
        <time>2020-10-19T14:37:27.000Z</time>
      </trkpt>
      <trkpt lat="48.22188" lon="-3.11586">
        <ele>167.39999389648</ele>
        <time>2020-10-19T14:37:28.000Z</time>
      </trkpt>
      <trkpt lat="48.22188" lon="-3.11587">
        <ele>167.60000610352</ele>
        <time>2020-10-19T14:37:29.000Z</time>
      </trkpt>
      <trkpt lat="48.22188" lon="-3.11587">
        <ele>167.80000305176</ele>
        <time>2020-10-19T14:37:30.000Z</time>
      </trkpt>
      <trkpt lat="48.22188" lon="-3.11588">
        <ele>167.80000305176</ele>
        <time>2020-10-19T14:37:31.000Z</time>
      </trkpt>
      <trkpt lat="48.22189" lon="-3.11589">
        <ele>168</ele>
        <time>2020-10-19T14:37:32.000Z</time>
      </trkpt>
      <trkpt lat="48.22188" lon="-3.1159">
        <ele>168</ele>
        <time>2020-10-19T14:37:33.000Z</time>
      </trkpt>
      <trkpt lat="48.22188" lon="-3.11591">
        <ele>168.19999694824</ele>
        <time>2020-10-19T14:37:34.000Z</time>
      </trkpt>
      <trkpt lat="48.22189" lon="-3.11593">
        <ele>168.39999389648</ele>
        <time>2020-10-19T14:37:35.000Z</time>
      </trkpt>
      <trkpt lat="48.22189" lon="-3.11594">
        <ele>168.39999389648</ele>
        <time>2020-10-19T14:37:36.000Z</time>
      </trkpt>
      <trkpt lat="48.22188" lon="-3.11594">
        <ele>168.39999389648</ele>
        <time>2020-10-19T14:37:37.000Z</time>
      </trkpt>
      <trkpt lat="48.22188" lon="-3.11595">
        <ele>168.39999389648</ele>
        <time>2020-10-19T14:37:38.000Z</time>
      </trkpt>
      <trkpt lat="48.22188" lon="-3.11596">
        <ele>168.39999389648</ele>
        <time>2020-10-19T14:37:39.000Z</time>
      </trkpt>
      <trkpt lat="48.22188" lon="-3.11596">
        <ele>168.19999694824</ele>
        <time>2020-10-19T14:37:40.000Z</time>
      </trkpt>
      <trkpt lat="48.22188" lon="-3.11596">
        <ele>168.19999694824</ele>
        <time>2020-10-19T14:37:41.000Z</time>
      </trkpt>
      <trkpt lat="48.22188" lon="-3.11596">
        <ele>168.19999694824</ele>
        <time>2020-10-19T14:37:42.000Z</time>
      </trkpt>
      <trkpt lat="48.22188" lon="-3.11596">
        <ele>168.19999694824</ele>
        <time>2020-10-19T14:37:43.000Z</time>
      </trkpt>
      <trkpt lat="48.22187" lon="-3.11596">
        <ele>168</ele>
        <time>2020-10-19T14:37:44.000Z</time>
      </trkpt>
      <trkpt lat="48.22187" lon="-3.11596">
        <ele>168</ele>
        <time>2020-10-19T14:37:45.000Z</time>
      </trkpt>
      <trkpt lat="48.22188" lon="-3.11595">
        <ele>168</ele>
        <time>2020-10-19T14:37:46.000Z</time>
      </trkpt>
      <trkpt lat="48.22188" lon="-3.11595">
        <ele>168.19999694824</ele>
        <time>2020-10-19T14:37:47.000Z</time>
      </trkpt>
      <trkpt lat="48.22188" lon="-3.11595">
        <ele>168</ele>
        <time>2020-10-19T14:37:48.000Z</time>
      </trkpt>
      <trkpt lat="48.22188" lon="-3.11594">
        <ele>168.19999694824</ele>
        <time>2020-10-19T14:37:49.000Z</time>
      </trkpt>
      <trkpt lat="48.22187" lon="-3.11594">
        <ele>168</ele>
        <time>2020-10-19T14:37:50.000Z</time>
      </trkpt>
      <trkpt lat="48.22188" lon="-3.11594">
        <ele>168</ele>
        <time>2020-10-19T14:37:51.000Z</time>
      </trkpt>
      <trkpt lat="48.22188" lon="-3.11594">
        <ele>168.39999389648</ele>
        <time>2020-10-19T14:37:52.000Z</time>
      </trkpt>
      <trkpt lat="48.22189" lon="-3.11593">
        <ele>168.39999389648</ele>
        <time>2020-10-19T14:37:53.000Z</time>
      </trkpt>
      <trkpt lat="48.22189" lon="-3.11593">
        <ele>168.39999389648</ele>
        <time>2020-10-19T14:37:54.000Z</time>
      </trkpt>
      <trkpt lat="48.22188" lon="-3.11592">
        <ele>168.19999694824</ele>
        <time>2020-10-19T14:37:55.000Z</time>
      </trkpt>
      <trkpt lat="48.22188" lon="-3.11592">
        <ele>168</ele>
        <time>2020-10-19T14:37:56.000Z</time>
      </trkpt>
      <trkpt lat="48.22187" lon="-3.11591">
        <ele>167.60000610352</ele>
        <time>2020-10-19T14:37:57.000Z</time>
      </trkpt>
      <trkpt lat="48.22186" lon="-3.11591">
        <ele>167.19999694824</ele>
        <time>2020-10-19T14:37:58.000Z</time>
      </trkpt>
      <trkpt lat="48.22185" lon="-3.1159">
        <ele>167</ele>
        <time>2020-10-19T14:37:59.000Z</time>
      </trkpt>
      <trkpt lat="48.22185" lon="-3.11589">
        <ele>166.60000610352</ele>
        <time>2020-10-19T14:38:00.000Z</time>
      </trkpt>
      <trkpt lat="48.22184" lon="-3.11588">
        <ele>166.39999389648</ele>
        <time>2020-10-19T14:38:01.000Z</time>
      </trkpt>
      <trkpt lat="48.22184" lon="-3.11588">
        <ele>166.19999694824</ele>
        <time>2020-10-19T14:38:02.000Z</time>
      </trkpt>
      <trkpt lat="48.22183" lon="-3.11588">
        <ele>166.19999694824</ele>
        <time>2020-10-19T14:38:03.000Z</time>
      </trkpt>
      <trkpt lat="48.22183" lon="-3.11589">
        <ele>166.19999694824</ele>
        <time>2020-10-19T14:38:04.000Z</time>
      </trkpt>
      <trkpt lat="48.22183" lon="-3.11589">
        <ele>166.19999694824</ele>
        <time>2020-10-19T14:38:05.000Z</time>
      </trkpt>
      <trkpt lat="48.22183" lon="-3.11588">
        <ele>166</ele>
        <time>2020-10-19T14:38:06.000Z</time>
      </trkpt>
      <trkpt lat="48.22183" lon="-3.11588">
        <ele>166</ele>
        <time>2020-10-19T14:38:07.000Z</time>
      </trkpt>
      <trkpt lat="48.22183" lon="-3.11588">
        <ele>166</ele>
        <time>2020-10-19T14:38:08.000Z</time>
      </trkpt>
      <trkpt lat="48.22183" lon="-3.11588">
        <ele>166</ele>
        <time>2020-10-19T14:38:09.000Z</time>
      </trkpt>
      <trkpt lat="48.22183" lon="-3.11588">
        <ele>166</ele>
        <time>2020-10-19T14:38:10.000Z</time>
      </trkpt>
      <trkpt lat="48.22183" lon="-3.11588">
        <ele>166</ele>
        <time>2020-10-19T14:38:11.000Z</time>
      </trkpt>
      <trkpt lat="48.22183" lon="-3.11588">
        <ele>166</ele>
        <time>2020-10-19T14:38:12.000Z</time>
      </trkpt>
      <trkpt lat="48.22183" lon="-3.11588">
        <ele>166</ele>
        <time>2020-10-19T14:38:13.000Z</time>
      </trkpt>
      <trkpt lat="48.22183" lon="-3.11588">
        <ele>166</ele>
        <time>2020-10-19T14:38:14.000Z</time>
      </trkpt>
      <trkpt lat="48.22183" lon="-3.11588">
        <ele>166</ele>
        <time>2020-10-19T14:38:15.000Z</time>
      </trkpt>
      <trkpt lat="48.22183" lon="-3.11588">
        <ele>166</ele>
        <time>2020-10-19T14:38:16.000Z</time>
      </trkpt>
      <trkpt lat="48.22183" lon="-3.11588">
        <ele>166</ele>
        <time>2020-10-19T14:38:17.000Z</time>
      </trkpt>
      <trkpt lat="48.22183" lon="-3.11588">
        <ele>166</ele>
        <time>2020-10-19T14:38:18.000Z</time>
      </trkpt>
      <trkpt lat="48.22183" lon="-3.11588">
        <ele>166</ele>
        <time>2020-10-19T14:38:19.000Z</time>
      </trkpt>
      <trkpt lat="48.22183" lon="-3.11588">
        <ele>166</ele>
        <time>2020-10-19T14:38:20.000Z</time>
      </trkpt>
      <trkpt lat="48.22183" lon="-3.11588">
        <ele>166</ele>
        <time>2020-10-19T14:38:21.000Z</time>
      </trkpt>
      <trkpt lat="48.22183" lon="-3.11588">
        <ele>166</ele>
        <time>2020-10-19T14:38:22.000Z</time>
      </trkpt>
      <trkpt lat="48.22183" lon="-3.11588">
        <ele>166</ele>
        <time>2020-10-19T14:38:23.000Z</time>
      </trkpt>
      <trkpt lat="48.22183" lon="-3.11588">
        <ele>166</ele>
        <time>2020-10-19T14:38:24.000Z</time>
      </trkpt>
      <trkpt lat="48.22183" lon="-3.11588">
        <ele>166</ele>
        <time>2020-10-19T14:38:25.000Z</time>
      </trkpt>
      <trkpt lat="48.22183" lon="-3.11588">
        <ele>166</ele>
        <time>2020-10-19T14:38:26.000Z</time>
      </trkpt>
      <trkpt lat="48.22183" lon="-3.11589">
        <ele>166.19999694824</ele>
        <time>2020-10-19T14:38:27.000Z</time>
      </trkpt>
      <trkpt lat="48.22183" lon="-3.11589">
        <ele>166.19999694824</ele>
        <time>2020-10-19T14:38:28.000Z</time>
      </trkpt>
      <trkpt lat="48.22183" lon="-3.11589">
        <ele>166.19999694824</ele>
        <time>2020-10-19T14:38:29.000Z</time>
      </trkpt>
      <trkpt lat="48.22183" lon="-3.11589">
        <ele>166.19999694824</ele>
        <time>2020-10-19T14:38:30.000Z</time>
      </trkpt>
      <trkpt lat="48.22184" lon="-3.11589">
        <ele>166.19999694824</ele>
        <time>2020-10-19T14:38:31.000Z</time>
      </trkpt>
      <trkpt lat="48.22183" lon="-3.11589">
        <ele>166.19999694824</ele>
        <time>2020-10-19T14:38:32.000Z</time>
      </trkpt>
      <trkpt lat="48.22183" lon="-3.11589">
        <ele>166.19999694824</ele>
        <time>2020-10-19T14:38:33.000Z</time>
      </trkpt>
      <trkpt lat="48.22183" lon="-3.11589">
        <ele>166.19999694824</ele>
        <time>2020-10-19T14:38:34.000Z</time>
      </trkpt>
      <trkpt lat="48.22183" lon="-3.11589">
        <ele>166.19999694824</ele>
        <time>2020-10-19T14:38:35.000Z</time>
      </trkpt>
      <trkpt lat="48.22183" lon="-3.11589">
        <ele>166.19999694824</ele>
        <time>2020-10-19T14:38:36.000Z</time>
      </trkpt>
      <trkpt lat="48.22183" lon="-3.11589">
        <ele>166.19999694824</ele>
        <time>2020-10-19T14:38:37.000Z</time>
      </trkpt>
      <trkpt lat="48.22183" lon="-3.11589">
        <ele>166.19999694824</ele>
        <time>2020-10-19T14:38:38.000Z</time>
      </trkpt>
      <trkpt lat="48.22183" lon="-3.11589">
        <ele>166.19999694824</ele>
        <time>2020-10-19T14:38:39.000Z</time>
      </trkpt>
      <trkpt lat="48.22183" lon="-3.11589">
        <ele>166.19999694824</ele>
        <time>2020-10-19T14:38:40.000Z</time>
      </trkpt>
      <trkpt lat="48.22183" lon="-3.1159">
        <ele>166.19999694824</ele>
        <time>2020-10-19T14:38:41.000Z</time>
      </trkpt>
      <trkpt lat="48.22183" lon="-3.1159">
        <ele>166.19999694824</ele>
        <time>2020-10-19T14:38:42.000Z</time>
      </trkpt>
      <trkpt lat="48.22183" lon="-3.1159">
        <ele>166.19999694824</ele>
        <time>2020-10-19T14:38:43.000Z</time>
      </trkpt>
      <trkpt lat="48.22183" lon="-3.11589">
        <ele>166.19999694824</ele>
        <time>2020-10-19T14:38:44.000Z</time>
      </trkpt>
      <trkpt lat="48.22183" lon="-3.11589">
        <ele>166.19999694824</ele>
        <time>2020-10-19T14:38:45.000Z</time>
      </trkpt>
      <trkpt lat="48.22183" lon="-3.11589">
        <ele>166.19999694824</ele>
        <time>2020-10-19T14:38:46.000Z</time>
      </trkpt>
      <trkpt lat="48.22183" lon="-3.11588">
        <ele>166.19999694824</ele>
        <time>2020-10-19T14:38:47.000Z</time>
      </trkpt>
      <trkpt lat="48.22183" lon="-3.11588">
        <ele>166</ele>
        <time>2020-10-19T14:38:48.000Z</time>
      </trkpt>
      <trkpt lat="48.22183" lon="-3.11587">
        <ele>166</ele>
        <time>2020-10-19T14:38:49.000Z</time>
      </trkpt>
      <trkpt lat="48.22183" lon="-3.11587">
        <ele>166</ele>
        <time>2020-10-19T14:38:50.000Z</time>
      </trkpt>
      <trkpt lat="48.22183" lon="-3.11586">
        <ele>166</ele>
        <time>2020-10-19T14:38:51.000Z</time>
      </trkpt>
      <trkpt lat="48.22182" lon="-3.11585">
        <ele>166</ele>
        <time>2020-10-19T14:38:52.000Z</time>
      </trkpt>
      <trkpt lat="48.22182" lon="-3.11585">
        <ele>165.80000305176</ele>
        <time>2020-10-19T14:38:53.000Z</time>
      </trkpt>
      <trkpt lat="48.22181" lon="-3.11584">
        <ele>165.80000305176</ele>
        <time>2020-10-19T14:38:54.000Z</time>
      </trkpt>
      <trkpt lat="48.22181" lon="-3.11584">
        <ele>165.60000610352</ele>
        <time>2020-10-19T14:38:55.000Z</time>
      </trkpt>
      <trkpt lat="48.2218" lon="-3.11584">
        <ele>165.39999389648</ele>
        <time>2020-10-19T14:38:56.000Z</time>
      </trkpt>
      <trkpt lat="48.2218" lon="-3.11584">
        <ele>165.39999389648</ele>
        <time>2020-10-19T14:38:57.000Z</time>
      </trkpt>
      <trkpt lat="48.22179" lon="-3.11584">
        <ele>165.19999694824</ele>
        <time>2020-10-19T14:38:58.000Z</time>
      </trkpt>
      <trkpt lat="48.22178" lon="-3.11584">
        <ele>165.19999694824</ele>
        <time>2020-10-19T14:38:59.000Z</time>
      </trkpt>
      <trkpt lat="48.22177" lon="-3.11584">
        <ele>165.39999389648</ele>
        <time>2020-10-19T14:39:00.000Z</time>
      </trkpt>
      <trkpt lat="48.22176" lon="-3.11585">
        <ele>165.39999389648</ele>
        <time>2020-10-19T14:39:01.000Z</time>
      </trkpt>
      <trkpt lat="48.22175" lon="-3.11585">
        <ele>165.60000610352</ele>
        <time>2020-10-19T14:39:02.000Z</time>
      </trkpt>
      <trkpt lat="48.22174" lon="-3.11585">
        <ele>165.60000610352</ele>
        <time>2020-10-19T14:39:03.000Z</time>
      </trkpt>
      <trkpt lat="48.22173" lon="-3.11585">
        <ele>165.80000305176</ele>
        <time>2020-10-19T14:39:04.000Z</time>
      </trkpt>
      <trkpt lat="48.22173" lon="-3.11585">
        <ele>165.80000305176</ele>
        <time>2020-10-19T14:39:05.000Z</time>
      </trkpt>
      <trkpt lat="48.22173" lon="-3.11585">
        <ele>165.80000305176</ele>
        <time>2020-10-19T14:39:06.000Z</time>
      </trkpt>
      <trkpt lat="48.22172" lon="-3.11585">
        <ele>165.80000305176</ele>
        <time>2020-10-19T14:39:07.000Z</time>
      </trkpt>
      <trkpt lat="48.22172" lon="-3.11584">
        <ele>166</ele>
        <time>2020-10-19T14:39:08.000Z</time>
      </trkpt>
      <trkpt lat="48.22171" lon="-3.11584">
        <ele>166</ele>
        <time>2020-10-19T14:39:09.000Z</time>
      </trkpt>
      <trkpt lat="48.22171" lon="-3.11584">
        <ele>166</ele>
        <time>2020-10-19T14:39:10.000Z</time>
      </trkpt>
      <trkpt lat="48.2217" lon="-3.11583">
        <ele>166.19999694824</ele>
        <time>2020-10-19T14:39:11.000Z</time>
      </trkpt>
      <trkpt lat="48.2217" lon="-3.11583">
        <ele>166.19999694824</ele>
        <time>2020-10-19T14:39:12.000Z</time>
      </trkpt>
      <trkpt lat="48.22169" lon="-3.11583">
        <ele>166.39999389648</ele>
        <time>2020-10-19T14:39:13.000Z</time>
      </trkpt>
      <trkpt lat="48.22167" lon="-3.11583">
        <ele>166.39999389648</ele>
        <time>2020-10-19T14:39:14.000Z</time>
      </trkpt>
      <trkpt lat="48.22166" lon="-3.11584">
        <ele>166.60000610352</ele>
        <time>2020-10-19T14:39:15.000Z</time>
      </trkpt>
      <trkpt lat="48.22164" lon="-3.11585">
        <ele>166.80000305176</ele>
        <time>2020-10-19T14:39:16.000Z</time>
      </trkpt>
      <trkpt lat="48.22163" lon="-3.11585">
        <ele>167</ele>
        <time>2020-10-19T14:39:17.000Z</time>
      </trkpt>
      <trkpt lat="48.22162" lon="-3.11585">
        <ele>167.19999694824</ele>
        <time>2020-10-19T14:39:18.000Z</time>
      </trkpt>
      <trkpt lat="48.22161" lon="-3.11586">
        <ele>167.19999694824</ele>
        <time>2020-10-19T14:39:19.000Z</time>
      </trkpt>
      <trkpt lat="48.2216" lon="-3.11586">
        <ele>167.39999389648</ele>
        <time>2020-10-19T14:39:20.000Z</time>
      </trkpt>
      <trkpt lat="48.22159" lon="-3.11587">
        <ele>167.39999389648</ele>
        <time>2020-10-19T14:39:21.000Z</time>
      </trkpt>
      <trkpt lat="48.22158" lon="-3.11588">
        <ele>167.60000610352</ele>
        <time>2020-10-19T14:39:22.000Z</time>
      </trkpt>
      <trkpt lat="48.22157" lon="-3.1159">
        <ele>167.60000610352</ele>
        <time>2020-10-19T14:39:23.000Z</time>
      </trkpt>
      <trkpt lat="48.22156" lon="-3.11591">
        <ele>167.80000305176</ele>
        <time>2020-10-19T14:39:24.000Z</time>
      </trkpt>
      <trkpt lat="48.22155" lon="-3.11592">
        <ele>167.80000305176</ele>
        <time>2020-10-19T14:39:25.000Z</time>
      </trkpt>
      <trkpt lat="48.22154" lon="-3.11593">
        <ele>168</ele>
        <time>2020-10-19T14:39:26.000Z</time>
      </trkpt>
      <trkpt lat="48.22153" lon="-3.11594">
        <ele>168</ele>
        <time>2020-10-19T14:39:27.000Z</time>
      </trkpt>
      <trkpt lat="48.22152" lon="-3.11595">
        <ele>168.19999694824</ele>
        <time>2020-10-19T14:39:28.000Z</time>
      </trkpt>
      <trkpt lat="48.22152" lon="-3.11595">
        <ele>168.19999694824</ele>
        <time>2020-10-19T14:39:29.000Z</time>
      </trkpt>
      <trkpt lat="48.22152" lon="-3.11594">
        <ele>168.19999694824</ele>
        <time>2020-10-19T14:39:30.000Z</time>
      </trkpt>
      <trkpt lat="48.22152" lon="-3.11594">
        <ele>168.19999694824</ele>
        <time>2020-10-19T14:39:31.000Z</time>
      </trkpt>
      <trkpt lat="48.22152" lon="-3.11594">
        <ele>168.19999694824</ele>
        <time>2020-10-19T14:39:32.000Z</time>
      </trkpt>
      <trkpt lat="48.22152" lon="-3.11594">
        <ele>168.19999694824</ele>
        <time>2020-10-19T14:39:33.000Z</time>
      </trkpt>
      <trkpt lat="48.22152" lon="-3.11595">
        <ele>168.19999694824</ele>
        <time>2020-10-19T14:39:34.000Z</time>
      </trkpt>
      <trkpt lat="48.22153" lon="-3.11594">
        <ele>168</ele>
        <time>2020-10-19T14:39:35.000Z</time>
      </trkpt>
      <trkpt lat="48.22153" lon="-3.11595">
        <ele>168</ele>
        <time>2020-10-19T14:39:36.000Z</time>
      </trkpt>
      <trkpt lat="48.22154" lon="-3.11595">
        <ele>168</ele>
        <time>2020-10-19T14:39:37.000Z</time>
      </trkpt>
      <trkpt lat="48.22154" lon="-3.11595">
        <ele>168</ele>
        <time>2020-10-19T14:39:38.000Z</time>
      </trkpt>
      <trkpt lat="48.22154" lon="-3.11595">
        <ele>168</ele>
        <time>2020-10-19T14:39:39.000Z</time>
      </trkpt>
      <trkpt lat="48.22154" lon="-3.11595">
        <ele>168</ele>
        <time>2020-10-19T14:39:40.000Z</time>
      </trkpt>
      <trkpt lat="48.22153" lon="-3.11595">
        <ele>168</ele>
        <time>2020-10-19T14:39:41.000Z</time>
      </trkpt>
      <trkpt lat="48.22153" lon="-3.11595">
        <ele>168</ele>
        <time>2020-10-19T14:39:42.000Z</time>
      </trkpt>
      <trkpt lat="48.22154" lon="-3.11594">
        <ele>168</ele>
        <time>2020-10-19T14:39:43.000Z</time>
      </trkpt>
      <trkpt lat="48.22154" lon="-3.11594">
        <ele>168</ele>
        <time>2020-10-19T14:39:44.000Z</time>
      </trkpt>
      <trkpt lat="48.22154" lon="-3.11595">
        <ele>168</ele>
        <time>2020-10-19T14:39:45.000Z</time>
      </trkpt>
      <trkpt lat="48.22154" lon="-3.11595">
        <ele>168</ele>
        <time>2020-10-19T14:39:46.000Z</time>
      </trkpt>
      <trkpt lat="48.22155" lon="-3.11594">
        <ele>167.80000305176</ele>
        <time>2020-10-19T14:39:47.000Z</time>
      </trkpt>
      <trkpt lat="48.22156" lon="-3.11595">
        <ele>167.60000610352</ele>
        <time>2020-10-19T14:39:48.000Z</time>
      </trkpt>
      <trkpt lat="48.22157" lon="-3.11596">
        <ele>167.60000610352</ele>
        <time>2020-10-19T14:39:49.000Z</time>
      </trkpt>
      <trkpt lat="48.22157" lon="-3.11597">
        <ele>167.39999389648</ele>
        <time>2020-10-19T14:39:50.000Z</time>
      </trkpt>
      <trkpt lat="48.22156" lon="-3.11598">
        <ele>167.60000610352</ele>
        <time>2020-10-19T14:39:51.000Z</time>
      </trkpt>
      <trkpt lat="48.22156" lon="-3.116">
        <ele>167.39999389648</ele>
        <time>2020-10-19T14:39:52.000Z</time>
      </trkpt>
      <trkpt lat="48.22155" lon="-3.11602">
        <ele>167.60000610352</ele>
        <time>2020-10-19T14:39:53.000Z</time>
      </trkpt>
      <trkpt lat="48.22154" lon="-3.11604">
        <ele>167.60000610352</ele>
        <time>2020-10-19T14:39:54.000Z</time>
      </trkpt>
      <trkpt lat="48.22153" lon="-3.11606">
        <ele>167.60000610352</ele>
        <time>2020-10-19T14:39:55.000Z</time>
      </trkpt>
      <trkpt lat="48.22153" lon="-3.11608">
        <ele>167.60000610352</ele>
        <time>2020-10-19T14:39:56.000Z</time>
      </trkpt>
      <trkpt lat="48.22152" lon="-3.11609">
        <ele>167.60000610352</ele>
        <time>2020-10-19T14:39:57.000Z</time>
      </trkpt>
      <trkpt lat="48.22151" lon="-3.1161">
        <ele>167.60000610352</ele>
        <time>2020-10-19T14:39:58.000Z</time>
      </trkpt>
      <trkpt lat="48.22151" lon="-3.11612">
        <ele>167.80000305176</ele>
        <time>2020-10-19T14:39:59.000Z</time>
      </trkpt>
      <trkpt lat="48.2215" lon="-3.11614">
        <ele>167.80000305176</ele>
        <time>2020-10-19T14:40:00.000Z</time>
      </trkpt>
      <trkpt lat="48.22149" lon="-3.11615">
        <ele>167.80000305176</ele>
        <time>2020-10-19T14:40:01.000Z</time>
      </trkpt>
      <trkpt lat="48.22148" lon="-3.11617">
        <ele>167.80000305176</ele>
        <time>2020-10-19T14:40:02.000Z</time>
      </trkpt>
      <trkpt lat="48.22148" lon="-3.11618">
        <ele>167.80000305176</ele>
        <time>2020-10-19T14:40:03.000Z</time>
      </trkpt>
      <trkpt lat="48.22148" lon="-3.1162">
        <ele>167.80000305176</ele>
        <time>2020-10-19T14:40:04.000Z</time>
      </trkpt>
      <trkpt lat="48.22147" lon="-3.11622">
        <ele>167.80000305176</ele>
        <time>2020-10-19T14:40:05.000Z</time>
      </trkpt>
      <trkpt lat="48.22146" lon="-3.11623">
        <ele>167.80000305176</ele>
        <time>2020-10-19T14:40:06.000Z</time>
      </trkpt>
      <trkpt lat="48.22145" lon="-3.11625">
        <ele>168</ele>
        <time>2020-10-19T14:40:07.000Z</time>
      </trkpt>
      <trkpt lat="48.22144" lon="-3.11626">
        <ele>168</ele>
        <time>2020-10-19T14:40:08.000Z</time>
      </trkpt>
      <trkpt lat="48.22143" lon="-3.11628">
        <ele>168</ele>
        <time>2020-10-19T14:40:09.000Z</time>
      </trkpt>
      <trkpt lat="48.22142" lon="-3.11629">
        <ele>168.19999694824</ele>
        <time>2020-10-19T14:40:10.000Z</time>
      </trkpt>
      <trkpt lat="48.22141" lon="-3.1163">
        <ele>168.19999694824</ele>
        <time>2020-10-19T14:40:11.000Z</time>
      </trkpt>
      <trkpt lat="48.22141" lon="-3.11631">
        <ele>168.19999694824</ele>
        <time>2020-10-19T14:40:12.000Z</time>
      </trkpt>
      <trkpt lat="48.22141" lon="-3.11632">
        <ele>168.19999694824</ele>
        <time>2020-10-19T14:40:13.000Z</time>
      </trkpt>
      <trkpt lat="48.22141" lon="-3.11634">
        <ele>168.19999694824</ele>
        <time>2020-10-19T14:40:14.000Z</time>
      </trkpt>
      <trkpt lat="48.22141" lon="-3.11635">
        <ele>168.19999694824</ele>
        <time>2020-10-19T14:40:15.000Z</time>
      </trkpt>
      <trkpt lat="48.2214" lon="-3.11637">
        <ele>168.19999694824</ele>
        <time>2020-10-19T14:40:16.000Z</time>
      </trkpt>
      <trkpt lat="48.2214" lon="-3.11639">
        <ele>168.39999389648</ele>
        <time>2020-10-19T14:40:17.000Z</time>
      </trkpt>
      <trkpt lat="48.2214" lon="-3.11641">
        <ele>168.39999389648</ele>
        <time>2020-10-19T14:40:18.000Z</time>
      </trkpt>
      <trkpt lat="48.2214" lon="-3.11642">
        <ele>168.39999389648</ele>
        <time>2020-10-19T14:40:19.000Z</time>
      </trkpt>
      <trkpt lat="48.22139" lon="-3.11644">
        <ele>168.39999389648</ele>
        <time>2020-10-19T14:40:20.000Z</time>
      </trkpt>
      <trkpt lat="48.22139" lon="-3.11645">
        <ele>168.39999389648</ele>
        <time>2020-10-19T14:40:21.000Z</time>
      </trkpt>
      <trkpt lat="48.22139" lon="-3.11647">
        <ele>168.60000610352</ele>
        <time>2020-10-19T14:40:22.000Z</time>
      </trkpt>
      <trkpt lat="48.22138" lon="-3.11649">
        <ele>168.60000610352</ele>
        <time>2020-10-19T14:40:23.000Z</time>
      </trkpt>
      <trkpt lat="48.22138" lon="-3.11651">
        <ele>168.60000610352</ele>
        <time>2020-10-19T14:40:24.000Z</time>
      </trkpt>
      <trkpt lat="48.22137" lon="-3.11653">
        <ele>168.60000610352</ele>
        <time>2020-10-19T14:40:25.000Z</time>
      </trkpt>
      <trkpt lat="48.22137" lon="-3.11654">
        <ele>168.80000305176</ele>
        <time>2020-10-19T14:40:26.000Z</time>
      </trkpt>
      <trkpt lat="48.22137" lon="-3.11656">
        <ele>168.80000305176</ele>
        <time>2020-10-19T14:40:27.000Z</time>
      </trkpt>
      <trkpt lat="48.22137" lon="-3.11658">
        <ele>168.80000305176</ele>
        <time>2020-10-19T14:40:28.000Z</time>
      </trkpt>
      <trkpt lat="48.22136" lon="-3.1166">
        <ele>168.80000305176</ele>
        <time>2020-10-19T14:40:29.000Z</time>
      </trkpt>
      <trkpt lat="48.22136" lon="-3.11664">
        <ele>168.80000305176</ele>
        <time>2020-10-19T14:40:30.000Z</time>
      </trkpt>
      <trkpt lat="48.22136" lon="-3.11664">
        <ele>168.80000305176</ele>
        <time>2020-10-19T14:40:31.000Z</time>
      </trkpt>
      <trkpt lat="48.22137" lon="-3.11666">
        <ele>168.80000305176</ele>
        <time>2020-10-19T14:40:32.000Z</time>
      </trkpt>
      <trkpt lat="48.22137" lon="-3.11668">
        <ele>168.80000305176</ele>
        <time>2020-10-19T14:40:33.000Z</time>
      </trkpt>
      <trkpt lat="48.22138" lon="-3.11669">
        <ele>168.80000305176</ele>
        <time>2020-10-19T14:40:34.000Z</time>
      </trkpt>
      <trkpt lat="48.22138" lon="-3.11671">
        <ele>168.80000305176</ele>
        <time>2020-10-19T14:40:35.000Z</time>
      </trkpt>
      <trkpt lat="48.22138" lon="-3.11672">
        <ele>168.80000305176</ele>
        <time>2020-10-19T14:40:36.000Z</time>
      </trkpt>
      <trkpt lat="48.22138" lon="-3.11674">
        <ele>168.80000305176</ele>
        <time>2020-10-19T14:40:37.000Z</time>
      </trkpt>
      <trkpt lat="48.22139" lon="-3.11675">
        <ele>168.80000305176</ele>
        <time>2020-10-19T14:40:38.000Z</time>
      </trkpt>
      <trkpt lat="48.22139" lon="-3.11677">
        <ele>168.80000305176</ele>
        <time>2020-10-19T14:40:39.000Z</time>
      </trkpt>
      <trkpt lat="48.22139" lon="-3.11679">
        <ele>168.80000305176</ele>
        <time>2020-10-19T14:40:40.000Z</time>
      </trkpt>
      <trkpt lat="48.2214" lon="-3.1168">
        <ele>169</ele>
        <time>2020-10-19T14:40:41.000Z</time>
      </trkpt>
      <trkpt lat="48.2214" lon="-3.11682">
        <ele>169</ele>
        <time>2020-10-19T14:40:42.000Z</time>
      </trkpt>
      <trkpt lat="48.2214" lon="-3.11684">
        <ele>169</ele>
        <time>2020-10-19T14:40:43.000Z</time>
      </trkpt>
      <trkpt lat="48.2214" lon="-3.11685">
        <ele>169</ele>
        <time>2020-10-19T14:40:44.000Z</time>
      </trkpt>
      <trkpt lat="48.2214" lon="-3.11687">
        <ele>169</ele>
        <time>2020-10-19T14:40:45.000Z</time>
      </trkpt>
      <trkpt lat="48.2214" lon="-3.11688">
        <ele>169</ele>
        <time>2020-10-19T14:40:46.000Z</time>
      </trkpt>
      <trkpt lat="48.2214" lon="-3.11689">
        <ele>169</ele>
        <time>2020-10-19T14:40:47.000Z</time>
      </trkpt>
      <trkpt lat="48.2214" lon="-3.11691">
        <ele>169</ele>
        <time>2020-10-19T14:40:48.000Z</time>
      </trkpt>
      <trkpt lat="48.22141" lon="-3.11692">
        <ele>169</ele>
        <time>2020-10-19T14:40:49.000Z</time>
      </trkpt>
      <trkpt lat="48.22141" lon="-3.11694">
        <ele>169</ele>
        <time>2020-10-19T14:40:50.000Z</time>
      </trkpt>
      <trkpt lat="48.22141" lon="-3.11695">
        <ele>169.19999694824</ele>
        <time>2020-10-19T14:40:51.000Z</time>
      </trkpt>
      <trkpt lat="48.22142" lon="-3.11697">
        <ele>169.19999694824</ele>
        <time>2020-10-19T14:40:52.000Z</time>
      </trkpt>
      <trkpt lat="48.22142" lon="-3.11699">
        <ele>169.19999694824</ele>
        <time>2020-10-19T14:40:53.000Z</time>
      </trkpt>
      <trkpt lat="48.22143" lon="-3.11701">
        <ele>169.19999694824</ele>
        <time>2020-10-19T14:40:54.000Z</time>
      </trkpt>
      <trkpt lat="48.22143" lon="-3.11703">
        <ele>169.19999694824</ele>
        <time>2020-10-19T14:40:55.000Z</time>
      </trkpt>
      <trkpt lat="48.22144" lon="-3.11705">
        <ele>169.19999694824</ele>
        <time>2020-10-19T14:40:56.000Z</time>
      </trkpt>
      <trkpt lat="48.22144" lon="-3.11706">
        <ele>169.19999694824</ele>
        <time>2020-10-19T14:40:57.000Z</time>
      </trkpt>
      <trkpt lat="48.22145" lon="-3.11708">
        <ele>169.19999694824</ele>
        <time>2020-10-19T14:40:58.000Z</time>
      </trkpt>
      <trkpt lat="48.22145" lon="-3.1171">
        <ele>169.19999694824</ele>
        <time>2020-10-19T14:40:59.000Z</time>
      </trkpt>
      <trkpt lat="48.22145" lon="-3.11711">
        <ele>169.19999694824</ele>
        <time>2020-10-19T14:41:00.000Z</time>
      </trkpt>
      <trkpt lat="48.22146" lon="-3.11713">
        <ele>169</ele>
        <time>2020-10-19T14:41:01.000Z</time>
      </trkpt>
      <trkpt lat="48.22146" lon="-3.11715">
        <ele>169</ele>
        <time>2020-10-19T14:41:02.000Z</time>
      </trkpt>
      <trkpt lat="48.22146" lon="-3.11717">
        <ele>168.80000305176</ele>
        <time>2020-10-19T14:41:03.000Z</time>
      </trkpt>
      <trkpt lat="48.22147" lon="-3.11719">
        <ele>168.80000305176</ele>
        <time>2020-10-19T14:41:04.000Z</time>
      </trkpt>
      <trkpt lat="48.22147" lon="-3.1172">
        <ele>168.60000610352</ele>
        <time>2020-10-19T14:41:05.000Z</time>
      </trkpt>
      <trkpt lat="48.22148" lon="-3.11722">
        <ele>168.39999389648</ele>
        <time>2020-10-19T14:41:06.000Z</time>
      </trkpt>
      <trkpt lat="48.22148" lon="-3.11724">
        <ele>168.39999389648</ele>
        <time>2020-10-19T14:41:07.000Z</time>
      </trkpt>
      <trkpt lat="48.22149" lon="-3.11726">
        <ele>168.19999694824</ele>
        <time>2020-10-19T14:41:08.000Z</time>
      </trkpt>
      <trkpt lat="48.22149" lon="-3.11728">
        <ele>168</ele>
        <time>2020-10-19T14:41:09.000Z</time>
      </trkpt>
      <trkpt lat="48.22149" lon="-3.1173">
        <ele>168</ele>
        <time>2020-10-19T14:41:10.000Z</time>
      </trkpt>
      <trkpt lat="48.2215" lon="-3.11732">
        <ele>167.80000305176</ele>
        <time>2020-10-19T14:41:11.000Z</time>
      </trkpt>
      <trkpt lat="48.2215" lon="-3.11734">
        <ele>167.80000305176</ele>
        <time>2020-10-19T14:41:12.000Z</time>
      </trkpt>
      <trkpt lat="48.2215" lon="-3.11735">
        <ele>167.60000610352</ele>
        <time>2020-10-19T14:41:13.000Z</time>
      </trkpt>
      <trkpt lat="48.22151" lon="-3.11737">
        <ele>167.60000610352</ele>
        <time>2020-10-19T14:41:14.000Z</time>
      </trkpt>
      <trkpt lat="48.22151" lon="-3.11739">
        <ele>167.39999389648</ele>
        <time>2020-10-19T14:41:15.000Z</time>
      </trkpt>
      <trkpt lat="48.22151" lon="-3.11741">
        <ele>167.39999389648</ele>
        <time>2020-10-19T14:41:16.000Z</time>
      </trkpt>
      <trkpt lat="48.22151" lon="-3.11742">
        <ele>167.19999694824</ele>
        <time>2020-10-19T14:41:17.000Z</time>
      </trkpt>
      <trkpt lat="48.22152" lon="-3.11744">
        <ele>167.19999694824</ele>
        <time>2020-10-19T14:41:18.000Z</time>
      </trkpt>
      <trkpt lat="48.22152" lon="-3.11745">
        <ele>167</ele>
        <time>2020-10-19T14:41:19.000Z</time>
      </trkpt>
      <trkpt lat="48.22153" lon="-3.11747">
        <ele>166.80000305176</ele>
        <time>2020-10-19T14:41:20.000Z</time>
      </trkpt>
      <trkpt lat="48.22154" lon="-3.11749">
        <ele>166.80000305176</ele>
        <time>2020-10-19T14:41:21.000Z</time>
      </trkpt>
      <trkpt lat="48.22154" lon="-3.11751">
        <ele>166.60000610352</ele>
        <time>2020-10-19T14:41:22.000Z</time>
      </trkpt>
      <trkpt lat="48.22155" lon="-3.11753">
        <ele>166.39999389648</ele>
        <time>2020-10-19T14:41:23.000Z</time>
      </trkpt>
      <trkpt lat="48.22155" lon="-3.11754">
        <ele>166.39999389648</ele>
        <time>2020-10-19T14:41:24.000Z</time>
      </trkpt>
      <trkpt lat="48.22156" lon="-3.11756">
        <ele>166.19999694824</ele>
        <time>2020-10-19T14:41:25.000Z</time>
      </trkpt>
      <trkpt lat="48.22156" lon="-3.11758">
        <ele>166</ele>
        <time>2020-10-19T14:41:26.000Z</time>
      </trkpt>
      <trkpt lat="48.22157" lon="-3.1176">
        <ele>165.80000305176</ele>
        <time>2020-10-19T14:41:27.000Z</time>
      </trkpt>
      <trkpt lat="48.22157" lon="-3.11761">
        <ele>166</ele>
        <time>2020-10-19T14:41:28.000Z</time>
      </trkpt>
      <trkpt lat="48.22158" lon="-3.11764">
        <ele>166.19999694824</ele>
        <time>2020-10-19T14:41:29.000Z</time>
      </trkpt>
      <trkpt lat="48.22158" lon="-3.11765">
        <ele>166.39999389648</ele>
        <time>2020-10-19T14:41:30.000Z</time>
      </trkpt>
      <trkpt lat="48.22158" lon="-3.11767">
        <ele>166.60000610352</ele>
        <time>2020-10-19T14:41:31.000Z</time>
      </trkpt>
      <trkpt lat="48.22158" lon="-3.11769">
        <ele>166.80000305176</ele>
        <time>2020-10-19T14:41:32.000Z</time>
      </trkpt>
      <trkpt lat="48.22159" lon="-3.1177">
        <ele>166.80000305176</ele>
        <time>2020-10-19T14:41:33.000Z</time>
      </trkpt>
      <trkpt lat="48.22159" lon="-3.11772">
        <ele>167</ele>
        <time>2020-10-19T14:41:34.000Z</time>
      </trkpt>
      <trkpt lat="48.22159" lon="-3.11773">
        <ele>167.19999694824</ele>
        <time>2020-10-19T14:41:35.000Z</time>
      </trkpt>
      <trkpt lat="48.2216" lon="-3.11775">
        <ele>167.19999694824</ele>
        <time>2020-10-19T14:41:36.000Z</time>
      </trkpt>
      <trkpt lat="48.2216" lon="-3.11777">
        <ele>167.39999389648</ele>
        <time>2020-10-19T14:41:37.000Z</time>
      </trkpt>
      <trkpt lat="48.22161" lon="-3.11778">
        <ele>167.60000610352</ele>
        <time>2020-10-19T14:41:38.000Z</time>
      </trkpt>
      <trkpt lat="48.22161" lon="-3.1178">
        <ele>167.39999389648</ele>
        <time>2020-10-19T14:41:39.000Z</time>
      </trkpt>
      <trkpt lat="48.22162" lon="-3.11781">
        <ele>167.19999694824</ele>
        <time>2020-10-19T14:41:40.000Z</time>
      </trkpt>
      <trkpt lat="48.22162" lon="-3.11783">
        <ele>167</ele>
        <time>2020-10-19T14:41:41.000Z</time>
      </trkpt>
      <trkpt lat="48.22163" lon="-3.11784">
        <ele>167</ele>
        <time>2020-10-19T14:41:42.000Z</time>
      </trkpt>
      <trkpt lat="48.22163" lon="-3.11786">
        <ele>166.80000305176</ele>
        <time>2020-10-19T14:41:43.000Z</time>
      </trkpt>
      <trkpt lat="48.22164" lon="-3.11787">
        <ele>166.60000610352</ele>
        <time>2020-10-19T14:41:44.000Z</time>
      </trkpt>
      <trkpt lat="48.22164" lon="-3.11789">
        <ele>166.39999389648</ele>
        <time>2020-10-19T14:41:45.000Z</time>
      </trkpt>
      <trkpt lat="48.22165" lon="-3.1179">
        <ele>166.39999389648</ele>
        <time>2020-10-19T14:41:46.000Z</time>
      </trkpt>
      <trkpt lat="48.22165" lon="-3.11792">
        <ele>166.19999694824</ele>
        <time>2020-10-19T14:41:47.000Z</time>
      </trkpt>
      <trkpt lat="48.22166" lon="-3.11794">
        <ele>166</ele>
        <time>2020-10-19T14:41:48.000Z</time>
      </trkpt>
      <trkpt lat="48.22166" lon="-3.11795">
        <ele>166</ele>
        <time>2020-10-19T14:41:49.000Z</time>
      </trkpt>
      <trkpt lat="48.22167" lon="-3.11797">
        <ele>165.80000305176</ele>
        <time>2020-10-19T14:41:50.000Z</time>
      </trkpt>
      <trkpt lat="48.22167" lon="-3.11798">
        <ele>165.60000610352</ele>
        <time>2020-10-19T14:41:51.000Z</time>
      </trkpt>
      <trkpt lat="48.22168" lon="-3.118">
        <ele>165.39999389648</ele>
        <time>2020-10-19T14:41:52.000Z</time>
      </trkpt>
      <trkpt lat="48.22168" lon="-3.11801">
        <ele>165.39999389648</ele>
        <time>2020-10-19T14:41:53.000Z</time>
      </trkpt>
      <trkpt lat="48.22168" lon="-3.11802">
        <ele>165.19999694824</ele>
        <time>2020-10-19T14:41:54.000Z</time>
      </trkpt>
      <trkpt lat="48.22169" lon="-3.11804">
        <ele>165.19999694824</ele>
        <time>2020-10-19T14:41:55.000Z</time>
      </trkpt>
      <trkpt lat="48.22169" lon="-3.11806">
        <ele>165</ele>
        <time>2020-10-19T14:41:56.000Z</time>
      </trkpt>
      <trkpt lat="48.2217" lon="-3.11807">
        <ele>164.80000305176</ele>
        <time>2020-10-19T14:41:57.000Z</time>
      </trkpt>
      <trkpt lat="48.2217" lon="-3.11809">
        <ele>164.60000610352</ele>
        <time>2020-10-19T14:41:58.000Z</time>
      </trkpt>
      <trkpt lat="48.22171" lon="-3.1181">
        <ele>164.60000610352</ele>
        <time>2020-10-19T14:41:59.000Z</time>
      </trkpt>
      <trkpt lat="48.22171" lon="-3.11812">
        <ele>164.39999389648</ele>
        <time>2020-10-19T14:42:00.000Z</time>
      </trkpt>
      <trkpt lat="48.22172" lon="-3.11813">
        <ele>164.19999694824</ele>
        <time>2020-10-19T14:42:01.000Z</time>
      </trkpt>
      <trkpt lat="48.22172" lon="-3.11815">
        <ele>164.19999694824</ele>
        <time>2020-10-19T14:42:02.000Z</time>
      </trkpt>
      <trkpt lat="48.22172" lon="-3.11817">
        <ele>164</ele>
        <time>2020-10-19T14:42:03.000Z</time>
      </trkpt>
      <trkpt lat="48.22173" lon="-3.11818">
        <ele>163.80000305176</ele>
        <time>2020-10-19T14:42:04.000Z</time>
      </trkpt>
      <trkpt lat="48.22174" lon="-3.1182">
        <ele>163.60000610352</ele>
        <time>2020-10-19T14:42:05.000Z</time>
      </trkpt>
      <trkpt lat="48.22174" lon="-3.11822">
        <ele>163.39999389648</ele>
        <time>2020-10-19T14:42:06.000Z</time>
      </trkpt>
      <trkpt lat="48.22175" lon="-3.11823">
        <ele>163.39999389648</ele>
        <time>2020-10-19T14:42:07.000Z</time>
      </trkpt>
      <trkpt lat="48.22175" lon="-3.11825">
        <ele>163.19999694824</ele>
        <time>2020-10-19T14:42:08.000Z</time>
      </trkpt>
      <trkpt lat="48.22176" lon="-3.11826">
        <ele>163</ele>
        <time>2020-10-19T14:42:09.000Z</time>
      </trkpt>
      <trkpt lat="48.22176" lon="-3.11828">
        <ele>162.80000305176</ele>
        <time>2020-10-19T14:42:10.000Z</time>
      </trkpt>
      <trkpt lat="48.22177" lon="-3.11829">
        <ele>162.60000610352</ele>
        <time>2020-10-19T14:42:11.000Z</time>
      </trkpt>
      <trkpt lat="48.22177" lon="-3.11831">
        <ele>162.60000610352</ele>
        <time>2020-10-19T14:42:12.000Z</time>
      </trkpt>
      <trkpt lat="48.22177" lon="-3.11833">
        <ele>162.60000610352</ele>
        <time>2020-10-19T14:42:13.000Z</time>
      </trkpt>
      <trkpt lat="48.22178" lon="-3.11835">
        <ele>162.39999389648</ele>
        <time>2020-10-19T14:42:14.000Z</time>
      </trkpt>
      <trkpt lat="48.22178" lon="-3.11836">
        <ele>162.19999694824</ele>
        <time>2020-10-19T14:42:15.000Z</time>
      </trkpt>
      <trkpt lat="48.22179" lon="-3.11838">
        <ele>162</ele>
        <time>2020-10-19T14:42:16.000Z</time>
      </trkpt>
      <trkpt lat="48.2218" lon="-3.11839">
        <ele>162.60000610352</ele>
        <time>2020-10-19T14:42:17.000Z</time>
      </trkpt>
      <trkpt lat="48.22181" lon="-3.11841">
        <ele>163</ele>
        <time>2020-10-19T14:42:18.000Z</time>
      </trkpt>
      <trkpt lat="48.22182" lon="-3.11842">
        <ele>163</ele>
        <time>2020-10-19T14:42:19.000Z</time>
      </trkpt>
      <trkpt lat="48.22183" lon="-3.11843">
        <ele>163</ele>
        <time>2020-10-19T14:42:20.000Z</time>
      </trkpt>
      <trkpt lat="48.22183" lon="-3.11844">
        <ele>163.19999694824</ele>
        <time>2020-10-19T14:42:21.000Z</time>
      </trkpt>
      <trkpt lat="48.22184" lon="-3.11845">
        <ele>163.39999389648</ele>
        <time>2020-10-19T14:42:22.000Z</time>
      </trkpt>
      <trkpt lat="48.22184" lon="-3.11846">
        <ele>163.60000610352</ele>
        <time>2020-10-19T14:42:23.000Z</time>
      </trkpt>
      <trkpt lat="48.22185" lon="-3.11846">
        <ele>164</ele>
        <time>2020-10-19T14:42:24.000Z</time>
      </trkpt>
      <trkpt lat="48.22186" lon="-3.11847">
        <ele>164</ele>
        <time>2020-10-19T14:42:25.000Z</time>
      </trkpt>
      <trkpt lat="48.22186" lon="-3.11848">
        <ele>164.39999389648</ele>
        <time>2020-10-19T14:42:26.000Z</time>
      </trkpt>
      <trkpt lat="48.22187" lon="-3.11848">
        <ele>164.60000610352</ele>
        <time>2020-10-19T14:42:27.000Z</time>
      </trkpt>
      <trkpt lat="48.22188" lon="-3.11849">
        <ele>165</ele>
        <time>2020-10-19T14:42:28.000Z</time>
      </trkpt>
      <trkpt lat="48.22189" lon="-3.1185">
        <ele>165.19999694824</ele>
        <time>2020-10-19T14:42:29.000Z</time>
      </trkpt>
      <trkpt lat="48.22189" lon="-3.11852">
        <ele>165.39999389648</ele>
        <time>2020-10-19T14:42:30.000Z</time>
      </trkpt>
      <trkpt lat="48.2219" lon="-3.11853">
        <ele>165.80000305176</ele>
        <time>2020-10-19T14:42:31.000Z</time>
      </trkpt>
      <trkpt lat="48.2219" lon="-3.11854">
        <ele>166</ele>
        <time>2020-10-19T14:42:32.000Z</time>
      </trkpt>
      <trkpt lat="48.22191" lon="-3.11855">
        <ele>166.19999694824</ele>
        <time>2020-10-19T14:42:33.000Z</time>
      </trkpt>
      <trkpt lat="48.22191" lon="-3.11856">
        <ele>166.60000610352</ele>
        <time>2020-10-19T14:42:34.000Z</time>
      </trkpt>
      <trkpt lat="48.22192" lon="-3.11857">
        <ele>166.80000305176</ele>
        <time>2020-10-19T14:42:35.000Z</time>
      </trkpt>
      <trkpt lat="48.22193" lon="-3.11858">
        <ele>167.19999694824</ele>
        <time>2020-10-19T14:42:36.000Z</time>
      </trkpt>
      <trkpt lat="48.22194" lon="-3.11859">
        <ele>167.39999389648</ele>
        <time>2020-10-19T14:42:37.000Z</time>
      </trkpt>
      <trkpt lat="48.22194" lon="-3.11861">
        <ele>167.80000305176</ele>
        <time>2020-10-19T14:42:38.000Z</time>
      </trkpt>
      <trkpt lat="48.22195" lon="-3.11862">
        <ele>168</ele>
        <time>2020-10-19T14:42:39.000Z</time>
      </trkpt>
      <trkpt lat="48.22196" lon="-3.11863">
        <ele>168.39999389648</ele>
        <time>2020-10-19T14:42:40.000Z</time>
      </trkpt>
      <trkpt lat="48.22197" lon="-3.11865">
        <ele>168.80000305176</ele>
        <time>2020-10-19T14:42:41.000Z</time>
      </trkpt>
      <trkpt lat="48.22198" lon="-3.11866">
        <ele>169.19999694824</ele>
        <time>2020-10-19T14:42:42.000Z</time>
      </trkpt>
      <trkpt lat="48.22198" lon="-3.11867">
        <ele>169.60000610352</ele>
        <time>2020-10-19T14:42:43.000Z</time>
      </trkpt>
      <trkpt lat="48.22199" lon="-3.11869">
        <ele>169.80000305176</ele>
        <time>2020-10-19T14:42:44.000Z</time>
      </trkpt>
      <trkpt lat="48.222" lon="-3.11871">
        <ele>170.19999694824</ele>
        <time>2020-10-19T14:42:45.000Z</time>
      </trkpt>
      <trkpt lat="48.22201" lon="-3.11872">
        <ele>170.60000610352</ele>
        <time>2020-10-19T14:42:46.000Z</time>
      </trkpt>
      <trkpt lat="48.22201" lon="-3.11874">
        <ele>171</ele>
        <time>2020-10-19T14:42:47.000Z</time>
      </trkpt>
      <trkpt lat="48.22202" lon="-3.11874">
        <ele>171.19999694824</ele>
        <time>2020-10-19T14:42:48.000Z</time>
      </trkpt>
      <trkpt lat="48.22203" lon="-3.11875">
        <ele>171.39999389648</ele>
        <time>2020-10-19T14:42:49.000Z</time>
      </trkpt>
      <trkpt lat="48.22203" lon="-3.11876">
        <ele>171.60000610352</ele>
        <time>2020-10-19T14:42:50.000Z</time>
      </trkpt>
      <trkpt lat="48.22203" lon="-3.11879">
        <ele>172</ele>
        <time>2020-10-19T14:42:51.000Z</time>
      </trkpt>
      <trkpt lat="48.22204" lon="-3.1188">
        <ele>172.19999694824</ele>
        <time>2020-10-19T14:42:52.000Z</time>
      </trkpt>
      <trkpt lat="48.22204" lon="-3.1188">
        <ele>172.39999389648</ele>
        <time>2020-10-19T14:42:53.000Z</time>
      </trkpt>
      <trkpt lat="48.22205" lon="-3.11882">
        <ele>172.80000305176</ele>
        <time>2020-10-19T14:42:54.000Z</time>
      </trkpt>
      <trkpt lat="48.22206" lon="-3.11883">
        <ele>173.19999694824</ele>
        <time>2020-10-19T14:42:55.000Z</time>
      </trkpt>
      <trkpt lat="48.22206" lon="-3.11884">
        <ele>173.19999694824</ele>
        <time>2020-10-19T14:42:56.000Z</time>
      </trkpt>
      <trkpt lat="48.22206" lon="-3.11885">
        <ele>173.39999389648</ele>
        <time>2020-10-19T14:42:57.000Z</time>
      </trkpt>
      <trkpt lat="48.22206" lon="-3.11885">
        <ele>173.39999389648</ele>
        <time>2020-10-19T14:42:58.000Z</time>
      </trkpt>
      <trkpt lat="48.22206" lon="-3.11886">
        <ele>173.39999389648</ele>
        <time>2020-10-19T14:42:59.000Z</time>
      </trkpt>
      <trkpt lat="48.22206" lon="-3.11886">
        <ele>173.60000610352</ele>
        <time>2020-10-19T14:43:00.000Z</time>
      </trkpt>
      <trkpt lat="48.22206" lon="-3.11886">
        <ele>173.39999389648</ele>
        <time>2020-10-19T14:43:01.000Z</time>
      </trkpt>
      <trkpt lat="48.22206" lon="-3.11886">
        <ele>173.39999389648</ele>
        <time>2020-10-19T14:43:02.000Z</time>
      </trkpt>
      <trkpt lat="48.22205" lon="-3.11886">
        <ele>173.39999389648</ele>
        <time>2020-10-19T14:43:03.000Z</time>
      </trkpt>
      <trkpt lat="48.22205" lon="-3.11886">
        <ele>173.19999694824</ele>
        <time>2020-10-19T14:43:04.000Z</time>
      </trkpt>
      <trkpt lat="48.22205" lon="-3.11887">
        <ele>173.39999389648</ele>
        <time>2020-10-19T14:43:05.000Z</time>
      </trkpt>
      <trkpt lat="48.22205" lon="-3.11887">
        <ele>173.39999389648</ele>
        <time>2020-10-19T14:43:06.000Z</time>
      </trkpt>
      <trkpt lat="48.22205" lon="-3.11888">
        <ele>173.39999389648</ele>
        <time>2020-10-19T14:43:07.000Z</time>
      </trkpt>
      <trkpt lat="48.22205" lon="-3.11889">
        <ele>173.60000610352</ele>
        <time>2020-10-19T14:43:08.000Z</time>
      </trkpt>
      <trkpt lat="48.22205" lon="-3.11889">
        <ele>173.39999389648</ele>
        <time>2020-10-19T14:43:09.000Z</time>
      </trkpt>
      <trkpt lat="48.22205" lon="-3.1189">
        <ele>173.60000610352</ele>
        <time>2020-10-19T14:43:10.000Z</time>
      </trkpt>
      <trkpt lat="48.22206" lon="-3.1189">
        <ele>173.80000305176</ele>
        <time>2020-10-19T14:43:11.000Z</time>
      </trkpt>
      <trkpt lat="48.22207" lon="-3.11891">
        <ele>174.19999694824</ele>
        <time>2020-10-19T14:43:12.000Z</time>
      </trkpt>
      <trkpt lat="48.22207" lon="-3.11892">
        <ele>174.39999389648</ele>
        <time>2020-10-19T14:43:13.000Z</time>
      </trkpt>
      <trkpt lat="48.22208" lon="-3.11893">
        <ele>174.60000610352</ele>
        <time>2020-10-19T14:43:14.000Z</time>
      </trkpt>
      <trkpt lat="48.22208" lon="-3.11893">
        <ele>174.80000305176</ele>
        <time>2020-10-19T14:43:15.000Z</time>
      </trkpt>
      <trkpt lat="48.22208" lon="-3.11894">
        <ele>175</ele>
        <time>2020-10-19T14:43:16.000Z</time>
      </trkpt>
      <trkpt lat="48.22209" lon="-3.11894">
        <ele>175</ele>
        <time>2020-10-19T14:43:17.000Z</time>
      </trkpt>
      <trkpt lat="48.22209" lon="-3.11894">
        <ele>175.19999694824</ele>
        <time>2020-10-19T14:43:18.000Z</time>
      </trkpt>
      <trkpt lat="48.22209" lon="-3.11894">
        <ele>175</ele>
        <time>2020-10-19T14:43:19.000Z</time>
      </trkpt>
      <trkpt lat="48.22209" lon="-3.11894">
        <ele>175</ele>
        <time>2020-10-19T14:43:20.000Z</time>
      </trkpt>
      <trkpt lat="48.22209" lon="-3.11895">
        <ele>175</ele>
        <time>2020-10-19T14:43:21.000Z</time>
      </trkpt>
      <trkpt lat="48.22208" lon="-3.11895">
        <ele>175</ele>
        <time>2020-10-19T14:43:22.000Z</time>
      </trkpt>
      <trkpt lat="48.22209" lon="-3.11895">
        <ele>175</ele>
        <time>2020-10-19T14:43:23.000Z</time>
      </trkpt>
      <trkpt lat="48.22209" lon="-3.11896">
        <ele>175.39999389648</ele>
        <time>2020-10-19T14:43:24.000Z</time>
      </trkpt>
      <trkpt lat="48.2221" lon="-3.11897">
        <ele>175.39999389648</ele>
        <time>2020-10-19T14:43:25.000Z</time>
      </trkpt>
      <trkpt lat="48.22211" lon="-3.11897">
        <ele>175.19999694824</ele>
        <time>2020-10-19T14:43:26.000Z</time>
      </trkpt>
      <trkpt lat="48.22212" lon="-3.11898">
        <ele>175</ele>
        <time>2020-10-19T14:43:27.000Z</time>
      </trkpt>
      <trkpt lat="48.22213" lon="-3.11899">
        <ele>174.80000305176</ele>
        <time>2020-10-19T14:43:28.000Z</time>
      </trkpt>
      <trkpt lat="48.22213" lon="-3.119">
        <ele>174.60000610352</ele>
        <time>2020-10-19T14:43:29.000Z</time>
      </trkpt>
      <trkpt lat="48.22213" lon="-3.11901">
        <ele>174.39999389648</ele>
        <time>2020-10-19T14:43:30.000Z</time>
      </trkpt>
      <trkpt lat="48.22214" lon="-3.11901">
        <ele>174.39999389648</ele>
        <time>2020-10-19T14:43:31.000Z</time>
      </trkpt>
      <trkpt lat="48.22214" lon="-3.11903">
        <ele>174.19999694824</ele>
        <time>2020-10-19T14:43:32.000Z</time>
      </trkpt>
      <trkpt lat="48.22215" lon="-3.11904">
        <ele>173.80000305176</ele>
        <time>2020-10-19T14:43:33.000Z</time>
      </trkpt>
      <trkpt lat="48.22215" lon="-3.11905">
        <ele>173.60000610352</ele>
        <time>2020-10-19T14:43:34.000Z</time>
      </trkpt>
      <trkpt lat="48.22216" lon="-3.11906">
        <ele>173.39999389648</ele>
        <time>2020-10-19T14:43:35.000Z</time>
      </trkpt>
      <trkpt lat="48.22217" lon="-3.11908">
        <ele>173.19999694824</ele>
        <time>2020-10-19T14:43:36.000Z</time>
      </trkpt>
      <trkpt lat="48.22218" lon="-3.11909">
        <ele>172.80000305176</ele>
        <time>2020-10-19T14:43:37.000Z</time>
      </trkpt>
      <trkpt lat="48.22218" lon="-3.1191">
        <ele>172.60000610352</ele>
        <time>2020-10-19T14:43:38.000Z</time>
      </trkpt>
      <trkpt lat="48.22218" lon="-3.11912">
        <ele>172.39999389648</ele>
        <time>2020-10-19T14:43:39.000Z</time>
      </trkpt>
      <trkpt lat="48.22219" lon="-3.11913">
        <ele>172</ele>
        <time>2020-10-19T14:43:40.000Z</time>
      </trkpt>
      <trkpt lat="48.2222" lon="-3.11914">
        <ele>171.80000305176</ele>
        <time>2020-10-19T14:43:41.000Z</time>
      </trkpt>
      <trkpt lat="48.22221" lon="-3.11916">
        <ele>171.39999389648</ele>
        <time>2020-10-19T14:43:42.000Z</time>
      </trkpt>
      <trkpt lat="48.22222" lon="-3.11917">
        <ele>171.19999694824</ele>
        <time>2020-10-19T14:43:43.000Z</time>
      </trkpt>
      <trkpt lat="48.22222" lon="-3.11919">
        <ele>171</ele>
        <time>2020-10-19T14:43:44.000Z</time>
      </trkpt>
      <trkpt lat="48.22223" lon="-3.1192">
        <ele>170.60000610352</ele>
        <time>2020-10-19T14:43:45.000Z</time>
      </trkpt>
      <trkpt lat="48.22224" lon="-3.11921">
        <ele>170.39999389648</ele>
        <time>2020-10-19T14:43:46.000Z</time>
      </trkpt>
      <trkpt lat="48.22224" lon="-3.11923">
        <ele>170</ele>
        <time>2020-10-19T14:43:47.000Z</time>
      </trkpt>
      <trkpt lat="48.22225" lon="-3.11924">
        <ele>169.80000305176</ele>
        <time>2020-10-19T14:43:48.000Z</time>
      </trkpt>
      <trkpt lat="48.22225" lon="-3.11926">
        <ele>169.60000610352</ele>
        <time>2020-10-19T14:43:49.000Z</time>
      </trkpt>
      <trkpt lat="48.22226" lon="-3.11927">
        <ele>169.39999389648</ele>
        <time>2020-10-19T14:43:50.000Z</time>
      </trkpt>
      <trkpt lat="48.22226" lon="-3.11928">
        <ele>169.39999389648</ele>
        <time>2020-10-19T14:43:51.000Z</time>
      </trkpt>
      <trkpt lat="48.22227" lon="-3.1193">
        <ele>169.39999389648</ele>
        <time>2020-10-19T14:43:52.000Z</time>
      </trkpt>
      <trkpt lat="48.22227" lon="-3.11931">
        <ele>169.39999389648</ele>
        <time>2020-10-19T14:43:53.000Z</time>
      </trkpt>
      <trkpt lat="48.22228" lon="-3.11932">
        <ele>169.60000610352</ele>
        <time>2020-10-19T14:43:54.000Z</time>
      </trkpt>
      <trkpt lat="48.22229" lon="-3.11934">
        <ele>169.60000610352</ele>
        <time>2020-10-19T14:43:55.000Z</time>
      </trkpt>
      <trkpt lat="48.2223" lon="-3.11936">
        <ele>169.60000610352</ele>
        <time>2020-10-19T14:43:56.000Z</time>
      </trkpt>
      <trkpt lat="48.22231" lon="-3.11937">
        <ele>169.80000305176</ele>
        <time>2020-10-19T14:43:57.000Z</time>
      </trkpt>
      <trkpt lat="48.22231" lon="-3.11939">
        <ele>169.80000305176</ele>
        <time>2020-10-19T14:43:58.000Z</time>
      </trkpt>
      <trkpt lat="48.22232" lon="-3.11941">
        <ele>170</ele>
        <time>2020-10-19T14:43:59.000Z</time>
      </trkpt>
      <trkpt lat="48.22232" lon="-3.11942">
        <ele>170</ele>
        <time>2020-10-19T14:44:00.000Z</time>
      </trkpt>
      <trkpt lat="48.22233" lon="-3.11944">
        <ele>170</ele>
        <time>2020-10-19T14:44:01.000Z</time>
      </trkpt>
      <trkpt lat="48.22234" lon="-3.11945">
        <ele>170.19999694824</ele>
        <time>2020-10-19T14:44:02.000Z</time>
      </trkpt>
      <trkpt lat="48.22234" lon="-3.11946">
        <ele>170.19999694824</ele>
        <time>2020-10-19T14:44:03.000Z</time>
      </trkpt>
      <trkpt lat="48.22235" lon="-3.11948">
        <ele>170.19999694824</ele>
        <time>2020-10-19T14:44:04.000Z</time>
      </trkpt>
      <trkpt lat="48.22236" lon="-3.11949">
        <ele>170.19999694824</ele>
        <time>2020-10-19T14:44:05.000Z</time>
      </trkpt>
      <trkpt lat="48.22236" lon="-3.1195">
        <ele>170.39999389648</ele>
        <time>2020-10-19T14:44:06.000Z</time>
      </trkpt>
      <trkpt lat="48.22237" lon="-3.11951">
        <ele>170.39999389648</ele>
        <time>2020-10-19T14:44:07.000Z</time>
      </trkpt>
      <trkpt lat="48.22238" lon="-3.11952">
        <ele>170.19999694824</ele>
        <time>2020-10-19T14:44:08.000Z</time>
      </trkpt>
      <trkpt lat="48.22239" lon="-3.11954">
        <ele>170</ele>
        <time>2020-10-19T14:44:09.000Z</time>
      </trkpt>
      <trkpt lat="48.2224" lon="-3.11955">
        <ele>169.80000305176</ele>
        <time>2020-10-19T14:44:10.000Z</time>
      </trkpt>
      <trkpt lat="48.22241" lon="-3.11956">
        <ele>169.39999389648</ele>
        <time>2020-10-19T14:44:11.000Z</time>
      </trkpt>
      <trkpt lat="48.22241" lon="-3.11957">
        <ele>169.39999389648</ele>
        <time>2020-10-19T14:44:12.000Z</time>
      </trkpt>
      <trkpt lat="48.22241" lon="-3.11959">
        <ele>169.19999694824</ele>
        <time>2020-10-19T14:44:13.000Z</time>
      </trkpt>
      <trkpt lat="48.22242" lon="-3.1196">
        <ele>169</ele>
        <time>2020-10-19T14:44:14.000Z</time>
      </trkpt>
      <trkpt lat="48.22243" lon="-3.11962">
        <ele>168.80000305176</ele>
        <time>2020-10-19T14:44:15.000Z</time>
      </trkpt>
      <trkpt lat="48.22244" lon="-3.11963">
        <ele>168.60000610352</ele>
        <time>2020-10-19T14:44:16.000Z</time>
      </trkpt>
      <trkpt lat="48.22244" lon="-3.11964">
        <ele>168.19999694824</ele>
        <time>2020-10-19T14:44:17.000Z</time>
      </trkpt>
      <trkpt lat="48.22245" lon="-3.11966">
        <ele>168</ele>
        <time>2020-10-19T14:44:18.000Z</time>
      </trkpt>
      <trkpt lat="48.22246" lon="-3.11967">
        <ele>167.80000305176</ele>
        <time>2020-10-19T14:44:19.000Z</time>
      </trkpt>
      <trkpt lat="48.22247" lon="-3.11968">
        <ele>167.60000610352</ele>
        <time>2020-10-19T14:44:20.000Z</time>
      </trkpt>
      <trkpt lat="48.22247" lon="-3.1197">
        <ele>167.39999389648</ele>
        <time>2020-10-19T14:44:21.000Z</time>
      </trkpt>
      <trkpt lat="48.22248" lon="-3.11971">
        <ele>167.19999694824</ele>
        <time>2020-10-19T14:44:22.000Z</time>
      </trkpt>
      <trkpt lat="48.22249" lon="-3.11972">
        <ele>167</ele>
        <time>2020-10-19T14:44:23.000Z</time>
      </trkpt>
      <trkpt lat="48.22249" lon="-3.11974">
        <ele>166.80000305176</ele>
        <time>2020-10-19T14:44:24.000Z</time>
      </trkpt>
      <trkpt lat="48.2225" lon="-3.11975">
        <ele>166.60000610352</ele>
        <time>2020-10-19T14:44:25.000Z</time>
      </trkpt>
      <trkpt lat="48.22251" lon="-3.11977">
        <ele>166.19999694824</ele>
        <time>2020-10-19T14:44:26.000Z</time>
      </trkpt>
      <trkpt lat="48.22252" lon="-3.11979">
        <ele>166</ele>
        <time>2020-10-19T14:44:27.000Z</time>
      </trkpt>
      <trkpt lat="48.22253" lon="-3.11981">
        <ele>165.60000610352</ele>
        <time>2020-10-19T14:44:28.000Z</time>
      </trkpt>
      <trkpt lat="48.22254" lon="-3.11983">
        <ele>165.39999389648</ele>
        <time>2020-10-19T14:44:29.000Z</time>
      </trkpt>
      <trkpt lat="48.22254" lon="-3.11984">
        <ele>165.19999694824</ele>
        <time>2020-10-19T14:44:30.000Z</time>
      </trkpt>
      <trkpt lat="48.22255" lon="-3.11986">
        <ele>165</ele>
        <time>2020-10-19T14:44:31.000Z</time>
      </trkpt>
      <trkpt lat="48.22256" lon="-3.11987">
        <ele>164.80000305176</ele>
        <time>2020-10-19T14:44:32.000Z</time>
      </trkpt>
      <trkpt lat="48.22256" lon="-3.11989">
        <ele>164.60000610352</ele>
        <time>2020-10-19T14:44:33.000Z</time>
      </trkpt>
      <trkpt lat="48.22257" lon="-3.1199">
        <ele>164.39999389648</ele>
        <time>2020-10-19T14:44:34.000Z</time>
      </trkpt>
      <trkpt lat="48.22257" lon="-3.11992">
        <ele>164.19999694824</ele>
        <time>2020-10-19T14:44:35.000Z</time>
      </trkpt>
      <trkpt lat="48.22258" lon="-3.11993">
        <ele>164</ele>
        <time>2020-10-19T14:44:36.000Z</time>
      </trkpt>
      <trkpt lat="48.22258" lon="-3.11995">
        <ele>163.80000305176</ele>
        <time>2020-10-19T14:44:37.000Z</time>
      </trkpt>
      <trkpt lat="48.22259" lon="-3.11997">
        <ele>163.60000610352</ele>
        <time>2020-10-19T14:44:38.000Z</time>
      </trkpt>
      <trkpt lat="48.2226" lon="-3.11999">
        <ele>163.19999694824</ele>
        <time>2020-10-19T14:44:39.000Z</time>
      </trkpt>
      <trkpt lat="48.2226" lon="-3.12">
        <ele>163</ele>
        <time>2020-10-19T14:44:40.000Z</time>
      </trkpt>
      <trkpt lat="48.22261" lon="-3.12002">
        <ele>162.80000305176</ele>
        <time>2020-10-19T14:44:41.000Z</time>
      </trkpt>
      <trkpt lat="48.22261" lon="-3.12004">
        <ele>162.60000610352</ele>
        <time>2020-10-19T14:44:42.000Z</time>
      </trkpt>
      <trkpt lat="48.22262" lon="-3.12006">
        <ele>162.39999389648</ele>
        <time>2020-10-19T14:44:43.000Z</time>
      </trkpt>
      <trkpt lat="48.22262" lon="-3.12008">
        <ele>162.19999694824</ele>
        <time>2020-10-19T14:44:44.000Z</time>
      </trkpt>
      <trkpt lat="48.22263" lon="-3.1201">
        <ele>162.19999694824</ele>
        <time>2020-10-19T14:44:45.000Z</time>
      </trkpt>
      <trkpt lat="48.22263" lon="-3.12014">
        <ele>162.19999694824</ele>
        <time>2020-10-19T14:44:46.000Z</time>
      </trkpt>
      <trkpt lat="48.22263" lon="-3.12014">
        <ele>162.19999694824</ele>
        <time>2020-10-19T14:44:47.000Z</time>
      </trkpt>
      <trkpt lat="48.22263" lon="-3.12016">
        <ele>162.19999694824</ele>
        <time>2020-10-19T14:44:48.000Z</time>
      </trkpt>
      <trkpt lat="48.22263" lon="-3.12018">
        <ele>162.19999694824</ele>
        <time>2020-10-19T14:44:49.000Z</time>
      </trkpt>
      <trkpt lat="48.22263" lon="-3.12019">
        <ele>162.19999694824</ele>
        <time>2020-10-19T14:44:50.000Z</time>
      </trkpt>
      <trkpt lat="48.22264" lon="-3.12021">
        <ele>162.19999694824</ele>
        <time>2020-10-19T14:44:51.000Z</time>
      </trkpt>
      <trkpt lat="48.22264" lon="-3.12023">
        <ele>162.19999694824</ele>
        <time>2020-10-19T14:44:52.000Z</time>
      </trkpt>
      <trkpt lat="48.22264" lon="-3.12025">
        <ele>162.19999694824</ele>
        <time>2020-10-19T14:44:53.000Z</time>
      </trkpt>
      <trkpt lat="48.22264" lon="-3.12027">
        <ele>162.39999389648</ele>
        <time>2020-10-19T14:44:54.000Z</time>
      </trkpt>
      <trkpt lat="48.22264" lon="-3.12028">
        <ele>162.39999389648</ele>
        <time>2020-10-19T14:44:55.000Z</time>
      </trkpt>
      <trkpt lat="48.22264" lon="-3.1203">
        <ele>162.19999694824</ele>
        <time>2020-10-19T14:44:56.000Z</time>
      </trkpt>
      <trkpt lat="48.22264" lon="-3.12032">
        <ele>162.19999694824</ele>
        <time>2020-10-19T14:44:57.000Z</time>
      </trkpt>
      <trkpt lat="48.22265" lon="-3.12033">
        <ele>162.19999694824</ele>
        <time>2020-10-19T14:44:58.000Z</time>
      </trkpt>
      <trkpt lat="48.22265" lon="-3.12035">
        <ele>162.19999694824</ele>
        <time>2020-10-19T14:44:59.000Z</time>
      </trkpt>
      <trkpt lat="48.22265" lon="-3.12037">
        <ele>162.39999389648</ele>
        <time>2020-10-19T14:45:00.000Z</time>
      </trkpt>
      <trkpt lat="48.22265" lon="-3.12038">
        <ele>162.19999694824</ele>
        <time>2020-10-19T14:45:01.000Z</time>
      </trkpt>
      <trkpt lat="48.22265" lon="-3.1204">
        <ele>162.19999694824</ele>
        <time>2020-10-19T14:45:02.000Z</time>
      </trkpt>
      <trkpt lat="48.22265" lon="-3.12042">
        <ele>162.19999694824</ele>
        <time>2020-10-19T14:45:03.000Z</time>
      </trkpt>
      <trkpt lat="48.22265" lon="-3.12044">
        <ele>162.19999694824</ele>
        <time>2020-10-19T14:45:04.000Z</time>
      </trkpt>
      <trkpt lat="48.22266" lon="-3.12046">
        <ele>162.19999694824</ele>
        <time>2020-10-19T14:45:05.000Z</time>
      </trkpt>
      <trkpt lat="48.22266" lon="-3.12047">
        <ele>162.19999694824</ele>
        <time>2020-10-19T14:45:06.000Z</time>
      </trkpt>
      <trkpt lat="48.22266" lon="-3.12049">
        <ele>162.19999694824</ele>
        <time>2020-10-19T14:45:07.000Z</time>
      </trkpt>
      <trkpt lat="48.22266" lon="-3.12051">
        <ele>162.19999694824</ele>
        <time>2020-10-19T14:45:08.000Z</time>
      </trkpt>
      <trkpt lat="48.22266" lon="-3.12053">
        <ele>162.19999694824</ele>
        <time>2020-10-19T14:45:09.000Z</time>
      </trkpt>
      <trkpt lat="48.22265" lon="-3.12055">
        <ele>162</ele>
        <time>2020-10-19T14:45:10.000Z</time>
      </trkpt>
      <trkpt lat="48.22265" lon="-3.12056">
        <ele>161.80000305176</ele>
        <time>2020-10-19T14:45:11.000Z</time>
      </trkpt>
      <trkpt lat="48.22264" lon="-3.12057">
        <ele>161.60000610352</ele>
        <time>2020-10-19T14:45:12.000Z</time>
      </trkpt>
      <trkpt lat="48.22264" lon="-3.12058">
        <ele>161.39999389648</ele>
        <time>2020-10-19T14:45:13.000Z</time>
      </trkpt>
      <trkpt lat="48.22264" lon="-3.12059">
        <ele>161.39999389648</ele>
        <time>2020-10-19T14:45:14.000Z</time>
      </trkpt>
      <trkpt lat="48.22264" lon="-3.12059">
        <ele>161.39999389648</ele>
        <time>2020-10-19T14:45:15.000Z</time>
      </trkpt>
      <trkpt lat="48.22264" lon="-3.1206">
        <ele>161.39999389648</ele>
        <time>2020-10-19T14:45:16.000Z</time>
      </trkpt>
      <trkpt lat="48.22264" lon="-3.1206">
        <ele>161.39999389648</ele>
        <time>2020-10-19T14:45:17.000Z</time>
      </trkpt>
      <trkpt lat="48.22264" lon="-3.1206">
        <ele>161.39999389648</ele>
        <time>2020-10-19T14:45:18.000Z</time>
      </trkpt>
      <trkpt lat="48.22264" lon="-3.1206">
        <ele>161.39999389648</ele>
        <time>2020-10-19T14:45:19.000Z</time>
      </trkpt>
      <trkpt lat="48.22264" lon="-3.1206">
        <ele>161.39999389648</ele>
        <time>2020-10-19T14:45:20.000Z</time>
      </trkpt>
      <trkpt lat="48.22263" lon="-3.12059">
        <ele>161.19999694824</ele>
        <time>2020-10-19T14:45:21.000Z</time>
      </trkpt>
      <trkpt lat="48.22263" lon="-3.12059">
        <ele>161</ele>
        <time>2020-10-19T14:45:22.000Z</time>
      </trkpt>
      <trkpt lat="48.22262" lon="-3.12059">
        <ele>160.80000305176</ele>
        <time>2020-10-19T14:45:23.000Z</time>
      </trkpt>
      <trkpt lat="48.22262" lon="-3.12059">
        <ele>160.80000305176</ele>
        <time>2020-10-19T14:45:24.000Z</time>
      </trkpt>
      <trkpt lat="48.22261" lon="-3.12059">
        <ele>160.80000305176</ele>
        <time>2020-10-19T14:45:25.000Z</time>
      </trkpt>
      <trkpt lat="48.22261" lon="-3.1206">
        <ele>160.80000305176</ele>
        <time>2020-10-19T14:45:26.000Z</time>
      </trkpt>
      <trkpt lat="48.22261" lon="-3.1206">
        <ele>160.80000305176</ele>
        <time>2020-10-19T14:45:27.000Z</time>
      </trkpt>
      <trkpt lat="48.22262" lon="-3.1206">
        <ele>160.80000305176</ele>
        <time>2020-10-19T14:45:28.000Z</time>
      </trkpt>
      <trkpt lat="48.22263" lon="-3.1206">
        <ele>161</ele>
        <time>2020-10-19T14:45:29.000Z</time>
      </trkpt>
      <trkpt lat="48.22263" lon="-3.12061">
        <ele>161.19999694824</ele>
        <time>2020-10-19T14:45:30.000Z</time>
      </trkpt>
      <trkpt lat="48.22264" lon="-3.12062">
        <ele>161.39999389648</ele>
        <time>2020-10-19T14:45:31.000Z</time>
      </trkpt>
      <trkpt lat="48.22264" lon="-3.12063">
        <ele>161.39999389648</ele>
        <time>2020-10-19T14:45:32.000Z</time>
      </trkpt>
      <trkpt lat="48.22264" lon="-3.12065">
        <ele>161.39999389648</ele>
        <time>2020-10-19T14:45:33.000Z</time>
      </trkpt>
      <trkpt lat="48.22264" lon="-3.12067">
        <ele>161.19999694824</ele>
        <time>2020-10-19T14:45:34.000Z</time>
      </trkpt>
      <trkpt lat="48.22264" lon="-3.12068">
        <ele>161</ele>
        <time>2020-10-19T14:45:35.000Z</time>
      </trkpt>
      <trkpt lat="48.22263" lon="-3.1207">
        <ele>161</ele>
        <time>2020-10-19T14:45:36.000Z</time>
      </trkpt>
      <trkpt lat="48.22262" lon="-3.12071">
        <ele>160.60000610352</ele>
        <time>2020-10-19T14:45:37.000Z</time>
      </trkpt>
      <trkpt lat="48.22262" lon="-3.12072">
        <ele>160.60000610352</ele>
        <time>2020-10-19T14:45:38.000Z</time>
      </trkpt>
      <trkpt lat="48.22261" lon="-3.12073">
        <ele>160.60000610352</ele>
        <time>2020-10-19T14:45:39.000Z</time>
      </trkpt>
      <trkpt lat="48.22261" lon="-3.12075">
        <ele>160.39999389648</ele>
        <time>2020-10-19T14:45:40.000Z</time>
      </trkpt>
      <trkpt lat="48.2226" lon="-3.12076">
        <ele>160.39999389648</ele>
        <time>2020-10-19T14:45:41.000Z</time>
      </trkpt>
      <trkpt lat="48.22259" lon="-3.12078">
        <ele>160.39999389648</ele>
        <time>2020-10-19T14:45:42.000Z</time>
      </trkpt>
      <trkpt lat="48.22258" lon="-3.12079">
        <ele>160.39999389648</ele>
        <time>2020-10-19T14:45:43.000Z</time>
      </trkpt>
      <trkpt lat="48.22257" lon="-3.1208">
        <ele>160.39999389648</ele>
        <time>2020-10-19T14:45:44.000Z</time>
      </trkpt>
      <trkpt lat="48.22256" lon="-3.12081">
        <ele>160.39999389648</ele>
        <time>2020-10-19T14:45:45.000Z</time>
      </trkpt>
      <trkpt lat="48.22255" lon="-3.12084">
        <ele>160.39999389648</ele>
        <time>2020-10-19T14:45:46.000Z</time>
      </trkpt>
      <trkpt lat="48.22255" lon="-3.12084">
        <ele>160.39999389648</ele>
        <time>2020-10-19T14:45:47.000Z</time>
      </trkpt>
      <trkpt lat="48.22254" lon="-3.12085">
        <ele>160.60000610352</ele>
        <time>2020-10-19T14:45:48.000Z</time>
      </trkpt>
      <trkpt lat="48.22253" lon="-3.12086">
        <ele>160.60000610352</ele>
        <time>2020-10-19T14:45:49.000Z</time>
      </trkpt>
      <trkpt lat="48.22252" lon="-3.12088">
        <ele>160.60000610352</ele>
        <time>2020-10-19T14:45:50.000Z</time>
      </trkpt>
      <trkpt lat="48.22251" lon="-3.12089">
        <ele>160.60000610352</ele>
        <time>2020-10-19T14:45:51.000Z</time>
      </trkpt>
      <trkpt lat="48.2225" lon="-3.1209">
        <ele>160.60000610352</ele>
        <time>2020-10-19T14:45:52.000Z</time>
      </trkpt>
      <trkpt lat="48.22249" lon="-3.12092">
        <ele>160.60000610352</ele>
        <time>2020-10-19T14:45:53.000Z</time>
      </trkpt>
      <trkpt lat="48.22248" lon="-3.12093">
        <ele>160.60000610352</ele>
        <time>2020-10-19T14:45:54.000Z</time>
      </trkpt>
      <trkpt lat="48.22248" lon="-3.12094">
        <ele>160.39999389648</ele>
        <time>2020-10-19T14:45:55.000Z</time>
      </trkpt>
      <trkpt lat="48.22247" lon="-3.12095">
        <ele>160.39999389648</ele>
        <time>2020-10-19T14:45:56.000Z</time>
      </trkpt>
      <trkpt lat="48.22246" lon="-3.12097">
        <ele>160.39999389648</ele>
        <time>2020-10-19T14:45:57.000Z</time>
      </trkpt>
      <trkpt lat="48.22246" lon="-3.12098">
        <ele>160.19999694824</ele>
        <time>2020-10-19T14:45:58.000Z</time>
      </trkpt>
      <trkpt lat="48.22245" lon="-3.12099">
        <ele>160.19999694824</ele>
        <time>2020-10-19T14:45:59.000Z</time>
      </trkpt>
      <trkpt lat="48.22244" lon="-3.121">
        <ele>160</ele>
        <time>2020-10-19T14:46:00.000Z</time>
      </trkpt>
      <trkpt lat="48.22243" lon="-3.12102">
        <ele>160</ele>
        <time>2020-10-19T14:46:01.000Z</time>
      </trkpt>
      <trkpt lat="48.22242" lon="-3.12103">
        <ele>160</ele>
        <time>2020-10-19T14:46:02.000Z</time>
      </trkpt>
      <trkpt lat="48.22242" lon="-3.12104">
        <ele>159.80000305176</ele>
        <time>2020-10-19T14:46:03.000Z</time>
      </trkpt>
      <trkpt lat="48.2224" lon="-3.12105">
        <ele>159.80000305176</ele>
        <time>2020-10-19T14:46:04.000Z</time>
      </trkpt>
      <trkpt lat="48.22239" lon="-3.12106">
        <ele>159.80000305176</ele>
        <time>2020-10-19T14:46:05.000Z</time>
      </trkpt>
      <trkpt lat="48.22237" lon="-3.12107">
        <ele>159.80000305176</ele>
        <time>2020-10-19T14:46:06.000Z</time>
      </trkpt>
      <trkpt lat="48.22236" lon="-3.12108">
        <ele>159.60000610352</ele>
        <time>2020-10-19T14:46:07.000Z</time>
      </trkpt>
      <trkpt lat="48.22235" lon="-3.1211">
        <ele>159.60000610352</ele>
        <time>2020-10-19T14:46:08.000Z</time>
      </trkpt>
      <trkpt lat="48.22234" lon="-3.12111">
        <ele>159.60000610352</ele>
        <time>2020-10-19T14:46:09.000Z</time>
      </trkpt>
      <trkpt lat="48.22233" lon="-3.12112">
        <ele>159.60000610352</ele>
        <time>2020-10-19T14:46:10.000Z</time>
      </trkpt>
      <trkpt lat="48.22232" lon="-3.12113">
        <ele>159.39999389648</ele>
        <time>2020-10-19T14:46:11.000Z</time>
      </trkpt>
      <trkpt lat="48.22231" lon="-3.12115">
        <ele>159.39999389648</ele>
        <time>2020-10-19T14:46:12.000Z</time>
      </trkpt>
      <trkpt lat="48.2223" lon="-3.12116">
        <ele>159.19999694824</ele>
        <time>2020-10-19T14:46:13.000Z</time>
      </trkpt>
      <trkpt lat="48.22229" lon="-3.12117">
        <ele>159.19999694824</ele>
        <time>2020-10-19T14:46:14.000Z</time>
      </trkpt>
      <trkpt lat="48.22228" lon="-3.12119">
        <ele>159</ele>
        <time>2020-10-19T14:46:15.000Z</time>
      </trkpt>
      <trkpt lat="48.22228" lon="-3.12119">
        <ele>159</ele>
        <time>2020-10-19T14:46:16.000Z</time>
      </trkpt>
      <trkpt lat="48.22227" lon="-3.12121">
        <ele>159</ele>
        <time>2020-10-19T14:46:17.000Z</time>
      </trkpt>
      <trkpt lat="48.22226" lon="-3.12122">
        <ele>159</ele>
        <time>2020-10-19T14:46:18.000Z</time>
      </trkpt>
      <trkpt lat="48.22225" lon="-3.12123">
        <ele>158.80000305176</ele>
        <time>2020-10-19T14:46:19.000Z</time>
      </trkpt>
      <trkpt lat="48.22224" lon="-3.12124">
        <ele>158.80000305176</ele>
        <time>2020-10-19T14:46:20.000Z</time>
      </trkpt>
      <trkpt lat="48.22223" lon="-3.12125">
        <ele>158.80000305176</ele>
        <time>2020-10-19T14:46:21.000Z</time>
      </trkpt>
      <trkpt lat="48.22223" lon="-3.12127">
        <ele>158.60000610352</ele>
        <time>2020-10-19T14:46:22.000Z</time>
      </trkpt>
      <trkpt lat="48.22222" lon="-3.12128">
        <ele>158.60000610352</ele>
        <time>2020-10-19T14:46:23.000Z</time>
      </trkpt>
      <trkpt lat="48.22221" lon="-3.12129">
        <ele>158.60000610352</ele>
        <time>2020-10-19T14:46:24.000Z</time>
      </trkpt>
      <trkpt lat="48.2222" lon="-3.1213">
        <ele>158.39999389648</ele>
        <time>2020-10-19T14:46:25.000Z</time>
      </trkpt>
      <trkpt lat="48.2222" lon="-3.12131">
        <ele>158.39999389648</ele>
        <time>2020-10-19T14:46:26.000Z</time>
      </trkpt>
      <trkpt lat="48.22219" lon="-3.12132">
        <ele>158.19999694824</ele>
        <time>2020-10-19T14:46:27.000Z</time>
      </trkpt>
      <trkpt lat="48.22218" lon="-3.12133">
        <ele>158.19999694824</ele>
        <time>2020-10-19T14:46:28.000Z</time>
      </trkpt>
      <trkpt lat="48.22218" lon="-3.12135">
        <ele>158.19999694824</ele>
        <time>2020-10-19T14:46:29.000Z</time>
      </trkpt>
      <trkpt lat="48.22217" lon="-3.12136">
        <ele>158</ele>
        <time>2020-10-19T14:46:30.000Z</time>
      </trkpt>
      <trkpt lat="48.22216" lon="-3.12137">
        <ele>158</ele>
        <time>2020-10-19T14:46:31.000Z</time>
      </trkpt>
      <trkpt lat="48.22215" lon="-3.12138">
        <ele>158</ele>
        <time>2020-10-19T14:46:32.000Z</time>
      </trkpt>
      <trkpt lat="48.22214" lon="-3.12139">
        <ele>157.80000305176</ele>
        <time>2020-10-19T14:46:33.000Z</time>
      </trkpt>
      <trkpt lat="48.22213" lon="-3.12141">
        <ele>157.80000305176</ele>
        <time>2020-10-19T14:46:34.000Z</time>
      </trkpt>
      <trkpt lat="48.22212" lon="-3.12142">
        <ele>157.80000305176</ele>
        <time>2020-10-19T14:46:35.000Z</time>
      </trkpt>
      <trkpt lat="48.22211" lon="-3.12143">
        <ele>157.60000610352</ele>
        <time>2020-10-19T14:46:36.000Z</time>
      </trkpt>
      <trkpt lat="48.22211" lon="-3.12144">
        <ele>157.60000610352</ele>
        <time>2020-10-19T14:46:37.000Z</time>
      </trkpt>
      <trkpt lat="48.2221" lon="-3.12146">
        <ele>157.60000610352</ele>
        <time>2020-10-19T14:46:38.000Z</time>
      </trkpt>
      <trkpt lat="48.2221" lon="-3.12147">
        <ele>157.60000610352</ele>
        <time>2020-10-19T14:46:39.000Z</time>
      </trkpt>
      <trkpt lat="48.22209" lon="-3.12148">
        <ele>157.60000610352</ele>
        <time>2020-10-19T14:46:40.000Z</time>
      </trkpt>
      <trkpt lat="48.22209" lon="-3.12149">
        <ele>157.80000305176</ele>
        <time>2020-10-19T14:46:41.000Z</time>
      </trkpt>
      <trkpt lat="48.22208" lon="-3.1215">
        <ele>157.80000305176</ele>
        <time>2020-10-19T14:46:42.000Z</time>
      </trkpt>
      <trkpt lat="48.22207" lon="-3.12152">
        <ele>157.80000305176</ele>
        <time>2020-10-19T14:46:43.000Z</time>
      </trkpt>
      <trkpt lat="48.22206" lon="-3.12155">
        <ele>158.19999694824</ele>
        <time>2020-10-19T14:46:44.000Z</time>
      </trkpt>
      <trkpt lat="48.22206" lon="-3.12155">
        <ele>158.19999694824</ele>
        <time>2020-10-19T14:46:45.000Z</time>
      </trkpt>
      <trkpt lat="48.22205" lon="-3.12157">
        <ele>158.19999694824</ele>
        <time>2020-10-19T14:46:46.000Z</time>
      </trkpt>
      <trkpt lat="48.22204" lon="-3.12159">
        <ele>158.19999694824</ele>
        <time>2020-10-19T14:46:47.000Z</time>
      </trkpt>
      <trkpt lat="48.22203" lon="-3.1216">
        <ele>158.19999694824</ele>
        <time>2020-10-19T14:46:48.000Z</time>
      </trkpt>
      <trkpt lat="48.22202" lon="-3.12162">
        <ele>158.19999694824</ele>
        <time>2020-10-19T14:46:49.000Z</time>
      </trkpt>
      <trkpt lat="48.22201" lon="-3.12163">
        <ele>158.39999389648</ele>
        <time>2020-10-19T14:46:50.000Z</time>
      </trkpt>
      <trkpt lat="48.22201" lon="-3.12165">
        <ele>158.39999389648</ele>
        <time>2020-10-19T14:46:51.000Z</time>
      </trkpt>
      <trkpt lat="48.222" lon="-3.12166">
        <ele>158.39999389648</ele>
        <time>2020-10-19T14:46:52.000Z</time>
      </trkpt>
      <trkpt lat="48.22199" lon="-3.12168">
        <ele>158.60000610352</ele>
        <time>2020-10-19T14:46:53.000Z</time>
      </trkpt>
      <trkpt lat="48.22198" lon="-3.12169">
        <ele>158.60000610352</ele>
        <time>2020-10-19T14:46:54.000Z</time>
      </trkpt>
      <trkpt lat="48.22197" lon="-3.12171">
        <ele>158.60000610352</ele>
        <time>2020-10-19T14:46:55.000Z</time>
      </trkpt>
      <trkpt lat="48.22196" lon="-3.12174">
        <ele>158.80000305176</ele>
        <time>2020-10-19T14:46:56.000Z</time>
      </trkpt>
      <trkpt lat="48.22196" lon="-3.12174">
        <ele>158.80000305176</ele>
        <time>2020-10-19T14:46:57.000Z</time>
      </trkpt>
      <trkpt lat="48.22195" lon="-3.12175">
        <ele>159</ele>
        <time>2020-10-19T14:46:58.000Z</time>
      </trkpt>
      <trkpt lat="48.22195" lon="-3.12176">
        <ele>159</ele>
        <time>2020-10-19T14:46:59.000Z</time>
      </trkpt>
      <trkpt lat="48.22193" lon="-3.12177">
        <ele>158.80000305176</ele>
        <time>2020-10-19T14:47:00.000Z</time>
      </trkpt>
      <trkpt lat="48.22193" lon="-3.12178">
        <ele>158.80000305176</ele>
        <time>2020-10-19T14:47:01.000Z</time>
      </trkpt>
      <trkpt lat="48.22192" lon="-3.12179">
        <ele>158.60000610352</ele>
        <time>2020-10-19T14:47:02.000Z</time>
      </trkpt>
      <trkpt lat="48.22191" lon="-3.1218">
        <ele>158.60000610352</ele>
        <time>2020-10-19T14:47:03.000Z</time>
      </trkpt>
      <trkpt lat="48.2219" lon="-3.12181">
        <ele>158.60000610352</ele>
        <time>2020-10-19T14:47:04.000Z</time>
      </trkpt>
      <trkpt lat="48.22189" lon="-3.12182">
        <ele>158.60000610352</ele>
        <time>2020-10-19T14:47:05.000Z</time>
      </trkpt>
      <trkpt lat="48.22188" lon="-3.12184">
        <ele>158.60000610352</ele>
        <time>2020-10-19T14:47:06.000Z</time>
      </trkpt>
      <trkpt lat="48.22187" lon="-3.12185">
        <ele>158.39999389648</ele>
        <time>2020-10-19T14:47:07.000Z</time>
      </trkpt>
      <trkpt lat="48.22186" lon="-3.12186">
        <ele>158.39999389648</ele>
        <time>2020-10-19T14:47:08.000Z</time>
      </trkpt>
      <trkpt lat="48.22185" lon="-3.12188">
        <ele>158.39999389648</ele>
        <time>2020-10-19T14:47:09.000Z</time>
      </trkpt>
      <trkpt lat="48.22184" lon="-3.12189">
        <ele>158.39999389648</ele>
        <time>2020-10-19T14:47:10.000Z</time>
      </trkpt>
      <trkpt lat="48.22183" lon="-3.12189">
        <ele>158</ele>
        <time>2020-10-19T14:47:11.000Z</time>
      </trkpt>
      <trkpt lat="48.22182" lon="-3.1219">
        <ele>158</ele>
        <time>2020-10-19T14:47:12.000Z</time>
      </trkpt>
      <trkpt lat="48.22181" lon="-3.12191">
        <ele>158</ele>
        <time>2020-10-19T14:47:13.000Z</time>
      </trkpt>
      <trkpt lat="48.2218" lon="-3.12192">
        <ele>157.80000305176</ele>
        <time>2020-10-19T14:47:14.000Z</time>
      </trkpt>
      <trkpt lat="48.22179" lon="-3.12192">
        <ele>157.80000305176</ele>
        <time>2020-10-19T14:47:15.000Z</time>
      </trkpt>
      <trkpt lat="48.22179" lon="-3.12193">
        <ele>157.80000305176</ele>
        <time>2020-10-19T14:47:16.000Z</time>
      </trkpt>
      <trkpt lat="48.22178" lon="-3.12194">
        <ele>157.80000305176</ele>
        <time>2020-10-19T14:47:17.000Z</time>
      </trkpt>
      <trkpt lat="48.22177" lon="-3.12195">
        <ele>157.80000305176</ele>
        <time>2020-10-19T14:47:18.000Z</time>
      </trkpt>
      <trkpt lat="48.22176" lon="-3.12196">
        <ele>157.80000305176</ele>
        <time>2020-10-19T14:47:19.000Z</time>
      </trkpt>
      <trkpt lat="48.22176" lon="-3.12197">
        <ele>157.80000305176</ele>
        <time>2020-10-19T14:47:20.000Z</time>
      </trkpt>
      <trkpt lat="48.22175" lon="-3.12198">
        <ele>157.80000305176</ele>
        <time>2020-10-19T14:47:21.000Z</time>
      </trkpt>
      <trkpt lat="48.22174" lon="-3.122">
        <ele>157.80000305176</ele>
        <time>2020-10-19T14:47:22.000Z</time>
      </trkpt>
      <trkpt lat="48.22173" lon="-3.12201">
        <ele>157.80000305176</ele>
        <time>2020-10-19T14:47:23.000Z</time>
      </trkpt>
      <trkpt lat="48.22172" lon="-3.12202">
        <ele>157.80000305176</ele>
        <time>2020-10-19T14:47:24.000Z</time>
      </trkpt>
      <trkpt lat="48.22171" lon="-3.12203">
        <ele>157.80000305176</ele>
        <time>2020-10-19T14:47:25.000Z</time>
      </trkpt>
      <trkpt lat="48.2217" lon="-3.12205">
        <ele>158</ele>
        <time>2020-10-19T14:47:26.000Z</time>
      </trkpt>
      <trkpt lat="48.2217" lon="-3.12207">
        <ele>158</ele>
        <time>2020-10-19T14:47:27.000Z</time>
      </trkpt>
      <trkpt lat="48.22169" lon="-3.12208">
        <ele>158</ele>
        <time>2020-10-19T14:47:28.000Z</time>
      </trkpt>
      <trkpt lat="48.22168" lon="-3.12209">
        <ele>158.19999694824</ele>
        <time>2020-10-19T14:47:29.000Z</time>
      </trkpt>
      <trkpt lat="48.22168" lon="-3.12211">
        <ele>158.19999694824</ele>
        <time>2020-10-19T14:47:30.000Z</time>
      </trkpt>
      <trkpt lat="48.22167" lon="-3.12212">
        <ele>158.19999694824</ele>
        <time>2020-10-19T14:47:31.000Z</time>
      </trkpt>
      <trkpt lat="48.22165" lon="-3.12213">
        <ele>158.19999694824</ele>
        <time>2020-10-19T14:47:32.000Z</time>
      </trkpt>
      <trkpt lat="48.22165" lon="-3.12214">
        <ele>158.19999694824</ele>
        <time>2020-10-19T14:47:33.000Z</time>
      </trkpt>
      <trkpt lat="48.22164" lon="-3.12215">
        <ele>158</ele>
        <time>2020-10-19T14:47:34.000Z</time>
      </trkpt>
      <trkpt lat="48.22163" lon="-3.12216">
        <ele>158</ele>
        <time>2020-10-19T14:47:35.000Z</time>
      </trkpt>
      <trkpt lat="48.22162" lon="-3.12217">
        <ele>158.19999694824</ele>
        <time>2020-10-19T14:47:36.000Z</time>
      </trkpt>
      <trkpt lat="48.22161" lon="-3.12218">
        <ele>158.19999694824</ele>
        <time>2020-10-19T14:47:37.000Z</time>
      </trkpt>
      <trkpt lat="48.2216" lon="-3.1222">
        <ele>158.19999694824</ele>
        <time>2020-10-19T14:47:38.000Z</time>
      </trkpt>
      <trkpt lat="48.22159" lon="-3.12221">
        <ele>158.19999694824</ele>
        <time>2020-10-19T14:47:39.000Z</time>
      </trkpt>
      <trkpt lat="48.22158" lon="-3.12222">
        <ele>158.19999694824</ele>
        <time>2020-10-19T14:47:40.000Z</time>
      </trkpt>
      <trkpt lat="48.22157" lon="-3.12223">
        <ele>158.19999694824</ele>
        <time>2020-10-19T14:47:41.000Z</time>
      </trkpt>
      <trkpt lat="48.22156" lon="-3.12224">
        <ele>158</ele>
        <time>2020-10-19T14:47:42.000Z</time>
      </trkpt>
      <trkpt lat="48.22154" lon="-3.12225">
        <ele>158</ele>
        <time>2020-10-19T14:47:43.000Z</time>
      </trkpt>
      <trkpt lat="48.22153" lon="-3.12226">
        <ele>158</ele>
        <time>2020-10-19T14:47:44.000Z</time>
      </trkpt>
      <trkpt lat="48.22152" lon="-3.12228">
        <ele>158</ele>
        <time>2020-10-19T14:47:45.000Z</time>
      </trkpt>
      <trkpt lat="48.22151" lon="-3.12229">
        <ele>158</ele>
        <time>2020-10-19T14:47:46.000Z</time>
      </trkpt>
      <trkpt lat="48.2215" lon="-3.1223">
        <ele>157.80000305176</ele>
        <time>2020-10-19T14:47:47.000Z</time>
      </trkpt>
      <trkpt lat="48.22149" lon="-3.12231">
        <ele>157.80000305176</ele>
        <time>2020-10-19T14:47:48.000Z</time>
      </trkpt>
      <trkpt lat="48.22148" lon="-3.12232">
        <ele>157.80000305176</ele>
        <time>2020-10-19T14:47:49.000Z</time>
      </trkpt>
      <trkpt lat="48.22147" lon="-3.12233">
        <ele>157.80000305176</ele>
        <time>2020-10-19T14:47:50.000Z</time>
      </trkpt>
      <trkpt lat="48.22146" lon="-3.12234">
        <ele>157.80000305176</ele>
        <time>2020-10-19T14:47:51.000Z</time>
      </trkpt>
      <trkpt lat="48.22145" lon="-3.12235">
        <ele>157.80000305176</ele>
        <time>2020-10-19T14:47:52.000Z</time>
      </trkpt>
      <trkpt lat="48.22144" lon="-3.12237">
        <ele>158</ele>
        <time>2020-10-19T14:47:53.000Z</time>
      </trkpt>
      <trkpt lat="48.22143" lon="-3.12238">
        <ele>158</ele>
        <time>2020-10-19T14:47:54.000Z</time>
      </trkpt>
      <trkpt lat="48.22142" lon="-3.1224">
        <ele>158</ele>
        <time>2020-10-19T14:47:55.000Z</time>
      </trkpt>
      <trkpt lat="48.22142" lon="-3.12242">
        <ele>158</ele>
        <time>2020-10-19T14:47:56.000Z</time>
      </trkpt>
      <trkpt lat="48.22141" lon="-3.12243">
        <ele>158.19999694824</ele>
        <time>2020-10-19T14:47:57.000Z</time>
      </trkpt>
      <trkpt lat="48.2214" lon="-3.12245">
        <ele>158.19999694824</ele>
        <time>2020-10-19T14:47:58.000Z</time>
      </trkpt>
      <trkpt lat="48.2214" lon="-3.12246">
        <ele>158.39999389648</ele>
        <time>2020-10-19T14:47:59.000Z</time>
      </trkpt>
      <trkpt lat="48.22139" lon="-3.12247">
        <ele>158.39999389648</ele>
        <time>2020-10-19T14:48:00.000Z</time>
      </trkpt>
      <trkpt lat="48.22137" lon="-3.12248">
        <ele>158.19999694824</ele>
        <time>2020-10-19T14:48:01.000Z</time>
      </trkpt>
      <trkpt lat="48.22137" lon="-3.1225">
        <ele>158.19999694824</ele>
        <time>2020-10-19T14:48:02.000Z</time>
      </trkpt>
      <trkpt lat="48.22136" lon="-3.12251">
        <ele>158.39999389648</ele>
        <time>2020-10-19T14:48:03.000Z</time>
      </trkpt>
      <trkpt lat="48.22135" lon="-3.12252">
        <ele>158.39999389648</ele>
        <time>2020-10-19T14:48:04.000Z</time>
      </trkpt>
      <trkpt lat="48.22134" lon="-3.12253">
        <ele>158.39999389648</ele>
        <time>2020-10-19T14:48:05.000Z</time>
      </trkpt>
      <trkpt lat="48.22133" lon="-3.12255">
        <ele>158.39999389648</ele>
        <time>2020-10-19T14:48:06.000Z</time>
      </trkpt>
      <trkpt lat="48.22132" lon="-3.12256">
        <ele>158.39999389648</ele>
        <time>2020-10-19T14:48:07.000Z</time>
      </trkpt>
      <trkpt lat="48.22131" lon="-3.12257">
        <ele>158.39999389648</ele>
        <time>2020-10-19T14:48:08.000Z</time>
      </trkpt>
      <trkpt lat="48.2213" lon="-3.12259">
        <ele>158.39999389648</ele>
        <time>2020-10-19T14:48:09.000Z</time>
      </trkpt>
      <trkpt lat="48.22129" lon="-3.1226">
        <ele>158.39999389648</ele>
        <time>2020-10-19T14:48:10.000Z</time>
      </trkpt>
      <trkpt lat="48.22128" lon="-3.12261">
        <ele>158.39999389648</ele>
        <time>2020-10-19T14:48:11.000Z</time>
      </trkpt>
      <trkpt lat="48.22127" lon="-3.12263">
        <ele>158.39999389648</ele>
        <time>2020-10-19T14:48:12.000Z</time>
      </trkpt>
      <trkpt lat="48.22126" lon="-3.12265">
        <ele>158.39999389648</ele>
        <time>2020-10-19T14:48:13.000Z</time>
      </trkpt>
      <trkpt lat="48.22125" lon="-3.12266">
        <ele>158.19999694824</ele>
        <time>2020-10-19T14:48:14.000Z</time>
      </trkpt>
      <trkpt lat="48.22124" lon="-3.12268">
        <ele>158.19999694824</ele>
        <time>2020-10-19T14:48:15.000Z</time>
      </trkpt>
      <trkpt lat="48.22122" lon="-3.12269">
        <ele>158.19999694824</ele>
        <time>2020-10-19T14:48:16.000Z</time>
      </trkpt>
      <trkpt lat="48.22122" lon="-3.1227">
        <ele>158.19999694824</ele>
        <time>2020-10-19T14:48:17.000Z</time>
      </trkpt>
      <trkpt lat="48.22121" lon="-3.12272">
        <ele>158.19999694824</ele>
        <time>2020-10-19T14:48:18.000Z</time>
      </trkpt>
      <trkpt lat="48.2212" lon="-3.12273">
        <ele>158.19999694824</ele>
        <time>2020-10-19T14:48:19.000Z</time>
      </trkpt>
      <trkpt lat="48.22119" lon="-3.12275">
        <ele>158.19999694824</ele>
        <time>2020-10-19T14:48:20.000Z</time>
      </trkpt>
      <trkpt lat="48.22119" lon="-3.12275">
        <ele>158.19999694824</ele>
        <time>2020-10-19T14:48:21.000Z</time>
      </trkpt>
      <trkpt lat="48.22118" lon="-3.12276">
        <ele>158.19999694824</ele>
        <time>2020-10-19T14:48:22.000Z</time>
      </trkpt>
      <trkpt lat="48.22117" lon="-3.12277">
        <ele>158.19999694824</ele>
        <time>2020-10-19T14:48:23.000Z</time>
      </trkpt>
      <trkpt lat="48.22116" lon="-3.12279">
        <ele>158.19999694824</ele>
        <time>2020-10-19T14:48:24.000Z</time>
      </trkpt>
      <trkpt lat="48.22116" lon="-3.1228">
        <ele>158.19999694824</ele>
        <time>2020-10-19T14:48:25.000Z</time>
      </trkpt>
      <trkpt lat="48.22115" lon="-3.12281">
        <ele>158</ele>
        <time>2020-10-19T14:48:26.000Z</time>
      </trkpt>
      <trkpt lat="48.22114" lon="-3.12283">
        <ele>158</ele>
        <time>2020-10-19T14:48:27.000Z</time>
      </trkpt>
      <trkpt lat="48.22113" lon="-3.12284">
        <ele>158</ele>
        <time>2020-10-19T14:48:28.000Z</time>
      </trkpt>
      <trkpt lat="48.22113" lon="-3.12285">
        <ele>158</ele>
        <time>2020-10-19T14:48:29.000Z</time>
      </trkpt>
      <trkpt lat="48.22112" lon="-3.12287">
        <ele>158</ele>
        <time>2020-10-19T14:48:30.000Z</time>
      </trkpt>
      <trkpt lat="48.22111" lon="-3.12288">
        <ele>158</ele>
        <time>2020-10-19T14:48:31.000Z</time>
      </trkpt>
      <trkpt lat="48.2211" lon="-3.12289">
        <ele>158</ele>
        <time>2020-10-19T14:48:32.000Z</time>
      </trkpt>
      <trkpt lat="48.22109" lon="-3.1229">
        <ele>158</ele>
        <time>2020-10-19T14:48:33.000Z</time>
      </trkpt>
      <trkpt lat="48.22108" lon="-3.12292">
        <ele>157.80000305176</ele>
        <time>2020-10-19T14:48:34.000Z</time>
      </trkpt>
      <trkpt lat="48.22107" lon="-3.12293">
        <ele>158</ele>
        <time>2020-10-19T14:48:35.000Z</time>
      </trkpt>
      <trkpt lat="48.22106" lon="-3.12294">
        <ele>157.80000305176</ele>
        <time>2020-10-19T14:48:36.000Z</time>
      </trkpt>
      <trkpt lat="48.22106" lon="-3.12295">
        <ele>157.80000305176</ele>
        <time>2020-10-19T14:48:37.000Z</time>
      </trkpt>
      <trkpt lat="48.22105" lon="-3.12297">
        <ele>158</ele>
        <time>2020-10-19T14:48:38.000Z</time>
      </trkpt>
      <trkpt lat="48.22104" lon="-3.12298">
        <ele>157.80000305176</ele>
        <time>2020-10-19T14:48:39.000Z</time>
      </trkpt>
      <trkpt lat="48.22104" lon="-3.12299">
        <ele>157.80000305176</ele>
        <time>2020-10-19T14:48:40.000Z</time>
      </trkpt>
      <trkpt lat="48.22103" lon="-3.123">
        <ele>157.80000305176</ele>
        <time>2020-10-19T14:48:41.000Z</time>
      </trkpt>
      <trkpt lat="48.22102" lon="-3.12301">
        <ele>157.80000305176</ele>
        <time>2020-10-19T14:48:42.000Z</time>
      </trkpt>
      <trkpt lat="48.22101" lon="-3.12302">
        <ele>157.80000305176</ele>
        <time>2020-10-19T14:48:43.000Z</time>
      </trkpt>
      <trkpt lat="48.221" lon="-3.12304">
        <ele>157.80000305176</ele>
        <time>2020-10-19T14:48:44.000Z</time>
      </trkpt>
      <trkpt lat="48.22099" lon="-3.12304">
        <ele>157.60000610352</ele>
        <time>2020-10-19T14:48:45.000Z</time>
      </trkpt>
      <trkpt lat="48.22098" lon="-3.12306">
        <ele>157.60000610352</ele>
        <time>2020-10-19T14:48:46.000Z</time>
      </trkpt>
      <trkpt lat="48.22096" lon="-3.12308">
        <ele>157.60000610352</ele>
        <time>2020-10-19T14:48:47.000Z</time>
      </trkpt>
      <trkpt lat="48.22096" lon="-3.12308">
        <ele>157.60000610352</ele>
        <time>2020-10-19T14:48:48.000Z</time>
      </trkpt>
      <trkpt lat="48.22096" lon="-3.1231">
        <ele>157.60000610352</ele>
        <time>2020-10-19T14:48:49.000Z</time>
      </trkpt>
      <trkpt lat="48.22095" lon="-3.12311">
        <ele>157.60000610352</ele>
        <time>2020-10-19T14:48:50.000Z</time>
      </trkpt>
      <trkpt lat="48.22094" lon="-3.12311">
        <ele>157.60000610352</ele>
        <time>2020-10-19T14:48:51.000Z</time>
      </trkpt>
      <trkpt lat="48.22093" lon="-3.12312">
        <ele>157.60000610352</ele>
        <time>2020-10-19T14:48:52.000Z</time>
      </trkpt>
      <trkpt lat="48.22092" lon="-3.12313">
        <ele>157.60000610352</ele>
        <time>2020-10-19T14:48:53.000Z</time>
      </trkpt>
      <trkpt lat="48.22092" lon="-3.12314">
        <ele>157.60000610352</ele>
        <time>2020-10-19T14:48:54.000Z</time>
      </trkpt>
      <trkpt lat="48.22091" lon="-3.12315">
        <ele>157.39999389648</ele>
        <time>2020-10-19T14:48:55.000Z</time>
      </trkpt>
      <trkpt lat="48.2209" lon="-3.12316">
        <ele>157.39999389648</ele>
        <time>2020-10-19T14:48:56.000Z</time>
      </trkpt>
      <trkpt lat="48.22089" lon="-3.12317">
        <ele>157.39999389648</ele>
        <time>2020-10-19T14:48:57.000Z</time>
      </trkpt>
      <trkpt lat="48.22088" lon="-3.12318">
        <ele>157.39999389648</ele>
        <time>2020-10-19T14:48:58.000Z</time>
      </trkpt>
      <trkpt lat="48.22088" lon="-3.12319">
        <ele>157.39999389648</ele>
        <time>2020-10-19T14:48:59.000Z</time>
      </trkpt>
      <trkpt lat="48.22087" lon="-3.1232">
        <ele>157.39999389648</ele>
        <time>2020-10-19T14:49:00.000Z</time>
      </trkpt>
      <trkpt lat="48.22086" lon="-3.12321">
        <ele>157.39999389648</ele>
        <time>2020-10-19T14:49:01.000Z</time>
      </trkpt>
      <trkpt lat="48.22085" lon="-3.12322">
        <ele>157.39999389648</ele>
        <time>2020-10-19T14:49:02.000Z</time>
      </trkpt>
      <trkpt lat="48.22084" lon="-3.12323">
        <ele>157.39999389648</ele>
        <time>2020-10-19T14:49:03.000Z</time>
      </trkpt>
      <trkpt lat="48.22083" lon="-3.12324">
        <ele>157.39999389648</ele>
        <time>2020-10-19T14:49:04.000Z</time>
      </trkpt>
      <trkpt lat="48.22082" lon="-3.12325">
        <ele>157.39999389648</ele>
        <time>2020-10-19T14:49:05.000Z</time>
      </trkpt>
      <trkpt lat="48.22081" lon="-3.12326">
        <ele>157.39999389648</ele>
        <time>2020-10-19T14:49:06.000Z</time>
      </trkpt>
      <trkpt lat="48.2208" lon="-3.12326">
        <ele>157.19999694824</ele>
        <time>2020-10-19T14:49:07.000Z</time>
      </trkpt>
      <trkpt lat="48.22079" lon="-3.12327">
        <ele>157.19999694824</ele>
        <time>2020-10-19T14:49:08.000Z</time>
      </trkpt>
      <trkpt lat="48.22078" lon="-3.12328">
        <ele>157.19999694824</ele>
        <time>2020-10-19T14:49:09.000Z</time>
      </trkpt>
      <trkpt lat="48.22077" lon="-3.12329">
        <ele>157.19999694824</ele>
        <time>2020-10-19T14:49:10.000Z</time>
      </trkpt>
      <trkpt lat="48.22077" lon="-3.12329">
        <ele>157.19999694824</ele>
        <time>2020-10-19T14:49:11.000Z</time>
      </trkpt>
      <trkpt lat="48.22076" lon="-3.1233">
        <ele>157</ele>
        <time>2020-10-19T14:49:12.000Z</time>
      </trkpt>
      <trkpt lat="48.22075" lon="-3.1233">
        <ele>157</ele>
        <time>2020-10-19T14:49:13.000Z</time>
      </trkpt>
      <trkpt lat="48.22074" lon="-3.12331">
        <ele>157</ele>
        <time>2020-10-19T14:49:14.000Z</time>
      </trkpt>
      <trkpt lat="48.22073" lon="-3.12333">
        <ele>157</ele>
        <time>2020-10-19T14:49:15.000Z</time>
      </trkpt>
      <trkpt lat="48.22072" lon="-3.12333">
        <ele>157</ele>
        <time>2020-10-19T14:49:16.000Z</time>
      </trkpt>
      <trkpt lat="48.22071" lon="-3.12334">
        <ele>157</ele>
        <time>2020-10-19T14:49:17.000Z</time>
      </trkpt>
      <trkpt lat="48.22069" lon="-3.12334">
        <ele>156.80000305176</ele>
        <time>2020-10-19T14:49:18.000Z</time>
      </trkpt>
      <trkpt lat="48.22067" lon="-3.12334">
        <ele>156.60000610352</ele>
        <time>2020-10-19T14:49:19.000Z</time>
      </trkpt>
      <trkpt lat="48.22066" lon="-3.12335">
        <ele>156.60000610352</ele>
        <time>2020-10-19T14:49:20.000Z</time>
      </trkpt>
      <trkpt lat="48.22065" lon="-3.12336">
        <ele>156.39999389648</ele>
        <time>2020-10-19T14:49:21.000Z</time>
      </trkpt>
      <trkpt lat="48.22063" lon="-3.12337">
        <ele>156.39999389648</ele>
        <time>2020-10-19T14:49:22.000Z</time>
      </trkpt>
      <trkpt lat="48.22063" lon="-3.12338">
        <ele>156.39999389648</ele>
        <time>2020-10-19T14:49:23.000Z</time>
      </trkpt>
      <trkpt lat="48.22062" lon="-3.12338">
        <ele>156.39999389648</ele>
        <time>2020-10-19T14:49:24.000Z</time>
      </trkpt>
      <trkpt lat="48.22061" lon="-3.12339">
        <ele>156.39999389648</ele>
        <time>2020-10-19T14:49:25.000Z</time>
      </trkpt>
      <trkpt lat="48.2206" lon="-3.1234">
        <ele>156.39999389648</ele>
        <time>2020-10-19T14:49:26.000Z</time>
      </trkpt>
      <trkpt lat="48.22059" lon="-3.12341">
        <ele>156.39999389648</ele>
        <time>2020-10-19T14:49:27.000Z</time>
      </trkpt>
      <trkpt lat="48.22058" lon="-3.12342">
        <ele>156.19999694824</ele>
        <time>2020-10-19T14:49:28.000Z</time>
      </trkpt>
      <trkpt lat="48.22057" lon="-3.12342">
        <ele>156.19999694824</ele>
        <time>2020-10-19T14:49:29.000Z</time>
      </trkpt>
      <trkpt lat="48.22056" lon="-3.12343">
        <ele>156.19999694824</ele>
        <time>2020-10-19T14:49:30.000Z</time>
      </trkpt>
      <trkpt lat="48.22055" lon="-3.12343">
        <ele>156</ele>
        <time>2020-10-19T14:49:31.000Z</time>
      </trkpt>
      <trkpt lat="48.22054" lon="-3.12344">
        <ele>156.19999694824</ele>
        <time>2020-10-19T14:49:32.000Z</time>
      </trkpt>
      <trkpt lat="48.22053" lon="-3.12345">
        <ele>156.19999694824</ele>
        <time>2020-10-19T14:49:33.000Z</time>
      </trkpt>
      <trkpt lat="48.22052" lon="-3.12345">
        <ele>156.19999694824</ele>
        <time>2020-10-19T14:49:34.000Z</time>
      </trkpt>
      <trkpt lat="48.22051" lon="-3.12346">
        <ele>156.19999694824</ele>
        <time>2020-10-19T14:49:35.000Z</time>
      </trkpt>
      <trkpt lat="48.2205" lon="-3.12346">
        <ele>156.19999694824</ele>
        <time>2020-10-19T14:49:36.000Z</time>
      </trkpt>
      <trkpt lat="48.22049" lon="-3.12346">
        <ele>156.19999694824</ele>
        <time>2020-10-19T14:49:37.000Z</time>
      </trkpt>
      <trkpt lat="48.22048" lon="-3.12347">
        <ele>156.39999389648</ele>
        <time>2020-10-19T14:49:38.000Z</time>
      </trkpt>
      <trkpt lat="48.22047" lon="-3.12348">
        <ele>156.39999389648</ele>
        <time>2020-10-19T14:49:39.000Z</time>
      </trkpt>
      <trkpt lat="48.22046" lon="-3.12349">
        <ele>156.60000610352</ele>
        <time>2020-10-19T14:49:40.000Z</time>
      </trkpt>
      <trkpt lat="48.22046" lon="-3.12349">
        <ele>156.60000610352</ele>
        <time>2020-10-19T14:49:41.000Z</time>
      </trkpt>
      <trkpt lat="48.22045" lon="-3.1235">
        <ele>156.80000305176</ele>
        <time>2020-10-19T14:49:42.000Z</time>
      </trkpt>
      <trkpt lat="48.22044" lon="-3.12351">
        <ele>156.80000305176</ele>
        <time>2020-10-19T14:49:43.000Z</time>
      </trkpt>
      <trkpt lat="48.22042" lon="-3.12352">
        <ele>157</ele>
        <time>2020-10-19T14:49:44.000Z</time>
      </trkpt>
      <trkpt lat="48.22041" lon="-3.12352">
        <ele>157</ele>
        <time>2020-10-19T14:49:45.000Z</time>
      </trkpt>
      <trkpt lat="48.2204" lon="-3.12353">
        <ele>157</ele>
        <time>2020-10-19T14:49:46.000Z</time>
      </trkpt>
      <trkpt lat="48.22039" lon="-3.12354">
        <ele>157.19999694824</ele>
        <time>2020-10-19T14:49:47.000Z</time>
      </trkpt>
      <trkpt lat="48.22038" lon="-3.12354">
        <ele>157.19999694824</ele>
        <time>2020-10-19T14:49:48.000Z</time>
      </trkpt>
      <trkpt lat="48.22037" lon="-3.12354">
        <ele>157.19999694824</ele>
        <time>2020-10-19T14:49:49.000Z</time>
      </trkpt>
      <trkpt lat="48.22036" lon="-3.12355">
        <ele>157.19999694824</ele>
        <time>2020-10-19T14:49:50.000Z</time>
      </trkpt>
      <trkpt lat="48.22035" lon="-3.12355">
        <ele>157.19999694824</ele>
        <time>2020-10-19T14:49:51.000Z</time>
      </trkpt>
      <trkpt lat="48.22034" lon="-3.12356">
        <ele>157.19999694824</ele>
        <time>2020-10-19T14:49:52.000Z</time>
      </trkpt>
      <trkpt lat="48.22033" lon="-3.12357">
        <ele>157.39999389648</ele>
        <time>2020-10-19T14:49:53.000Z</time>
      </trkpt>
      <trkpt lat="48.22032" lon="-3.12357">
        <ele>157.39999389648</ele>
        <time>2020-10-19T14:49:54.000Z</time>
      </trkpt>
      <trkpt lat="48.22031" lon="-3.12358">
        <ele>157.39999389648</ele>
        <time>2020-10-19T14:49:55.000Z</time>
      </trkpt>
      <trkpt lat="48.2203" lon="-3.12358">
        <ele>157.39999389648</ele>
        <time>2020-10-19T14:49:56.000Z</time>
      </trkpt>
      <trkpt lat="48.22029" lon="-3.12358">
        <ele>157.39999389648</ele>
        <time>2020-10-19T14:49:57.000Z</time>
      </trkpt>
      <trkpt lat="48.22028" lon="-3.12359">
        <ele>157.19999694824</ele>
        <time>2020-10-19T14:49:58.000Z</time>
      </trkpt>
      <trkpt lat="48.22026" lon="-3.12359">
        <ele>157.39999389648</ele>
        <time>2020-10-19T14:49:59.000Z</time>
      </trkpt>
      <trkpt lat="48.22025" lon="-3.1236">
        <ele>157.39999389648</ele>
        <time>2020-10-19T14:50:00.000Z</time>
      </trkpt>
      <trkpt lat="48.22024" lon="-3.1236">
        <ele>157.39999389648</ele>
        <time>2020-10-19T14:50:01.000Z</time>
      </trkpt>
      <trkpt lat="48.22023" lon="-3.1236">
        <ele>157.19999694824</ele>
        <time>2020-10-19T14:50:02.000Z</time>
      </trkpt>
      <trkpt lat="48.22022" lon="-3.1236">
        <ele>157.19999694824</ele>
        <time>2020-10-19T14:50:03.000Z</time>
      </trkpt>
      <trkpt lat="48.22021" lon="-3.12361">
        <ele>157.19999694824</ele>
        <time>2020-10-19T14:50:04.000Z</time>
      </trkpt>
      <trkpt lat="48.2202" lon="-3.12361">
        <ele>157</ele>
        <time>2020-10-19T14:50:05.000Z</time>
      </trkpt>
      <trkpt lat="48.22019" lon="-3.12361">
        <ele>157</ele>
        <time>2020-10-19T14:50:06.000Z</time>
      </trkpt>
      <trkpt lat="48.22017" lon="-3.12361">
        <ele>156.80000305176</ele>
        <time>2020-10-19T14:50:07.000Z</time>
      </trkpt>
      <trkpt lat="48.22016" lon="-3.1236">
        <ele>156.60000610352</ele>
        <time>2020-10-19T14:50:08.000Z</time>
      </trkpt>
      <trkpt lat="48.22015" lon="-3.1236">
        <ele>156.39999389648</ele>
        <time>2020-10-19T14:50:09.000Z</time>
      </trkpt>
      <trkpt lat="48.22013" lon="-3.1236">
        <ele>156.39999389648</ele>
        <time>2020-10-19T14:50:10.000Z</time>
      </trkpt>
      <trkpt lat="48.22012" lon="-3.1236">
        <ele>156</ele>
        <time>2020-10-19T14:50:11.000Z</time>
      </trkpt>
      <trkpt lat="48.22011" lon="-3.12359">
        <ele>156</ele>
        <time>2020-10-19T14:50:12.000Z</time>
      </trkpt>
      <trkpt lat="48.2201" lon="-3.12359">
        <ele>155.80000305176</ele>
        <time>2020-10-19T14:50:13.000Z</time>
      </trkpt>
      <trkpt lat="48.22008" lon="-3.1236">
        <ele>155.80000305176</ele>
        <time>2020-10-19T14:50:14.000Z</time>
      </trkpt>
      <trkpt lat="48.22007" lon="-3.1236">
        <ele>155.80000305176</ele>
        <time>2020-10-19T14:50:15.000Z</time>
      </trkpt>
      <trkpt lat="48.22005" lon="-3.12359">
        <ele>155.60000610352</ele>
        <time>2020-10-19T14:50:16.000Z</time>
      </trkpt>
      <trkpt lat="48.22005" lon="-3.12359">
        <ele>155.60000610352</ele>
        <time>2020-10-19T14:50:17.000Z</time>
      </trkpt>
      <trkpt lat="48.22004" lon="-3.12359">
        <ele>155.39999389648</ele>
        <time>2020-10-19T14:50:18.000Z</time>
      </trkpt>
      <trkpt lat="48.22003" lon="-3.12358">
        <ele>155.19999694824</ele>
        <time>2020-10-19T14:50:19.000Z</time>
      </trkpt>
      <trkpt lat="48.22002" lon="-3.12358">
        <ele>155.19999694824</ele>
        <time>2020-10-19T14:50:20.000Z</time>
      </trkpt>
      <trkpt lat="48.22001" lon="-3.12358">
        <ele>155.19999694824</ele>
        <time>2020-10-19T14:50:21.000Z</time>
      </trkpt>
      <trkpt lat="48.21999" lon="-3.12358">
        <ele>155.19999694824</ele>
        <time>2020-10-19T14:50:22.000Z</time>
      </trkpt>
      <trkpt lat="48.21998" lon="-3.12358">
        <ele>155</ele>
        <time>2020-10-19T14:50:23.000Z</time>
      </trkpt>
      <trkpt lat="48.21997" lon="-3.12358">
        <ele>155</ele>
        <time>2020-10-19T14:50:24.000Z</time>
      </trkpt>
      <trkpt lat="48.21996" lon="-3.12358">
        <ele>155</ele>
        <time>2020-10-19T14:50:25.000Z</time>
      </trkpt>
      <trkpt lat="48.21995" lon="-3.12358">
        <ele>154.80000305176</ele>
        <time>2020-10-19T14:50:26.000Z</time>
      </trkpt>
      <trkpt lat="48.21993" lon="-3.12358">
        <ele>154.80000305176</ele>
        <time>2020-10-19T14:50:27.000Z</time>
      </trkpt>
      <trkpt lat="48.21992" lon="-3.12358">
        <ele>154.80000305176</ele>
        <time>2020-10-19T14:50:28.000Z</time>
      </trkpt>
      <trkpt lat="48.21991" lon="-3.12358">
        <ele>154.60000610352</ele>
        <time>2020-10-19T14:50:29.000Z</time>
      </trkpt>
      <trkpt lat="48.2199" lon="-3.12358">
        <ele>154.60000610352</ele>
        <time>2020-10-19T14:50:30.000Z</time>
      </trkpt>
      <trkpt lat="48.21989" lon="-3.12357">
        <ele>154.39999389648</ele>
        <time>2020-10-19T14:50:31.000Z</time>
      </trkpt>
      <trkpt lat="48.21988" lon="-3.12357">
        <ele>154.39999389648</ele>
        <time>2020-10-19T14:50:32.000Z</time>
      </trkpt>
      <trkpt lat="48.21986" lon="-3.12356">
        <ele>154</ele>
        <time>2020-10-19T14:50:33.000Z</time>
      </trkpt>
      <trkpt lat="48.21985" lon="-3.12356">
        <ele>154</ele>
        <time>2020-10-19T14:50:34.000Z</time>
      </trkpt>
      <trkpt lat="48.21985" lon="-3.12356">
        <ele>154</ele>
        <time>2020-10-19T14:50:35.000Z</time>
      </trkpt>
      <trkpt lat="48.21984" lon="-3.12356">
        <ele>154</ele>
        <time>2020-10-19T14:50:36.000Z</time>
      </trkpt>
      <trkpt lat="48.21983" lon="-3.12356">
        <ele>154</ele>
        <time>2020-10-19T14:50:37.000Z</time>
      </trkpt>
      <trkpt lat="48.21982" lon="-3.12356">
        <ele>153.80000305176</ele>
        <time>2020-10-19T14:50:38.000Z</time>
      </trkpt>
      <trkpt lat="48.21981" lon="-3.12356">
        <ele>153.80000305176</ele>
        <time>2020-10-19T14:50:39.000Z</time>
      </trkpt>
      <trkpt lat="48.21981" lon="-3.12356">
        <ele>153.80000305176</ele>
        <time>2020-10-19T14:50:40.000Z</time>
      </trkpt>
      <trkpt lat="48.2198" lon="-3.12356">
        <ele>153.80000305176</ele>
        <time>2020-10-19T14:50:41.000Z</time>
      </trkpt>
      <trkpt lat="48.21978" lon="-3.12355">
        <ele>153.60000610352</ele>
        <time>2020-10-19T14:50:42.000Z</time>
      </trkpt>
      <trkpt lat="48.21976" lon="-3.12355">
        <ele>153.39999389648</ele>
        <time>2020-10-19T14:50:43.000Z</time>
      </trkpt>
      <trkpt lat="48.21975" lon="-3.12355">
        <ele>153.39999389648</ele>
        <time>2020-10-19T14:50:44.000Z</time>
      </trkpt>
      <trkpt lat="48.21974" lon="-3.12355">
        <ele>153.39999389648</ele>
        <time>2020-10-19T14:50:45.000Z</time>
      </trkpt>
      <trkpt lat="48.21972" lon="-3.12355">
        <ele>153.19999694824</ele>
        <time>2020-10-19T14:50:46.000Z</time>
      </trkpt>
      <trkpt lat="48.21971" lon="-3.12355">
        <ele>153.19999694824</ele>
        <time>2020-10-19T14:50:47.000Z</time>
      </trkpt>
      <trkpt lat="48.2197" lon="-3.12355">
        <ele>153.19999694824</ele>
        <time>2020-10-19T14:50:48.000Z</time>
      </trkpt>
      <trkpt lat="48.21969" lon="-3.12355">
        <ele>153.19999694824</ele>
        <time>2020-10-19T14:50:49.000Z</time>
      </trkpt>
      <trkpt lat="48.21968" lon="-3.12355">
        <ele>153.19999694824</ele>
        <time>2020-10-19T14:50:50.000Z</time>
      </trkpt>
      <trkpt lat="48.21967" lon="-3.12356">
        <ele>153.19999694824</ele>
        <time>2020-10-19T14:50:51.000Z</time>
      </trkpt>
      <trkpt lat="48.21967" lon="-3.12356">
        <ele>153.19999694824</ele>
        <time>2020-10-19T14:50:52.000Z</time>
      </trkpt>
      <trkpt lat="48.21966" lon="-3.12355">
        <ele>153.19999694824</ele>
        <time>2020-10-19T14:50:53.000Z</time>
      </trkpt>
      <trkpt lat="48.21966" lon="-3.12356">
        <ele>153.19999694824</ele>
        <time>2020-10-19T14:50:54.000Z</time>
      </trkpt>
      <trkpt lat="48.21966" lon="-3.12356">
        <ele>153.19999694824</ele>
        <time>2020-10-19T14:50:55.000Z</time>
      </trkpt>
      <trkpt lat="48.21965" lon="-3.12355">
        <ele>153.19999694824</ele>
        <time>2020-10-19T14:50:56.000Z</time>
      </trkpt>
      <trkpt lat="48.21964" lon="-3.12355">
        <ele>153</ele>
        <time>2020-10-19T14:50:57.000Z</time>
      </trkpt>
      <trkpt lat="48.21963" lon="-3.12355">
        <ele>153</ele>
        <time>2020-10-19T14:50:58.000Z</time>
      </trkpt>
      <trkpt lat="48.21962" lon="-3.12355">
        <ele>153</ele>
        <time>2020-10-19T14:50:59.000Z</time>
      </trkpt>
      <trkpt lat="48.21962" lon="-3.12355">
        <ele>153</ele>
        <time>2020-10-19T14:51:00.000Z</time>
      </trkpt>
      <trkpt lat="48.21961" lon="-3.12356">
        <ele>153</ele>
        <time>2020-10-19T14:51:01.000Z</time>
      </trkpt>
      <trkpt lat="48.2196" lon="-3.12356">
        <ele>153.19999694824</ele>
        <time>2020-10-19T14:51:02.000Z</time>
      </trkpt>
      <trkpt lat="48.21959" lon="-3.12356">
        <ele>153.19999694824</ele>
        <time>2020-10-19T14:51:03.000Z</time>
      </trkpt>
      <trkpt lat="48.21959" lon="-3.12356">
        <ele>153.19999694824</ele>
        <time>2020-10-19T14:51:04.000Z</time>
      </trkpt>
      <trkpt lat="48.21958" lon="-3.12357">
        <ele>153.19999694824</ele>
        <time>2020-10-19T14:51:05.000Z</time>
      </trkpt>
      <trkpt lat="48.21957" lon="-3.12357">
        <ele>153.19999694824</ele>
        <time>2020-10-19T14:51:06.000Z</time>
      </trkpt>
      <trkpt lat="48.21956" lon="-3.12356">
        <ele>153</ele>
        <time>2020-10-19T14:51:07.000Z</time>
      </trkpt>
      <trkpt lat="48.21956" lon="-3.12356">
        <ele>153</ele>
        <time>2020-10-19T14:51:08.000Z</time>
      </trkpt>
      <trkpt lat="48.21955" lon="-3.12356">
        <ele>152.80000305176</ele>
        <time>2020-10-19T14:51:09.000Z</time>
      </trkpt>
      <trkpt lat="48.21955" lon="-3.12355">
        <ele>152.80000305176</ele>
        <time>2020-10-19T14:51:10.000Z</time>
      </trkpt>
      <trkpt lat="48.21955" lon="-3.12355">
        <ele>152.60000610352</ele>
        <time>2020-10-19T14:51:11.000Z</time>
      </trkpt>
      <trkpt lat="48.21955" lon="-3.12354">
        <ele>152.39999389648</ele>
        <time>2020-10-19T14:51:12.000Z</time>
      </trkpt>
      <trkpt lat="48.21954" lon="-3.12354">
        <ele>152.39999389648</ele>
        <time>2020-10-19T14:51:13.000Z</time>
      </trkpt>
      <trkpt lat="48.21954" lon="-3.12353">
        <ele>152.19999694824</ele>
        <time>2020-10-19T14:51:14.000Z</time>
      </trkpt>
      <trkpt lat="48.21954" lon="-3.12353">
        <ele>152</ele>
        <time>2020-10-19T14:51:15.000Z</time>
      </trkpt>
      <trkpt lat="48.21954" lon="-3.12352">
        <ele>152</ele>
        <time>2020-10-19T14:51:16.000Z</time>
      </trkpt>
      <trkpt lat="48.21954" lon="-3.12352">
        <ele>151.80000305176</ele>
        <time>2020-10-19T14:51:17.000Z</time>
      </trkpt>
      <trkpt lat="48.21955" lon="-3.12352">
        <ele>151.80000305176</ele>
        <time>2020-10-19T14:51:18.000Z</time>
      </trkpt>
      <trkpt lat="48.21955" lon="-3.12351">
        <ele>151.80000305176</ele>
        <time>2020-10-19T14:51:19.000Z</time>
      </trkpt>
      <trkpt lat="48.21955" lon="-3.12351">
        <ele>151.60000610352</ele>
        <time>2020-10-19T14:51:20.000Z</time>
      </trkpt>
      <trkpt lat="48.21955" lon="-3.12351">
        <ele>151.60000610352</ele>
        <time>2020-10-19T14:51:21.000Z</time>
      </trkpt>
      <trkpt lat="48.21955" lon="-3.12351">
        <ele>151.60000610352</ele>
        <time>2020-10-19T14:51:22.000Z</time>
      </trkpt>
      <trkpt lat="48.21955" lon="-3.1235">
        <ele>151.60000610352</ele>
        <time>2020-10-19T14:51:23.000Z</time>
      </trkpt>
      <trkpt lat="48.21954" lon="-3.1235">
        <ele>151.60000610352</ele>
        <time>2020-10-19T14:51:24.000Z</time>
      </trkpt>
      <trkpt lat="48.21954" lon="-3.1235">
        <ele>151.39999389648</ele>
        <time>2020-10-19T14:51:25.000Z</time>
      </trkpt>
      <trkpt lat="48.21954" lon="-3.1235">
        <ele>151.39999389648</ele>
        <time>2020-10-19T14:51:26.000Z</time>
      </trkpt>
      <trkpt lat="48.21953" lon="-3.12351">
        <ele>151.60000610352</ele>
        <time>2020-10-19T14:51:27.000Z</time>
      </trkpt>
      <trkpt lat="48.21952" lon="-3.12352">
        <ele>152</ele>
        <time>2020-10-19T14:51:28.000Z</time>
      </trkpt>
      <trkpt lat="48.21952" lon="-3.12353">
        <ele>152</ele>
        <time>2020-10-19T14:51:29.000Z</time>
      </trkpt>
      <trkpt lat="48.21951" lon="-3.12354">
        <ele>152.39999389648</ele>
        <time>2020-10-19T14:51:30.000Z</time>
      </trkpt>
      <trkpt lat="48.21951" lon="-3.12355">
        <ele>152.60000610352</ele>
        <time>2020-10-19T14:51:31.000Z</time>
      </trkpt>
      <trkpt lat="48.2195" lon="-3.12356">
        <ele>152.60000610352</ele>
        <time>2020-10-19T14:51:32.000Z</time>
      </trkpt>
      <trkpt lat="48.2195" lon="-3.12357">
        <ele>153</ele>
        <time>2020-10-19T14:51:33.000Z</time>
      </trkpt>
      <trkpt lat="48.21949" lon="-3.12358">
        <ele>153.19999694824</ele>
        <time>2020-10-19T14:51:34.000Z</time>
      </trkpt>
      <trkpt lat="48.21949" lon="-3.12358">
        <ele>153.19999694824</ele>
        <time>2020-10-19T14:51:35.000Z</time>
      </trkpt>
      <trkpt lat="48.21947" lon="-3.12359">
        <ele>153.19999694824</ele>
        <time>2020-10-19T14:51:36.000Z</time>
      </trkpt>
      <trkpt lat="48.21947" lon="-3.12359">
        <ele>153.19999694824</ele>
        <time>2020-10-19T14:51:37.000Z</time>
      </trkpt>
      <trkpt lat="48.21945" lon="-3.12359">
        <ele>153.19999694824</ele>
        <time>2020-10-19T14:51:38.000Z</time>
      </trkpt>
      <trkpt lat="48.21944" lon="-3.12359">
        <ele>153.19999694824</ele>
        <time>2020-10-19T14:51:39.000Z</time>
      </trkpt>
      <trkpt lat="48.21942" lon="-3.12358">
        <ele>153</ele>
        <time>2020-10-19T14:51:40.000Z</time>
      </trkpt>
      <trkpt lat="48.2194" lon="-3.12358">
        <ele>152.80000305176</ele>
        <time>2020-10-19T14:51:41.000Z</time>
      </trkpt>
      <trkpt lat="48.21938" lon="-3.12357">
        <ele>152.60000610352</ele>
        <time>2020-10-19T14:51:42.000Z</time>
      </trkpt>
      <trkpt lat="48.21937" lon="-3.12357">
        <ele>152.60000610352</ele>
        <time>2020-10-19T14:51:43.000Z</time>
      </trkpt>
      <trkpt lat="48.21936" lon="-3.12357">
        <ele>152.39999389648</ele>
        <time>2020-10-19T14:51:44.000Z</time>
      </trkpt>
      <trkpt lat="48.21935" lon="-3.12357">
        <ele>152.39999389648</ele>
        <time>2020-10-19T14:51:45.000Z</time>
      </trkpt>
      <trkpt lat="48.21933" lon="-3.12356">
        <ele>152.19999694824</ele>
        <time>2020-10-19T14:51:46.000Z</time>
      </trkpt>
      <trkpt lat="48.21932" lon="-3.12356">
        <ele>152</ele>
        <time>2020-10-19T14:51:47.000Z</time>
      </trkpt>
      <trkpt lat="48.21931" lon="-3.12356">
        <ele>152</ele>
        <time>2020-10-19T14:51:48.000Z</time>
      </trkpt>
      <trkpt lat="48.2193" lon="-3.12355">
        <ele>151.80000305176</ele>
        <time>2020-10-19T14:51:49.000Z</time>
      </trkpt>
      <trkpt lat="48.21929" lon="-3.12355">
        <ele>151.80000305176</ele>
        <time>2020-10-19T14:51:50.000Z</time>
      </trkpt>
      <trkpt lat="48.21927" lon="-3.12355">
        <ele>151.60000610352</ele>
        <time>2020-10-19T14:51:51.000Z</time>
      </trkpt>
      <trkpt lat="48.21926" lon="-3.12355">
        <ele>151.39999389648</ele>
        <time>2020-10-19T14:51:52.000Z</time>
      </trkpt>
      <trkpt lat="48.21925" lon="-3.12355">
        <ele>151.19999694824</ele>
        <time>2020-10-19T14:51:53.000Z</time>
      </trkpt>
      <trkpt lat="48.21924" lon="-3.12355">
        <ele>150.80000305176</ele>
        <time>2020-10-19T14:51:54.000Z</time>
      </trkpt>
      <trkpt lat="48.21922" lon="-3.12355">
        <ele>150.60000610352</ele>
        <time>2020-10-19T14:51:55.000Z</time>
      </trkpt>
      <trkpt lat="48.21921" lon="-3.12354">
        <ele>150.39999389648</ele>
        <time>2020-10-19T14:51:56.000Z</time>
      </trkpt>
      <trkpt lat="48.2192" lon="-3.12355">
        <ele>150.39999389648</ele>
        <time>2020-10-19T14:51:57.000Z</time>
      </trkpt>
      <trkpt lat="48.21918" lon="-3.12356">
        <ele>150.19999694824</ele>
        <time>2020-10-19T14:51:58.000Z</time>
      </trkpt>
      <trkpt lat="48.21917" lon="-3.12356">
        <ele>150.19999694824</ele>
        <time>2020-10-19T14:51:59.000Z</time>
      </trkpt>
      <trkpt lat="48.21916" lon="-3.12357">
        <ele>150.19999694824</ele>
        <time>2020-10-19T14:52:00.000Z</time>
      </trkpt>
      <trkpt lat="48.21915" lon="-3.12357">
        <ele>150.19999694824</ele>
        <time>2020-10-19T14:52:01.000Z</time>
      </trkpt>
      <trkpt lat="48.21914" lon="-3.12358">
        <ele>150.19999694824</ele>
        <time>2020-10-19T14:52:02.000Z</time>
      </trkpt>
      <trkpt lat="48.21912" lon="-3.12358">
        <ele>150.19999694824</ele>
        <time>2020-10-19T14:52:03.000Z</time>
      </trkpt>
      <trkpt lat="48.21911" lon="-3.12358">
        <ele>150.19999694824</ele>
        <time>2020-10-19T14:52:04.000Z</time>
      </trkpt>
      <trkpt lat="48.2191" lon="-3.12359">
        <ele>150.19999694824</ele>
        <time>2020-10-19T14:52:05.000Z</time>
      </trkpt>
      <trkpt lat="48.21909" lon="-3.12359">
        <ele>150.19999694824</ele>
        <time>2020-10-19T14:52:06.000Z</time>
      </trkpt>
      <trkpt lat="48.21908" lon="-3.1236">
        <ele>150.19999694824</ele>
        <time>2020-10-19T14:52:07.000Z</time>
      </trkpt>
      <trkpt lat="48.21907" lon="-3.1236">
        <ele>150.19999694824</ele>
        <time>2020-10-19T14:52:08.000Z</time>
      </trkpt>
      <trkpt lat="48.21906" lon="-3.1236">
        <ele>150.19999694824</ele>
        <time>2020-10-19T14:52:09.000Z</time>
      </trkpt>
      <trkpt lat="48.21906" lon="-3.1236">
        <ele>150.19999694824</ele>
        <time>2020-10-19T14:52:10.000Z</time>
      </trkpt>
      <trkpt lat="48.21905" lon="-3.12361">
        <ele>150.19999694824</ele>
        <time>2020-10-19T14:52:11.000Z</time>
      </trkpt>
      <trkpt lat="48.21904" lon="-3.12361">
        <ele>150.19999694824</ele>
        <time>2020-10-19T14:52:12.000Z</time>
      </trkpt>
      <trkpt lat="48.21903" lon="-3.12361">
        <ele>150.19999694824</ele>
        <time>2020-10-19T14:52:13.000Z</time>
      </trkpt>
      <trkpt lat="48.21901" lon="-3.12361">
        <ele>150.19999694824</ele>
        <time>2020-10-19T14:52:14.000Z</time>
      </trkpt>
      <trkpt lat="48.219" lon="-3.12362">
        <ele>150.19999694824</ele>
        <time>2020-10-19T14:52:15.000Z</time>
      </trkpt>
      <trkpt lat="48.21899" lon="-3.12363">
        <ele>150.39999389648</ele>
        <time>2020-10-19T14:52:16.000Z</time>
      </trkpt>
      <trkpt lat="48.21898" lon="-3.12363">
        <ele>150.39999389648</ele>
        <time>2020-10-19T14:52:17.000Z</time>
      </trkpt>
      <trkpt lat="48.21898" lon="-3.12364">
        <ele>150.39999389648</ele>
        <time>2020-10-19T14:52:18.000Z</time>
      </trkpt>
      <trkpt lat="48.21897" lon="-3.12365">
        <ele>150.60000610352</ele>
        <time>2020-10-19T14:52:19.000Z</time>
      </trkpt>
      <trkpt lat="48.21897" lon="-3.12365">
        <ele>150.60000610352</ele>
        <time>2020-10-19T14:52:20.000Z</time>
      </trkpt>
      <trkpt lat="48.21896" lon="-3.12365">
        <ele>150.60000610352</ele>
        <time>2020-10-19T14:52:21.000Z</time>
      </trkpt>
      <trkpt lat="48.21895" lon="-3.12366">
        <ele>150.60000610352</ele>
        <time>2020-10-19T14:52:22.000Z</time>
      </trkpt>
      <trkpt lat="48.21894" lon="-3.12366">
        <ele>150.60000610352</ele>
        <time>2020-10-19T14:52:23.000Z</time>
      </trkpt>
      <trkpt lat="48.21894" lon="-3.12366">
        <ele>150.60000610352</ele>
        <time>2020-10-19T14:52:24.000Z</time>
      </trkpt>
      <trkpt lat="48.21893" lon="-3.12367">
        <ele>150.60000610352</ele>
        <time>2020-10-19T14:52:25.000Z</time>
      </trkpt>
      <trkpt lat="48.21893" lon="-3.12367">
        <ele>150.80000305176</ele>
        <time>2020-10-19T14:52:26.000Z</time>
      </trkpt>
      <trkpt lat="48.21891" lon="-3.12367">
        <ele>150.60000610352</ele>
        <time>2020-10-19T14:52:27.000Z</time>
      </trkpt>
      <trkpt lat="48.21891" lon="-3.12368">
        <ele>150.80000305176</ele>
        <time>2020-10-19T14:52:28.000Z</time>
      </trkpt>
      <trkpt lat="48.2189" lon="-3.12369">
        <ele>150.80000305176</ele>
        <time>2020-10-19T14:52:29.000Z</time>
      </trkpt>
      <trkpt lat="48.21889" lon="-3.12369">
        <ele>150.80000305176</ele>
        <time>2020-10-19T14:52:30.000Z</time>
      </trkpt>
      <trkpt lat="48.21889" lon="-3.12369">
        <ele>150.80000305176</ele>
        <time>2020-10-19T14:52:31.000Z</time>
      </trkpt>
      <trkpt lat="48.21888" lon="-3.1237">
        <ele>150.80000305176</ele>
        <time>2020-10-19T14:52:32.000Z</time>
      </trkpt>
      <trkpt lat="48.21887" lon="-3.1237">
        <ele>150.80000305176</ele>
        <time>2020-10-19T14:52:33.000Z</time>
      </trkpt>
      <trkpt lat="48.21885" lon="-3.1237">
        <ele>150.80000305176</ele>
        <time>2020-10-19T14:52:34.000Z</time>
      </trkpt>
      <trkpt lat="48.21884" lon="-3.1237">
        <ele>150.80000305176</ele>
        <time>2020-10-19T14:52:35.000Z</time>
      </trkpt>
      <trkpt lat="48.21883" lon="-3.12371">
        <ele>150.80000305176</ele>
        <time>2020-10-19T14:52:36.000Z</time>
      </trkpt>
      <trkpt lat="48.21882" lon="-3.12371">
        <ele>150.80000305176</ele>
        <time>2020-10-19T14:52:37.000Z</time>
      </trkpt>
      <trkpt lat="48.21881" lon="-3.12372">
        <ele>150.80000305176</ele>
        <time>2020-10-19T14:52:38.000Z</time>
      </trkpt>
      <trkpt lat="48.21879" lon="-3.12372">
        <ele>150.80000305176</ele>
        <time>2020-10-19T14:52:39.000Z</time>
      </trkpt>
      <trkpt lat="48.21878" lon="-3.12373">
        <ele>151</ele>
        <time>2020-10-19T14:52:40.000Z</time>
      </trkpt>
      <trkpt lat="48.21877" lon="-3.12374">
        <ele>151</ele>
        <time>2020-10-19T14:52:41.000Z</time>
      </trkpt>
      <trkpt lat="48.21877" lon="-3.12375">
        <ele>151.19999694824</ele>
        <time>2020-10-19T14:52:42.000Z</time>
      </trkpt>
      <trkpt lat="48.21876" lon="-3.12375">
        <ele>151.19999694824</ele>
        <time>2020-10-19T14:52:43.000Z</time>
      </trkpt>
      <trkpt lat="48.21875" lon="-3.12376">
        <ele>151.19999694824</ele>
        <time>2020-10-19T14:52:44.000Z</time>
      </trkpt>
      <trkpt lat="48.21874" lon="-3.12377">
        <ele>151.19999694824</ele>
        <time>2020-10-19T14:52:45.000Z</time>
      </trkpt>
      <trkpt lat="48.21874" lon="-3.12377">
        <ele>151.19999694824</ele>
        <time>2020-10-19T14:52:46.000Z</time>
      </trkpt>
      <trkpt lat="48.21874" lon="-3.12378">
        <ele>151.39999389648</ele>
        <time>2020-10-19T14:52:47.000Z</time>
      </trkpt>
      <trkpt lat="48.21873" lon="-3.12379">
        <ele>151.39999389648</ele>
        <time>2020-10-19T14:52:48.000Z</time>
      </trkpt>
      <trkpt lat="48.21872" lon="-3.12379">
        <ele>151.39999389648</ele>
        <time>2020-10-19T14:52:49.000Z</time>
      </trkpt>
      <trkpt lat="48.21871" lon="-3.1238">
        <ele>151.60000610352</ele>
        <time>2020-10-19T14:52:50.000Z</time>
      </trkpt>
      <trkpt lat="48.2187" lon="-3.12381">
        <ele>151.60000610352</ele>
        <time>2020-10-19T14:52:51.000Z</time>
      </trkpt>
      <trkpt lat="48.2187" lon="-3.12381">
        <ele>151.60000610352</ele>
        <time>2020-10-19T14:52:52.000Z</time>
      </trkpt>
      <trkpt lat="48.21869" lon="-3.12382">
        <ele>151.80000305176</ele>
        <time>2020-10-19T14:52:53.000Z</time>
      </trkpt>
      <trkpt lat="48.21868" lon="-3.12383">
        <ele>151.80000305176</ele>
        <time>2020-10-19T14:52:54.000Z</time>
      </trkpt>
      <trkpt lat="48.21868" lon="-3.12384">
        <ele>151.80000305176</ele>
        <time>2020-10-19T14:52:55.000Z</time>
      </trkpt>
      <trkpt lat="48.21867" lon="-3.12385">
        <ele>152</ele>
        <time>2020-10-19T14:52:56.000Z</time>
      </trkpt>
      <trkpt lat="48.21867" lon="-3.12386">
        <ele>152</ele>
        <time>2020-10-19T14:52:57.000Z</time>
      </trkpt>
      <trkpt lat="48.21866" lon="-3.12387">
        <ele>152.19999694824</ele>
        <time>2020-10-19T14:52:58.000Z</time>
      </trkpt>
      <trkpt lat="48.21865" lon="-3.12388">
        <ele>152.19999694824</ele>
        <time>2020-10-19T14:52:59.000Z</time>
      </trkpt>
      <trkpt lat="48.21865" lon="-3.12388">
        <ele>152.19999694824</ele>
        <time>2020-10-19T14:53:00.000Z</time>
      </trkpt>
      <trkpt lat="48.21864" lon="-3.12389">
        <ele>152.19999694824</ele>
        <time>2020-10-19T14:53:01.000Z</time>
      </trkpt>
      <trkpt lat="48.21863" lon="-3.12389">
        <ele>152.39999389648</ele>
        <time>2020-10-19T14:53:02.000Z</time>
      </trkpt>
      <trkpt lat="48.21862" lon="-3.1239">
        <ele>152.39999389648</ele>
        <time>2020-10-19T14:53:03.000Z</time>
      </trkpt>
      <trkpt lat="48.21862" lon="-3.12391">
        <ele>152.39999389648</ele>
        <time>2020-10-19T14:53:04.000Z</time>
      </trkpt>
      <trkpt lat="48.21861" lon="-3.12391">
        <ele>152.39999389648</ele>
        <time>2020-10-19T14:53:05.000Z</time>
      </trkpt>
      <trkpt lat="48.2186" lon="-3.12392">
        <ele>152.60000610352</ele>
        <time>2020-10-19T14:53:06.000Z</time>
      </trkpt>
      <trkpt lat="48.2186" lon="-3.12393">
        <ele>152.60000610352</ele>
        <time>2020-10-19T14:53:07.000Z</time>
      </trkpt>
      <trkpt lat="48.21859" lon="-3.12393">
        <ele>152.80000305176</ele>
        <time>2020-10-19T14:53:08.000Z</time>
      </trkpt>
      <trkpt lat="48.21858" lon="-3.12394">
        <ele>152.80000305176</ele>
        <time>2020-10-19T14:53:09.000Z</time>
      </trkpt>
      <trkpt lat="48.21857" lon="-3.12395">
        <ele>152.80000305176</ele>
        <time>2020-10-19T14:53:10.000Z</time>
      </trkpt>
      <trkpt lat="48.21856" lon="-3.12395">
        <ele>152.80000305176</ele>
        <time>2020-10-19T14:53:11.000Z</time>
      </trkpt>
      <trkpt lat="48.21855" lon="-3.12396">
        <ele>152.80000305176</ele>
        <time>2020-10-19T14:53:12.000Z</time>
      </trkpt>
      <trkpt lat="48.21855" lon="-3.12397">
        <ele>153</ele>
        <time>2020-10-19T14:53:13.000Z</time>
      </trkpt>
      <trkpt lat="48.21854" lon="-3.12398">
        <ele>153</ele>
        <time>2020-10-19T14:53:14.000Z</time>
      </trkpt>
      <trkpt lat="48.21853" lon="-3.12398">
        <ele>153</ele>
        <time>2020-10-19T14:53:15.000Z</time>
      </trkpt>
      <trkpt lat="48.21852" lon="-3.12399">
        <ele>153.19999694824</ele>
        <time>2020-10-19T14:53:16.000Z</time>
      </trkpt>
      <trkpt lat="48.21852" lon="-3.12399">
        <ele>153.19999694824</ele>
        <time>2020-10-19T14:53:17.000Z</time>
      </trkpt>
      <trkpt lat="48.21852" lon="-3.124">
        <ele>153.19999694824</ele>
        <time>2020-10-19T14:53:18.000Z</time>
      </trkpt>
      <trkpt lat="48.21851" lon="-3.124">
        <ele>153.19999694824</ele>
        <time>2020-10-19T14:53:19.000Z</time>
      </trkpt>
      <trkpt lat="48.2185" lon="-3.12401">
        <ele>153.39999389648</ele>
        <time>2020-10-19T14:53:20.000Z</time>
      </trkpt>
      <trkpt lat="48.21849" lon="-3.12402">
        <ele>153.39999389648</ele>
        <time>2020-10-19T14:53:21.000Z</time>
      </trkpt>
      <trkpt lat="48.21848" lon="-3.12404">
        <ele>153.60000610352</ele>
        <time>2020-10-19T14:53:22.000Z</time>
      </trkpt>
      <trkpt lat="48.21848" lon="-3.12405">
        <ele>153.60000610352</ele>
        <time>2020-10-19T14:53:23.000Z</time>
      </trkpt>
      <trkpt lat="48.21847" lon="-3.12406">
        <ele>153.80000305176</ele>
        <time>2020-10-19T14:53:24.000Z</time>
      </trkpt>
      <trkpt lat="48.21847" lon="-3.12406">
        <ele>153.80000305176</ele>
        <time>2020-10-19T14:53:25.000Z</time>
      </trkpt>
      <trkpt lat="48.21846" lon="-3.12407">
        <ele>153.80000305176</ele>
        <time>2020-10-19T14:53:26.000Z</time>
      </trkpt>
      <trkpt lat="48.21846" lon="-3.12408">
        <ele>154</ele>
        <time>2020-10-19T14:53:27.000Z</time>
      </trkpt>
      <trkpt lat="48.21845" lon="-3.12409">
        <ele>154</ele>
        <time>2020-10-19T14:53:28.000Z</time>
      </trkpt>
      <trkpt lat="48.21844" lon="-3.12409">
        <ele>153.80000305176</ele>
        <time>2020-10-19T14:53:29.000Z</time>
      </trkpt>
      <trkpt lat="48.21843" lon="-3.1241">
        <ele>153.80000305176</ele>
        <time>2020-10-19T14:53:30.000Z</time>
      </trkpt>
      <trkpt lat="48.21843" lon="-3.1241">
        <ele>153.80000305176</ele>
        <time>2020-10-19T14:53:31.000Z</time>
      </trkpt>
      <trkpt lat="48.21842" lon="-3.12411">
        <ele>153.60000610352</ele>
        <time>2020-10-19T14:53:32.000Z</time>
      </trkpt>
      <trkpt lat="48.21841" lon="-3.12412">
        <ele>153.60000610352</ele>
        <time>2020-10-19T14:53:33.000Z</time>
      </trkpt>
      <trkpt lat="48.2184" lon="-3.12412">
        <ele>153.39999389648</ele>
        <time>2020-10-19T14:53:34.000Z</time>
      </trkpt>
      <trkpt lat="48.2184" lon="-3.12412">
        <ele>153.39999389648</ele>
        <time>2020-10-19T14:53:35.000Z</time>
      </trkpt>
      <trkpt lat="48.21839" lon="-3.12412">
        <ele>153.19999694824</ele>
        <time>2020-10-19T14:53:36.000Z</time>
      </trkpt>
      <trkpt lat="48.21839" lon="-3.12412">
        <ele>153.19999694824</ele>
        <time>2020-10-19T14:53:37.000Z</time>
      </trkpt>
      <trkpt lat="48.21839" lon="-3.12412">
        <ele>153.19999694824</ele>
        <time>2020-10-19T14:53:38.000Z</time>
      </trkpt>
      <trkpt lat="48.21839" lon="-3.12412">
        <ele>153.19999694824</ele>
        <time>2020-10-19T14:53:39.000Z</time>
      </trkpt>
      <trkpt lat="48.21839" lon="-3.12413">
        <ele>153.19999694824</ele>
        <time>2020-10-19T14:53:40.000Z</time>
      </trkpt>
      <trkpt lat="48.21839" lon="-3.12413">
        <ele>153.19999694824</ele>
        <time>2020-10-19T14:53:41.000Z</time>
      </trkpt>
      <trkpt lat="48.21839" lon="-3.12413">
        <ele>153.39999389648</ele>
        <time>2020-10-19T14:53:42.000Z</time>
      </trkpt>
      <trkpt lat="48.2184" lon="-3.12414">
        <ele>153.60000610352</ele>
        <time>2020-10-19T14:53:43.000Z</time>
      </trkpt>
      <trkpt lat="48.2184" lon="-3.12414">
        <ele>153.60000610352</ele>
        <time>2020-10-19T14:53:44.000Z</time>
      </trkpt>
      <trkpt lat="48.2184" lon="-3.12414">
        <ele>153.60000610352</ele>
        <time>2020-10-19T14:53:45.000Z</time>
      </trkpt>
      <trkpt lat="48.2184" lon="-3.12414">
        <ele>153.60000610352</ele>
        <time>2020-10-19T14:53:46.000Z</time>
      </trkpt>
      <trkpt lat="48.21841" lon="-3.12415">
        <ele>154</ele>
        <time>2020-10-19T14:53:47.000Z</time>
      </trkpt>
      <trkpt lat="48.21841" lon="-3.12415">
        <ele>154</ele>
        <time>2020-10-19T14:53:48.000Z</time>
      </trkpt>
      <trkpt lat="48.21841" lon="-3.12415">
        <ele>154</ele>
        <time>2020-10-19T14:53:49.000Z</time>
      </trkpt>
      <trkpt lat="48.21841" lon="-3.12416">
        <ele>154</ele>
        <time>2020-10-19T14:53:50.000Z</time>
      </trkpt>
      <trkpt lat="48.2184" lon="-3.12417">
        <ele>154</ele>
        <time>2020-10-19T14:53:51.000Z</time>
      </trkpt>
      <trkpt lat="48.21839" lon="-3.12417">
        <ele>153.80000305176</ele>
        <time>2020-10-19T14:53:52.000Z</time>
      </trkpt>
      <trkpt lat="48.21838" lon="-3.12418">
        <ele>153.80000305176</ele>
        <time>2020-10-19T14:53:53.000Z</time>
      </trkpt>
      <trkpt lat="48.21838" lon="-3.12419">
        <ele>153.80000305176</ele>
        <time>2020-10-19T14:53:54.000Z</time>
      </trkpt>
      <trkpt lat="48.21837" lon="-3.1242">
        <ele>153.80000305176</ele>
        <time>2020-10-19T14:53:55.000Z</time>
      </trkpt>
      <trkpt lat="48.21836" lon="-3.12422">
        <ele>153.80000305176</ele>
        <time>2020-10-19T14:53:56.000Z</time>
      </trkpt>
      <trkpt lat="48.21836" lon="-3.12423">
        <ele>153.80000305176</ele>
        <time>2020-10-19T14:53:57.000Z</time>
      </trkpt>
      <trkpt lat="48.21835" lon="-3.12424">
        <ele>153.80000305176</ele>
        <time>2020-10-19T14:53:58.000Z</time>
      </trkpt>
      <trkpt lat="48.21835" lon="-3.12426">
        <ele>154</ele>
        <time>2020-10-19T14:53:59.000Z</time>
      </trkpt>
      <trkpt lat="48.21834" lon="-3.12427">
        <ele>154</ele>
        <time>2020-10-19T14:54:00.000Z</time>
      </trkpt>
      <trkpt lat="48.21834" lon="-3.12429">
        <ele>154.19999694824</ele>
        <time>2020-10-19T14:54:01.000Z</time>
      </trkpt>
      <trkpt lat="48.21834" lon="-3.1243">
        <ele>154.19999694824</ele>
        <time>2020-10-19T14:54:02.000Z</time>
      </trkpt>
      <trkpt lat="48.21833" lon="-3.12431">
        <ele>154.19999694824</ele>
        <time>2020-10-19T14:54:03.000Z</time>
      </trkpt>
      <trkpt lat="48.21833" lon="-3.12433">
        <ele>154.19999694824</ele>
        <time>2020-10-19T14:54:04.000Z</time>
      </trkpt>
      <trkpt lat="48.21832" lon="-3.12434">
        <ele>154.39999389648</ele>
        <time>2020-10-19T14:54:05.000Z</time>
      </trkpt>
      <trkpt lat="48.21832" lon="-3.12436">
        <ele>154.39999389648</ele>
        <time>2020-10-19T14:54:06.000Z</time>
      </trkpt>
      <trkpt lat="48.21831" lon="-3.12437">
        <ele>154.39999389648</ele>
        <time>2020-10-19T14:54:07.000Z</time>
      </trkpt>
      <trkpt lat="48.21831" lon="-3.12439">
        <ele>154.60000610352</ele>
        <time>2020-10-19T14:54:08.000Z</time>
      </trkpt>
      <trkpt lat="48.21831" lon="-3.1244">
        <ele>154.60000610352</ele>
        <time>2020-10-19T14:54:09.000Z</time>
      </trkpt>
      <trkpt lat="48.2183" lon="-3.12441">
        <ele>154.60000610352</ele>
        <time>2020-10-19T14:54:10.000Z</time>
      </trkpt>
      <trkpt lat="48.2183" lon="-3.12443">
        <ele>154.60000610352</ele>
        <time>2020-10-19T14:54:11.000Z</time>
      </trkpt>
      <trkpt lat="48.21829" lon="-3.12444">
        <ele>154.80000305176</ele>
        <time>2020-10-19T14:54:12.000Z</time>
      </trkpt>
      <trkpt lat="48.21829" lon="-3.12446">
        <ele>155</ele>
        <time>2020-10-19T14:54:13.000Z</time>
      </trkpt>
      <trkpt lat="48.21828" lon="-3.12448">
        <ele>155.19999694824</ele>
        <time>2020-10-19T14:54:14.000Z</time>
      </trkpt>
      <trkpt lat="48.21828" lon="-3.12449">
        <ele>155.19999694824</ele>
        <time>2020-10-19T14:54:15.000Z</time>
      </trkpt>
      <trkpt lat="48.21827" lon="-3.12451">
        <ele>155.39999389648</ele>
        <time>2020-10-19T14:54:16.000Z</time>
      </trkpt>
      <trkpt lat="48.21827" lon="-3.12452">
        <ele>155.39999389648</ele>
        <time>2020-10-19T14:54:17.000Z</time>
      </trkpt>
      <trkpt lat="48.21827" lon="-3.12454">
        <ele>155.60000610352</ele>
        <time>2020-10-19T14:54:18.000Z</time>
      </trkpt>
      <trkpt lat="48.21826" lon="-3.12456">
        <ele>155.80000305176</ele>
        <time>2020-10-19T14:54:19.000Z</time>
      </trkpt>
      <trkpt lat="48.21826" lon="-3.12456">
        <ele>155.80000305176</ele>
        <time>2020-10-19T14:54:20.000Z</time>
      </trkpt>
      <trkpt lat="48.21825" lon="-3.12457">
        <ele>156</ele>
        <time>2020-10-19T14:54:21.000Z</time>
      </trkpt>
      <trkpt lat="48.21825" lon="-3.12459">
        <ele>156</ele>
        <time>2020-10-19T14:54:22.000Z</time>
      </trkpt>
      <trkpt lat="48.21824" lon="-3.12459">
        <ele>156</ele>
        <time>2020-10-19T14:54:23.000Z</time>
      </trkpt>
      <trkpt lat="48.21824" lon="-3.1246">
        <ele>156</ele>
        <time>2020-10-19T14:54:24.000Z</time>
      </trkpt>
      <trkpt lat="48.21824" lon="-3.12461">
        <ele>156.19999694824</ele>
        <time>2020-10-19T14:54:25.000Z</time>
      </trkpt>
      <trkpt lat="48.21823" lon="-3.12462">
        <ele>156.19999694824</ele>
        <time>2020-10-19T14:54:26.000Z</time>
      </trkpt>
      <trkpt lat="48.21823" lon="-3.12464">
        <ele>156.39999389648</ele>
        <time>2020-10-19T14:54:27.000Z</time>
      </trkpt>
      <trkpt lat="48.21822" lon="-3.12465">
        <ele>156.39999389648</ele>
        <time>2020-10-19T14:54:28.000Z</time>
      </trkpt>
      <trkpt lat="48.21822" lon="-3.12465">
        <ele>156.39999389648</ele>
        <time>2020-10-19T14:54:29.000Z</time>
      </trkpt>
      <trkpt lat="48.21822" lon="-3.12466">
        <ele>156.39999389648</ele>
        <time>2020-10-19T14:54:30.000Z</time>
      </trkpt>
      <trkpt lat="48.21822" lon="-3.12466">
        <ele>156.39999389648</ele>
        <time>2020-10-19T14:54:31.000Z</time>
      </trkpt>
      <trkpt lat="48.21822" lon="-3.12466">
        <ele>156.39999389648</ele>
        <time>2020-10-19T14:54:32.000Z</time>
      </trkpt>
      <trkpt lat="48.21822" lon="-3.12466">
        <ele>156.39999389648</ele>
        <time>2020-10-19T14:54:33.000Z</time>
      </trkpt>
      <trkpt lat="48.21822" lon="-3.12466">
        <ele>156.60000610352</ele>
        <time>2020-10-19T14:54:34.000Z</time>
      </trkpt>
      <trkpt lat="48.21822" lon="-3.12466">
        <ele>156.39999389648</ele>
        <time>2020-10-19T14:54:35.000Z</time>
      </trkpt>
      <trkpt lat="48.21821" lon="-3.12466">
        <ele>156.39999389648</ele>
        <time>2020-10-19T14:54:36.000Z</time>
      </trkpt>
      <trkpt lat="48.21821" lon="-3.12467">
        <ele>156.39999389648</ele>
        <time>2020-10-19T14:54:37.000Z</time>
      </trkpt>
      <trkpt lat="48.21821" lon="-3.12467">
        <ele>156.39999389648</ele>
        <time>2020-10-19T14:54:38.000Z</time>
      </trkpt>
      <trkpt lat="48.2182" lon="-3.12467">
        <ele>156.19999694824</ele>
        <time>2020-10-19T14:54:39.000Z</time>
      </trkpt>
      <trkpt lat="48.2182" lon="-3.12467">
        <ele>156.19999694824</ele>
        <time>2020-10-19T14:54:40.000Z</time>
      </trkpt>
      <trkpt lat="48.2182" lon="-3.12467">
        <ele>156.19999694824</ele>
        <time>2020-10-19T14:54:41.000Z</time>
      </trkpt>
      <trkpt lat="48.2182" lon="-3.12467">
        <ele>156.19999694824</ele>
        <time>2020-10-19T14:54:42.000Z</time>
      </trkpt>
      <trkpt lat="48.21821" lon="-3.12467">
        <ele>156.39999389648</ele>
        <time>2020-10-19T14:54:43.000Z</time>
      </trkpt>
      <trkpt lat="48.21821" lon="-3.12467">
        <ele>156.39999389648</ele>
        <time>2020-10-19T14:54:44.000Z</time>
      </trkpt>
      <trkpt lat="48.21821" lon="-3.12467">
        <ele>156.39999389648</ele>
        <time>2020-10-19T14:54:45.000Z</time>
      </trkpt>
      <trkpt lat="48.21821" lon="-3.12468">
        <ele>156.60000610352</ele>
        <time>2020-10-19T14:54:46.000Z</time>
      </trkpt>
      <trkpt lat="48.21821" lon="-3.12469">
        <ele>156.60000610352</ele>
        <time>2020-10-19T14:54:47.000Z</time>
      </trkpt>
      <trkpt lat="48.2182" lon="-3.1247">
        <ele>156.60000610352</ele>
        <time>2020-10-19T14:54:48.000Z</time>
      </trkpt>
      <trkpt lat="48.2182" lon="-3.12471">
        <ele>156.60000610352</ele>
        <time>2020-10-19T14:54:49.000Z</time>
      </trkpt>
      <trkpt lat="48.21819" lon="-3.12472">
        <ele>156.80000305176</ele>
        <time>2020-10-19T14:54:50.000Z</time>
      </trkpt>
      <trkpt lat="48.21818" lon="-3.12473">
        <ele>156.80000305176</ele>
        <time>2020-10-19T14:54:51.000Z</time>
      </trkpt>
      <trkpt lat="48.21818" lon="-3.12475">
        <ele>156.80000305176</ele>
        <time>2020-10-19T14:54:52.000Z</time>
      </trkpt>
      <trkpt lat="48.21817" lon="-3.12476">
        <ele>157</ele>
        <time>2020-10-19T14:54:53.000Z</time>
      </trkpt>
      <trkpt lat="48.21817" lon="-3.12478">
        <ele>157</ele>
        <time>2020-10-19T14:54:54.000Z</time>
      </trkpt>
      <trkpt lat="48.21816" lon="-3.12479">
        <ele>157</ele>
        <time>2020-10-19T14:54:55.000Z</time>
      </trkpt>
      <trkpt lat="48.21815" lon="-3.1248">
        <ele>157</ele>
        <time>2020-10-19T14:54:56.000Z</time>
      </trkpt>
      <trkpt lat="48.21814" lon="-3.12482">
        <ele>157</ele>
        <time>2020-10-19T14:54:57.000Z</time>
      </trkpt>
      <trkpt lat="48.21813" lon="-3.12483">
        <ele>157</ele>
        <time>2020-10-19T14:54:58.000Z</time>
      </trkpt>
      <trkpt lat="48.21813" lon="-3.12484">
        <ele>157.19999694824</ele>
        <time>2020-10-19T14:54:59.000Z</time>
      </trkpt>
      <trkpt lat="48.21812" lon="-3.12485">
        <ele>157.19999694824</ele>
        <time>2020-10-19T14:55:00.000Z</time>
      </trkpt>
      <trkpt lat="48.21812" lon="-3.12487">
        <ele>157.19999694824</ele>
        <time>2020-10-19T14:55:01.000Z</time>
      </trkpt>
      <trkpt lat="48.21811" lon="-3.12488">
        <ele>157.39999389648</ele>
        <time>2020-10-19T14:55:02.000Z</time>
      </trkpt>
      <trkpt lat="48.21811" lon="-3.12489">
        <ele>157.39999389648</ele>
        <time>2020-10-19T14:55:03.000Z</time>
      </trkpt>
      <trkpt lat="48.21811" lon="-3.1249">
        <ele>157.60000610352</ele>
        <time>2020-10-19T14:55:04.000Z</time>
      </trkpt>
      <trkpt lat="48.2181" lon="-3.12491">
        <ele>157.60000610352</ele>
        <time>2020-10-19T14:55:05.000Z</time>
      </trkpt>
      <trkpt lat="48.2181" lon="-3.12492">
        <ele>157.60000610352</ele>
        <time>2020-10-19T14:55:06.000Z</time>
      </trkpt>
      <trkpt lat="48.21809" lon="-3.12493">
        <ele>157.39999389648</ele>
        <time>2020-10-19T14:55:07.000Z</time>
      </trkpt>
      <trkpt lat="48.21808" lon="-3.12494">
        <ele>157.39999389648</ele>
        <time>2020-10-19T14:55:08.000Z</time>
      </trkpt>
      <trkpt lat="48.21807" lon="-3.12495">
        <ele>157.39999389648</ele>
        <time>2020-10-19T14:55:09.000Z</time>
      </trkpt>
      <trkpt lat="48.21806" lon="-3.12496">
        <ele>157.39999389648</ele>
        <time>2020-10-19T14:55:10.000Z</time>
      </trkpt>
      <trkpt lat="48.21806" lon="-3.12498">
        <ele>157.60000610352</ele>
        <time>2020-10-19T14:55:11.000Z</time>
      </trkpt>
      <trkpt lat="48.21805" lon="-3.12499">
        <ele>157.60000610352</ele>
        <time>2020-10-19T14:55:12.000Z</time>
      </trkpt>
      <trkpt lat="48.21804" lon="-3.125">
        <ele>157.60000610352</ele>
        <time>2020-10-19T14:55:13.000Z</time>
      </trkpt>
      <trkpt lat="48.21804" lon="-3.12501">
        <ele>157.60000610352</ele>
        <time>2020-10-19T14:55:14.000Z</time>
      </trkpt>
      <trkpt lat="48.21803" lon="-3.12502">
        <ele>157.60000610352</ele>
        <time>2020-10-19T14:55:15.000Z</time>
      </trkpt>
      <trkpt lat="48.21802" lon="-3.12504">
        <ele>157.60000610352</ele>
        <time>2020-10-19T14:55:16.000Z</time>
      </trkpt>
      <trkpt lat="48.21802" lon="-3.12505">
        <ele>157.80000305176</ele>
        <time>2020-10-19T14:55:17.000Z</time>
      </trkpt>
      <trkpt lat="48.21801" lon="-3.12507">
        <ele>157.80000305176</ele>
        <time>2020-10-19T14:55:18.000Z</time>
      </trkpt>
      <trkpt lat="48.21801" lon="-3.12508">
        <ele>158</ele>
        <time>2020-10-19T14:55:19.000Z</time>
      </trkpt>
      <trkpt lat="48.218" lon="-3.1251">
        <ele>158.19999694824</ele>
        <time>2020-10-19T14:55:20.000Z</time>
      </trkpt>
      <trkpt lat="48.21799" lon="-3.12512">
        <ele>158.19999694824</ele>
        <time>2020-10-19T14:55:21.000Z</time>
      </trkpt>
      <trkpt lat="48.21799" lon="-3.12513">
        <ele>158.19999694824</ele>
        <time>2020-10-19T14:55:22.000Z</time>
      </trkpt>
      <trkpt lat="48.21798" lon="-3.12515">
        <ele>158.19999694824</ele>
        <time>2020-10-19T14:55:23.000Z</time>
      </trkpt>
      <trkpt lat="48.21797" lon="-3.12516">
        <ele>158.19999694824</ele>
        <time>2020-10-19T14:55:24.000Z</time>
      </trkpt>
      <trkpt lat="48.21796" lon="-3.12518">
        <ele>158</ele>
        <time>2020-10-19T14:55:25.000Z</time>
      </trkpt>
      <trkpt lat="48.21796" lon="-3.12519">
        <ele>158</ele>
        <time>2020-10-19T14:55:26.000Z</time>
      </trkpt>
      <trkpt lat="48.21795" lon="-3.1252">
        <ele>158</ele>
        <time>2020-10-19T14:55:27.000Z</time>
      </trkpt>
      <trkpt lat="48.21794" lon="-3.12522">
        <ele>158</ele>
        <time>2020-10-19T14:55:28.000Z</time>
      </trkpt>
      <trkpt lat="48.21794" lon="-3.12523">
        <ele>157.80000305176</ele>
        <time>2020-10-19T14:55:29.000Z</time>
      </trkpt>
      <trkpt lat="48.21793" lon="-3.12524">
        <ele>157.80000305176</ele>
        <time>2020-10-19T14:55:30.000Z</time>
      </trkpt>
      <trkpt lat="48.21793" lon="-3.12524">
        <ele>158</ele>
        <time>2020-10-19T14:55:31.000Z</time>
      </trkpt>
      <trkpt lat="48.21793" lon="-3.12525">
        <ele>158</ele>
        <time>2020-10-19T14:55:32.000Z</time>
      </trkpt>
      <trkpt lat="48.21792" lon="-3.12525">
        <ele>158</ele>
        <time>2020-10-19T14:55:33.000Z</time>
      </trkpt>
      <trkpt lat="48.21792" lon="-3.12527">
        <ele>158</ele>
        <time>2020-10-19T14:55:34.000Z</time>
      </trkpt>
      <trkpt lat="48.21791" lon="-3.12528">
        <ele>158</ele>
        <time>2020-10-19T14:55:35.000Z</time>
      </trkpt>
      <trkpt lat="48.21791" lon="-3.12529">
        <ele>158</ele>
        <time>2020-10-19T14:55:36.000Z</time>
      </trkpt>
      <trkpt lat="48.2179" lon="-3.1253">
        <ele>157.80000305176</ele>
        <time>2020-10-19T14:55:37.000Z</time>
      </trkpt>
      <trkpt lat="48.21789" lon="-3.1253">
        <ele>157.80000305176</ele>
        <time>2020-10-19T14:55:38.000Z</time>
      </trkpt>
      <trkpt lat="48.21789" lon="-3.12531">
        <ele>157.80000305176</ele>
        <time>2020-10-19T14:55:39.000Z</time>
      </trkpt>
      <trkpt lat="48.21788" lon="-3.12532">
        <ele>157.60000610352</ele>
        <time>2020-10-19T14:55:40.000Z</time>
      </trkpt>
      <trkpt lat="48.21787" lon="-3.12533">
        <ele>157.39999389648</ele>
        <time>2020-10-19T14:55:41.000Z</time>
      </trkpt>
      <trkpt lat="48.21786" lon="-3.12534">
        <ele>157.39999389648</ele>
        <time>2020-10-19T14:55:42.000Z</time>
      </trkpt>
      <trkpt lat="48.21786" lon="-3.12535">
        <ele>157.39999389648</ele>
        <time>2020-10-19T14:55:43.000Z</time>
      </trkpt>
      <trkpt lat="48.21785" lon="-3.12536">
        <ele>157.19999694824</ele>
        <time>2020-10-19T14:55:44.000Z</time>
      </trkpt>
      <trkpt lat="48.21785" lon="-3.12537">
        <ele>157.19999694824</ele>
        <time>2020-10-19T14:55:45.000Z</time>
      </trkpt>
      <trkpt lat="48.21784" lon="-3.12537">
        <ele>157.19999694824</ele>
        <time>2020-10-19T14:55:46.000Z</time>
      </trkpt>
      <trkpt lat="48.21783" lon="-3.12538">
        <ele>157</ele>
        <time>2020-10-19T14:55:47.000Z</time>
      </trkpt>
      <trkpt lat="48.21783" lon="-3.12539">
        <ele>157</ele>
        <time>2020-10-19T14:55:48.000Z</time>
      </trkpt>
      <trkpt lat="48.21782" lon="-3.1254">
        <ele>157</ele>
        <time>2020-10-19T14:55:49.000Z</time>
      </trkpt>
      <trkpt lat="48.21781" lon="-3.12541">
        <ele>157</ele>
        <time>2020-10-19T14:55:50.000Z</time>
      </trkpt>
      <trkpt lat="48.21781" lon="-3.12542">
        <ele>157</ele>
        <time>2020-10-19T14:55:51.000Z</time>
      </trkpt>
      <trkpt lat="48.2178" lon="-3.12543">
        <ele>156.80000305176</ele>
        <time>2020-10-19T14:55:52.000Z</time>
      </trkpt>
      <trkpt lat="48.21779" lon="-3.12544">
        <ele>156.80000305176</ele>
        <time>2020-10-19T14:55:53.000Z</time>
      </trkpt>
      <trkpt lat="48.21779" lon="-3.12546">
        <ele>156.80000305176</ele>
        <time>2020-10-19T14:55:54.000Z</time>
      </trkpt>
      <trkpt lat="48.21778" lon="-3.12547">
        <ele>156.80000305176</ele>
        <time>2020-10-19T14:55:55.000Z</time>
      </trkpt>
      <trkpt lat="48.21778" lon="-3.12548">
        <ele>156.80000305176</ele>
        <time>2020-10-19T14:55:56.000Z</time>
      </trkpt>
      <trkpt lat="48.21777" lon="-3.1255">
        <ele>156.80000305176</ele>
        <time>2020-10-19T14:55:57.000Z</time>
      </trkpt>
      <trkpt lat="48.21776" lon="-3.12551">
        <ele>156.80000305176</ele>
        <time>2020-10-19T14:55:58.000Z</time>
      </trkpt>
      <trkpt lat="48.21776" lon="-3.12552">
        <ele>156.80000305176</ele>
        <time>2020-10-19T14:55:59.000Z</time>
      </trkpt>
      <trkpt lat="48.21775" lon="-3.12553">
        <ele>156.80000305176</ele>
        <time>2020-10-19T14:56:00.000Z</time>
      </trkpt>
      <trkpt lat="48.21775" lon="-3.12555">
        <ele>156.80000305176</ele>
        <time>2020-10-19T14:56:01.000Z</time>
      </trkpt>
      <trkpt lat="48.21774" lon="-3.12556">
        <ele>156.80000305176</ele>
        <time>2020-10-19T14:56:02.000Z</time>
      </trkpt>
      <trkpt lat="48.21774" lon="-3.12558">
        <ele>157</ele>
        <time>2020-10-19T14:56:03.000Z</time>
      </trkpt>
      <trkpt lat="48.21773" lon="-3.1256">
        <ele>157</ele>
        <time>2020-10-19T14:56:04.000Z</time>
      </trkpt>
      <trkpt lat="48.21773" lon="-3.12561">
        <ele>157</ele>
        <time>2020-10-19T14:56:05.000Z</time>
      </trkpt>
      <trkpt lat="48.21772" lon="-3.12563">
        <ele>157</ele>
        <time>2020-10-19T14:56:06.000Z</time>
      </trkpt>
      <trkpt lat="48.21771" lon="-3.12564">
        <ele>157</ele>
        <time>2020-10-19T14:56:07.000Z</time>
      </trkpt>
      <trkpt lat="48.21771" lon="-3.12565">
        <ele>157</ele>
        <time>2020-10-19T14:56:08.000Z</time>
      </trkpt>
      <trkpt lat="48.2177" lon="-3.12567">
        <ele>156.80000305176</ele>
        <time>2020-10-19T14:56:09.000Z</time>
      </trkpt>
      <trkpt lat="48.21769" lon="-3.12568">
        <ele>156.80000305176</ele>
        <time>2020-10-19T14:56:10.000Z</time>
      </trkpt>
      <trkpt lat="48.21768" lon="-3.12569">
        <ele>156.80000305176</ele>
        <time>2020-10-19T14:56:11.000Z</time>
      </trkpt>
      <trkpt lat="48.21767" lon="-3.12571">
        <ele>156.60000610352</ele>
        <time>2020-10-19T14:56:12.000Z</time>
      </trkpt>
      <trkpt lat="48.21766" lon="-3.12572">
        <ele>156.60000610352</ele>
        <time>2020-10-19T14:56:13.000Z</time>
      </trkpt>
      <trkpt lat="48.21765" lon="-3.12573">
        <ele>156.60000610352</ele>
        <time>2020-10-19T14:56:14.000Z</time>
      </trkpt>
      <trkpt lat="48.21765" lon="-3.12575">
        <ele>156.60000610352</ele>
        <time>2020-10-19T14:56:15.000Z</time>
      </trkpt>
      <trkpt lat="48.21764" lon="-3.12576">
        <ele>156.60000610352</ele>
        <time>2020-10-19T14:56:16.000Z</time>
      </trkpt>
      <trkpt lat="48.21763" lon="-3.12578">
        <ele>156.39999389648</ele>
        <time>2020-10-19T14:56:17.000Z</time>
      </trkpt>
      <trkpt lat="48.21762" lon="-3.12579">
        <ele>156.39999389648</ele>
        <time>2020-10-19T14:56:18.000Z</time>
      </trkpt>
      <trkpt lat="48.21762" lon="-3.1258">
        <ele>156.60000610352</ele>
        <time>2020-10-19T14:56:19.000Z</time>
      </trkpt>
      <trkpt lat="48.21762" lon="-3.12581">
        <ele>156.60000610352</ele>
        <time>2020-10-19T14:56:20.000Z</time>
      </trkpt>
      <trkpt lat="48.21761" lon="-3.12581">
        <ele>156.39999389648</ele>
        <time>2020-10-19T14:56:21.000Z</time>
      </trkpt>
      <trkpt lat="48.21761" lon="-3.12581">
        <ele>156.39999389648</ele>
        <time>2020-10-19T14:56:22.000Z</time>
      </trkpt>
      <trkpt lat="48.21761" lon="-3.12582">
        <ele>156.39999389648</ele>
        <time>2020-10-19T14:56:23.000Z</time>
      </trkpt>
      <trkpt lat="48.2176" lon="-3.12582">
        <ele>156.19999694824</ele>
        <time>2020-10-19T14:56:24.000Z</time>
      </trkpt>
      <trkpt lat="48.2176" lon="-3.12582">
        <ele>156.19999694824</ele>
        <time>2020-10-19T14:56:25.000Z</time>
      </trkpt>
      <trkpt lat="48.21759" lon="-3.12582">
        <ele>156.19999694824</ele>
        <time>2020-10-19T14:56:26.000Z</time>
      </trkpt>
      <trkpt lat="48.21759" lon="-3.12583">
        <ele>156.19999694824</ele>
        <time>2020-10-19T14:56:27.000Z</time>
      </trkpt>
      <trkpt lat="48.21758" lon="-3.12584">
        <ele>156.19999694824</ele>
        <time>2020-10-19T14:56:28.000Z</time>
      </trkpt>
      <trkpt lat="48.21758" lon="-3.12585">
        <ele>156.19999694824</ele>
        <time>2020-10-19T14:56:29.000Z</time>
      </trkpt>
      <trkpt lat="48.21758" lon="-3.12586">
        <ele>156.19999694824</ele>
        <time>2020-10-19T14:56:30.000Z</time>
      </trkpt>
      <trkpt lat="48.21757" lon="-3.12587">
        <ele>156.39999389648</ele>
        <time>2020-10-19T14:56:31.000Z</time>
      </trkpt>
      <trkpt lat="48.21757" lon="-3.12588">
        <ele>156.39999389648</ele>
        <time>2020-10-19T14:56:32.000Z</time>
      </trkpt>
      <trkpt lat="48.21756" lon="-3.1259">
        <ele>156.39999389648</ele>
        <time>2020-10-19T14:56:33.000Z</time>
      </trkpt>
      <trkpt lat="48.21755" lon="-3.12591">
        <ele>156.39999389648</ele>
        <time>2020-10-19T14:56:34.000Z</time>
      </trkpt>
      <trkpt lat="48.21755" lon="-3.12592">
        <ele>156.39999389648</ele>
        <time>2020-10-19T14:56:35.000Z</time>
      </trkpt>
      <trkpt lat="48.21754" lon="-3.12593">
        <ele>156.39999389648</ele>
        <time>2020-10-19T14:56:36.000Z</time>
      </trkpt>
      <trkpt lat="48.21754" lon="-3.12594">
        <ele>156.39999389648</ele>
        <time>2020-10-19T14:56:37.000Z</time>
      </trkpt>
      <trkpt lat="48.21753" lon="-3.12595">
        <ele>156.19999694824</ele>
        <time>2020-10-19T14:56:38.000Z</time>
      </trkpt>
      <trkpt lat="48.21752" lon="-3.12597">
        <ele>156.19999694824</ele>
        <time>2020-10-19T14:56:39.000Z</time>
      </trkpt>
      <trkpt lat="48.21751" lon="-3.12597">
        <ele>156</ele>
        <time>2020-10-19T14:56:40.000Z</time>
      </trkpt>
      <trkpt lat="48.21751" lon="-3.12599">
        <ele>156</ele>
        <time>2020-10-19T14:56:41.000Z</time>
      </trkpt>
      <trkpt lat="48.2175" lon="-3.126">
        <ele>155.80000305176</ele>
        <time>2020-10-19T14:56:42.000Z</time>
      </trkpt>
      <trkpt lat="48.21749" lon="-3.126">
        <ele>155.60000610352</ele>
        <time>2020-10-19T14:56:43.000Z</time>
      </trkpt>
      <trkpt lat="48.21748" lon="-3.12602">
        <ele>155.60000610352</ele>
        <time>2020-10-19T14:56:44.000Z</time>
      </trkpt>
      <trkpt lat="48.21747" lon="-3.12604">
        <ele>155.60000610352</ele>
        <time>2020-10-19T14:56:45.000Z</time>
      </trkpt>
      <trkpt lat="48.21746" lon="-3.12606">
        <ele>155.39999389648</ele>
        <time>2020-10-19T14:56:46.000Z</time>
      </trkpt>
      <trkpt lat="48.21745" lon="-3.12607">
        <ele>155.19999694824</ele>
        <time>2020-10-19T14:56:47.000Z</time>
      </trkpt>
      <trkpt lat="48.21745" lon="-3.12609">
        <ele>155.19999694824</ele>
        <time>2020-10-19T14:56:48.000Z</time>
      </trkpt>
      <trkpt lat="48.21743" lon="-3.12612">
        <ele>155</ele>
        <time>2020-10-19T14:56:49.000Z</time>
      </trkpt>
      <trkpt lat="48.21743" lon="-3.12612">
        <ele>155</ele>
        <time>2020-10-19T14:56:50.000Z</time>
      </trkpt>
      <trkpt lat="48.21742" lon="-3.12613">
        <ele>155</ele>
        <time>2020-10-19T14:56:51.000Z</time>
      </trkpt>
      <trkpt lat="48.21742" lon="-3.12615">
        <ele>154.80000305176</ele>
        <time>2020-10-19T14:56:52.000Z</time>
      </trkpt>
      <trkpt lat="48.2174" lon="-3.12617">
        <ele>154.60000610352</ele>
        <time>2020-10-19T14:56:53.000Z</time>
      </trkpt>
      <trkpt lat="48.21739" lon="-3.12618">
        <ele>154.60000610352</ele>
        <time>2020-10-19T14:56:54.000Z</time>
      </trkpt>
      <trkpt lat="48.21739" lon="-3.12619">
        <ele>154.39999389648</ele>
        <time>2020-10-19T14:56:55.000Z</time>
      </trkpt>
      <trkpt lat="48.21738" lon="-3.1262">
        <ele>154.19999694824</ele>
        <time>2020-10-19T14:56:56.000Z</time>
      </trkpt>
      <trkpt lat="48.21737" lon="-3.12622">
        <ele>154.19999694824</ele>
        <time>2020-10-19T14:56:57.000Z</time>
      </trkpt>
      <trkpt lat="48.21736" lon="-3.12623">
        <ele>154</ele>
        <time>2020-10-19T14:56:58.000Z</time>
      </trkpt>
      <trkpt lat="48.21736" lon="-3.12625">
        <ele>154</ele>
        <time>2020-10-19T14:56:59.000Z</time>
      </trkpt>
      <trkpt lat="48.21735" lon="-3.12626">
        <ele>153.80000305176</ele>
        <time>2020-10-19T14:57:00.000Z</time>
      </trkpt>
      <trkpt lat="48.21734" lon="-3.12627">
        <ele>153.80000305176</ele>
        <time>2020-10-19T14:57:01.000Z</time>
      </trkpt>
      <trkpt lat="48.21733" lon="-3.12628">
        <ele>153.60000610352</ele>
        <time>2020-10-19T14:57:02.000Z</time>
      </trkpt>
      <trkpt lat="48.21733" lon="-3.12629">
        <ele>153.60000610352</ele>
        <time>2020-10-19T14:57:03.000Z</time>
      </trkpt>
      <trkpt lat="48.21732" lon="-3.1263">
        <ele>153.39999389648</ele>
        <time>2020-10-19T14:57:04.000Z</time>
      </trkpt>
      <trkpt lat="48.21732" lon="-3.12632">
        <ele>153.39999389648</ele>
        <time>2020-10-19T14:57:05.000Z</time>
      </trkpt>
      <trkpt lat="48.21731" lon="-3.12633">
        <ele>153.39999389648</ele>
        <time>2020-10-19T14:57:06.000Z</time>
      </trkpt>
      <trkpt lat="48.21731" lon="-3.12634">
        <ele>153.19999694824</ele>
        <time>2020-10-19T14:57:07.000Z</time>
      </trkpt>
      <trkpt lat="48.21731" lon="-3.12635">
        <ele>153.19999694824</ele>
        <time>2020-10-19T14:57:08.000Z</time>
      </trkpt>
      <trkpt lat="48.2173" lon="-3.12637">
        <ele>153.19999694824</ele>
        <time>2020-10-19T14:57:09.000Z</time>
      </trkpt>
      <trkpt lat="48.2173" lon="-3.12638">
        <ele>153</ele>
        <time>2020-10-19T14:57:10.000Z</time>
      </trkpt>
      <trkpt lat="48.21729" lon="-3.12639">
        <ele>153</ele>
        <time>2020-10-19T14:57:11.000Z</time>
      </trkpt>
      <trkpt lat="48.21728" lon="-3.12641">
        <ele>153</ele>
        <time>2020-10-19T14:57:12.000Z</time>
      </trkpt>
      <trkpt lat="48.21728" lon="-3.12642">
        <ele>152.80000305176</ele>
        <time>2020-10-19T14:57:13.000Z</time>
      </trkpt>
      <trkpt lat="48.21727" lon="-3.12644">
        <ele>152.80000305176</ele>
        <time>2020-10-19T14:57:14.000Z</time>
      </trkpt>
      <trkpt lat="48.21727" lon="-3.12646">
        <ele>152.80000305176</ele>
        <time>2020-10-19T14:57:15.000Z</time>
      </trkpt>
      <trkpt lat="48.21726" lon="-3.12647">
        <ele>152.60000610352</ele>
        <time>2020-10-19T14:57:16.000Z</time>
      </trkpt>
      <trkpt lat="48.21726" lon="-3.12648">
        <ele>152.60000610352</ele>
        <time>2020-10-19T14:57:17.000Z</time>
      </trkpt>
      <trkpt lat="48.21725" lon="-3.12649">
        <ele>152.39999389648</ele>
        <time>2020-10-19T14:57:18.000Z</time>
      </trkpt>
      <trkpt lat="48.21724" lon="-3.1265">
        <ele>152.19999694824</ele>
        <time>2020-10-19T14:57:19.000Z</time>
      </trkpt>
      <trkpt lat="48.21723" lon="-3.12651">
        <ele>152.19999694824</ele>
        <time>2020-10-19T14:57:20.000Z</time>
      </trkpt>
      <trkpt lat="48.21722" lon="-3.12652">
        <ele>152</ele>
        <time>2020-10-19T14:57:21.000Z</time>
      </trkpt>
      <trkpt lat="48.21721" lon="-3.12653">
        <ele>152</ele>
        <time>2020-10-19T14:57:22.000Z</time>
      </trkpt>
      <trkpt lat="48.21721" lon="-3.12655">
        <ele>151.80000305176</ele>
        <time>2020-10-19T14:57:23.000Z</time>
      </trkpt>
      <trkpt lat="48.21721" lon="-3.12656">
        <ele>151.80000305176</ele>
        <time>2020-10-19T14:57:24.000Z</time>
      </trkpt>
      <trkpt lat="48.2172" lon="-3.12658">
        <ele>151.80000305176</ele>
        <time>2020-10-19T14:57:25.000Z</time>
      </trkpt>
      <trkpt lat="48.2172" lon="-3.12659">
        <ele>151.80000305176</ele>
        <time>2020-10-19T14:57:26.000Z</time>
      </trkpt>
      <trkpt lat="48.2172" lon="-3.12661">
        <ele>151.60000610352</ele>
        <time>2020-10-19T14:57:27.000Z</time>
      </trkpt>
      <trkpt lat="48.21719" lon="-3.12662">
        <ele>151.60000610352</ele>
        <time>2020-10-19T14:57:28.000Z</time>
      </trkpt>
      <trkpt lat="48.21719" lon="-3.12664">
        <ele>151.60000610352</ele>
        <time>2020-10-19T14:57:29.000Z</time>
      </trkpt>
      <trkpt lat="48.21718" lon="-3.12665">
        <ele>151.39999389648</ele>
        <time>2020-10-19T14:57:30.000Z</time>
      </trkpt>
      <trkpt lat="48.21717" lon="-3.12667">
        <ele>151.39999389648</ele>
        <time>2020-10-19T14:57:31.000Z</time>
      </trkpt>
      <trkpt lat="48.21717" lon="-3.12668">
        <ele>151.39999389648</ele>
        <time>2020-10-19T14:57:32.000Z</time>
      </trkpt>
      <trkpt lat="48.21716" lon="-3.12669">
        <ele>151.19999694824</ele>
        <time>2020-10-19T14:57:33.000Z</time>
      </trkpt>
      <trkpt lat="48.21716" lon="-3.1267">
        <ele>151.19999694824</ele>
        <time>2020-10-19T14:57:34.000Z</time>
      </trkpt>
      <trkpt lat="48.21715" lon="-3.12672">
        <ele>151</ele>
        <time>2020-10-19T14:57:35.000Z</time>
      </trkpt>
      <trkpt lat="48.21715" lon="-3.12673">
        <ele>151</ele>
        <time>2020-10-19T14:57:36.000Z</time>
      </trkpt>
      <trkpt lat="48.21714" lon="-3.12675">
        <ele>150.80000305176</ele>
        <time>2020-10-19T14:57:37.000Z</time>
      </trkpt>
      <trkpt lat="48.21713" lon="-3.12677">
        <ele>150.80000305176</ele>
        <time>2020-10-19T14:57:38.000Z</time>
      </trkpt>
      <trkpt lat="48.21713" lon="-3.12678">
        <ele>150.80000305176</ele>
        <time>2020-10-19T14:57:39.000Z</time>
      </trkpt>
      <trkpt lat="48.21712" lon="-3.12679">
        <ele>150.60000610352</ele>
        <time>2020-10-19T14:57:40.000Z</time>
      </trkpt>
      <trkpt lat="48.21712" lon="-3.12681">
        <ele>150.60000610352</ele>
        <time>2020-10-19T14:57:41.000Z</time>
      </trkpt>
      <trkpt lat="48.21711" lon="-3.12682">
        <ele>150.39999389648</ele>
        <time>2020-10-19T14:57:42.000Z</time>
      </trkpt>
      <trkpt lat="48.2171" lon="-3.12684">
        <ele>150.39999389648</ele>
        <time>2020-10-19T14:57:43.000Z</time>
      </trkpt>
      <trkpt lat="48.21709" lon="-3.12685">
        <ele>150.19999694824</ele>
        <time>2020-10-19T14:57:44.000Z</time>
      </trkpt>
      <trkpt lat="48.21709" lon="-3.12687">
        <ele>150</ele>
        <time>2020-10-19T14:57:45.000Z</time>
      </trkpt>
      <trkpt lat="48.21708" lon="-3.12688">
        <ele>150</ele>
        <time>2020-10-19T14:57:46.000Z</time>
      </trkpt>
      <trkpt lat="48.21708" lon="-3.1269">
        <ele>149.80000305176</ele>
        <time>2020-10-19T14:57:47.000Z</time>
      </trkpt>
      <trkpt lat="48.21707" lon="-3.12692">
        <ele>149.80000305176</ele>
        <time>2020-10-19T14:57:48.000Z</time>
      </trkpt>
      <trkpt lat="48.21707" lon="-3.12693">
        <ele>149.80000305176</ele>
        <time>2020-10-19T14:57:49.000Z</time>
      </trkpt>
      <trkpt lat="48.21706" lon="-3.12695">
        <ele>149.60000610352</ele>
        <time>2020-10-19T14:57:50.000Z</time>
      </trkpt>
      <trkpt lat="48.21705" lon="-3.12696">
        <ele>149.39999389648</ele>
        <time>2020-10-19T14:57:51.000Z</time>
      </trkpt>
      <trkpt lat="48.21705" lon="-3.12697">
        <ele>149.39999389648</ele>
        <time>2020-10-19T14:57:52.000Z</time>
      </trkpt>
      <trkpt lat="48.21704" lon="-3.12698">
        <ele>149.39999389648</ele>
        <time>2020-10-19T14:57:53.000Z</time>
      </trkpt>
      <trkpt lat="48.21704" lon="-3.12699">
        <ele>149.39999389648</ele>
        <time>2020-10-19T14:57:54.000Z</time>
      </trkpt>
      <trkpt lat="48.21704" lon="-3.12701">
        <ele>149.19999694824</ele>
        <time>2020-10-19T14:57:55.000Z</time>
      </trkpt>
      <trkpt lat="48.21704" lon="-3.12702">
        <ele>149.19999694824</ele>
        <time>2020-10-19T14:57:56.000Z</time>
      </trkpt>
      <trkpt lat="48.21703" lon="-3.12704">
        <ele>149.19999694824</ele>
        <time>2020-10-19T14:57:57.000Z</time>
      </trkpt>
      <trkpt lat="48.21703" lon="-3.12705">
        <ele>149</ele>
        <time>2020-10-19T14:57:58.000Z</time>
      </trkpt>
      <trkpt lat="48.21702" lon="-3.12706">
        <ele>149</ele>
        <time>2020-10-19T14:57:59.000Z</time>
      </trkpt>
      <trkpt lat="48.21702" lon="-3.12708">
        <ele>149</ele>
        <time>2020-10-19T14:58:00.000Z</time>
      </trkpt>
      <trkpt lat="48.21702" lon="-3.12709">
        <ele>148.80000305176</ele>
        <time>2020-10-19T14:58:01.000Z</time>
      </trkpt>
      <trkpt lat="48.21701" lon="-3.12711">
        <ele>148.80000305176</ele>
        <time>2020-10-19T14:58:02.000Z</time>
      </trkpt>
      <trkpt lat="48.21701" lon="-3.12712">
        <ele>148.80000305176</ele>
        <time>2020-10-19T14:58:03.000Z</time>
      </trkpt>
      <trkpt lat="48.21701" lon="-3.12714">
        <ele>148.60000610352</ele>
        <time>2020-10-19T14:58:04.000Z</time>
      </trkpt>
      <trkpt lat="48.217" lon="-3.12715">
        <ele>148.60000610352</ele>
        <time>2020-10-19T14:58:05.000Z</time>
      </trkpt>
      <trkpt lat="48.217" lon="-3.12717">
        <ele>148.60000610352</ele>
        <time>2020-10-19T14:58:06.000Z</time>
      </trkpt>
      <trkpt lat="48.217" lon="-3.12718">
        <ele>148.60000610352</ele>
        <time>2020-10-19T14:58:07.000Z</time>
      </trkpt>
      <trkpt lat="48.21699" lon="-3.1272">
        <ele>148.39999389648</ele>
        <time>2020-10-19T14:58:08.000Z</time>
      </trkpt>
      <trkpt lat="48.21699" lon="-3.12722">
        <ele>148.39999389648</ele>
        <time>2020-10-19T14:58:09.000Z</time>
      </trkpt>
      <trkpt lat="48.21699" lon="-3.12723">
        <ele>148.39999389648</ele>
        <time>2020-10-19T14:58:10.000Z</time>
      </trkpt>
      <trkpt lat="48.21698" lon="-3.12724">
        <ele>148.39999389648</ele>
        <time>2020-10-19T14:58:11.000Z</time>
      </trkpt>
      <trkpt lat="48.21698" lon="-3.12726">
        <ele>148.19999694824</ele>
        <time>2020-10-19T14:58:12.000Z</time>
      </trkpt>
      <trkpt lat="48.21698" lon="-3.12727">
        <ele>148.19999694824</ele>
        <time>2020-10-19T14:58:13.000Z</time>
      </trkpt>
      <trkpt lat="48.21697" lon="-3.12729">
        <ele>148.19999694824</ele>
        <time>2020-10-19T14:58:14.000Z</time>
      </trkpt>
      <trkpt lat="48.21697" lon="-3.1273">
        <ele>148.19999694824</ele>
        <time>2020-10-19T14:58:15.000Z</time>
      </trkpt>
      <trkpt lat="48.21697" lon="-3.12732">
        <ele>148.19999694824</ele>
        <time>2020-10-19T14:58:16.000Z</time>
      </trkpt>
      <trkpt lat="48.21697" lon="-3.12733">
        <ele>148</ele>
        <time>2020-10-19T14:58:17.000Z</time>
      </trkpt>
      <trkpt lat="48.21697" lon="-3.12735">
        <ele>148</ele>
        <time>2020-10-19T14:58:18.000Z</time>
      </trkpt>
      <trkpt lat="48.21696" lon="-3.12736">
        <ele>148</ele>
        <time>2020-10-19T14:58:19.000Z</time>
      </trkpt>
      <trkpt lat="48.21696" lon="-3.12738">
        <ele>148</ele>
        <time>2020-10-19T14:58:20.000Z</time>
      </trkpt>
      <trkpt lat="48.21696" lon="-3.12739">
        <ele>147.80000305176</ele>
        <time>2020-10-19T14:58:21.000Z</time>
      </trkpt>
      <trkpt lat="48.21695" lon="-3.12741">
        <ele>147.80000305176</ele>
        <time>2020-10-19T14:58:22.000Z</time>
      </trkpt>
      <trkpt lat="48.21694" lon="-3.12742">
        <ele>147.60000610352</ele>
        <time>2020-10-19T14:58:23.000Z</time>
      </trkpt>
      <trkpt lat="48.21693" lon="-3.12743">
        <ele>147.39999389648</ele>
        <time>2020-10-19T14:58:24.000Z</time>
      </trkpt>
      <trkpt lat="48.21693" lon="-3.12745">
        <ele>147.39999389648</ele>
        <time>2020-10-19T14:58:25.000Z</time>
      </trkpt>
      <trkpt lat="48.21693" lon="-3.12745">
        <ele>147.39999389648</ele>
        <time>2020-10-19T14:58:26.000Z</time>
      </trkpt>
      <trkpt lat="48.21693" lon="-3.12745">
        <ele>147.39999389648</ele>
        <time>2020-10-19T14:58:27.000Z</time>
      </trkpt>
      <trkpt lat="48.21693" lon="-3.12746">
        <ele>147.39999389648</ele>
        <time>2020-10-19T14:58:28.000Z</time>
      </trkpt>
      <trkpt lat="48.21693" lon="-3.12746">
        <ele>147.39999389648</ele>
        <time>2020-10-19T14:58:29.000Z</time>
      </trkpt>
      <trkpt lat="48.21692" lon="-3.12746">
        <ele>147.39999389648</ele>
        <time>2020-10-19T14:58:30.000Z</time>
      </trkpt>
      <trkpt lat="48.21692" lon="-3.12747">
        <ele>147.19999694824</ele>
        <time>2020-10-19T14:58:31.000Z</time>
      </trkpt>
      <trkpt lat="48.21692" lon="-3.12747">
        <ele>147.19999694824</ele>
        <time>2020-10-19T14:58:32.000Z</time>
      </trkpt>
      <trkpt lat="48.21692" lon="-3.12747">
        <ele>147.19999694824</ele>
        <time>2020-10-19T14:58:33.000Z</time>
      </trkpt>
      <trkpt lat="48.21692" lon="-3.12747">
        <ele>147.19999694824</ele>
        <time>2020-10-19T14:58:34.000Z</time>
      </trkpt>
      <trkpt lat="48.21692" lon="-3.12747">
        <ele>147.19999694824</ele>
        <time>2020-10-19T14:58:35.000Z</time>
      </trkpt>
      <trkpt lat="48.21692" lon="-3.12747">
        <ele>147.19999694824</ele>
        <time>2020-10-19T14:58:36.000Z</time>
      </trkpt>
      <trkpt lat="48.21691" lon="-3.12748">
        <ele>147.19999694824</ele>
        <time>2020-10-19T14:58:37.000Z</time>
      </trkpt>
      <trkpt lat="48.21691" lon="-3.12748">
        <ele>147</ele>
        <time>2020-10-19T14:58:38.000Z</time>
      </trkpt>
      <trkpt lat="48.2169" lon="-3.1275">
        <ele>146.80000305176</ele>
        <time>2020-10-19T14:58:39.000Z</time>
      </trkpt>
      <trkpt lat="48.21689" lon="-3.12751">
        <ele>146.80000305176</ele>
        <time>2020-10-19T14:58:40.000Z</time>
      </trkpt>
      <trkpt lat="48.21688" lon="-3.12752">
        <ele>146.60000610352</ele>
        <time>2020-10-19T14:58:41.000Z</time>
      </trkpt>
      <trkpt lat="48.21687" lon="-3.12754">
        <ele>146.39999389648</ele>
        <time>2020-10-19T14:58:42.000Z</time>
      </trkpt>
      <trkpt lat="48.21686" lon="-3.12756">
        <ele>146.39999389648</ele>
        <time>2020-10-19T14:58:43.000Z</time>
      </trkpt>
      <trkpt lat="48.21685" lon="-3.12757">
        <ele>146.19999694824</ele>
        <time>2020-10-19T14:58:44.000Z</time>
      </trkpt>
      <trkpt lat="48.21684" lon="-3.12759">
        <ele>146</ele>
        <time>2020-10-19T14:58:45.000Z</time>
      </trkpt>
      <trkpt lat="48.21683" lon="-3.12761">
        <ele>146</ele>
        <time>2020-10-19T14:58:46.000Z</time>
      </trkpt>
      <trkpt lat="48.21682" lon="-3.12762">
        <ele>145.80000305176</ele>
        <time>2020-10-19T14:58:47.000Z</time>
      </trkpt>
      <trkpt lat="48.21682" lon="-3.12764">
        <ele>145.80000305176</ele>
        <time>2020-10-19T14:58:48.000Z</time>
      </trkpt>
      <trkpt lat="48.21681" lon="-3.12765">
        <ele>146</ele>
        <time>2020-10-19T14:58:49.000Z</time>
      </trkpt>
      <trkpt lat="48.21681" lon="-3.12767">
        <ele>145.80000305176</ele>
        <time>2020-10-19T14:58:50.000Z</time>
      </trkpt>
      <trkpt lat="48.2168" lon="-3.12768">
        <ele>145.80000305176</ele>
        <time>2020-10-19T14:58:51.000Z</time>
      </trkpt>
      <trkpt lat="48.21679" lon="-3.12769">
        <ele>145.80000305176</ele>
        <time>2020-10-19T14:58:52.000Z</time>
      </trkpt>
      <trkpt lat="48.21679" lon="-3.12771">
        <ele>145.80000305176</ele>
        <time>2020-10-19T14:58:53.000Z</time>
      </trkpt>
      <trkpt lat="48.21679" lon="-3.12773">
        <ele>145.80000305176</ele>
        <time>2020-10-19T14:58:54.000Z</time>
      </trkpt>
      <trkpt lat="48.21678" lon="-3.12774">
        <ele>146</ele>
        <time>2020-10-19T14:58:55.000Z</time>
      </trkpt>
      <trkpt lat="48.21678" lon="-3.12776">
        <ele>146</ele>
        <time>2020-10-19T14:58:56.000Z</time>
      </trkpt>
      <trkpt lat="48.21678" lon="-3.12777">
        <ele>146</ele>
        <time>2020-10-19T14:58:57.000Z</time>
      </trkpt>
      <trkpt lat="48.21678" lon="-3.12778">
        <ele>146.19999694824</ele>
        <time>2020-10-19T14:58:58.000Z</time>
      </trkpt>
      <trkpt lat="48.21677" lon="-3.12778">
        <ele>146</ele>
        <time>2020-10-19T14:58:59.000Z</time>
      </trkpt>
      <trkpt lat="48.21676" lon="-3.12779">
        <ele>146</ele>
        <time>2020-10-19T14:59:00.000Z</time>
      </trkpt>
      <trkpt lat="48.21676" lon="-3.1278">
        <ele>146</ele>
        <time>2020-10-19T14:59:01.000Z</time>
      </trkpt>
      <trkpt lat="48.21675" lon="-3.12781">
        <ele>146</ele>
        <time>2020-10-19T14:59:02.000Z</time>
      </trkpt>
      <trkpt lat="48.21675" lon="-3.12783">
        <ele>146.19999694824</ele>
        <time>2020-10-19T14:59:03.000Z</time>
      </trkpt>
      <trkpt lat="48.21674" lon="-3.12784">
        <ele>146.19999694824</ele>
        <time>2020-10-19T14:59:04.000Z</time>
      </trkpt>
      <trkpt lat="48.21674" lon="-3.12786">
        <ele>146.19999694824</ele>
        <time>2020-10-19T14:59:05.000Z</time>
      </trkpt>
      <trkpt lat="48.21673" lon="-3.12787">
        <ele>146.19999694824</ele>
        <time>2020-10-19T14:59:06.000Z</time>
      </trkpt>
      <trkpt lat="48.21673" lon="-3.12789">
        <ele>146.19999694824</ele>
        <time>2020-10-19T14:59:07.000Z</time>
      </trkpt>
      <trkpt lat="48.21672" lon="-3.1279">
        <ele>146.19999694824</ele>
        <time>2020-10-19T14:59:08.000Z</time>
      </trkpt>
      <trkpt lat="48.21672" lon="-3.12792">
        <ele>146.19999694824</ele>
        <time>2020-10-19T14:59:09.000Z</time>
      </trkpt>
      <trkpt lat="48.21672" lon="-3.12793">
        <ele>146.39999389648</ele>
        <time>2020-10-19T14:59:10.000Z</time>
      </trkpt>
      <trkpt lat="48.21671" lon="-3.12795">
        <ele>146.39999389648</ele>
        <time>2020-10-19T14:59:11.000Z</time>
      </trkpt>
      <trkpt lat="48.21671" lon="-3.12796">
        <ele>146.39999389648</ele>
        <time>2020-10-19T14:59:12.000Z</time>
      </trkpt>
      <trkpt lat="48.21671" lon="-3.12798">
        <ele>146.60000610352</ele>
        <time>2020-10-19T14:59:13.000Z</time>
      </trkpt>
      <trkpt lat="48.2167" lon="-3.12799">
        <ele>146.60000610352</ele>
        <time>2020-10-19T14:59:14.000Z</time>
      </trkpt>
      <trkpt lat="48.2167" lon="-3.128">
        <ele>146.60000610352</ele>
        <time>2020-10-19T14:59:15.000Z</time>
      </trkpt>
      <trkpt lat="48.21669" lon="-3.12801">
        <ele>146.60000610352</ele>
        <time>2020-10-19T14:59:16.000Z</time>
      </trkpt>
      <trkpt lat="48.21669" lon="-3.12803">
        <ele>146.60000610352</ele>
        <time>2020-10-19T14:59:17.000Z</time>
      </trkpt>
      <trkpt lat="48.21668" lon="-3.12804">
        <ele>146.60000610352</ele>
        <time>2020-10-19T14:59:18.000Z</time>
      </trkpt>
      <trkpt lat="48.21668" lon="-3.12805">
        <ele>146.60000610352</ele>
        <time>2020-10-19T14:59:19.000Z</time>
      </trkpt>
      <trkpt lat="48.21667" lon="-3.12806">
        <ele>146.60000610352</ele>
        <time>2020-10-19T14:59:20.000Z</time>
      </trkpt>
      <trkpt lat="48.21666" lon="-3.12807">
        <ele>146.60000610352</ele>
        <time>2020-10-19T14:59:21.000Z</time>
      </trkpt>
      <trkpt lat="48.21666" lon="-3.12808">
        <ele>146.60000610352</ele>
        <time>2020-10-19T14:59:22.000Z</time>
      </trkpt>
      <trkpt lat="48.21665" lon="-3.1281">
        <ele>146.60000610352</ele>
        <time>2020-10-19T14:59:23.000Z</time>
      </trkpt>
      <trkpt lat="48.21664" lon="-3.12811">
        <ele>146.60000610352</ele>
        <time>2020-10-19T14:59:24.000Z</time>
      </trkpt>
      <trkpt lat="48.21663" lon="-3.12812">
        <ele>146.60000610352</ele>
        <time>2020-10-19T14:59:25.000Z</time>
      </trkpt>
      <trkpt lat="48.21663" lon="-3.12813">
        <ele>146.60000610352</ele>
        <time>2020-10-19T14:59:26.000Z</time>
      </trkpt>
      <trkpt lat="48.21663" lon="-3.12815">
        <ele>146.60000610352</ele>
        <time>2020-10-19T14:59:27.000Z</time>
      </trkpt>
      <trkpt lat="48.21662" lon="-3.12816">
        <ele>146.60000610352</ele>
        <time>2020-10-19T14:59:28.000Z</time>
      </trkpt>
      <trkpt lat="48.21662" lon="-3.12817">
        <ele>146.60000610352</ele>
        <time>2020-10-19T14:59:29.000Z</time>
      </trkpt>
      <trkpt lat="48.21661" lon="-3.12818">
        <ele>146.60000610352</ele>
        <time>2020-10-19T14:59:30.000Z</time>
      </trkpt>
      <trkpt lat="48.2166" lon="-3.12819">
        <ele>146.60000610352</ele>
        <time>2020-10-19T14:59:31.000Z</time>
      </trkpt>
      <trkpt lat="48.2166" lon="-3.1282">
        <ele>146.60000610352</ele>
        <time>2020-10-19T14:59:32.000Z</time>
      </trkpt>
      <trkpt lat="48.21659" lon="-3.12821">
        <ele>146.60000610352</ele>
        <time>2020-10-19T14:59:33.000Z</time>
      </trkpt>
      <trkpt lat="48.21659" lon="-3.12822">
        <ele>146.60000610352</ele>
        <time>2020-10-19T14:59:34.000Z</time>
      </trkpt>
      <trkpt lat="48.21658" lon="-3.12824">
        <ele>146.60000610352</ele>
        <time>2020-10-19T14:59:35.000Z</time>
      </trkpt>
      <trkpt lat="48.21657" lon="-3.12825">
        <ele>146.60000610352</ele>
        <time>2020-10-19T14:59:36.000Z</time>
      </trkpt>
      <trkpt lat="48.21657" lon="-3.12826">
        <ele>146.60000610352</ele>
        <time>2020-10-19T14:59:37.000Z</time>
      </trkpt>
      <trkpt lat="48.21656" lon="-3.12827">
        <ele>146.60000610352</ele>
        <time>2020-10-19T14:59:38.000Z</time>
      </trkpt>
      <trkpt lat="48.21655" lon="-3.12829">
        <ele>146.39999389648</ele>
        <time>2020-10-19T14:59:39.000Z</time>
      </trkpt>
      <trkpt lat="48.21654" lon="-3.1283">
        <ele>146.39999389648</ele>
        <time>2020-10-19T14:59:40.000Z</time>
      </trkpt>
      <trkpt lat="48.21653" lon="-3.12831">
        <ele>146.39999389648</ele>
        <time>2020-10-19T14:59:41.000Z</time>
      </trkpt>
      <trkpt lat="48.21652" lon="-3.12833">
        <ele>146.39999389648</ele>
        <time>2020-10-19T14:59:42.000Z</time>
      </trkpt>
      <trkpt lat="48.21651" lon="-3.12834">
        <ele>146.39999389648</ele>
        <time>2020-10-19T14:59:43.000Z</time>
      </trkpt>
      <trkpt lat="48.2165" lon="-3.12835">
        <ele>146.39999389648</ele>
        <time>2020-10-19T14:59:44.000Z</time>
      </trkpt>
      <trkpt lat="48.21649" lon="-3.12837">
        <ele>146.19999694824</ele>
        <time>2020-10-19T14:59:45.000Z</time>
      </trkpt>
      <trkpt lat="48.21648" lon="-3.12838">
        <ele>146.19999694824</ele>
        <time>2020-10-19T14:59:46.000Z</time>
      </trkpt>
      <trkpt lat="48.21647" lon="-3.12839">
        <ele>146.19999694824</ele>
        <time>2020-10-19T14:59:47.000Z</time>
      </trkpt>
      <trkpt lat="48.21647" lon="-3.1284">
        <ele>146.19999694824</ele>
        <time>2020-10-19T14:59:48.000Z</time>
      </trkpt>
      <trkpt lat="48.21646" lon="-3.12842">
        <ele>146.19999694824</ele>
        <time>2020-10-19T14:59:49.000Z</time>
      </trkpt>
      <trkpt lat="48.21645" lon="-3.12843">
        <ele>146.19999694824</ele>
        <time>2020-10-19T14:59:50.000Z</time>
      </trkpt>
      <trkpt lat="48.21644" lon="-3.12844">
        <ele>146.19999694824</ele>
        <time>2020-10-19T14:59:51.000Z</time>
      </trkpt>
      <trkpt lat="48.21644" lon="-3.12845">
        <ele>146.19999694824</ele>
        <time>2020-10-19T14:59:52.000Z</time>
      </trkpt>
      <trkpt lat="48.21643" lon="-3.12847">
        <ele>146.19999694824</ele>
        <time>2020-10-19T14:59:53.000Z</time>
      </trkpt>
      <trkpt lat="48.21642" lon="-3.12848">
        <ele>146</ele>
        <time>2020-10-19T14:59:54.000Z</time>
      </trkpt>
      <trkpt lat="48.21641" lon="-3.12849">
        <ele>146</ele>
        <time>2020-10-19T14:59:55.000Z</time>
      </trkpt>
      <trkpt lat="48.21641" lon="-3.1285">
        <ele>146</ele>
        <time>2020-10-19T14:59:56.000Z</time>
      </trkpt>
      <trkpt lat="48.2164" lon="-3.12851">
        <ele>146</ele>
        <time>2020-10-19T14:59:57.000Z</time>
      </trkpt>
      <trkpt lat="48.21639" lon="-3.12852">
        <ele>146</ele>
        <time>2020-10-19T14:59:58.000Z</time>
      </trkpt>
      <trkpt lat="48.21638" lon="-3.12853">
        <ele>146</ele>
        <time>2020-10-19T14:59:59.000Z</time>
      </trkpt>
      <trkpt lat="48.21637" lon="-3.12855">
        <ele>146</ele>
        <time>2020-10-19T15:00:00.000Z</time>
      </trkpt>
      <trkpt lat="48.21636" lon="-3.12857">
        <ele>146</ele>
        <time>2020-10-19T15:00:01.000Z</time>
      </trkpt>
      <trkpt lat="48.21635" lon="-3.12858">
        <ele>146</ele>
        <time>2020-10-19T15:00:02.000Z</time>
      </trkpt>
      <trkpt lat="48.21634" lon="-3.1286">
        <ele>146</ele>
        <time>2020-10-19T15:00:03.000Z</time>
      </trkpt>
      <trkpt lat="48.21633" lon="-3.12861">
        <ele>146</ele>
        <time>2020-10-19T15:00:04.000Z</time>
      </trkpt>
      <trkpt lat="48.21632" lon="-3.12863">
        <ele>146</ele>
        <time>2020-10-19T15:00:05.000Z</time>
      </trkpt>
      <trkpt lat="48.21632" lon="-3.12864">
        <ele>146</ele>
        <time>2020-10-19T15:00:06.000Z</time>
      </trkpt>
      <trkpt lat="48.21631" lon="-3.12865">
        <ele>146</ele>
        <time>2020-10-19T15:00:07.000Z</time>
      </trkpt>
      <trkpt lat="48.21631" lon="-3.12866">
        <ele>146</ele>
        <time>2020-10-19T15:00:08.000Z</time>
      </trkpt>
      <trkpt lat="48.2163" lon="-3.12868">
        <ele>146</ele>
        <time>2020-10-19T15:00:09.000Z</time>
      </trkpt>
      <trkpt lat="48.2163" lon="-3.12869">
        <ele>146</ele>
        <time>2020-10-19T15:00:10.000Z</time>
      </trkpt>
      <trkpt lat="48.21629" lon="-3.1287">
        <ele>146</ele>
        <time>2020-10-19T15:00:11.000Z</time>
      </trkpt>
      <trkpt lat="48.21628" lon="-3.12872">
        <ele>146</ele>
        <time>2020-10-19T15:00:12.000Z</time>
      </trkpt>
      <trkpt lat="48.21628" lon="-3.12873">
        <ele>146</ele>
        <time>2020-10-19T15:00:13.000Z</time>
      </trkpt>
      <trkpt lat="48.21627" lon="-3.12873">
        <ele>146</ele>
        <time>2020-10-19T15:00:14.000Z</time>
      </trkpt>
      <trkpt lat="48.21626" lon="-3.12875">
        <ele>146</ele>
        <time>2020-10-19T15:00:15.000Z</time>
      </trkpt>
      <trkpt lat="48.21625" lon="-3.12876">
        <ele>146</ele>
        <time>2020-10-19T15:00:16.000Z</time>
      </trkpt>
      <trkpt lat="48.21624" lon="-3.12877">
        <ele>146</ele>
        <time>2020-10-19T15:00:17.000Z</time>
      </trkpt>
      <trkpt lat="48.21623" lon="-3.1288">
        <ele>146</ele>
        <time>2020-10-19T15:00:18.000Z</time>
      </trkpt>
      <trkpt lat="48.21623" lon="-3.1288">
        <ele>146</ele>
        <time>2020-10-19T15:00:19.000Z</time>
      </trkpt>
      <trkpt lat="48.21622" lon="-3.12881">
        <ele>146</ele>
        <time>2020-10-19T15:00:20.000Z</time>
      </trkpt>
      <trkpt lat="48.21621" lon="-3.12882">
        <ele>145.80000305176</ele>
        <time>2020-10-19T15:00:21.000Z</time>
      </trkpt>
      <trkpt lat="48.2162" lon="-3.12883">
        <ele>145.80000305176</ele>
        <time>2020-10-19T15:00:22.000Z</time>
      </trkpt>
      <trkpt lat="48.21618" lon="-3.12884">
        <ele>145.60000610352</ele>
        <time>2020-10-19T15:00:23.000Z</time>
      </trkpt>
      <trkpt lat="48.21617" lon="-3.12884">
        <ele>145.60000610352</ele>
        <time>2020-10-19T15:00:24.000Z</time>
      </trkpt>
      <trkpt lat="48.21616" lon="-3.12885">
        <ele>145.39999389648</ele>
        <time>2020-10-19T15:00:25.000Z</time>
      </trkpt>
      <trkpt lat="48.21615" lon="-3.12886">
        <ele>145.39999389648</ele>
        <time>2020-10-19T15:00:26.000Z</time>
      </trkpt>
      <trkpt lat="48.21614" lon="-3.12887">
        <ele>145.39999389648</ele>
        <time>2020-10-19T15:00:27.000Z</time>
      </trkpt>
      <trkpt lat="48.21613" lon="-3.12887">
        <ele>145.19999694824</ele>
        <time>2020-10-19T15:00:28.000Z</time>
      </trkpt>
      <trkpt lat="48.21612" lon="-3.12887">
        <ele>145</ele>
        <time>2020-10-19T15:00:29.000Z</time>
      </trkpt>
      <trkpt lat="48.21611" lon="-3.12887">
        <ele>144.80000305176</ele>
        <time>2020-10-19T15:00:30.000Z</time>
      </trkpt>
      <trkpt lat="48.2161" lon="-3.12887">
        <ele>144.80000305176</ele>
        <time>2020-10-19T15:00:31.000Z</time>
      </trkpt>
      <trkpt lat="48.21609" lon="-3.12886">
        <ele>144.60000610352</ele>
        <time>2020-10-19T15:00:32.000Z</time>
      </trkpt>
      <trkpt lat="48.21608" lon="-3.12885">
        <ele>144.19999694824</ele>
        <time>2020-10-19T15:00:33.000Z</time>
      </trkpt>
      <trkpt lat="48.21607" lon="-3.12884">
        <ele>144</ele>
        <time>2020-10-19T15:00:34.000Z</time>
      </trkpt>
      <trkpt lat="48.21606" lon="-3.12882">
        <ele>143.80000305176</ele>
        <time>2020-10-19T15:00:35.000Z</time>
      </trkpt>
      <trkpt lat="48.21605" lon="-3.12881">
        <ele>143.60000610352</ele>
        <time>2020-10-19T15:00:36.000Z</time>
      </trkpt>
      <trkpt lat="48.21605" lon="-3.1288">
        <ele>143.39999389648</ele>
        <time>2020-10-19T15:00:37.000Z</time>
      </trkpt>
      <trkpt lat="48.21605" lon="-3.1288">
        <ele>143.39999389648</ele>
        <time>2020-10-19T15:00:38.000Z</time>
      </trkpt>
      <trkpt lat="48.21604" lon="-3.12879">
        <ele>143.19999694824</ele>
        <time>2020-10-19T15:00:39.000Z</time>
      </trkpt>
      <trkpt lat="48.21604" lon="-3.12877">
        <ele>143</ele>
        <time>2020-10-19T15:00:40.000Z</time>
      </trkpt>
      <trkpt lat="48.21604" lon="-3.12876">
        <ele>143</ele>
        <time>2020-10-19T15:00:41.000Z</time>
      </trkpt>
      <trkpt lat="48.21604" lon="-3.12875">
        <ele>142.80000305176</ele>
        <time>2020-10-19T15:00:42.000Z</time>
      </trkpt>
      <trkpt lat="48.21604" lon="-3.12873">
        <ele>142.80000305176</ele>
        <time>2020-10-19T15:00:43.000Z</time>
      </trkpt>
      <trkpt lat="48.21604" lon="-3.12871">
        <ele>142.60000610352</ele>
        <time>2020-10-19T15:00:44.000Z</time>
      </trkpt>
      <trkpt lat="48.21605" lon="-3.12869">
        <ele>142.60000610352</ele>
        <time>2020-10-19T15:00:45.000Z</time>
      </trkpt>
      <trkpt lat="48.21605" lon="-3.12868">
        <ele>142.39999389648</ele>
        <time>2020-10-19T15:00:46.000Z</time>
      </trkpt>
      <trkpt lat="48.21606" lon="-3.12866">
        <ele>142.39999389648</ele>
        <time>2020-10-19T15:00:47.000Z</time>
      </trkpt>
      <trkpt lat="48.21606" lon="-3.12865">
        <ele>142.39999389648</ele>
        <time>2020-10-19T15:00:48.000Z</time>
      </trkpt>
      <trkpt lat="48.21606" lon="-3.12863">
        <ele>142.19999694824</ele>
        <time>2020-10-19T15:00:49.000Z</time>
      </trkpt>
      <trkpt lat="48.21607" lon="-3.12861">
        <ele>142</ele>
        <time>2020-10-19T15:00:50.000Z</time>
      </trkpt>
      <trkpt lat="48.21607" lon="-3.12859">
        <ele>142</ele>
        <time>2020-10-19T15:00:51.000Z</time>
      </trkpt>
      <trkpt lat="48.21607" lon="-3.12858">
        <ele>141.80000305176</ele>
        <time>2020-10-19T15:00:52.000Z</time>
      </trkpt>
      <trkpt lat="48.21607" lon="-3.12856">
        <ele>141.80000305176</ele>
        <time>2020-10-19T15:00:53.000Z</time>
      </trkpt>
      <trkpt lat="48.21607" lon="-3.12854">
        <ele>141.60000610352</ele>
        <time>2020-10-19T15:00:54.000Z</time>
      </trkpt>
      <trkpt lat="48.21607" lon="-3.12852">
        <ele>141.39999389648</ele>
        <time>2020-10-19T15:00:55.000Z</time>
      </trkpt>
      <trkpt lat="48.21606" lon="-3.12851">
        <ele>141.19999694824</ele>
        <time>2020-10-19T15:00:56.000Z</time>
      </trkpt>
      <trkpt lat="48.21606" lon="-3.12849">
        <ele>141</ele>
        <time>2020-10-19T15:00:57.000Z</time>
      </trkpt>
      <trkpt lat="48.21607" lon="-3.12848">
        <ele>141</ele>
        <time>2020-10-19T15:00:58.000Z</time>
      </trkpt>
      <trkpt lat="48.21607" lon="-3.12846">
        <ele>140.80000305176</ele>
        <time>2020-10-19T15:00:59.000Z</time>
      </trkpt>
      <trkpt lat="48.21607" lon="-3.12845">
        <ele>140.80000305176</ele>
        <time>2020-10-19T15:01:00.000Z</time>
      </trkpt>
      <trkpt lat="48.21607" lon="-3.12843">
        <ele>140.60000610352</ele>
        <time>2020-10-19T15:01:01.000Z</time>
      </trkpt>
      <trkpt lat="48.21607" lon="-3.12841">
        <ele>140.39999389648</ele>
        <time>2020-10-19T15:01:02.000Z</time>
      </trkpt>
      <trkpt lat="48.21607" lon="-3.1284">
        <ele>140.39999389648</ele>
        <time>2020-10-19T15:01:03.000Z</time>
      </trkpt>
      <trkpt lat="48.21607" lon="-3.12839">
        <ele>140.39999389648</ele>
        <time>2020-10-19T15:01:04.000Z</time>
      </trkpt>
      <trkpt lat="48.21607" lon="-3.12837">
        <ele>140.19999694824</ele>
        <time>2020-10-19T15:01:05.000Z</time>
      </trkpt>
      <trkpt lat="48.21608" lon="-3.12836">
        <ele>140.19999694824</ele>
        <time>2020-10-19T15:01:06.000Z</time>
      </trkpt>
      <trkpt lat="48.21608" lon="-3.12834">
        <ele>140</ele>
        <time>2020-10-19T15:01:07.000Z</time>
      </trkpt>
      <trkpt lat="48.21608" lon="-3.12833">
        <ele>140</ele>
        <time>2020-10-19T15:01:08.000Z</time>
      </trkpt>
      <trkpt lat="48.21607" lon="-3.12831">
        <ele>139.80000305176</ele>
        <time>2020-10-19T15:01:09.000Z</time>
      </trkpt>
      <trkpt lat="48.21607" lon="-3.1283">
        <ele>139.80000305176</ele>
        <time>2020-10-19T15:01:10.000Z</time>
      </trkpt>
      <trkpt lat="48.21607" lon="-3.12828">
        <ele>139.60000610352</ele>
        <time>2020-10-19T15:01:11.000Z</time>
      </trkpt>
      <trkpt lat="48.21607" lon="-3.12827">
        <ele>139.60000610352</ele>
        <time>2020-10-19T15:01:12.000Z</time>
      </trkpt>
      <trkpt lat="48.21607" lon="-3.12825">
        <ele>139.39999389648</ele>
        <time>2020-10-19T15:01:13.000Z</time>
      </trkpt>
      <trkpt lat="48.21606" lon="-3.12824">
        <ele>139.39999389648</ele>
        <time>2020-10-19T15:01:14.000Z</time>
      </trkpt>
      <trkpt lat="48.21606" lon="-3.12823">
        <ele>139.19999694824</ele>
        <time>2020-10-19T15:01:15.000Z</time>
      </trkpt>
      <trkpt lat="48.21605" lon="-3.12821">
        <ele>139</ele>
        <time>2020-10-19T15:01:16.000Z</time>
      </trkpt>
      <trkpt lat="48.21604" lon="-3.1282">
        <ele>139</ele>
        <time>2020-10-19T15:01:17.000Z</time>
      </trkpt>
      <trkpt lat="48.21603" lon="-3.12819">
        <ele>138.80000305176</ele>
        <time>2020-10-19T15:01:18.000Z</time>
      </trkpt>
      <trkpt lat="48.21603" lon="-3.12818">
        <ele>138.60000610352</ele>
        <time>2020-10-19T15:01:19.000Z</time>
      </trkpt>
      <trkpt lat="48.21601" lon="-3.12817">
        <ele>138.39999389648</ele>
        <time>2020-10-19T15:01:20.000Z</time>
      </trkpt>
      <trkpt lat="48.216" lon="-3.12816">
        <ele>138.19999694824</ele>
        <time>2020-10-19T15:01:21.000Z</time>
      </trkpt>
      <trkpt lat="48.21599" lon="-3.12814">
        <ele>138</ele>
        <time>2020-10-19T15:01:22.000Z</time>
      </trkpt>
      <trkpt lat="48.21599" lon="-3.12814">
        <ele>138</ele>
        <time>2020-10-19T15:01:23.000Z</time>
      </trkpt>
      <trkpt lat="48.21598" lon="-3.12813">
        <ele>137.80000305176</ele>
        <time>2020-10-19T15:01:24.000Z</time>
      </trkpt>
      <trkpt lat="48.21597" lon="-3.12812">
        <ele>137.60000610352</ele>
        <time>2020-10-19T15:01:25.000Z</time>
      </trkpt>
      <trkpt lat="48.21596" lon="-3.12811">
        <ele>137.60000610352</ele>
        <time>2020-10-19T15:01:26.000Z</time>
      </trkpt>
      <trkpt lat="48.21595" lon="-3.1281">
        <ele>137.39999389648</ele>
        <time>2020-10-19T15:01:27.000Z</time>
      </trkpt>
      <trkpt lat="48.21594" lon="-3.1281">
        <ele>137.19999694824</ele>
        <time>2020-10-19T15:01:28.000Z</time>
      </trkpt>
      <trkpt lat="48.21592" lon="-3.12809">
        <ele>137</ele>
        <time>2020-10-19T15:01:29.000Z</time>
      </trkpt>
      <trkpt lat="48.21591" lon="-3.12809">
        <ele>137</ele>
        <time>2020-10-19T15:01:30.000Z</time>
      </trkpt>
      <trkpt lat="48.2159" lon="-3.12808">
        <ele>136.80000305176</ele>
        <time>2020-10-19T15:01:31.000Z</time>
      </trkpt>
      <trkpt lat="48.21589" lon="-3.12808">
        <ele>136.60000610352</ele>
        <time>2020-10-19T15:01:32.000Z</time>
      </trkpt>
      <trkpt lat="48.21588" lon="-3.12807">
        <ele>136.60000610352</ele>
        <time>2020-10-19T15:01:33.000Z</time>
      </trkpt>
      <trkpt lat="48.21586" lon="-3.12807">
        <ele>136.39999389648</ele>
        <time>2020-10-19T15:01:34.000Z</time>
      </trkpt>
      <trkpt lat="48.21585" lon="-3.12807">
        <ele>136.19999694824</ele>
        <time>2020-10-19T15:01:35.000Z</time>
      </trkpt>
      <trkpt lat="48.21584" lon="-3.12806">
        <ele>136.19999694824</ele>
        <time>2020-10-19T15:01:36.000Z</time>
      </trkpt>
      <trkpt lat="48.21583" lon="-3.12806">
        <ele>136</ele>
        <time>2020-10-19T15:01:37.000Z</time>
      </trkpt>
      <trkpt lat="48.21582" lon="-3.12806">
        <ele>136</ele>
        <time>2020-10-19T15:01:38.000Z</time>
      </trkpt>
      <trkpt lat="48.21581" lon="-3.12806">
        <ele>135.80000305176</ele>
        <time>2020-10-19T15:01:39.000Z</time>
      </trkpt>
      <trkpt lat="48.2158" lon="-3.12806">
        <ele>135.80000305176</ele>
        <time>2020-10-19T15:01:40.000Z</time>
      </trkpt>
      <trkpt lat="48.21579" lon="-3.12806">
        <ele>135.60000610352</ele>
        <time>2020-10-19T15:01:41.000Z</time>
      </trkpt>
      <trkpt lat="48.21578" lon="-3.12805">
        <ele>135.39999389648</ele>
        <time>2020-10-19T15:01:42.000Z</time>
      </trkpt>
      <trkpt lat="48.21577" lon="-3.12805">
        <ele>135.39999389648</ele>
        <time>2020-10-19T15:01:43.000Z</time>
      </trkpt>
      <trkpt lat="48.21576" lon="-3.12805">
        <ele>135.19999694824</ele>
        <time>2020-10-19T15:01:44.000Z</time>
      </trkpt>
      <trkpt lat="48.21575" lon="-3.12805">
        <ele>135.19999694824</ele>
        <time>2020-10-19T15:01:45.000Z</time>
      </trkpt>
      <trkpt lat="48.21574" lon="-3.12805">
        <ele>135</ele>
        <time>2020-10-19T15:01:46.000Z</time>
      </trkpt>
      <trkpt lat="48.21572" lon="-3.12804">
        <ele>134.80000305176</ele>
        <time>2020-10-19T15:01:47.000Z</time>
      </trkpt>
      <trkpt lat="48.21571" lon="-3.12804">
        <ele>134.80000305176</ele>
        <time>2020-10-19T15:01:48.000Z</time>
      </trkpt>
      <trkpt lat="48.2157" lon="-3.12805">
        <ele>134.80000305176</ele>
        <time>2020-10-19T15:01:49.000Z</time>
      </trkpt>
      <trkpt lat="48.21569" lon="-3.12804">
        <ele>134.60000610352</ele>
        <time>2020-10-19T15:01:50.000Z</time>
      </trkpt>
      <trkpt lat="48.21568" lon="-3.12804">
        <ele>134.39999389648</ele>
        <time>2020-10-19T15:01:51.000Z</time>
      </trkpt>
      <trkpt lat="48.21567" lon="-3.12804">
        <ele>134.39999389648</ele>
        <time>2020-10-19T15:01:52.000Z</time>
      </trkpt>
      <trkpt lat="48.21565" lon="-3.12804">
        <ele>134.19999694824</ele>
        <time>2020-10-19T15:01:53.000Z</time>
      </trkpt>
      <trkpt lat="48.21563" lon="-3.12804">
        <ele>134</ele>
        <time>2020-10-19T15:01:54.000Z</time>
      </trkpt>
      <trkpt lat="48.21563" lon="-3.12804">
        <ele>134</ele>
        <time>2020-10-19T15:01:55.000Z</time>
      </trkpt>
      <trkpt lat="48.21562" lon="-3.12804">
        <ele>133.80000305176</ele>
        <time>2020-10-19T15:01:56.000Z</time>
      </trkpt>
      <trkpt lat="48.21561" lon="-3.12804">
        <ele>133.80000305176</ele>
        <time>2020-10-19T15:01:57.000Z</time>
      </trkpt>
      <trkpt lat="48.2156" lon="-3.12804">
        <ele>133.60000610352</ele>
        <time>2020-10-19T15:01:58.000Z</time>
      </trkpt>
      <trkpt lat="48.21559" lon="-3.12805">
        <ele>133.60000610352</ele>
        <time>2020-10-19T15:01:59.000Z</time>
      </trkpt>
      <trkpt lat="48.21558" lon="-3.12804">
        <ele>133.60000610352</ele>
        <time>2020-10-19T15:02:00.000Z</time>
      </trkpt>
      <trkpt lat="48.21557" lon="-3.12804">
        <ele>133.39999389648</ele>
        <time>2020-10-19T15:02:01.000Z</time>
      </trkpt>
      <trkpt lat="48.21556" lon="-3.12804">
        <ele>133.39999389648</ele>
        <time>2020-10-19T15:02:02.000Z</time>
      </trkpt>
      <trkpt lat="48.21555" lon="-3.12804">
        <ele>133.19999694824</ele>
        <time>2020-10-19T15:02:03.000Z</time>
      </trkpt>
      <trkpt lat="48.21554" lon="-3.12804">
        <ele>133.19999694824</ele>
        <time>2020-10-19T15:02:04.000Z</time>
      </trkpt>
      <trkpt lat="48.21552" lon="-3.12805">
        <ele>133</ele>
        <time>2020-10-19T15:02:05.000Z</time>
      </trkpt>
      <trkpt lat="48.21551" lon="-3.12805">
        <ele>132.80000305176</ele>
        <time>2020-10-19T15:02:06.000Z</time>
      </trkpt>
      <trkpt lat="48.2155" lon="-3.12805">
        <ele>132.80000305176</ele>
        <time>2020-10-19T15:02:07.000Z</time>
      </trkpt>
      <trkpt lat="48.21549" lon="-3.12805">
        <ele>132.80000305176</ele>
        <time>2020-10-19T15:02:08.000Z</time>
      </trkpt>
      <trkpt lat="48.21548" lon="-3.12805">
        <ele>132.80000305176</ele>
        <time>2020-10-19T15:02:09.000Z</time>
      </trkpt>
      <trkpt lat="48.21546" lon="-3.12806">
        <ele>132.60000610352</ele>
        <time>2020-10-19T15:02:10.000Z</time>
      </trkpt>
      <trkpt lat="48.21545" lon="-3.12805">
        <ele>132.60000610352</ele>
        <time>2020-10-19T15:02:11.000Z</time>
      </trkpt>
      <trkpt lat="48.21543" lon="-3.12805">
        <ele>132.60000610352</ele>
        <time>2020-10-19T15:02:12.000Z</time>
      </trkpt>
      <trkpt lat="48.21542" lon="-3.12805">
        <ele>132.39999389648</ele>
        <time>2020-10-19T15:02:13.000Z</time>
      </trkpt>
      <trkpt lat="48.21541" lon="-3.12806">
        <ele>132.39999389648</ele>
        <time>2020-10-19T15:02:14.000Z</time>
      </trkpt>
      <trkpt lat="48.2154" lon="-3.12806">
        <ele>132.39999389648</ele>
        <time>2020-10-19T15:02:15.000Z</time>
      </trkpt>
      <trkpt lat="48.21539" lon="-3.12806">
        <ele>132.39999389648</ele>
        <time>2020-10-19T15:02:16.000Z</time>
      </trkpt>
      <trkpt lat="48.21538" lon="-3.12807">
        <ele>132.19999694824</ele>
        <time>2020-10-19T15:02:17.000Z</time>
      </trkpt>
      <trkpt lat="48.21537" lon="-3.12807">
        <ele>132.19999694824</ele>
        <time>2020-10-19T15:02:18.000Z</time>
      </trkpt>
      <trkpt lat="48.21534" lon="-3.12806">
        <ele>132</ele>
        <time>2020-10-19T15:02:19.000Z</time>
      </trkpt>
      <trkpt lat="48.21534" lon="-3.12806">
        <ele>132</ele>
        <time>2020-10-19T15:02:20.000Z</time>
      </trkpt>
      <trkpt lat="48.21533" lon="-3.12806">
        <ele>132</ele>
        <time>2020-10-19T15:02:21.000Z</time>
      </trkpt>
      <trkpt lat="48.21532" lon="-3.12806">
        <ele>132</ele>
        <time>2020-10-19T15:02:22.000Z</time>
      </trkpt>
      <trkpt lat="48.2153" lon="-3.12805">
        <ele>131.80000305176</ele>
        <time>2020-10-19T15:02:23.000Z</time>
      </trkpt>
      <trkpt lat="48.21529" lon="-3.12805">
        <ele>131.80000305176</ele>
        <time>2020-10-19T15:02:24.000Z</time>
      </trkpt>
      <trkpt lat="48.21528" lon="-3.12805">
        <ele>131.80000305176</ele>
        <time>2020-10-19T15:02:25.000Z</time>
      </trkpt>
      <trkpt lat="48.21526" lon="-3.12804">
        <ele>131.60000610352</ele>
        <time>2020-10-19T15:02:26.000Z</time>
      </trkpt>
      <trkpt lat="48.21525" lon="-3.12804">
        <ele>131.60000610352</ele>
        <time>2020-10-19T15:02:27.000Z</time>
      </trkpt>
      <trkpt lat="48.21523" lon="-3.12804">
        <ele>131.60000610352</ele>
        <time>2020-10-19T15:02:28.000Z</time>
      </trkpt>
      <trkpt lat="48.21522" lon="-3.12804">
        <ele>131.39999389648</ele>
        <time>2020-10-19T15:02:29.000Z</time>
      </trkpt>
      <trkpt lat="48.21521" lon="-3.12804">
        <ele>131.39999389648</ele>
        <time>2020-10-19T15:02:30.000Z</time>
      </trkpt>
      <trkpt lat="48.21519" lon="-3.12805">
        <ele>131.39999389648</ele>
        <time>2020-10-19T15:02:31.000Z</time>
      </trkpt>
      <trkpt lat="48.21518" lon="-3.12805">
        <ele>131.19999694824</ele>
        <time>2020-10-19T15:02:32.000Z</time>
      </trkpt>
      <trkpt lat="48.21517" lon="-3.12805">
        <ele>131.19999694824</ele>
        <time>2020-10-19T15:02:33.000Z</time>
      </trkpt>
      <trkpt lat="48.21515" lon="-3.12805">
        <ele>131.19999694824</ele>
        <time>2020-10-19T15:02:34.000Z</time>
      </trkpt>
      <trkpt lat="48.21514" lon="-3.12805">
        <ele>131.19999694824</ele>
        <time>2020-10-19T15:02:35.000Z</time>
      </trkpt>
      <trkpt lat="48.21513" lon="-3.12805">
        <ele>131</ele>
        <time>2020-10-19T15:02:36.000Z</time>
      </trkpt>
      <trkpt lat="48.21512" lon="-3.12805">
        <ele>131</ele>
        <time>2020-10-19T15:02:37.000Z</time>
      </trkpt>
      <trkpt lat="48.21511" lon="-3.12806">
        <ele>131</ele>
        <time>2020-10-19T15:02:38.000Z</time>
      </trkpt>
      <trkpt lat="48.2151" lon="-3.12806">
        <ele>131</ele>
        <time>2020-10-19T15:02:39.000Z</time>
      </trkpt>
      <trkpt lat="48.21509" lon="-3.12807">
        <ele>131</ele>
        <time>2020-10-19T15:02:40.000Z</time>
      </trkpt>
      <trkpt lat="48.21508" lon="-3.12808">
        <ele>131</ele>
        <time>2020-10-19T15:02:41.000Z</time>
      </trkpt>
      <trkpt lat="48.21507" lon="-3.12808">
        <ele>131</ele>
        <time>2020-10-19T15:02:42.000Z</time>
      </trkpt>
      <trkpt lat="48.21506" lon="-3.12809">
        <ele>131</ele>
        <time>2020-10-19T15:02:43.000Z</time>
      </trkpt>
      <trkpt lat="48.21506" lon="-3.1281">
        <ele>131</ele>
        <time>2020-10-19T15:02:44.000Z</time>
      </trkpt>
      <trkpt lat="48.21505" lon="-3.12812">
        <ele>131</ele>
        <time>2020-10-19T15:02:45.000Z</time>
      </trkpt>
      <trkpt lat="48.21504" lon="-3.12813">
        <ele>131</ele>
        <time>2020-10-19T15:02:46.000Z</time>
      </trkpt>
      <trkpt lat="48.21503" lon="-3.12814">
        <ele>130.80000305176</ele>
        <time>2020-10-19T15:02:47.000Z</time>
      </trkpt>
      <trkpt lat="48.21503" lon="-3.12815">
        <ele>130.80000305176</ele>
        <time>2020-10-19T15:02:48.000Z</time>
      </trkpt>
      <trkpt lat="48.21502" lon="-3.12816">
        <ele>130.80000305176</ele>
        <time>2020-10-19T15:02:49.000Z</time>
      </trkpt>
      <trkpt lat="48.21502" lon="-3.12818">
        <ele>130.80000305176</ele>
        <time>2020-10-19T15:02:50.000Z</time>
      </trkpt>
      <trkpt lat="48.21501" lon="-3.12819">
        <ele>130.80000305176</ele>
        <time>2020-10-19T15:02:51.000Z</time>
      </trkpt>
      <trkpt lat="48.215" lon="-3.1282">
        <ele>130.80000305176</ele>
        <time>2020-10-19T15:02:52.000Z</time>
      </trkpt>
      <trkpt lat="48.215" lon="-3.12821">
        <ele>130.80000305176</ele>
        <time>2020-10-19T15:02:53.000Z</time>
      </trkpt>
      <trkpt lat="48.21499" lon="-3.12823">
        <ele>130.80000305176</ele>
        <time>2020-10-19T15:02:54.000Z</time>
      </trkpt>
      <trkpt lat="48.21498" lon="-3.12824">
        <ele>130.80000305176</ele>
        <time>2020-10-19T15:02:55.000Z</time>
      </trkpt>
      <trkpt lat="48.21497" lon="-3.12825">
        <ele>130.80000305176</ele>
        <time>2020-10-19T15:02:56.000Z</time>
      </trkpt>
      <trkpt lat="48.21496" lon="-3.12826">
        <ele>130.80000305176</ele>
        <time>2020-10-19T15:02:57.000Z</time>
      </trkpt>
      <trkpt lat="48.21495" lon="-3.12828">
        <ele>130.80000305176</ele>
        <time>2020-10-19T15:02:58.000Z</time>
      </trkpt>
      <trkpt lat="48.21494" lon="-3.12829">
        <ele>130.80000305176</ele>
        <time>2020-10-19T15:02:59.000Z</time>
      </trkpt>
      <trkpt lat="48.21493" lon="-3.1283">
        <ele>130.80000305176</ele>
        <time>2020-10-19T15:03:00.000Z</time>
      </trkpt>
      <trkpt lat="48.21492" lon="-3.12831">
        <ele>130.80000305176</ele>
        <time>2020-10-19T15:03:01.000Z</time>
      </trkpt>
      <trkpt lat="48.21492" lon="-3.12832">
        <ele>130.80000305176</ele>
        <time>2020-10-19T15:03:02.000Z</time>
      </trkpt>
      <trkpt lat="48.21491" lon="-3.12834">
        <ele>130.80000305176</ele>
        <time>2020-10-19T15:03:03.000Z</time>
      </trkpt>
      <trkpt lat="48.2149" lon="-3.12835">
        <ele>130.80000305176</ele>
        <time>2020-10-19T15:03:04.000Z</time>
      </trkpt>
      <trkpt lat="48.21489" lon="-3.12837">
        <ele>130.80000305176</ele>
        <time>2020-10-19T15:03:05.000Z</time>
      </trkpt>
      <trkpt lat="48.21488" lon="-3.12838">
        <ele>130.80000305176</ele>
        <time>2020-10-19T15:03:06.000Z</time>
      </trkpt>
      <trkpt lat="48.21488" lon="-3.12839">
        <ele>130.80000305176</ele>
        <time>2020-10-19T15:03:07.000Z</time>
      </trkpt>
      <trkpt lat="48.21487" lon="-3.1284">
        <ele>130.80000305176</ele>
        <time>2020-10-19T15:03:08.000Z</time>
      </trkpt>
      <trkpt lat="48.21487" lon="-3.12842">
        <ele>130.60000610352</ele>
        <time>2020-10-19T15:03:09.000Z</time>
      </trkpt>
      <trkpt lat="48.21486" lon="-3.12843">
        <ele>130.60000610352</ele>
        <time>2020-10-19T15:03:10.000Z</time>
      </trkpt>
      <trkpt lat="48.21485" lon="-3.12844">
        <ele>130.60000610352</ele>
        <time>2020-10-19T15:03:11.000Z</time>
      </trkpt>
      <trkpt lat="48.21484" lon="-3.12845">
        <ele>130.60000610352</ele>
        <time>2020-10-19T15:03:12.000Z</time>
      </trkpt>
      <trkpt lat="48.21483" lon="-3.12847">
        <ele>130.60000610352</ele>
        <time>2020-10-19T15:03:13.000Z</time>
      </trkpt>
      <trkpt lat="48.21482" lon="-3.12848">
        <ele>130.60000610352</ele>
        <time>2020-10-19T15:03:14.000Z</time>
      </trkpt>
      <trkpt lat="48.21482" lon="-3.12849">
        <ele>130.60000610352</ele>
        <time>2020-10-19T15:03:15.000Z</time>
      </trkpt>
      <trkpt lat="48.21481" lon="-3.12851">
        <ele>130.39999389648</ele>
        <time>2020-10-19T15:03:16.000Z</time>
      </trkpt>
      <trkpt lat="48.21481" lon="-3.12852">
        <ele>130.39999389648</ele>
        <time>2020-10-19T15:03:17.000Z</time>
      </trkpt>
      <trkpt lat="48.21481" lon="-3.12853">
        <ele>130.39999389648</ele>
        <time>2020-10-19T15:03:18.000Z</time>
      </trkpt>
      <trkpt lat="48.21481" lon="-3.12855">
        <ele>130.39999389648</ele>
        <time>2020-10-19T15:03:19.000Z</time>
      </trkpt>
      <trkpt lat="48.21481" lon="-3.12857">
        <ele>130.39999389648</ele>
        <time>2020-10-19T15:03:20.000Z</time>
      </trkpt>
      <trkpt lat="48.21481" lon="-3.12859">
        <ele>130.19999694824</ele>
        <time>2020-10-19T15:03:21.000Z</time>
      </trkpt>
      <trkpt lat="48.2148" lon="-3.12861">
        <ele>130.19999694824</ele>
        <time>2020-10-19T15:03:22.000Z</time>
      </trkpt>
      <trkpt lat="48.2148" lon="-3.12862">
        <ele>130.19999694824</ele>
        <time>2020-10-19T15:03:23.000Z</time>
      </trkpt>
      <trkpt lat="48.2148" lon="-3.12864">
        <ele>130.19999694824</ele>
        <time>2020-10-19T15:03:24.000Z</time>
      </trkpt>
      <trkpt lat="48.2148" lon="-3.12865">
        <ele>130.19999694824</ele>
        <time>2020-10-19T15:03:25.000Z</time>
      </trkpt>
      <trkpt lat="48.2148" lon="-3.12867">
        <ele>130</ele>
        <time>2020-10-19T15:03:26.000Z</time>
      </trkpt>
      <trkpt lat="48.2148" lon="-3.12869">
        <ele>130</ele>
        <time>2020-10-19T15:03:27.000Z</time>
      </trkpt>
      <trkpt lat="48.21481" lon="-3.12871">
        <ele>130</ele>
        <time>2020-10-19T15:03:28.000Z</time>
      </trkpt>
      <trkpt lat="48.21481" lon="-3.12873">
        <ele>130</ele>
        <time>2020-10-19T15:03:29.000Z</time>
      </trkpt>
      <trkpt lat="48.21481" lon="-3.12875">
        <ele>130</ele>
        <time>2020-10-19T15:03:30.000Z</time>
      </trkpt>
      <trkpt lat="48.21481" lon="-3.12878">
        <ele>130</ele>
        <time>2020-10-19T15:03:31.000Z</time>
      </trkpt>
      <trkpt lat="48.21481" lon="-3.12878">
        <ele>130</ele>
        <time>2020-10-19T15:03:32.000Z</time>
      </trkpt>
      <trkpt lat="48.21482" lon="-3.1288">
        <ele>130.19999694824</ele>
        <time>2020-10-19T15:03:33.000Z</time>
      </trkpt>
      <trkpt lat="48.21481" lon="-3.12882">
        <ele>130.19999694824</ele>
        <time>2020-10-19T15:03:34.000Z</time>
      </trkpt>
      <trkpt lat="48.21481" lon="-3.12884">
        <ele>130.19999694824</ele>
        <time>2020-10-19T15:03:35.000Z</time>
      </trkpt>
      <trkpt lat="48.21481" lon="-3.12885">
        <ele>130.19999694824</ele>
        <time>2020-10-19T15:03:36.000Z</time>
      </trkpt>
      <trkpt lat="48.21481" lon="-3.12887">
        <ele>130.39999389648</ele>
        <time>2020-10-19T15:03:37.000Z</time>
      </trkpt>
      <trkpt lat="48.21481" lon="-3.12888">
        <ele>130.39999389648</ele>
        <time>2020-10-19T15:03:38.000Z</time>
      </trkpt>
      <trkpt lat="48.21481" lon="-3.1289">
        <ele>130.39999389648</ele>
        <time>2020-10-19T15:03:39.000Z</time>
      </trkpt>
      <trkpt lat="48.21481" lon="-3.12892">
        <ele>130.60000610352</ele>
        <time>2020-10-19T15:03:40.000Z</time>
      </trkpt>
      <trkpt lat="48.21482" lon="-3.12894">
        <ele>130.60000610352</ele>
        <time>2020-10-19T15:03:41.000Z</time>
      </trkpt>
      <trkpt lat="48.21482" lon="-3.12896">
        <ele>130.80000305176</ele>
        <time>2020-10-19T15:03:42.000Z</time>
      </trkpt>
      <trkpt lat="48.21482" lon="-3.12898">
        <ele>130.80000305176</ele>
        <time>2020-10-19T15:03:43.000Z</time>
      </trkpt>
      <trkpt lat="48.21482" lon="-3.12899">
        <ele>130.80000305176</ele>
        <time>2020-10-19T15:03:44.000Z</time>
      </trkpt>
      <trkpt lat="48.21482" lon="-3.12901">
        <ele>131</ele>
        <time>2020-10-19T15:03:45.000Z</time>
      </trkpt>
      <trkpt lat="48.21482" lon="-3.12903">
        <ele>131</ele>
        <time>2020-10-19T15:03:46.000Z</time>
      </trkpt>
      <trkpt lat="48.21482" lon="-3.12905">
        <ele>131</ele>
        <time>2020-10-19T15:03:47.000Z</time>
      </trkpt>
      <trkpt lat="48.21482" lon="-3.12906">
        <ele>131.19999694824</ele>
        <time>2020-10-19T15:03:48.000Z</time>
      </trkpt>
      <trkpt lat="48.21482" lon="-3.12908">
        <ele>131.19999694824</ele>
        <time>2020-10-19T15:03:49.000Z</time>
      </trkpt>
      <trkpt lat="48.21482" lon="-3.1291">
        <ele>131.19999694824</ele>
        <time>2020-10-19T15:03:50.000Z</time>
      </trkpt>
      <trkpt lat="48.21482" lon="-3.12911">
        <ele>131.19999694824</ele>
        <time>2020-10-19T15:03:51.000Z</time>
      </trkpt>
      <trkpt lat="48.21482" lon="-3.12913">
        <ele>131.39999389648</ele>
        <time>2020-10-19T15:03:52.000Z</time>
      </trkpt>
      <trkpt lat="48.21482" lon="-3.12915">
        <ele>131.39999389648</ele>
        <time>2020-10-19T15:03:53.000Z</time>
      </trkpt>
      <trkpt lat="48.21482" lon="-3.12918">
        <ele>131.60000610352</ele>
        <time>2020-10-19T15:03:54.000Z</time>
      </trkpt>
      <trkpt lat="48.21482" lon="-3.12918">
        <ele>131.60000610352</ele>
        <time>2020-10-19T15:03:55.000Z</time>
      </trkpt>
      <trkpt lat="48.21482" lon="-3.1292">
        <ele>131.60000610352</ele>
        <time>2020-10-19T15:03:56.000Z</time>
      </trkpt>
      <trkpt lat="48.21482" lon="-3.12922">
        <ele>131.60000610352</ele>
        <time>2020-10-19T15:03:57.000Z</time>
      </trkpt>
      <trkpt lat="48.21482" lon="-3.12923">
        <ele>131.80000305176</ele>
        <time>2020-10-19T15:03:58.000Z</time>
      </trkpt>
      <trkpt lat="48.21482" lon="-3.12925">
        <ele>131.80000305176</ele>
        <time>2020-10-19T15:03:59.000Z</time>
      </trkpt>
      <trkpt lat="48.21482" lon="-3.12927">
        <ele>131.80000305176</ele>
        <time>2020-10-19T15:04:00.000Z</time>
      </trkpt>
      <trkpt lat="48.21482" lon="-3.12929">
        <ele>131.80000305176</ele>
        <time>2020-10-19T15:04:01.000Z</time>
      </trkpt>
      <trkpt lat="48.21482" lon="-3.1293">
        <ele>131.80000305176</ele>
        <time>2020-10-19T15:04:02.000Z</time>
      </trkpt>
      <trkpt lat="48.21482" lon="-3.12932">
        <ele>131.80000305176</ele>
        <time>2020-10-19T15:04:03.000Z</time>
      </trkpt>
      <trkpt lat="48.21482" lon="-3.12934">
        <ele>131.80000305176</ele>
        <time>2020-10-19T15:04:04.000Z</time>
      </trkpt>
      <trkpt lat="48.21483" lon="-3.12936">
        <ele>131.80000305176</ele>
        <time>2020-10-19T15:04:05.000Z</time>
      </trkpt>
      <trkpt lat="48.21483" lon="-3.12938">
        <ele>132</ele>
        <time>2020-10-19T15:04:06.000Z</time>
      </trkpt>
      <trkpt lat="48.21483" lon="-3.12939">
        <ele>132</ele>
        <time>2020-10-19T15:04:07.000Z</time>
      </trkpt>
      <trkpt lat="48.21483" lon="-3.12941">
        <ele>132</ele>
        <time>2020-10-19T15:04:08.000Z</time>
      </trkpt>
      <trkpt lat="48.21484" lon="-3.12943">
        <ele>132</ele>
        <time>2020-10-19T15:04:09.000Z</time>
      </trkpt>
      <trkpt lat="48.21484" lon="-3.12944">
        <ele>132</ele>
        <time>2020-10-19T15:04:10.000Z</time>
      </trkpt>
      <trkpt lat="48.21484" lon="-3.12946">
        <ele>132</ele>
        <time>2020-10-19T15:04:11.000Z</time>
      </trkpt>
      <trkpt lat="48.21484" lon="-3.12947">
        <ele>132</ele>
        <time>2020-10-19T15:04:12.000Z</time>
      </trkpt>
      <trkpt lat="48.21484" lon="-3.12949">
        <ele>132</ele>
        <time>2020-10-19T15:04:13.000Z</time>
      </trkpt>
      <trkpt lat="48.21484" lon="-3.12951">
        <ele>132</ele>
        <time>2020-10-19T15:04:14.000Z</time>
      </trkpt>
      <trkpt lat="48.21485" lon="-3.12952">
        <ele>132</ele>
        <time>2020-10-19T15:04:15.000Z</time>
      </trkpt>
      <trkpt lat="48.21485" lon="-3.12954">
        <ele>132</ele>
        <time>2020-10-19T15:04:16.000Z</time>
      </trkpt>
      <trkpt lat="48.21485" lon="-3.12956">
        <ele>132.19999694824</ele>
        <time>2020-10-19T15:04:17.000Z</time>
      </trkpt>
      <trkpt lat="48.21485" lon="-3.12958">
        <ele>132.19999694824</ele>
        <time>2020-10-19T15:04:18.000Z</time>
      </trkpt>
      <trkpt lat="48.21485" lon="-3.12961">
        <ele>132.39999389648</ele>
        <time>2020-10-19T15:04:19.000Z</time>
      </trkpt>
      <trkpt lat="48.21485" lon="-3.12961">
        <ele>132.39999389648</ele>
        <time>2020-10-19T15:04:20.000Z</time>
      </trkpt>
      <trkpt lat="48.21485" lon="-3.12963">
        <ele>132.39999389648</ele>
        <time>2020-10-19T15:04:21.000Z</time>
      </trkpt>
      <trkpt lat="48.21485" lon="-3.12964">
        <ele>132.39999389648</ele>
        <time>2020-10-19T15:04:22.000Z</time>
      </trkpt>
      <trkpt lat="48.21485" lon="-3.12966">
        <ele>132.39999389648</ele>
        <time>2020-10-19T15:04:23.000Z</time>
      </trkpt>
      <trkpt lat="48.21485" lon="-3.12968">
        <ele>132.60000610352</ele>
        <time>2020-10-19T15:04:24.000Z</time>
      </trkpt>
      <trkpt lat="48.21485" lon="-3.1297">
        <ele>132.60000610352</ele>
        <time>2020-10-19T15:04:25.000Z</time>
      </trkpt>
      <trkpt lat="48.21485" lon="-3.12971">
        <ele>132.60000610352</ele>
        <time>2020-10-19T15:04:26.000Z</time>
      </trkpt>
      <trkpt lat="48.21485" lon="-3.12973">
        <ele>132.60000610352</ele>
        <time>2020-10-19T15:04:27.000Z</time>
      </trkpt>
    </trkseg>
  </trk>
</gpx>